<?xml version="1.0" encoding="UTF-8" standalone="no" ?>
<gpx xmlns="http://www.topografix.com/GPX/1/1" xmlns:xsi="http://www.w3.org/2001/XMLSchema-instance" xsi:schemaLocation="http://www.topografix.com/GPX/1/1 http://www.topografix.com/GPX/1/1/gpx.xsd" version="1.1" creator="VisuGPX - https://www.visugpx.com">
  <metadata>
    <name>Tullins St Marcellin par les Chambarrans</name>
    <desc><![CDATA[Circuit tranquille sans dénivellé, parfait]]></desc>
  </metadata>
  <trk>
    <name><![CDATA[Tullins St Marcellin par les Chambarrans]]></name>
    <trkseg>
      <trkpt lat="45.30116" lon="5.492">
        <ele>200.5</ele>
        <time>2021-05-03T07:52:23Z</time>
      </trkpt>
      <trkpt lat="45.30116" lon="5.49199">
        <ele>200.5</ele>
        <time>2021-05-03T07:52:24Z</time>
      </trkpt>
      <trkpt lat="45.30116" lon="5.49201">
        <ele>200.6</ele>
        <time>2021-05-03T07:52:25Z</time>
      </trkpt>
      <trkpt lat="45.30117" lon="5.49203">
        <ele>200.6</ele>
        <time>2021-05-03T07:52:26Z</time>
      </trkpt>
      <trkpt lat="45.30117" lon="5.49205">
        <ele>200.6</ele>
        <time>2021-05-03T07:52:27Z</time>
      </trkpt>
      <trkpt lat="45.30117" lon="5.49206">
        <ele>200.6</ele>
        <time>2021-05-03T07:52:28Z</time>
      </trkpt>
      <trkpt lat="45.30117" lon="5.49207">
        <ele>200.6</ele>
        <time>2021-05-03T07:52:29Z</time>
      </trkpt>
      <trkpt lat="45.30117" lon="5.49207">
        <ele>200.6</ele>
        <time>2021-05-03T07:52:30Z</time>
      </trkpt>
      <trkpt lat="45.30117" lon="5.49207">
        <ele>200.6</ele>
        <time>2021-05-03T07:52:31Z</time>
      </trkpt>
      <trkpt lat="45.30117" lon="5.49207">
        <ele>200.6</ele>
        <time>2021-05-03T07:52:32Z</time>
      </trkpt>
      <trkpt lat="45.30117" lon="5.49207">
        <ele>200.6</ele>
        <time>2021-05-03T07:52:33Z</time>
      </trkpt>
      <trkpt lat="45.30117" lon="5.49207">
        <ele>200.6</ele>
        <time>2021-05-03T07:52:34Z</time>
      </trkpt>
      <trkpt lat="45.30117" lon="5.49207">
        <ele>200.6</ele>
        <time>2021-05-03T07:52:35Z</time>
      </trkpt>
      <trkpt lat="45.30117" lon="5.49207">
        <ele>200.6</ele>
        <time>2021-05-03T07:52:36Z</time>
      </trkpt>
      <trkpt lat="45.30117" lon="5.49207">
        <ele>200.6</ele>
        <time>2021-05-03T07:52:37Z</time>
      </trkpt>
      <trkpt lat="45.30117" lon="5.49207">
        <ele>200.6</ele>
        <time>2021-05-03T07:52:38Z</time>
      </trkpt>
      <trkpt lat="45.30117" lon="5.49207">
        <ele>200.6</ele>
        <time>2021-05-03T07:52:39Z</time>
      </trkpt>
      <trkpt lat="45.30117" lon="5.49207">
        <ele>200.6</ele>
        <time>2021-05-03T07:52:40Z</time>
      </trkpt>
      <trkpt lat="45.30119" lon="5.49204">
        <ele>200.6</ele>
        <time>2021-05-03T07:54:01Z</time>
      </trkpt>
      <trkpt lat="45.30121" lon="5.49204">
        <ele>200.6</ele>
        <time>2021-05-03T07:54:02Z</time>
      </trkpt>
      <trkpt lat="45.30125" lon="5.49208">
        <ele>200.7</ele>
        <time>2021-05-03T07:54:04Z</time>
      </trkpt>
      <trkpt lat="45.30127" lon="5.49212">
        <ele>200.7</ele>
        <time>2021-05-03T07:54:05Z</time>
      </trkpt>
      <trkpt lat="45.30131" lon="5.49216">
        <ele>200.7</ele>
        <time>2021-05-03T07:54:07Z</time>
      </trkpt>
      <trkpt lat="45.30134" lon="5.49217">
        <ele>200.7</ele>
        <time>2021-05-03T07:54:08Z</time>
      </trkpt>
      <trkpt lat="45.30135" lon="5.49214">
        <ele>200.7</ele>
        <time>2021-05-03T07:54:10Z</time>
      </trkpt>
      <trkpt lat="45.30129" lon="5.4921">
        <ele>200.8</ele>
        <time>2021-05-03T07:54:12Z</time>
      </trkpt>
      <trkpt lat="45.30127" lon="5.49207">
        <ele>200.8</ele>
        <time>2021-05-03T07:54:13Z</time>
      </trkpt>
      <trkpt lat="45.30123" lon="5.49205">
        <ele>200.8</ele>
        <time>2021-05-03T07:54:15Z</time>
      </trkpt>
      <trkpt lat="45.3012" lon="5.49203">
        <ele>200.9</ele>
        <time>2021-05-03T07:54:16Z</time>
      </trkpt>
      <trkpt lat="45.30118" lon="5.49202">
        <ele>200.9</ele>
        <time>2021-05-03T07:54:17Z</time>
      </trkpt>
      <trkpt lat="45.30114" lon="5.492">
        <ele>200.9</ele>
        <time>2021-05-03T07:54:18Z</time>
      </trkpt>
      <trkpt lat="45.30107" lon="5.49197">
        <ele>200.9</ele>
        <time>2021-05-03T07:54:20Z</time>
      </trkpt>
      <trkpt lat="45.30104" lon="5.49195">
        <ele>201</ele>
        <time>2021-05-03T07:54:21Z</time>
      </trkpt>
      <trkpt lat="45.30102" lon="5.49194">
        <ele>201</ele>
        <time>2021-05-03T07:54:22Z</time>
      </trkpt>
      <trkpt lat="45.30099" lon="5.49194">
        <ele>201</ele>
        <time>2021-05-03T07:54:24Z</time>
      </trkpt>
      <trkpt lat="45.30097" lon="5.49192">
        <ele>201.1</ele>
        <time>2021-05-03T07:54:25Z</time>
      </trkpt>
      <trkpt lat="45.30093" lon="5.4919">
        <ele>201.1</ele>
        <time>2021-05-03T07:54:26Z</time>
      </trkpt>
      <trkpt lat="45.3009" lon="5.49189">
        <ele>201.1</ele>
        <time>2021-05-03T07:54:27Z</time>
      </trkpt>
      <trkpt lat="45.30086" lon="5.4919">
        <ele>201.1</ele>
        <time>2021-05-03T07:54:28Z</time>
      </trkpt>
      <trkpt lat="45.30082" lon="5.49191">
        <ele>201.1</ele>
        <time>2021-05-03T07:54:30Z</time>
      </trkpt>
      <trkpt lat="45.30078" lon="5.49195">
        <ele>201.1</ele>
        <time>2021-05-03T07:54:32Z</time>
      </trkpt>
      <trkpt lat="45.30074" lon="5.49194">
        <ele>201.1</ele>
        <time>2021-05-03T07:54:33Z</time>
      </trkpt>
      <trkpt lat="45.3007" lon="5.49188">
        <ele>201.1</ele>
        <time>2021-05-03T07:54:35Z</time>
      </trkpt>
      <trkpt lat="45.30067" lon="5.49187">
        <ele>201.1</ele>
        <time>2021-05-03T07:54:36Z</time>
      </trkpt>
      <trkpt lat="45.30064" lon="5.49185">
        <ele>201.1</ele>
        <time>2021-05-03T07:54:37Z</time>
      </trkpt>
      <trkpt lat="45.30058" lon="5.49183">
        <ele>201.1</ele>
        <time>2021-05-03T07:54:39Z</time>
      </trkpt>
      <trkpt lat="45.30053" lon="5.49186">
        <ele>201.1</ele>
        <time>2021-05-03T07:54:41Z</time>
      </trkpt>
      <trkpt lat="45.30052" lon="5.49189">
        <ele>201.1</ele>
        <time>2021-05-03T07:54:42Z</time>
      </trkpt>
      <trkpt lat="45.30052" lon="5.49193">
        <ele>201.1</ele>
        <time>2021-05-03T07:54:43Z</time>
      </trkpt>
      <trkpt lat="45.30053" lon="5.49192">
        <ele>201.1</ele>
        <time>2021-05-03T07:54:45Z</time>
      </trkpt>
      <trkpt lat="45.30053" lon="5.49191">
        <ele>201.1</ele>
        <time>2021-05-03T07:54:46Z</time>
      </trkpt>
      <trkpt lat="45.30054" lon="5.49191">
        <ele>201.1</ele>
        <time>2021-05-03T07:54:47Z</time>
      </trkpt>
      <trkpt lat="45.30054" lon="5.49191">
        <ele>201.1</ele>
        <time>2021-05-03T07:54:48Z</time>
      </trkpt>
      <trkpt lat="45.30054" lon="5.49191">
        <ele>201.1</ele>
        <time>2021-05-03T07:54:49Z</time>
      </trkpt>
      <trkpt lat="45.30054" lon="5.49191">
        <ele>201.1</ele>
        <time>2021-05-03T07:54:51Z</time>
      </trkpt>
      <trkpt lat="45.30054" lon="5.49191">
        <ele>201.1</ele>
        <time>2021-05-03T07:54:53Z</time>
      </trkpt>
      <trkpt lat="45.30055" lon="5.4919">
        <ele>201.1</ele>
        <time>2021-05-03T07:56:04Z</time>
      </trkpt>
      <trkpt lat="45.30055" lon="5.4919">
        <ele>201.1</ele>
        <time>2021-05-03T07:56:05Z</time>
      </trkpt>
      <trkpt lat="45.30055" lon="5.4919">
        <ele>201.1</ele>
        <time>2021-05-03T07:56:06Z</time>
      </trkpt>
      <trkpt lat="45.30055" lon="5.49191">
        <ele>201.1</ele>
        <time>2021-05-03T07:56:07Z</time>
      </trkpt>
      <trkpt lat="45.30055" lon="5.49191">
        <ele>201.1</ele>
        <time>2021-05-03T07:56:08Z</time>
      </trkpt>
      <trkpt lat="45.30055" lon="5.49191">
        <ele>201.1</ele>
        <time>2021-05-03T07:56:09Z</time>
      </trkpt>
      <trkpt lat="45.30055" lon="5.49191">
        <ele>201.1</ele>
        <time>2021-05-03T07:56:10Z</time>
      </trkpt>
      <trkpt lat="45.30055" lon="5.49191">
        <ele>201.1</ele>
        <time>2021-05-03T07:56:11Z</time>
      </trkpt>
      <trkpt lat="45.30055" lon="5.49192">
        <ele>201.1</ele>
        <time>2021-05-03T07:56:12Z</time>
      </trkpt>
      <trkpt lat="45.30055" lon="5.49192">
        <ele>201.1</ele>
        <time>2021-05-03T07:56:13Z</time>
      </trkpt>
      <trkpt lat="45.30055" lon="5.49192">
        <ele>201.1</ele>
        <time>2021-05-03T07:56:14Z</time>
      </trkpt>
      <trkpt lat="45.30055" lon="5.49192">
        <ele>201.1</ele>
        <time>2021-05-03T07:56:15Z</time>
      </trkpt>
      <trkpt lat="45.30057" lon="5.49197">
        <ele>201.1</ele>
        <time>2021-05-03T07:58:14Z</time>
      </trkpt>
      <trkpt lat="45.30058" lon="5.49202">
        <ele>201.1</ele>
        <time>2021-05-03T07:58:16Z</time>
      </trkpt>
      <trkpt lat="45.30057" lon="5.49207">
        <ele>201.1</ele>
        <time>2021-05-03T07:58:17Z</time>
      </trkpt>
      <trkpt lat="45.30057" lon="5.49208">
        <ele>201.1</ele>
        <time>2021-05-03T07:58:18Z</time>
      </trkpt>
      <trkpt lat="45.30056" lon="5.4921">
        <ele>201.1</ele>
        <time>2021-05-03T07:58:19Z</time>
      </trkpt>
      <trkpt lat="45.30057" lon="5.49213">
        <ele>201.1</ele>
        <time>2021-05-03T07:58:20Z</time>
      </trkpt>
      <trkpt lat="45.30062" lon="5.49217">
        <ele>201.1</ele>
        <time>2021-05-03T07:58:22Z</time>
      </trkpt>
      <trkpt lat="45.30065" lon="5.49219">
        <ele>201.1</ele>
        <time>2021-05-03T07:58:23Z</time>
      </trkpt>
      <trkpt lat="45.30068" lon="5.4922">
        <ele>201.1</ele>
        <time>2021-05-03T07:58:24Z</time>
      </trkpt>
      <trkpt lat="45.30071" lon="5.49221">
        <ele>201.1</ele>
        <time>2021-05-03T07:58:26Z</time>
      </trkpt>
      <trkpt lat="45.30076" lon="5.49223">
        <ele>201.1</ele>
        <time>2021-05-03T07:58:28Z</time>
      </trkpt>
      <trkpt lat="45.3008" lon="5.4922">
        <ele>201.1</ele>
        <time>2021-05-03T07:58:29Z</time>
      </trkpt>
      <trkpt lat="45.30089" lon="5.4921">
        <ele>201.1</ele>
        <time>2021-05-03T07:58:31Z</time>
      </trkpt>
      <trkpt lat="45.30094" lon="5.49202">
        <ele>201.1</ele>
        <time>2021-05-03T07:58:32Z</time>
      </trkpt>
      <trkpt lat="45.301" lon="5.49193">
        <ele>201.1</ele>
        <time>2021-05-03T07:58:33Z</time>
      </trkpt>
      <trkpt lat="45.30103" lon="5.49182">
        <ele>201.3</ele>
        <time>2021-05-03T07:58:35Z</time>
      </trkpt>
      <trkpt lat="45.30106" lon="5.49175">
        <ele>201.5</ele>
        <time>2021-05-03T07:58:36Z</time>
      </trkpt>
      <trkpt lat="45.3011" lon="5.49164">
        <ele>201.8</ele>
        <time>2021-05-03T07:58:38Z</time>
      </trkpt>
      <trkpt lat="45.30114" lon="5.49154">
        <ele>202</ele>
        <time>2021-05-03T07:58:40Z</time>
      </trkpt>
      <trkpt lat="45.30117" lon="5.49148">
        <ele>202.1</ele>
        <time>2021-05-03T07:58:41Z</time>
      </trkpt>
      <trkpt lat="45.30121" lon="5.49137">
        <ele>202.4</ele>
        <time>2021-05-03T07:58:43Z</time>
      </trkpt>
      <trkpt lat="45.30125" lon="5.49126">
        <ele>202.5</ele>
        <time>2021-05-03T07:58:45Z</time>
      </trkpt>
      <trkpt lat="45.30128" lon="5.49118">
        <ele>202.6</ele>
        <time>2021-05-03T07:58:46Z</time>
      </trkpt>
      <trkpt lat="45.30133" lon="5.49107">
        <ele>202.7</ele>
        <time>2021-05-03T07:58:48Z</time>
      </trkpt>
      <trkpt lat="45.30135" lon="5.49101">
        <ele>202.7</ele>
        <time>2021-05-03T07:58:49Z</time>
      </trkpt>
      <trkpt lat="45.30138" lon="5.49094">
        <ele>202.8</ele>
        <time>2021-05-03T07:58:50Z</time>
      </trkpt>
      <trkpt lat="45.30141" lon="5.49085">
        <ele>202.8</ele>
        <time>2021-05-03T07:58:52Z</time>
      </trkpt>
      <trkpt lat="45.30141" lon="5.49081">
        <ele>202.9</ele>
        <time>2021-05-03T07:58:53Z</time>
      </trkpt>
      <trkpt lat="45.30142" lon="5.49076">
        <ele>202.9</ele>
        <time>2021-05-03T07:58:54Z</time>
      </trkpt>
      <trkpt lat="45.30144" lon="5.49067">
        <ele>203.1</ele>
        <time>2021-05-03T07:58:55Z</time>
      </trkpt>
      <trkpt lat="45.30143" lon="5.49058">
        <ele>203.2</ele>
        <time>2021-05-03T07:58:57Z</time>
      </trkpt>
      <trkpt lat="45.30143" lon="5.49047">
        <ele>203.4</ele>
        <time>2021-05-03T07:58:59Z</time>
      </trkpt>
      <trkpt lat="45.30141" lon="5.49042">
        <ele>203.4</ele>
        <time>2021-05-03T07:59:00Z</time>
      </trkpt>
      <trkpt lat="45.30134" lon="5.49036">
        <ele>203.3</ele>
        <time>2021-05-03T07:59:02Z</time>
      </trkpt>
      <trkpt lat="45.30126" lon="5.49032">
        <ele>203.1</ele>
        <time>2021-05-03T07:59:04Z</time>
      </trkpt>
      <trkpt lat="45.30116" lon="5.49032">
        <ele>202.9</ele>
        <time>2021-05-03T07:59:06Z</time>
      </trkpt>
      <trkpt lat="45.30107" lon="5.49031">
        <ele>202.8</ele>
        <time>2021-05-03T07:59:08Z</time>
      </trkpt>
      <trkpt lat="45.30102" lon="5.49028">
        <ele>202.8</ele>
        <time>2021-05-03T07:59:09Z</time>
      </trkpt>
      <trkpt lat="45.30099" lon="5.49024">
        <ele>202.7</ele>
        <time>2021-05-03T07:59:10Z</time>
      </trkpt>
      <trkpt lat="45.30095" lon="5.4902">
        <ele>202.7</ele>
        <time>2021-05-03T07:59:11Z</time>
      </trkpt>
      <trkpt lat="45.30092" lon="5.49014">
        <ele>202.7</ele>
        <time>2021-05-03T07:59:12Z</time>
      </trkpt>
      <trkpt lat="45.30091" lon="5.49007">
        <ele>202.7</ele>
        <time>2021-05-03T07:59:13Z</time>
      </trkpt>
      <trkpt lat="45.30091" lon="5.48999">
        <ele>202.7</ele>
        <time>2021-05-03T07:59:14Z</time>
      </trkpt>
      <trkpt lat="45.30091" lon="5.48992">
        <ele>202.8</ele>
        <time>2021-05-03T07:59:15Z</time>
      </trkpt>
      <trkpt lat="45.30091" lon="5.48986">
        <ele>202.8</ele>
        <time>2021-05-03T07:59:16Z</time>
      </trkpt>
      <trkpt lat="45.30092" lon="5.48976">
        <ele>202.9</ele>
        <time>2021-05-03T07:59:17Z</time>
      </trkpt>
      <trkpt lat="45.30091" lon="5.48967">
        <ele>203</ele>
        <time>2021-05-03T07:59:19Z</time>
      </trkpt>
      <trkpt lat="45.30091" lon="5.48954">
        <ele>203.2</ele>
        <time>2021-05-03T07:59:21Z</time>
      </trkpt>
      <trkpt lat="45.30092" lon="5.4894">
        <ele>203.3</ele>
        <time>2021-05-03T07:59:23Z</time>
      </trkpt>
      <trkpt lat="45.30092" lon="5.48927">
        <ele>203.3</ele>
        <time>2021-05-03T07:59:25Z</time>
      </trkpt>
      <trkpt lat="45.30092" lon="5.48918">
        <ele>203.5</ele>
        <time>2021-05-03T07:59:27Z</time>
      </trkpt>
      <trkpt lat="45.30091" lon="5.48907">
        <ele>203.8</ele>
        <time>2021-05-03T07:59:29Z</time>
      </trkpt>
      <trkpt lat="45.30091" lon="5.489">
        <ele>203.9</ele>
        <time>2021-05-03T07:59:30Z</time>
      </trkpt>
      <trkpt lat="45.30093" lon="5.48888">
        <ele>204.3</ele>
        <time>2021-05-03T07:59:32Z</time>
      </trkpt>
      <trkpt lat="45.30093" lon="5.48881">
        <ele>204.5</ele>
        <time>2021-05-03T07:59:33Z</time>
      </trkpt>
      <trkpt lat="45.30093" lon="5.48876">
        <ele>204.6</ele>
        <time>2021-05-03T07:59:34Z</time>
      </trkpt>
      <trkpt lat="45.30093" lon="5.48869">
        <ele>204.9</ele>
        <time>2021-05-03T07:59:35Z</time>
      </trkpt>
      <trkpt lat="45.30093" lon="5.4886">
        <ele>205.1</ele>
        <time>2021-05-03T07:59:37Z</time>
      </trkpt>
      <trkpt lat="45.30093" lon="5.48851">
        <ele>205.4</ele>
        <time>2021-05-03T07:59:39Z</time>
      </trkpt>
      <trkpt lat="45.30093" lon="5.48847">
        <ele>205.4</ele>
        <time>2021-05-03T07:59:40Z</time>
      </trkpt>
      <trkpt lat="45.30093" lon="5.4884">
        <ele>205.6</ele>
        <time>2021-05-03T07:59:41Z</time>
      </trkpt>
      <trkpt lat="45.30092" lon="5.48831">
        <ele>205.8</ele>
        <time>2021-05-03T07:59:43Z</time>
      </trkpt>
      <trkpt lat="45.30091" lon="5.48821">
        <ele>206</ele>
        <time>2021-05-03T07:59:45Z</time>
      </trkpt>
      <trkpt lat="45.30089" lon="5.48815">
        <ele>206.1</ele>
        <time>2021-05-03T07:59:46Z</time>
      </trkpt>
      <trkpt lat="45.30086" lon="5.48804">
        <ele>206.4</ele>
        <time>2021-05-03T07:59:48Z</time>
      </trkpt>
      <trkpt lat="45.30082" lon="5.48797">
        <ele>206.5</ele>
        <time>2021-05-03T07:59:50Z</time>
      </trkpt>
      <trkpt lat="45.30079" lon="5.48792">
        <ele>206.7</ele>
        <time>2021-05-03T07:59:51Z</time>
      </trkpt>
      <trkpt lat="45.30075" lon="5.48786">
        <ele>206.8</ele>
        <time>2021-05-03T07:59:53Z</time>
      </trkpt>
      <trkpt lat="45.30072" lon="5.48782">
        <ele>206.9</ele>
        <time>2021-05-03T07:59:54Z</time>
      </trkpt>
      <trkpt lat="45.30067" lon="5.48773">
        <ele>207.1</ele>
        <time>2021-05-03T07:59:56Z</time>
      </trkpt>
      <trkpt lat="45.30061" lon="5.48763">
        <ele>207.5</ele>
        <time>2021-05-03T07:59:58Z</time>
      </trkpt>
      <trkpt lat="45.30059" lon="5.48758">
        <ele>207.7</ele>
        <time>2021-05-03T07:59:59Z</time>
      </trkpt>
      <trkpt lat="45.30055" lon="5.48752">
        <ele>207.9</ele>
        <time>2021-05-03T08:00:01Z</time>
      </trkpt>
      <trkpt lat="45.30052" lon="5.48747">
        <ele>208.1</ele>
        <time>2021-05-03T08:00:02Z</time>
      </trkpt>
      <trkpt lat="45.30049" lon="5.4874">
        <ele>208.3</ele>
        <time>2021-05-03T08:00:03Z</time>
      </trkpt>
      <trkpt lat="45.30045" lon="5.48731">
        <ele>208.6</ele>
        <time>2021-05-03T08:00:05Z</time>
      </trkpt>
      <trkpt lat="45.30041" lon="5.48723">
        <ele>208.9</ele>
        <time>2021-05-03T08:00:07Z</time>
      </trkpt>
      <trkpt lat="45.30039" lon="5.48718">
        <ele>209.1</ele>
        <time>2021-05-03T08:00:08Z</time>
      </trkpt>
      <trkpt lat="45.30036" lon="5.48713">
        <ele>209.3</ele>
        <time>2021-05-03T08:00:09Z</time>
      </trkpt>
      <trkpt lat="45.30031" lon="5.48706">
        <ele>209.6</ele>
        <time>2021-05-03T08:00:11Z</time>
      </trkpt>
      <trkpt lat="45.30029" lon="5.48702">
        <ele>209.8</ele>
        <time>2021-05-03T08:00:12Z</time>
      </trkpt>
      <trkpt lat="45.30023" lon="5.48694">
        <ele>210.1</ele>
        <time>2021-05-03T08:00:14Z</time>
      </trkpt>
      <trkpt lat="45.30017" lon="5.48688">
        <ele>210.3</ele>
        <time>2021-05-03T08:00:16Z</time>
      </trkpt>
      <trkpt lat="45.30013" lon="5.48682">
        <ele>210.5</ele>
        <time>2021-05-03T08:00:18Z</time>
      </trkpt>
      <trkpt lat="45.30008" lon="5.48676">
        <ele>210.7</ele>
        <time>2021-05-03T08:00:20Z</time>
      </trkpt>
      <trkpt lat="45.30006" lon="5.48673">
        <ele>210.8</ele>
        <time>2021-05-03T08:00:21Z</time>
      </trkpt>
      <trkpt lat="45.30002" lon="5.48666">
        <ele>211.1</ele>
        <time>2021-05-03T08:00:23Z</time>
      </trkpt>
      <trkpt lat="45.3" lon="5.48662">
        <ele>211.3</ele>
        <time>2021-05-03T08:00:24Z</time>
      </trkpt>
      <trkpt lat="45.29998" lon="5.48657">
        <ele>211.6</ele>
        <time>2021-05-03T08:00:25Z</time>
      </trkpt>
      <trkpt lat="45.29995" lon="5.48651">
        <ele>212</ele>
        <time>2021-05-03T08:00:27Z</time>
      </trkpt>
      <trkpt lat="45.29992" lon="5.48642">
        <ele>212.5</ele>
        <time>2021-05-03T08:00:29Z</time>
      </trkpt>
      <trkpt lat="45.29988" lon="5.48635">
        <ele>212.9</ele>
        <time>2021-05-03T08:00:31Z</time>
      </trkpt>
      <trkpt lat="45.29987" lon="5.48631">
        <ele>213.1</ele>
        <time>2021-05-03T08:00:32Z</time>
      </trkpt>
      <trkpt lat="45.29985" lon="5.48626">
        <ele>213.4</ele>
        <time>2021-05-03T08:00:33Z</time>
      </trkpt>
      <trkpt lat="45.29984" lon="5.48621">
        <ele>213.6</ele>
        <time>2021-05-03T08:00:35Z</time>
      </trkpt>
      <trkpt lat="45.29983" lon="5.48617">
        <ele>213.8</ele>
        <time>2021-05-03T08:00:36Z</time>
      </trkpt>
      <trkpt lat="45.29981" lon="5.48612">
        <ele>214.1</ele>
        <time>2021-05-03T08:00:37Z</time>
      </trkpt>
      <trkpt lat="45.29978" lon="5.48604">
        <ele>214.3</ele>
        <time>2021-05-03T08:00:39Z</time>
      </trkpt>
      <trkpt lat="45.29975" lon="5.48598">
        <ele>214.5</ele>
        <time>2021-05-03T08:00:41Z</time>
      </trkpt>
      <trkpt lat="45.29974" lon="5.48593">
        <ele>214.6</ele>
        <time>2021-05-03T08:00:42Z</time>
      </trkpt>
      <trkpt lat="45.29971" lon="5.48587">
        <ele>214.8</ele>
        <time>2021-05-03T08:00:44Z</time>
      </trkpt>
      <trkpt lat="45.29966" lon="5.48581">
        <ele>215.1</ele>
        <time>2021-05-03T08:00:46Z</time>
      </trkpt>
      <trkpt lat="45.29963" lon="5.48576">
        <ele>215.4</ele>
        <time>2021-05-03T08:00:48Z</time>
      </trkpt>
      <trkpt lat="45.29959" lon="5.4857">
        <ele>215.7</ele>
        <time>2021-05-03T08:00:50Z</time>
      </trkpt>
      <trkpt lat="45.29956" lon="5.48568">
        <ele>215.9</ele>
        <time>2021-05-03T08:00:51Z</time>
      </trkpt>
      <trkpt lat="45.29951" lon="5.48563">
        <ele>216.2</ele>
        <time>2021-05-03T08:00:53Z</time>
      </trkpt>
      <trkpt lat="45.2995" lon="5.48561">
        <ele>216.4</ele>
        <time>2021-05-03T08:00:54Z</time>
      </trkpt>
      <trkpt lat="45.29944" lon="5.48557">
        <ele>216.8</ele>
        <time>2021-05-03T08:00:56Z</time>
      </trkpt>
      <trkpt lat="45.29941" lon="5.48553">
        <ele>217.1</ele>
        <time>2021-05-03T08:00:57Z</time>
      </trkpt>
      <trkpt lat="45.29937" lon="5.4855">
        <ele>217.3</ele>
        <time>2021-05-03T08:00:59Z</time>
      </trkpt>
      <trkpt lat="45.29936" lon="5.48549">
        <ele>217.4</ele>
        <time>2021-05-03T08:01:00Z</time>
      </trkpt>
      <trkpt lat="45.29934" lon="5.48548">
        <ele>217.6</ele>
        <time>2021-05-03T08:01:01Z</time>
      </trkpt>
      <trkpt lat="45.2993" lon="5.48545">
        <ele>217.9</ele>
        <time>2021-05-03T08:01:02Z</time>
      </trkpt>
      <trkpt lat="45.29926" lon="5.48544">
        <ele>218</ele>
        <time>2021-05-03T08:01:03Z</time>
      </trkpt>
      <trkpt lat="45.29924" lon="5.48543">
        <ele>218.2</ele>
        <time>2021-05-03T08:01:05Z</time>
      </trkpt>
      <trkpt lat="45.29918" lon="5.4854">
        <ele>218.6</ele>
        <time>2021-05-03T08:01:07Z</time>
      </trkpt>
      <trkpt lat="45.2991" lon="5.48538">
        <ele>219</ele>
        <time>2021-05-03T08:01:09Z</time>
      </trkpt>
      <trkpt lat="45.29907" lon="5.48537">
        <ele>219.2</ele>
        <time>2021-05-03T08:01:10Z</time>
      </trkpt>
      <trkpt lat="45.29901" lon="5.48534">
        <ele>219.6</ele>
        <time>2021-05-03T08:01:12Z</time>
      </trkpt>
      <trkpt lat="45.29895" lon="5.4853">
        <ele>219.9</ele>
        <time>2021-05-03T08:01:14Z</time>
      </trkpt>
      <trkpt lat="45.29891" lon="5.48529">
        <ele>220.1</ele>
        <time>2021-05-03T08:01:15Z</time>
      </trkpt>
      <trkpt lat="45.29885" lon="5.48527">
        <ele>220.5</ele>
        <time>2021-05-03T08:01:17Z</time>
      </trkpt>
      <trkpt lat="45.2988" lon="5.48526">
        <ele>220.7</ele>
        <time>2021-05-03T08:01:18Z</time>
      </trkpt>
      <trkpt lat="45.29879" lon="5.48525">
        <ele>220.8</ele>
        <time>2021-05-03T08:01:19Z</time>
      </trkpt>
      <trkpt lat="45.29875" lon="5.48524">
        <ele>221</ele>
        <time>2021-05-03T08:01:20Z</time>
      </trkpt>
      <trkpt lat="45.29872" lon="5.48523">
        <ele>221.2</ele>
        <time>2021-05-03T08:01:21Z</time>
      </trkpt>
      <trkpt lat="45.29866" lon="5.48521">
        <ele>221.5</ele>
        <time>2021-05-03T08:01:23Z</time>
      </trkpt>
      <trkpt lat="45.29864" lon="5.48519">
        <ele>221.7</ele>
        <time>2021-05-03T08:01:24Z</time>
      </trkpt>
      <trkpt lat="45.29858" lon="5.48517">
        <ele>222</ele>
        <time>2021-05-03T08:01:26Z</time>
      </trkpt>
      <trkpt lat="45.29855" lon="5.48516">
        <ele>222.2</ele>
        <time>2021-05-03T08:01:27Z</time>
      </trkpt>
      <trkpt lat="45.2985" lon="5.48515">
        <ele>222.4</ele>
        <time>2021-05-03T08:01:28Z</time>
      </trkpt>
      <trkpt lat="45.29846" lon="5.48513">
        <ele>222.7</ele>
        <time>2021-05-03T08:01:30Z</time>
      </trkpt>
      <trkpt lat="45.29843" lon="5.48512">
        <ele>222.8</ele>
        <time>2021-05-03T08:01:31Z</time>
      </trkpt>
      <trkpt lat="45.29839" lon="5.48511">
        <ele>223</ele>
        <time>2021-05-03T08:01:32Z</time>
      </trkpt>
      <trkpt lat="45.29836" lon="5.4851">
        <ele>223.2</ele>
        <time>2021-05-03T08:01:33Z</time>
      </trkpt>
      <trkpt lat="45.29831" lon="5.48508">
        <ele>223.4</ele>
        <time>2021-05-03T08:01:35Z</time>
      </trkpt>
      <trkpt lat="45.29826" lon="5.48505">
        <ele>223.5</ele>
        <time>2021-05-03T08:01:37Z</time>
      </trkpt>
      <trkpt lat="45.29822" lon="5.48502">
        <ele>223.7</ele>
        <time>2021-05-03T08:01:38Z</time>
      </trkpt>
      <trkpt lat="45.29818" lon="5.48501">
        <ele>223.8</ele>
        <time>2021-05-03T08:01:40Z</time>
      </trkpt>
      <trkpt lat="45.29817" lon="5.485">
        <ele>223.8</ele>
        <time>2021-05-03T08:01:41Z</time>
      </trkpt>
      <trkpt lat="45.29813" lon="5.48498">
        <ele>223.9</ele>
        <time>2021-05-03T08:01:43Z</time>
      </trkpt>
      <trkpt lat="45.29809" lon="5.48497">
        <ele>224</ele>
        <time>2021-05-03T08:01:45Z</time>
      </trkpt>
      <trkpt lat="45.29807" lon="5.48495">
        <ele>224.1</ele>
        <time>2021-05-03T08:01:46Z</time>
      </trkpt>
      <trkpt lat="45.29806" lon="5.48495">
        <ele>224.1</ele>
        <time>2021-05-03T08:01:47Z</time>
      </trkpt>
      <trkpt lat="45.29802" lon="5.48494">
        <ele>224.2</ele>
        <time>2021-05-03T08:01:49Z</time>
      </trkpt>
      <trkpt lat="45.298" lon="5.48491">
        <ele>224.2</ele>
        <time>2021-05-03T08:01:51Z</time>
      </trkpt>
      <trkpt lat="45.29799" lon="5.48491">
        <ele>224.2</ele>
        <time>2021-05-03T08:01:52Z</time>
      </trkpt>
      <trkpt lat="45.29798" lon="5.4849">
        <ele>224.3</ele>
        <time>2021-05-03T08:01:53Z</time>
      </trkpt>
      <trkpt lat="45.298" lon="5.4849">
        <ele>224.3</ele>
        <time>2021-05-03T08:01:54Z</time>
      </trkpt>
      <trkpt lat="45.29801" lon="5.4849">
        <ele>224.3</ele>
        <time>2021-05-03T08:01:55Z</time>
      </trkpt>
      <trkpt lat="45.29801" lon="5.4849">
        <ele>224.3</ele>
        <time>2021-05-03T08:01:56Z</time>
      </trkpt>
      <trkpt lat="45.29801" lon="5.4849">
        <ele>224.3</ele>
        <time>2021-05-03T08:01:57Z</time>
      </trkpt>
      <trkpt lat="45.29798" lon="5.48488">
        <ele>224.4</ele>
        <time>2021-05-03T08:01:59Z</time>
      </trkpt>
      <trkpt lat="45.29794" lon="5.48486">
        <ele>224.5</ele>
        <time>2021-05-03T08:02:00Z</time>
      </trkpt>
      <trkpt lat="45.29788" lon="5.48484">
        <ele>224.5</ele>
        <time>2021-05-03T08:02:02Z</time>
      </trkpt>
      <trkpt lat="45.29784" lon="5.48483">
        <ele>224.4</ele>
        <time>2021-05-03T08:02:03Z</time>
      </trkpt>
      <trkpt lat="45.29776" lon="5.48482">
        <ele>224.3</ele>
        <time>2021-05-03T08:02:05Z</time>
      </trkpt>
      <trkpt lat="45.29768" lon="5.4848">
        <ele>224.1</ele>
        <time>2021-05-03T08:02:07Z</time>
      </trkpt>
      <trkpt lat="45.29758" lon="5.48479">
        <ele>224</ele>
        <time>2021-05-03T08:02:08Z</time>
      </trkpt>
      <trkpt lat="45.29751" lon="5.48477">
        <ele>224</ele>
        <time>2021-05-03T08:02:10Z</time>
      </trkpt>
      <trkpt lat="45.29746" lon="5.48474">
        <ele>224</ele>
        <time>2021-05-03T08:02:11Z</time>
      </trkpt>
      <trkpt lat="45.29742" lon="5.48469">
        <ele>223.9</ele>
        <time>2021-05-03T08:02:12Z</time>
      </trkpt>
      <trkpt lat="45.29738" lon="5.48464">
        <ele>223.9</ele>
        <time>2021-05-03T08:02:13Z</time>
      </trkpt>
      <trkpt lat="45.29733" lon="5.48459">
        <ele>223.9</ele>
        <time>2021-05-03T08:02:14Z</time>
      </trkpt>
      <trkpt lat="45.29729" lon="5.48456">
        <ele>223.8</ele>
        <time>2021-05-03T08:02:15Z</time>
      </trkpt>
      <trkpt lat="45.29724" lon="5.48453">
        <ele>223.8</ele>
        <time>2021-05-03T08:02:16Z</time>
      </trkpt>
      <trkpt lat="45.29719" lon="5.48449">
        <ele>223.7</ele>
        <time>2021-05-03T08:02:17Z</time>
      </trkpt>
      <trkpt lat="45.29715" lon="5.48446">
        <ele>223.7</ele>
        <time>2021-05-03T08:02:18Z</time>
      </trkpt>
      <trkpt lat="45.29709" lon="5.48443">
        <ele>223.6</ele>
        <time>2021-05-03T08:02:19Z</time>
      </trkpt>
      <trkpt lat="45.29704" lon="5.4844">
        <ele>223.6</ele>
        <time>2021-05-03T08:02:20Z</time>
      </trkpt>
      <trkpt lat="45.29699" lon="5.48438">
        <ele>223.6</ele>
        <time>2021-05-03T08:02:21Z</time>
      </trkpt>
      <trkpt lat="45.29694" lon="5.48435">
        <ele>223.5</ele>
        <time>2021-05-03T08:02:22Z</time>
      </trkpt>
      <trkpt lat="45.29689" lon="5.48432">
        <ele>223.5</ele>
        <time>2021-05-03T08:02:23Z</time>
      </trkpt>
      <trkpt lat="45.29684" lon="5.48429">
        <ele>223.5</ele>
        <time>2021-05-03T08:02:24Z</time>
      </trkpt>
      <trkpt lat="45.29677" lon="5.48428">
        <ele>223.5</ele>
        <time>2021-05-03T08:02:25Z</time>
      </trkpt>
      <trkpt lat="45.29668" lon="5.48426">
        <ele>223.5</ele>
        <time>2021-05-03T08:02:26Z</time>
      </trkpt>
      <trkpt lat="45.29662" lon="5.48423">
        <ele>223.6</ele>
        <time>2021-05-03T08:02:27Z</time>
      </trkpt>
      <trkpt lat="45.29657" lon="5.48422">
        <ele>223.6</ele>
        <time>2021-05-03T08:02:28Z</time>
      </trkpt>
      <trkpt lat="45.29653" lon="5.4842">
        <ele>223.6</ele>
        <time>2021-05-03T08:02:29Z</time>
      </trkpt>
      <trkpt lat="45.29649" lon="5.48417">
        <ele>223.6</ele>
        <time>2021-05-03T08:02:30Z</time>
      </trkpt>
      <trkpt lat="45.29643" lon="5.48416">
        <ele>223.7</ele>
        <time>2021-05-03T08:02:31Z</time>
      </trkpt>
      <trkpt lat="45.29636" lon="5.48414">
        <ele>223.8</ele>
        <time>2021-05-03T08:02:32Z</time>
      </trkpt>
      <trkpt lat="45.29631" lon="5.48411">
        <ele>223.8</ele>
        <time>2021-05-03T08:02:33Z</time>
      </trkpt>
      <trkpt lat="45.29625" lon="5.48409">
        <ele>223.9</ele>
        <time>2021-05-03T08:02:34Z</time>
      </trkpt>
      <trkpt lat="45.29619" lon="5.48406">
        <ele>224.1</ele>
        <time>2021-05-03T08:02:35Z</time>
      </trkpt>
      <trkpt lat="45.29616" lon="5.48404">
        <ele>224.1</ele>
        <time>2021-05-03T08:02:36Z</time>
      </trkpt>
      <trkpt lat="45.29613" lon="5.48403">
        <ele>224.2</ele>
        <time>2021-05-03T08:02:37Z</time>
      </trkpt>
      <trkpt lat="45.29609" lon="5.48399">
        <ele>224.3</ele>
        <time>2021-05-03T08:02:38Z</time>
      </trkpt>
      <trkpt lat="45.29607" lon="5.48398">
        <ele>224.4</ele>
        <time>2021-05-03T08:02:39Z</time>
      </trkpt>
      <trkpt lat="45.29603" lon="5.48394">
        <ele>224.5</ele>
        <time>2021-05-03T08:02:40Z</time>
      </trkpt>
      <trkpt lat="45.29598" lon="5.4839">
        <ele>224.7</ele>
        <time>2021-05-03T08:02:41Z</time>
      </trkpt>
      <trkpt lat="45.29594" lon="5.48387">
        <ele>224.8</ele>
        <time>2021-05-03T08:02:42Z</time>
      </trkpt>
      <trkpt lat="45.29591" lon="5.48385">
        <ele>225</ele>
        <time>2021-05-03T08:02:43Z</time>
      </trkpt>
      <trkpt lat="45.29588" lon="5.48381">
        <ele>225.2</ele>
        <time>2021-05-03T08:02:44Z</time>
      </trkpt>
      <trkpt lat="45.29585" lon="5.48376">
        <ele>225.2</ele>
        <time>2021-05-03T08:02:45Z</time>
      </trkpt>
      <trkpt lat="45.29584" lon="5.4837">
        <ele>225.4</ele>
        <time>2021-05-03T08:02:46Z</time>
      </trkpt>
      <trkpt lat="45.29582" lon="5.48364">
        <ele>225.5</ele>
        <time>2021-05-03T08:02:47Z</time>
      </trkpt>
      <trkpt lat="45.29582" lon="5.48357">
        <ele>225.5</ele>
        <time>2021-05-03T08:02:48Z</time>
      </trkpt>
      <trkpt lat="45.29585" lon="5.48353">
        <ele>225.7</ele>
        <time>2021-05-03T08:02:49Z</time>
      </trkpt>
      <trkpt lat="45.29587" lon="5.48347">
        <ele>226</ele>
        <time>2021-05-03T08:02:50Z</time>
      </trkpt>
      <trkpt lat="45.29589" lon="5.48342">
        <ele>226.3</ele>
        <time>2021-05-03T08:02:51Z</time>
      </trkpt>
      <trkpt lat="45.29592" lon="5.48337">
        <ele>226.6</ele>
        <time>2021-05-03T08:02:52Z</time>
      </trkpt>
      <trkpt lat="45.29595" lon="5.48333">
        <ele>226.9</ele>
        <time>2021-05-03T08:02:53Z</time>
      </trkpt>
      <trkpt lat="45.29597" lon="5.48328">
        <ele>227.2</ele>
        <time>2021-05-03T08:02:54Z</time>
      </trkpt>
      <trkpt lat="45.29601" lon="5.48324">
        <ele>227.5</ele>
        <time>2021-05-03T08:02:55Z</time>
      </trkpt>
      <trkpt lat="45.29605" lon="5.48315">
        <ele>228</ele>
        <time>2021-05-03T08:02:56Z</time>
      </trkpt>
      <trkpt lat="45.29607" lon="5.48308">
        <ele>228.4</ele>
        <time>2021-05-03T08:02:58Z</time>
      </trkpt>
      <trkpt lat="45.29608" lon="5.48304">
        <ele>228.5</ele>
        <time>2021-05-03T08:02:59Z</time>
      </trkpt>
      <trkpt lat="45.29611" lon="5.48297">
        <ele>228.7</ele>
        <time>2021-05-03T08:03:01Z</time>
      </trkpt>
      <trkpt lat="45.29612" lon="5.48294">
        <ele>228.8</ele>
        <time>2021-05-03T08:03:02Z</time>
      </trkpt>
      <trkpt lat="45.29614" lon="5.48288">
        <ele>229.1</ele>
        <time>2021-05-03T08:03:04Z</time>
      </trkpt>
      <trkpt lat="45.29616" lon="5.48282">
        <ele>229.3</ele>
        <time>2021-05-03T08:03:05Z</time>
      </trkpt>
      <trkpt lat="45.29619" lon="5.48274">
        <ele>229.8</ele>
        <time>2021-05-03T08:03:07Z</time>
      </trkpt>
      <trkpt lat="45.29621" lon="5.48268">
        <ele>230.1</ele>
        <time>2021-05-03T08:03:08Z</time>
      </trkpt>
      <trkpt lat="45.29623" lon="5.48264">
        <ele>230.3</ele>
        <time>2021-05-03T08:03:10Z</time>
      </trkpt>
      <trkpt lat="45.29625" lon="5.48259">
        <ele>230.7</ele>
        <time>2021-05-03T08:03:11Z</time>
      </trkpt>
      <trkpt lat="45.29627" lon="5.48254">
        <ele>231.2</ele>
        <time>2021-05-03T08:03:13Z</time>
      </trkpt>
      <trkpt lat="45.29627" lon="5.4825">
        <ele>231.5</ele>
        <time>2021-05-03T08:03:14Z</time>
      </trkpt>
      <trkpt lat="45.29628" lon="5.48245">
        <ele>231.9</ele>
        <time>2021-05-03T08:03:16Z</time>
      </trkpt>
      <trkpt lat="45.29628" lon="5.48238">
        <ele>232.5</ele>
        <time>2021-05-03T08:03:17Z</time>
      </trkpt>
      <trkpt lat="45.29628" lon="5.48235">
        <ele>232.7</ele>
        <time>2021-05-03T08:03:18Z</time>
      </trkpt>
      <trkpt lat="45.29628" lon="5.4823">
        <ele>233.1</ele>
        <time>2021-05-03T08:03:20Z</time>
      </trkpt>
      <trkpt lat="45.29627" lon="5.48226">
        <ele>233.4</ele>
        <time>2021-05-03T08:03:21Z</time>
      </trkpt>
      <trkpt lat="45.29624" lon="5.4822">
        <ele>233.4</ele>
        <time>2021-05-03T08:03:23Z</time>
      </trkpt>
      <trkpt lat="45.29621" lon="5.48216">
        <ele>233.5</ele>
        <time>2021-05-03T08:03:24Z</time>
      </trkpt>
      <trkpt lat="45.29616" lon="5.48211">
        <ele>233.5</ele>
        <time>2021-05-03T08:03:26Z</time>
      </trkpt>
      <trkpt lat="45.29613" lon="5.48209">
        <ele>233.5</ele>
        <time>2021-05-03T08:03:27Z</time>
      </trkpt>
      <trkpt lat="45.29609" lon="5.48207">
        <ele>233.6</ele>
        <time>2021-05-03T08:03:28Z</time>
      </trkpt>
      <trkpt lat="45.29605" lon="5.48203">
        <ele>233.6</ele>
        <time>2021-05-03T08:03:29Z</time>
      </trkpt>
      <trkpt lat="45.296" lon="5.482">
        <ele>233.6</ele>
        <time>2021-05-03T08:03:30Z</time>
      </trkpt>
      <trkpt lat="45.29592" lon="5.48195">
        <ele>233.7</ele>
        <time>2021-05-03T08:03:32Z</time>
      </trkpt>
      <trkpt lat="45.29589" lon="5.48192">
        <ele>233.7</ele>
        <time>2021-05-03T08:03:33Z</time>
      </trkpt>
      <trkpt lat="45.29581" lon="5.48187">
        <ele>233.8</ele>
        <time>2021-05-03T08:03:35Z</time>
      </trkpt>
      <trkpt lat="45.29577" lon="5.48185">
        <ele>233.8</ele>
        <time>2021-05-03T08:03:36Z</time>
      </trkpt>
      <trkpt lat="45.29574" lon="5.48181">
        <ele>233.9</ele>
        <time>2021-05-03T08:03:37Z</time>
      </trkpt>
      <trkpt lat="45.2957" lon="5.48179">
        <ele>233.9</ele>
        <time>2021-05-03T08:03:38Z</time>
      </trkpt>
      <trkpt lat="45.29565" lon="5.48177">
        <ele>233.9</ele>
        <time>2021-05-03T08:03:39Z</time>
      </trkpt>
      <trkpt lat="45.2956" lon="5.48175">
        <ele>234</ele>
        <time>2021-05-03T08:03:40Z</time>
      </trkpt>
      <trkpt lat="45.29556" lon="5.48172">
        <ele>234</ele>
        <time>2021-05-03T08:03:41Z</time>
      </trkpt>
      <trkpt lat="45.29551" lon="5.4817">
        <ele>234</ele>
        <time>2021-05-03T08:03:42Z</time>
      </trkpt>
      <trkpt lat="45.29547" lon="5.48168">
        <ele>234</ele>
        <time>2021-05-03T08:03:43Z</time>
      </trkpt>
      <trkpt lat="45.29542" lon="5.48165">
        <ele>234.1</ele>
        <time>2021-05-03T08:03:44Z</time>
      </trkpt>
      <trkpt lat="45.29538" lon="5.48162">
        <ele>234.1</ele>
        <time>2021-05-03T08:03:45Z</time>
      </trkpt>
      <trkpt lat="45.29534" lon="5.48159">
        <ele>234.1</ele>
        <time>2021-05-03T08:03:46Z</time>
      </trkpt>
      <trkpt lat="45.2953" lon="5.48156">
        <ele>234.2</ele>
        <time>2021-05-03T08:03:47Z</time>
      </trkpt>
      <trkpt lat="45.29526" lon="5.48153">
        <ele>234.2</ele>
        <time>2021-05-03T08:03:48Z</time>
      </trkpt>
      <trkpt lat="45.29521" lon="5.4815">
        <ele>234.3</ele>
        <time>2021-05-03T08:03:49Z</time>
      </trkpt>
      <trkpt lat="45.29517" lon="5.48147">
        <ele>234.3</ele>
        <time>2021-05-03T08:03:50Z</time>
      </trkpt>
      <trkpt lat="45.29512" lon="5.48145">
        <ele>234.4</ele>
        <time>2021-05-03T08:03:51Z</time>
      </trkpt>
      <trkpt lat="45.29507" lon="5.48143">
        <ele>234.4</ele>
        <time>2021-05-03T08:03:52Z</time>
      </trkpt>
      <trkpt lat="45.29502" lon="5.48141">
        <ele>234.5</ele>
        <time>2021-05-03T08:03:53Z</time>
      </trkpt>
      <trkpt lat="45.29497" lon="5.48139">
        <ele>234.5</ele>
        <time>2021-05-03T08:03:54Z</time>
      </trkpt>
      <trkpt lat="45.29494" lon="5.48139">
        <ele>234.6</ele>
        <time>2021-05-03T08:03:55Z</time>
      </trkpt>
      <trkpt lat="45.29489" lon="5.48137">
        <ele>234.6</ele>
        <time>2021-05-03T08:03:56Z</time>
      </trkpt>
      <trkpt lat="45.29486" lon="5.48136">
        <ele>234.7</ele>
        <time>2021-05-03T08:03:57Z</time>
      </trkpt>
      <trkpt lat="45.29481" lon="5.48134">
        <ele>234.7</ele>
        <time>2021-05-03T08:03:58Z</time>
      </trkpt>
      <trkpt lat="45.29478" lon="5.48134">
        <ele>234.8</ele>
        <time>2021-05-03T08:03:59Z</time>
      </trkpt>
      <trkpt lat="45.29472" lon="5.48134">
        <ele>234.8</ele>
        <time>2021-05-03T08:04:00Z</time>
      </trkpt>
      <trkpt lat="45.29467" lon="5.48135">
        <ele>234.8</ele>
        <time>2021-05-03T08:04:01Z</time>
      </trkpt>
      <trkpt lat="45.29463" lon="5.48135">
        <ele>234.9</ele>
        <time>2021-05-03T08:04:02Z</time>
      </trkpt>
      <trkpt lat="45.29457" lon="5.48135">
        <ele>234.9</ele>
        <time>2021-05-03T08:04:03Z</time>
      </trkpt>
      <trkpt lat="45.29452" lon="5.48135">
        <ele>235</ele>
        <time>2021-05-03T08:04:04Z</time>
      </trkpt>
      <trkpt lat="45.29447" lon="5.48135">
        <ele>235</ele>
        <time>2021-05-03T08:04:05Z</time>
      </trkpt>
      <trkpt lat="45.29442" lon="5.48135">
        <ele>235</ele>
        <time>2021-05-03T08:04:06Z</time>
      </trkpt>
      <trkpt lat="45.29437" lon="5.48135">
        <ele>235</ele>
        <time>2021-05-03T08:04:07Z</time>
      </trkpt>
      <trkpt lat="45.29432" lon="5.48136">
        <ele>235</ele>
        <time>2021-05-03T08:04:08Z</time>
      </trkpt>
      <trkpt lat="45.29427" lon="5.48136">
        <ele>235</ele>
        <time>2021-05-03T08:04:09Z</time>
      </trkpt>
      <trkpt lat="45.29421" lon="5.48137">
        <ele>235.1</ele>
        <time>2021-05-03T08:04:10Z</time>
      </trkpt>
      <trkpt lat="45.29416" lon="5.48138">
        <ele>235.1</ele>
        <time>2021-05-03T08:04:11Z</time>
      </trkpt>
      <trkpt lat="45.2941" lon="5.48138">
        <ele>235.1</ele>
        <time>2021-05-03T08:04:12Z</time>
      </trkpt>
      <trkpt lat="45.29405" lon="5.48139">
        <ele>235.1</ele>
        <time>2021-05-03T08:04:13Z</time>
      </trkpt>
      <trkpt lat="45.294" lon="5.48139">
        <ele>235.2</ele>
        <time>2021-05-03T08:04:14Z</time>
      </trkpt>
      <trkpt lat="45.29395" lon="5.4814">
        <ele>235.2</ele>
        <time>2021-05-03T08:04:15Z</time>
      </trkpt>
      <trkpt lat="45.29389" lon="5.48141">
        <ele>235.3</ele>
        <time>2021-05-03T08:04:16Z</time>
      </trkpt>
      <trkpt lat="45.29384" lon="5.48142">
        <ele>235.3</ele>
        <time>2021-05-03T08:04:17Z</time>
      </trkpt>
      <trkpt lat="45.29379" lon="5.48142">
        <ele>235.3</ele>
        <time>2021-05-03T08:04:18Z</time>
      </trkpt>
      <trkpt lat="45.29374" lon="5.48143">
        <ele>235.4</ele>
        <time>2021-05-03T08:04:19Z</time>
      </trkpt>
      <trkpt lat="45.29369" lon="5.48143">
        <ele>235.4</ele>
        <time>2021-05-03T08:04:20Z</time>
      </trkpt>
      <trkpt lat="45.29364" lon="5.48144">
        <ele>235.5</ele>
        <time>2021-05-03T08:04:21Z</time>
      </trkpt>
      <trkpt lat="45.29359" lon="5.48144">
        <ele>235.5</ele>
        <time>2021-05-03T08:04:22Z</time>
      </trkpt>
      <trkpt lat="45.29354" lon="5.48145">
        <ele>235.6</ele>
        <time>2021-05-03T08:04:23Z</time>
      </trkpt>
      <trkpt lat="45.29349" lon="5.48146">
        <ele>235.6</ele>
        <time>2021-05-03T08:04:24Z</time>
      </trkpt>
      <trkpt lat="45.29345" lon="5.48147">
        <ele>235.7</ele>
        <time>2021-05-03T08:04:25Z</time>
      </trkpt>
      <trkpt lat="45.2934" lon="5.48148">
        <ele>235.7</ele>
        <time>2021-05-03T08:04:26Z</time>
      </trkpt>
      <trkpt lat="45.29335" lon="5.48149">
        <ele>235.8</ele>
        <time>2021-05-03T08:04:27Z</time>
      </trkpt>
      <trkpt lat="45.2933" lon="5.48149">
        <ele>235.8</ele>
        <time>2021-05-03T08:04:28Z</time>
      </trkpt>
      <trkpt lat="45.29325" lon="5.4815">
        <ele>235.8</ele>
        <time>2021-05-03T08:04:29Z</time>
      </trkpt>
      <trkpt lat="45.2932" lon="5.48151">
        <ele>235.9</ele>
        <time>2021-05-03T08:04:30Z</time>
      </trkpt>
      <trkpt lat="45.29315" lon="5.48152">
        <ele>235.9</ele>
        <time>2021-05-03T08:04:31Z</time>
      </trkpt>
      <trkpt lat="45.2931" lon="5.48153">
        <ele>236</ele>
        <time>2021-05-03T08:04:32Z</time>
      </trkpt>
      <trkpt lat="45.29305" lon="5.48154">
        <ele>236</ele>
        <time>2021-05-03T08:04:33Z</time>
      </trkpt>
      <trkpt lat="45.29301" lon="5.48156">
        <ele>236</ele>
        <time>2021-05-03T08:04:34Z</time>
      </trkpt>
      <trkpt lat="45.29296" lon="5.48157">
        <ele>236</ele>
        <time>2021-05-03T08:04:35Z</time>
      </trkpt>
      <trkpt lat="45.29291" lon="5.48159">
        <ele>236.1</ele>
        <time>2021-05-03T08:04:36Z</time>
      </trkpt>
      <trkpt lat="45.29286" lon="5.48162">
        <ele>236.1</ele>
        <time>2021-05-03T08:04:37Z</time>
      </trkpt>
      <trkpt lat="45.29281" lon="5.48163">
        <ele>236.1</ele>
        <time>2021-05-03T08:04:38Z</time>
      </trkpt>
      <trkpt lat="45.29276" lon="5.48165">
        <ele>236.1</ele>
        <time>2021-05-03T08:04:39Z</time>
      </trkpt>
      <trkpt lat="45.29271" lon="5.48167">
        <ele>236.1</ele>
        <time>2021-05-03T08:04:40Z</time>
      </trkpt>
      <trkpt lat="45.29266" lon="5.48169">
        <ele>236.1</ele>
        <time>2021-05-03T08:04:41Z</time>
      </trkpt>
      <trkpt lat="45.29262" lon="5.48171">
        <ele>236.2</ele>
        <time>2021-05-03T08:04:42Z</time>
      </trkpt>
      <trkpt lat="45.29257" lon="5.48172">
        <ele>236.2</ele>
        <time>2021-05-03T08:04:43Z</time>
      </trkpt>
      <trkpt lat="45.29252" lon="5.48173">
        <ele>236.3</ele>
        <time>2021-05-03T08:04:44Z</time>
      </trkpt>
      <trkpt lat="45.29247" lon="5.48175">
        <ele>236.3</ele>
        <time>2021-05-03T08:04:45Z</time>
      </trkpt>
      <trkpt lat="45.29242" lon="5.48177">
        <ele>236.4</ele>
        <time>2021-05-03T08:04:46Z</time>
      </trkpt>
      <trkpt lat="45.29237" lon="5.48179">
        <ele>236.4</ele>
        <time>2021-05-03T08:04:47Z</time>
      </trkpt>
      <trkpt lat="45.29232" lon="5.48181">
        <ele>236.4</ele>
        <time>2021-05-03T08:04:48Z</time>
      </trkpt>
      <trkpt lat="45.29228" lon="5.48184">
        <ele>236.5</ele>
        <time>2021-05-03T08:04:49Z</time>
      </trkpt>
      <trkpt lat="45.29223" lon="5.48186">
        <ele>236.5</ele>
        <time>2021-05-03T08:04:50Z</time>
      </trkpt>
      <trkpt lat="45.29218" lon="5.48189">
        <ele>236.6</ele>
        <time>2021-05-03T08:04:51Z</time>
      </trkpt>
      <trkpt lat="45.29214" lon="5.48193">
        <ele>236.6</ele>
        <time>2021-05-03T08:04:52Z</time>
      </trkpt>
      <trkpt lat="45.2921" lon="5.48196">
        <ele>236.7</ele>
        <time>2021-05-03T08:04:53Z</time>
      </trkpt>
      <trkpt lat="45.29206" lon="5.48198">
        <ele>236.8</ele>
        <time>2021-05-03T08:04:54Z</time>
      </trkpt>
      <trkpt lat="45.29202" lon="5.48201">
        <ele>236.8</ele>
        <time>2021-05-03T08:04:55Z</time>
      </trkpt>
      <trkpt lat="45.29197" lon="5.48203">
        <ele>236.9</ele>
        <time>2021-05-03T08:04:56Z</time>
      </trkpt>
      <trkpt lat="45.29193" lon="5.48206">
        <ele>237</ele>
        <time>2021-05-03T08:04:57Z</time>
      </trkpt>
      <trkpt lat="45.29189" lon="5.48208">
        <ele>237.1</ele>
        <time>2021-05-03T08:04:58Z</time>
      </trkpt>
      <trkpt lat="45.29186" lon="5.4821">
        <ele>237.1</ele>
        <time>2021-05-03T08:04:59Z</time>
      </trkpt>
      <trkpt lat="45.29183" lon="5.48212">
        <ele>237.2</ele>
        <time>2021-05-03T08:05:00Z</time>
      </trkpt>
      <trkpt lat="45.29179" lon="5.48214">
        <ele>237.3</ele>
        <time>2021-05-03T08:05:01Z</time>
      </trkpt>
      <trkpt lat="45.29175" lon="5.48217">
        <ele>237.4</ele>
        <time>2021-05-03T08:05:02Z</time>
      </trkpt>
      <trkpt lat="45.29172" lon="5.4822">
        <ele>237.5</ele>
        <time>2021-05-03T08:05:03Z</time>
      </trkpt>
      <trkpt lat="45.29169" lon="5.48222">
        <ele>237.6</ele>
        <time>2021-05-03T08:05:04Z</time>
      </trkpt>
      <trkpt lat="45.29165" lon="5.48224">
        <ele>237.7</ele>
        <time>2021-05-03T08:05:05Z</time>
      </trkpt>
      <trkpt lat="45.29167" lon="5.48228">
        <ele>237.8</ele>
        <time>2021-05-03T08:05:06Z</time>
      </trkpt>
      <trkpt lat="45.29159" lon="5.48231">
        <ele>238</ele>
        <time>2021-05-03T08:05:08Z</time>
      </trkpt>
      <trkpt lat="45.2915" lon="5.48235">
        <ele>238.3</ele>
        <time>2021-05-03T08:05:10Z</time>
      </trkpt>
      <trkpt lat="45.29144" lon="5.48238">
        <ele>238.5</ele>
        <time>2021-05-03T08:05:11Z</time>
      </trkpt>
      <trkpt lat="45.29138" lon="5.4824">
        <ele>238.7</ele>
        <time>2021-05-03T08:05:13Z</time>
      </trkpt>
      <trkpt lat="45.29132" lon="5.48244">
        <ele>239</ele>
        <time>2021-05-03T08:05:14Z</time>
      </trkpt>
      <trkpt lat="45.29129" lon="5.48246">
        <ele>239.1</ele>
        <time>2021-05-03T08:05:15Z</time>
      </trkpt>
      <trkpt lat="45.29124" lon="5.48248">
        <ele>239.3</ele>
        <time>2021-05-03T08:05:17Z</time>
      </trkpt>
      <trkpt lat="45.2912" lon="5.48249">
        <ele>239.5</ele>
        <time>2021-05-03T08:05:18Z</time>
      </trkpt>
      <trkpt lat="45.29113" lon="5.48252">
        <ele>239.7</ele>
        <time>2021-05-03T08:05:20Z</time>
      </trkpt>
      <trkpt lat="45.29106" lon="5.48254">
        <ele>240</ele>
        <time>2021-05-03T08:05:22Z</time>
      </trkpt>
      <trkpt lat="45.29102" lon="5.48255">
        <ele>240.2</ele>
        <time>2021-05-03T08:05:23Z</time>
      </trkpt>
      <trkpt lat="45.29094" lon="5.48258">
        <ele>240.4</ele>
        <time>2021-05-03T08:05:25Z</time>
      </trkpt>
      <trkpt lat="45.29087" lon="5.48261">
        <ele>240.7</ele>
        <time>2021-05-03T08:05:27Z</time>
      </trkpt>
      <trkpt lat="45.29079" lon="5.48264">
        <ele>241</ele>
        <time>2021-05-03T08:05:29Z</time>
      </trkpt>
      <trkpt lat="45.29073" lon="5.48266">
        <ele>241.2</ele>
        <time>2021-05-03T08:05:31Z</time>
      </trkpt>
      <trkpt lat="45.2907" lon="5.48267">
        <ele>241.3</ele>
        <time>2021-05-03T08:05:32Z</time>
      </trkpt>
      <trkpt lat="45.29066" lon="5.48268">
        <ele>241.5</ele>
        <time>2021-05-03T08:05:33Z</time>
      </trkpt>
      <trkpt lat="45.29061" lon="5.4827">
        <ele>241.6</ele>
        <time>2021-05-03T08:05:34Z</time>
      </trkpt>
      <trkpt lat="45.29053" lon="5.48272">
        <ele>241.9</ele>
        <time>2021-05-03T08:05:36Z</time>
      </trkpt>
      <trkpt lat="45.29047" lon="5.48274">
        <ele>242.2</ele>
        <time>2021-05-03T08:05:38Z</time>
      </trkpt>
      <trkpt lat="45.2904" lon="5.48277">
        <ele>242.4</ele>
        <time>2021-05-03T08:05:40Z</time>
      </trkpt>
      <trkpt lat="45.29035" lon="5.48279">
        <ele>242.6</ele>
        <time>2021-05-03T08:05:41Z</time>
      </trkpt>
      <trkpt lat="45.29032" lon="5.4828">
        <ele>242.7</ele>
        <time>2021-05-03T08:05:42Z</time>
      </trkpt>
      <trkpt lat="45.29028" lon="5.48281">
        <ele>242.9</ele>
        <time>2021-05-03T08:05:43Z</time>
      </trkpt>
      <trkpt lat="45.29024" lon="5.48282">
        <ele>243</ele>
        <time>2021-05-03T08:05:45Z</time>
      </trkpt>
      <trkpt lat="45.29016" lon="5.48285">
        <ele>243.2</ele>
        <time>2021-05-03T08:05:47Z</time>
      </trkpt>
      <trkpt lat="45.29014" lon="5.48286">
        <ele>243.3</ele>
        <time>2021-05-03T08:05:48Z</time>
      </trkpt>
      <trkpt lat="45.2901" lon="5.48287">
        <ele>243.4</ele>
        <time>2021-05-03T08:05:49Z</time>
      </trkpt>
      <trkpt lat="45.29004" lon="5.48289">
        <ele>243.6</ele>
        <time>2021-05-03T08:05:50Z</time>
      </trkpt>
      <trkpt lat="45.29" lon="5.48291">
        <ele>243.7</ele>
        <time>2021-05-03T08:05:51Z</time>
      </trkpt>
      <trkpt lat="45.28995" lon="5.48293">
        <ele>243.8</ele>
        <time>2021-05-03T08:05:52Z</time>
      </trkpt>
      <trkpt lat="45.2899" lon="5.48295">
        <ele>243.9</ele>
        <time>2021-05-03T08:05:54Z</time>
      </trkpt>
      <trkpt lat="45.28984" lon="5.48296">
        <ele>244</ele>
        <time>2021-05-03T08:05:55Z</time>
      </trkpt>
      <trkpt lat="45.28978" lon="5.48298">
        <ele>244.2</ele>
        <time>2021-05-03T08:05:57Z</time>
      </trkpt>
      <trkpt lat="45.2897" lon="5.48301">
        <ele>244.3</ele>
        <time>2021-05-03T08:05:59Z</time>
      </trkpt>
      <trkpt lat="45.28963" lon="5.48304">
        <ele>244.4</ele>
        <time>2021-05-03T08:06:00Z</time>
      </trkpt>
      <trkpt lat="45.28957" lon="5.48305">
        <ele>244.4</ele>
        <time>2021-05-03T08:06:02Z</time>
      </trkpt>
      <trkpt lat="45.28954" lon="5.48307">
        <ele>244.4</ele>
        <time>2021-05-03T08:06:03Z</time>
      </trkpt>
      <trkpt lat="45.28949" lon="5.48309">
        <ele>244.5</ele>
        <time>2021-05-03T08:06:04Z</time>
      </trkpt>
      <trkpt lat="45.28939" lon="5.48312">
        <ele>244.5</ele>
        <time>2021-05-03T08:06:06Z</time>
      </trkpt>
      <trkpt lat="45.28935" lon="5.48313">
        <ele>244.5</ele>
        <time>2021-05-03T08:06:07Z</time>
      </trkpt>
      <trkpt lat="45.2893" lon="5.48314">
        <ele>244.5</ele>
        <time>2021-05-03T08:06:08Z</time>
      </trkpt>
      <trkpt lat="45.28925" lon="5.48316">
        <ele>244.5</ele>
        <time>2021-05-03T08:06:09Z</time>
      </trkpt>
      <trkpt lat="45.2892" lon="5.48317">
        <ele>244.6</ele>
        <time>2021-05-03T08:06:10Z</time>
      </trkpt>
      <trkpt lat="45.28916" lon="5.48318">
        <ele>244.6</ele>
        <time>2021-05-03T08:06:11Z</time>
      </trkpt>
      <trkpt lat="45.28911" lon="5.48317">
        <ele>244.6</ele>
        <time>2021-05-03T08:06:12Z</time>
      </trkpt>
      <trkpt lat="45.28906" lon="5.48317">
        <ele>244.6</ele>
        <time>2021-05-03T08:06:13Z</time>
      </trkpt>
      <trkpt lat="45.28901" lon="5.48317">
        <ele>244.6</ele>
        <time>2021-05-03T08:06:14Z</time>
      </trkpt>
      <trkpt lat="45.28896" lon="5.48318">
        <ele>244.6</ele>
        <time>2021-05-03T08:06:15Z</time>
      </trkpt>
      <trkpt lat="45.28891" lon="5.48318">
        <ele>244.6</ele>
        <time>2021-05-03T08:06:16Z</time>
      </trkpt>
      <trkpt lat="45.28886" lon="5.48318">
        <ele>244.6</ele>
        <time>2021-05-03T08:06:17Z</time>
      </trkpt>
      <trkpt lat="45.28881" lon="5.48319">
        <ele>244.7</ele>
        <time>2021-05-03T08:06:18Z</time>
      </trkpt>
      <trkpt lat="45.28876" lon="5.48318">
        <ele>244.7</ele>
        <time>2021-05-03T08:06:19Z</time>
      </trkpt>
      <trkpt lat="45.28871" lon="5.48317">
        <ele>244.7</ele>
        <time>2021-05-03T08:06:20Z</time>
      </trkpt>
      <trkpt lat="45.28866" lon="5.48316">
        <ele>244.7</ele>
        <time>2021-05-03T08:06:21Z</time>
      </trkpt>
      <trkpt lat="45.2886" lon="5.48316">
        <ele>244.7</ele>
        <time>2021-05-03T08:06:22Z</time>
      </trkpt>
      <trkpt lat="45.28855" lon="5.48315">
        <ele>244.8</ele>
        <time>2021-05-03T08:06:23Z</time>
      </trkpt>
      <trkpt lat="45.28851" lon="5.48314">
        <ele>244.8</ele>
        <time>2021-05-03T08:06:24Z</time>
      </trkpt>
      <trkpt lat="45.28845" lon="5.48313">
        <ele>244.8</ele>
        <time>2021-05-03T08:06:25Z</time>
      </trkpt>
      <trkpt lat="45.2884" lon="5.48311">
        <ele>244.8</ele>
        <time>2021-05-03T08:06:26Z</time>
      </trkpt>
      <trkpt lat="45.28835" lon="5.48309">
        <ele>244.8</ele>
        <time>2021-05-03T08:06:27Z</time>
      </trkpt>
      <trkpt lat="45.2883" lon="5.48306">
        <ele>244.8</ele>
        <time>2021-05-03T08:06:28Z</time>
      </trkpt>
      <trkpt lat="45.28825" lon="5.48303">
        <ele>244.8</ele>
        <time>2021-05-03T08:06:29Z</time>
      </trkpt>
      <trkpt lat="45.2882" lon="5.483">
        <ele>244.9</ele>
        <time>2021-05-03T08:06:30Z</time>
      </trkpt>
      <trkpt lat="45.28815" lon="5.48298">
        <ele>244.9</ele>
        <time>2021-05-03T08:06:31Z</time>
      </trkpt>
      <trkpt lat="45.28811" lon="5.48295">
        <ele>244.9</ele>
        <time>2021-05-03T08:06:32Z</time>
      </trkpt>
      <trkpt lat="45.28805" lon="5.48293">
        <ele>244.9</ele>
        <time>2021-05-03T08:06:33Z</time>
      </trkpt>
      <trkpt lat="45.288" lon="5.4829">
        <ele>244.9</ele>
        <time>2021-05-03T08:06:34Z</time>
      </trkpt>
      <trkpt lat="45.28794" lon="5.48288">
        <ele>244.9</ele>
        <time>2021-05-03T08:06:35Z</time>
      </trkpt>
      <trkpt lat="45.28789" lon="5.48286">
        <ele>244.9</ele>
        <time>2021-05-03T08:06:36Z</time>
      </trkpt>
      <trkpt lat="45.28784" lon="5.48284">
        <ele>244.9</ele>
        <time>2021-05-03T08:06:37Z</time>
      </trkpt>
      <trkpt lat="45.28778" lon="5.48281">
        <ele>244.9</ele>
        <time>2021-05-03T08:06:38Z</time>
      </trkpt>
      <trkpt lat="45.28773" lon="5.48279">
        <ele>244.9</ele>
        <time>2021-05-03T08:06:39Z</time>
      </trkpt>
      <trkpt lat="45.28767" lon="5.48277">
        <ele>245</ele>
        <time>2021-05-03T08:06:40Z</time>
      </trkpt>
      <trkpt lat="45.28762" lon="5.48275">
        <ele>245</ele>
        <time>2021-05-03T08:06:41Z</time>
      </trkpt>
      <trkpt lat="45.28756" lon="5.48272">
        <ele>245</ele>
        <time>2021-05-03T08:06:42Z</time>
      </trkpt>
      <trkpt lat="45.2875" lon="5.48269">
        <ele>245</ele>
        <time>2021-05-03T08:06:43Z</time>
      </trkpt>
      <trkpt lat="45.28744" lon="5.48266">
        <ele>245</ele>
        <time>2021-05-03T08:06:44Z</time>
      </trkpt>
      <trkpt lat="45.28738" lon="5.48263">
        <ele>245</ele>
        <time>2021-05-03T08:06:45Z</time>
      </trkpt>
      <trkpt lat="45.28733" lon="5.48259">
        <ele>245</ele>
        <time>2021-05-03T08:06:46Z</time>
      </trkpt>
      <trkpt lat="45.28727" lon="5.48257">
        <ele>245</ele>
        <time>2021-05-03T08:06:47Z</time>
      </trkpt>
      <trkpt lat="45.28722" lon="5.48254">
        <ele>245</ele>
        <time>2021-05-03T08:06:48Z</time>
      </trkpt>
      <trkpt lat="45.28717" lon="5.48251">
        <ele>245</ele>
        <time>2021-05-03T08:06:49Z</time>
      </trkpt>
      <trkpt lat="45.28711" lon="5.48249">
        <ele>245</ele>
        <time>2021-05-03T08:06:50Z</time>
      </trkpt>
      <trkpt lat="45.28706" lon="5.48247">
        <ele>245.1</ele>
        <time>2021-05-03T08:06:51Z</time>
      </trkpt>
      <trkpt lat="45.28701" lon="5.48244">
        <ele>245.1</ele>
        <time>2021-05-03T08:06:52Z</time>
      </trkpt>
      <trkpt lat="45.28695" lon="5.48241">
        <ele>245.1</ele>
        <time>2021-05-03T08:06:53Z</time>
      </trkpt>
      <trkpt lat="45.2869" lon="5.48238">
        <ele>245.1</ele>
        <time>2021-05-03T08:06:54Z</time>
      </trkpt>
      <trkpt lat="45.28684" lon="5.48236">
        <ele>245.1</ele>
        <time>2021-05-03T08:06:55Z</time>
      </trkpt>
      <trkpt lat="45.28679" lon="5.48233">
        <ele>245.1</ele>
        <time>2021-05-03T08:06:56Z</time>
      </trkpt>
      <trkpt lat="45.28674" lon="5.4823">
        <ele>245.1</ele>
        <time>2021-05-03T08:06:57Z</time>
      </trkpt>
      <trkpt lat="45.28668" lon="5.48227">
        <ele>245.1</ele>
        <time>2021-05-03T08:06:58Z</time>
      </trkpt>
      <trkpt lat="45.28662" lon="5.48224">
        <ele>245.1</ele>
        <time>2021-05-03T08:06:59Z</time>
      </trkpt>
      <trkpt lat="45.28656" lon="5.48221">
        <ele>245.2</ele>
        <time>2021-05-03T08:07:00Z</time>
      </trkpt>
      <trkpt lat="45.28651" lon="5.48219">
        <ele>245.2</ele>
        <time>2021-05-03T08:07:01Z</time>
      </trkpt>
      <trkpt lat="45.28645" lon="5.48216">
        <ele>245.2</ele>
        <time>2021-05-03T08:07:02Z</time>
      </trkpt>
      <trkpt lat="45.28639" lon="5.48213">
        <ele>245.2</ele>
        <time>2021-05-03T08:07:03Z</time>
      </trkpt>
      <trkpt lat="45.28633" lon="5.4821">
        <ele>245.3</ele>
        <time>2021-05-03T08:07:04Z</time>
      </trkpt>
      <trkpt lat="45.28627" lon="5.48207">
        <ele>245.3</ele>
        <time>2021-05-03T08:07:05Z</time>
      </trkpt>
      <trkpt lat="45.28621" lon="5.48204">
        <ele>245.3</ele>
        <time>2021-05-03T08:07:06Z</time>
      </trkpt>
      <trkpt lat="45.28616" lon="5.48201">
        <ele>245.3</ele>
        <time>2021-05-03T08:07:07Z</time>
      </trkpt>
      <trkpt lat="45.2861" lon="5.48198">
        <ele>245.3</ele>
        <time>2021-05-03T08:07:08Z</time>
      </trkpt>
      <trkpt lat="45.28604" lon="5.48196">
        <ele>245.3</ele>
        <time>2021-05-03T08:07:09Z</time>
      </trkpt>
      <trkpt lat="45.28598" lon="5.48193">
        <ele>245.3</ele>
        <time>2021-05-03T08:07:10Z</time>
      </trkpt>
      <trkpt lat="45.28593" lon="5.48191">
        <ele>245.3</ele>
        <time>2021-05-03T08:07:11Z</time>
      </trkpt>
      <trkpt lat="45.28587" lon="5.4819">
        <ele>245.3</ele>
        <time>2021-05-03T08:07:12Z</time>
      </trkpt>
      <trkpt lat="45.28581" lon="5.48188">
        <ele>245.3</ele>
        <time>2021-05-03T08:07:13Z</time>
      </trkpt>
      <trkpt lat="45.28575" lon="5.48188">
        <ele>245.3</ele>
        <time>2021-05-03T08:07:14Z</time>
      </trkpt>
      <trkpt lat="45.28569" lon="5.48188">
        <ele>245.3</ele>
        <time>2021-05-03T08:07:15Z</time>
      </trkpt>
      <trkpt lat="45.28563" lon="5.48189">
        <ele>245.3</ele>
        <time>2021-05-03T08:07:16Z</time>
      </trkpt>
      <trkpt lat="45.28556" lon="5.48191">
        <ele>245.3</ele>
        <time>2021-05-03T08:07:17Z</time>
      </trkpt>
      <trkpt lat="45.2855" lon="5.48193">
        <ele>245.3</ele>
        <time>2021-05-03T08:07:18Z</time>
      </trkpt>
      <trkpt lat="45.28543" lon="5.48195">
        <ele>245.3</ele>
        <time>2021-05-03T08:07:19Z</time>
      </trkpt>
      <trkpt lat="45.28537" lon="5.48198">
        <ele>245.3</ele>
        <time>2021-05-03T08:07:20Z</time>
      </trkpt>
      <trkpt lat="45.2853" lon="5.48201">
        <ele>245.3</ele>
        <time>2021-05-03T08:07:21Z</time>
      </trkpt>
      <trkpt lat="45.28524" lon="5.48204">
        <ele>245.3</ele>
        <time>2021-05-03T08:07:22Z</time>
      </trkpt>
      <trkpt lat="45.28518" lon="5.48206">
        <ele>245.3</ele>
        <time>2021-05-03T08:07:23Z</time>
      </trkpt>
      <trkpt lat="45.28512" lon="5.48209">
        <ele>245.3</ele>
        <time>2021-05-03T08:07:24Z</time>
      </trkpt>
      <trkpt lat="45.28506" lon="5.48211">
        <ele>245.3</ele>
        <time>2021-05-03T08:07:25Z</time>
      </trkpt>
      <trkpt lat="45.285" lon="5.48213">
        <ele>245.3</ele>
        <time>2021-05-03T08:07:26Z</time>
      </trkpt>
      <trkpt lat="45.28494" lon="5.48216">
        <ele>245.2</ele>
        <time>2021-05-03T08:07:27Z</time>
      </trkpt>
      <trkpt lat="45.28488" lon="5.48218">
        <ele>245.2</ele>
        <time>2021-05-03T08:07:28Z</time>
      </trkpt>
      <trkpt lat="45.28482" lon="5.48221">
        <ele>245.2</ele>
        <time>2021-05-03T08:07:29Z</time>
      </trkpt>
      <trkpt lat="45.28476" lon="5.48223">
        <ele>245.2</ele>
        <time>2021-05-03T08:07:30Z</time>
      </trkpt>
      <trkpt lat="45.2847" lon="5.48225">
        <ele>245.2</ele>
        <time>2021-05-03T08:07:31Z</time>
      </trkpt>
      <trkpt lat="45.28464" lon="5.48228">
        <ele>245.2</ele>
        <time>2021-05-03T08:07:32Z</time>
      </trkpt>
      <trkpt lat="45.28458" lon="5.4823">
        <ele>245.2</ele>
        <time>2021-05-03T08:07:33Z</time>
      </trkpt>
      <trkpt lat="45.28452" lon="5.48232">
        <ele>245.2</ele>
        <time>2021-05-03T08:07:34Z</time>
      </trkpt>
      <trkpt lat="45.28446" lon="5.48234">
        <ele>245.2</ele>
        <time>2021-05-03T08:07:35Z</time>
      </trkpt>
      <trkpt lat="45.28441" lon="5.48236">
        <ele>245.2</ele>
        <time>2021-05-03T08:07:36Z</time>
      </trkpt>
      <trkpt lat="45.28435" lon="5.48238">
        <ele>245.2</ele>
        <time>2021-05-03T08:07:37Z</time>
      </trkpt>
      <trkpt lat="45.28429" lon="5.48239">
        <ele>245.2</ele>
        <time>2021-05-03T08:07:38Z</time>
      </trkpt>
      <trkpt lat="45.28423" lon="5.48242">
        <ele>245.2</ele>
        <time>2021-05-03T08:07:39Z</time>
      </trkpt>
      <trkpt lat="45.28417" lon="5.48244">
        <ele>245.2</ele>
        <time>2021-05-03T08:07:40Z</time>
      </trkpt>
      <trkpt lat="45.28411" lon="5.48246">
        <ele>245.2</ele>
        <time>2021-05-03T08:07:41Z</time>
      </trkpt>
      <trkpt lat="45.28405" lon="5.48248">
        <ele>245.2</ele>
        <time>2021-05-03T08:07:42Z</time>
      </trkpt>
      <trkpt lat="45.28399" lon="5.4825">
        <ele>245.2</ele>
        <time>2021-05-03T08:07:43Z</time>
      </trkpt>
      <trkpt lat="45.28393" lon="5.48251">
        <ele>245.2</ele>
        <time>2021-05-03T08:07:44Z</time>
      </trkpt>
      <trkpt lat="45.28388" lon="5.48254">
        <ele>245.3</ele>
        <time>2021-05-03T08:07:45Z</time>
      </trkpt>
      <trkpt lat="45.28382" lon="5.48256">
        <ele>245.3</ele>
        <time>2021-05-03T08:07:46Z</time>
      </trkpt>
      <trkpt lat="45.28376" lon="5.48257">
        <ele>245.3</ele>
        <time>2021-05-03T08:07:47Z</time>
      </trkpt>
      <trkpt lat="45.2837" lon="5.48259">
        <ele>245.4</ele>
        <time>2021-05-03T08:07:48Z</time>
      </trkpt>
      <trkpt lat="45.28364" lon="5.48261">
        <ele>245.4</ele>
        <time>2021-05-03T08:07:49Z</time>
      </trkpt>
      <trkpt lat="45.28359" lon="5.48263">
        <ele>245.5</ele>
        <time>2021-05-03T08:07:50Z</time>
      </trkpt>
      <trkpt lat="45.28353" lon="5.48266">
        <ele>245.5</ele>
        <time>2021-05-03T08:07:51Z</time>
      </trkpt>
      <trkpt lat="45.28347" lon="5.48267">
        <ele>245.5</ele>
        <time>2021-05-03T08:07:52Z</time>
      </trkpt>
      <trkpt lat="45.28342" lon="5.48269">
        <ele>245.6</ele>
        <time>2021-05-03T08:07:53Z</time>
      </trkpt>
      <trkpt lat="45.28337" lon="5.48271">
        <ele>245.6</ele>
        <time>2021-05-03T08:07:54Z</time>
      </trkpt>
      <trkpt lat="45.28332" lon="5.48272">
        <ele>245.6</ele>
        <time>2021-05-03T08:07:55Z</time>
      </trkpt>
      <trkpt lat="45.28328" lon="5.48273">
        <ele>245.6</ele>
        <time>2021-05-03T08:07:56Z</time>
      </trkpt>
      <trkpt lat="45.28325" lon="5.48273">
        <ele>245.7</ele>
        <time>2021-05-03T08:07:57Z</time>
      </trkpt>
      <trkpt lat="45.28319" lon="5.48274">
        <ele>245.7</ele>
        <time>2021-05-03T08:07:58Z</time>
      </trkpt>
      <trkpt lat="45.28314" lon="5.48276">
        <ele>245.7</ele>
        <time>2021-05-03T08:07:59Z</time>
      </trkpt>
      <trkpt lat="45.28309" lon="5.48278">
        <ele>245.8</ele>
        <time>2021-05-03T08:08:00Z</time>
      </trkpt>
      <trkpt lat="45.28304" lon="5.48279">
        <ele>245.8</ele>
        <time>2021-05-03T08:08:01Z</time>
      </trkpt>
      <trkpt lat="45.28299" lon="5.48281">
        <ele>245.9</ele>
        <time>2021-05-03T08:08:02Z</time>
      </trkpt>
      <trkpt lat="45.28293" lon="5.48282">
        <ele>245.9</ele>
        <time>2021-05-03T08:08:03Z</time>
      </trkpt>
      <trkpt lat="45.28288" lon="5.48283">
        <ele>245.9</ele>
        <time>2021-05-03T08:08:04Z</time>
      </trkpt>
      <trkpt lat="45.28282" lon="5.48285">
        <ele>246</ele>
        <time>2021-05-03T08:08:05Z</time>
      </trkpt>
      <trkpt lat="45.28276" lon="5.48286">
        <ele>246</ele>
        <time>2021-05-03T08:08:06Z</time>
      </trkpt>
      <trkpt lat="45.2827" lon="5.48287">
        <ele>246</ele>
        <time>2021-05-03T08:08:07Z</time>
      </trkpt>
      <trkpt lat="45.28264" lon="5.48288">
        <ele>246.1</ele>
        <time>2021-05-03T08:08:08Z</time>
      </trkpt>
      <trkpt lat="45.28258" lon="5.48287">
        <ele>246.1</ele>
        <time>2021-05-03T08:08:09Z</time>
      </trkpt>
      <trkpt lat="45.28252" lon="5.48287">
        <ele>246.1</ele>
        <time>2021-05-03T08:08:10Z</time>
      </trkpt>
      <trkpt lat="45.28247" lon="5.48287">
        <ele>246.2</ele>
        <time>2021-05-03T08:08:11Z</time>
      </trkpt>
      <trkpt lat="45.28241" lon="5.48286">
        <ele>246.2</ele>
        <time>2021-05-03T08:08:12Z</time>
      </trkpt>
      <trkpt lat="45.28235" lon="5.48285">
        <ele>246.3</ele>
        <time>2021-05-03T08:08:13Z</time>
      </trkpt>
      <trkpt lat="45.2823" lon="5.48285">
        <ele>246.3</ele>
        <time>2021-05-03T08:08:14Z</time>
      </trkpt>
      <trkpt lat="45.28224" lon="5.48285">
        <ele>246.3</ele>
        <time>2021-05-03T08:08:15Z</time>
      </trkpt>
      <trkpt lat="45.28218" lon="5.48285">
        <ele>246.4</ele>
        <time>2021-05-03T08:08:16Z</time>
      </trkpt>
      <trkpt lat="45.28212" lon="5.48285">
        <ele>246.4</ele>
        <time>2021-05-03T08:08:17Z</time>
      </trkpt>
      <trkpt lat="45.28207" lon="5.48284">
        <ele>246.5</ele>
        <time>2021-05-03T08:08:18Z</time>
      </trkpt>
      <trkpt lat="45.28201" lon="5.48283">
        <ele>246.5</ele>
        <time>2021-05-03T08:08:19Z</time>
      </trkpt>
      <trkpt lat="45.28195" lon="5.48282">
        <ele>246.6</ele>
        <time>2021-05-03T08:08:20Z</time>
      </trkpt>
      <trkpt lat="45.2819" lon="5.48281">
        <ele>246.6</ele>
        <time>2021-05-03T08:08:21Z</time>
      </trkpt>
      <trkpt lat="45.28185" lon="5.48279">
        <ele>246.7</ele>
        <time>2021-05-03T08:08:22Z</time>
      </trkpt>
      <trkpt lat="45.28179" lon="5.48278">
        <ele>246.7</ele>
        <time>2021-05-03T08:08:23Z</time>
      </trkpt>
      <trkpt lat="45.28174" lon="5.48277">
        <ele>246.7</ele>
        <time>2021-05-03T08:08:24Z</time>
      </trkpt>
      <trkpt lat="45.28169" lon="5.48276">
        <ele>246.8</ele>
        <time>2021-05-03T08:08:25Z</time>
      </trkpt>
      <trkpt lat="45.28163" lon="5.48275">
        <ele>246.8</ele>
        <time>2021-05-03T08:08:26Z</time>
      </trkpt>
      <trkpt lat="45.28158" lon="5.48274">
        <ele>246.8</ele>
        <time>2021-05-03T08:08:27Z</time>
      </trkpt>
      <trkpt lat="45.28152" lon="5.48274">
        <ele>246.9</ele>
        <time>2021-05-03T08:08:28Z</time>
      </trkpt>
      <trkpt lat="45.28146" lon="5.48273">
        <ele>246.9</ele>
        <time>2021-05-03T08:08:29Z</time>
      </trkpt>
      <trkpt lat="45.2814" lon="5.48272">
        <ele>247</ele>
        <time>2021-05-03T08:08:30Z</time>
      </trkpt>
      <trkpt lat="45.28135" lon="5.48271">
        <ele>247</ele>
        <time>2021-05-03T08:08:31Z</time>
      </trkpt>
      <trkpt lat="45.28129" lon="5.48269">
        <ele>247</ele>
        <time>2021-05-03T08:08:32Z</time>
      </trkpt>
      <trkpt lat="45.28123" lon="5.48267">
        <ele>247</ele>
        <time>2021-05-03T08:08:33Z</time>
      </trkpt>
      <trkpt lat="45.28117" lon="5.48266">
        <ele>247.1</ele>
        <time>2021-05-03T08:08:34Z</time>
      </trkpt>
      <trkpt lat="45.28111" lon="5.48264">
        <ele>247.1</ele>
        <time>2021-05-03T08:08:35Z</time>
      </trkpt>
      <trkpt lat="45.28105" lon="5.48262">
        <ele>247.1</ele>
        <time>2021-05-03T08:08:36Z</time>
      </trkpt>
      <trkpt lat="45.281" lon="5.4826">
        <ele>247.1</ele>
        <time>2021-05-03T08:08:37Z</time>
      </trkpt>
      <trkpt lat="45.28095" lon="5.48258">
        <ele>247.2</ele>
        <time>2021-05-03T08:08:38Z</time>
      </trkpt>
      <trkpt lat="45.28089" lon="5.48255">
        <ele>247.2</ele>
        <time>2021-05-03T08:08:39Z</time>
      </trkpt>
      <trkpt lat="45.28083" lon="5.48253">
        <ele>247.2</ele>
        <time>2021-05-03T08:08:40Z</time>
      </trkpt>
      <trkpt lat="45.28078" lon="5.48251">
        <ele>247.2</ele>
        <time>2021-05-03T08:08:41Z</time>
      </trkpt>
      <trkpt lat="45.28073" lon="5.48249">
        <ele>247.3</ele>
        <time>2021-05-03T08:08:42Z</time>
      </trkpt>
      <trkpt lat="45.28068" lon="5.48247">
        <ele>247.3</ele>
        <time>2021-05-03T08:08:43Z</time>
      </trkpt>
      <trkpt lat="45.28062" lon="5.48245">
        <ele>247.4</ele>
        <time>2021-05-03T08:08:44Z</time>
      </trkpt>
      <trkpt lat="45.28056" lon="5.48244">
        <ele>247.4</ele>
        <time>2021-05-03T08:08:45Z</time>
      </trkpt>
      <trkpt lat="45.2805" lon="5.48242">
        <ele>247.4</ele>
        <time>2021-05-03T08:08:46Z</time>
      </trkpt>
      <trkpt lat="45.28044" lon="5.4824">
        <ele>247.5</ele>
        <time>2021-05-03T08:08:47Z</time>
      </trkpt>
      <trkpt lat="45.28038" lon="5.48238">
        <ele>247.5</ele>
        <time>2021-05-03T08:08:48Z</time>
      </trkpt>
      <trkpt lat="45.28033" lon="5.48236">
        <ele>247.5</ele>
        <time>2021-05-03T08:08:49Z</time>
      </trkpt>
      <trkpt lat="45.28027" lon="5.48234">
        <ele>247.5</ele>
        <time>2021-05-03T08:08:50Z</time>
      </trkpt>
      <trkpt lat="45.28022" lon="5.48232">
        <ele>247.6</ele>
        <time>2021-05-03T08:08:51Z</time>
      </trkpt>
      <trkpt lat="45.28017" lon="5.48228">
        <ele>247.6</ele>
        <time>2021-05-03T08:08:52Z</time>
      </trkpt>
      <trkpt lat="45.28012" lon="5.48224">
        <ele>247.6</ele>
        <time>2021-05-03T08:08:53Z</time>
      </trkpt>
      <trkpt lat="45.28007" lon="5.4822">
        <ele>247.7</ele>
        <time>2021-05-03T08:08:54Z</time>
      </trkpt>
      <trkpt lat="45.28002" lon="5.48216">
        <ele>247.7</ele>
        <time>2021-05-03T08:08:55Z</time>
      </trkpt>
      <trkpt lat="45.27998" lon="5.4821">
        <ele>247.7</ele>
        <time>2021-05-03T08:08:56Z</time>
      </trkpt>
      <trkpt lat="45.27993" lon="5.48205">
        <ele>247.8</ele>
        <time>2021-05-03T08:08:57Z</time>
      </trkpt>
      <trkpt lat="45.27988" lon="5.482">
        <ele>247.8</ele>
        <time>2021-05-03T08:08:58Z</time>
      </trkpt>
      <trkpt lat="45.27984" lon="5.48194">
        <ele>247.9</ele>
        <time>2021-05-03T08:08:59Z</time>
      </trkpt>
      <trkpt lat="45.27979" lon="5.48189">
        <ele>247.9</ele>
        <time>2021-05-03T08:09:00Z</time>
      </trkpt>
      <trkpt lat="45.27974" lon="5.48184">
        <ele>247.9</ele>
        <time>2021-05-03T08:09:01Z</time>
      </trkpt>
      <trkpt lat="45.27969" lon="5.4818">
        <ele>248</ele>
        <time>2021-05-03T08:09:02Z</time>
      </trkpt>
      <trkpt lat="45.27964" lon="5.48176">
        <ele>248</ele>
        <time>2021-05-03T08:09:03Z</time>
      </trkpt>
      <trkpt lat="45.27959" lon="5.48172">
        <ele>248.1</ele>
        <time>2021-05-03T08:09:04Z</time>
      </trkpt>
      <trkpt lat="45.27954" lon="5.48167">
        <ele>248.1</ele>
        <time>2021-05-03T08:09:05Z</time>
      </trkpt>
      <trkpt lat="45.27949" lon="5.48163">
        <ele>248.2</ele>
        <time>2021-05-03T08:09:06Z</time>
      </trkpt>
      <trkpt lat="45.27944" lon="5.48158">
        <ele>248.2</ele>
        <time>2021-05-03T08:09:07Z</time>
      </trkpt>
      <trkpt lat="45.27938" lon="5.48154">
        <ele>248.3</ele>
        <time>2021-05-03T08:09:08Z</time>
      </trkpt>
      <trkpt lat="45.27933" lon="5.4815">
        <ele>248.3</ele>
        <time>2021-05-03T08:09:09Z</time>
      </trkpt>
      <trkpt lat="45.27927" lon="5.48145">
        <ele>248.4</ele>
        <time>2021-05-03T08:09:10Z</time>
      </trkpt>
      <trkpt lat="45.27922" lon="5.48141">
        <ele>248.4</ele>
        <time>2021-05-03T08:09:11Z</time>
      </trkpt>
      <trkpt lat="45.27917" lon="5.48137">
        <ele>248.5</ele>
        <time>2021-05-03T08:09:12Z</time>
      </trkpt>
      <trkpt lat="45.27911" lon="5.48133">
        <ele>248.5</ele>
        <time>2021-05-03T08:09:13Z</time>
      </trkpt>
      <trkpt lat="45.27906" lon="5.48129">
        <ele>248.6</ele>
        <time>2021-05-03T08:09:14Z</time>
      </trkpt>
      <trkpt lat="45.279" lon="5.48125">
        <ele>248.6</ele>
        <time>2021-05-03T08:09:15Z</time>
      </trkpt>
      <trkpt lat="45.27894" lon="5.48121">
        <ele>248.6</ele>
        <time>2021-05-03T08:09:16Z</time>
      </trkpt>
      <trkpt lat="45.27888" lon="5.48117">
        <ele>248.6</ele>
        <time>2021-05-03T08:09:17Z</time>
      </trkpt>
      <trkpt lat="45.27883" lon="5.48113">
        <ele>248.6</ele>
        <time>2021-05-03T08:09:18Z</time>
      </trkpt>
      <trkpt lat="45.27878" lon="5.48109">
        <ele>248.7</ele>
        <time>2021-05-03T08:09:19Z</time>
      </trkpt>
      <trkpt lat="45.27874" lon="5.48104">
        <ele>248.7</ele>
        <time>2021-05-03T08:09:20Z</time>
      </trkpt>
      <trkpt lat="45.27869" lon="5.481">
        <ele>248.7</ele>
        <time>2021-05-03T08:09:21Z</time>
      </trkpt>
      <trkpt lat="45.27864" lon="5.48095">
        <ele>248.7</ele>
        <time>2021-05-03T08:09:22Z</time>
      </trkpt>
      <trkpt lat="45.27859" lon="5.48091">
        <ele>248.7</ele>
        <time>2021-05-03T08:09:23Z</time>
      </trkpt>
      <trkpt lat="45.27853" lon="5.48087">
        <ele>248.7</ele>
        <time>2021-05-03T08:09:24Z</time>
      </trkpt>
      <trkpt lat="45.27848" lon="5.48083">
        <ele>248.7</ele>
        <time>2021-05-03T08:09:25Z</time>
      </trkpt>
      <trkpt lat="45.27843" lon="5.48078">
        <ele>248.7</ele>
        <time>2021-05-03T08:09:26Z</time>
      </trkpt>
      <trkpt lat="45.27838" lon="5.48074">
        <ele>248.8</ele>
        <time>2021-05-03T08:09:27Z</time>
      </trkpt>
      <trkpt lat="45.27832" lon="5.4807">
        <ele>248.8</ele>
        <time>2021-05-03T08:09:28Z</time>
      </trkpt>
      <trkpt lat="45.27827" lon="5.48066">
        <ele>248.9</ele>
        <time>2021-05-03T08:09:29Z</time>
      </trkpt>
      <trkpt lat="45.27822" lon="5.48062">
        <ele>248.9</ele>
        <time>2021-05-03T08:09:30Z</time>
      </trkpt>
      <trkpt lat="45.27816" lon="5.48059">
        <ele>248.9</ele>
        <time>2021-05-03T08:09:31Z</time>
      </trkpt>
      <trkpt lat="45.27811" lon="5.48055">
        <ele>249</ele>
        <time>2021-05-03T08:09:32Z</time>
      </trkpt>
      <trkpt lat="45.27806" lon="5.4805">
        <ele>249</ele>
        <time>2021-05-03T08:09:33Z</time>
      </trkpt>
      <trkpt lat="45.27801" lon="5.48045">
        <ele>249</ele>
        <time>2021-05-03T08:09:34Z</time>
      </trkpt>
      <trkpt lat="45.27796" lon="5.48041">
        <ele>249.1</ele>
        <time>2021-05-03T08:09:35Z</time>
      </trkpt>
      <trkpt lat="45.2779" lon="5.48036">
        <ele>249.1</ele>
        <time>2021-05-03T08:09:36Z</time>
      </trkpt>
      <trkpt lat="45.27785" lon="5.48032">
        <ele>249.1</ele>
        <time>2021-05-03T08:09:37Z</time>
      </trkpt>
      <trkpt lat="45.2778" lon="5.48028">
        <ele>249.2</ele>
        <time>2021-05-03T08:09:38Z</time>
      </trkpt>
      <trkpt lat="45.27775" lon="5.48023">
        <ele>249.2</ele>
        <time>2021-05-03T08:09:39Z</time>
      </trkpt>
      <trkpt lat="45.27771" lon="5.48019">
        <ele>249.2</ele>
        <time>2021-05-03T08:09:40Z</time>
      </trkpt>
      <trkpt lat="45.27766" lon="5.48015">
        <ele>249.2</ele>
        <time>2021-05-03T08:09:41Z</time>
      </trkpt>
      <trkpt lat="45.27762" lon="5.4801">
        <ele>249.3</ele>
        <time>2021-05-03T08:09:42Z</time>
      </trkpt>
      <trkpt lat="45.27757" lon="5.48006">
        <ele>249.3</ele>
        <time>2021-05-03T08:09:43Z</time>
      </trkpt>
      <trkpt lat="45.27752" lon="5.48002">
        <ele>249.3</ele>
        <time>2021-05-03T08:09:44Z</time>
      </trkpt>
      <trkpt lat="45.27747" lon="5.47998">
        <ele>249.4</ele>
        <time>2021-05-03T08:09:45Z</time>
      </trkpt>
      <trkpt lat="45.27742" lon="5.47994">
        <ele>249.4</ele>
        <time>2021-05-03T08:09:46Z</time>
      </trkpt>
      <trkpt lat="45.27737" lon="5.47991">
        <ele>249.5</ele>
        <time>2021-05-03T08:09:47Z</time>
      </trkpt>
      <trkpt lat="45.27732" lon="5.47986">
        <ele>249.5</ele>
        <time>2021-05-03T08:09:48Z</time>
      </trkpt>
      <trkpt lat="45.27727" lon="5.47982">
        <ele>249.6</ele>
        <time>2021-05-03T08:09:49Z</time>
      </trkpt>
      <trkpt lat="45.27722" lon="5.47978">
        <ele>249.6</ele>
        <time>2021-05-03T08:09:50Z</time>
      </trkpt>
      <trkpt lat="45.27717" lon="5.47974">
        <ele>249.6</ele>
        <time>2021-05-03T08:09:51Z</time>
      </trkpt>
      <trkpt lat="45.27712" lon="5.4797">
        <ele>249.7</ele>
        <time>2021-05-03T08:09:52Z</time>
      </trkpt>
      <trkpt lat="45.27708" lon="5.47966">
        <ele>249.7</ele>
        <time>2021-05-03T08:09:53Z</time>
      </trkpt>
      <trkpt lat="45.27703" lon="5.47962">
        <ele>249.7</ele>
        <time>2021-05-03T08:09:54Z</time>
      </trkpt>
      <trkpt lat="45.27699" lon="5.47958">
        <ele>249.8</ele>
        <time>2021-05-03T08:09:55Z</time>
      </trkpt>
      <trkpt lat="45.27694" lon="5.47953">
        <ele>249.8</ele>
        <time>2021-05-03T08:09:56Z</time>
      </trkpt>
      <trkpt lat="45.27689" lon="5.47949">
        <ele>249.9</ele>
        <time>2021-05-03T08:09:57Z</time>
      </trkpt>
      <trkpt lat="45.27684" lon="5.47945">
        <ele>249.9</ele>
        <time>2021-05-03T08:09:58Z</time>
      </trkpt>
      <trkpt lat="45.27679" lon="5.4794">
        <ele>250</ele>
        <time>2021-05-03T08:09:59Z</time>
      </trkpt>
      <trkpt lat="45.27674" lon="5.47936">
        <ele>250</ele>
        <time>2021-05-03T08:10:00Z</time>
      </trkpt>
      <trkpt lat="45.27669" lon="5.47931">
        <ele>250</ele>
        <time>2021-05-03T08:10:01Z</time>
      </trkpt>
      <trkpt lat="45.27664" lon="5.47927">
        <ele>250.1</ele>
        <time>2021-05-03T08:10:02Z</time>
      </trkpt>
      <trkpt lat="45.27659" lon="5.47922">
        <ele>250.1</ele>
        <time>2021-05-03T08:10:03Z</time>
      </trkpt>
      <trkpt lat="45.27655" lon="5.47916">
        <ele>250.1</ele>
        <time>2021-05-03T08:10:04Z</time>
      </trkpt>
      <trkpt lat="45.2765" lon="5.4791">
        <ele>250.2</ele>
        <time>2021-05-03T08:10:05Z</time>
      </trkpt>
      <trkpt lat="45.27645" lon="5.47904">
        <ele>250.2</ele>
        <time>2021-05-03T08:10:06Z</time>
      </trkpt>
      <trkpt lat="45.27641" lon="5.47898">
        <ele>250.2</ele>
        <time>2021-05-03T08:10:07Z</time>
      </trkpt>
      <trkpt lat="45.27637" lon="5.47892">
        <ele>250.2</ele>
        <time>2021-05-03T08:10:08Z</time>
      </trkpt>
      <trkpt lat="45.27633" lon="5.47886">
        <ele>250.3</ele>
        <time>2021-05-03T08:10:09Z</time>
      </trkpt>
      <trkpt lat="45.27629" lon="5.4788">
        <ele>250.3</ele>
        <time>2021-05-03T08:10:10Z</time>
      </trkpt>
      <trkpt lat="45.27625" lon="5.47874">
        <ele>250.3</ele>
        <time>2021-05-03T08:10:11Z</time>
      </trkpt>
      <trkpt lat="45.27622" lon="5.47868">
        <ele>250.4</ele>
        <time>2021-05-03T08:10:12Z</time>
      </trkpt>
      <trkpt lat="45.27619" lon="5.47861">
        <ele>250.4</ele>
        <time>2021-05-03T08:10:13Z</time>
      </trkpt>
      <trkpt lat="45.27616" lon="5.47853">
        <ele>250.5</ele>
        <time>2021-05-03T08:10:14Z</time>
      </trkpt>
      <trkpt lat="45.27613" lon="5.47845">
        <ele>250.5</ele>
        <time>2021-05-03T08:10:15Z</time>
      </trkpt>
      <trkpt lat="45.2761" lon="5.47838">
        <ele>250.6</ele>
        <time>2021-05-03T08:10:16Z</time>
      </trkpt>
      <trkpt lat="45.27608" lon="5.4783">
        <ele>250.7</ele>
        <time>2021-05-03T08:10:17Z</time>
      </trkpt>
      <trkpt lat="45.27606" lon="5.47823">
        <ele>250.7</ele>
        <time>2021-05-03T08:10:18Z</time>
      </trkpt>
      <trkpt lat="45.27603" lon="5.47817">
        <ele>250.8</ele>
        <time>2021-05-03T08:10:19Z</time>
      </trkpt>
      <trkpt lat="45.27601" lon="5.4781">
        <ele>250.8</ele>
        <time>2021-05-03T08:10:20Z</time>
      </trkpt>
      <trkpt lat="45.27598" lon="5.47803">
        <ele>250.9</ele>
        <time>2021-05-03T08:10:21Z</time>
      </trkpt>
      <trkpt lat="45.27596" lon="5.47796">
        <ele>250.9</ele>
        <time>2021-05-03T08:10:22Z</time>
      </trkpt>
      <trkpt lat="45.27593" lon="5.4779">
        <ele>251</ele>
        <time>2021-05-03T08:10:23Z</time>
      </trkpt>
      <trkpt lat="45.27591" lon="5.47783">
        <ele>251</ele>
        <time>2021-05-03T08:10:24Z</time>
      </trkpt>
      <trkpt lat="45.27587" lon="5.47776">
        <ele>251.1</ele>
        <time>2021-05-03T08:10:25Z</time>
      </trkpt>
      <trkpt lat="45.27584" lon="5.4777">
        <ele>251.2</ele>
        <time>2021-05-03T08:10:26Z</time>
      </trkpt>
      <trkpt lat="45.27582" lon="5.47764">
        <ele>251.2</ele>
        <time>2021-05-03T08:10:27Z</time>
      </trkpt>
      <trkpt lat="45.27578" lon="5.47758">
        <ele>251.3</ele>
        <time>2021-05-03T08:10:28Z</time>
      </trkpt>
      <trkpt lat="45.27575" lon="5.47752">
        <ele>251.3</ele>
        <time>2021-05-03T08:10:29Z</time>
      </trkpt>
      <trkpt lat="45.27571" lon="5.47746">
        <ele>251.4</ele>
        <time>2021-05-03T08:10:30Z</time>
      </trkpt>
      <trkpt lat="45.27567" lon="5.4774">
        <ele>251.4</ele>
        <time>2021-05-03T08:10:31Z</time>
      </trkpt>
      <trkpt lat="45.27563" lon="5.47735">
        <ele>251.5</ele>
        <time>2021-05-03T08:10:32Z</time>
      </trkpt>
      <trkpt lat="45.27559" lon="5.47729">
        <ele>251.5</ele>
        <time>2021-05-03T08:10:33Z</time>
      </trkpt>
      <trkpt lat="45.27554" lon="5.47724">
        <ele>251.6</ele>
        <time>2021-05-03T08:10:34Z</time>
      </trkpt>
      <trkpt lat="45.27549" lon="5.47718">
        <ele>251.7</ele>
        <time>2021-05-03T08:10:35Z</time>
      </trkpt>
      <trkpt lat="45.27545" lon="5.47714">
        <ele>251.7</ele>
        <time>2021-05-03T08:10:36Z</time>
      </trkpt>
      <trkpt lat="45.2754" lon="5.47709">
        <ele>251.8</ele>
        <time>2021-05-03T08:10:37Z</time>
      </trkpt>
      <trkpt lat="45.27535" lon="5.47705">
        <ele>251.9</ele>
        <time>2021-05-03T08:10:38Z</time>
      </trkpt>
      <trkpt lat="45.27531" lon="5.477">
        <ele>251.9</ele>
        <time>2021-05-03T08:10:39Z</time>
      </trkpt>
      <trkpt lat="45.27526" lon="5.47696">
        <ele>252</ele>
        <time>2021-05-03T08:10:40Z</time>
      </trkpt>
      <trkpt lat="45.27521" lon="5.47692">
        <ele>252.1</ele>
        <time>2021-05-03T08:10:41Z</time>
      </trkpt>
      <trkpt lat="45.27516" lon="5.47688">
        <ele>252.2</ele>
        <time>2021-05-03T08:10:42Z</time>
      </trkpt>
      <trkpt lat="45.27511" lon="5.47685">
        <ele>252.2</ele>
        <time>2021-05-03T08:10:43Z</time>
      </trkpt>
      <trkpt lat="45.27506" lon="5.47682">
        <ele>252.3</ele>
        <time>2021-05-03T08:10:44Z</time>
      </trkpt>
      <trkpt lat="45.27501" lon="5.47679">
        <ele>252.4</ele>
        <time>2021-05-03T08:10:45Z</time>
      </trkpt>
      <trkpt lat="45.27494" lon="5.47677">
        <ele>252.5</ele>
        <time>2021-05-03T08:10:46Z</time>
      </trkpt>
      <trkpt lat="45.27488" lon="5.47675">
        <ele>252.5</ele>
        <time>2021-05-03T08:10:47Z</time>
      </trkpt>
      <trkpt lat="45.27483" lon="5.47672">
        <ele>252.6</ele>
        <time>2021-05-03T08:10:48Z</time>
      </trkpt>
      <trkpt lat="45.27477" lon="5.4767">
        <ele>252.6</ele>
        <time>2021-05-03T08:10:49Z</time>
      </trkpt>
      <trkpt lat="45.27472" lon="5.47669">
        <ele>252.7</ele>
        <time>2021-05-03T08:10:50Z</time>
      </trkpt>
      <trkpt lat="45.27467" lon="5.47666">
        <ele>252.7</ele>
        <time>2021-05-03T08:10:51Z</time>
      </trkpt>
      <trkpt lat="45.27462" lon="5.47663">
        <ele>252.7</ele>
        <time>2021-05-03T08:10:52Z</time>
      </trkpt>
      <trkpt lat="45.27456" lon="5.47661">
        <ele>252.8</ele>
        <time>2021-05-03T08:10:53Z</time>
      </trkpt>
      <trkpt lat="45.2745" lon="5.47659">
        <ele>252.8</ele>
        <time>2021-05-03T08:10:54Z</time>
      </trkpt>
      <trkpt lat="45.27444" lon="5.47658">
        <ele>252.8</ele>
        <time>2021-05-03T08:10:55Z</time>
      </trkpt>
      <trkpt lat="45.27439" lon="5.47656">
        <ele>252.9</ele>
        <time>2021-05-03T08:10:56Z</time>
      </trkpt>
      <trkpt lat="45.27433" lon="5.47654">
        <ele>252.9</ele>
        <time>2021-05-03T08:10:57Z</time>
      </trkpt>
      <trkpt lat="45.27428" lon="5.47652">
        <ele>253</ele>
        <time>2021-05-03T08:10:58Z</time>
      </trkpt>
      <trkpt lat="45.27423" lon="5.4765">
        <ele>253</ele>
        <time>2021-05-03T08:10:59Z</time>
      </trkpt>
      <trkpt lat="45.27417" lon="5.47647">
        <ele>253.1</ele>
        <time>2021-05-03T08:11:00Z</time>
      </trkpt>
      <trkpt lat="45.27411" lon="5.47644">
        <ele>253.1</ele>
        <time>2021-05-03T08:11:01Z</time>
      </trkpt>
      <trkpt lat="45.27406" lon="5.47641">
        <ele>253.2</ele>
        <time>2021-05-03T08:11:02Z</time>
      </trkpt>
      <trkpt lat="45.27401" lon="5.47638">
        <ele>253.3</ele>
        <time>2021-05-03T08:11:03Z</time>
      </trkpt>
      <trkpt lat="45.27396" lon="5.47634">
        <ele>253.3</ele>
        <time>2021-05-03T08:11:04Z</time>
      </trkpt>
      <trkpt lat="45.27392" lon="5.4763">
        <ele>253.4</ele>
        <time>2021-05-03T08:11:05Z</time>
      </trkpt>
      <trkpt lat="45.27387" lon="5.47626">
        <ele>253.4</ele>
        <time>2021-05-03T08:11:06Z</time>
      </trkpt>
      <trkpt lat="45.27383" lon="5.47622">
        <ele>253.5</ele>
        <time>2021-05-03T08:11:07Z</time>
      </trkpt>
      <trkpt lat="45.27379" lon="5.47617">
        <ele>253.6</ele>
        <time>2021-05-03T08:11:08Z</time>
      </trkpt>
      <trkpt lat="45.27374" lon="5.47613">
        <ele>253.6</ele>
        <time>2021-05-03T08:11:09Z</time>
      </trkpt>
      <trkpt lat="45.27371" lon="5.47607">
        <ele>253.7</ele>
        <time>2021-05-03T08:11:10Z</time>
      </trkpt>
      <trkpt lat="45.27367" lon="5.47602">
        <ele>253.8</ele>
        <time>2021-05-03T08:11:11Z</time>
      </trkpt>
      <trkpt lat="45.27363" lon="5.47595">
        <ele>253.8</ele>
        <time>2021-05-03T08:11:12Z</time>
      </trkpt>
      <trkpt lat="45.2736" lon="5.47589">
        <ele>253.9</ele>
        <time>2021-05-03T08:11:13Z</time>
      </trkpt>
      <trkpt lat="45.27356" lon="5.47582">
        <ele>253.9</ele>
        <time>2021-05-03T08:11:14Z</time>
      </trkpt>
      <trkpt lat="45.27353" lon="5.47575">
        <ele>254</ele>
        <time>2021-05-03T08:11:15Z</time>
      </trkpt>
      <trkpt lat="45.27351" lon="5.47567">
        <ele>254</ele>
        <time>2021-05-03T08:11:16Z</time>
      </trkpt>
      <trkpt lat="45.27348" lon="5.4756">
        <ele>254.1</ele>
        <time>2021-05-03T08:11:17Z</time>
      </trkpt>
      <trkpt lat="45.27346" lon="5.47553">
        <ele>254.1</ele>
        <time>2021-05-03T08:11:18Z</time>
      </trkpt>
      <trkpt lat="45.27344" lon="5.47546">
        <ele>254.1</ele>
        <time>2021-05-03T08:11:19Z</time>
      </trkpt>
      <trkpt lat="45.27341" lon="5.47539">
        <ele>254.2</ele>
        <time>2021-05-03T08:11:20Z</time>
      </trkpt>
      <trkpt lat="45.27338" lon="5.47532">
        <ele>254.2</ele>
        <time>2021-05-03T08:11:21Z</time>
      </trkpt>
      <trkpt lat="45.27335" lon="5.47524">
        <ele>254.3</ele>
        <time>2021-05-03T08:11:22Z</time>
      </trkpt>
      <trkpt lat="45.27332" lon="5.47517">
        <ele>254.3</ele>
        <time>2021-05-03T08:11:23Z</time>
      </trkpt>
      <trkpt lat="45.2733" lon="5.47509">
        <ele>254.4</ele>
        <time>2021-05-03T08:11:24Z</time>
      </trkpt>
      <trkpt lat="45.27327" lon="5.47502">
        <ele>254.4</ele>
        <time>2021-05-03T08:11:25Z</time>
      </trkpt>
      <trkpt lat="45.27324" lon="5.47495">
        <ele>254.5</ele>
        <time>2021-05-03T08:11:26Z</time>
      </trkpt>
      <trkpt lat="45.27322" lon="5.47488">
        <ele>254.5</ele>
        <time>2021-05-03T08:11:27Z</time>
      </trkpt>
      <trkpt lat="45.27319" lon="5.47481">
        <ele>254.6</ele>
        <time>2021-05-03T08:11:28Z</time>
      </trkpt>
      <trkpt lat="45.27317" lon="5.47474">
        <ele>254.6</ele>
        <time>2021-05-03T08:11:29Z</time>
      </trkpt>
      <trkpt lat="45.27315" lon="5.47466">
        <ele>254.7</ele>
        <time>2021-05-03T08:11:30Z</time>
      </trkpt>
      <trkpt lat="45.27313" lon="5.4746">
        <ele>254.8</ele>
        <time>2021-05-03T08:11:31Z</time>
      </trkpt>
      <trkpt lat="45.2731" lon="5.47453">
        <ele>254.8</ele>
        <time>2021-05-03T08:11:32Z</time>
      </trkpt>
      <trkpt lat="45.27307" lon="5.47447">
        <ele>254.9</ele>
        <time>2021-05-03T08:11:33Z</time>
      </trkpt>
      <trkpt lat="45.27305" lon="5.4744">
        <ele>255</ele>
        <time>2021-05-03T08:11:34Z</time>
      </trkpt>
      <trkpt lat="45.27302" lon="5.47434">
        <ele>255.1</ele>
        <time>2021-05-03T08:11:35Z</time>
      </trkpt>
      <trkpt lat="45.27298" lon="5.47427">
        <ele>255.2</ele>
        <time>2021-05-03T08:11:36Z</time>
      </trkpt>
      <trkpt lat="45.27294" lon="5.4742">
        <ele>255.2</ele>
        <time>2021-05-03T08:11:37Z</time>
      </trkpt>
      <trkpt lat="45.27291" lon="5.47414">
        <ele>255.3</ele>
        <time>2021-05-03T08:11:38Z</time>
      </trkpt>
      <trkpt lat="45.27288" lon="5.47407">
        <ele>255.3</ele>
        <time>2021-05-03T08:11:39Z</time>
      </trkpt>
      <trkpt lat="45.27285" lon="5.47401">
        <ele>255.4</ele>
        <time>2021-05-03T08:11:40Z</time>
      </trkpt>
      <trkpt lat="45.27283" lon="5.47395">
        <ele>255.4</ele>
        <time>2021-05-03T08:11:41Z</time>
      </trkpt>
      <trkpt lat="45.2728" lon="5.47388">
        <ele>255.5</ele>
        <time>2021-05-03T08:11:42Z</time>
      </trkpt>
      <trkpt lat="45.27277" lon="5.47382">
        <ele>255.5</ele>
        <time>2021-05-03T08:11:43Z</time>
      </trkpt>
      <trkpt lat="45.27275" lon="5.47375">
        <ele>255.6</ele>
        <time>2021-05-03T08:11:44Z</time>
      </trkpt>
      <trkpt lat="45.27272" lon="5.47369">
        <ele>255.6</ele>
        <time>2021-05-03T08:11:45Z</time>
      </trkpt>
      <trkpt lat="45.27269" lon="5.47362">
        <ele>255.7</ele>
        <time>2021-05-03T08:11:46Z</time>
      </trkpt>
      <trkpt lat="45.27266" lon="5.47355">
        <ele>255.7</ele>
        <time>2021-05-03T08:11:47Z</time>
      </trkpt>
      <trkpt lat="45.27263" lon="5.47347">
        <ele>255.8</ele>
        <time>2021-05-03T08:11:48Z</time>
      </trkpt>
      <trkpt lat="45.2726" lon="5.4734">
        <ele>255.8</ele>
        <time>2021-05-03T08:11:49Z</time>
      </trkpt>
      <trkpt lat="45.27256" lon="5.47333">
        <ele>255.9</ele>
        <time>2021-05-03T08:11:50Z</time>
      </trkpt>
      <trkpt lat="45.27253" lon="5.47327">
        <ele>255.9</ele>
        <time>2021-05-03T08:11:51Z</time>
      </trkpt>
      <trkpt lat="45.27249" lon="5.4732">
        <ele>256</ele>
        <time>2021-05-03T08:11:52Z</time>
      </trkpt>
      <trkpt lat="45.27247" lon="5.47314">
        <ele>256.1</ele>
        <time>2021-05-03T08:11:53Z</time>
      </trkpt>
      <trkpt lat="45.27243" lon="5.47308">
        <ele>256.1</ele>
        <time>2021-05-03T08:11:54Z</time>
      </trkpt>
      <trkpt lat="45.2724" lon="5.47302">
        <ele>256.2</ele>
        <time>2021-05-03T08:11:55Z</time>
      </trkpt>
      <trkpt lat="45.27237" lon="5.47295">
        <ele>256.3</ele>
        <time>2021-05-03T08:11:56Z</time>
      </trkpt>
      <trkpt lat="45.27233" lon="5.47289">
        <ele>256.4</ele>
        <time>2021-05-03T08:11:57Z</time>
      </trkpt>
      <trkpt lat="45.2723" lon="5.47282">
        <ele>256.4</ele>
        <time>2021-05-03T08:11:58Z</time>
      </trkpt>
      <trkpt lat="45.27227" lon="5.47275">
        <ele>256.5</ele>
        <time>2021-05-03T08:11:59Z</time>
      </trkpt>
      <trkpt lat="45.27223" lon="5.47269">
        <ele>256.6</ele>
        <time>2021-05-03T08:12:00Z</time>
      </trkpt>
      <trkpt lat="45.2722" lon="5.47263">
        <ele>256.7</ele>
        <time>2021-05-03T08:12:01Z</time>
      </trkpt>
      <trkpt lat="45.27217" lon="5.47256">
        <ele>256.7</ele>
        <time>2021-05-03T08:12:02Z</time>
      </trkpt>
      <trkpt lat="45.27214" lon="5.47249">
        <ele>256.8</ele>
        <time>2021-05-03T08:12:03Z</time>
      </trkpt>
      <trkpt lat="45.27211" lon="5.47242">
        <ele>256.9</ele>
        <time>2021-05-03T08:12:04Z</time>
      </trkpt>
      <trkpt lat="45.27207" lon="5.47236">
        <ele>257</ele>
        <time>2021-05-03T08:12:05Z</time>
      </trkpt>
      <trkpt lat="45.27204" lon="5.4723">
        <ele>257</ele>
        <time>2021-05-03T08:12:06Z</time>
      </trkpt>
      <trkpt lat="45.27202" lon="5.47223">
        <ele>257.1</ele>
        <time>2021-05-03T08:12:07Z</time>
      </trkpt>
      <trkpt lat="45.27199" lon="5.47217">
        <ele>257.1</ele>
        <time>2021-05-03T08:12:08Z</time>
      </trkpt>
      <trkpt lat="45.27196" lon="5.47211">
        <ele>257.2</ele>
        <time>2021-05-03T08:12:09Z</time>
      </trkpt>
      <trkpt lat="45.27194" lon="5.47203">
        <ele>257.2</ele>
        <time>2021-05-03T08:12:10Z</time>
      </trkpt>
      <trkpt lat="45.27192" lon="5.47197">
        <ele>257.3</ele>
        <time>2021-05-03T08:12:11Z</time>
      </trkpt>
      <trkpt lat="45.2719" lon="5.4719">
        <ele>257.3</ele>
        <time>2021-05-03T08:12:12Z</time>
      </trkpt>
      <trkpt lat="45.27188" lon="5.47182">
        <ele>257.3</ele>
        <time>2021-05-03T08:12:13Z</time>
      </trkpt>
      <trkpt lat="45.27186" lon="5.47175">
        <ele>257.4</ele>
        <time>2021-05-03T08:12:14Z</time>
      </trkpt>
      <trkpt lat="45.27185" lon="5.47168">
        <ele>257.4</ele>
        <time>2021-05-03T08:12:15Z</time>
      </trkpt>
      <trkpt lat="45.27184" lon="5.4716">
        <ele>257.5</ele>
        <time>2021-05-03T08:12:16Z</time>
      </trkpt>
      <trkpt lat="45.27183" lon="5.47153">
        <ele>257.5</ele>
        <time>2021-05-03T08:12:17Z</time>
      </trkpt>
      <trkpt lat="45.27182" lon="5.47146">
        <ele>257.6</ele>
        <time>2021-05-03T08:12:18Z</time>
      </trkpt>
      <trkpt lat="45.27181" lon="5.47139">
        <ele>257.7</ele>
        <time>2021-05-03T08:12:19Z</time>
      </trkpt>
      <trkpt lat="45.27179" lon="5.47131">
        <ele>257.8</ele>
        <time>2021-05-03T08:12:20Z</time>
      </trkpt>
      <trkpt lat="45.27179" lon="5.47125">
        <ele>257.9</ele>
        <time>2021-05-03T08:12:21Z</time>
      </trkpt>
      <trkpt lat="45.27178" lon="5.47117">
        <ele>258</ele>
        <time>2021-05-03T08:12:22Z</time>
      </trkpt>
      <trkpt lat="45.27178" lon="5.4711">
        <ele>258</ele>
        <time>2021-05-03T08:12:23Z</time>
      </trkpt>
      <trkpt lat="45.27179" lon="5.47103">
        <ele>258.1</ele>
        <time>2021-05-03T08:12:24Z</time>
      </trkpt>
      <trkpt lat="45.27179" lon="5.47096">
        <ele>258.2</ele>
        <time>2021-05-03T08:12:25Z</time>
      </trkpt>
      <trkpt lat="45.27179" lon="5.47088">
        <ele>258.3</ele>
        <time>2021-05-03T08:12:26Z</time>
      </trkpt>
      <trkpt lat="45.27179" lon="5.47081">
        <ele>258.4</ele>
        <time>2021-05-03T08:12:27Z</time>
      </trkpt>
      <trkpt lat="45.27179" lon="5.47074">
        <ele>258.5</ele>
        <time>2021-05-03T08:12:28Z</time>
      </trkpt>
      <trkpt lat="45.2718" lon="5.47066">
        <ele>258.6</ele>
        <time>2021-05-03T08:12:29Z</time>
      </trkpt>
      <trkpt lat="45.2718" lon="5.47058">
        <ele>258.7</ele>
        <time>2021-05-03T08:12:30Z</time>
      </trkpt>
      <trkpt lat="45.27181" lon="5.47051">
        <ele>258.8</ele>
        <time>2021-05-03T08:12:31Z</time>
      </trkpt>
      <trkpt lat="45.27181" lon="5.47044">
        <ele>259</ele>
        <time>2021-05-03T08:12:32Z</time>
      </trkpt>
      <trkpt lat="45.27182" lon="5.47036">
        <ele>259.1</ele>
        <time>2021-05-03T08:12:33Z</time>
      </trkpt>
      <trkpt lat="45.27182" lon="5.47029">
        <ele>259.3</ele>
        <time>2021-05-03T08:12:34Z</time>
      </trkpt>
      <trkpt lat="45.27182" lon="5.47022">
        <ele>259.4</ele>
        <time>2021-05-03T08:12:35Z</time>
      </trkpt>
      <trkpt lat="45.27182" lon="5.47015">
        <ele>259.6</ele>
        <time>2021-05-03T08:12:36Z</time>
      </trkpt>
      <trkpt lat="45.27182" lon="5.47009">
        <ele>259.8</ele>
        <time>2021-05-03T08:12:37Z</time>
      </trkpt>
      <trkpt lat="45.27183" lon="5.47005">
        <ele>259.9</ele>
        <time>2021-05-03T08:12:38Z</time>
      </trkpt>
      <trkpt lat="45.27183" lon="5.46998">
        <ele>260</ele>
        <time>2021-05-03T08:12:39Z</time>
      </trkpt>
      <trkpt lat="45.27183" lon="5.46992">
        <ele>260.2</ele>
        <time>2021-05-03T08:12:40Z</time>
      </trkpt>
      <trkpt lat="45.27183" lon="5.46986">
        <ele>260.2</ele>
        <time>2021-05-03T08:12:41Z</time>
      </trkpt>
      <trkpt lat="45.27182" lon="5.4698">
        <ele>260.2</ele>
        <time>2021-05-03T08:12:42Z</time>
      </trkpt>
      <trkpt lat="45.27181" lon="5.46974">
        <ele>260.2</ele>
        <time>2021-05-03T08:12:43Z</time>
      </trkpt>
      <trkpt lat="45.2718" lon="5.46968">
        <ele>260.2</ele>
        <time>2021-05-03T08:12:44Z</time>
      </trkpt>
      <trkpt lat="45.27178" lon="5.46971">
        <ele>260.3</ele>
        <time>2021-05-03T08:12:45Z</time>
      </trkpt>
      <trkpt lat="45.27175" lon="5.46957">
        <ele>260.5</ele>
        <time>2021-05-03T08:12:47Z</time>
      </trkpt>
      <trkpt lat="45.27173" lon="5.46949">
        <ele>260.7</ele>
        <time>2021-05-03T08:12:48Z</time>
      </trkpt>
      <trkpt lat="45.27168" lon="5.46936">
        <ele>261</ele>
        <time>2021-05-03T08:12:50Z</time>
      </trkpt>
      <trkpt lat="45.27165" lon="5.4693">
        <ele>261.1</ele>
        <time>2021-05-03T08:12:51Z</time>
      </trkpt>
      <trkpt lat="45.27159" lon="5.46918">
        <ele>261.5</ele>
        <time>2021-05-03T08:12:53Z</time>
      </trkpt>
      <trkpt lat="45.27152" lon="5.46909">
        <ele>261.7</ele>
        <time>2021-05-03T08:12:55Z</time>
      </trkpt>
      <trkpt lat="45.27148" lon="5.46906">
        <ele>261.9</ele>
        <time>2021-05-03T08:12:56Z</time>
      </trkpt>
      <trkpt lat="45.27142" lon="5.46902">
        <ele>262.1</ele>
        <time>2021-05-03T08:12:58Z</time>
      </trkpt>
      <trkpt lat="45.27137" lon="5.46899">
        <ele>262.3</ele>
        <time>2021-05-03T08:12:59Z</time>
      </trkpt>
      <trkpt lat="45.27132" lon="5.46897">
        <ele>262.4</ele>
        <time>2021-05-03T08:13:01Z</time>
      </trkpt>
      <trkpt lat="45.27125" lon="5.46895">
        <ele>262.6</ele>
        <time>2021-05-03T08:13:03Z</time>
      </trkpt>
      <trkpt lat="45.27118" lon="5.46893">
        <ele>262.9</ele>
        <time>2021-05-03T08:13:05Z</time>
      </trkpt>
      <trkpt lat="45.27114" lon="5.46892">
        <ele>263</ele>
        <time>2021-05-03T08:13:06Z</time>
      </trkpt>
      <trkpt lat="45.27108" lon="5.46891">
        <ele>263.2</ele>
        <time>2021-05-03T08:13:07Z</time>
      </trkpt>
      <trkpt lat="45.27101" lon="5.4689">
        <ele>263.5</ele>
        <time>2021-05-03T08:13:09Z</time>
      </trkpt>
      <trkpt lat="45.27095" lon="5.46889">
        <ele>263.8</ele>
        <time>2021-05-03T08:13:11Z</time>
      </trkpt>
      <trkpt lat="45.27091" lon="5.46888">
        <ele>263.9</ele>
        <time>2021-05-03T08:13:12Z</time>
      </trkpt>
      <trkpt lat="45.27084" lon="5.46884">
        <ele>264.2</ele>
        <time>2021-05-03T08:13:14Z</time>
      </trkpt>
      <trkpt lat="45.27078" lon="5.46883">
        <ele>264.4</ele>
        <time>2021-05-03T08:13:15Z</time>
      </trkpt>
      <trkpt lat="45.27073" lon="5.46883">
        <ele>264.6</ele>
        <time>2021-05-03T08:13:17Z</time>
      </trkpt>
      <trkpt lat="45.27069" lon="5.46882">
        <ele>264.8</ele>
        <time>2021-05-03T08:13:18Z</time>
      </trkpt>
      <trkpt lat="45.27062" lon="5.46881">
        <ele>265.1</ele>
        <time>2021-05-03T08:13:20Z</time>
      </trkpt>
      <trkpt lat="45.27057" lon="5.4688">
        <ele>265.3</ele>
        <time>2021-05-03T08:13:21Z</time>
      </trkpt>
      <trkpt lat="45.2705" lon="5.46878">
        <ele>265.6</ele>
        <time>2021-05-03T08:13:23Z</time>
      </trkpt>
      <trkpt lat="45.27047" lon="5.46877">
        <ele>265.8</ele>
        <time>2021-05-03T08:13:24Z</time>
      </trkpt>
      <trkpt lat="45.27043" lon="5.46876">
        <ele>265.9</ele>
        <time>2021-05-03T08:13:25Z</time>
      </trkpt>
      <trkpt lat="45.27034" lon="5.46874">
        <ele>266.3</ele>
        <time>2021-05-03T08:13:27Z</time>
      </trkpt>
      <trkpt lat="45.27025" lon="5.46873">
        <ele>266.7</ele>
        <time>2021-05-03T08:13:29Z</time>
      </trkpt>
      <trkpt lat="45.27019" lon="5.46872">
        <ele>266.9</ele>
        <time>2021-05-03T08:13:31Z</time>
      </trkpt>
      <trkpt lat="45.27015" lon="5.46871">
        <ele>267.1</ele>
        <time>2021-05-03T08:13:32Z</time>
      </trkpt>
      <trkpt lat="45.27011" lon="5.4687">
        <ele>267.2</ele>
        <time>2021-05-03T08:13:33Z</time>
      </trkpt>
      <trkpt lat="45.27013" lon="5.46875">
        <ele>267.4</ele>
        <time>2021-05-03T08:13:34Z</time>
      </trkpt>
      <trkpt lat="45.27005" lon="5.46871">
        <ele>267.8</ele>
        <time>2021-05-03T08:13:36Z</time>
      </trkpt>
      <trkpt lat="45.26997" lon="5.46867">
        <ele>268.2</ele>
        <time>2021-05-03T08:13:38Z</time>
      </trkpt>
      <trkpt lat="45.2699" lon="5.46861">
        <ele>268.6</ele>
        <time>2021-05-03T08:13:40Z</time>
      </trkpt>
      <trkpt lat="45.26983" lon="5.46855">
        <ele>268.9</ele>
        <time>2021-05-03T08:13:42Z</time>
      </trkpt>
      <trkpt lat="45.26979" lon="5.46852">
        <ele>269.1</ele>
        <time>2021-05-03T08:13:43Z</time>
      </trkpt>
      <trkpt lat="45.26973" lon="5.46847">
        <ele>269.4</ele>
        <time>2021-05-03T08:13:44Z</time>
      </trkpt>
      <trkpt lat="45.26969" lon="5.46844">
        <ele>269.6</ele>
        <time>2021-05-03T08:13:46Z</time>
      </trkpt>
      <trkpt lat="45.26965" lon="5.4684">
        <ele>269.8</ele>
        <time>2021-05-03T08:13:47Z</time>
      </trkpt>
      <trkpt lat="45.26961" lon="5.46836">
        <ele>270</ele>
        <time>2021-05-03T08:13:48Z</time>
      </trkpt>
      <trkpt lat="45.26957" lon="5.46831">
        <ele>270.3</ele>
        <time>2021-05-03T08:13:50Z</time>
      </trkpt>
      <trkpt lat="45.26953" lon="5.46827">
        <ele>270.5</ele>
        <time>2021-05-03T08:13:51Z</time>
      </trkpt>
      <trkpt lat="45.26948" lon="5.4682">
        <ele>270.8</ele>
        <time>2021-05-03T08:13:53Z</time>
      </trkpt>
      <trkpt lat="45.26945" lon="5.46813">
        <ele>271.1</ele>
        <time>2021-05-03T08:13:54Z</time>
      </trkpt>
      <trkpt lat="45.26941" lon="5.46808">
        <ele>271.3</ele>
        <time>2021-05-03T08:13:56Z</time>
      </trkpt>
      <trkpt lat="45.26935" lon="5.468">
        <ele>271.7</ele>
        <time>2021-05-03T08:13:58Z</time>
      </trkpt>
      <trkpt lat="45.26929" lon="5.46793">
        <ele>272</ele>
        <time>2021-05-03T08:14:00Z</time>
      </trkpt>
      <trkpt lat="45.26925" lon="5.46789">
        <ele>272.2</ele>
        <time>2021-05-03T08:14:01Z</time>
      </trkpt>
      <trkpt lat="45.26919" lon="5.46784">
        <ele>272.5</ele>
        <time>2021-05-03T08:14:03Z</time>
      </trkpt>
      <trkpt lat="45.26913" lon="5.4678">
        <ele>272.8</ele>
        <time>2021-05-03T08:14:05Z</time>
      </trkpt>
      <trkpt lat="45.26907" lon="5.46775">
        <ele>273.1</ele>
        <time>2021-05-03T08:14:07Z</time>
      </trkpt>
      <trkpt lat="45.269" lon="5.46771">
        <ele>273.4</ele>
        <time>2021-05-03T08:14:09Z</time>
      </trkpt>
      <trkpt lat="45.26892" lon="5.46767">
        <ele>273.7</ele>
        <time>2021-05-03T08:14:11Z</time>
      </trkpt>
      <trkpt lat="45.26884" lon="5.46764">
        <ele>274.1</ele>
        <time>2021-05-03T08:14:13Z</time>
      </trkpt>
      <trkpt lat="45.2688" lon="5.46764">
        <ele>274.2</ele>
        <time>2021-05-03T08:14:14Z</time>
      </trkpt>
      <trkpt lat="45.26875" lon="5.46762">
        <ele>274.4</ele>
        <time>2021-05-03T08:14:16Z</time>
      </trkpt>
      <trkpt lat="45.26871" lon="5.46761">
        <ele>274.6</ele>
        <time>2021-05-03T08:14:17Z</time>
      </trkpt>
      <trkpt lat="45.26866" lon="5.4676">
        <ele>274.8</ele>
        <time>2021-05-03T08:14:18Z</time>
      </trkpt>
      <trkpt lat="45.2686" lon="5.46759">
        <ele>275</ele>
        <time>2021-05-03T08:14:20Z</time>
      </trkpt>
      <trkpt lat="45.26854" lon="5.46759">
        <ele>275.2</ele>
        <time>2021-05-03T08:14:21Z</time>
      </trkpt>
      <trkpt lat="45.26849" lon="5.4676">
        <ele>275.4</ele>
        <time>2021-05-03T08:14:23Z</time>
      </trkpt>
      <trkpt lat="45.26846" lon="5.4676">
        <ele>275.6</ele>
        <time>2021-05-03T08:14:24Z</time>
      </trkpt>
      <trkpt lat="45.26841" lon="5.46759">
        <ele>275.8</ele>
        <time>2021-05-03T08:14:25Z</time>
      </trkpt>
      <trkpt lat="45.26832" lon="5.46759">
        <ele>276.1</ele>
        <time>2021-05-03T08:14:27Z</time>
      </trkpt>
      <trkpt lat="45.26825" lon="5.46758">
        <ele>276.4</ele>
        <time>2021-05-03T08:14:29Z</time>
      </trkpt>
      <trkpt lat="45.26821" lon="5.46758">
        <ele>276.6</ele>
        <time>2021-05-03T08:14:30Z</time>
      </trkpt>
      <trkpt lat="45.26816" lon="5.46757">
        <ele>276.8</ele>
        <time>2021-05-03T08:14:31Z</time>
      </trkpt>
      <trkpt lat="45.2681" lon="5.46755">
        <ele>277</ele>
        <time>2021-05-03T08:14:32Z</time>
      </trkpt>
      <trkpt lat="45.26806" lon="5.46755">
        <ele>277.1</ele>
        <time>2021-05-03T08:14:33Z</time>
      </trkpt>
      <trkpt lat="45.26801" lon="5.46755">
        <ele>277.3</ele>
        <time>2021-05-03T08:14:35Z</time>
      </trkpt>
      <trkpt lat="45.26797" lon="5.46754">
        <ele>277.4</ele>
        <time>2021-05-03T08:14:36Z</time>
      </trkpt>
      <trkpt lat="45.26791" lon="5.46753">
        <ele>277.7</ele>
        <time>2021-05-03T08:14:38Z</time>
      </trkpt>
      <trkpt lat="45.26787" lon="5.46752">
        <ele>277.8</ele>
        <time>2021-05-03T08:14:39Z</time>
      </trkpt>
      <trkpt lat="45.2678" lon="5.46751">
        <ele>278.1</ele>
        <time>2021-05-03T08:14:41Z</time>
      </trkpt>
      <trkpt lat="45.26771" lon="5.4675">
        <ele>278.4</ele>
        <time>2021-05-03T08:14:43Z</time>
      </trkpt>
      <trkpt lat="45.26766" lon="5.4675">
        <ele>278.6</ele>
        <time>2021-05-03T08:14:44Z</time>
      </trkpt>
      <trkpt lat="45.2676" lon="5.4675">
        <ele>278.8</ele>
        <time>2021-05-03T08:14:46Z</time>
      </trkpt>
      <trkpt lat="45.26757" lon="5.4675">
        <ele>278.9</ele>
        <time>2021-05-03T08:14:47Z</time>
      </trkpt>
      <trkpt lat="45.26752" lon="5.46749">
        <ele>279.1</ele>
        <time>2021-05-03T08:14:48Z</time>
      </trkpt>
      <trkpt lat="45.26744" lon="5.46748">
        <ele>279.3</ele>
        <time>2021-05-03T08:14:50Z</time>
      </trkpt>
      <trkpt lat="45.26738" lon="5.46745">
        <ele>279.6</ele>
        <time>2021-05-03T08:14:52Z</time>
      </trkpt>
      <trkpt lat="45.26734" lon="5.46743">
        <ele>279.7</ele>
        <time>2021-05-03T08:14:53Z</time>
      </trkpt>
      <trkpt lat="45.26729" lon="5.4674">
        <ele>279.9</ele>
        <time>2021-05-03T08:14:54Z</time>
      </trkpt>
      <trkpt lat="45.26722" lon="5.46735">
        <ele>280.2</ele>
        <time>2021-05-03T08:14:56Z</time>
      </trkpt>
      <trkpt lat="45.26717" lon="5.46732">
        <ele>280.5</ele>
        <time>2021-05-03T08:14:57Z</time>
      </trkpt>
      <trkpt lat="45.26714" lon="5.46729">
        <ele>280.6</ele>
        <time>2021-05-03T08:14:59Z</time>
      </trkpt>
      <trkpt lat="45.2671" lon="5.46726">
        <ele>280.8</ele>
        <time>2021-05-03T08:15:00Z</time>
      </trkpt>
      <trkpt lat="45.26703" lon="5.4672">
        <ele>281</ele>
        <time>2021-05-03T08:15:02Z</time>
      </trkpt>
      <trkpt lat="45.26697" lon="5.46714">
        <ele>281.1</ele>
        <time>2021-05-03T08:15:04Z</time>
      </trkpt>
      <trkpt lat="45.26694" lon="5.46709">
        <ele>281.2</ele>
        <time>2021-05-03T08:15:05Z</time>
      </trkpt>
      <trkpt lat="45.2669" lon="5.46703">
        <ele>281.3</ele>
        <time>2021-05-03T08:15:07Z</time>
      </trkpt>
      <trkpt lat="45.26687" lon="5.46698">
        <ele>281.4</ele>
        <time>2021-05-03T08:15:08Z</time>
      </trkpt>
      <trkpt lat="45.26682" lon="5.46691">
        <ele>281.6</ele>
        <time>2021-05-03T08:15:10Z</time>
      </trkpt>
      <trkpt lat="45.26678" lon="5.46684">
        <ele>281.8</ele>
        <time>2021-05-03T08:15:12Z</time>
      </trkpt>
      <trkpt lat="45.26675" lon="5.46679">
        <ele>281.9</ele>
        <time>2021-05-03T08:15:13Z</time>
      </trkpt>
      <trkpt lat="45.26672" lon="5.46675">
        <ele>282</ele>
        <time>2021-05-03T08:15:14Z</time>
      </trkpt>
      <trkpt lat="45.26666" lon="5.46667">
        <ele>282.2</ele>
        <time>2021-05-03T08:15:16Z</time>
      </trkpt>
      <trkpt lat="45.26661" lon="5.46659">
        <ele>282.4</ele>
        <time>2021-05-03T08:15:18Z</time>
      </trkpt>
      <trkpt lat="45.26658" lon="5.46654">
        <ele>282.6</ele>
        <time>2021-05-03T08:15:19Z</time>
      </trkpt>
      <trkpt lat="45.26652" lon="5.46644">
        <ele>282.8</ele>
        <time>2021-05-03T08:15:21Z</time>
      </trkpt>
      <trkpt lat="45.26648" lon="5.46635">
        <ele>283</ele>
        <time>2021-05-03T08:15:23Z</time>
      </trkpt>
      <trkpt lat="45.26645" lon="5.46631">
        <ele>283.1</ele>
        <time>2021-05-03T08:15:24Z</time>
      </trkpt>
      <trkpt lat="45.26643" lon="5.46626">
        <ele>283.2</ele>
        <time>2021-05-03T08:15:25Z</time>
      </trkpt>
      <trkpt lat="45.2664" lon="5.4662">
        <ele>283.3</ele>
        <time>2021-05-03T08:15:26Z</time>
      </trkpt>
      <trkpt lat="45.26636" lon="5.46611">
        <ele>283.4</ele>
        <time>2021-05-03T08:15:28Z</time>
      </trkpt>
      <trkpt lat="45.26634" lon="5.46605">
        <ele>283.5</ele>
        <time>2021-05-03T08:15:29Z</time>
      </trkpt>
      <trkpt lat="45.26631" lon="5.466">
        <ele>283.6</ele>
        <time>2021-05-03T08:15:30Z</time>
      </trkpt>
      <trkpt lat="45.26629" lon="5.46594">
        <ele>283.6</ele>
        <time>2021-05-03T08:15:31Z</time>
      </trkpt>
      <trkpt lat="45.26628" lon="5.4659">
        <ele>283.6</ele>
        <time>2021-05-03T08:15:32Z</time>
      </trkpt>
      <trkpt lat="45.26626" lon="5.46584">
        <ele>283.7</ele>
        <time>2021-05-03T08:15:33Z</time>
      </trkpt>
      <trkpt lat="45.26624" lon="5.46572">
        <ele>283.8</ele>
        <time>2021-05-03T08:15:35Z</time>
      </trkpt>
      <trkpt lat="45.26623" lon="5.46557">
        <ele>283.9</ele>
        <time>2021-05-03T08:15:37Z</time>
      </trkpt>
      <trkpt lat="45.26621" lon="5.4655">
        <ele>284</ele>
        <time>2021-05-03T08:15:38Z</time>
      </trkpt>
      <trkpt lat="45.2662" lon="5.46544">
        <ele>284.1</ele>
        <time>2021-05-03T08:15:39Z</time>
      </trkpt>
      <trkpt lat="45.26618" lon="5.46537">
        <ele>284.1</ele>
        <time>2021-05-03T08:15:40Z</time>
      </trkpt>
      <trkpt lat="45.26617" lon="5.4653">
        <ele>284.2</ele>
        <time>2021-05-03T08:15:41Z</time>
      </trkpt>
      <trkpt lat="45.26615" lon="5.46523">
        <ele>284.2</ele>
        <time>2021-05-03T08:15:42Z</time>
      </trkpt>
      <trkpt lat="45.26614" lon="5.46516">
        <ele>284.3</ele>
        <time>2021-05-03T08:15:43Z</time>
      </trkpt>
      <trkpt lat="45.26614" lon="5.46509">
        <ele>284.3</ele>
        <time>2021-05-03T08:15:44Z</time>
      </trkpt>
      <trkpt lat="45.26613" lon="5.46502">
        <ele>284.3</ele>
        <time>2021-05-03T08:15:45Z</time>
      </trkpt>
      <trkpt lat="45.26612" lon="5.46495">
        <ele>284.3</ele>
        <time>2021-05-03T08:15:46Z</time>
      </trkpt>
      <trkpt lat="45.2661" lon="5.46488">
        <ele>284.3</ele>
        <time>2021-05-03T08:15:47Z</time>
      </trkpt>
      <trkpt lat="45.26608" lon="5.46481">
        <ele>284.4</ele>
        <time>2021-05-03T08:15:48Z</time>
      </trkpt>
      <trkpt lat="45.26608" lon="5.46474">
        <ele>284.4</ele>
        <time>2021-05-03T08:15:49Z</time>
      </trkpt>
      <trkpt lat="45.26607" lon="5.46466">
        <ele>284.4</ele>
        <time>2021-05-03T08:15:50Z</time>
      </trkpt>
      <trkpt lat="45.26606" lon="5.46459">
        <ele>284.4</ele>
        <time>2021-05-03T08:15:51Z</time>
      </trkpt>
      <trkpt lat="45.26605" lon="5.46452">
        <ele>284.5</ele>
        <time>2021-05-03T08:15:52Z</time>
      </trkpt>
      <trkpt lat="45.26603" lon="5.46446">
        <ele>284.5</ele>
        <time>2021-05-03T08:15:53Z</time>
      </trkpt>
      <trkpt lat="45.26601" lon="5.46439">
        <ele>284.6</ele>
        <time>2021-05-03T08:15:54Z</time>
      </trkpt>
      <trkpt lat="45.26599" lon="5.46433">
        <ele>284.6</ele>
        <time>2021-05-03T08:15:55Z</time>
      </trkpt>
      <trkpt lat="45.26597" lon="5.46425">
        <ele>284.7</ele>
        <time>2021-05-03T08:15:56Z</time>
      </trkpt>
      <trkpt lat="45.26596" lon="5.46418">
        <ele>284.7</ele>
        <time>2021-05-03T08:15:57Z</time>
      </trkpt>
      <trkpt lat="45.26595" lon="5.4641">
        <ele>284.8</ele>
        <time>2021-05-03T08:15:58Z</time>
      </trkpt>
      <trkpt lat="45.26594" lon="5.46403">
        <ele>284.9</ele>
        <time>2021-05-03T08:15:59Z</time>
      </trkpt>
      <trkpt lat="45.26592" lon="5.46396">
        <ele>284.9</ele>
        <time>2021-05-03T08:16:00Z</time>
      </trkpt>
      <trkpt lat="45.26591" lon="5.46389">
        <ele>285</ele>
        <time>2021-05-03T08:16:01Z</time>
      </trkpt>
      <trkpt lat="45.2659" lon="5.46382">
        <ele>285</ele>
        <time>2021-05-03T08:16:02Z</time>
      </trkpt>
      <trkpt lat="45.2659" lon="5.46375">
        <ele>285.1</ele>
        <time>2021-05-03T08:16:03Z</time>
      </trkpt>
      <trkpt lat="45.26589" lon="5.46367">
        <ele>285.1</ele>
        <time>2021-05-03T08:16:04Z</time>
      </trkpt>
      <trkpt lat="45.26588" lon="5.4636">
        <ele>285.2</ele>
        <time>2021-05-03T08:16:05Z</time>
      </trkpt>
      <trkpt lat="45.26588" lon="5.46352">
        <ele>285.2</ele>
        <time>2021-05-03T08:16:06Z</time>
      </trkpt>
      <trkpt lat="45.26587" lon="5.46344">
        <ele>285.2</ele>
        <time>2021-05-03T08:16:07Z</time>
      </trkpt>
      <trkpt lat="45.26585" lon="5.46336">
        <ele>285.2</ele>
        <time>2021-05-03T08:16:08Z</time>
      </trkpt>
      <trkpt lat="45.26583" lon="5.46329">
        <ele>285.3</ele>
        <time>2021-05-03T08:16:09Z</time>
      </trkpt>
      <trkpt lat="45.26582" lon="5.46321">
        <ele>285.3</ele>
        <time>2021-05-03T08:16:10Z</time>
      </trkpt>
      <trkpt lat="45.26581" lon="5.46313">
        <ele>285.3</ele>
        <time>2021-05-03T08:16:11Z</time>
      </trkpt>
      <trkpt lat="45.26579" lon="5.46305">
        <ele>285.3</ele>
        <time>2021-05-03T08:16:12Z</time>
      </trkpt>
      <trkpt lat="45.26577" lon="5.46297">
        <ele>285.3</ele>
        <time>2021-05-03T08:16:13Z</time>
      </trkpt>
      <trkpt lat="45.26576" lon="5.4629">
        <ele>285.3</ele>
        <time>2021-05-03T08:16:14Z</time>
      </trkpt>
      <trkpt lat="45.26575" lon="5.46282">
        <ele>285.2</ele>
        <time>2021-05-03T08:16:15Z</time>
      </trkpt>
      <trkpt lat="45.26574" lon="5.46274">
        <ele>285.2</ele>
        <time>2021-05-03T08:16:16Z</time>
      </trkpt>
      <trkpt lat="45.26572" lon="5.46267">
        <ele>285.2</ele>
        <time>2021-05-03T08:16:17Z</time>
      </trkpt>
      <trkpt lat="45.2657" lon="5.46259">
        <ele>285.2</ele>
        <time>2021-05-03T08:16:18Z</time>
      </trkpt>
      <trkpt lat="45.26569" lon="5.46252">
        <ele>285.2</ele>
        <time>2021-05-03T08:16:19Z</time>
      </trkpt>
      <trkpt lat="45.26567" lon="5.46244">
        <ele>285.2</ele>
        <time>2021-05-03T08:16:20Z</time>
      </trkpt>
      <trkpt lat="45.26564" lon="5.46237">
        <ele>285.2</ele>
        <time>2021-05-03T08:16:21Z</time>
      </trkpt>
      <trkpt lat="45.26562" lon="5.46229">
        <ele>285.2</ele>
        <time>2021-05-03T08:16:22Z</time>
      </trkpt>
      <trkpt lat="45.2656" lon="5.46222">
        <ele>285.2</ele>
        <time>2021-05-03T08:16:23Z</time>
      </trkpt>
      <trkpt lat="45.26558" lon="5.46215">
        <ele>285.3</ele>
        <time>2021-05-03T08:16:24Z</time>
      </trkpt>
      <trkpt lat="45.26555" lon="5.46207">
        <ele>285.3</ele>
        <time>2021-05-03T08:16:25Z</time>
      </trkpt>
      <trkpt lat="45.26553" lon="5.462">
        <ele>285.3</ele>
        <time>2021-05-03T08:16:26Z</time>
      </trkpt>
      <trkpt lat="45.26552" lon="5.46193">
        <ele>285.3</ele>
        <time>2021-05-03T08:16:27Z</time>
      </trkpt>
      <trkpt lat="45.26549" lon="5.46187">
        <ele>285.3</ele>
        <time>2021-05-03T08:16:28Z</time>
      </trkpt>
      <trkpt lat="45.26547" lon="5.4618">
        <ele>285.3</ele>
        <time>2021-05-03T08:16:29Z</time>
      </trkpt>
      <trkpt lat="45.26544" lon="5.46173">
        <ele>285.3</ele>
        <time>2021-05-03T08:16:30Z</time>
      </trkpt>
      <trkpt lat="45.26542" lon="5.46166">
        <ele>285.4</ele>
        <time>2021-05-03T08:16:31Z</time>
      </trkpt>
      <trkpt lat="45.26539" lon="5.46159">
        <ele>285.4</ele>
        <time>2021-05-03T08:16:32Z</time>
      </trkpt>
      <trkpt lat="45.26537" lon="5.46153">
        <ele>285.4</ele>
        <time>2021-05-03T08:16:33Z</time>
      </trkpt>
      <trkpt lat="45.26534" lon="5.46146">
        <ele>285.4</ele>
        <time>2021-05-03T08:16:34Z</time>
      </trkpt>
      <trkpt lat="45.26531" lon="5.46139">
        <ele>285.4</ele>
        <time>2021-05-03T08:16:35Z</time>
      </trkpt>
      <trkpt lat="45.26529" lon="5.46133">
        <ele>285.4</ele>
        <time>2021-05-03T08:16:36Z</time>
      </trkpt>
      <trkpt lat="45.26526" lon="5.46126">
        <ele>285.4</ele>
        <time>2021-05-03T08:16:37Z</time>
      </trkpt>
      <trkpt lat="45.26523" lon="5.4612">
        <ele>285.4</ele>
        <time>2021-05-03T08:16:38Z</time>
      </trkpt>
      <trkpt lat="45.26521" lon="5.46113">
        <ele>285.5</ele>
        <time>2021-05-03T08:16:39Z</time>
      </trkpt>
      <trkpt lat="45.26517" lon="5.46107">
        <ele>285.5</ele>
        <time>2021-05-03T08:16:40Z</time>
      </trkpt>
      <trkpt lat="45.26514" lon="5.46101">
        <ele>285.6</ele>
        <time>2021-05-03T08:16:41Z</time>
      </trkpt>
      <trkpt lat="45.26511" lon="5.46095">
        <ele>285.6</ele>
        <time>2021-05-03T08:16:42Z</time>
      </trkpt>
      <trkpt lat="45.26508" lon="5.46089">
        <ele>285.6</ele>
        <time>2021-05-03T08:16:43Z</time>
      </trkpt>
      <trkpt lat="45.26505" lon="5.46084">
        <ele>285.7</ele>
        <time>2021-05-03T08:16:44Z</time>
      </trkpt>
      <trkpt lat="45.26502" lon="5.46078">
        <ele>285.7</ele>
        <time>2021-05-03T08:16:45Z</time>
      </trkpt>
      <trkpt lat="45.26499" lon="5.46073">
        <ele>285.8</ele>
        <time>2021-05-03T08:16:46Z</time>
      </trkpt>
      <trkpt lat="45.26496" lon="5.46067">
        <ele>285.8</ele>
        <time>2021-05-03T08:16:47Z</time>
      </trkpt>
      <trkpt lat="45.26492" lon="5.46062">
        <ele>285.9</ele>
        <time>2021-05-03T08:16:48Z</time>
      </trkpt>
      <trkpt lat="45.26488" lon="5.46056">
        <ele>286</ele>
        <time>2021-05-03T08:16:49Z</time>
      </trkpt>
      <trkpt lat="45.26484" lon="5.46051">
        <ele>286.1</ele>
        <time>2021-05-03T08:16:50Z</time>
      </trkpt>
      <trkpt lat="45.2648" lon="5.46046">
        <ele>286.1</ele>
        <time>2021-05-03T08:16:51Z</time>
      </trkpt>
      <trkpt lat="45.26476" lon="5.4604">
        <ele>286.2</ele>
        <time>2021-05-03T08:16:52Z</time>
      </trkpt>
      <trkpt lat="45.26473" lon="5.46035">
        <ele>286.2</ele>
        <time>2021-05-03T08:16:53Z</time>
      </trkpt>
      <trkpt lat="45.26469" lon="5.46029">
        <ele>286.3</ele>
        <time>2021-05-03T08:16:54Z</time>
      </trkpt>
      <trkpt lat="45.26465" lon="5.46023">
        <ele>286.3</ele>
        <time>2021-05-03T08:16:55Z</time>
      </trkpt>
      <trkpt lat="45.26461" lon="5.46018">
        <ele>286.4</ele>
        <time>2021-05-03T08:16:56Z</time>
      </trkpt>
      <trkpt lat="45.26457" lon="5.46013">
        <ele>286.4</ele>
        <time>2021-05-03T08:16:57Z</time>
      </trkpt>
      <trkpt lat="45.26453" lon="5.46007">
        <ele>286.5</ele>
        <time>2021-05-03T08:16:58Z</time>
      </trkpt>
      <trkpt lat="45.26449" lon="5.46003">
        <ele>286.6</ele>
        <time>2021-05-03T08:16:59Z</time>
      </trkpt>
      <trkpt lat="45.26446" lon="5.45998">
        <ele>286.6</ele>
        <time>2021-05-03T08:17:00Z</time>
      </trkpt>
      <trkpt lat="45.26441" lon="5.45993">
        <ele>286.7</ele>
        <time>2021-05-03T08:17:01Z</time>
      </trkpt>
      <trkpt lat="45.26437" lon="5.45989">
        <ele>286.7</ele>
        <time>2021-05-03T08:17:02Z</time>
      </trkpt>
      <trkpt lat="45.26433" lon="5.45985">
        <ele>286.7</ele>
        <time>2021-05-03T08:17:03Z</time>
      </trkpt>
      <trkpt lat="45.26429" lon="5.4598">
        <ele>286.8</ele>
        <time>2021-05-03T08:17:04Z</time>
      </trkpt>
      <trkpt lat="45.26424" lon="5.45976">
        <ele>286.8</ele>
        <time>2021-05-03T08:17:05Z</time>
      </trkpt>
      <trkpt lat="45.2642" lon="5.45972">
        <ele>286.9</ele>
        <time>2021-05-03T08:17:06Z</time>
      </trkpt>
      <trkpt lat="45.26416" lon="5.45968">
        <ele>286.9</ele>
        <time>2021-05-03T08:17:07Z</time>
      </trkpt>
      <trkpt lat="45.26411" lon="5.45964">
        <ele>287</ele>
        <time>2021-05-03T08:17:08Z</time>
      </trkpt>
      <trkpt lat="45.26406" lon="5.4596">
        <ele>287</ele>
        <time>2021-05-03T08:17:09Z</time>
      </trkpt>
      <trkpt lat="45.26402" lon="5.45956">
        <ele>287.1</ele>
        <time>2021-05-03T08:17:10Z</time>
      </trkpt>
      <trkpt lat="45.26397" lon="5.45952">
        <ele>287.2</ele>
        <time>2021-05-03T08:17:11Z</time>
      </trkpt>
      <trkpt lat="45.26392" lon="5.45948">
        <ele>287.2</ele>
        <time>2021-05-03T08:17:12Z</time>
      </trkpt>
      <trkpt lat="45.26387" lon="5.45944">
        <ele>287.2</ele>
        <time>2021-05-03T08:17:13Z</time>
      </trkpt>
      <trkpt lat="45.26383" lon="5.45941">
        <ele>287.3</ele>
        <time>2021-05-03T08:17:14Z</time>
      </trkpt>
      <trkpt lat="45.26378" lon="5.45937">
        <ele>287.3</ele>
        <time>2021-05-03T08:17:15Z</time>
      </trkpt>
      <trkpt lat="45.26373" lon="5.45934">
        <ele>287.4</ele>
        <time>2021-05-03T08:17:16Z</time>
      </trkpt>
      <trkpt lat="45.26368" lon="5.45931">
        <ele>287.4</ele>
        <time>2021-05-03T08:17:17Z</time>
      </trkpt>
      <trkpt lat="45.26363" lon="5.45927">
        <ele>287.5</ele>
        <time>2021-05-03T08:17:18Z</time>
      </trkpt>
      <trkpt lat="45.26358" lon="5.45924">
        <ele>287.5</ele>
        <time>2021-05-03T08:17:19Z</time>
      </trkpt>
      <trkpt lat="45.26353" lon="5.45922">
        <ele>287.6</ele>
        <time>2021-05-03T08:17:20Z</time>
      </trkpt>
      <trkpt lat="45.26348" lon="5.45919">
        <ele>287.6</ele>
        <time>2021-05-03T08:17:21Z</time>
      </trkpt>
      <trkpt lat="45.26343" lon="5.45916">
        <ele>287.6</ele>
        <time>2021-05-03T08:17:22Z</time>
      </trkpt>
      <trkpt lat="45.26337" lon="5.45913">
        <ele>287.6</ele>
        <time>2021-05-03T08:17:23Z</time>
      </trkpt>
      <trkpt lat="45.26331" lon="5.45911">
        <ele>287.6</ele>
        <time>2021-05-03T08:17:24Z</time>
      </trkpt>
      <trkpt lat="45.26326" lon="5.45908">
        <ele>287.6</ele>
        <time>2021-05-03T08:17:25Z</time>
      </trkpt>
      <trkpt lat="45.26321" lon="5.45906">
        <ele>287.7</ele>
        <time>2021-05-03T08:17:26Z</time>
      </trkpt>
      <trkpt lat="45.26316" lon="5.45903">
        <ele>287.7</ele>
        <time>2021-05-03T08:17:27Z</time>
      </trkpt>
      <trkpt lat="45.2631" lon="5.45901">
        <ele>287.7</ele>
        <time>2021-05-03T08:17:28Z</time>
      </trkpt>
      <trkpt lat="45.26305" lon="5.45899">
        <ele>287.7</ele>
        <time>2021-05-03T08:17:29Z</time>
      </trkpt>
      <trkpt lat="45.26299" lon="5.45897">
        <ele>287.7</ele>
        <time>2021-05-03T08:17:30Z</time>
      </trkpt>
      <trkpt lat="45.26294" lon="5.45895">
        <ele>287.7</ele>
        <time>2021-05-03T08:17:31Z</time>
      </trkpt>
      <trkpt lat="45.26288" lon="5.45893">
        <ele>287.7</ele>
        <time>2021-05-03T08:17:32Z</time>
      </trkpt>
      <trkpt lat="45.26283" lon="5.45891">
        <ele>287.6</ele>
        <time>2021-05-03T08:17:33Z</time>
      </trkpt>
      <trkpt lat="45.26277" lon="5.45889">
        <ele>287.6</ele>
        <time>2021-05-03T08:17:34Z</time>
      </trkpt>
      <trkpt lat="45.26272" lon="5.45886">
        <ele>287.5</ele>
        <time>2021-05-03T08:17:35Z</time>
      </trkpt>
      <trkpt lat="45.26266" lon="5.45884">
        <ele>287.4</ele>
        <time>2021-05-03T08:17:36Z</time>
      </trkpt>
      <trkpt lat="45.2626" lon="5.45881">
        <ele>287.4</ele>
        <time>2021-05-03T08:17:37Z</time>
      </trkpt>
      <trkpt lat="45.26255" lon="5.45879">
        <ele>287.3</ele>
        <time>2021-05-03T08:17:38Z</time>
      </trkpt>
      <trkpt lat="45.26249" lon="5.45877">
        <ele>287.2</ele>
        <time>2021-05-03T08:17:39Z</time>
      </trkpt>
      <trkpt lat="45.26243" lon="5.45875">
        <ele>287.2</ele>
        <time>2021-05-03T08:17:40Z</time>
      </trkpt>
      <trkpt lat="45.26237" lon="5.45873">
        <ele>287.1</ele>
        <time>2021-05-03T08:17:41Z</time>
      </trkpt>
      <trkpt lat="45.26232" lon="5.45872">
        <ele>287.1</ele>
        <time>2021-05-03T08:17:42Z</time>
      </trkpt>
      <trkpt lat="45.26227" lon="5.4587">
        <ele>287</ele>
        <time>2021-05-03T08:17:43Z</time>
      </trkpt>
      <trkpt lat="45.26221" lon="5.45868">
        <ele>287</ele>
        <time>2021-05-03T08:17:44Z</time>
      </trkpt>
      <trkpt lat="45.26215" lon="5.45866">
        <ele>286.9</ele>
        <time>2021-05-03T08:17:45Z</time>
      </trkpt>
      <trkpt lat="45.26209" lon="5.45864">
        <ele>286.9</ele>
        <time>2021-05-03T08:17:46Z</time>
      </trkpt>
      <trkpt lat="45.26203" lon="5.45862">
        <ele>286.9</ele>
        <time>2021-05-03T08:17:47Z</time>
      </trkpt>
      <trkpt lat="45.26197" lon="5.4586">
        <ele>286.9</ele>
        <time>2021-05-03T08:17:48Z</time>
      </trkpt>
      <trkpt lat="45.26191" lon="5.45859">
        <ele>286.9</ele>
        <time>2021-05-03T08:17:49Z</time>
      </trkpt>
      <trkpt lat="45.26185" lon="5.45857">
        <ele>286.9</ele>
        <time>2021-05-03T08:17:50Z</time>
      </trkpt>
      <trkpt lat="45.26179" lon="5.45854">
        <ele>286.9</ele>
        <time>2021-05-03T08:17:51Z</time>
      </trkpt>
      <trkpt lat="45.26174" lon="5.45852">
        <ele>286.9</ele>
        <time>2021-05-03T08:17:52Z</time>
      </trkpt>
      <trkpt lat="45.26168" lon="5.4585">
        <ele>286.9</ele>
        <time>2021-05-03T08:17:53Z</time>
      </trkpt>
      <trkpt lat="45.26162" lon="5.45848">
        <ele>286.9</ele>
        <time>2021-05-03T08:17:54Z</time>
      </trkpt>
      <trkpt lat="45.26156" lon="5.45846">
        <ele>286.9</ele>
        <time>2021-05-03T08:17:55Z</time>
      </trkpt>
      <trkpt lat="45.2615" lon="5.45844">
        <ele>286.9</ele>
        <time>2021-05-03T08:17:56Z</time>
      </trkpt>
      <trkpt lat="45.26144" lon="5.45842">
        <ele>286.9</ele>
        <time>2021-05-03T08:17:57Z</time>
      </trkpt>
      <trkpt lat="45.26138" lon="5.45841">
        <ele>286.9</ele>
        <time>2021-05-03T08:17:58Z</time>
      </trkpt>
      <trkpt lat="45.26132" lon="5.45838">
        <ele>286.8</ele>
        <time>2021-05-03T08:17:59Z</time>
      </trkpt>
      <trkpt lat="45.26126" lon="5.45837">
        <ele>286.8</ele>
        <time>2021-05-03T08:18:00Z</time>
      </trkpt>
      <trkpt lat="45.2612" lon="5.45835">
        <ele>286.8</ele>
        <time>2021-05-03T08:18:01Z</time>
      </trkpt>
      <trkpt lat="45.26114" lon="5.45833">
        <ele>286.8</ele>
        <time>2021-05-03T08:18:02Z</time>
      </trkpt>
      <trkpt lat="45.26108" lon="5.45831">
        <ele>286.8</ele>
        <time>2021-05-03T08:18:03Z</time>
      </trkpt>
      <trkpt lat="45.26101" lon="5.45829">
        <ele>286.7</ele>
        <time>2021-05-03T08:18:04Z</time>
      </trkpt>
      <trkpt lat="45.26095" lon="5.45827">
        <ele>286.7</ele>
        <time>2021-05-03T08:18:05Z</time>
      </trkpt>
      <trkpt lat="45.26089" lon="5.45825">
        <ele>286.7</ele>
        <time>2021-05-03T08:18:06Z</time>
      </trkpt>
      <trkpt lat="45.26083" lon="5.45823">
        <ele>286.6</ele>
        <time>2021-05-03T08:18:07Z</time>
      </trkpt>
      <trkpt lat="45.26077" lon="5.45821">
        <ele>286.6</ele>
        <time>2021-05-03T08:18:08Z</time>
      </trkpt>
      <trkpt lat="45.26071" lon="5.45819">
        <ele>286.6</ele>
        <time>2021-05-03T08:18:09Z</time>
      </trkpt>
      <trkpt lat="45.26065" lon="5.45817">
        <ele>286.6</ele>
        <time>2021-05-03T08:18:10Z</time>
      </trkpt>
      <trkpt lat="45.26059" lon="5.45814">
        <ele>286.5</ele>
        <time>2021-05-03T08:18:11Z</time>
      </trkpt>
      <trkpt lat="45.26053" lon="5.45812">
        <ele>286.5</ele>
        <time>2021-05-03T08:18:12Z</time>
      </trkpt>
      <trkpt lat="45.26047" lon="5.45809">
        <ele>286.5</ele>
        <time>2021-05-03T08:18:13Z</time>
      </trkpt>
      <trkpt lat="45.2604" lon="5.45807">
        <ele>286.5</ele>
        <time>2021-05-03T08:18:14Z</time>
      </trkpt>
      <trkpt lat="45.26034" lon="5.45805">
        <ele>286.4</ele>
        <time>2021-05-03T08:18:15Z</time>
      </trkpt>
      <trkpt lat="45.26028" lon="5.45802">
        <ele>286.4</ele>
        <time>2021-05-03T08:18:16Z</time>
      </trkpt>
      <trkpt lat="45.26022" lon="5.458">
        <ele>286.3</ele>
        <time>2021-05-03T08:18:17Z</time>
      </trkpt>
      <trkpt lat="45.26009" lon="5.45796">
        <ele>286.2</ele>
        <time>2021-05-03T08:18:19Z</time>
      </trkpt>
      <trkpt lat="45.26003" lon="5.45794">
        <ele>286.2</ele>
        <time>2021-05-03T08:18:20Z</time>
      </trkpt>
      <trkpt lat="45.25997" lon="5.45792">
        <ele>286.1</ele>
        <time>2021-05-03T08:18:21Z</time>
      </trkpt>
      <trkpt lat="45.2599" lon="5.4579">
        <ele>286</ele>
        <time>2021-05-03T08:18:22Z</time>
      </trkpt>
      <trkpt lat="45.25984" lon="5.45787">
        <ele>286</ele>
        <time>2021-05-03T08:18:23Z</time>
      </trkpt>
      <trkpt lat="45.25978" lon="5.45785">
        <ele>285.9</ele>
        <time>2021-05-03T08:18:24Z</time>
      </trkpt>
      <trkpt lat="45.25971" lon="5.45783">
        <ele>285.8</ele>
        <time>2021-05-03T08:18:25Z</time>
      </trkpt>
      <trkpt lat="45.25965" lon="5.45781">
        <ele>285.7</ele>
        <time>2021-05-03T08:18:26Z</time>
      </trkpt>
      <trkpt lat="45.25958" lon="5.4578">
        <ele>285.7</ele>
        <time>2021-05-03T08:18:27Z</time>
      </trkpt>
      <trkpt lat="45.25952" lon="5.45777">
        <ele>285.6</ele>
        <time>2021-05-03T08:18:28Z</time>
      </trkpt>
      <trkpt lat="45.25946" lon="5.45774">
        <ele>285.5</ele>
        <time>2021-05-03T08:18:29Z</time>
      </trkpt>
      <trkpt lat="45.25939" lon="5.45772">
        <ele>285.4</ele>
        <time>2021-05-03T08:18:30Z</time>
      </trkpt>
      <trkpt lat="45.25933" lon="5.45769">
        <ele>285.4</ele>
        <time>2021-05-03T08:18:31Z</time>
      </trkpt>
      <trkpt lat="45.25927" lon="5.45767">
        <ele>285.3</ele>
        <time>2021-05-03T08:18:32Z</time>
      </trkpt>
      <trkpt lat="45.2592" lon="5.45765">
        <ele>285.3</ele>
        <time>2021-05-03T08:18:33Z</time>
      </trkpt>
      <trkpt lat="45.25914" lon="5.45763">
        <ele>285.2</ele>
        <time>2021-05-03T08:18:34Z</time>
      </trkpt>
      <trkpt lat="45.25907" lon="5.45761">
        <ele>285.2</ele>
        <time>2021-05-03T08:18:35Z</time>
      </trkpt>
      <trkpt lat="45.259" lon="5.45759">
        <ele>285.1</ele>
        <time>2021-05-03T08:18:36Z</time>
      </trkpt>
      <trkpt lat="45.25894" lon="5.45757">
        <ele>285.1</ele>
        <time>2021-05-03T08:18:37Z</time>
      </trkpt>
      <trkpt lat="45.25887" lon="5.45754">
        <ele>285.1</ele>
        <time>2021-05-03T08:18:38Z</time>
      </trkpt>
      <trkpt lat="45.2588" lon="5.45752">
        <ele>285</ele>
        <time>2021-05-03T08:18:39Z</time>
      </trkpt>
      <trkpt lat="45.25874" lon="5.4575">
        <ele>285</ele>
        <time>2021-05-03T08:18:40Z</time>
      </trkpt>
      <trkpt lat="45.25867" lon="5.45747">
        <ele>284.9</ele>
        <time>2021-05-03T08:18:41Z</time>
      </trkpt>
      <trkpt lat="45.25861" lon="5.45745">
        <ele>284.9</ele>
        <time>2021-05-03T08:18:42Z</time>
      </trkpt>
      <trkpt lat="45.25854" lon="5.45743">
        <ele>284.8</ele>
        <time>2021-05-03T08:18:43Z</time>
      </trkpt>
      <trkpt lat="45.25848" lon="5.45742">
        <ele>284.7</ele>
        <time>2021-05-03T08:18:44Z</time>
      </trkpt>
      <trkpt lat="45.25841" lon="5.45739">
        <ele>284.6</ele>
        <time>2021-05-03T08:18:45Z</time>
      </trkpt>
      <trkpt lat="45.25835" lon="5.45737">
        <ele>284.5</ele>
        <time>2021-05-03T08:18:46Z</time>
      </trkpt>
      <trkpt lat="45.25828" lon="5.45735">
        <ele>284.5</ele>
        <time>2021-05-03T08:18:47Z</time>
      </trkpt>
      <trkpt lat="45.25821" lon="5.45733">
        <ele>284.4</ele>
        <time>2021-05-03T08:18:48Z</time>
      </trkpt>
      <trkpt lat="45.25814" lon="5.45731">
        <ele>284.3</ele>
        <time>2021-05-03T08:18:49Z</time>
      </trkpt>
      <trkpt lat="45.25808" lon="5.45729">
        <ele>284.3</ele>
        <time>2021-05-03T08:18:50Z</time>
      </trkpt>
      <trkpt lat="45.25801" lon="5.45727">
        <ele>284.2</ele>
        <time>2021-05-03T08:18:51Z</time>
      </trkpt>
      <trkpt lat="45.25795" lon="5.45726">
        <ele>284.1</ele>
        <time>2021-05-03T08:18:52Z</time>
      </trkpt>
      <trkpt lat="45.25788" lon="5.45723">
        <ele>284</ele>
        <time>2021-05-03T08:18:53Z</time>
      </trkpt>
      <trkpt lat="45.25781" lon="5.45722">
        <ele>284</ele>
        <time>2021-05-03T08:18:54Z</time>
      </trkpt>
      <trkpt lat="45.25774" lon="5.4572">
        <ele>283.9</ele>
        <time>2021-05-03T08:18:55Z</time>
      </trkpt>
      <trkpt lat="45.25768" lon="5.45717">
        <ele>283.9</ele>
        <time>2021-05-03T08:18:56Z</time>
      </trkpt>
      <trkpt lat="45.25761" lon="5.45715">
        <ele>283.8</ele>
        <time>2021-05-03T08:18:57Z</time>
      </trkpt>
      <trkpt lat="45.25754" lon="5.45712">
        <ele>283.7</ele>
        <time>2021-05-03T08:18:58Z</time>
      </trkpt>
      <trkpt lat="45.25748" lon="5.4571">
        <ele>283.7</ele>
        <time>2021-05-03T08:18:59Z</time>
      </trkpt>
      <trkpt lat="45.25741" lon="5.45707">
        <ele>283.6</ele>
        <time>2021-05-03T08:19:00Z</time>
      </trkpt>
      <trkpt lat="45.25735" lon="5.45705">
        <ele>283.5</ele>
        <time>2021-05-03T08:19:01Z</time>
      </trkpt>
      <trkpt lat="45.25729" lon="5.45702">
        <ele>283.5</ele>
        <time>2021-05-03T08:19:02Z</time>
      </trkpt>
      <trkpt lat="45.25722" lon="5.45701">
        <ele>283.4</ele>
        <time>2021-05-03T08:19:03Z</time>
      </trkpt>
      <trkpt lat="45.25716" lon="5.45698">
        <ele>283.4</ele>
        <time>2021-05-03T08:19:04Z</time>
      </trkpt>
      <trkpt lat="45.25709" lon="5.45696">
        <ele>283.3</ele>
        <time>2021-05-03T08:19:05Z</time>
      </trkpt>
      <trkpt lat="45.25702" lon="5.45694">
        <ele>283.2</ele>
        <time>2021-05-03T08:19:06Z</time>
      </trkpt>
      <trkpt lat="45.25695" lon="5.45692">
        <ele>283.1</ele>
        <time>2021-05-03T08:19:07Z</time>
      </trkpt>
      <trkpt lat="45.25688" lon="5.45689">
        <ele>283</ele>
        <time>2021-05-03T08:19:08Z</time>
      </trkpt>
      <trkpt lat="45.25681" lon="5.45687">
        <ele>283</ele>
        <time>2021-05-03T08:19:09Z</time>
      </trkpt>
      <trkpt lat="45.25675" lon="5.45684">
        <ele>282.9</ele>
        <time>2021-05-03T08:19:10Z</time>
      </trkpt>
      <trkpt lat="45.25668" lon="5.45682">
        <ele>282.8</ele>
        <time>2021-05-03T08:19:11Z</time>
      </trkpt>
      <trkpt lat="45.25661" lon="5.4568">
        <ele>282.7</ele>
        <time>2021-05-03T08:19:12Z</time>
      </trkpt>
      <trkpt lat="45.25655" lon="5.45678">
        <ele>282.7</ele>
        <time>2021-05-03T08:19:13Z</time>
      </trkpt>
      <trkpt lat="45.25649" lon="5.45676">
        <ele>282.6</ele>
        <time>2021-05-03T08:19:14Z</time>
      </trkpt>
      <trkpt lat="45.25642" lon="5.45674">
        <ele>282.6</ele>
        <time>2021-05-03T08:19:15Z</time>
      </trkpt>
      <trkpt lat="45.25636" lon="5.45671">
        <ele>282.5</ele>
        <time>2021-05-03T08:19:16Z</time>
      </trkpt>
      <trkpt lat="45.25629" lon="5.45668">
        <ele>282.5</ele>
        <time>2021-05-03T08:19:17Z</time>
      </trkpt>
      <trkpt lat="45.25623" lon="5.45666">
        <ele>282.5</ele>
        <time>2021-05-03T08:19:18Z</time>
      </trkpt>
      <trkpt lat="45.25616" lon="5.45664">
        <ele>282.4</ele>
        <time>2021-05-03T08:19:19Z</time>
      </trkpt>
      <trkpt lat="45.2561" lon="5.45661">
        <ele>282.4</ele>
        <time>2021-05-03T08:19:20Z</time>
      </trkpt>
      <trkpt lat="45.25603" lon="5.45658">
        <ele>282.3</ele>
        <time>2021-05-03T08:19:21Z</time>
      </trkpt>
      <trkpt lat="45.25597" lon="5.45656">
        <ele>282.3</ele>
        <time>2021-05-03T08:19:22Z</time>
      </trkpt>
      <trkpt lat="45.2559" lon="5.45654">
        <ele>282.2</ele>
        <time>2021-05-03T08:19:23Z</time>
      </trkpt>
      <trkpt lat="45.25583" lon="5.45652">
        <ele>282.1</ele>
        <time>2021-05-03T08:19:24Z</time>
      </trkpt>
      <trkpt lat="45.25576" lon="5.4565">
        <ele>282</ele>
        <time>2021-05-03T08:19:25Z</time>
      </trkpt>
      <trkpt lat="45.2557" lon="5.45648">
        <ele>281.9</ele>
        <time>2021-05-03T08:19:26Z</time>
      </trkpt>
      <trkpt lat="45.25564" lon="5.45646">
        <ele>281.8</ele>
        <time>2021-05-03T08:19:27Z</time>
      </trkpt>
      <trkpt lat="45.25558" lon="5.45644">
        <ele>281.7</ele>
        <time>2021-05-03T08:19:28Z</time>
      </trkpt>
      <trkpt lat="45.25552" lon="5.45642">
        <ele>281.6</ele>
        <time>2021-05-03T08:19:29Z</time>
      </trkpt>
      <trkpt lat="45.25545" lon="5.4564">
        <ele>281.5</ele>
        <time>2021-05-03T08:19:30Z</time>
      </trkpt>
      <trkpt lat="45.25538" lon="5.45637">
        <ele>281.4</ele>
        <time>2021-05-03T08:19:31Z</time>
      </trkpt>
      <trkpt lat="45.25532" lon="5.45635">
        <ele>281.3</ele>
        <time>2021-05-03T08:19:32Z</time>
      </trkpt>
      <trkpt lat="45.25525" lon="5.45632">
        <ele>281.2</ele>
        <time>2021-05-03T08:19:33Z</time>
      </trkpt>
      <trkpt lat="45.25519" lon="5.4563">
        <ele>281.2</ele>
        <time>2021-05-03T08:19:34Z</time>
      </trkpt>
      <trkpt lat="45.25512" lon="5.45628">
        <ele>281.1</ele>
        <time>2021-05-03T08:19:35Z</time>
      </trkpt>
      <trkpt lat="45.25505" lon="5.45626">
        <ele>281</ele>
        <time>2021-05-03T08:19:36Z</time>
      </trkpt>
      <trkpt lat="45.25498" lon="5.45623">
        <ele>280.9</ele>
        <time>2021-05-03T08:19:37Z</time>
      </trkpt>
      <trkpt lat="45.25492" lon="5.45621">
        <ele>280.8</ele>
        <time>2021-05-03T08:19:38Z</time>
      </trkpt>
      <trkpt lat="45.25486" lon="5.45619">
        <ele>280.7</ele>
        <time>2021-05-03T08:19:39Z</time>
      </trkpt>
      <trkpt lat="45.2548" lon="5.45616">
        <ele>280.6</ele>
        <time>2021-05-03T08:19:40Z</time>
      </trkpt>
      <trkpt lat="45.25473" lon="5.45614">
        <ele>280.5</ele>
        <time>2021-05-03T08:19:41Z</time>
      </trkpt>
      <trkpt lat="45.25466" lon="5.45612">
        <ele>280.4</ele>
        <time>2021-05-03T08:19:42Z</time>
      </trkpt>
      <trkpt lat="45.2546" lon="5.4561">
        <ele>280.3</ele>
        <time>2021-05-03T08:19:43Z</time>
      </trkpt>
      <trkpt lat="45.25453" lon="5.45607">
        <ele>280.2</ele>
        <time>2021-05-03T08:19:44Z</time>
      </trkpt>
      <trkpt lat="45.25447" lon="5.45605">
        <ele>280.1</ele>
        <time>2021-05-03T08:19:45Z</time>
      </trkpt>
      <trkpt lat="45.2544" lon="5.45603">
        <ele>280</ele>
        <time>2021-05-03T08:19:46Z</time>
      </trkpt>
      <trkpt lat="45.25434" lon="5.456">
        <ele>279.9</ele>
        <time>2021-05-03T08:19:47Z</time>
      </trkpt>
      <trkpt lat="45.25427" lon="5.45598">
        <ele>279.8</ele>
        <time>2021-05-03T08:19:48Z</time>
      </trkpt>
      <trkpt lat="45.2542" lon="5.45595">
        <ele>279.7</ele>
        <time>2021-05-03T08:19:49Z</time>
      </trkpt>
      <trkpt lat="45.25413" lon="5.45593">
        <ele>279.5</ele>
        <time>2021-05-03T08:19:50Z</time>
      </trkpt>
      <trkpt lat="45.25407" lon="5.4559">
        <ele>279.4</ele>
        <time>2021-05-03T08:19:51Z</time>
      </trkpt>
      <trkpt lat="45.254" lon="5.45588">
        <ele>279.3</ele>
        <time>2021-05-03T08:19:52Z</time>
      </trkpt>
      <trkpt lat="45.25393" lon="5.45586">
        <ele>279.1</ele>
        <time>2021-05-03T08:19:53Z</time>
      </trkpt>
      <trkpt lat="45.25386" lon="5.45584">
        <ele>279</ele>
        <time>2021-05-03T08:19:54Z</time>
      </trkpt>
      <trkpt lat="45.25379" lon="5.45582">
        <ele>278.8</ele>
        <time>2021-05-03T08:19:55Z</time>
      </trkpt>
      <trkpt lat="45.25372" lon="5.45579">
        <ele>278.7</ele>
        <time>2021-05-03T08:19:56Z</time>
      </trkpt>
      <trkpt lat="45.25365" lon="5.45577">
        <ele>278.5</ele>
        <time>2021-05-03T08:19:57Z</time>
      </trkpt>
      <trkpt lat="45.25358" lon="5.45575">
        <ele>278.3</ele>
        <time>2021-05-03T08:19:58Z</time>
      </trkpt>
      <trkpt lat="45.2535" lon="5.45572">
        <ele>278.1</ele>
        <time>2021-05-03T08:19:59Z</time>
      </trkpt>
      <trkpt lat="45.25343" lon="5.45569">
        <ele>277.9</ele>
        <time>2021-05-03T08:20:00Z</time>
      </trkpt>
      <trkpt lat="45.25335" lon="5.45566">
        <ele>277.7</ele>
        <time>2021-05-03T08:20:01Z</time>
      </trkpt>
      <trkpt lat="45.25328" lon="5.45564">
        <ele>277.5</ele>
        <time>2021-05-03T08:20:02Z</time>
      </trkpt>
      <trkpt lat="45.25321" lon="5.45561">
        <ele>277.3</ele>
        <time>2021-05-03T08:20:03Z</time>
      </trkpt>
      <trkpt lat="45.25313" lon="5.45559">
        <ele>277.1</ele>
        <time>2021-05-03T08:20:04Z</time>
      </trkpt>
      <trkpt lat="45.25305" lon="5.45557">
        <ele>276.9</ele>
        <time>2021-05-03T08:20:05Z</time>
      </trkpt>
      <trkpt lat="45.25298" lon="5.45554">
        <ele>276.7</ele>
        <time>2021-05-03T08:20:06Z</time>
      </trkpt>
      <trkpt lat="45.2529" lon="5.45552">
        <ele>276.4</ele>
        <time>2021-05-03T08:20:07Z</time>
      </trkpt>
      <trkpt lat="45.25283" lon="5.45549">
        <ele>276.2</ele>
        <time>2021-05-03T08:20:08Z</time>
      </trkpt>
      <trkpt lat="45.25276" lon="5.45547">
        <ele>275.9</ele>
        <time>2021-05-03T08:20:09Z</time>
      </trkpt>
      <trkpt lat="45.25268" lon="5.45544">
        <ele>275.7</ele>
        <time>2021-05-03T08:20:10Z</time>
      </trkpt>
      <trkpt lat="45.25261" lon="5.45542">
        <ele>275.4</ele>
        <time>2021-05-03T08:20:11Z</time>
      </trkpt>
      <trkpt lat="45.25253" lon="5.45539">
        <ele>275.1</ele>
        <time>2021-05-03T08:20:12Z</time>
      </trkpt>
      <trkpt lat="45.25245" lon="5.45536">
        <ele>274.8</ele>
        <time>2021-05-03T08:20:13Z</time>
      </trkpt>
      <trkpt lat="45.25238" lon="5.45533">
        <ele>274.5</ele>
        <time>2021-05-03T08:20:14Z</time>
      </trkpt>
      <trkpt lat="45.25229" lon="5.45531">
        <ele>274.2</ele>
        <time>2021-05-03T08:20:15Z</time>
      </trkpt>
      <trkpt lat="45.25221" lon="5.45529">
        <ele>273.9</ele>
        <time>2021-05-03T08:20:16Z</time>
      </trkpt>
      <trkpt lat="45.25213" lon="5.45526">
        <ele>273.6</ele>
        <time>2021-05-03T08:20:17Z</time>
      </trkpt>
      <trkpt lat="45.25205" lon="5.45524">
        <ele>273.3</ele>
        <time>2021-05-03T08:20:18Z</time>
      </trkpt>
      <trkpt lat="45.25198" lon="5.45521">
        <ele>273</ele>
        <time>2021-05-03T08:20:19Z</time>
      </trkpt>
      <trkpt lat="45.2519" lon="5.45517">
        <ele>272.7</ele>
        <time>2021-05-03T08:20:20Z</time>
      </trkpt>
      <trkpt lat="45.25182" lon="5.45514">
        <ele>272.4</ele>
        <time>2021-05-03T08:20:21Z</time>
      </trkpt>
      <trkpt lat="45.25174" lon="5.45512">
        <ele>272.1</ele>
        <time>2021-05-03T08:20:22Z</time>
      </trkpt>
      <trkpt lat="45.25166" lon="5.4551">
        <ele>271.9</ele>
        <time>2021-05-03T08:20:23Z</time>
      </trkpt>
      <trkpt lat="45.25158" lon="5.45507">
        <ele>271.6</ele>
        <time>2021-05-03T08:20:24Z</time>
      </trkpt>
      <trkpt lat="45.25151" lon="5.45504">
        <ele>271.3</ele>
        <time>2021-05-03T08:20:25Z</time>
      </trkpt>
      <trkpt lat="45.25143" lon="5.45501">
        <ele>271</ele>
        <time>2021-05-03T08:20:26Z</time>
      </trkpt>
      <trkpt lat="45.25135" lon="5.45499">
        <ele>270.7</ele>
        <time>2021-05-03T08:20:27Z</time>
      </trkpt>
      <trkpt lat="45.25126" lon="5.45496">
        <ele>270.4</ele>
        <time>2021-05-03T08:20:28Z</time>
      </trkpt>
      <trkpt lat="45.25118" lon="5.45494">
        <ele>270.2</ele>
        <time>2021-05-03T08:20:29Z</time>
      </trkpt>
      <trkpt lat="45.25111" lon="5.45492">
        <ele>269.9</ele>
        <time>2021-05-03T08:20:30Z</time>
      </trkpt>
      <trkpt lat="45.25103" lon="5.45489">
        <ele>269.6</ele>
        <time>2021-05-03T08:20:31Z</time>
      </trkpt>
      <trkpt lat="45.25096" lon="5.45486">
        <ele>269.3</ele>
        <time>2021-05-03T08:20:32Z</time>
      </trkpt>
      <trkpt lat="45.25088" lon="5.45483">
        <ele>269.1</ele>
        <time>2021-05-03T08:20:33Z</time>
      </trkpt>
      <trkpt lat="45.2508" lon="5.4548">
        <ele>268.8</ele>
        <time>2021-05-03T08:20:34Z</time>
      </trkpt>
      <trkpt lat="45.25072" lon="5.45478">
        <ele>268.6</ele>
        <time>2021-05-03T08:20:35Z</time>
      </trkpt>
      <trkpt lat="45.25063" lon="5.45475">
        <ele>268.4</ele>
        <time>2021-05-03T08:20:36Z</time>
      </trkpt>
      <trkpt lat="45.25056" lon="5.45472">
        <ele>268.2</ele>
        <time>2021-05-03T08:20:37Z</time>
      </trkpt>
      <trkpt lat="45.25048" lon="5.45469">
        <ele>268</ele>
        <time>2021-05-03T08:20:38Z</time>
      </trkpt>
      <trkpt lat="45.2504" lon="5.45466">
        <ele>267.8</ele>
        <time>2021-05-03T08:20:39Z</time>
      </trkpt>
      <trkpt lat="45.25032" lon="5.45464">
        <ele>267.5</ele>
        <time>2021-05-03T08:20:40Z</time>
      </trkpt>
      <trkpt lat="45.25024" lon="5.45461">
        <ele>267.3</ele>
        <time>2021-05-03T08:20:41Z</time>
      </trkpt>
      <trkpt lat="45.25017" lon="5.45458">
        <ele>267.1</ele>
        <time>2021-05-03T08:20:42Z</time>
      </trkpt>
      <trkpt lat="45.25009" lon="5.45455">
        <ele>266.9</ele>
        <time>2021-05-03T08:20:43Z</time>
      </trkpt>
      <trkpt lat="45.25001" lon="5.45453">
        <ele>266.8</ele>
        <time>2021-05-03T08:20:44Z</time>
      </trkpt>
      <trkpt lat="45.24993" lon="5.4545">
        <ele>266.6</ele>
        <time>2021-05-03T08:20:45Z</time>
      </trkpt>
      <trkpt lat="45.24985" lon="5.45448">
        <ele>266.4</ele>
        <time>2021-05-03T08:20:46Z</time>
      </trkpt>
      <trkpt lat="45.24978" lon="5.45446">
        <ele>266.3</ele>
        <time>2021-05-03T08:20:47Z</time>
      </trkpt>
      <trkpt lat="45.2497" lon="5.45443">
        <ele>266.1</ele>
        <time>2021-05-03T08:20:48Z</time>
      </trkpt>
      <trkpt lat="45.24963" lon="5.4544">
        <ele>266</ele>
        <time>2021-05-03T08:20:49Z</time>
      </trkpt>
      <trkpt lat="45.24956" lon="5.45438">
        <ele>265.9</ele>
        <time>2021-05-03T08:20:50Z</time>
      </trkpt>
      <trkpt lat="45.2495" lon="5.45434">
        <ele>265.8</ele>
        <time>2021-05-03T08:20:51Z</time>
      </trkpt>
      <trkpt lat="45.24943" lon="5.45432">
        <ele>265.8</ele>
        <time>2021-05-03T08:20:52Z</time>
      </trkpt>
      <trkpt lat="45.24936" lon="5.45429">
        <ele>265.7</ele>
        <time>2021-05-03T08:20:53Z</time>
      </trkpt>
      <trkpt lat="45.24929" lon="5.45427">
        <ele>265.7</ele>
        <time>2021-05-03T08:20:54Z</time>
      </trkpt>
      <trkpt lat="45.24922" lon="5.45425">
        <ele>265.6</ele>
        <time>2021-05-03T08:20:55Z</time>
      </trkpt>
      <trkpt lat="45.24916" lon="5.45422">
        <ele>265.6</ele>
        <time>2021-05-03T08:20:56Z</time>
      </trkpt>
      <trkpt lat="45.24909" lon="5.45419">
        <ele>265.6</ele>
        <time>2021-05-03T08:20:57Z</time>
      </trkpt>
      <trkpt lat="45.24902" lon="5.45417">
        <ele>265.5</ele>
        <time>2021-05-03T08:20:58Z</time>
      </trkpt>
      <trkpt lat="45.24896" lon="5.45415">
        <ele>265.5</ele>
        <time>2021-05-03T08:20:59Z</time>
      </trkpt>
      <trkpt lat="45.24888" lon="5.45412">
        <ele>265.5</ele>
        <time>2021-05-03T08:21:00Z</time>
      </trkpt>
      <trkpt lat="45.24882" lon="5.4541">
        <ele>265.5</ele>
        <time>2021-05-03T08:21:01Z</time>
      </trkpt>
      <trkpt lat="45.24874" lon="5.45408">
        <ele>265.4</ele>
        <time>2021-05-03T08:21:02Z</time>
      </trkpt>
      <trkpt lat="45.24867" lon="5.45405">
        <ele>265.4</ele>
        <time>2021-05-03T08:21:03Z</time>
      </trkpt>
      <trkpt lat="45.2486" lon="5.45404">
        <ele>265.4</ele>
        <time>2021-05-03T08:21:04Z</time>
      </trkpt>
      <trkpt lat="45.24853" lon="5.45402">
        <ele>265.4</ele>
        <time>2021-05-03T08:21:05Z</time>
      </trkpt>
      <trkpt lat="45.24846" lon="5.454">
        <ele>265.4</ele>
        <time>2021-05-03T08:21:06Z</time>
      </trkpt>
      <trkpt lat="45.2484" lon="5.45398">
        <ele>265.4</ele>
        <time>2021-05-03T08:21:07Z</time>
      </trkpt>
      <trkpt lat="45.24834" lon="5.45396">
        <ele>265.4</ele>
        <time>2021-05-03T08:21:08Z</time>
      </trkpt>
      <trkpt lat="45.24827" lon="5.45394">
        <ele>265.4</ele>
        <time>2021-05-03T08:21:09Z</time>
      </trkpt>
      <trkpt lat="45.2482" lon="5.45392">
        <ele>265.5</ele>
        <time>2021-05-03T08:21:10Z</time>
      </trkpt>
      <trkpt lat="45.24814" lon="5.45389">
        <ele>265.5</ele>
        <time>2021-05-03T08:21:11Z</time>
      </trkpt>
      <trkpt lat="45.24807" lon="5.45387">
        <ele>265.5</ele>
        <time>2021-05-03T08:21:12Z</time>
      </trkpt>
      <trkpt lat="45.24801" lon="5.45386">
        <ele>265.6</ele>
        <time>2021-05-03T08:21:13Z</time>
      </trkpt>
      <trkpt lat="45.24795" lon="5.45385">
        <ele>265.6</ele>
        <time>2021-05-03T08:21:14Z</time>
      </trkpt>
      <trkpt lat="45.24789" lon="5.45382">
        <ele>265.6</ele>
        <time>2021-05-03T08:21:15Z</time>
      </trkpt>
      <trkpt lat="45.24782" lon="5.45379">
        <ele>265.6</ele>
        <time>2021-05-03T08:21:16Z</time>
      </trkpt>
      <trkpt lat="45.24776" lon="5.45377">
        <ele>265.6</ele>
        <time>2021-05-03T08:21:17Z</time>
      </trkpt>
      <trkpt lat="45.24769" lon="5.45375">
        <ele>265.6</ele>
        <time>2021-05-03T08:21:18Z</time>
      </trkpt>
      <trkpt lat="45.24763" lon="5.45373">
        <ele>265.6</ele>
        <time>2021-05-03T08:21:19Z</time>
      </trkpt>
      <trkpt lat="45.24757" lon="5.45371">
        <ele>265.6</ele>
        <time>2021-05-03T08:21:20Z</time>
      </trkpt>
      <trkpt lat="45.24751" lon="5.45369">
        <ele>265.6</ele>
        <time>2021-05-03T08:21:21Z</time>
      </trkpt>
      <trkpt lat="45.24745" lon="5.45367">
        <ele>265.6</ele>
        <time>2021-05-03T08:21:22Z</time>
      </trkpt>
      <trkpt lat="45.24738" lon="5.45364">
        <ele>265.5</ele>
        <time>2021-05-03T08:21:23Z</time>
      </trkpt>
      <trkpt lat="45.24732" lon="5.45362">
        <ele>265.5</ele>
        <time>2021-05-03T08:21:24Z</time>
      </trkpt>
      <trkpt lat="45.24726" lon="5.4536">
        <ele>265.5</ele>
        <time>2021-05-03T08:21:25Z</time>
      </trkpt>
      <trkpt lat="45.2472" lon="5.45357">
        <ele>265.4</ele>
        <time>2021-05-03T08:21:26Z</time>
      </trkpt>
      <trkpt lat="45.24715" lon="5.45355">
        <ele>265.4</ele>
        <time>2021-05-03T08:21:27Z</time>
      </trkpt>
      <trkpt lat="45.24709" lon="5.45354">
        <ele>265.4</ele>
        <time>2021-05-03T08:21:28Z</time>
      </trkpt>
      <trkpt lat="45.24704" lon="5.45352">
        <ele>265.3</ele>
        <time>2021-05-03T08:21:29Z</time>
      </trkpt>
      <trkpt lat="45.24698" lon="5.4535">
        <ele>265.3</ele>
        <time>2021-05-03T08:21:30Z</time>
      </trkpt>
      <trkpt lat="45.24693" lon="5.45348">
        <ele>265.3</ele>
        <time>2021-05-03T08:21:31Z</time>
      </trkpt>
      <trkpt lat="45.24686" lon="5.45346">
        <ele>265.3</ele>
        <time>2021-05-03T08:21:32Z</time>
      </trkpt>
      <trkpt lat="45.2468" lon="5.45344">
        <ele>265.3</ele>
        <time>2021-05-03T08:21:33Z</time>
      </trkpt>
      <trkpt lat="45.24673" lon="5.45342">
        <ele>265.3</ele>
        <time>2021-05-03T08:21:34Z</time>
      </trkpt>
      <trkpt lat="45.24667" lon="5.4534">
        <ele>265.3</ele>
        <time>2021-05-03T08:21:35Z</time>
      </trkpt>
      <trkpt lat="45.2466" lon="5.45338">
        <ele>265.3</ele>
        <time>2021-05-03T08:21:36Z</time>
      </trkpt>
      <trkpt lat="45.24654" lon="5.45336">
        <ele>265.3</ele>
        <time>2021-05-03T08:21:37Z</time>
      </trkpt>
      <trkpt lat="45.24649" lon="5.45333">
        <ele>265.3</ele>
        <time>2021-05-03T08:21:38Z</time>
      </trkpt>
      <trkpt lat="45.24642" lon="5.45331">
        <ele>265.4</ele>
        <time>2021-05-03T08:21:39Z</time>
      </trkpt>
      <trkpt lat="45.24636" lon="5.45329">
        <ele>265.4</ele>
        <time>2021-05-03T08:21:40Z</time>
      </trkpt>
      <trkpt lat="45.2463" lon="5.45326">
        <ele>265.4</ele>
        <time>2021-05-03T08:21:41Z</time>
      </trkpt>
      <trkpt lat="45.24625" lon="5.45324">
        <ele>265.4</ele>
        <time>2021-05-03T08:21:42Z</time>
      </trkpt>
      <trkpt lat="45.24619" lon="5.45321">
        <ele>265.4</ele>
        <time>2021-05-03T08:21:43Z</time>
      </trkpt>
      <trkpt lat="45.24613" lon="5.45318">
        <ele>265.5</ele>
        <time>2021-05-03T08:21:44Z</time>
      </trkpt>
      <trkpt lat="45.24607" lon="5.45315">
        <ele>265.5</ele>
        <time>2021-05-03T08:21:45Z</time>
      </trkpt>
      <trkpt lat="45.24601" lon="5.45313">
        <ele>265.5</ele>
        <time>2021-05-03T08:21:46Z</time>
      </trkpt>
      <trkpt lat="45.24596" lon="5.45311">
        <ele>265.6</ele>
        <time>2021-05-03T08:21:47Z</time>
      </trkpt>
      <trkpt lat="45.2459" lon="5.45309">
        <ele>265.6</ele>
        <time>2021-05-03T08:21:48Z</time>
      </trkpt>
      <trkpt lat="45.24584" lon="5.45306">
        <ele>265.6</ele>
        <time>2021-05-03T08:21:49Z</time>
      </trkpt>
      <trkpt lat="45.24579" lon="5.45304">
        <ele>265.6</ele>
        <time>2021-05-03T08:21:50Z</time>
      </trkpt>
      <trkpt lat="45.24574" lon="5.453">
        <ele>265.6</ele>
        <time>2021-05-03T08:21:51Z</time>
      </trkpt>
      <trkpt lat="45.24569" lon="5.45297">
        <ele>265.6</ele>
        <time>2021-05-03T08:21:52Z</time>
      </trkpt>
      <trkpt lat="45.24564" lon="5.45294">
        <ele>265.6</ele>
        <time>2021-05-03T08:21:53Z</time>
      </trkpt>
      <trkpt lat="45.2456" lon="5.4529">
        <ele>265.6</ele>
        <time>2021-05-03T08:21:54Z</time>
      </trkpt>
      <trkpt lat="45.24555" lon="5.45286">
        <ele>265.7</ele>
        <time>2021-05-03T08:21:55Z</time>
      </trkpt>
      <trkpt lat="45.24551" lon="5.45282">
        <ele>265.7</ele>
        <time>2021-05-03T08:21:56Z</time>
      </trkpt>
      <trkpt lat="45.24546" lon="5.45278">
        <ele>265.7</ele>
        <time>2021-05-03T08:21:57Z</time>
      </trkpt>
      <trkpt lat="45.24542" lon="5.45274">
        <ele>265.7</ele>
        <time>2021-05-03T08:21:58Z</time>
      </trkpt>
      <trkpt lat="45.24537" lon="5.4527">
        <ele>265.7</ele>
        <time>2021-05-03T08:21:59Z</time>
      </trkpt>
      <trkpt lat="45.24533" lon="5.45265">
        <ele>265.7</ele>
        <time>2021-05-03T08:22:00Z</time>
      </trkpt>
      <trkpt lat="45.24528" lon="5.45259">
        <ele>265.8</ele>
        <time>2021-05-03T08:22:01Z</time>
      </trkpt>
      <trkpt lat="45.24524" lon="5.45254">
        <ele>265.8</ele>
        <time>2021-05-03T08:22:02Z</time>
      </trkpt>
      <trkpt lat="45.24519" lon="5.45249">
        <ele>265.8</ele>
        <time>2021-05-03T08:22:03Z</time>
      </trkpt>
      <trkpt lat="45.24515" lon="5.45245">
        <ele>265.8</ele>
        <time>2021-05-03T08:22:04Z</time>
      </trkpt>
      <trkpt lat="45.2451" lon="5.4524">
        <ele>265.9</ele>
        <time>2021-05-03T08:22:05Z</time>
      </trkpt>
      <trkpt lat="45.24506" lon="5.45236">
        <ele>265.9</ele>
        <time>2021-05-03T08:22:06Z</time>
      </trkpt>
      <trkpt lat="45.24501" lon="5.45232">
        <ele>265.9</ele>
        <time>2021-05-03T08:22:07Z</time>
      </trkpt>
      <trkpt lat="45.24496" lon="5.45227">
        <ele>266</ele>
        <time>2021-05-03T08:22:08Z</time>
      </trkpt>
      <trkpt lat="45.24492" lon="5.45222">
        <ele>266</ele>
        <time>2021-05-03T08:22:09Z</time>
      </trkpt>
      <trkpt lat="45.24487" lon="5.45217">
        <ele>266</ele>
        <time>2021-05-03T08:22:10Z</time>
      </trkpt>
      <trkpt lat="45.24483" lon="5.45212">
        <ele>266.1</ele>
        <time>2021-05-03T08:22:11Z</time>
      </trkpt>
      <trkpt lat="45.24478" lon="5.45207">
        <ele>266.1</ele>
        <time>2021-05-03T08:22:12Z</time>
      </trkpt>
      <trkpt lat="45.24474" lon="5.45202">
        <ele>266.1</ele>
        <time>2021-05-03T08:22:13Z</time>
      </trkpt>
      <trkpt lat="45.2447" lon="5.45197">
        <ele>266.2</ele>
        <time>2021-05-03T08:22:14Z</time>
      </trkpt>
      <trkpt lat="45.24466" lon="5.45192">
        <ele>266.2</ele>
        <time>2021-05-03T08:22:15Z</time>
      </trkpt>
      <trkpt lat="45.24461" lon="5.45187">
        <ele>266.3</ele>
        <time>2021-05-03T08:22:16Z</time>
      </trkpt>
      <trkpt lat="45.24457" lon="5.45182">
        <ele>266.3</ele>
        <time>2021-05-03T08:22:17Z</time>
      </trkpt>
      <trkpt lat="45.24452" lon="5.45177">
        <ele>266.3</ele>
        <time>2021-05-03T08:22:18Z</time>
      </trkpt>
      <trkpt lat="45.24448" lon="5.45172">
        <ele>266.4</ele>
        <time>2021-05-03T08:22:19Z</time>
      </trkpt>
      <trkpt lat="45.24444" lon="5.45167">
        <ele>266.4</ele>
        <time>2021-05-03T08:22:20Z</time>
      </trkpt>
      <trkpt lat="45.24439" lon="5.45162">
        <ele>266.4</ele>
        <time>2021-05-03T08:22:21Z</time>
      </trkpt>
      <trkpt lat="45.24435" lon="5.45157">
        <ele>266.5</ele>
        <time>2021-05-03T08:22:22Z</time>
      </trkpt>
      <trkpt lat="45.24431" lon="5.45152">
        <ele>266.5</ele>
        <time>2021-05-03T08:22:23Z</time>
      </trkpt>
      <trkpt lat="45.24426" lon="5.45147">
        <ele>266.5</ele>
        <time>2021-05-03T08:22:24Z</time>
      </trkpt>
      <trkpt lat="45.24421" lon="5.45142">
        <ele>266.6</ele>
        <time>2021-05-03T08:22:25Z</time>
      </trkpt>
      <trkpt lat="45.24417" lon="5.45137">
        <ele>266.6</ele>
        <time>2021-05-03T08:22:26Z</time>
      </trkpt>
      <trkpt lat="45.24412" lon="5.45132">
        <ele>266.7</ele>
        <time>2021-05-03T08:22:27Z</time>
      </trkpt>
      <trkpt lat="45.24407" lon="5.45127">
        <ele>266.7</ele>
        <time>2021-05-03T08:22:28Z</time>
      </trkpt>
      <trkpt lat="45.24403" lon="5.45122">
        <ele>266.7</ele>
        <time>2021-05-03T08:22:29Z</time>
      </trkpt>
      <trkpt lat="45.24398" lon="5.45117">
        <ele>266.8</ele>
        <time>2021-05-03T08:22:30Z</time>
      </trkpt>
      <trkpt lat="45.24394" lon="5.45111">
        <ele>266.8</ele>
        <time>2021-05-03T08:22:31Z</time>
      </trkpt>
      <trkpt lat="45.2439" lon="5.45106">
        <ele>266.9</ele>
        <time>2021-05-03T08:22:32Z</time>
      </trkpt>
      <trkpt lat="45.24385" lon="5.45101">
        <ele>267</ele>
        <time>2021-05-03T08:22:33Z</time>
      </trkpt>
      <trkpt lat="45.2438" lon="5.45096">
        <ele>267</ele>
        <time>2021-05-03T08:22:34Z</time>
      </trkpt>
      <trkpt lat="45.24376" lon="5.45091">
        <ele>267.1</ele>
        <time>2021-05-03T08:22:35Z</time>
      </trkpt>
      <trkpt lat="45.24372" lon="5.45086">
        <ele>267.2</ele>
        <time>2021-05-03T08:22:36Z</time>
      </trkpt>
      <trkpt lat="45.24367" lon="5.4508">
        <ele>267.2</ele>
        <time>2021-05-03T08:22:37Z</time>
      </trkpt>
      <trkpt lat="45.24363" lon="5.45075">
        <ele>267.3</ele>
        <time>2021-05-03T08:22:38Z</time>
      </trkpt>
      <trkpt lat="45.24357" lon="5.4507">
        <ele>267.4</ele>
        <time>2021-05-03T08:22:39Z</time>
      </trkpt>
      <trkpt lat="45.24352" lon="5.45065">
        <ele>267.4</ele>
        <time>2021-05-03T08:22:40Z</time>
      </trkpt>
      <trkpt lat="45.24348" lon="5.4506">
        <ele>267.5</ele>
        <time>2021-05-03T08:22:41Z</time>
      </trkpt>
      <trkpt lat="45.24343" lon="5.45055">
        <ele>267.5</ele>
        <time>2021-05-03T08:22:42Z</time>
      </trkpt>
      <trkpt lat="45.24338" lon="5.45049">
        <ele>267.6</ele>
        <time>2021-05-03T08:22:43Z</time>
      </trkpt>
      <trkpt lat="45.24333" lon="5.45043">
        <ele>267.7</ele>
        <time>2021-05-03T08:22:44Z</time>
      </trkpt>
      <trkpt lat="45.24329" lon="5.45037">
        <ele>267.7</ele>
        <time>2021-05-03T08:22:45Z</time>
      </trkpt>
      <trkpt lat="45.24325" lon="5.45032">
        <ele>267.8</ele>
        <time>2021-05-03T08:22:46Z</time>
      </trkpt>
      <trkpt lat="45.2432" lon="5.45027">
        <ele>267.9</ele>
        <time>2021-05-03T08:22:47Z</time>
      </trkpt>
      <trkpt lat="45.24315" lon="5.45022">
        <ele>268</ele>
        <time>2021-05-03T08:22:48Z</time>
      </trkpt>
      <trkpt lat="45.2431" lon="5.45018">
        <ele>268</ele>
        <time>2021-05-03T08:22:49Z</time>
      </trkpt>
      <trkpt lat="45.24306" lon="5.45013">
        <ele>268.1</ele>
        <time>2021-05-03T08:22:50Z</time>
      </trkpt>
      <trkpt lat="45.24301" lon="5.45008">
        <ele>268.2</ele>
        <time>2021-05-03T08:22:51Z</time>
      </trkpt>
      <trkpt lat="45.24297" lon="5.45004">
        <ele>268.2</ele>
        <time>2021-05-03T08:22:52Z</time>
      </trkpt>
      <trkpt lat="45.24292" lon="5.44999">
        <ele>268.3</ele>
        <time>2021-05-03T08:22:53Z</time>
      </trkpt>
      <trkpt lat="45.24287" lon="5.44994">
        <ele>268.3</ele>
        <time>2021-05-03T08:22:54Z</time>
      </trkpt>
      <trkpt lat="45.24282" lon="5.44988">
        <ele>268.4</ele>
        <time>2021-05-03T08:22:55Z</time>
      </trkpt>
      <trkpt lat="45.24277" lon="5.44982">
        <ele>268.4</ele>
        <time>2021-05-03T08:22:56Z</time>
      </trkpt>
      <trkpt lat="45.24272" lon="5.44977">
        <ele>268.5</ele>
        <time>2021-05-03T08:22:57Z</time>
      </trkpt>
      <trkpt lat="45.24267" lon="5.44972">
        <ele>268.5</ele>
        <time>2021-05-03T08:22:58Z</time>
      </trkpt>
      <trkpt lat="45.24263" lon="5.44966">
        <ele>268.4</ele>
        <time>2021-05-03T08:22:59Z</time>
      </trkpt>
      <trkpt lat="45.24258" lon="5.44961">
        <ele>268.4</ele>
        <time>2021-05-03T08:23:00Z</time>
      </trkpt>
      <trkpt lat="45.24253" lon="5.44956">
        <ele>268.4</ele>
        <time>2021-05-03T08:23:01Z</time>
      </trkpt>
      <trkpt lat="45.24249" lon="5.44952">
        <ele>268.4</ele>
        <time>2021-05-03T08:23:02Z</time>
      </trkpt>
      <trkpt lat="45.24244" lon="5.44947">
        <ele>268.4</ele>
        <time>2021-05-03T08:23:03Z</time>
      </trkpt>
      <trkpt lat="45.2424" lon="5.44942">
        <ele>268.5</ele>
        <time>2021-05-03T08:23:04Z</time>
      </trkpt>
      <trkpt lat="45.24235" lon="5.44937">
        <ele>268.5</ele>
        <time>2021-05-03T08:23:05Z</time>
      </trkpt>
      <trkpt lat="45.24231" lon="5.44932">
        <ele>268.5</ele>
        <time>2021-05-03T08:23:06Z</time>
      </trkpt>
      <trkpt lat="45.24227" lon="5.44927">
        <ele>268.5</ele>
        <time>2021-05-03T08:23:07Z</time>
      </trkpt>
      <trkpt lat="45.24222" lon="5.44922">
        <ele>268.6</ele>
        <time>2021-05-03T08:23:08Z</time>
      </trkpt>
      <trkpt lat="45.24218" lon="5.44917">
        <ele>268.6</ele>
        <time>2021-05-03T08:23:09Z</time>
      </trkpt>
      <trkpt lat="45.24213" lon="5.44912">
        <ele>268.6</ele>
        <time>2021-05-03T08:23:10Z</time>
      </trkpt>
      <trkpt lat="45.24209" lon="5.44908">
        <ele>268.7</ele>
        <time>2021-05-03T08:23:11Z</time>
      </trkpt>
      <trkpt lat="45.24205" lon="5.44903">
        <ele>268.7</ele>
        <time>2021-05-03T08:23:12Z</time>
      </trkpt>
      <trkpt lat="45.24201" lon="5.44898">
        <ele>268.7</ele>
        <time>2021-05-03T08:23:13Z</time>
      </trkpt>
      <trkpt lat="45.24196" lon="5.44892">
        <ele>268.7</ele>
        <time>2021-05-03T08:23:14Z</time>
      </trkpt>
      <trkpt lat="45.24192" lon="5.44886">
        <ele>268.8</ele>
        <time>2021-05-03T08:23:15Z</time>
      </trkpt>
      <trkpt lat="45.24188" lon="5.44881">
        <ele>268.8</ele>
        <time>2021-05-03T08:23:16Z</time>
      </trkpt>
      <trkpt lat="45.24183" lon="5.44876">
        <ele>268.8</ele>
        <time>2021-05-03T08:23:17Z</time>
      </trkpt>
      <trkpt lat="45.24179" lon="5.4487">
        <ele>268.9</ele>
        <time>2021-05-03T08:23:18Z</time>
      </trkpt>
      <trkpt lat="45.24174" lon="5.44864">
        <ele>268.9</ele>
        <time>2021-05-03T08:23:19Z</time>
      </trkpt>
      <trkpt lat="45.2417" lon="5.44859">
        <ele>268.9</ele>
        <time>2021-05-03T08:23:20Z</time>
      </trkpt>
      <trkpt lat="45.24165" lon="5.44854">
        <ele>269</ele>
        <time>2021-05-03T08:23:21Z</time>
      </trkpt>
      <trkpt lat="45.2416" lon="5.44849">
        <ele>269.1</ele>
        <time>2021-05-03T08:23:22Z</time>
      </trkpt>
      <trkpt lat="45.24155" lon="5.44844">
        <ele>269.1</ele>
        <time>2021-05-03T08:23:23Z</time>
      </trkpt>
      <trkpt lat="45.24151" lon="5.44839">
        <ele>269.2</ele>
        <time>2021-05-03T08:23:24Z</time>
      </trkpt>
      <trkpt lat="45.24146" lon="5.44833">
        <ele>269.2</ele>
        <time>2021-05-03T08:23:25Z</time>
      </trkpt>
      <trkpt lat="45.24141" lon="5.44828">
        <ele>269.3</ele>
        <time>2021-05-03T08:23:26Z</time>
      </trkpt>
      <trkpt lat="45.24137" lon="5.44823">
        <ele>269.3</ele>
        <time>2021-05-03T08:23:27Z</time>
      </trkpt>
      <trkpt lat="45.24132" lon="5.44818">
        <ele>269.4</ele>
        <time>2021-05-03T08:23:28Z</time>
      </trkpt>
      <trkpt lat="45.24127" lon="5.44813">
        <ele>269.4</ele>
        <time>2021-05-03T08:23:29Z</time>
      </trkpt>
      <trkpt lat="45.24123" lon="5.44809">
        <ele>269.4</ele>
        <time>2021-05-03T08:23:30Z</time>
      </trkpt>
      <trkpt lat="45.24118" lon="5.44804">
        <ele>269.5</ele>
        <time>2021-05-03T08:23:31Z</time>
      </trkpt>
      <trkpt lat="45.24114" lon="5.44799">
        <ele>269.5</ele>
        <time>2021-05-03T08:23:32Z</time>
      </trkpt>
      <trkpt lat="45.24109" lon="5.44794">
        <ele>269.5</ele>
        <time>2021-05-03T08:23:33Z</time>
      </trkpt>
      <trkpt lat="45.24105" lon="5.44789">
        <ele>269.5</ele>
        <time>2021-05-03T08:23:34Z</time>
      </trkpt>
      <trkpt lat="45.24101" lon="5.44784">
        <ele>269.6</ele>
        <time>2021-05-03T08:23:35Z</time>
      </trkpt>
      <trkpt lat="45.24096" lon="5.44779">
        <ele>269.6</ele>
        <time>2021-05-03T08:23:36Z</time>
      </trkpt>
      <trkpt lat="45.24092" lon="5.44775">
        <ele>269.6</ele>
        <time>2021-05-03T08:23:37Z</time>
      </trkpt>
      <trkpt lat="45.24088" lon="5.4477">
        <ele>269.7</ele>
        <time>2021-05-03T08:23:38Z</time>
      </trkpt>
      <trkpt lat="45.24083" lon="5.44765">
        <ele>269.7</ele>
        <time>2021-05-03T08:23:39Z</time>
      </trkpt>
      <trkpt lat="45.24078" lon="5.4476">
        <ele>269.7</ele>
        <time>2021-05-03T08:23:40Z</time>
      </trkpt>
      <trkpt lat="45.24074" lon="5.44755">
        <ele>269.8</ele>
        <time>2021-05-03T08:23:41Z</time>
      </trkpt>
      <trkpt lat="45.24069" lon="5.4475">
        <ele>269.8</ele>
        <time>2021-05-03T08:23:42Z</time>
      </trkpt>
      <trkpt lat="45.24064" lon="5.44745">
        <ele>269.9</ele>
        <time>2021-05-03T08:23:43Z</time>
      </trkpt>
      <trkpt lat="45.2406" lon="5.4474">
        <ele>269.9</ele>
        <time>2021-05-03T08:23:44Z</time>
      </trkpt>
      <trkpt lat="45.24056" lon="5.44735">
        <ele>270</ele>
        <time>2021-05-03T08:23:45Z</time>
      </trkpt>
      <trkpt lat="45.24051" lon="5.4473">
        <ele>270.1</ele>
        <time>2021-05-03T08:23:46Z</time>
      </trkpt>
      <trkpt lat="45.24047" lon="5.44725">
        <ele>270.1</ele>
        <time>2021-05-03T08:23:47Z</time>
      </trkpt>
      <trkpt lat="45.24043" lon="5.44721">
        <ele>270.2</ele>
        <time>2021-05-03T08:23:48Z</time>
      </trkpt>
      <trkpt lat="45.24039" lon="5.44716">
        <ele>270.2</ele>
        <time>2021-05-03T08:23:49Z</time>
      </trkpt>
      <trkpt lat="45.24035" lon="5.44712">
        <ele>270.3</ele>
        <time>2021-05-03T08:23:50Z</time>
      </trkpt>
      <trkpt lat="45.24031" lon="5.44707">
        <ele>270.4</ele>
        <time>2021-05-03T08:23:51Z</time>
      </trkpt>
      <trkpt lat="45.24027" lon="5.44703">
        <ele>270.5</ele>
        <time>2021-05-03T08:23:52Z</time>
      </trkpt>
      <trkpt lat="45.24023" lon="5.44698">
        <ele>270.6</ele>
        <time>2021-05-03T08:23:53Z</time>
      </trkpt>
      <trkpt lat="45.24018" lon="5.44693">
        <ele>270.7</ele>
        <time>2021-05-03T08:23:54Z</time>
      </trkpt>
      <trkpt lat="45.24014" lon="5.44688">
        <ele>270.8</ele>
        <time>2021-05-03T08:23:55Z</time>
      </trkpt>
      <trkpt lat="45.2401" lon="5.44683">
        <ele>270.9</ele>
        <time>2021-05-03T08:23:56Z</time>
      </trkpt>
      <trkpt lat="45.24006" lon="5.44677">
        <ele>271</ele>
        <time>2021-05-03T08:23:57Z</time>
      </trkpt>
      <trkpt lat="45.24002" lon="5.44672">
        <ele>271.1</ele>
        <time>2021-05-03T08:23:58Z</time>
      </trkpt>
      <trkpt lat="45.23998" lon="5.44667">
        <ele>271.2</ele>
        <time>2021-05-03T08:23:59Z</time>
      </trkpt>
      <trkpt lat="45.23995" lon="5.44661">
        <ele>271.3</ele>
        <time>2021-05-03T08:24:00Z</time>
      </trkpt>
      <trkpt lat="45.23991" lon="5.44656">
        <ele>271.5</ele>
        <time>2021-05-03T08:24:01Z</time>
      </trkpt>
      <trkpt lat="45.23987" lon="5.4465">
        <ele>271.6</ele>
        <time>2021-05-03T08:24:02Z</time>
      </trkpt>
      <trkpt lat="45.23984" lon="5.44644">
        <ele>271.7</ele>
        <time>2021-05-03T08:24:03Z</time>
      </trkpt>
      <trkpt lat="45.2398" lon="5.44639">
        <ele>271.8</ele>
        <time>2021-05-03T08:24:04Z</time>
      </trkpt>
      <trkpt lat="45.23976" lon="5.44633">
        <ele>272</ele>
        <time>2021-05-03T08:24:05Z</time>
      </trkpt>
      <trkpt lat="45.23973" lon="5.44628">
        <ele>272.1</ele>
        <time>2021-05-03T08:24:06Z</time>
      </trkpt>
      <trkpt lat="45.23969" lon="5.44622">
        <ele>272.2</ele>
        <time>2021-05-03T08:24:07Z</time>
      </trkpt>
      <trkpt lat="45.23965" lon="5.44617">
        <ele>272.3</ele>
        <time>2021-05-03T08:24:08Z</time>
      </trkpt>
      <trkpt lat="45.23962" lon="5.44612">
        <ele>272.5</ele>
        <time>2021-05-03T08:24:09Z</time>
      </trkpt>
      <trkpt lat="45.23958" lon="5.44607">
        <ele>272.7</ele>
        <time>2021-05-03T08:24:10Z</time>
      </trkpt>
      <trkpt lat="45.23955" lon="5.44601">
        <ele>272.8</ele>
        <time>2021-05-03T08:24:11Z</time>
      </trkpt>
      <trkpt lat="45.23952" lon="5.44596">
        <ele>273</ele>
        <time>2021-05-03T08:24:12Z</time>
      </trkpt>
      <trkpt lat="45.23948" lon="5.44591">
        <ele>273.2</ele>
        <time>2021-05-03T08:24:13Z</time>
      </trkpt>
      <trkpt lat="45.23945" lon="5.44586">
        <ele>273.3</ele>
        <time>2021-05-03T08:24:14Z</time>
      </trkpt>
      <trkpt lat="45.23942" lon="5.44581">
        <ele>273.4</ele>
        <time>2021-05-03T08:24:15Z</time>
      </trkpt>
      <trkpt lat="45.23938" lon="5.44576">
        <ele>273.5</ele>
        <time>2021-05-03T08:24:16Z</time>
      </trkpt>
      <trkpt lat="45.23935" lon="5.44572">
        <ele>273.7</ele>
        <time>2021-05-03T08:24:17Z</time>
      </trkpt>
      <trkpt lat="45.23932" lon="5.44567">
        <ele>273.9</ele>
        <time>2021-05-03T08:24:18Z</time>
      </trkpt>
      <trkpt lat="45.23928" lon="5.44563">
        <ele>274</ele>
        <time>2021-05-03T08:24:19Z</time>
      </trkpt>
      <trkpt lat="45.23925" lon="5.44558">
        <ele>274.2</ele>
        <time>2021-05-03T08:24:20Z</time>
      </trkpt>
      <trkpt lat="45.23922" lon="5.44553">
        <ele>274.4</ele>
        <time>2021-05-03T08:24:21Z</time>
      </trkpt>
      <trkpt lat="45.23918" lon="5.44549">
        <ele>274.5</ele>
        <time>2021-05-03T08:24:22Z</time>
      </trkpt>
      <trkpt lat="45.23915" lon="5.44544">
        <ele>274.7</ele>
        <time>2021-05-03T08:24:23Z</time>
      </trkpt>
      <trkpt lat="45.23911" lon="5.4454">
        <ele>274.8</ele>
        <time>2021-05-03T08:24:24Z</time>
      </trkpt>
      <trkpt lat="45.23908" lon="5.44535">
        <ele>274.9</ele>
        <time>2021-05-03T08:24:25Z</time>
      </trkpt>
      <trkpt lat="45.23905" lon="5.4453">
        <ele>275.1</ele>
        <time>2021-05-03T08:24:26Z</time>
      </trkpt>
      <trkpt lat="45.23901" lon="5.44525">
        <ele>275.2</ele>
        <time>2021-05-03T08:24:27Z</time>
      </trkpt>
      <trkpt lat="45.23898" lon="5.4452">
        <ele>275.3</ele>
        <time>2021-05-03T08:24:28Z</time>
      </trkpt>
      <trkpt lat="45.23895" lon="5.44516">
        <ele>275.4</ele>
        <time>2021-05-03T08:24:29Z</time>
      </trkpt>
      <trkpt lat="45.23891" lon="5.44511">
        <ele>275.5</ele>
        <time>2021-05-03T08:24:30Z</time>
      </trkpt>
      <trkpt lat="45.23887" lon="5.44507">
        <ele>275.7</ele>
        <time>2021-05-03T08:24:31Z</time>
      </trkpt>
      <trkpt lat="45.23883" lon="5.44504">
        <ele>275.8</ele>
        <time>2021-05-03T08:24:32Z</time>
      </trkpt>
      <trkpt lat="45.2388" lon="5.445">
        <ele>275.9</ele>
        <time>2021-05-03T08:24:33Z</time>
      </trkpt>
      <trkpt lat="45.23876" lon="5.44496">
        <ele>276</ele>
        <time>2021-05-03T08:24:34Z</time>
      </trkpt>
      <trkpt lat="45.23873" lon="5.44491">
        <ele>276.1</ele>
        <time>2021-05-03T08:24:35Z</time>
      </trkpt>
      <trkpt lat="45.23869" lon="5.44487">
        <ele>276.2</ele>
        <time>2021-05-03T08:24:36Z</time>
      </trkpt>
      <trkpt lat="45.23865" lon="5.44484">
        <ele>276.3</ele>
        <time>2021-05-03T08:24:37Z</time>
      </trkpt>
      <trkpt lat="45.23861" lon="5.4448">
        <ele>276.3</ele>
        <time>2021-05-03T08:24:38Z</time>
      </trkpt>
      <trkpt lat="45.23857" lon="5.44477">
        <ele>276.4</ele>
        <time>2021-05-03T08:24:39Z</time>
      </trkpt>
      <trkpt lat="45.23854" lon="5.44473">
        <ele>276.5</ele>
        <time>2021-05-03T08:24:40Z</time>
      </trkpt>
      <trkpt lat="45.23849" lon="5.4447">
        <ele>276.5</ele>
        <time>2021-05-03T08:24:41Z</time>
      </trkpt>
      <trkpt lat="45.23845" lon="5.44467">
        <ele>276.5</ele>
        <time>2021-05-03T08:24:42Z</time>
      </trkpt>
      <trkpt lat="45.2384" lon="5.44465">
        <ele>276.5</ele>
        <time>2021-05-03T08:24:43Z</time>
      </trkpt>
      <trkpt lat="45.23836" lon="5.44462">
        <ele>276.5</ele>
        <time>2021-05-03T08:24:44Z</time>
      </trkpt>
      <trkpt lat="45.23831" lon="5.44459">
        <ele>276.4</ele>
        <time>2021-05-03T08:24:45Z</time>
      </trkpt>
      <trkpt lat="45.23825" lon="5.44456">
        <ele>276.4</ele>
        <time>2021-05-03T08:24:46Z</time>
      </trkpt>
      <trkpt lat="45.2382" lon="5.44454">
        <ele>276.3</ele>
        <time>2021-05-03T08:24:47Z</time>
      </trkpt>
      <trkpt lat="45.23815" lon="5.44452">
        <ele>276.2</ele>
        <time>2021-05-03T08:24:48Z</time>
      </trkpt>
      <trkpt lat="45.23809" lon="5.4445">
        <ele>276.1</ele>
        <time>2021-05-03T08:24:49Z</time>
      </trkpt>
      <trkpt lat="45.23803" lon="5.44448">
        <ele>275.9</ele>
        <time>2021-05-03T08:24:50Z</time>
      </trkpt>
      <trkpt lat="45.23797" lon="5.44446">
        <ele>275.8</ele>
        <time>2021-05-03T08:24:51Z</time>
      </trkpt>
      <trkpt lat="45.23791" lon="5.44444">
        <ele>275.6</ele>
        <time>2021-05-03T08:24:52Z</time>
      </trkpt>
      <trkpt lat="45.23784" lon="5.44442">
        <ele>275.4</ele>
        <time>2021-05-03T08:24:53Z</time>
      </trkpt>
      <trkpt lat="45.23778" lon="5.4444">
        <ele>275.2</ele>
        <time>2021-05-03T08:24:54Z</time>
      </trkpt>
      <trkpt lat="45.23771" lon="5.44438">
        <ele>274.9</ele>
        <time>2021-05-03T08:24:55Z</time>
      </trkpt>
      <trkpt lat="45.23764" lon="5.44436">
        <ele>274.7</ele>
        <time>2021-05-03T08:24:56Z</time>
      </trkpt>
      <trkpt lat="45.23756" lon="5.44435">
        <ele>274.3</ele>
        <time>2021-05-03T08:24:57Z</time>
      </trkpt>
      <trkpt lat="45.23748" lon="5.44433">
        <ele>274</ele>
        <time>2021-05-03T08:24:58Z</time>
      </trkpt>
      <trkpt lat="45.23741" lon="5.44432">
        <ele>273.7</ele>
        <time>2021-05-03T08:24:59Z</time>
      </trkpt>
      <trkpt lat="45.23733" lon="5.44431">
        <ele>273.4</ele>
        <time>2021-05-03T08:25:00Z</time>
      </trkpt>
      <trkpt lat="45.23725" lon="5.4443">
        <ele>273.2</ele>
        <time>2021-05-03T08:25:01Z</time>
      </trkpt>
      <trkpt lat="45.23718" lon="5.44428">
        <ele>272.9</ele>
        <time>2021-05-03T08:25:02Z</time>
      </trkpt>
      <trkpt lat="45.2371" lon="5.44427">
        <ele>272.6</ele>
        <time>2021-05-03T08:25:03Z</time>
      </trkpt>
      <trkpt lat="45.23702" lon="5.44426">
        <ele>272.4</ele>
        <time>2021-05-03T08:25:04Z</time>
      </trkpt>
      <trkpt lat="45.23695" lon="5.44425">
        <ele>272.2</ele>
        <time>2021-05-03T08:25:05Z</time>
      </trkpt>
      <trkpt lat="45.23687" lon="5.44424">
        <ele>271.9</ele>
        <time>2021-05-03T08:25:06Z</time>
      </trkpt>
      <trkpt lat="45.23679" lon="5.44423">
        <ele>271.8</ele>
        <time>2021-05-03T08:25:07Z</time>
      </trkpt>
      <trkpt lat="45.23671" lon="5.44422">
        <ele>271.6</ele>
        <time>2021-05-03T08:25:08Z</time>
      </trkpt>
      <trkpt lat="45.23663" lon="5.44421">
        <ele>271.4</ele>
        <time>2021-05-03T08:25:09Z</time>
      </trkpt>
      <trkpt lat="45.23655" lon="5.4442">
        <ele>271.3</ele>
        <time>2021-05-03T08:25:10Z</time>
      </trkpt>
      <trkpt lat="45.23648" lon="5.44418">
        <ele>271.1</ele>
        <time>2021-05-03T08:25:11Z</time>
      </trkpt>
      <trkpt lat="45.23639" lon="5.44417">
        <ele>270.9</ele>
        <time>2021-05-03T08:25:12Z</time>
      </trkpt>
      <trkpt lat="45.23631" lon="5.44415">
        <ele>270.8</ele>
        <time>2021-05-03T08:25:13Z</time>
      </trkpt>
      <trkpt lat="45.23623" lon="5.44413">
        <ele>270.7</ele>
        <time>2021-05-03T08:25:14Z</time>
      </trkpt>
      <trkpt lat="45.23616" lon="5.44411">
        <ele>270.6</ele>
        <time>2021-05-03T08:25:15Z</time>
      </trkpt>
      <trkpt lat="45.23608" lon="5.44409">
        <ele>270.6</ele>
        <time>2021-05-03T08:25:16Z</time>
      </trkpt>
      <trkpt lat="45.236" lon="5.44408">
        <ele>270.5</ele>
        <time>2021-05-03T08:25:17Z</time>
      </trkpt>
      <trkpt lat="45.23593" lon="5.44407">
        <ele>270.4</ele>
        <time>2021-05-03T08:25:18Z</time>
      </trkpt>
      <trkpt lat="45.23585" lon="5.44405">
        <ele>270.3</ele>
        <time>2021-05-03T08:25:19Z</time>
      </trkpt>
      <trkpt lat="45.23578" lon="5.44403">
        <ele>270.2</ele>
        <time>2021-05-03T08:25:20Z</time>
      </trkpt>
      <trkpt lat="45.2357" lon="5.44401">
        <ele>270.2</ele>
        <time>2021-05-03T08:25:21Z</time>
      </trkpt>
      <trkpt lat="45.23562" lon="5.44399">
        <ele>270.1</ele>
        <time>2021-05-03T08:25:22Z</time>
      </trkpt>
      <trkpt lat="45.23555" lon="5.44397">
        <ele>270.1</ele>
        <time>2021-05-03T08:25:23Z</time>
      </trkpt>
      <trkpt lat="45.23547" lon="5.44396">
        <ele>270.1</ele>
        <time>2021-05-03T08:25:24Z</time>
      </trkpt>
      <trkpt lat="45.2354" lon="5.44394">
        <ele>270.1</ele>
        <time>2021-05-03T08:25:25Z</time>
      </trkpt>
      <trkpt lat="45.23533" lon="5.44392">
        <ele>270.1</ele>
        <time>2021-05-03T08:25:26Z</time>
      </trkpt>
      <trkpt lat="45.23526" lon="5.4439">
        <ele>270.1</ele>
        <time>2021-05-03T08:25:27Z</time>
      </trkpt>
      <trkpt lat="45.23518" lon="5.44389">
        <ele>270.1</ele>
        <time>2021-05-03T08:25:28Z</time>
      </trkpt>
      <trkpt lat="45.23511" lon="5.44387">
        <ele>270.1</ele>
        <time>2021-05-03T08:25:29Z</time>
      </trkpt>
      <trkpt lat="45.23504" lon="5.44386">
        <ele>270.1</ele>
        <time>2021-05-03T08:25:30Z</time>
      </trkpt>
      <trkpt lat="45.23497" lon="5.44384">
        <ele>270.1</ele>
        <time>2021-05-03T08:25:31Z</time>
      </trkpt>
      <trkpt lat="45.23489" lon="5.44382">
        <ele>270.1</ele>
        <time>2021-05-03T08:25:32Z</time>
      </trkpt>
      <trkpt lat="45.23482" lon="5.44381">
        <ele>270.1</ele>
        <time>2021-05-03T08:25:33Z</time>
      </trkpt>
      <trkpt lat="45.23475" lon="5.4438">
        <ele>270.1</ele>
        <time>2021-05-03T08:25:34Z</time>
      </trkpt>
      <trkpt lat="45.23468" lon="5.44379">
        <ele>270.1</ele>
        <time>2021-05-03T08:25:35Z</time>
      </trkpt>
      <trkpt lat="45.23461" lon="5.44378">
        <ele>270.1</ele>
        <time>2021-05-03T08:25:36Z</time>
      </trkpt>
      <trkpt lat="45.23454" lon="5.44377">
        <ele>270.1</ele>
        <time>2021-05-03T08:25:37Z</time>
      </trkpt>
      <trkpt lat="45.23447" lon="5.44376">
        <ele>270.1</ele>
        <time>2021-05-03T08:25:38Z</time>
      </trkpt>
      <trkpt lat="45.2344" lon="5.44374">
        <ele>270.1</ele>
        <time>2021-05-03T08:25:39Z</time>
      </trkpt>
      <trkpt lat="45.23432" lon="5.44373">
        <ele>270</ele>
        <time>2021-05-03T08:25:40Z</time>
      </trkpt>
      <trkpt lat="45.23425" lon="5.44371">
        <ele>269.9</ele>
        <time>2021-05-03T08:25:41Z</time>
      </trkpt>
      <trkpt lat="45.23418" lon="5.44369">
        <ele>269.9</ele>
        <time>2021-05-03T08:25:42Z</time>
      </trkpt>
      <trkpt lat="45.2341" lon="5.44368">
        <ele>269.8</ele>
        <time>2021-05-03T08:25:43Z</time>
      </trkpt>
      <trkpt lat="45.23403" lon="5.44366">
        <ele>269.8</ele>
        <time>2021-05-03T08:25:44Z</time>
      </trkpt>
      <trkpt lat="45.23396" lon="5.44364">
        <ele>269.7</ele>
        <time>2021-05-03T08:25:45Z</time>
      </trkpt>
      <trkpt lat="45.23389" lon="5.44362">
        <ele>269.7</ele>
        <time>2021-05-03T08:25:46Z</time>
      </trkpt>
      <trkpt lat="45.23381" lon="5.4436">
        <ele>269.7</ele>
        <time>2021-05-03T08:25:47Z</time>
      </trkpt>
      <trkpt lat="45.23374" lon="5.44359">
        <ele>269.6</ele>
        <time>2021-05-03T08:25:48Z</time>
      </trkpt>
      <trkpt lat="45.23366" lon="5.44358">
        <ele>269.6</ele>
        <time>2021-05-03T08:25:49Z</time>
      </trkpt>
      <trkpt lat="45.23359" lon="5.44357">
        <ele>269.6</ele>
        <time>2021-05-03T08:25:50Z</time>
      </trkpt>
      <trkpt lat="45.23351" lon="5.44355">
        <ele>269.6</ele>
        <time>2021-05-03T08:25:51Z</time>
      </trkpt>
      <trkpt lat="45.23344" lon="5.44354">
        <ele>269.6</ele>
        <time>2021-05-03T08:25:52Z</time>
      </trkpt>
      <trkpt lat="45.23337" lon="5.44352">
        <ele>269.6</ele>
        <time>2021-05-03T08:25:53Z</time>
      </trkpt>
      <trkpt lat="45.2333" lon="5.4435">
        <ele>269.5</ele>
        <time>2021-05-03T08:25:54Z</time>
      </trkpt>
      <trkpt lat="45.23323" lon="5.44349">
        <ele>269.5</ele>
        <time>2021-05-03T08:25:55Z</time>
      </trkpt>
      <trkpt lat="45.23316" lon="5.44348">
        <ele>269.5</ele>
        <time>2021-05-03T08:25:56Z</time>
      </trkpt>
      <trkpt lat="45.23308" lon="5.44346">
        <ele>269.5</ele>
        <time>2021-05-03T08:25:57Z</time>
      </trkpt>
      <trkpt lat="45.23301" lon="5.44345">
        <ele>269.5</ele>
        <time>2021-05-03T08:25:58Z</time>
      </trkpt>
      <trkpt lat="45.23294" lon="5.44345">
        <ele>269.5</ele>
        <time>2021-05-03T08:25:59Z</time>
      </trkpt>
      <trkpt lat="45.23287" lon="5.44343">
        <ele>269.5</ele>
        <time>2021-05-03T08:26:00Z</time>
      </trkpt>
      <trkpt lat="45.2328" lon="5.44342">
        <ele>269.5</ele>
        <time>2021-05-03T08:26:01Z</time>
      </trkpt>
      <trkpt lat="45.23273" lon="5.44341">
        <ele>269.5</ele>
        <time>2021-05-03T08:26:02Z</time>
      </trkpt>
      <trkpt lat="45.23266" lon="5.44339">
        <ele>269.5</ele>
        <time>2021-05-03T08:26:03Z</time>
      </trkpt>
      <trkpt lat="45.23259" lon="5.44338">
        <ele>269.4</ele>
        <time>2021-05-03T08:26:04Z</time>
      </trkpt>
      <trkpt lat="45.23252" lon="5.44336">
        <ele>269.4</ele>
        <time>2021-05-03T08:26:05Z</time>
      </trkpt>
      <trkpt lat="45.23245" lon="5.44335">
        <ele>269.3</ele>
        <time>2021-05-03T08:26:06Z</time>
      </trkpt>
      <trkpt lat="45.23237" lon="5.44334">
        <ele>269.2</ele>
        <time>2021-05-03T08:26:07Z</time>
      </trkpt>
      <trkpt lat="45.2323" lon="5.44332">
        <ele>269</ele>
        <time>2021-05-03T08:26:08Z</time>
      </trkpt>
      <trkpt lat="45.23223" lon="5.44329">
        <ele>268.9</ele>
        <time>2021-05-03T08:26:09Z</time>
      </trkpt>
      <trkpt lat="45.23215" lon="5.44326">
        <ele>268.7</ele>
        <time>2021-05-03T08:26:10Z</time>
      </trkpt>
      <trkpt lat="45.23208" lon="5.44323">
        <ele>268.5</ele>
        <time>2021-05-03T08:26:11Z</time>
      </trkpt>
      <trkpt lat="45.23201" lon="5.4432">
        <ele>268.3</ele>
        <time>2021-05-03T08:26:12Z</time>
      </trkpt>
      <trkpt lat="45.23193" lon="5.44316">
        <ele>268.2</ele>
        <time>2021-05-03T08:26:13Z</time>
      </trkpt>
      <trkpt lat="45.23186" lon="5.44312">
        <ele>268.1</ele>
        <time>2021-05-03T08:26:14Z</time>
      </trkpt>
      <trkpt lat="45.23178" lon="5.44309">
        <ele>267.8</ele>
        <time>2021-05-03T08:26:15Z</time>
      </trkpt>
      <trkpt lat="45.23171" lon="5.44305">
        <ele>267.5</ele>
        <time>2021-05-03T08:26:16Z</time>
      </trkpt>
      <trkpt lat="45.23163" lon="5.44301">
        <ele>267.3</ele>
        <time>2021-05-03T08:26:17Z</time>
      </trkpt>
      <trkpt lat="45.23155" lon="5.44297">
        <ele>267</ele>
        <time>2021-05-03T08:26:18Z</time>
      </trkpt>
      <trkpt lat="45.23148" lon="5.44293">
        <ele>266.7</ele>
        <time>2021-05-03T08:26:19Z</time>
      </trkpt>
      <trkpt lat="45.2314" lon="5.44288">
        <ele>266.5</ele>
        <time>2021-05-03T08:26:20Z</time>
      </trkpt>
      <trkpt lat="45.23132" lon="5.44284">
        <ele>266.2</ele>
        <time>2021-05-03T08:26:21Z</time>
      </trkpt>
      <trkpt lat="45.23125" lon="5.4428">
        <ele>265.9</ele>
        <time>2021-05-03T08:26:22Z</time>
      </trkpt>
      <trkpt lat="45.23117" lon="5.44275">
        <ele>265.6</ele>
        <time>2021-05-03T08:26:23Z</time>
      </trkpt>
      <trkpt lat="45.23108" lon="5.44271">
        <ele>265.3</ele>
        <time>2021-05-03T08:26:24Z</time>
      </trkpt>
      <trkpt lat="45.231" lon="5.44267">
        <ele>265</ele>
        <time>2021-05-03T08:26:25Z</time>
      </trkpt>
      <trkpt lat="45.23091" lon="5.44262">
        <ele>264.8</ele>
        <time>2021-05-03T08:26:26Z</time>
      </trkpt>
      <trkpt lat="45.23083" lon="5.44258">
        <ele>264.5</ele>
        <time>2021-05-03T08:26:27Z</time>
      </trkpt>
      <trkpt lat="45.23074" lon="5.44254">
        <ele>264.3</ele>
        <time>2021-05-03T08:26:28Z</time>
      </trkpt>
      <trkpt lat="45.23065" lon="5.4425">
        <ele>264</ele>
        <time>2021-05-03T08:26:29Z</time>
      </trkpt>
      <trkpt lat="45.23056" lon="5.44246">
        <ele>263.8</ele>
        <time>2021-05-03T08:26:30Z</time>
      </trkpt>
      <trkpt lat="45.23048" lon="5.44241">
        <ele>263.5</ele>
        <time>2021-05-03T08:26:31Z</time>
      </trkpt>
      <trkpt lat="45.23039" lon="5.44237">
        <ele>263.3</ele>
        <time>2021-05-03T08:26:32Z</time>
      </trkpt>
      <trkpt lat="45.2303" lon="5.44232">
        <ele>263.1</ele>
        <time>2021-05-03T08:26:33Z</time>
      </trkpt>
      <trkpt lat="45.23022" lon="5.44227">
        <ele>262.9</ele>
        <time>2021-05-03T08:26:34Z</time>
      </trkpt>
      <trkpt lat="45.23013" lon="5.44221">
        <ele>262.7</ele>
        <time>2021-05-03T08:26:35Z</time>
      </trkpt>
      <trkpt lat="45.23005" lon="5.44215">
        <ele>262.5</ele>
        <time>2021-05-03T08:26:36Z</time>
      </trkpt>
      <trkpt lat="45.22996" lon="5.44209">
        <ele>262.3</ele>
        <time>2021-05-03T08:26:37Z</time>
      </trkpt>
      <trkpt lat="45.22989" lon="5.44203">
        <ele>262.1</ele>
        <time>2021-05-03T08:26:38Z</time>
      </trkpt>
      <trkpt lat="45.22981" lon="5.44197">
        <ele>262</ele>
        <time>2021-05-03T08:26:39Z</time>
      </trkpt>
      <trkpt lat="45.22973" lon="5.44191">
        <ele>261.9</ele>
        <time>2021-05-03T08:26:40Z</time>
      </trkpt>
      <trkpt lat="45.22966" lon="5.44185">
        <ele>261.8</ele>
        <time>2021-05-03T08:26:41Z</time>
      </trkpt>
      <trkpt lat="45.22959" lon="5.44179">
        <ele>261.7</ele>
        <time>2021-05-03T08:26:42Z</time>
      </trkpt>
      <trkpt lat="45.22952" lon="5.44173">
        <ele>261.6</ele>
        <time>2021-05-03T08:26:43Z</time>
      </trkpt>
      <trkpt lat="45.22944" lon="5.44167">
        <ele>261.5</ele>
        <time>2021-05-03T08:26:44Z</time>
      </trkpt>
      <trkpt lat="45.22937" lon="5.44161">
        <ele>261.5</ele>
        <time>2021-05-03T08:26:45Z</time>
      </trkpt>
      <trkpt lat="45.2293" lon="5.44156">
        <ele>261.4</ele>
        <time>2021-05-03T08:26:46Z</time>
      </trkpt>
      <trkpt lat="45.22923" lon="5.4415">
        <ele>261.3</ele>
        <time>2021-05-03T08:26:47Z</time>
      </trkpt>
      <trkpt lat="45.22917" lon="5.44144">
        <ele>261.3</ele>
        <time>2021-05-03T08:26:48Z</time>
      </trkpt>
      <trkpt lat="45.2291" lon="5.44138">
        <ele>261.2</ele>
        <time>2021-05-03T08:26:49Z</time>
      </trkpt>
      <trkpt lat="45.22903" lon="5.44132">
        <ele>261.1</ele>
        <time>2021-05-03T08:26:50Z</time>
      </trkpt>
      <trkpt lat="45.22896" lon="5.44127">
        <ele>261.1</ele>
        <time>2021-05-03T08:26:51Z</time>
      </trkpt>
      <trkpt lat="45.22889" lon="5.44121">
        <ele>261</ele>
        <time>2021-05-03T08:26:52Z</time>
      </trkpt>
      <trkpt lat="45.22882" lon="5.44115">
        <ele>260.9</ele>
        <time>2021-05-03T08:26:53Z</time>
      </trkpt>
      <trkpt lat="45.22875" lon="5.4411">
        <ele>260.9</ele>
        <time>2021-05-03T08:26:54Z</time>
      </trkpt>
      <trkpt lat="45.22868" lon="5.44105">
        <ele>260.8</ele>
        <time>2021-05-03T08:26:55Z</time>
      </trkpt>
      <trkpt lat="45.22861" lon="5.441">
        <ele>260.7</ele>
        <time>2021-05-03T08:26:56Z</time>
      </trkpt>
      <trkpt lat="45.22853" lon="5.44094">
        <ele>260.6</ele>
        <time>2021-05-03T08:26:57Z</time>
      </trkpt>
      <trkpt lat="45.22846" lon="5.44088">
        <ele>260.5</ele>
        <time>2021-05-03T08:26:58Z</time>
      </trkpt>
      <trkpt lat="45.22839" lon="5.44082">
        <ele>260.4</ele>
        <time>2021-05-03T08:26:59Z</time>
      </trkpt>
      <trkpt lat="45.22832" lon="5.44077">
        <ele>260.3</ele>
        <time>2021-05-03T08:27:00Z</time>
      </trkpt>
      <trkpt lat="45.22825" lon="5.44072">
        <ele>260.2</ele>
        <time>2021-05-03T08:27:01Z</time>
      </trkpt>
      <trkpt lat="45.22818" lon="5.44066">
        <ele>260</ele>
        <time>2021-05-03T08:27:02Z</time>
      </trkpt>
      <trkpt lat="45.2281" lon="5.4406">
        <ele>259.9</ele>
        <time>2021-05-03T08:27:03Z</time>
      </trkpt>
      <trkpt lat="45.22803" lon="5.44054">
        <ele>259.8</ele>
        <time>2021-05-03T08:27:04Z</time>
      </trkpt>
      <trkpt lat="45.22796" lon="5.44048">
        <ele>259.7</ele>
        <time>2021-05-03T08:27:05Z</time>
      </trkpt>
      <trkpt lat="45.22789" lon="5.44042">
        <ele>259.5</ele>
        <time>2021-05-03T08:27:06Z</time>
      </trkpt>
      <trkpt lat="45.22782" lon="5.44037">
        <ele>259.4</ele>
        <time>2021-05-03T08:27:07Z</time>
      </trkpt>
      <trkpt lat="45.22776" lon="5.44032">
        <ele>259.3</ele>
        <time>2021-05-03T08:27:08Z</time>
      </trkpt>
      <trkpt lat="45.22769" lon="5.44027">
        <ele>259.2</ele>
        <time>2021-05-03T08:27:09Z</time>
      </trkpt>
      <trkpt lat="45.22762" lon="5.44022">
        <ele>259</ele>
        <time>2021-05-03T08:27:10Z</time>
      </trkpt>
      <trkpt lat="45.22756" lon="5.44016">
        <ele>258.9</ele>
        <time>2021-05-03T08:27:11Z</time>
      </trkpt>
      <trkpt lat="45.22748" lon="5.44011">
        <ele>258.7</ele>
        <time>2021-05-03T08:27:12Z</time>
      </trkpt>
      <trkpt lat="45.22741" lon="5.44008">
        <ele>258.6</ele>
        <time>2021-05-03T08:27:13Z</time>
      </trkpt>
      <trkpt lat="45.22733" lon="5.44006">
        <ele>258.4</ele>
        <time>2021-05-03T08:27:14Z</time>
      </trkpt>
      <trkpt lat="45.22725" lon="5.44005">
        <ele>258.2</ele>
        <time>2021-05-03T08:27:15Z</time>
      </trkpt>
      <trkpt lat="45.22717" lon="5.44006">
        <ele>257.9</ele>
        <time>2021-05-03T08:27:16Z</time>
      </trkpt>
      <trkpt lat="45.22709" lon="5.44008">
        <ele>257.7</ele>
        <time>2021-05-03T08:27:17Z</time>
      </trkpt>
      <trkpt lat="45.22701" lon="5.44009">
        <ele>257.5</ele>
        <time>2021-05-03T08:27:18Z</time>
      </trkpt>
      <trkpt lat="45.22694" lon="5.4401">
        <ele>257.4</ele>
        <time>2021-05-03T08:27:19Z</time>
      </trkpt>
      <trkpt lat="45.22686" lon="5.44009">
        <ele>257.2</ele>
        <time>2021-05-03T08:27:20Z</time>
      </trkpt>
      <trkpt lat="45.22679" lon="5.44005">
        <ele>257.1</ele>
        <time>2021-05-03T08:27:21Z</time>
      </trkpt>
      <trkpt lat="45.22672" lon="5.44001">
        <ele>256.9</ele>
        <time>2021-05-03T08:27:22Z</time>
      </trkpt>
      <trkpt lat="45.22665" lon="5.43998">
        <ele>256.8</ele>
        <time>2021-05-03T08:27:23Z</time>
      </trkpt>
      <trkpt lat="45.22657" lon="5.43995">
        <ele>256.7</ele>
        <time>2021-05-03T08:27:24Z</time>
      </trkpt>
      <trkpt lat="45.2265" lon="5.43993">
        <ele>256.6</ele>
        <time>2021-05-03T08:27:25Z</time>
      </trkpt>
      <trkpt lat="45.22643" lon="5.43991">
        <ele>256.4</ele>
        <time>2021-05-03T08:27:26Z</time>
      </trkpt>
      <trkpt lat="45.22635" lon="5.43989">
        <ele>256.3</ele>
        <time>2021-05-03T08:27:27Z</time>
      </trkpt>
      <trkpt lat="45.22628" lon="5.43988">
        <ele>256.1</ele>
        <time>2021-05-03T08:27:28Z</time>
      </trkpt>
      <trkpt lat="45.22622" lon="5.43987">
        <ele>255.9</ele>
        <time>2021-05-03T08:27:29Z</time>
      </trkpt>
      <trkpt lat="45.22614" lon="5.43986">
        <ele>255.7</ele>
        <time>2021-05-03T08:27:30Z</time>
      </trkpt>
      <trkpt lat="45.22605" lon="5.43986">
        <ele>255.5</ele>
        <time>2021-05-03T08:27:31Z</time>
      </trkpt>
      <trkpt lat="45.22597" lon="5.43984">
        <ele>255.3</ele>
        <time>2021-05-03T08:27:32Z</time>
      </trkpt>
      <trkpt lat="45.22589" lon="5.43983">
        <ele>255.1</ele>
        <time>2021-05-03T08:27:33Z</time>
      </trkpt>
      <trkpt lat="45.2258" lon="5.43982">
        <ele>255</ele>
        <time>2021-05-03T08:27:34Z</time>
      </trkpt>
      <trkpt lat="45.22572" lon="5.43981">
        <ele>254.8</ele>
        <time>2021-05-03T08:27:35Z</time>
      </trkpt>
      <trkpt lat="45.22564" lon="5.43981">
        <ele>254.7</ele>
        <time>2021-05-03T08:27:36Z</time>
      </trkpt>
      <trkpt lat="45.22556" lon="5.4398">
        <ele>254.5</ele>
        <time>2021-05-03T08:27:37Z</time>
      </trkpt>
      <trkpt lat="45.22547" lon="5.43979">
        <ele>254.4</ele>
        <time>2021-05-03T08:27:38Z</time>
      </trkpt>
      <trkpt lat="45.22539" lon="5.43978">
        <ele>254.4</ele>
        <time>2021-05-03T08:27:39Z</time>
      </trkpt>
      <trkpt lat="45.22531" lon="5.43977">
        <ele>254.3</ele>
        <time>2021-05-03T08:27:40Z</time>
      </trkpt>
      <trkpt lat="45.22524" lon="5.43977">
        <ele>254.3</ele>
        <time>2021-05-03T08:27:41Z</time>
      </trkpt>
      <trkpt lat="45.22516" lon="5.43977">
        <ele>254.2</ele>
        <time>2021-05-03T08:27:42Z</time>
      </trkpt>
      <trkpt lat="45.22509" lon="5.43976">
        <ele>254.2</ele>
        <time>2021-05-03T08:27:43Z</time>
      </trkpt>
      <trkpt lat="45.22502" lon="5.43975">
        <ele>254.1</ele>
        <time>2021-05-03T08:27:44Z</time>
      </trkpt>
      <trkpt lat="45.22496" lon="5.43974">
        <ele>254.1</ele>
        <time>2021-05-03T08:27:45Z</time>
      </trkpt>
      <trkpt lat="45.22488" lon="5.43973">
        <ele>254.1</ele>
        <time>2021-05-03T08:27:46Z</time>
      </trkpt>
      <trkpt lat="45.22481" lon="5.43973">
        <ele>254.1</ele>
        <time>2021-05-03T08:27:47Z</time>
      </trkpt>
      <trkpt lat="45.22474" lon="5.43972">
        <ele>254</ele>
        <time>2021-05-03T08:27:48Z</time>
      </trkpt>
      <trkpt lat="45.22467" lon="5.43971">
        <ele>254</ele>
        <time>2021-05-03T08:27:49Z</time>
      </trkpt>
      <trkpt lat="45.2246" lon="5.4397">
        <ele>254.1</ele>
        <time>2021-05-03T08:27:50Z</time>
      </trkpt>
      <trkpt lat="45.22453" lon="5.4397">
        <ele>254.1</ele>
        <time>2021-05-03T08:27:51Z</time>
      </trkpt>
      <trkpt lat="45.22446" lon="5.43971">
        <ele>254.1</ele>
        <time>2021-05-03T08:27:52Z</time>
      </trkpt>
      <trkpt lat="45.2244" lon="5.43973">
        <ele>254.2</ele>
        <time>2021-05-03T08:27:53Z</time>
      </trkpt>
      <trkpt lat="45.22435" lon="5.43974">
        <ele>254.2</ele>
        <time>2021-05-03T08:27:54Z</time>
      </trkpt>
      <trkpt lat="45.22429" lon="5.43976">
        <ele>254.3</ele>
        <time>2021-05-03T08:27:55Z</time>
      </trkpt>
      <trkpt lat="45.22422" lon="5.43977">
        <ele>254.3</ele>
        <time>2021-05-03T08:27:56Z</time>
      </trkpt>
      <trkpt lat="45.22416" lon="5.43979">
        <ele>254.4</ele>
        <time>2021-05-03T08:27:57Z</time>
      </trkpt>
      <trkpt lat="45.22411" lon="5.43979">
        <ele>254.4</ele>
        <time>2021-05-03T08:27:58Z</time>
      </trkpt>
      <trkpt lat="45.22405" lon="5.43978">
        <ele>254.5</ele>
        <time>2021-05-03T08:27:59Z</time>
      </trkpt>
      <trkpt lat="45.22401" lon="5.43978">
        <ele>254.5</ele>
        <time>2021-05-03T08:28:00Z</time>
      </trkpt>
      <trkpt lat="45.22394" lon="5.43976">
        <ele>254.7</ele>
        <time>2021-05-03T08:28:01Z</time>
      </trkpt>
      <trkpt lat="45.22386" lon="5.43974">
        <ele>254.8</ele>
        <time>2021-05-03T08:28:02Z</time>
      </trkpt>
      <trkpt lat="45.22379" lon="5.43971">
        <ele>255</ele>
        <time>2021-05-03T08:28:03Z</time>
      </trkpt>
      <trkpt lat="45.22373" lon="5.43968">
        <ele>255.2</ele>
        <time>2021-05-03T08:28:04Z</time>
      </trkpt>
      <trkpt lat="45.22367" lon="5.43965">
        <ele>255.3</ele>
        <time>2021-05-03T08:28:05Z</time>
      </trkpt>
      <trkpt lat="45.22362" lon="5.43963">
        <ele>255.5</ele>
        <time>2021-05-03T08:28:06Z</time>
      </trkpt>
      <trkpt lat="45.22359" lon="5.43961">
        <ele>255.6</ele>
        <time>2021-05-03T08:28:07Z</time>
      </trkpt>
      <trkpt lat="45.22354" lon="5.43957">
        <ele>255.6</ele>
        <time>2021-05-03T08:28:08Z</time>
      </trkpt>
      <trkpt lat="45.22349" lon="5.43954">
        <ele>255.6</ele>
        <time>2021-05-03T08:28:09Z</time>
      </trkpt>
      <trkpt lat="45.22344" lon="5.4395">
        <ele>255.7</ele>
        <time>2021-05-03T08:28:10Z</time>
      </trkpt>
      <trkpt lat="45.22341" lon="5.43948">
        <ele>255.7</ele>
        <time>2021-05-03T08:28:11Z</time>
      </trkpt>
      <trkpt lat="45.22337" lon="5.43945">
        <ele>255.8</ele>
        <time>2021-05-03T08:28:12Z</time>
      </trkpt>
      <trkpt lat="45.22334" lon="5.43942">
        <ele>255.8</ele>
        <time>2021-05-03T08:28:13Z</time>
      </trkpt>
      <trkpt lat="45.22331" lon="5.4394">
        <ele>255.8</ele>
        <time>2021-05-03T08:28:14Z</time>
      </trkpt>
      <trkpt lat="45.22328" lon="5.43937">
        <ele>255.9</ele>
        <time>2021-05-03T08:28:15Z</time>
      </trkpt>
      <trkpt lat="45.22325" lon="5.43935">
        <ele>255.9</ele>
        <time>2021-05-03T08:28:16Z</time>
      </trkpt>
      <trkpt lat="45.22324" lon="5.43934">
        <ele>255.9</ele>
        <time>2021-05-03T08:28:17Z</time>
      </trkpt>
      <trkpt lat="45.22321" lon="5.4393">
        <ele>255.9</ele>
        <time>2021-05-03T08:28:18Z</time>
      </trkpt>
      <trkpt lat="45.22318" lon="5.43924">
        <ele>256.1</ele>
        <time>2021-05-03T08:28:19Z</time>
      </trkpt>
      <trkpt lat="45.22315" lon="5.43915">
        <ele>256.4</ele>
        <time>2021-05-03T08:28:21Z</time>
      </trkpt>
      <trkpt lat="45.22312" lon="5.4391">
        <ele>256.5</ele>
        <time>2021-05-03T08:28:22Z</time>
      </trkpt>
      <trkpt lat="45.22309" lon="5.43903">
        <ele>256.8</ele>
        <time>2021-05-03T08:28:24Z</time>
      </trkpt>
      <trkpt lat="45.22306" lon="5.43898">
        <ele>256.8</ele>
        <time>2021-05-03T08:28:25Z</time>
      </trkpt>
      <trkpt lat="45.22303" lon="5.43894">
        <ele>257</ele>
        <time>2021-05-03T08:28:26Z</time>
      </trkpt>
      <trkpt lat="45.22298" lon="5.43888">
        <ele>257.1</ele>
        <time>2021-05-03T08:28:28Z</time>
      </trkpt>
      <trkpt lat="45.2229" lon="5.43882">
        <ele>257.3</ele>
        <time>2021-05-03T08:28:30Z</time>
      </trkpt>
      <trkpt lat="45.22281" lon="5.43875">
        <ele>257.6</ele>
        <time>2021-05-03T08:28:32Z</time>
      </trkpt>
      <trkpt lat="45.22278" lon="5.43871">
        <ele>257.7</ele>
        <time>2021-05-03T08:28:33Z</time>
      </trkpt>
      <trkpt lat="45.22276" lon="5.43867">
        <ele>257.8</ele>
        <time>2021-05-03T08:28:34Z</time>
      </trkpt>
      <trkpt lat="45.22276" lon="5.43865">
        <ele>257.9</ele>
        <time>2021-05-03T08:28:35Z</time>
      </trkpt>
      <trkpt lat="45.22264" lon="5.43859">
        <ele>258.2</ele>
        <time>2021-05-03T08:28:37Z</time>
      </trkpt>
      <trkpt lat="45.22259" lon="5.43855">
        <ele>258.3</ele>
        <time>2021-05-03T08:28:38Z</time>
      </trkpt>
      <trkpt lat="45.22255" lon="5.43852">
        <ele>258.4</ele>
        <time>2021-05-03T08:28:39Z</time>
      </trkpt>
      <trkpt lat="45.22251" lon="5.43848">
        <ele>258.4</ele>
        <time>2021-05-03T08:28:40Z</time>
      </trkpt>
      <trkpt lat="45.22248" lon="5.43845">
        <ele>258.5</ele>
        <time>2021-05-03T08:28:41Z</time>
      </trkpt>
      <trkpt lat="45.22243" lon="5.43841">
        <ele>258.6</ele>
        <time>2021-05-03T08:28:42Z</time>
      </trkpt>
      <trkpt lat="45.22238" lon="5.43836">
        <ele>258.7</ele>
        <time>2021-05-03T08:28:43Z</time>
      </trkpt>
      <trkpt lat="45.22231" lon="5.43831">
        <ele>258.9</ele>
        <time>2021-05-03T08:28:45Z</time>
      </trkpt>
      <trkpt lat="45.22228" lon="5.43828">
        <ele>259</ele>
        <time>2021-05-03T08:28:46Z</time>
      </trkpt>
      <trkpt lat="45.22224" lon="5.43825">
        <ele>259.1</ele>
        <time>2021-05-03T08:28:47Z</time>
      </trkpt>
      <trkpt lat="45.22222" lon="5.43823">
        <ele>259.1</ele>
        <time>2021-05-03T08:28:48Z</time>
      </trkpt>
      <trkpt lat="45.22213" lon="5.43815">
        <ele>259.4</ele>
        <time>2021-05-03T08:28:50Z</time>
      </trkpt>
      <trkpt lat="45.22207" lon="5.43806">
        <ele>259.6</ele>
        <time>2021-05-03T08:28:52Z</time>
      </trkpt>
      <trkpt lat="45.22203" lon="5.43802">
        <ele>259.7</ele>
        <time>2021-05-03T08:28:53Z</time>
      </trkpt>
      <trkpt lat="45.22199" lon="5.43798">
        <ele>259.8</ele>
        <time>2021-05-03T08:28:54Z</time>
      </trkpt>
      <trkpt lat="45.22195" lon="5.43794">
        <ele>259.9</ele>
        <time>2021-05-03T08:28:55Z</time>
      </trkpt>
      <trkpt lat="45.22192" lon="5.43789">
        <ele>260</ele>
        <time>2021-05-03T08:28:56Z</time>
      </trkpt>
      <trkpt lat="45.22188" lon="5.43786">
        <ele>260.1</ele>
        <time>2021-05-03T08:28:57Z</time>
      </trkpt>
      <trkpt lat="45.22185" lon="5.43782">
        <ele>260.1</ele>
        <time>2021-05-03T08:28:58Z</time>
      </trkpt>
      <trkpt lat="45.22178" lon="5.43773">
        <ele>260.3</ele>
        <time>2021-05-03T08:29:00Z</time>
      </trkpt>
      <trkpt lat="45.22174" lon="5.43769">
        <ele>260.4</ele>
        <time>2021-05-03T08:29:01Z</time>
      </trkpt>
      <trkpt lat="45.22171" lon="5.43766">
        <ele>260.5</ele>
        <time>2021-05-03T08:29:02Z</time>
      </trkpt>
      <trkpt lat="45.22167" lon="5.43762">
        <ele>260.6</ele>
        <time>2021-05-03T08:29:03Z</time>
      </trkpt>
      <trkpt lat="45.22163" lon="5.43759">
        <ele>260.7</ele>
        <time>2021-05-03T08:29:04Z</time>
      </trkpt>
      <trkpt lat="45.22159" lon="5.43755">
        <ele>260.8</ele>
        <time>2021-05-03T08:29:05Z</time>
      </trkpt>
      <trkpt lat="45.22155" lon="5.43752">
        <ele>260.9</ele>
        <time>2021-05-03T08:29:06Z</time>
      </trkpt>
      <trkpt lat="45.22151" lon="5.43748">
        <ele>261</ele>
        <time>2021-05-03T08:29:07Z</time>
      </trkpt>
      <trkpt lat="45.22146" lon="5.43743">
        <ele>261.2</ele>
        <time>2021-05-03T08:29:08Z</time>
      </trkpt>
      <trkpt lat="45.22141" lon="5.43736">
        <ele>261.3</ele>
        <time>2021-05-03T08:29:10Z</time>
      </trkpt>
      <trkpt lat="45.22132" lon="5.43731">
        <ele>261.6</ele>
        <time>2021-05-03T08:29:12Z</time>
      </trkpt>
      <trkpt lat="45.22124" lon="5.43725">
        <ele>261.9</ele>
        <time>2021-05-03T08:29:14Z</time>
      </trkpt>
      <trkpt lat="45.2212" lon="5.43721">
        <ele>262</ele>
        <time>2021-05-03T08:29:15Z</time>
      </trkpt>
      <trkpt lat="45.22116" lon="5.43717">
        <ele>262.2</ele>
        <time>2021-05-03T08:29:16Z</time>
      </trkpt>
      <trkpt lat="45.22111" lon="5.43713">
        <ele>262.3</ele>
        <time>2021-05-03T08:29:17Z</time>
      </trkpt>
      <trkpt lat="45.22107" lon="5.4371">
        <ele>262.4</ele>
        <time>2021-05-03T08:29:18Z</time>
      </trkpt>
      <trkpt lat="45.22104" lon="5.43707">
        <ele>262.5</ele>
        <time>2021-05-03T08:29:19Z</time>
      </trkpt>
      <trkpt lat="45.221" lon="5.43703">
        <ele>262.6</ele>
        <time>2021-05-03T08:29:20Z</time>
      </trkpt>
      <trkpt lat="45.22096" lon="5.43699">
        <ele>262.8</ele>
        <time>2021-05-03T08:29:21Z</time>
      </trkpt>
      <trkpt lat="45.22092" lon="5.43695">
        <ele>262.9</ele>
        <time>2021-05-03T08:29:22Z</time>
      </trkpt>
      <trkpt lat="45.22089" lon="5.43691">
        <ele>263</ele>
        <time>2021-05-03T08:29:23Z</time>
      </trkpt>
      <trkpt lat="45.22085" lon="5.43687">
        <ele>263.1</ele>
        <time>2021-05-03T08:29:24Z</time>
      </trkpt>
      <trkpt lat="45.22081" lon="5.43683">
        <ele>263.2</ele>
        <time>2021-05-03T08:29:25Z</time>
      </trkpt>
      <trkpt lat="45.22077" lon="5.43679">
        <ele>263.3</ele>
        <time>2021-05-03T08:29:26Z</time>
      </trkpt>
      <trkpt lat="45.22073" lon="5.43675">
        <ele>263.4</ele>
        <time>2021-05-03T08:29:27Z</time>
      </trkpt>
      <trkpt lat="45.22069" lon="5.43671">
        <ele>263.4</ele>
        <time>2021-05-03T08:29:28Z</time>
      </trkpt>
      <trkpt lat="45.22065" lon="5.43667">
        <ele>263.5</ele>
        <time>2021-05-03T08:29:29Z</time>
      </trkpt>
      <trkpt lat="45.22061" lon="5.43664">
        <ele>263.7</ele>
        <time>2021-05-03T08:29:30Z</time>
      </trkpt>
      <trkpt lat="45.22058" lon="5.43661">
        <ele>263.7</ele>
        <time>2021-05-03T08:29:31Z</time>
      </trkpt>
      <trkpt lat="45.22055" lon="5.43658">
        <ele>263.8</ele>
        <time>2021-05-03T08:29:32Z</time>
      </trkpt>
      <trkpt lat="45.22051" lon="5.43655">
        <ele>263.9</ele>
        <time>2021-05-03T08:29:33Z</time>
      </trkpt>
      <trkpt lat="45.22048" lon="5.43651">
        <ele>264</ele>
        <time>2021-05-03T08:29:34Z</time>
      </trkpt>
      <trkpt lat="45.22044" lon="5.43649">
        <ele>264.1</ele>
        <time>2021-05-03T08:29:35Z</time>
      </trkpt>
      <trkpt lat="45.2204" lon="5.43645">
        <ele>264.3</ele>
        <time>2021-05-03T08:29:36Z</time>
      </trkpt>
      <trkpt lat="45.22035" lon="5.43641">
        <ele>264.4</ele>
        <time>2021-05-03T08:29:37Z</time>
      </trkpt>
      <trkpt lat="45.22031" lon="5.43638">
        <ele>264.5</ele>
        <time>2021-05-03T08:29:38Z</time>
      </trkpt>
      <trkpt lat="45.22029" lon="5.4363">
        <ele>264.6</ele>
        <time>2021-05-03T08:29:39Z</time>
      </trkpt>
      <trkpt lat="45.22021" lon="5.43627">
        <ele>264.8</ele>
        <time>2021-05-03T08:29:40Z</time>
      </trkpt>
      <trkpt lat="45.22024" lon="5.43627">
        <ele>264.9</ele>
        <time>2021-05-03T08:29:41Z</time>
      </trkpt>
      <trkpt lat="45.22021" lon="5.43623">
        <ele>265</ele>
        <time>2021-05-03T08:29:43Z</time>
      </trkpt>
      <trkpt lat="45.22013" lon="5.43618">
        <ele>265.1</ele>
        <time>2021-05-03T08:29:44Z</time>
      </trkpt>
      <trkpt lat="45.22002" lon="5.4361">
        <ele>265.3</ele>
        <time>2021-05-03T08:29:46Z</time>
      </trkpt>
      <trkpt lat="45.21998" lon="5.43608">
        <ele>265.4</ele>
        <time>2021-05-03T08:29:47Z</time>
      </trkpt>
      <trkpt lat="45.21991" lon="5.43601">
        <ele>265.5</ele>
        <time>2021-05-03T08:29:49Z</time>
      </trkpt>
      <trkpt lat="45.21986" lon="5.43597">
        <ele>265.6</ele>
        <time>2021-05-03T08:29:50Z</time>
      </trkpt>
      <trkpt lat="45.21981" lon="5.43594">
        <ele>265.6</ele>
        <time>2021-05-03T08:29:51Z</time>
      </trkpt>
      <trkpt lat="45.21977" lon="5.4359">
        <ele>265.7</ele>
        <time>2021-05-03T08:29:52Z</time>
      </trkpt>
      <trkpt lat="45.21973" lon="5.43586">
        <ele>265.7</ele>
        <time>2021-05-03T08:29:53Z</time>
      </trkpt>
      <trkpt lat="45.21969" lon="5.43583">
        <ele>265.8</ele>
        <time>2021-05-03T08:29:54Z</time>
      </trkpt>
      <trkpt lat="45.21965" lon="5.4358">
        <ele>265.8</ele>
        <time>2021-05-03T08:29:55Z</time>
      </trkpt>
      <trkpt lat="45.21961" lon="5.43577">
        <ele>265.9</ele>
        <time>2021-05-03T08:29:56Z</time>
      </trkpt>
      <trkpt lat="45.21957" lon="5.43572">
        <ele>265.9</ele>
        <time>2021-05-03T08:29:57Z</time>
      </trkpt>
      <trkpt lat="45.21952" lon="5.43568">
        <ele>265.9</ele>
        <time>2021-05-03T08:29:58Z</time>
      </trkpt>
      <trkpt lat="45.21948" lon="5.43564">
        <ele>265.9</ele>
        <time>2021-05-03T08:29:59Z</time>
      </trkpt>
      <trkpt lat="45.21944" lon="5.4356">
        <ele>265.9</ele>
        <time>2021-05-03T08:30:00Z</time>
      </trkpt>
      <trkpt lat="45.21939" lon="5.43557">
        <ele>265.9</ele>
        <time>2021-05-03T08:30:01Z</time>
      </trkpt>
      <trkpt lat="45.21935" lon="5.43553">
        <ele>265.9</ele>
        <time>2021-05-03T08:30:02Z</time>
      </trkpt>
      <trkpt lat="45.21931" lon="5.43549">
        <ele>265.9</ele>
        <time>2021-05-03T08:30:03Z</time>
      </trkpt>
      <trkpt lat="45.21927" lon="5.43545">
        <ele>265.9</ele>
        <time>2021-05-03T08:30:04Z</time>
      </trkpt>
      <trkpt lat="45.21922" lon="5.4354">
        <ele>265.9</ele>
        <time>2021-05-03T08:30:05Z</time>
      </trkpt>
      <trkpt lat="45.21917" lon="5.43536">
        <ele>265.9</ele>
        <time>2021-05-03T08:30:06Z</time>
      </trkpt>
      <trkpt lat="45.21913" lon="5.43532">
        <ele>265.9</ele>
        <time>2021-05-03T08:30:07Z</time>
      </trkpt>
      <trkpt lat="45.21908" lon="5.43529">
        <ele>265.9</ele>
        <time>2021-05-03T08:30:08Z</time>
      </trkpt>
      <trkpt lat="45.21904" lon="5.43525">
        <ele>265.9</ele>
        <time>2021-05-03T08:30:09Z</time>
      </trkpt>
      <trkpt lat="45.21899" lon="5.43521">
        <ele>265.9</ele>
        <time>2021-05-03T08:30:10Z</time>
      </trkpt>
      <trkpt lat="45.21895" lon="5.43516">
        <ele>265.9</ele>
        <time>2021-05-03T08:30:11Z</time>
      </trkpt>
      <trkpt lat="45.2189" lon="5.43512">
        <ele>265.9</ele>
        <time>2021-05-03T08:30:12Z</time>
      </trkpt>
      <trkpt lat="45.21885" lon="5.43508">
        <ele>265.8</ele>
        <time>2021-05-03T08:30:13Z</time>
      </trkpt>
      <trkpt lat="45.21881" lon="5.43504">
        <ele>265.8</ele>
        <time>2021-05-03T08:30:14Z</time>
      </trkpt>
      <trkpt lat="45.21876" lon="5.43499">
        <ele>265.8</ele>
        <time>2021-05-03T08:30:15Z</time>
      </trkpt>
      <trkpt lat="45.21872" lon="5.43495">
        <ele>265.7</ele>
        <time>2021-05-03T08:30:16Z</time>
      </trkpt>
      <trkpt lat="45.21868" lon="5.4349">
        <ele>265.7</ele>
        <time>2021-05-03T08:30:17Z</time>
      </trkpt>
      <trkpt lat="45.21863" lon="5.43485">
        <ele>265.6</ele>
        <time>2021-05-03T08:30:18Z</time>
      </trkpt>
      <trkpt lat="45.21858" lon="5.4348">
        <ele>265.5</ele>
        <time>2021-05-03T08:30:19Z</time>
      </trkpt>
      <trkpt lat="45.21854" lon="5.43474">
        <ele>265.5</ele>
        <time>2021-05-03T08:30:20Z</time>
      </trkpt>
      <trkpt lat="45.2185" lon="5.43468">
        <ele>265.4</ele>
        <time>2021-05-03T08:30:21Z</time>
      </trkpt>
      <trkpt lat="45.21845" lon="5.43462">
        <ele>265.3</ele>
        <time>2021-05-03T08:30:22Z</time>
      </trkpt>
      <trkpt lat="45.21841" lon="5.43456">
        <ele>265.2</ele>
        <time>2021-05-03T08:30:23Z</time>
      </trkpt>
      <trkpt lat="45.21836" lon="5.4345">
        <ele>265.1</ele>
        <time>2021-05-03T08:30:24Z</time>
      </trkpt>
      <trkpt lat="45.21832" lon="5.43443">
        <ele>265.1</ele>
        <time>2021-05-03T08:30:25Z</time>
      </trkpt>
      <trkpt lat="45.21828" lon="5.43437">
        <ele>265</ele>
        <time>2021-05-03T08:30:26Z</time>
      </trkpt>
      <trkpt lat="45.21824" lon="5.43431">
        <ele>264.9</ele>
        <time>2021-05-03T08:30:27Z</time>
      </trkpt>
      <trkpt lat="45.21819" lon="5.43425">
        <ele>264.8</ele>
        <time>2021-05-03T08:30:28Z</time>
      </trkpt>
      <trkpt lat="45.21815" lon="5.43418">
        <ele>264.8</ele>
        <time>2021-05-03T08:30:29Z</time>
      </trkpt>
      <trkpt lat="45.2181" lon="5.43412">
        <ele>264.7</ele>
        <time>2021-05-03T08:30:30Z</time>
      </trkpt>
      <trkpt lat="45.21806" lon="5.43405">
        <ele>264.7</ele>
        <time>2021-05-03T08:30:31Z</time>
      </trkpt>
      <trkpt lat="45.21802" lon="5.43399">
        <ele>264.6</ele>
        <time>2021-05-03T08:30:32Z</time>
      </trkpt>
      <trkpt lat="45.21798" lon="5.43392">
        <ele>264.6</ele>
        <time>2021-05-03T08:30:33Z</time>
      </trkpt>
      <trkpt lat="45.21794" lon="5.43385">
        <ele>264.6</ele>
        <time>2021-05-03T08:30:34Z</time>
      </trkpt>
      <trkpt lat="45.2179" lon="5.43378">
        <ele>264.5</ele>
        <time>2021-05-03T08:30:35Z</time>
      </trkpt>
      <trkpt lat="45.21786" lon="5.43371">
        <ele>264.5</ele>
        <time>2021-05-03T08:30:36Z</time>
      </trkpt>
      <trkpt lat="45.21782" lon="5.43364">
        <ele>264.5</ele>
        <time>2021-05-03T08:30:37Z</time>
      </trkpt>
      <trkpt lat="45.21778" lon="5.43358">
        <ele>264.5</ele>
        <time>2021-05-03T08:30:38Z</time>
      </trkpt>
      <trkpt lat="45.21774" lon="5.43351">
        <ele>264.5</ele>
        <time>2021-05-03T08:30:39Z</time>
      </trkpt>
      <trkpt lat="45.21771" lon="5.43344">
        <ele>264.5</ele>
        <time>2021-05-03T08:30:40Z</time>
      </trkpt>
      <trkpt lat="45.21768" lon="5.43337">
        <ele>264.6</ele>
        <time>2021-05-03T08:30:41Z</time>
      </trkpt>
      <trkpt lat="45.21764" lon="5.4333">
        <ele>264.6</ele>
        <time>2021-05-03T08:30:42Z</time>
      </trkpt>
      <trkpt lat="45.21761" lon="5.43323">
        <ele>264.6</ele>
        <time>2021-05-03T08:30:43Z</time>
      </trkpt>
      <trkpt lat="45.21758" lon="5.43316">
        <ele>264.6</ele>
        <time>2021-05-03T08:30:44Z</time>
      </trkpt>
      <trkpt lat="45.21756" lon="5.43308">
        <ele>264.7</ele>
        <time>2021-05-03T08:30:45Z</time>
      </trkpt>
      <trkpt lat="45.21753" lon="5.43301">
        <ele>264.7</ele>
        <time>2021-05-03T08:30:46Z</time>
      </trkpt>
      <trkpt lat="45.21751" lon="5.43293">
        <ele>264.8</ele>
        <time>2021-05-03T08:30:47Z</time>
      </trkpt>
      <trkpt lat="45.21748" lon="5.43286">
        <ele>264.9</ele>
        <time>2021-05-03T08:30:48Z</time>
      </trkpt>
      <trkpt lat="45.21746" lon="5.43278">
        <ele>265</ele>
        <time>2021-05-03T08:30:49Z</time>
      </trkpt>
      <trkpt lat="45.21744" lon="5.43271">
        <ele>265.1</ele>
        <time>2021-05-03T08:30:50Z</time>
      </trkpt>
      <trkpt lat="45.21742" lon="5.43264">
        <ele>265.1</ele>
        <time>2021-05-03T08:30:51Z</time>
      </trkpt>
      <trkpt lat="45.2174" lon="5.43257">
        <ele>265.2</ele>
        <time>2021-05-03T08:30:52Z</time>
      </trkpt>
      <trkpt lat="45.21738" lon="5.4325">
        <ele>265.3</ele>
        <time>2021-05-03T08:30:53Z</time>
      </trkpt>
      <trkpt lat="45.21736" lon="5.43243">
        <ele>265.4</ele>
        <time>2021-05-03T08:30:54Z</time>
      </trkpt>
      <trkpt lat="45.21734" lon="5.43236">
        <ele>265.5</ele>
        <time>2021-05-03T08:30:55Z</time>
      </trkpt>
      <trkpt lat="45.21732" lon="5.43229">
        <ele>265.6</ele>
        <time>2021-05-03T08:30:56Z</time>
      </trkpt>
      <trkpt lat="45.2173" lon="5.43221">
        <ele>265.7</ele>
        <time>2021-05-03T08:30:57Z</time>
      </trkpt>
      <trkpt lat="45.21728" lon="5.43214">
        <ele>265.8</ele>
        <time>2021-05-03T08:30:58Z</time>
      </trkpt>
      <trkpt lat="45.21726" lon="5.43207">
        <ele>265.9</ele>
        <time>2021-05-03T08:30:59Z</time>
      </trkpt>
      <trkpt lat="45.21724" lon="5.432">
        <ele>266</ele>
        <time>2021-05-03T08:31:00Z</time>
      </trkpt>
      <trkpt lat="45.21722" lon="5.43194">
        <ele>266.1</ele>
        <time>2021-05-03T08:31:01Z</time>
      </trkpt>
      <trkpt lat="45.2172" lon="5.43187">
        <ele>266.2</ele>
        <time>2021-05-03T08:31:02Z</time>
      </trkpt>
      <trkpt lat="45.21719" lon="5.4318">
        <ele>266.4</ele>
        <time>2021-05-03T08:31:03Z</time>
      </trkpt>
      <trkpt lat="45.21717" lon="5.43173">
        <ele>266.5</ele>
        <time>2021-05-03T08:31:04Z</time>
      </trkpt>
      <trkpt lat="45.21715" lon="5.43167">
        <ele>266.6</ele>
        <time>2021-05-03T08:31:05Z</time>
      </trkpt>
      <trkpt lat="45.21713" lon="5.4316">
        <ele>266.7</ele>
        <time>2021-05-03T08:31:06Z</time>
      </trkpt>
      <trkpt lat="45.21712" lon="5.43154">
        <ele>266.9</ele>
        <time>2021-05-03T08:31:07Z</time>
      </trkpt>
      <trkpt lat="45.2171" lon="5.43147">
        <ele>267</ele>
        <time>2021-05-03T08:31:08Z</time>
      </trkpt>
      <trkpt lat="45.21708" lon="5.43141">
        <ele>267.1</ele>
        <time>2021-05-03T08:31:09Z</time>
      </trkpt>
      <trkpt lat="45.21706" lon="5.43135">
        <ele>267.3</ele>
        <time>2021-05-03T08:31:10Z</time>
      </trkpt>
      <trkpt lat="45.21705" lon="5.43128">
        <ele>267.4</ele>
        <time>2021-05-03T08:31:11Z</time>
      </trkpt>
      <trkpt lat="45.21703" lon="5.43121">
        <ele>267.6</ele>
        <time>2021-05-03T08:31:12Z</time>
      </trkpt>
      <trkpt lat="45.21701" lon="5.43114">
        <ele>267.7</ele>
        <time>2021-05-03T08:31:13Z</time>
      </trkpt>
      <trkpt lat="45.21699" lon="5.43107">
        <ele>267.8</ele>
        <time>2021-05-03T08:31:14Z</time>
      </trkpt>
      <trkpt lat="45.21697" lon="5.431">
        <ele>267.9</ele>
        <time>2021-05-03T08:31:15Z</time>
      </trkpt>
      <trkpt lat="45.21695" lon="5.43094">
        <ele>268.1</ele>
        <time>2021-05-03T08:31:16Z</time>
      </trkpt>
      <trkpt lat="45.21693" lon="5.43087">
        <ele>268.2</ele>
        <time>2021-05-03T08:31:17Z</time>
      </trkpt>
      <trkpt lat="45.21691" lon="5.4308">
        <ele>268.3</ele>
        <time>2021-05-03T08:31:18Z</time>
      </trkpt>
      <trkpt lat="45.2169" lon="5.43073">
        <ele>268.4</ele>
        <time>2021-05-03T08:31:19Z</time>
      </trkpt>
      <trkpt lat="45.21688" lon="5.43067">
        <ele>268.6</ele>
        <time>2021-05-03T08:31:20Z</time>
      </trkpt>
      <trkpt lat="45.21686" lon="5.4306">
        <ele>268.7</ele>
        <time>2021-05-03T08:31:21Z</time>
      </trkpt>
      <trkpt lat="45.21684" lon="5.43053">
        <ele>268.7</ele>
        <time>2021-05-03T08:31:22Z</time>
      </trkpt>
      <trkpt lat="45.21682" lon="5.43047">
        <ele>268.8</ele>
        <time>2021-05-03T08:31:23Z</time>
      </trkpt>
      <trkpt lat="45.2168" lon="5.4304">
        <ele>268.9</ele>
        <time>2021-05-03T08:31:24Z</time>
      </trkpt>
      <trkpt lat="45.21678" lon="5.43033">
        <ele>269</ele>
        <time>2021-05-03T08:31:25Z</time>
      </trkpt>
      <trkpt lat="45.21676" lon="5.43027">
        <ele>269.1</ele>
        <time>2021-05-03T08:31:26Z</time>
      </trkpt>
      <trkpt lat="45.21674" lon="5.4302">
        <ele>269.2</ele>
        <time>2021-05-03T08:31:27Z</time>
      </trkpt>
      <trkpt lat="45.21672" lon="5.43014">
        <ele>269.4</ele>
        <time>2021-05-03T08:31:28Z</time>
      </trkpt>
      <trkpt lat="45.21671" lon="5.43008">
        <ele>269.4</ele>
        <time>2021-05-03T08:31:29Z</time>
      </trkpt>
      <trkpt lat="45.21669" lon="5.43001">
        <ele>269.5</ele>
        <time>2021-05-03T08:31:30Z</time>
      </trkpt>
      <trkpt lat="45.21667" lon="5.42995">
        <ele>269.6</ele>
        <time>2021-05-03T08:31:31Z</time>
      </trkpt>
      <trkpt lat="45.21665" lon="5.42989">
        <ele>269.7</ele>
        <time>2021-05-03T08:31:32Z</time>
      </trkpt>
      <trkpt lat="45.21664" lon="5.42982">
        <ele>269.8</ele>
        <time>2021-05-03T08:31:33Z</time>
      </trkpt>
      <trkpt lat="45.21662" lon="5.42976">
        <ele>269.9</ele>
        <time>2021-05-03T08:31:34Z</time>
      </trkpt>
      <trkpt lat="45.2166" lon="5.4297">
        <ele>270</ele>
        <time>2021-05-03T08:31:35Z</time>
      </trkpt>
      <trkpt lat="45.21658" lon="5.42966">
        <ele>270.1</ele>
        <time>2021-05-03T08:31:36Z</time>
      </trkpt>
      <trkpt lat="45.21657" lon="5.42959">
        <ele>270.2</ele>
        <time>2021-05-03T08:31:37Z</time>
      </trkpt>
      <trkpt lat="45.21656" lon="5.42955">
        <ele>270.2</ele>
        <time>2021-05-03T08:31:38Z</time>
      </trkpt>
      <trkpt lat="45.21655" lon="5.42948">
        <ele>270.3</ele>
        <time>2021-05-03T08:31:39Z</time>
      </trkpt>
      <trkpt lat="45.21654" lon="5.42942">
        <ele>270.4</ele>
        <time>2021-05-03T08:31:40Z</time>
      </trkpt>
      <trkpt lat="45.21653" lon="5.42938">
        <ele>270.5</ele>
        <time>2021-05-03T08:31:41Z</time>
      </trkpt>
      <trkpt lat="45.21652" lon="5.42934">
        <ele>270.6</ele>
        <time>2021-05-03T08:31:42Z</time>
      </trkpt>
      <trkpt lat="45.2165" lon="5.42927">
        <ele>270.7</ele>
        <time>2021-05-03T08:31:43Z</time>
      </trkpt>
      <trkpt lat="45.21646" lon="5.42913">
        <ele>270.8</ele>
        <time>2021-05-03T08:31:45Z</time>
      </trkpt>
      <trkpt lat="45.21645" lon="5.42907">
        <ele>270.9</ele>
        <time>2021-05-03T08:31:46Z</time>
      </trkpt>
      <trkpt lat="45.21643" lon="5.429">
        <ele>271</ele>
        <time>2021-05-03T08:31:47Z</time>
      </trkpt>
      <trkpt lat="45.21642" lon="5.42894">
        <ele>271.1</ele>
        <time>2021-05-03T08:31:48Z</time>
      </trkpt>
      <trkpt lat="45.2164" lon="5.42888">
        <ele>271.1</ele>
        <time>2021-05-03T08:31:49Z</time>
      </trkpt>
      <trkpt lat="45.21638" lon="5.42882">
        <ele>271.2</ele>
        <time>2021-05-03T08:31:50Z</time>
      </trkpt>
      <trkpt lat="45.21636" lon="5.42876">
        <ele>271.2</ele>
        <time>2021-05-03T08:31:51Z</time>
      </trkpt>
      <trkpt lat="45.21634" lon="5.4287">
        <ele>271.3</ele>
        <time>2021-05-03T08:31:52Z</time>
      </trkpt>
      <trkpt lat="45.21631" lon="5.42863">
        <ele>271.3</ele>
        <time>2021-05-03T08:31:53Z</time>
      </trkpt>
      <trkpt lat="45.2163" lon="5.42857">
        <ele>271.3</ele>
        <time>2021-05-03T08:31:54Z</time>
      </trkpt>
      <trkpt lat="45.21628" lon="5.4285">
        <ele>271.3</ele>
        <time>2021-05-03T08:31:55Z</time>
      </trkpt>
      <trkpt lat="45.21626" lon="5.42844">
        <ele>271.3</ele>
        <time>2021-05-03T08:31:56Z</time>
      </trkpt>
      <trkpt lat="45.21624" lon="5.42837">
        <ele>271.3</ele>
        <time>2021-05-03T08:31:57Z</time>
      </trkpt>
      <trkpt lat="45.21622" lon="5.4283">
        <ele>271.3</ele>
        <time>2021-05-03T08:31:58Z</time>
      </trkpt>
      <trkpt lat="45.2162" lon="5.42822">
        <ele>271.2</ele>
        <time>2021-05-03T08:31:59Z</time>
      </trkpt>
      <trkpt lat="45.21618" lon="5.42814">
        <ele>271.1</ele>
        <time>2021-05-03T08:32:00Z</time>
      </trkpt>
      <trkpt lat="45.21616" lon="5.42806">
        <ele>271</ele>
        <time>2021-05-03T08:32:01Z</time>
      </trkpt>
      <trkpt lat="45.21614" lon="5.42797">
        <ele>270.9</ele>
        <time>2021-05-03T08:32:02Z</time>
      </trkpt>
      <trkpt lat="45.21612" lon="5.42788">
        <ele>270.8</ele>
        <time>2021-05-03T08:32:03Z</time>
      </trkpt>
      <trkpt lat="45.2161" lon="5.42779">
        <ele>270.7</ele>
        <time>2021-05-03T08:32:04Z</time>
      </trkpt>
      <trkpt lat="45.21607" lon="5.4277">
        <ele>270.6</ele>
        <time>2021-05-03T08:32:05Z</time>
      </trkpt>
      <trkpt lat="45.21605" lon="5.42761">
        <ele>270.5</ele>
        <time>2021-05-03T08:32:06Z</time>
      </trkpt>
      <trkpt lat="45.21603" lon="5.42753">
        <ele>270.4</ele>
        <time>2021-05-03T08:32:07Z</time>
      </trkpt>
      <trkpt lat="45.21601" lon="5.42744">
        <ele>270.3</ele>
        <time>2021-05-03T08:32:08Z</time>
      </trkpt>
      <trkpt lat="45.21598" lon="5.42735">
        <ele>270.2</ele>
        <time>2021-05-03T08:32:09Z</time>
      </trkpt>
      <trkpt lat="45.21595" lon="5.42726">
        <ele>270.1</ele>
        <time>2021-05-03T08:32:10Z</time>
      </trkpt>
      <trkpt lat="45.21592" lon="5.42717">
        <ele>270.1</ele>
        <time>2021-05-03T08:32:11Z</time>
      </trkpt>
      <trkpt lat="45.21589" lon="5.42709">
        <ele>270</ele>
        <time>2021-05-03T08:32:12Z</time>
      </trkpt>
      <trkpt lat="45.21586" lon="5.42701">
        <ele>270</ele>
        <time>2021-05-03T08:32:13Z</time>
      </trkpt>
      <trkpt lat="45.21583" lon="5.42692">
        <ele>269.9</ele>
        <time>2021-05-03T08:32:14Z</time>
      </trkpt>
      <trkpt lat="45.2158" lon="5.42683">
        <ele>269.9</ele>
        <time>2021-05-03T08:32:15Z</time>
      </trkpt>
      <trkpt lat="45.21576" lon="5.42674">
        <ele>269.8</ele>
        <time>2021-05-03T08:32:16Z</time>
      </trkpt>
      <trkpt lat="45.21573" lon="5.42665">
        <ele>269.8</ele>
        <time>2021-05-03T08:32:17Z</time>
      </trkpt>
      <trkpt lat="45.2157" lon="5.42656">
        <ele>269.7</ele>
        <time>2021-05-03T08:32:18Z</time>
      </trkpt>
      <trkpt lat="45.21566" lon="5.42647">
        <ele>269.6</ele>
        <time>2021-05-03T08:32:19Z</time>
      </trkpt>
      <trkpt lat="45.21563" lon="5.42639">
        <ele>269.6</ele>
        <time>2021-05-03T08:32:20Z</time>
      </trkpt>
      <trkpt lat="45.2156" lon="5.4263">
        <ele>269.6</ele>
        <time>2021-05-03T08:32:21Z</time>
      </trkpt>
      <trkpt lat="45.21557" lon="5.42621">
        <ele>269.5</ele>
        <time>2021-05-03T08:32:22Z</time>
      </trkpt>
      <trkpt lat="45.21554" lon="5.42612">
        <ele>269.5</ele>
        <time>2021-05-03T08:32:23Z</time>
      </trkpt>
      <trkpt lat="45.21551" lon="5.42604">
        <ele>269.4</ele>
        <time>2021-05-03T08:32:24Z</time>
      </trkpt>
      <trkpt lat="45.21548" lon="5.42596">
        <ele>269.4</ele>
        <time>2021-05-03T08:32:25Z</time>
      </trkpt>
      <trkpt lat="45.21546" lon="5.42588">
        <ele>269.4</ele>
        <time>2021-05-03T08:32:26Z</time>
      </trkpt>
      <trkpt lat="45.21544" lon="5.4258">
        <ele>269.4</ele>
        <time>2021-05-03T08:32:27Z</time>
      </trkpt>
      <trkpt lat="45.21542" lon="5.42571">
        <ele>269.3</ele>
        <time>2021-05-03T08:32:28Z</time>
      </trkpt>
      <trkpt lat="45.21539" lon="5.42563">
        <ele>269.3</ele>
        <time>2021-05-03T08:32:29Z</time>
      </trkpt>
      <trkpt lat="45.21537" lon="5.42555">
        <ele>269.3</ele>
        <time>2021-05-03T08:32:30Z</time>
      </trkpt>
      <trkpt lat="45.21535" lon="5.42546">
        <ele>269.2</ele>
        <time>2021-05-03T08:32:31Z</time>
      </trkpt>
      <trkpt lat="45.21532" lon="5.42535">
        <ele>269.2</ele>
        <time>2021-05-03T08:32:32Z</time>
      </trkpt>
      <trkpt lat="45.21529" lon="5.42526">
        <ele>269.1</ele>
        <time>2021-05-03T08:32:33Z</time>
      </trkpt>
      <trkpt lat="45.21526" lon="5.42518">
        <ele>269.1</ele>
        <time>2021-05-03T08:32:34Z</time>
      </trkpt>
      <trkpt lat="45.21524" lon="5.42509">
        <ele>269.1</ele>
        <time>2021-05-03T08:32:35Z</time>
      </trkpt>
      <trkpt lat="45.21522" lon="5.425">
        <ele>269</ele>
        <time>2021-05-03T08:32:36Z</time>
      </trkpt>
      <trkpt lat="45.21521" lon="5.42491">
        <ele>269</ele>
        <time>2021-05-03T08:32:37Z</time>
      </trkpt>
      <trkpt lat="45.21521" lon="5.42482">
        <ele>269</ele>
        <time>2021-05-03T08:32:38Z</time>
      </trkpt>
      <trkpt lat="45.21522" lon="5.42473">
        <ele>269</ele>
        <time>2021-05-03T08:32:39Z</time>
      </trkpt>
      <trkpt lat="45.21522" lon="5.42464">
        <ele>269</ele>
        <time>2021-05-03T08:32:40Z</time>
      </trkpt>
      <trkpt lat="45.21522" lon="5.42455">
        <ele>269</ele>
        <time>2021-05-03T08:32:41Z</time>
      </trkpt>
      <trkpt lat="45.21522" lon="5.42445">
        <ele>268.9</ele>
        <time>2021-05-03T08:32:42Z</time>
      </trkpt>
      <trkpt lat="45.21522" lon="5.42435">
        <ele>268.9</ele>
        <time>2021-05-03T08:32:43Z</time>
      </trkpt>
      <trkpt lat="45.21522" lon="5.42426">
        <ele>268.9</ele>
        <time>2021-05-03T08:32:44Z</time>
      </trkpt>
      <trkpt lat="45.21521" lon="5.42417">
        <ele>268.9</ele>
        <time>2021-05-03T08:32:45Z</time>
      </trkpt>
      <trkpt lat="45.21521" lon="5.42408">
        <ele>268.9</ele>
        <time>2021-05-03T08:32:46Z</time>
      </trkpt>
      <trkpt lat="45.2152" lon="5.42398">
        <ele>268.9</ele>
        <time>2021-05-03T08:32:47Z</time>
      </trkpt>
      <trkpt lat="45.21519" lon="5.42389">
        <ele>268.9</ele>
        <time>2021-05-03T08:32:48Z</time>
      </trkpt>
      <trkpt lat="45.21518" lon="5.42379">
        <ele>268.9</ele>
        <time>2021-05-03T08:32:49Z</time>
      </trkpt>
      <trkpt lat="45.21516" lon="5.42369">
        <ele>268.9</ele>
        <time>2021-05-03T08:32:50Z</time>
      </trkpt>
      <trkpt lat="45.21515" lon="5.42359">
        <ele>268.9</ele>
        <time>2021-05-03T08:32:51Z</time>
      </trkpt>
      <trkpt lat="45.21514" lon="5.42349">
        <ele>268.9</ele>
        <time>2021-05-03T08:32:52Z</time>
      </trkpt>
      <trkpt lat="45.21512" lon="5.4234">
        <ele>268.8</ele>
        <time>2021-05-03T08:32:53Z</time>
      </trkpt>
      <trkpt lat="45.21511" lon="5.4233">
        <ele>268.8</ele>
        <time>2021-05-03T08:32:54Z</time>
      </trkpt>
      <trkpt lat="45.2151" lon="5.42321">
        <ele>268.8</ele>
        <time>2021-05-03T08:32:55Z</time>
      </trkpt>
      <trkpt lat="45.21508" lon="5.42311">
        <ele>268.8</ele>
        <time>2021-05-03T08:32:56Z</time>
      </trkpt>
      <trkpt lat="45.21506" lon="5.42302">
        <ele>268.8</ele>
        <time>2021-05-03T08:32:57Z</time>
      </trkpt>
      <trkpt lat="45.21504" lon="5.42292">
        <ele>268.8</ele>
        <time>2021-05-03T08:32:58Z</time>
      </trkpt>
      <trkpt lat="45.21503" lon="5.42284">
        <ele>268.9</ele>
        <time>2021-05-03T08:32:59Z</time>
      </trkpt>
      <trkpt lat="45.21501" lon="5.42276">
        <ele>268.9</ele>
        <time>2021-05-03T08:33:00Z</time>
      </trkpt>
      <trkpt lat="45.215" lon="5.42268">
        <ele>268.9</ele>
        <time>2021-05-03T08:33:01Z</time>
      </trkpt>
      <trkpt lat="45.21498" lon="5.4226">
        <ele>268.9</ele>
        <time>2021-05-03T08:33:02Z</time>
      </trkpt>
      <trkpt lat="45.21497" lon="5.42253">
        <ele>268.9</ele>
        <time>2021-05-03T08:33:03Z</time>
      </trkpt>
      <trkpt lat="45.21495" lon="5.42244">
        <ele>268.9</ele>
        <time>2021-05-03T08:33:04Z</time>
      </trkpt>
      <trkpt lat="45.21494" lon="5.42236">
        <ele>268.9</ele>
        <time>2021-05-03T08:33:05Z</time>
      </trkpt>
      <trkpt lat="45.21492" lon="5.42228">
        <ele>268.9</ele>
        <time>2021-05-03T08:33:06Z</time>
      </trkpt>
      <trkpt lat="45.21491" lon="5.42221">
        <ele>269</ele>
        <time>2021-05-03T08:33:07Z</time>
      </trkpt>
      <trkpt lat="45.21489" lon="5.42213">
        <ele>269</ele>
        <time>2021-05-03T08:33:08Z</time>
      </trkpt>
      <trkpt lat="45.21487" lon="5.42205">
        <ele>269</ele>
        <time>2021-05-03T08:33:09Z</time>
      </trkpt>
      <trkpt lat="45.21486" lon="5.42196">
        <ele>269</ele>
        <time>2021-05-03T08:33:10Z</time>
      </trkpt>
      <trkpt lat="45.21485" lon="5.42188">
        <ele>269</ele>
        <time>2021-05-03T08:33:11Z</time>
      </trkpt>
      <trkpt lat="45.21483" lon="5.4218">
        <ele>269</ele>
        <time>2021-05-03T08:33:12Z</time>
      </trkpt>
      <trkpt lat="45.21481" lon="5.42172">
        <ele>269</ele>
        <time>2021-05-03T08:33:13Z</time>
      </trkpt>
      <trkpt lat="45.21479" lon="5.42164">
        <ele>269</ele>
        <time>2021-05-03T08:33:14Z</time>
      </trkpt>
      <trkpt lat="45.21477" lon="5.42155">
        <ele>269</ele>
        <time>2021-05-03T08:33:15Z</time>
      </trkpt>
      <trkpt lat="45.21475" lon="5.42146">
        <ele>269.1</ele>
        <time>2021-05-03T08:33:16Z</time>
      </trkpt>
      <trkpt lat="45.21473" lon="5.42138">
        <ele>269.1</ele>
        <time>2021-05-03T08:33:17Z</time>
      </trkpt>
      <trkpt lat="45.21471" lon="5.42129">
        <ele>269.1</ele>
        <time>2021-05-03T08:33:18Z</time>
      </trkpt>
      <trkpt lat="45.2147" lon="5.42121">
        <ele>269.2</ele>
        <time>2021-05-03T08:33:19Z</time>
      </trkpt>
      <trkpt lat="45.21468" lon="5.42113">
        <ele>269.2</ele>
        <time>2021-05-03T08:33:20Z</time>
      </trkpt>
      <trkpt lat="45.21467" lon="5.42105">
        <ele>269.2</ele>
        <time>2021-05-03T08:33:21Z</time>
      </trkpt>
      <trkpt lat="45.21465" lon="5.42097">
        <ele>269.2</ele>
        <time>2021-05-03T08:33:22Z</time>
      </trkpt>
      <trkpt lat="45.21463" lon="5.42089">
        <ele>269.3</ele>
        <time>2021-05-03T08:33:23Z</time>
      </trkpt>
      <trkpt lat="45.21462" lon="5.42082">
        <ele>269.3</ele>
        <time>2021-05-03T08:33:24Z</time>
      </trkpt>
      <trkpt lat="45.2146" lon="5.42074">
        <ele>269.3</ele>
        <time>2021-05-03T08:33:25Z</time>
      </trkpt>
      <trkpt lat="45.21459" lon="5.42066">
        <ele>269.4</ele>
        <time>2021-05-03T08:33:26Z</time>
      </trkpt>
      <trkpt lat="45.21457" lon="5.42058">
        <ele>269.4</ele>
        <time>2021-05-03T08:33:27Z</time>
      </trkpt>
      <trkpt lat="45.21456" lon="5.42049">
        <ele>269.5</ele>
        <time>2021-05-03T08:33:28Z</time>
      </trkpt>
      <trkpt lat="45.21454" lon="5.42041">
        <ele>269.5</ele>
        <time>2021-05-03T08:33:29Z</time>
      </trkpt>
      <trkpt lat="45.21452" lon="5.42033">
        <ele>269.6</ele>
        <time>2021-05-03T08:33:30Z</time>
      </trkpt>
      <trkpt lat="45.21451" lon="5.42025">
        <ele>269.6</ele>
        <time>2021-05-03T08:33:31Z</time>
      </trkpt>
      <trkpt lat="45.21449" lon="5.42017">
        <ele>269.7</ele>
        <time>2021-05-03T08:33:32Z</time>
      </trkpt>
      <trkpt lat="45.21448" lon="5.42009">
        <ele>269.8</ele>
        <time>2021-05-03T08:33:33Z</time>
      </trkpt>
      <trkpt lat="45.21446" lon="5.42001">
        <ele>269.9</ele>
        <time>2021-05-03T08:33:34Z</time>
      </trkpt>
      <trkpt lat="45.21445" lon="5.41993">
        <ele>270</ele>
        <time>2021-05-03T08:33:35Z</time>
      </trkpt>
      <trkpt lat="45.21444" lon="5.41986">
        <ele>270.1</ele>
        <time>2021-05-03T08:33:36Z</time>
      </trkpt>
      <trkpt lat="45.21442" lon="5.41979">
        <ele>270.2</ele>
        <time>2021-05-03T08:33:37Z</time>
      </trkpt>
      <trkpt lat="45.21441" lon="5.41972">
        <ele>270.3</ele>
        <time>2021-05-03T08:33:38Z</time>
      </trkpt>
      <trkpt lat="45.2144" lon="5.41965">
        <ele>270.4</ele>
        <time>2021-05-03T08:33:39Z</time>
      </trkpt>
      <trkpt lat="45.21438" lon="5.41958">
        <ele>270.5</ele>
        <time>2021-05-03T08:33:40Z</time>
      </trkpt>
      <trkpt lat="45.21436" lon="5.41951">
        <ele>270.5</ele>
        <time>2021-05-03T08:33:41Z</time>
      </trkpt>
      <trkpt lat="45.21434" lon="5.41944">
        <ele>270.6</ele>
        <time>2021-05-03T08:33:42Z</time>
      </trkpt>
      <trkpt lat="45.2143" lon="5.41938">
        <ele>270.7</ele>
        <time>2021-05-03T08:33:43Z</time>
      </trkpt>
      <trkpt lat="45.21427" lon="5.41932">
        <ele>270.8</ele>
        <time>2021-05-03T08:33:44Z</time>
      </trkpt>
      <trkpt lat="45.21424" lon="5.41926">
        <ele>270.9</ele>
        <time>2021-05-03T08:33:45Z</time>
      </trkpt>
      <trkpt lat="45.21421" lon="5.41921">
        <ele>271</ele>
        <time>2021-05-03T08:33:46Z</time>
      </trkpt>
      <trkpt lat="45.21418" lon="5.41915">
        <ele>271.1</ele>
        <time>2021-05-03T08:33:47Z</time>
      </trkpt>
      <trkpt lat="45.21416" lon="5.41909">
        <ele>271.1</ele>
        <time>2021-05-03T08:33:48Z</time>
      </trkpt>
      <trkpt lat="45.21415" lon="5.41903">
        <ele>271.1</ele>
        <time>2021-05-03T08:33:49Z</time>
      </trkpt>
      <trkpt lat="45.21414" lon="5.419">
        <ele>271.2</ele>
        <time>2021-05-03T08:33:50Z</time>
      </trkpt>
      <trkpt lat="45.21413" lon="5.41894">
        <ele>271.2</ele>
        <time>2021-05-03T08:33:51Z</time>
      </trkpt>
      <trkpt lat="45.21412" lon="5.41888">
        <ele>271.2</ele>
        <time>2021-05-03T08:33:52Z</time>
      </trkpt>
      <trkpt lat="45.21411" lon="5.41881">
        <ele>271.2</ele>
        <time>2021-05-03T08:33:53Z</time>
      </trkpt>
      <trkpt lat="45.2141" lon="5.41874">
        <ele>271.2</ele>
        <time>2021-05-03T08:33:54Z</time>
      </trkpt>
      <trkpt lat="45.21408" lon="5.41867">
        <ele>271.2</ele>
        <time>2021-05-03T08:33:55Z</time>
      </trkpt>
      <trkpt lat="45.21406" lon="5.4186">
        <ele>271.2</ele>
        <time>2021-05-03T08:33:56Z</time>
      </trkpt>
      <trkpt lat="45.21406" lon="5.41855">
        <ele>271.2</ele>
        <time>2021-05-03T08:33:57Z</time>
      </trkpt>
      <trkpt lat="45.21404" lon="5.41846">
        <ele>271.5</ele>
        <time>2021-05-03T08:33:58Z</time>
      </trkpt>
      <trkpt lat="45.21403" lon="5.41837">
        <ele>271.7</ele>
        <time>2021-05-03T08:33:59Z</time>
      </trkpt>
      <trkpt lat="45.21404" lon="5.41829">
        <ele>271.9</ele>
        <time>2021-05-03T08:34:00Z</time>
      </trkpt>
      <trkpt lat="45.21405" lon="5.41821">
        <ele>272.1</ele>
        <time>2021-05-03T08:34:01Z</time>
      </trkpt>
      <trkpt lat="45.21406" lon="5.41813">
        <ele>272.3</ele>
        <time>2021-05-03T08:34:02Z</time>
      </trkpt>
      <trkpt lat="45.21406" lon="5.41806">
        <ele>272.5</ele>
        <time>2021-05-03T08:34:03Z</time>
      </trkpt>
      <trkpt lat="45.21406" lon="5.41799">
        <ele>272.6</ele>
        <time>2021-05-03T08:34:04Z</time>
      </trkpt>
      <trkpt lat="45.21406" lon="5.41791">
        <ele>272.7</ele>
        <time>2021-05-03T08:34:05Z</time>
      </trkpt>
      <trkpt lat="45.21406" lon="5.41784">
        <ele>272.8</ele>
        <time>2021-05-03T08:34:06Z</time>
      </trkpt>
      <trkpt lat="45.21405" lon="5.41777">
        <ele>272.9</ele>
        <time>2021-05-03T08:34:07Z</time>
      </trkpt>
      <trkpt lat="45.21404" lon="5.4177">
        <ele>272.9</ele>
        <time>2021-05-03T08:34:08Z</time>
      </trkpt>
      <trkpt lat="45.21403" lon="5.41763">
        <ele>273</ele>
        <time>2021-05-03T08:34:09Z</time>
      </trkpt>
      <trkpt lat="45.21402" lon="5.41757">
        <ele>273.1</ele>
        <time>2021-05-03T08:34:10Z</time>
      </trkpt>
      <trkpt lat="45.21401" lon="5.41751">
        <ele>273.2</ele>
        <time>2021-05-03T08:34:11Z</time>
      </trkpt>
      <trkpt lat="45.21399" lon="5.41745">
        <ele>273.3</ele>
        <time>2021-05-03T08:34:12Z</time>
      </trkpt>
      <trkpt lat="45.21398" lon="5.41738">
        <ele>273.4</ele>
        <time>2021-05-03T08:34:13Z</time>
      </trkpt>
      <trkpt lat="45.21397" lon="5.41732">
        <ele>273.5</ele>
        <time>2021-05-03T08:34:14Z</time>
      </trkpt>
      <trkpt lat="45.21397" lon="5.41727">
        <ele>273.5</ele>
        <time>2021-05-03T08:34:15Z</time>
      </trkpt>
      <trkpt lat="45.21396" lon="5.4172">
        <ele>273.6</ele>
        <time>2021-05-03T08:34:16Z</time>
      </trkpt>
      <trkpt lat="45.21395" lon="5.41715">
        <ele>273.7</ele>
        <time>2021-05-03T08:34:17Z</time>
      </trkpt>
      <trkpt lat="45.21394" lon="5.4171">
        <ele>273.7</ele>
        <time>2021-05-03T08:34:18Z</time>
      </trkpt>
      <trkpt lat="45.21393" lon="5.41705">
        <ele>273.8</ele>
        <time>2021-05-03T08:34:19Z</time>
      </trkpt>
      <trkpt lat="45.21392" lon="5.417">
        <ele>273.8</ele>
        <time>2021-05-03T08:34:20Z</time>
      </trkpt>
      <trkpt lat="45.21391" lon="5.41703">
        <ele>273.8</ele>
        <time>2021-05-03T08:34:22Z</time>
      </trkpt>
      <trkpt lat="45.21393" lon="5.41706">
        <ele>273.8</ele>
        <time>2021-05-03T08:34:24Z</time>
      </trkpt>
      <trkpt lat="45.21393" lon="5.41706">
        <ele>273.8</ele>
        <time>2021-05-03T08:34:26Z</time>
      </trkpt>
      <trkpt lat="45.21393" lon="5.41706">
        <ele>273.8</ele>
        <time>2021-05-03T08:34:27Z</time>
      </trkpt>
      <trkpt lat="45.21393" lon="5.41705">
        <ele>273.8</ele>
        <time>2021-05-03T08:34:28Z</time>
      </trkpt>
      <trkpt lat="45.21393" lon="5.41705">
        <ele>273.8</ele>
        <time>2021-05-03T08:34:29Z</time>
      </trkpt>
      <trkpt lat="45.21393" lon="5.41705">
        <ele>273.8</ele>
        <time>2021-05-03T08:34:30Z</time>
      </trkpt>
      <trkpt lat="45.21391" lon="5.417">
        <ele>273.8</ele>
        <time>2021-05-03T08:35:11Z</time>
      </trkpt>
      <trkpt lat="45.2139" lon="5.417">
        <ele>273.8</ele>
        <time>2021-05-03T08:35:12Z</time>
      </trkpt>
      <trkpt lat="45.21386" lon="5.41695">
        <ele>273.9</ele>
        <time>2021-05-03T08:35:14Z</time>
      </trkpt>
      <trkpt lat="45.21384" lon="5.4169">
        <ele>273.9</ele>
        <time>2021-05-03T08:35:15Z</time>
      </trkpt>
      <trkpt lat="45.21383" lon="5.41681">
        <ele>273.9</ele>
        <time>2021-05-03T08:35:16Z</time>
      </trkpt>
      <trkpt lat="45.21382" lon="5.41673">
        <ele>273.9</ele>
        <time>2021-05-03T08:35:18Z</time>
      </trkpt>
      <trkpt lat="45.21381" lon="5.41664">
        <ele>274</ele>
        <time>2021-05-03T08:35:19Z</time>
      </trkpt>
      <trkpt lat="45.21379" lon="5.41654">
        <ele>274</ele>
        <time>2021-05-03T08:35:21Z</time>
      </trkpt>
      <trkpt lat="45.21376" lon="5.41641">
        <ele>274.1</ele>
        <time>2021-05-03T08:35:23Z</time>
      </trkpt>
      <trkpt lat="45.21375" lon="5.41634">
        <ele>274.1</ele>
        <time>2021-05-03T08:35:24Z</time>
      </trkpt>
      <trkpt lat="45.21375" lon="5.41627">
        <ele>274.1</ele>
        <time>2021-05-03T08:35:25Z</time>
      </trkpt>
      <trkpt lat="45.21374" lon="5.4162">
        <ele>274.1</ele>
        <time>2021-05-03T08:35:26Z</time>
      </trkpt>
      <trkpt lat="45.21373" lon="5.41613">
        <ele>274.1</ele>
        <time>2021-05-03T08:35:27Z</time>
      </trkpt>
      <trkpt lat="45.21372" lon="5.41606">
        <ele>274.1</ele>
        <time>2021-05-03T08:35:28Z</time>
      </trkpt>
      <trkpt lat="45.21371" lon="5.41598">
        <ele>274</ele>
        <time>2021-05-03T08:35:29Z</time>
      </trkpt>
      <trkpt lat="45.2137" lon="5.41591">
        <ele>274</ele>
        <time>2021-05-03T08:35:30Z</time>
      </trkpt>
      <trkpt lat="45.21368" lon="5.41582">
        <ele>274</ele>
        <time>2021-05-03T08:35:31Z</time>
      </trkpt>
      <trkpt lat="45.21366" lon="5.41574">
        <ele>273.9</ele>
        <time>2021-05-03T08:35:32Z</time>
      </trkpt>
      <trkpt lat="45.21364" lon="5.41565">
        <ele>273.9</ele>
        <time>2021-05-03T08:35:33Z</time>
      </trkpt>
      <trkpt lat="45.21362" lon="5.41557">
        <ele>273.9</ele>
        <time>2021-05-03T08:35:34Z</time>
      </trkpt>
      <trkpt lat="45.21359" lon="5.41548">
        <ele>273.8</ele>
        <time>2021-05-03T08:35:35Z</time>
      </trkpt>
      <trkpt lat="45.21358" lon="5.4154">
        <ele>273.8</ele>
        <time>2021-05-03T08:35:36Z</time>
      </trkpt>
      <trkpt lat="45.21356" lon="5.41531">
        <ele>273.7</ele>
        <time>2021-05-03T08:35:37Z</time>
      </trkpt>
      <trkpt lat="45.21355" lon="5.41522">
        <ele>273.7</ele>
        <time>2021-05-03T08:35:38Z</time>
      </trkpt>
      <trkpt lat="45.21353" lon="5.41513">
        <ele>273.6</ele>
        <time>2021-05-03T08:35:39Z</time>
      </trkpt>
      <trkpt lat="45.21351" lon="5.41504">
        <ele>273.6</ele>
        <time>2021-05-03T08:35:40Z</time>
      </trkpt>
      <trkpt lat="45.21349" lon="5.41495">
        <ele>273.5</ele>
        <time>2021-05-03T08:35:41Z</time>
      </trkpt>
      <trkpt lat="45.21347" lon="5.41485">
        <ele>273.4</ele>
        <time>2021-05-03T08:35:42Z</time>
      </trkpt>
      <trkpt lat="45.21345" lon="5.41476">
        <ele>273.3</ele>
        <time>2021-05-03T08:35:43Z</time>
      </trkpt>
      <trkpt lat="45.21343" lon="5.41466">
        <ele>273.1</ele>
        <time>2021-05-03T08:35:44Z</time>
      </trkpt>
      <trkpt lat="45.21341" lon="5.41456">
        <ele>273</ele>
        <time>2021-05-03T08:35:45Z</time>
      </trkpt>
      <trkpt lat="45.2134" lon="5.41447">
        <ele>272.8</ele>
        <time>2021-05-03T08:35:46Z</time>
      </trkpt>
      <trkpt lat="45.21338" lon="5.41437">
        <ele>272.7</ele>
        <time>2021-05-03T08:35:47Z</time>
      </trkpt>
      <trkpt lat="45.21335" lon="5.41427">
        <ele>272.6</ele>
        <time>2021-05-03T08:35:48Z</time>
      </trkpt>
      <trkpt lat="45.21334" lon="5.41418">
        <ele>272.5</ele>
        <time>2021-05-03T08:35:49Z</time>
      </trkpt>
      <trkpt lat="45.21332" lon="5.41408">
        <ele>272.4</ele>
        <time>2021-05-03T08:35:50Z</time>
      </trkpt>
      <trkpt lat="45.2133" lon="5.41398">
        <ele>272.2</ele>
        <time>2021-05-03T08:35:51Z</time>
      </trkpt>
      <trkpt lat="45.21328" lon="5.41388">
        <ele>272.1</ele>
        <time>2021-05-03T08:35:52Z</time>
      </trkpt>
      <trkpt lat="45.21326" lon="5.41378">
        <ele>272</ele>
        <time>2021-05-03T08:35:53Z</time>
      </trkpt>
      <trkpt lat="45.21324" lon="5.41368">
        <ele>271.9</ele>
        <time>2021-05-03T08:35:54Z</time>
      </trkpt>
      <trkpt lat="45.21321" lon="5.41358">
        <ele>271.9</ele>
        <time>2021-05-03T08:35:55Z</time>
      </trkpt>
      <trkpt lat="45.21319" lon="5.41349">
        <ele>271.8</ele>
        <time>2021-05-03T08:35:56Z</time>
      </trkpt>
      <trkpt lat="45.21316" lon="5.41338">
        <ele>271.7</ele>
        <time>2021-05-03T08:35:57Z</time>
      </trkpt>
      <trkpt lat="45.21314" lon="5.41328">
        <ele>271.7</ele>
        <time>2021-05-03T08:35:58Z</time>
      </trkpt>
      <trkpt lat="45.21312" lon="5.41318">
        <ele>271.6</ele>
        <time>2021-05-03T08:35:59Z</time>
      </trkpt>
      <trkpt lat="45.21311" lon="5.41308">
        <ele>271.6</ele>
        <time>2021-05-03T08:36:00Z</time>
      </trkpt>
      <trkpt lat="45.21309" lon="5.41298">
        <ele>271.5</ele>
        <time>2021-05-03T08:36:01Z</time>
      </trkpt>
      <trkpt lat="45.21306" lon="5.41289">
        <ele>271.5</ele>
        <time>2021-05-03T08:36:02Z</time>
      </trkpt>
      <trkpt lat="45.21305" lon="5.41279">
        <ele>271.5</ele>
        <time>2021-05-03T08:36:03Z</time>
      </trkpt>
      <trkpt lat="45.21302" lon="5.41269">
        <ele>271.5</ele>
        <time>2021-05-03T08:36:04Z</time>
      </trkpt>
      <trkpt lat="45.21301" lon="5.41259">
        <ele>271.5</ele>
        <time>2021-05-03T08:36:05Z</time>
      </trkpt>
      <trkpt lat="45.21299" lon="5.41249">
        <ele>271.5</ele>
        <time>2021-05-03T08:36:06Z</time>
      </trkpt>
      <trkpt lat="45.21297" lon="5.41239">
        <ele>271.5</ele>
        <time>2021-05-03T08:36:07Z</time>
      </trkpt>
      <trkpt lat="45.21296" lon="5.41229">
        <ele>271.5</ele>
        <time>2021-05-03T08:36:08Z</time>
      </trkpt>
      <trkpt lat="45.21294" lon="5.41219">
        <ele>271.6</ele>
        <time>2021-05-03T08:36:09Z</time>
      </trkpt>
      <trkpt lat="45.21292" lon="5.41209">
        <ele>271.6</ele>
        <time>2021-05-03T08:36:10Z</time>
      </trkpt>
      <trkpt lat="45.2129" lon="5.41199">
        <ele>271.6</ele>
        <time>2021-05-03T08:36:11Z</time>
      </trkpt>
      <trkpt lat="45.21288" lon="5.41189">
        <ele>271.6</ele>
        <time>2021-05-03T08:36:12Z</time>
      </trkpt>
      <trkpt lat="45.21286" lon="5.41179">
        <ele>271.6</ele>
        <time>2021-05-03T08:36:13Z</time>
      </trkpt>
      <trkpt lat="45.21284" lon="5.4117">
        <ele>271.6</ele>
        <time>2021-05-03T08:36:14Z</time>
      </trkpt>
      <trkpt lat="45.21282" lon="5.4116">
        <ele>271.7</ele>
        <time>2021-05-03T08:36:15Z</time>
      </trkpt>
      <trkpt lat="45.2128" lon="5.41151">
        <ele>271.7</ele>
        <time>2021-05-03T08:36:16Z</time>
      </trkpt>
      <trkpt lat="45.21279" lon="5.41141">
        <ele>271.7</ele>
        <time>2021-05-03T08:36:17Z</time>
      </trkpt>
      <trkpt lat="45.21277" lon="5.41132">
        <ele>271.8</ele>
        <time>2021-05-03T08:36:18Z</time>
      </trkpt>
      <trkpt lat="45.21275" lon="5.41123">
        <ele>271.8</ele>
        <time>2021-05-03T08:36:19Z</time>
      </trkpt>
      <trkpt lat="45.21273" lon="5.41114">
        <ele>271.9</ele>
        <time>2021-05-03T08:36:20Z</time>
      </trkpt>
      <trkpt lat="45.21272" lon="5.41105">
        <ele>271.9</ele>
        <time>2021-05-03T08:36:21Z</time>
      </trkpt>
      <trkpt lat="45.21271" lon="5.41097">
        <ele>272</ele>
        <time>2021-05-03T08:36:22Z</time>
      </trkpt>
      <trkpt lat="45.21269" lon="5.41088">
        <ele>272</ele>
        <time>2021-05-03T08:36:23Z</time>
      </trkpt>
      <trkpt lat="45.21267" lon="5.41079">
        <ele>272</ele>
        <time>2021-05-03T08:36:24Z</time>
      </trkpt>
      <trkpt lat="45.21265" lon="5.4107">
        <ele>272</ele>
        <time>2021-05-03T08:36:25Z</time>
      </trkpt>
      <trkpt lat="45.21264" lon="5.41062">
        <ele>272.1</ele>
        <time>2021-05-03T08:36:26Z</time>
      </trkpt>
      <trkpt lat="45.21262" lon="5.41054">
        <ele>272.1</ele>
        <time>2021-05-03T08:36:27Z</time>
      </trkpt>
      <trkpt lat="45.21261" lon="5.41046">
        <ele>272.2</ele>
        <time>2021-05-03T08:36:28Z</time>
      </trkpt>
      <trkpt lat="45.21259" lon="5.41038">
        <ele>272.3</ele>
        <time>2021-05-03T08:36:29Z</time>
      </trkpt>
      <trkpt lat="45.21258" lon="5.41029">
        <ele>272.3</ele>
        <time>2021-05-03T08:36:30Z</time>
      </trkpt>
      <trkpt lat="45.21256" lon="5.41021">
        <ele>272.3</ele>
        <time>2021-05-03T08:36:31Z</time>
      </trkpt>
      <trkpt lat="45.21254" lon="5.41013">
        <ele>272.2</ele>
        <time>2021-05-03T08:36:32Z</time>
      </trkpt>
      <trkpt lat="45.21251" lon="5.41006">
        <ele>272.1</ele>
        <time>2021-05-03T08:36:33Z</time>
      </trkpt>
      <trkpt lat="45.21248" lon="5.40998">
        <ele>272</ele>
        <time>2021-05-03T08:36:34Z</time>
      </trkpt>
      <trkpt lat="45.21245" lon="5.40991">
        <ele>271.9</ele>
        <time>2021-05-03T08:36:35Z</time>
      </trkpt>
      <trkpt lat="45.21243" lon="5.40983">
        <ele>271.8</ele>
        <time>2021-05-03T08:36:36Z</time>
      </trkpt>
      <trkpt lat="45.21243" lon="5.40975">
        <ele>271.7</ele>
        <time>2021-05-03T08:36:37Z</time>
      </trkpt>
      <trkpt lat="45.21244" lon="5.40966">
        <ele>271.8</ele>
        <time>2021-05-03T08:36:38Z</time>
      </trkpt>
      <trkpt lat="45.21243" lon="5.40958">
        <ele>271.9</ele>
        <time>2021-05-03T08:36:39Z</time>
      </trkpt>
      <trkpt lat="45.21241" lon="5.4095">
        <ele>272</ele>
        <time>2021-05-03T08:36:40Z</time>
      </trkpt>
      <trkpt lat="45.21238" lon="5.40943">
        <ele>272.1</ele>
        <time>2021-05-03T08:36:41Z</time>
      </trkpt>
      <trkpt lat="45.21234" lon="5.40936">
        <ele>272.3</ele>
        <time>2021-05-03T08:36:42Z</time>
      </trkpt>
      <trkpt lat="45.21231" lon="5.40929">
        <ele>272.4</ele>
        <time>2021-05-03T08:36:43Z</time>
      </trkpt>
      <trkpt lat="45.2123" lon="5.40921">
        <ele>272.5</ele>
        <time>2021-05-03T08:36:44Z</time>
      </trkpt>
      <trkpt lat="45.21228" lon="5.40914">
        <ele>272.6</ele>
        <time>2021-05-03T08:36:45Z</time>
      </trkpt>
      <trkpt lat="45.21228" lon="5.40906">
        <ele>272.7</ele>
        <time>2021-05-03T08:36:46Z</time>
      </trkpt>
      <trkpt lat="45.21226" lon="5.40898">
        <ele>272.8</ele>
        <time>2021-05-03T08:36:47Z</time>
      </trkpt>
      <trkpt lat="45.21225" lon="5.40891">
        <ele>272.9</ele>
        <time>2021-05-03T08:36:48Z</time>
      </trkpt>
      <trkpt lat="45.21223" lon="5.40883">
        <ele>273</ele>
        <time>2021-05-03T08:36:49Z</time>
      </trkpt>
      <trkpt lat="45.21221" lon="5.40876">
        <ele>273.1</ele>
        <time>2021-05-03T08:36:50Z</time>
      </trkpt>
      <trkpt lat="45.21219" lon="5.4087">
        <ele>273.2</ele>
        <time>2021-05-03T08:36:51Z</time>
      </trkpt>
      <trkpt lat="45.21218" lon="5.40863">
        <ele>273.3</ele>
        <time>2021-05-03T08:36:52Z</time>
      </trkpt>
      <trkpt lat="45.21215" lon="5.40856">
        <ele>273.4</ele>
        <time>2021-05-03T08:36:53Z</time>
      </trkpt>
      <trkpt lat="45.21213" lon="5.40849">
        <ele>273.5</ele>
        <time>2021-05-03T08:36:54Z</time>
      </trkpt>
      <trkpt lat="45.21211" lon="5.40841">
        <ele>273.5</ele>
        <time>2021-05-03T08:36:55Z</time>
      </trkpt>
      <trkpt lat="45.2121" lon="5.40834">
        <ele>273.6</ele>
        <time>2021-05-03T08:36:56Z</time>
      </trkpt>
      <trkpt lat="45.21208" lon="5.40826">
        <ele>273.7</ele>
        <time>2021-05-03T08:36:57Z</time>
      </trkpt>
      <trkpt lat="45.21207" lon="5.40819">
        <ele>273.8</ele>
        <time>2021-05-03T08:36:58Z</time>
      </trkpt>
      <trkpt lat="45.21205" lon="5.40811">
        <ele>273.9</ele>
        <time>2021-05-03T08:36:59Z</time>
      </trkpt>
      <trkpt lat="45.21203" lon="5.40803">
        <ele>273.9</ele>
        <time>2021-05-03T08:37:00Z</time>
      </trkpt>
      <trkpt lat="45.21201" lon="5.40796">
        <ele>274</ele>
        <time>2021-05-03T08:37:01Z</time>
      </trkpt>
      <trkpt lat="45.21199" lon="5.40789">
        <ele>274.1</ele>
        <time>2021-05-03T08:37:02Z</time>
      </trkpt>
      <trkpt lat="45.21197" lon="5.40781">
        <ele>274.3</ele>
        <time>2021-05-03T08:37:03Z</time>
      </trkpt>
      <trkpt lat="45.21194" lon="5.40774">
        <ele>274.4</ele>
        <time>2021-05-03T08:37:04Z</time>
      </trkpt>
      <trkpt lat="45.21192" lon="5.40767">
        <ele>274.5</ele>
        <time>2021-05-03T08:37:05Z</time>
      </trkpt>
      <trkpt lat="45.2119" lon="5.4076">
        <ele>274.5</ele>
        <time>2021-05-03T08:37:06Z</time>
      </trkpt>
      <trkpt lat="45.21188" lon="5.40753">
        <ele>274.6</ele>
        <time>2021-05-03T08:37:07Z</time>
      </trkpt>
      <trkpt lat="45.21187" lon="5.40745">
        <ele>274.7</ele>
        <time>2021-05-03T08:37:08Z</time>
      </trkpt>
      <trkpt lat="45.21185" lon="5.40738">
        <ele>274.8</ele>
        <time>2021-05-03T08:37:09Z</time>
      </trkpt>
      <trkpt lat="45.21183" lon="5.4073">
        <ele>274.9</ele>
        <time>2021-05-03T08:37:10Z</time>
      </trkpt>
      <trkpt lat="45.21181" lon="5.40723">
        <ele>275</ele>
        <time>2021-05-03T08:37:11Z</time>
      </trkpt>
      <trkpt lat="45.21179" lon="5.40715">
        <ele>275</ele>
        <time>2021-05-03T08:37:12Z</time>
      </trkpt>
      <trkpt lat="45.21177" lon="5.40708">
        <ele>275.1</ele>
        <time>2021-05-03T08:37:13Z</time>
      </trkpt>
      <trkpt lat="45.21174" lon="5.407">
        <ele>275.2</ele>
        <time>2021-05-03T08:37:14Z</time>
      </trkpt>
      <trkpt lat="45.21172" lon="5.40693">
        <ele>275.3</ele>
        <time>2021-05-03T08:37:15Z</time>
      </trkpt>
      <trkpt lat="45.21171" lon="5.40685">
        <ele>275.4</ele>
        <time>2021-05-03T08:37:16Z</time>
      </trkpt>
      <trkpt lat="45.21169" lon="5.40678">
        <ele>275.5</ele>
        <time>2021-05-03T08:37:17Z</time>
      </trkpt>
      <trkpt lat="45.21167" lon="5.40671">
        <ele>275.6</ele>
        <time>2021-05-03T08:37:18Z</time>
      </trkpt>
      <trkpt lat="45.21164" lon="5.40664">
        <ele>275.7</ele>
        <time>2021-05-03T08:37:19Z</time>
      </trkpt>
      <trkpt lat="45.21161" lon="5.40657">
        <ele>275.8</ele>
        <time>2021-05-03T08:37:20Z</time>
      </trkpt>
      <trkpt lat="45.21159" lon="5.4065">
        <ele>275.9</ele>
        <time>2021-05-03T08:37:21Z</time>
      </trkpt>
      <trkpt lat="45.21157" lon="5.40643">
        <ele>276</ele>
        <time>2021-05-03T08:37:22Z</time>
      </trkpt>
      <trkpt lat="45.21155" lon="5.40637">
        <ele>276.1</ele>
        <time>2021-05-03T08:37:23Z</time>
      </trkpt>
      <trkpt lat="45.21153" lon="5.4063">
        <ele>276.2</ele>
        <time>2021-05-03T08:37:24Z</time>
      </trkpt>
      <trkpt lat="45.21151" lon="5.40623">
        <ele>276.3</ele>
        <time>2021-05-03T08:37:25Z</time>
      </trkpt>
      <trkpt lat="45.21149" lon="5.40616">
        <ele>276.4</ele>
        <time>2021-05-03T08:37:26Z</time>
      </trkpt>
      <trkpt lat="45.21147" lon="5.4061">
        <ele>276.5</ele>
        <time>2021-05-03T08:37:27Z</time>
      </trkpt>
      <trkpt lat="45.21145" lon="5.40603">
        <ele>276.6</ele>
        <time>2021-05-03T08:37:28Z</time>
      </trkpt>
      <trkpt lat="45.21143" lon="5.40596">
        <ele>276.7</ele>
        <time>2021-05-03T08:37:29Z</time>
      </trkpt>
      <trkpt lat="45.21142" lon="5.4059">
        <ele>276.9</ele>
        <time>2021-05-03T08:37:30Z</time>
      </trkpt>
      <trkpt lat="45.2114" lon="5.40583">
        <ele>277</ele>
        <time>2021-05-03T08:37:31Z</time>
      </trkpt>
      <trkpt lat="45.21138" lon="5.40576">
        <ele>277.1</ele>
        <time>2021-05-03T08:37:32Z</time>
      </trkpt>
      <trkpt lat="45.21136" lon="5.4057">
        <ele>277.3</ele>
        <time>2021-05-03T08:37:33Z</time>
      </trkpt>
      <trkpt lat="45.21134" lon="5.40563">
        <ele>277.4</ele>
        <time>2021-05-03T08:37:34Z</time>
      </trkpt>
      <trkpt lat="45.21132" lon="5.40557">
        <ele>277.6</ele>
        <time>2021-05-03T08:37:35Z</time>
      </trkpt>
      <trkpt lat="45.21131" lon="5.4055">
        <ele>277.7</ele>
        <time>2021-05-03T08:37:36Z</time>
      </trkpt>
      <trkpt lat="45.21129" lon="5.40543">
        <ele>277.8</ele>
        <time>2021-05-03T08:37:37Z</time>
      </trkpt>
      <trkpt lat="45.21128" lon="5.40537">
        <ele>278</ele>
        <time>2021-05-03T08:37:38Z</time>
      </trkpt>
      <trkpt lat="45.21126" lon="5.4053">
        <ele>278.1</ele>
        <time>2021-05-03T08:37:39Z</time>
      </trkpt>
      <trkpt lat="45.21124" lon="5.40523">
        <ele>278.2</ele>
        <time>2021-05-03T08:37:40Z</time>
      </trkpt>
      <trkpt lat="45.21122" lon="5.40517">
        <ele>278.4</ele>
        <time>2021-05-03T08:37:41Z</time>
      </trkpt>
      <trkpt lat="45.2112" lon="5.40511">
        <ele>278.5</ele>
        <time>2021-05-03T08:37:42Z</time>
      </trkpt>
      <trkpt lat="45.21118" lon="5.40505">
        <ele>278.6</ele>
        <time>2021-05-03T08:37:43Z</time>
      </trkpt>
      <trkpt lat="45.21116" lon="5.40499">
        <ele>278.7</ele>
        <time>2021-05-03T08:37:44Z</time>
      </trkpt>
      <trkpt lat="45.21116" lon="5.40497">
        <ele>278.8</ele>
        <time>2021-05-03T08:37:45Z</time>
      </trkpt>
      <trkpt lat="45.21115" lon="5.4049">
        <ele>279</ele>
        <time>2021-05-03T08:37:46Z</time>
      </trkpt>
      <trkpt lat="45.21114" lon="5.40484">
        <ele>279.1</ele>
        <time>2021-05-03T08:37:47Z</time>
      </trkpt>
      <trkpt lat="45.21112" lon="5.40477">
        <ele>279.2</ele>
        <time>2021-05-03T08:37:48Z</time>
      </trkpt>
      <trkpt lat="45.21111" lon="5.40472">
        <ele>279.3</ele>
        <time>2021-05-03T08:37:49Z</time>
      </trkpt>
      <trkpt lat="45.21108" lon="5.40465">
        <ele>279.5</ele>
        <time>2021-05-03T08:37:50Z</time>
      </trkpt>
      <trkpt lat="45.21107" lon="5.40461">
        <ele>279.6</ele>
        <time>2021-05-03T08:37:51Z</time>
      </trkpt>
      <trkpt lat="45.21103" lon="5.40454">
        <ele>279.7</ele>
        <time>2021-05-03T08:37:52Z</time>
      </trkpt>
      <trkpt lat="45.21099" lon="5.40443">
        <ele>280</ele>
        <time>2021-05-03T08:37:54Z</time>
      </trkpt>
      <trkpt lat="45.21099" lon="5.40435">
        <ele>280.1</ele>
        <time>2021-05-03T08:37:55Z</time>
      </trkpt>
      <trkpt lat="45.21096" lon="5.40425">
        <ele>280.3</ele>
        <time>2021-05-03T08:37:57Z</time>
      </trkpt>
      <trkpt lat="45.21093" lon="5.40418">
        <ele>280.5</ele>
        <time>2021-05-03T08:37:58Z</time>
      </trkpt>
      <trkpt lat="45.2109" lon="5.40412">
        <ele>280.6</ele>
        <time>2021-05-03T08:37:59Z</time>
      </trkpt>
      <trkpt lat="45.21088" lon="5.40407">
        <ele>280.8</ele>
        <time>2021-05-03T08:38:00Z</time>
      </trkpt>
      <trkpt lat="45.21085" lon="5.40398">
        <ele>280.9</ele>
        <time>2021-05-03T08:38:01Z</time>
      </trkpt>
      <trkpt lat="45.21079" lon="5.4039">
        <ele>281.1</ele>
        <time>2021-05-03T08:38:03Z</time>
      </trkpt>
      <trkpt lat="45.21076" lon="5.40385">
        <ele>281.2</ele>
        <time>2021-05-03T08:38:04Z</time>
      </trkpt>
      <trkpt lat="45.21072" lon="5.40381">
        <ele>281.3</ele>
        <time>2021-05-03T08:38:05Z</time>
      </trkpt>
      <trkpt lat="45.21065" lon="5.4037">
        <ele>281.5</ele>
        <time>2021-05-03T08:38:07Z</time>
      </trkpt>
      <trkpt lat="45.21062" lon="5.40365">
        <ele>281.5</ele>
        <time>2021-05-03T08:38:08Z</time>
      </trkpt>
      <trkpt lat="45.21058" lon="5.40361">
        <ele>281.6</ele>
        <time>2021-05-03T08:38:09Z</time>
      </trkpt>
      <trkpt lat="45.21055" lon="5.40355">
        <ele>281.6</ele>
        <time>2021-05-03T08:38:10Z</time>
      </trkpt>
      <trkpt lat="45.21052" lon="5.4035">
        <ele>281.7</ele>
        <time>2021-05-03T08:38:11Z</time>
      </trkpt>
      <trkpt lat="45.21048" lon="5.40343">
        <ele>281.7</ele>
        <time>2021-05-03T08:38:12Z</time>
      </trkpt>
      <trkpt lat="45.21044" lon="5.40335">
        <ele>281.7</ele>
        <time>2021-05-03T08:38:14Z</time>
      </trkpt>
      <trkpt lat="45.21042" lon="5.40329">
        <ele>281.7</ele>
        <time>2021-05-03T08:38:15Z</time>
      </trkpt>
      <trkpt lat="45.2104" lon="5.40323">
        <ele>281.7</ele>
        <time>2021-05-03T08:38:16Z</time>
      </trkpt>
      <trkpt lat="45.21037" lon="5.40318">
        <ele>281.7</ele>
        <time>2021-05-03T08:38:17Z</time>
      </trkpt>
      <trkpt lat="45.21034" lon="5.40316">
        <ele>281.7</ele>
        <time>2021-05-03T08:38:18Z</time>
      </trkpt>
      <trkpt lat="45.21029" lon="5.40312">
        <ele>281.7</ele>
        <time>2021-05-03T08:38:20Z</time>
      </trkpt>
      <trkpt lat="45.21028" lon="5.40307">
        <ele>281.7</ele>
        <time>2021-05-03T08:38:21Z</time>
      </trkpt>
      <trkpt lat="45.21025" lon="5.40302">
        <ele>281.7</ele>
        <time>2021-05-03T08:38:22Z</time>
      </trkpt>
      <trkpt lat="45.21021" lon="5.40297">
        <ele>281.7</ele>
        <time>2021-05-03T08:38:23Z</time>
      </trkpt>
      <trkpt lat="45.21019" lon="5.40292">
        <ele>281.7</ele>
        <time>2021-05-03T08:38:25Z</time>
      </trkpt>
      <trkpt lat="45.21019" lon="5.40291">
        <ele>281.7</ele>
        <time>2021-05-03T08:38:26Z</time>
      </trkpt>
      <trkpt lat="45.21018" lon="5.40291">
        <ele>281.7</ele>
        <time>2021-05-03T08:38:28Z</time>
      </trkpt>
      <trkpt lat="45.21018" lon="5.4029">
        <ele>281.7</ele>
        <time>2021-05-03T08:38:30Z</time>
      </trkpt>
      <trkpt lat="45.21018" lon="5.40289">
        <ele>281.7</ele>
        <time>2021-05-03T08:38:31Z</time>
      </trkpt>
      <trkpt lat="45.21017" lon="5.40289">
        <ele>281.7</ele>
        <time>2021-05-03T08:38:32Z</time>
      </trkpt>
      <trkpt lat="45.21017" lon="5.40288">
        <ele>281.7</ele>
        <time>2021-05-03T08:38:33Z</time>
      </trkpt>
      <trkpt lat="45.21017" lon="5.40287">
        <ele>281.7</ele>
        <time>2021-05-03T08:38:34Z</time>
      </trkpt>
      <trkpt lat="45.21017" lon="5.40287">
        <ele>281.7</ele>
        <time>2021-05-03T08:38:35Z</time>
      </trkpt>
      <trkpt lat="45.21016" lon="5.40286">
        <ele>281.7</ele>
        <time>2021-05-03T08:38:36Z</time>
      </trkpt>
      <trkpt lat="45.21016" lon="5.40285">
        <ele>281.7</ele>
        <time>2021-05-03T08:38:37Z</time>
      </trkpt>
      <trkpt lat="45.21016" lon="5.40285">
        <ele>281.6</ele>
        <time>2021-05-03T08:38:38Z</time>
      </trkpt>
      <trkpt lat="45.21015" lon="5.40284">
        <ele>281.6</ele>
        <time>2021-05-03T08:38:39Z</time>
      </trkpt>
      <trkpt lat="45.21015" lon="5.40283">
        <ele>281.6</ele>
        <time>2021-05-03T08:38:40Z</time>
      </trkpt>
      <trkpt lat="45.21015" lon="5.40283">
        <ele>281.6</ele>
        <time>2021-05-03T08:38:41Z</time>
      </trkpt>
      <trkpt lat="45.21015" lon="5.40282">
        <ele>281.6</ele>
        <time>2021-05-03T08:39:35Z</time>
      </trkpt>
      <trkpt lat="45.21014" lon="5.40282">
        <ele>281.6</ele>
        <time>2021-05-03T08:39:36Z</time>
      </trkpt>
      <trkpt lat="45.21014" lon="5.40281">
        <ele>281.6</ele>
        <time>2021-05-03T08:39:37Z</time>
      </trkpt>
      <trkpt lat="45.21012" lon="5.40277">
        <ele>281.6</ele>
        <time>2021-05-03T08:39:38Z</time>
      </trkpt>
      <trkpt lat="45.21011" lon="5.40273">
        <ele>281.5</ele>
        <time>2021-05-03T08:39:39Z</time>
      </trkpt>
      <trkpt lat="45.21009" lon="5.40268">
        <ele>281.5</ele>
        <time>2021-05-03T08:39:40Z</time>
      </trkpt>
      <trkpt lat="45.21004" lon="5.40261">
        <ele>281.4</ele>
        <time>2021-05-03T08:39:42Z</time>
      </trkpt>
      <trkpt lat="45.21" lon="5.40251">
        <ele>281.2</ele>
        <time>2021-05-03T08:39:43Z</time>
      </trkpt>
      <trkpt lat="45.20996" lon="5.40241">
        <ele>280.9</ele>
        <time>2021-05-03T08:39:44Z</time>
      </trkpt>
      <trkpt lat="45.20993" lon="5.40232">
        <ele>280.6</ele>
        <time>2021-05-03T08:39:45Z</time>
      </trkpt>
      <trkpt lat="45.20991" lon="5.40225">
        <ele>280.4</ele>
        <time>2021-05-03T08:39:46Z</time>
      </trkpt>
      <trkpt lat="45.20989" lon="5.40219">
        <ele>280.2</ele>
        <time>2021-05-03T08:39:47Z</time>
      </trkpt>
      <trkpt lat="45.20982" lon="5.40197">
        <ele>279.4</ele>
        <time>2021-05-03T08:39:49Z</time>
      </trkpt>
      <trkpt lat="45.20979" lon="5.40189">
        <ele>279</ele>
        <time>2021-05-03T08:39:50Z</time>
      </trkpt>
      <trkpt lat="45.20976" lon="5.40179">
        <ele>278.6</ele>
        <time>2021-05-03T08:39:51Z</time>
      </trkpt>
      <trkpt lat="45.20974" lon="5.4017">
        <ele>278.3</ele>
        <time>2021-05-03T08:39:52Z</time>
      </trkpt>
      <trkpt lat="45.20973" lon="5.4016">
        <ele>277.9</ele>
        <time>2021-05-03T08:39:53Z</time>
      </trkpt>
      <trkpt lat="45.20971" lon="5.4015">
        <ele>277.6</ele>
        <time>2021-05-03T08:39:54Z</time>
      </trkpt>
      <trkpt lat="45.20969" lon="5.40142">
        <ele>277.4</ele>
        <time>2021-05-03T08:39:55Z</time>
      </trkpt>
      <trkpt lat="45.20967" lon="5.40134">
        <ele>277.3</ele>
        <time>2021-05-03T08:39:56Z</time>
      </trkpt>
      <trkpt lat="45.20964" lon="5.40124">
        <ele>277.1</ele>
        <time>2021-05-03T08:39:57Z</time>
      </trkpt>
      <trkpt lat="45.2096" lon="5.40114">
        <ele>276.9</ele>
        <time>2021-05-03T08:39:58Z</time>
      </trkpt>
      <trkpt lat="45.20957" lon="5.40104">
        <ele>276.8</ele>
        <time>2021-05-03T08:39:59Z</time>
      </trkpt>
      <trkpt lat="45.20954" lon="5.40096">
        <ele>276.6</ele>
        <time>2021-05-03T08:40:00Z</time>
      </trkpt>
      <trkpt lat="45.20949" lon="5.40088">
        <ele>276.5</ele>
        <time>2021-05-03T08:40:01Z</time>
      </trkpt>
      <trkpt lat="45.20945" lon="5.40082">
        <ele>276.4</ele>
        <time>2021-05-03T08:40:02Z</time>
      </trkpt>
      <trkpt lat="45.20941" lon="5.40077">
        <ele>276.3</ele>
        <time>2021-05-03T08:40:03Z</time>
      </trkpt>
      <trkpt lat="45.20935" lon="5.40071">
        <ele>276.2</ele>
        <time>2021-05-03T08:40:04Z</time>
      </trkpt>
      <trkpt lat="45.2093" lon="5.40065">
        <ele>276</ele>
        <time>2021-05-03T08:40:05Z</time>
      </trkpt>
      <trkpt lat="45.20924" lon="5.4006">
        <ele>276</ele>
        <time>2021-05-03T08:40:06Z</time>
      </trkpt>
      <trkpt lat="45.20919" lon="5.40054">
        <ele>275.9</ele>
        <time>2021-05-03T08:40:07Z</time>
      </trkpt>
      <trkpt lat="45.20914" lon="5.40049">
        <ele>275.9</ele>
        <time>2021-05-03T08:40:08Z</time>
      </trkpt>
      <trkpt lat="45.20909" lon="5.40043">
        <ele>275.9</ele>
        <time>2021-05-03T08:40:09Z</time>
      </trkpt>
      <trkpt lat="45.20907" lon="5.40037">
        <ele>275.9</ele>
        <time>2021-05-03T08:40:10Z</time>
      </trkpt>
      <trkpt lat="45.20908" lon="5.40029">
        <ele>275.6</ele>
        <time>2021-05-03T08:40:11Z</time>
      </trkpt>
      <trkpt lat="45.20911" lon="5.40026">
        <ele>275.6</ele>
        <time>2021-05-03T08:40:12Z</time>
      </trkpt>
      <trkpt lat="45.20915" lon="5.40021">
        <ele>275.4</ele>
        <time>2021-05-03T08:40:13Z</time>
      </trkpt>
      <trkpt lat="45.20921" lon="5.40017">
        <ele>275.3</ele>
        <time>2021-05-03T08:40:14Z</time>
      </trkpt>
      <trkpt lat="45.20927" lon="5.40012">
        <ele>275.2</ele>
        <time>2021-05-03T08:40:15Z</time>
      </trkpt>
      <trkpt lat="45.20933" lon="5.40007">
        <ele>275.1</ele>
        <time>2021-05-03T08:40:16Z</time>
      </trkpt>
      <trkpt lat="45.20939" lon="5.40002">
        <ele>275</ele>
        <time>2021-05-03T08:40:17Z</time>
      </trkpt>
      <trkpt lat="45.20945" lon="5.39996">
        <ele>274.9</ele>
        <time>2021-05-03T08:40:18Z</time>
      </trkpt>
      <trkpt lat="45.20951" lon="5.39992">
        <ele>274.9</ele>
        <time>2021-05-03T08:40:19Z</time>
      </trkpt>
      <trkpt lat="45.20958" lon="5.39988">
        <ele>274.9</ele>
        <time>2021-05-03T08:40:20Z</time>
      </trkpt>
      <trkpt lat="45.20965" lon="5.39985">
        <ele>274.9</ele>
        <time>2021-05-03T08:40:21Z</time>
      </trkpt>
      <trkpt lat="45.20971" lon="5.3998">
        <ele>274.9</ele>
        <time>2021-05-03T08:40:22Z</time>
      </trkpt>
      <trkpt lat="45.20976" lon="5.39974">
        <ele>275</ele>
        <time>2021-05-03T08:40:23Z</time>
      </trkpt>
      <trkpt lat="45.2098" lon="5.39969">
        <ele>275.1</ele>
        <time>2021-05-03T08:40:24Z</time>
      </trkpt>
      <trkpt lat="45.20984" lon="5.39963">
        <ele>275.2</ele>
        <time>2021-05-03T08:40:25Z</time>
      </trkpt>
      <trkpt lat="45.20988" lon="5.39957">
        <ele>275.4</ele>
        <time>2021-05-03T08:40:26Z</time>
      </trkpt>
      <trkpt lat="45.20992" lon="5.39952">
        <ele>275.6</ele>
        <time>2021-05-03T08:40:27Z</time>
      </trkpt>
      <trkpt lat="45.20995" lon="5.39947">
        <ele>275.8</ele>
        <time>2021-05-03T08:40:28Z</time>
      </trkpt>
      <trkpt lat="45.20999" lon="5.39943">
        <ele>276</ele>
        <time>2021-05-03T08:40:29Z</time>
      </trkpt>
      <trkpt lat="45.21001" lon="5.39941">
        <ele>276.1</ele>
        <time>2021-05-03T08:40:30Z</time>
      </trkpt>
      <trkpt lat="45.21004" lon="5.39937">
        <ele>276.3</ele>
        <time>2021-05-03T08:40:31Z</time>
      </trkpt>
      <trkpt lat="45.21007" lon="5.39933">
        <ele>276.5</ele>
        <time>2021-05-03T08:40:32Z</time>
      </trkpt>
      <trkpt lat="45.2101" lon="5.3993">
        <ele>276.7</ele>
        <time>2021-05-03T08:40:33Z</time>
      </trkpt>
      <trkpt lat="45.21014" lon="5.39925">
        <ele>276.9</ele>
        <time>2021-05-03T08:40:34Z</time>
      </trkpt>
      <trkpt lat="45.21016" lon="5.39923">
        <ele>277.1</ele>
        <time>2021-05-03T08:40:35Z</time>
      </trkpt>
      <trkpt lat="45.2102" lon="5.39922">
        <ele>277.3</ele>
        <time>2021-05-03T08:40:36Z</time>
      </trkpt>
      <trkpt lat="45.21021" lon="5.39921">
        <ele>277.4</ele>
        <time>2021-05-03T08:40:37Z</time>
      </trkpt>
      <trkpt lat="45.21026" lon="5.39911">
        <ele>277.9</ele>
        <time>2021-05-03T08:40:39Z</time>
      </trkpt>
      <trkpt lat="45.2103" lon="5.39904">
        <ele>278.3</ele>
        <time>2021-05-03T08:40:41Z</time>
      </trkpt>
      <trkpt lat="45.21032" lon="5.39901">
        <ele>278.5</ele>
        <time>2021-05-03T08:40:42Z</time>
      </trkpt>
      <trkpt lat="45.21035" lon="5.39898">
        <ele>278.7</ele>
        <time>2021-05-03T08:40:43Z</time>
      </trkpt>
      <trkpt lat="45.21037" lon="5.39894">
        <ele>278.9</ele>
        <time>2021-05-03T08:40:44Z</time>
      </trkpt>
      <trkpt lat="45.21039" lon="5.39891">
        <ele>279.1</ele>
        <time>2021-05-03T08:40:45Z</time>
      </trkpt>
      <trkpt lat="45.21042" lon="5.39888">
        <ele>279.3</ele>
        <time>2021-05-03T08:40:46Z</time>
      </trkpt>
      <trkpt lat="45.21044" lon="5.39885">
        <ele>279.5</ele>
        <time>2021-05-03T08:40:47Z</time>
      </trkpt>
      <trkpt lat="45.21047" lon="5.39882">
        <ele>279.7</ele>
        <time>2021-05-03T08:40:48Z</time>
      </trkpt>
      <trkpt lat="45.21049" lon="5.39879">
        <ele>279.9</ele>
        <time>2021-05-03T08:40:49Z</time>
      </trkpt>
      <trkpt lat="45.21051" lon="5.39875">
        <ele>280.2</ele>
        <time>2021-05-03T08:40:50Z</time>
      </trkpt>
      <trkpt lat="45.21052" lon="5.39874">
        <ele>280.3</ele>
        <time>2021-05-03T08:40:51Z</time>
      </trkpt>
      <trkpt lat="45.21055" lon="5.3987">
        <ele>280.5</ele>
        <time>2021-05-03T08:40:52Z</time>
      </trkpt>
      <trkpt lat="45.21056" lon="5.39868">
        <ele>280.6</ele>
        <time>2021-05-03T08:40:53Z</time>
      </trkpt>
      <trkpt lat="45.21059" lon="5.39864">
        <ele>280.9</ele>
        <time>2021-05-03T08:40:54Z</time>
      </trkpt>
      <trkpt lat="45.2106" lon="5.39862">
        <ele>281</ele>
        <time>2021-05-03T08:40:55Z</time>
      </trkpt>
      <trkpt lat="45.21063" lon="5.39855">
        <ele>281.4</ele>
        <time>2021-05-03T08:40:57Z</time>
      </trkpt>
      <trkpt lat="45.21066" lon="5.39853">
        <ele>281.6</ele>
        <time>2021-05-03T08:40:58Z</time>
      </trkpt>
      <trkpt lat="45.21067" lon="5.39852">
        <ele>281.6</ele>
        <time>2021-05-03T08:40:59Z</time>
      </trkpt>
      <trkpt lat="45.21069" lon="5.39849">
        <ele>281.8</ele>
        <time>2021-05-03T08:41:00Z</time>
      </trkpt>
      <trkpt lat="45.21071" lon="5.39847">
        <ele>282</ele>
        <time>2021-05-03T08:41:01Z</time>
      </trkpt>
      <trkpt lat="45.21074" lon="5.39843">
        <ele>282.3</ele>
        <time>2021-05-03T08:41:02Z</time>
      </trkpt>
      <trkpt lat="45.21077" lon="5.3984">
        <ele>282.4</ele>
        <time>2021-05-03T08:41:03Z</time>
      </trkpt>
      <trkpt lat="45.21079" lon="5.39837">
        <ele>282.6</ele>
        <time>2021-05-03T08:41:04Z</time>
      </trkpt>
      <trkpt lat="45.21081" lon="5.39835">
        <ele>282.8</ele>
        <time>2021-05-03T08:41:05Z</time>
      </trkpt>
      <trkpt lat="45.21084" lon="5.39832">
        <ele>283</ele>
        <time>2021-05-03T08:41:06Z</time>
      </trkpt>
      <trkpt lat="45.21086" lon="5.39829">
        <ele>283.2</ele>
        <time>2021-05-03T08:41:07Z</time>
      </trkpt>
      <trkpt lat="45.21088" lon="5.39826">
        <ele>283.3</ele>
        <time>2021-05-03T08:41:08Z</time>
      </trkpt>
      <trkpt lat="45.21091" lon="5.39824">
        <ele>283.6</ele>
        <time>2021-05-03T08:41:09Z</time>
      </trkpt>
      <trkpt lat="45.21094" lon="5.39822">
        <ele>283.8</ele>
        <time>2021-05-03T08:41:10Z</time>
      </trkpt>
      <trkpt lat="45.21097" lon="5.39819">
        <ele>284</ele>
        <time>2021-05-03T08:41:11Z</time>
      </trkpt>
      <trkpt lat="45.211" lon="5.39816">
        <ele>284.3</ele>
        <time>2021-05-03T08:41:12Z</time>
      </trkpt>
      <trkpt lat="45.21104" lon="5.39814">
        <ele>284.5</ele>
        <time>2021-05-03T08:41:13Z</time>
      </trkpt>
      <trkpt lat="45.21107" lon="5.39812">
        <ele>284.7</ele>
        <time>2021-05-03T08:41:14Z</time>
      </trkpt>
      <trkpt lat="45.21111" lon="5.39809">
        <ele>285</ele>
        <time>2021-05-03T08:41:15Z</time>
      </trkpt>
      <trkpt lat="45.21116" lon="5.39805">
        <ele>285.4</ele>
        <time>2021-05-03T08:41:17Z</time>
      </trkpt>
      <trkpt lat="45.21119" lon="5.39803">
        <ele>285.6</ele>
        <time>2021-05-03T08:41:18Z</time>
      </trkpt>
      <trkpt lat="45.21121" lon="5.39801">
        <ele>285.8</ele>
        <time>2021-05-03T08:41:19Z</time>
      </trkpt>
      <trkpt lat="45.21124" lon="5.39799">
        <ele>285.9</ele>
        <time>2021-05-03T08:41:20Z</time>
      </trkpt>
      <trkpt lat="45.21127" lon="5.39796">
        <ele>286.2</ele>
        <time>2021-05-03T08:41:21Z</time>
      </trkpt>
      <trkpt lat="45.21133" lon="5.39791">
        <ele>286.5</ele>
        <time>2021-05-03T08:41:23Z</time>
      </trkpt>
      <trkpt lat="45.21138" lon="5.39788">
        <ele>286.8</ele>
        <time>2021-05-03T08:41:25Z</time>
      </trkpt>
      <trkpt lat="45.21141" lon="5.39785">
        <ele>287</ele>
        <time>2021-05-03T08:41:26Z</time>
      </trkpt>
      <trkpt lat="45.21148" lon="5.39779">
        <ele>287.5</ele>
        <time>2021-05-03T08:41:28Z</time>
      </trkpt>
      <trkpt lat="45.21153" lon="5.39775">
        <ele>287.9</ele>
        <time>2021-05-03T08:41:30Z</time>
      </trkpt>
      <trkpt lat="45.21159" lon="5.39773">
        <ele>288.2</ele>
        <time>2021-05-03T08:41:32Z</time>
      </trkpt>
      <trkpt lat="45.21161" lon="5.39772">
        <ele>288.4</ele>
        <time>2021-05-03T08:41:33Z</time>
      </trkpt>
      <trkpt lat="45.21165" lon="5.39771">
        <ele>288.6</ele>
        <time>2021-05-03T08:41:34Z</time>
      </trkpt>
      <trkpt lat="45.21171" lon="5.39768">
        <ele>288.9</ele>
        <time>2021-05-03T08:41:36Z</time>
      </trkpt>
      <trkpt lat="45.21176" lon="5.39766">
        <ele>289.2</ele>
        <time>2021-05-03T08:41:38Z</time>
      </trkpt>
      <trkpt lat="45.21178" lon="5.39766">
        <ele>289.4</ele>
        <time>2021-05-03T08:41:39Z</time>
      </trkpt>
      <trkpt lat="45.21182" lon="5.39765">
        <ele>289.7</ele>
        <time>2021-05-03T08:41:40Z</time>
      </trkpt>
      <trkpt lat="45.21183" lon="5.39765">
        <ele>289.7</ele>
        <time>2021-05-03T08:41:41Z</time>
      </trkpt>
      <trkpt lat="45.21187" lon="5.39764">
        <ele>290</ele>
        <time>2021-05-03T08:41:42Z</time>
      </trkpt>
      <trkpt lat="45.21188" lon="5.39764">
        <ele>290</ele>
        <time>2021-05-03T08:41:43Z</time>
      </trkpt>
      <trkpt lat="45.21191" lon="5.39763">
        <ele>290.2</ele>
        <time>2021-05-03T08:41:44Z</time>
      </trkpt>
      <trkpt lat="45.21192" lon="5.39763">
        <ele>290.3</ele>
        <time>2021-05-03T08:41:45Z</time>
      </trkpt>
      <trkpt lat="45.21195" lon="5.39763">
        <ele>290.5</ele>
        <time>2021-05-03T08:41:46Z</time>
      </trkpt>
      <trkpt lat="45.21199" lon="5.39762">
        <ele>290.7</ele>
        <time>2021-05-03T08:41:47Z</time>
      </trkpt>
      <trkpt lat="45.212" lon="5.39761">
        <ele>290.8</ele>
        <time>2021-05-03T08:41:48Z</time>
      </trkpt>
      <trkpt lat="45.21204" lon="5.3976">
        <ele>291</ele>
        <time>2021-05-03T08:41:49Z</time>
      </trkpt>
      <trkpt lat="45.21205" lon="5.3976">
        <ele>291.1</ele>
        <time>2021-05-03T08:41:50Z</time>
      </trkpt>
      <trkpt lat="45.21208" lon="5.39759">
        <ele>291.3</ele>
        <time>2021-05-03T08:41:51Z</time>
      </trkpt>
      <trkpt lat="45.21211" lon="5.39759">
        <ele>291.5</ele>
        <time>2021-05-03T08:41:52Z</time>
      </trkpt>
      <trkpt lat="45.21215" lon="5.39758">
        <ele>291.7</ele>
        <time>2021-05-03T08:41:53Z</time>
      </trkpt>
      <trkpt lat="45.21216" lon="5.39758">
        <ele>291.8</ele>
        <time>2021-05-03T08:41:54Z</time>
      </trkpt>
      <trkpt lat="45.21219" lon="5.39758">
        <ele>292</ele>
        <time>2021-05-03T08:41:55Z</time>
      </trkpt>
      <trkpt lat="45.21222" lon="5.39757">
        <ele>292.2</ele>
        <time>2021-05-03T08:41:56Z</time>
      </trkpt>
      <trkpt lat="45.21227" lon="5.39756">
        <ele>292.5</ele>
        <time>2021-05-03T08:41:58Z</time>
      </trkpt>
      <trkpt lat="45.2123" lon="5.39754">
        <ele>292.7</ele>
        <time>2021-05-03T08:41:59Z</time>
      </trkpt>
      <trkpt lat="45.21232" lon="5.39754">
        <ele>292.8</ele>
        <time>2021-05-03T08:42:00Z</time>
      </trkpt>
      <trkpt lat="45.21235" lon="5.39753">
        <ele>293</ele>
        <time>2021-05-03T08:42:01Z</time>
      </trkpt>
      <trkpt lat="45.21237" lon="5.39753">
        <ele>293.1</ele>
        <time>2021-05-03T08:42:02Z</time>
      </trkpt>
      <trkpt lat="45.21241" lon="5.39753">
        <ele>293.3</ele>
        <time>2021-05-03T08:42:03Z</time>
      </trkpt>
      <trkpt lat="45.21242" lon="5.39753">
        <ele>293.4</ele>
        <time>2021-05-03T08:42:04Z</time>
      </trkpt>
      <trkpt lat="45.21245" lon="5.39752">
        <ele>293.6</ele>
        <time>2021-05-03T08:42:05Z</time>
      </trkpt>
      <trkpt lat="45.2125" lon="5.39749">
        <ele>294</ele>
        <time>2021-05-03T08:42:07Z</time>
      </trkpt>
      <trkpt lat="45.21253" lon="5.39748">
        <ele>294.2</ele>
        <time>2021-05-03T08:42:08Z</time>
      </trkpt>
      <trkpt lat="45.21255" lon="5.39747">
        <ele>294.3</ele>
        <time>2021-05-03T08:42:09Z</time>
      </trkpt>
      <trkpt lat="45.21258" lon="5.39746">
        <ele>294.5</ele>
        <time>2021-05-03T08:42:10Z</time>
      </trkpt>
      <trkpt lat="45.2126" lon="5.39745">
        <ele>294.6</ele>
        <time>2021-05-03T08:42:11Z</time>
      </trkpt>
      <trkpt lat="45.21263" lon="5.39744">
        <ele>294.8</ele>
        <time>2021-05-03T08:42:12Z</time>
      </trkpt>
      <trkpt lat="45.21264" lon="5.39744">
        <ele>294.9</ele>
        <time>2021-05-03T08:42:13Z</time>
      </trkpt>
      <trkpt lat="45.21268" lon="5.39743">
        <ele>295.1</ele>
        <time>2021-05-03T08:42:14Z</time>
      </trkpt>
      <trkpt lat="45.21269" lon="5.39742">
        <ele>295.2</ele>
        <time>2021-05-03T08:42:15Z</time>
      </trkpt>
      <trkpt lat="45.21275" lon="5.39741">
        <ele>295.6</ele>
        <time>2021-05-03T08:42:17Z</time>
      </trkpt>
      <trkpt lat="45.21277" lon="5.3974">
        <ele>295.7</ele>
        <time>2021-05-03T08:42:18Z</time>
      </trkpt>
      <trkpt lat="45.21282" lon="5.39739">
        <ele>296</ele>
        <time>2021-05-03T08:42:20Z</time>
      </trkpt>
      <trkpt lat="45.21286" lon="5.39739">
        <ele>296.3</ele>
        <time>2021-05-03T08:42:21Z</time>
      </trkpt>
      <trkpt lat="45.21288" lon="5.39739">
        <ele>296.4</ele>
        <time>2021-05-03T08:42:22Z</time>
      </trkpt>
      <trkpt lat="45.21291" lon="5.39739">
        <ele>296.6</ele>
        <time>2021-05-03T08:42:23Z</time>
      </trkpt>
      <trkpt lat="45.21297" lon="5.3974">
        <ele>296.9</ele>
        <time>2021-05-03T08:42:25Z</time>
      </trkpt>
      <trkpt lat="45.21301" lon="5.3974">
        <ele>297.1</ele>
        <time>2021-05-03T08:42:27Z</time>
      </trkpt>
      <trkpt lat="45.21304" lon="5.3974">
        <ele>297.3</ele>
        <time>2021-05-03T08:42:28Z</time>
      </trkpt>
      <trkpt lat="45.21305" lon="5.3974">
        <ele>297.3</ele>
        <time>2021-05-03T08:42:29Z</time>
      </trkpt>
      <trkpt lat="45.21307" lon="5.39741">
        <ele>297.4</ele>
        <time>2021-05-03T08:42:30Z</time>
      </trkpt>
      <trkpt lat="45.21312" lon="5.39742">
        <ele>297.7</ele>
        <time>2021-05-03T08:42:32Z</time>
      </trkpt>
      <trkpt lat="45.21317" lon="5.39742">
        <ele>298</ele>
        <time>2021-05-03T08:42:34Z</time>
      </trkpt>
      <trkpt lat="45.2132" lon="5.39742">
        <ele>298.2</ele>
        <time>2021-05-03T08:42:35Z</time>
      </trkpt>
      <trkpt lat="45.21323" lon="5.39742">
        <ele>298.3</ele>
        <time>2021-05-03T08:42:36Z</time>
      </trkpt>
      <trkpt lat="45.21329" lon="5.39741">
        <ele>298.6</ele>
        <time>2021-05-03T08:42:38Z</time>
      </trkpt>
      <trkpt lat="45.21333" lon="5.39741">
        <ele>298.9</ele>
        <time>2021-05-03T08:42:39Z</time>
      </trkpt>
      <trkpt lat="45.21335" lon="5.3974">
        <ele>298.9</ele>
        <time>2021-05-03T08:42:40Z</time>
      </trkpt>
      <trkpt lat="45.21337" lon="5.3974">
        <ele>299.1</ele>
        <time>2021-05-03T08:42:41Z</time>
      </trkpt>
      <trkpt lat="45.21341" lon="5.39739">
        <ele>299.3</ele>
        <time>2021-05-03T08:42:42Z</time>
      </trkpt>
      <trkpt lat="45.21343" lon="5.39738">
        <ele>299.4</ele>
        <time>2021-05-03T08:42:43Z</time>
      </trkpt>
      <trkpt lat="45.21348" lon="5.39738">
        <ele>299.6</ele>
        <time>2021-05-03T08:42:44Z</time>
      </trkpt>
      <trkpt lat="45.21353" lon="5.39738">
        <ele>299.9</ele>
        <time>2021-05-03T08:42:46Z</time>
      </trkpt>
      <trkpt lat="45.21356" lon="5.39738">
        <ele>300.1</ele>
        <time>2021-05-03T08:42:47Z</time>
      </trkpt>
      <trkpt lat="45.21359" lon="5.39737">
        <ele>300.3</ele>
        <time>2021-05-03T08:42:48Z</time>
      </trkpt>
      <trkpt lat="45.21362" lon="5.39737">
        <ele>300.4</ele>
        <time>2021-05-03T08:42:49Z</time>
      </trkpt>
      <trkpt lat="45.21365" lon="5.39737">
        <ele>300.6</ele>
        <time>2021-05-03T08:42:50Z</time>
      </trkpt>
      <trkpt lat="45.21368" lon="5.39738">
        <ele>300.7</ele>
        <time>2021-05-03T08:42:51Z</time>
      </trkpt>
      <trkpt lat="45.21371" lon="5.39739">
        <ele>300.9</ele>
        <time>2021-05-03T08:42:52Z</time>
      </trkpt>
      <trkpt lat="45.21374" lon="5.39739">
        <ele>301</ele>
        <time>2021-05-03T08:42:53Z</time>
      </trkpt>
      <trkpt lat="45.21377" lon="5.39739">
        <ele>301.2</ele>
        <time>2021-05-03T08:42:54Z</time>
      </trkpt>
      <trkpt lat="45.2138" lon="5.39741">
        <ele>301.4</ele>
        <time>2021-05-03T08:42:55Z</time>
      </trkpt>
      <trkpt lat="45.21383" lon="5.39742">
        <ele>301.5</ele>
        <time>2021-05-03T08:42:56Z</time>
      </trkpt>
      <trkpt lat="45.21386" lon="5.39742">
        <ele>301.7</ele>
        <time>2021-05-03T08:42:57Z</time>
      </trkpt>
      <trkpt lat="45.21389" lon="5.39742">
        <ele>301.9</ele>
        <time>2021-05-03T08:42:58Z</time>
      </trkpt>
      <trkpt lat="45.21391" lon="5.39742">
        <ele>302</ele>
        <time>2021-05-03T08:42:59Z</time>
      </trkpt>
      <trkpt lat="45.21393" lon="5.39743">
        <ele>302.1</ele>
        <time>2021-05-03T08:43:00Z</time>
      </trkpt>
      <trkpt lat="45.21396" lon="5.39743">
        <ele>302.3</ele>
        <time>2021-05-03T08:43:01Z</time>
      </trkpt>
      <trkpt lat="45.21399" lon="5.39744">
        <ele>302.5</ele>
        <time>2021-05-03T08:43:02Z</time>
      </trkpt>
      <trkpt lat="45.21402" lon="5.39745">
        <ele>302.7</ele>
        <time>2021-05-03T08:43:03Z</time>
      </trkpt>
      <trkpt lat="45.21405" lon="5.39747">
        <ele>302.8</ele>
        <time>2021-05-03T08:43:04Z</time>
      </trkpt>
      <trkpt lat="45.21409" lon="5.39749">
        <ele>303.1</ele>
        <time>2021-05-03T08:43:05Z</time>
      </trkpt>
      <trkpt lat="45.2141" lon="5.39749">
        <ele>303.1</ele>
        <time>2021-05-03T08:43:06Z</time>
      </trkpt>
      <trkpt lat="45.21414" lon="5.3975">
        <ele>303.4</ele>
        <time>2021-05-03T08:43:07Z</time>
      </trkpt>
      <trkpt lat="45.21416" lon="5.39751">
        <ele>303.5</ele>
        <time>2021-05-03T08:43:08Z</time>
      </trkpt>
      <trkpt lat="45.21418" lon="5.39753">
        <ele>303.6</ele>
        <time>2021-05-03T08:43:09Z</time>
      </trkpt>
      <trkpt lat="45.21422" lon="5.39754">
        <ele>303.8</ele>
        <time>2021-05-03T08:43:10Z</time>
      </trkpt>
      <trkpt lat="45.21423" lon="5.39755">
        <ele>303.9</ele>
        <time>2021-05-03T08:43:11Z</time>
      </trkpt>
      <trkpt lat="45.21426" lon="5.39757">
        <ele>304.1</ele>
        <time>2021-05-03T08:43:12Z</time>
      </trkpt>
      <trkpt lat="45.21428" lon="5.39758">
        <ele>304.2</ele>
        <time>2021-05-03T08:43:13Z</time>
      </trkpt>
      <trkpt lat="45.21433" lon="5.39758">
        <ele>304.5</ele>
        <time>2021-05-03T08:43:15Z</time>
      </trkpt>
      <trkpt lat="45.21437" lon="5.3976">
        <ele>304.8</ele>
        <time>2021-05-03T08:43:16Z</time>
      </trkpt>
      <trkpt lat="45.21438" lon="5.39761">
        <ele>304.9</ele>
        <time>2021-05-03T08:43:17Z</time>
      </trkpt>
      <trkpt lat="45.21444" lon="5.39764">
        <ele>305.2</ele>
        <time>2021-05-03T08:43:19Z</time>
      </trkpt>
      <trkpt lat="45.21447" lon="5.39765">
        <ele>305.4</ele>
        <time>2021-05-03T08:43:20Z</time>
      </trkpt>
      <trkpt lat="45.21452" lon="5.39767">
        <ele>305.7</ele>
        <time>2021-05-03T08:43:22Z</time>
      </trkpt>
      <trkpt lat="45.21455" lon="5.39768">
        <ele>305.9</ele>
        <time>2021-05-03T08:43:23Z</time>
      </trkpt>
      <trkpt lat="45.21459" lon="5.39772">
        <ele>306.2</ele>
        <time>2021-05-03T08:43:25Z</time>
      </trkpt>
      <trkpt lat="45.21462" lon="5.39773">
        <ele>306.4</ele>
        <time>2021-05-03T08:43:26Z</time>
      </trkpt>
      <trkpt lat="45.21466" lon="5.39775">
        <ele>306.7</ele>
        <time>2021-05-03T08:43:27Z</time>
      </trkpt>
      <trkpt lat="45.21468" lon="5.39776">
        <ele>306.8</ele>
        <time>2021-05-03T08:43:28Z</time>
      </trkpt>
      <trkpt lat="45.21473" lon="5.39778">
        <ele>307.1</ele>
        <time>2021-05-03T08:43:29Z</time>
      </trkpt>
      <trkpt lat="45.21476" lon="5.39779">
        <ele>307.3</ele>
        <time>2021-05-03T08:43:30Z</time>
      </trkpt>
      <trkpt lat="45.21478" lon="5.39781">
        <ele>307.4</ele>
        <time>2021-05-03T08:43:32Z</time>
      </trkpt>
      <trkpt lat="45.21481" lon="5.39782">
        <ele>307.6</ele>
        <time>2021-05-03T08:43:33Z</time>
      </trkpt>
      <trkpt lat="45.21484" lon="5.39783">
        <ele>307.8</ele>
        <time>2021-05-03T08:43:34Z</time>
      </trkpt>
      <trkpt lat="45.21487" lon="5.39784">
        <ele>308</ele>
        <time>2021-05-03T08:43:35Z</time>
      </trkpt>
      <trkpt lat="45.21489" lon="5.39785">
        <ele>308.1</ele>
        <time>2021-05-03T08:43:36Z</time>
      </trkpt>
      <trkpt lat="45.21494" lon="5.39789">
        <ele>308.5</ele>
        <time>2021-05-03T08:43:38Z</time>
      </trkpt>
      <trkpt lat="45.21497" lon="5.39791">
        <ele>308.6</ele>
        <time>2021-05-03T08:43:39Z</time>
      </trkpt>
      <trkpt lat="45.21499" lon="5.39793">
        <ele>308.8</ele>
        <time>2021-05-03T08:43:40Z</time>
      </trkpt>
      <trkpt lat="45.21503" lon="5.39796">
        <ele>309</ele>
        <time>2021-05-03T08:43:41Z</time>
      </trkpt>
      <trkpt lat="45.21504" lon="5.39797">
        <ele>309.2</ele>
        <time>2021-05-03T08:43:42Z</time>
      </trkpt>
      <trkpt lat="45.21508" lon="5.39802">
        <ele>309.5</ele>
        <time>2021-05-03T08:43:44Z</time>
      </trkpt>
      <trkpt lat="45.21511" lon="5.39805">
        <ele>309.7</ele>
        <time>2021-05-03T08:43:45Z</time>
      </trkpt>
      <trkpt lat="45.21512" lon="5.39806">
        <ele>309.8</ele>
        <time>2021-05-03T08:43:46Z</time>
      </trkpt>
      <trkpt lat="45.21516" lon="5.39809">
        <ele>310</ele>
        <time>2021-05-03T08:43:47Z</time>
      </trkpt>
      <trkpt lat="45.21517" lon="5.39809">
        <ele>310.1</ele>
        <time>2021-05-03T08:43:48Z</time>
      </trkpt>
      <trkpt lat="45.2152" lon="5.39812">
        <ele>310.4</ele>
        <time>2021-05-03T08:43:49Z</time>
      </trkpt>
      <trkpt lat="45.21525" lon="5.39817">
        <ele>310.8</ele>
        <time>2021-05-03T08:43:51Z</time>
      </trkpt>
      <trkpt lat="45.21528" lon="5.3982">
        <ele>311</ele>
        <time>2021-05-03T08:43:52Z</time>
      </trkpt>
      <trkpt lat="45.21532" lon="5.39824">
        <ele>311.4</ele>
        <time>2021-05-03T08:43:54Z</time>
      </trkpt>
      <trkpt lat="45.21534" lon="5.39826">
        <ele>311.6</ele>
        <time>2021-05-03T08:43:55Z</time>
      </trkpt>
      <trkpt lat="45.21537" lon="5.39831">
        <ele>312</ele>
        <time>2021-05-03T08:43:57Z</time>
      </trkpt>
      <trkpt lat="45.21541" lon="5.39833">
        <ele>312.4</ele>
        <time>2021-05-03T08:43:58Z</time>
      </trkpt>
      <trkpt lat="45.21543" lon="5.39834">
        <ele>312.5</ele>
        <time>2021-05-03T08:43:59Z</time>
      </trkpt>
      <trkpt lat="45.21546" lon="5.39832">
        <ele>312.8</ele>
        <time>2021-05-03T08:44:01Z</time>
      </trkpt>
      <trkpt lat="45.21549" lon="5.39829">
        <ele>312.9</ele>
        <time>2021-05-03T08:44:02Z</time>
      </trkpt>
      <trkpt lat="45.21548" lon="5.39819">
        <ele>313.2</ele>
        <time>2021-05-03T08:44:04Z</time>
      </trkpt>
      <trkpt lat="45.21543" lon="5.3981">
        <ele>313.5</ele>
        <time>2021-05-03T08:44:06Z</time>
      </trkpt>
      <trkpt lat="45.2154" lon="5.39806">
        <ele>313.7</ele>
        <time>2021-05-03T08:44:07Z</time>
      </trkpt>
      <trkpt lat="45.21534" lon="5.39801">
        <ele>313.9</ele>
        <time>2021-05-03T08:44:09Z</time>
      </trkpt>
      <trkpt lat="45.21529" lon="5.39798">
        <ele>314.1</ele>
        <time>2021-05-03T08:44:10Z</time>
      </trkpt>
      <trkpt lat="45.21526" lon="5.39796">
        <ele>314.3</ele>
        <time>2021-05-03T08:44:12Z</time>
      </trkpt>
      <trkpt lat="45.21523" lon="5.39794">
        <ele>314.4</ele>
        <time>2021-05-03T08:44:13Z</time>
      </trkpt>
      <trkpt lat="45.21521" lon="5.39791">
        <ele>314.5</ele>
        <time>2021-05-03T08:44:14Z</time>
      </trkpt>
      <trkpt lat="45.21518" lon="5.39788">
        <ele>314.7</ele>
        <time>2021-05-03T08:44:15Z</time>
      </trkpt>
      <trkpt lat="45.21513" lon="5.39784">
        <ele>314.9</ele>
        <time>2021-05-03T08:44:16Z</time>
      </trkpt>
      <trkpt lat="45.2151" lon="5.3978">
        <ele>315.1</ele>
        <time>2021-05-03T08:44:18Z</time>
      </trkpt>
      <trkpt lat="45.21508" lon="5.39777">
        <ele>315.3</ele>
        <time>2021-05-03T08:44:19Z</time>
      </trkpt>
      <trkpt lat="45.21506" lon="5.39775">
        <ele>315.4</ele>
        <time>2021-05-03T08:44:20Z</time>
      </trkpt>
      <trkpt lat="45.21502" lon="5.39771">
        <ele>315.6</ele>
        <time>2021-05-03T08:44:21Z</time>
      </trkpt>
      <trkpt lat="45.21498" lon="5.39767">
        <ele>315.9</ele>
        <time>2021-05-03T08:44:22Z</time>
      </trkpt>
      <trkpt lat="45.21495" lon="5.39763">
        <ele>316.1</ele>
        <time>2021-05-03T08:44:24Z</time>
      </trkpt>
      <trkpt lat="45.21492" lon="5.3976">
        <ele>316.3</ele>
        <time>2021-05-03T08:44:25Z</time>
      </trkpt>
      <trkpt lat="45.21488" lon="5.39757">
        <ele>316.5</ele>
        <time>2021-05-03T08:44:26Z</time>
      </trkpt>
      <trkpt lat="45.21485" lon="5.39755">
        <ele>316.7</ele>
        <time>2021-05-03T08:44:28Z</time>
      </trkpt>
      <trkpt lat="45.21482" lon="5.39753">
        <ele>316.9</ele>
        <time>2021-05-03T08:44:29Z</time>
      </trkpt>
      <trkpt lat="45.2148" lon="5.3975">
        <ele>317</ele>
        <time>2021-05-03T08:44:30Z</time>
      </trkpt>
      <trkpt lat="45.21475" lon="5.39746">
        <ele>317.3</ele>
        <time>2021-05-03T08:44:32Z</time>
      </trkpt>
      <trkpt lat="45.21469" lon="5.39741">
        <ele>317.7</ele>
        <time>2021-05-03T08:44:34Z</time>
      </trkpt>
      <trkpt lat="45.21467" lon="5.39739">
        <ele>317.9</ele>
        <time>2021-05-03T08:44:35Z</time>
      </trkpt>
      <trkpt lat="45.21462" lon="5.39736">
        <ele>318.2</ele>
        <time>2021-05-03T08:44:36Z</time>
      </trkpt>
      <trkpt lat="45.2146" lon="5.39733">
        <ele>318.3</ele>
        <time>2021-05-03T08:44:37Z</time>
      </trkpt>
      <trkpt lat="45.21456" lon="5.3973">
        <ele>318.6</ele>
        <time>2021-05-03T08:44:39Z</time>
      </trkpt>
      <trkpt lat="45.2145" lon="5.39725">
        <ele>319</ele>
        <time>2021-05-03T08:44:41Z</time>
      </trkpt>
      <trkpt lat="45.21447" lon="5.39722">
        <ele>319.3</ele>
        <time>2021-05-03T08:44:43Z</time>
      </trkpt>
      <trkpt lat="45.21444" lon="5.39719">
        <ele>319.5</ele>
        <time>2021-05-03T08:44:44Z</time>
      </trkpt>
      <trkpt lat="45.21443" lon="5.39718">
        <ele>319.6</ele>
        <time>2021-05-03T08:44:45Z</time>
      </trkpt>
      <trkpt lat="45.21441" lon="5.39715">
        <ele>319.8</ele>
        <time>2021-05-03T08:44:46Z</time>
      </trkpt>
      <trkpt lat="45.2144" lon="5.39714">
        <ele>319.8</ele>
        <time>2021-05-03T08:44:47Z</time>
      </trkpt>
      <trkpt lat="45.21438" lon="5.3971">
        <ele>320.1</ele>
        <time>2021-05-03T08:44:48Z</time>
      </trkpt>
      <trkpt lat="45.21437" lon="5.39709">
        <ele>320.2</ele>
        <time>2021-05-03T08:44:49Z</time>
      </trkpt>
      <trkpt lat="45.21435" lon="5.39706">
        <ele>320.4</ele>
        <time>2021-05-03T08:44:50Z</time>
      </trkpt>
      <trkpt lat="45.21434" lon="5.39704">
        <ele>320.5</ele>
        <time>2021-05-03T08:44:51Z</time>
      </trkpt>
      <trkpt lat="45.21433" lon="5.39697">
        <ele>320.9</ele>
        <time>2021-05-03T08:44:53Z</time>
      </trkpt>
      <trkpt lat="45.21434" lon="5.39691">
        <ele>321.2</ele>
        <time>2021-05-03T08:44:55Z</time>
      </trkpt>
      <trkpt lat="45.21434" lon="5.39688">
        <ele>321.3</ele>
        <time>2021-05-03T08:44:56Z</time>
      </trkpt>
      <trkpt lat="45.21435" lon="5.3968">
        <ele>321.7</ele>
        <time>2021-05-03T08:44:58Z</time>
      </trkpt>
      <trkpt lat="45.21437" lon="5.39674">
        <ele>322.1</ele>
        <time>2021-05-03T08:45:00Z</time>
      </trkpt>
      <trkpt lat="45.21437" lon="5.39671">
        <ele>322.3</ele>
        <time>2021-05-03T08:45:01Z</time>
      </trkpt>
      <trkpt lat="45.21437" lon="5.39664">
        <ele>322.6</ele>
        <time>2021-05-03T08:45:03Z</time>
      </trkpt>
      <trkpt lat="45.21437" lon="5.3966">
        <ele>322.8</ele>
        <time>2021-05-03T08:45:04Z</time>
      </trkpt>
      <trkpt lat="45.21435" lon="5.39651">
        <ele>323.2</ele>
        <time>2021-05-03T08:45:06Z</time>
      </trkpt>
      <trkpt lat="45.21432" lon="5.39644">
        <ele>323.6</ele>
        <time>2021-05-03T08:45:08Z</time>
      </trkpt>
      <trkpt lat="45.2143" lon="5.39641">
        <ele>323.8</ele>
        <time>2021-05-03T08:45:09Z</time>
      </trkpt>
      <trkpt lat="45.21427" lon="5.39637">
        <ele>324.1</ele>
        <time>2021-05-03T08:45:11Z</time>
      </trkpt>
      <trkpt lat="45.21423" lon="5.39637">
        <ele>324.3</ele>
        <time>2021-05-03T08:45:12Z</time>
      </trkpt>
      <trkpt lat="45.21419" lon="5.39636">
        <ele>324.5</ele>
        <time>2021-05-03T08:45:13Z</time>
      </trkpt>
      <trkpt lat="45.21416" lon="5.39636">
        <ele>324.7</ele>
        <time>2021-05-03T08:45:15Z</time>
      </trkpt>
      <trkpt lat="45.21412" lon="5.39637">
        <ele>325</ele>
        <time>2021-05-03T08:45:16Z</time>
      </trkpt>
      <trkpt lat="45.2141" lon="5.39638">
        <ele>325.1</ele>
        <time>2021-05-03T08:45:17Z</time>
      </trkpt>
      <trkpt lat="45.21406" lon="5.39642">
        <ele>325.3</ele>
        <time>2021-05-03T08:45:18Z</time>
      </trkpt>
      <trkpt lat="45.21403" lon="5.39645">
        <ele>325.5</ele>
        <time>2021-05-03T08:45:19Z</time>
      </trkpt>
      <trkpt lat="45.21401" lon="5.39647">
        <ele>325.7</ele>
        <time>2021-05-03T08:45:21Z</time>
      </trkpt>
      <trkpt lat="45.21399" lon="5.3965">
        <ele>325.8</ele>
        <time>2021-05-03T08:45:22Z</time>
      </trkpt>
      <trkpt lat="45.21397" lon="5.39652">
        <ele>326</ele>
        <time>2021-05-03T08:45:23Z</time>
      </trkpt>
      <trkpt lat="45.21394" lon="5.39655">
        <ele>326.1</ele>
        <time>2021-05-03T08:45:24Z</time>
      </trkpt>
      <trkpt lat="45.21389" lon="5.3966">
        <ele>326.4</ele>
        <time>2021-05-03T08:45:26Z</time>
      </trkpt>
      <trkpt lat="45.21386" lon="5.39664">
        <ele>326.6</ele>
        <time>2021-05-03T08:45:27Z</time>
      </trkpt>
      <trkpt lat="45.21385" lon="5.39666">
        <ele>326.7</ele>
        <time>2021-05-03T08:45:28Z</time>
      </trkpt>
      <trkpt lat="45.21379" lon="5.3967">
        <ele>327</ele>
        <time>2021-05-03T08:45:29Z</time>
      </trkpt>
      <trkpt lat="45.21376" lon="5.39671">
        <ele>327.2</ele>
        <time>2021-05-03T08:45:30Z</time>
      </trkpt>
      <trkpt lat="45.21374" lon="5.39673">
        <ele>327.3</ele>
        <time>2021-05-03T08:45:32Z</time>
      </trkpt>
      <trkpt lat="45.21371" lon="5.39674">
        <ele>327.4</ele>
        <time>2021-05-03T08:45:33Z</time>
      </trkpt>
      <trkpt lat="45.21368" lon="5.39676">
        <ele>327.6</ele>
        <time>2021-05-03T08:45:34Z</time>
      </trkpt>
      <trkpt lat="45.21364" lon="5.39678">
        <ele>327.8</ele>
        <time>2021-05-03T08:45:35Z</time>
      </trkpt>
      <trkpt lat="45.21358" lon="5.39678">
        <ele>328.1</ele>
        <time>2021-05-03T08:45:37Z</time>
      </trkpt>
      <trkpt lat="45.21355" lon="5.39678">
        <ele>328.2</ele>
        <time>2021-05-03T08:45:38Z</time>
      </trkpt>
      <trkpt lat="45.21352" lon="5.39678">
        <ele>328.4</ele>
        <time>2021-05-03T08:45:39Z</time>
      </trkpt>
      <trkpt lat="45.21348" lon="5.39677">
        <ele>328.6</ele>
        <time>2021-05-03T08:45:40Z</time>
      </trkpt>
      <trkpt lat="45.21345" lon="5.39677">
        <ele>328.7</ele>
        <time>2021-05-03T08:45:41Z</time>
      </trkpt>
      <trkpt lat="45.2134" lon="5.39676">
        <ele>329</ele>
        <time>2021-05-03T08:45:42Z</time>
      </trkpt>
      <trkpt lat="45.21333" lon="5.39676">
        <ele>329.3</ele>
        <time>2021-05-03T08:45:44Z</time>
      </trkpt>
      <trkpt lat="45.21327" lon="5.39677">
        <ele>329.6</ele>
        <time>2021-05-03T08:45:46Z</time>
      </trkpt>
      <trkpt lat="45.21324" lon="5.39677">
        <ele>329.7</ele>
        <time>2021-05-03T08:45:47Z</time>
      </trkpt>
      <trkpt lat="45.21318" lon="5.39675">
        <ele>330</ele>
        <time>2021-05-03T08:45:49Z</time>
      </trkpt>
      <trkpt lat="45.21314" lon="5.39673">
        <ele>330.2</ele>
        <time>2021-05-03T08:45:50Z</time>
      </trkpt>
      <trkpt lat="45.21308" lon="5.39671">
        <ele>330.5</ele>
        <time>2021-05-03T08:45:52Z</time>
      </trkpt>
      <trkpt lat="45.21304" lon="5.3967">
        <ele>330.7</ele>
        <time>2021-05-03T08:45:53Z</time>
      </trkpt>
      <trkpt lat="45.21297" lon="5.39668">
        <ele>331.1</ele>
        <time>2021-05-03T08:45:55Z</time>
      </trkpt>
      <trkpt lat="45.21292" lon="5.39666">
        <ele>331.3</ele>
        <time>2021-05-03T08:45:56Z</time>
      </trkpt>
      <trkpt lat="45.21287" lon="5.39664">
        <ele>331.6</ele>
        <time>2021-05-03T08:45:58Z</time>
      </trkpt>
      <trkpt lat="45.21284" lon="5.39663">
        <ele>331.8</ele>
        <time>2021-05-03T08:45:59Z</time>
      </trkpt>
      <trkpt lat="45.21281" lon="5.39662">
        <ele>331.9</ele>
        <time>2021-05-03T08:46:00Z</time>
      </trkpt>
      <trkpt lat="45.21277" lon="5.39662">
        <ele>332.1</ele>
        <time>2021-05-03T08:46:01Z</time>
      </trkpt>
      <trkpt lat="45.2127" lon="5.3966">
        <ele>332.5</ele>
        <time>2021-05-03T08:46:03Z</time>
      </trkpt>
      <trkpt lat="45.21264" lon="5.3966">
        <ele>332.8</ele>
        <time>2021-05-03T08:46:05Z</time>
      </trkpt>
      <trkpt lat="45.21261" lon="5.39659">
        <ele>332.9</ele>
        <time>2021-05-03T08:46:06Z</time>
      </trkpt>
      <trkpt lat="45.21258" lon="5.39659">
        <ele>333.1</ele>
        <time>2021-05-03T08:46:07Z</time>
      </trkpt>
      <trkpt lat="45.21254" lon="5.39659">
        <ele>333.3</ele>
        <time>2021-05-03T08:46:08Z</time>
      </trkpt>
      <trkpt lat="45.21247" lon="5.39659">
        <ele>333.7</ele>
        <time>2021-05-03T08:46:10Z</time>
      </trkpt>
      <trkpt lat="45.21244" lon="5.39658">
        <ele>333.8</ele>
        <time>2021-05-03T08:46:11Z</time>
      </trkpt>
      <trkpt lat="45.21238" lon="5.39657">
        <ele>334.1</ele>
        <time>2021-05-03T08:46:13Z</time>
      </trkpt>
      <trkpt lat="45.21234" lon="5.39655">
        <ele>334.3</ele>
        <time>2021-05-03T08:46:14Z</time>
      </trkpt>
      <trkpt lat="45.21229" lon="5.3965">
        <ele>334.6</ele>
        <time>2021-05-03T08:46:16Z</time>
      </trkpt>
      <trkpt lat="45.21226" lon="5.39644">
        <ele>334.8</ele>
        <time>2021-05-03T08:46:17Z</time>
      </trkpt>
      <trkpt lat="45.21223" lon="5.39638">
        <ele>335.1</ele>
        <time>2021-05-03T08:46:19Z</time>
      </trkpt>
      <trkpt lat="45.21221" lon="5.3963">
        <ele>335.4</ele>
        <time>2021-05-03T08:46:20Z</time>
      </trkpt>
      <trkpt lat="45.21221" lon="5.39625">
        <ele>335.5</ele>
        <time>2021-05-03T08:46:22Z</time>
      </trkpt>
      <trkpt lat="45.21221" lon="5.39621">
        <ele>335.5</ele>
        <time>2021-05-03T08:46:23Z</time>
      </trkpt>
      <trkpt lat="45.21221" lon="5.39614">
        <ele>335.6</ele>
        <time>2021-05-03T08:46:24Z</time>
      </trkpt>
      <trkpt lat="45.21222" lon="5.39608">
        <ele>335.7</ele>
        <time>2021-05-03T08:46:25Z</time>
      </trkpt>
      <trkpt lat="45.21225" lon="5.39597">
        <ele>335.9</ele>
        <time>2021-05-03T08:46:27Z</time>
      </trkpt>
      <trkpt lat="45.21228" lon="5.39591">
        <ele>336</ele>
        <time>2021-05-03T08:46:28Z</time>
      </trkpt>
      <trkpt lat="45.2123" lon="5.39585">
        <ele>336.2</ele>
        <time>2021-05-03T08:46:30Z</time>
      </trkpt>
      <trkpt lat="45.21233" lon="5.39577">
        <ele>336.3</ele>
        <time>2021-05-03T08:46:32Z</time>
      </trkpt>
      <trkpt lat="45.21236" lon="5.39569">
        <ele>336.4</ele>
        <time>2021-05-03T08:46:33Z</time>
      </trkpt>
      <trkpt lat="45.21238" lon="5.39559">
        <ele>336.6</ele>
        <time>2021-05-03T08:46:35Z</time>
      </trkpt>
      <trkpt lat="45.2124" lon="5.39554">
        <ele>336.6</ele>
        <time>2021-05-03T08:46:36Z</time>
      </trkpt>
      <trkpt lat="45.21244" lon="5.39543">
        <ele>336.7</ele>
        <time>2021-05-03T08:46:37Z</time>
      </trkpt>
      <trkpt lat="45.21247" lon="5.39534">
        <ele>336.8</ele>
        <time>2021-05-03T08:46:39Z</time>
      </trkpt>
      <trkpt lat="45.21249" lon="5.39527">
        <ele>336.8</ele>
        <time>2021-05-03T08:46:40Z</time>
      </trkpt>
      <trkpt lat="45.2125" lon="5.39521">
        <ele>336.9</ele>
        <time>2021-05-03T08:46:41Z</time>
      </trkpt>
      <trkpt lat="45.21252" lon="5.39515">
        <ele>336.9</ele>
        <time>2021-05-03T08:46:42Z</time>
      </trkpt>
      <trkpt lat="45.21254" lon="5.39508">
        <ele>337</ele>
        <time>2021-05-03T08:46:43Z</time>
      </trkpt>
      <trkpt lat="45.21256" lon="5.39502">
        <ele>337</ele>
        <time>2021-05-03T08:46:44Z</time>
      </trkpt>
      <trkpt lat="45.21258" lon="5.39496">
        <ele>337.1</ele>
        <time>2021-05-03T08:46:45Z</time>
      </trkpt>
      <trkpt lat="45.2126" lon="5.39491">
        <ele>337.1</ele>
        <time>2021-05-03T08:46:46Z</time>
      </trkpt>
      <trkpt lat="45.21261" lon="5.39485">
        <ele>337.1</ele>
        <time>2021-05-03T08:46:47Z</time>
      </trkpt>
      <trkpt lat="45.21259" lon="5.3948">
        <ele>337.1</ele>
        <time>2021-05-03T08:46:48Z</time>
      </trkpt>
      <trkpt lat="45.21262" lon="5.39475">
        <ele>337.1</ele>
        <time>2021-05-03T08:46:49Z</time>
      </trkpt>
      <trkpt lat="45.21263" lon="5.39476">
        <ele>337.1</ele>
        <time>2021-05-03T08:46:51Z</time>
      </trkpt>
      <trkpt lat="45.21263" lon="5.3948">
        <ele>337.1</ele>
        <time>2021-05-03T08:46:52Z</time>
      </trkpt>
      <trkpt lat="45.21263" lon="5.39481">
        <ele>337.1</ele>
        <time>2021-05-03T08:46:53Z</time>
      </trkpt>
      <trkpt lat="45.21262" lon="5.39483">
        <ele>337.1</ele>
        <time>2021-05-03T08:46:54Z</time>
      </trkpt>
      <trkpt lat="45.21262" lon="5.39483">
        <ele>337.1</ele>
        <time>2021-05-03T08:46:55Z</time>
      </trkpt>
      <trkpt lat="45.21262" lon="5.39483">
        <ele>337.1</ele>
        <time>2021-05-03T08:46:56Z</time>
      </trkpt>
      <trkpt lat="45.21262" lon="5.39483">
        <ele>337.1</ele>
        <time>2021-05-03T08:46:57Z</time>
      </trkpt>
      <trkpt lat="45.21262" lon="5.39483">
        <ele>337.1</ele>
        <time>2021-05-03T08:46:58Z</time>
      </trkpt>
      <trkpt lat="45.21262" lon="5.39481">
        <ele>337.1</ele>
        <time>2021-05-03T08:46:59Z</time>
      </trkpt>
      <trkpt lat="45.21263" lon="5.39478">
        <ele>337.1</ele>
        <time>2021-05-03T08:47:27Z</time>
      </trkpt>
      <trkpt lat="45.21263" lon="5.39475">
        <ele>337.1</ele>
        <time>2021-05-03T08:47:28Z</time>
      </trkpt>
      <trkpt lat="45.21264" lon="5.39472">
        <ele>337.1</ele>
        <time>2021-05-03T08:47:29Z</time>
      </trkpt>
      <trkpt lat="45.21264" lon="5.39467">
        <ele>337.1</ele>
        <time>2021-05-03T08:47:30Z</time>
      </trkpt>
      <trkpt lat="45.21264" lon="5.39465">
        <ele>337.1</ele>
        <time>2021-05-03T08:47:31Z</time>
      </trkpt>
      <trkpt lat="45.21263" lon="5.39461">
        <ele>337.1</ele>
        <time>2021-05-03T08:47:32Z</time>
      </trkpt>
      <trkpt lat="45.21264" lon="5.39455">
        <ele>337.1</ele>
        <time>2021-05-03T08:47:34Z</time>
      </trkpt>
      <trkpt lat="45.21266" lon="5.39447">
        <ele>337.1</ele>
        <time>2021-05-03T08:47:35Z</time>
      </trkpt>
      <trkpt lat="45.21268" lon="5.39438">
        <ele>337.2</ele>
        <time>2021-05-03T08:47:36Z</time>
      </trkpt>
      <trkpt lat="45.21273" lon="5.39425">
        <ele>337.2</ele>
        <time>2021-05-03T08:47:38Z</time>
      </trkpt>
      <trkpt lat="45.21275" lon="5.39418">
        <ele>337.3</ele>
        <time>2021-05-03T08:47:39Z</time>
      </trkpt>
      <trkpt lat="45.2128" lon="5.39409">
        <ele>337.4</ele>
        <time>2021-05-03T08:47:41Z</time>
      </trkpt>
      <trkpt lat="45.21282" lon="5.39402">
        <ele>337.4</ele>
        <time>2021-05-03T08:47:42Z</time>
      </trkpt>
      <trkpt lat="45.21284" lon="5.39396">
        <ele>337.5</ele>
        <time>2021-05-03T08:47:43Z</time>
      </trkpt>
      <trkpt lat="45.21286" lon="5.3939">
        <ele>337.5</ele>
        <time>2021-05-03T08:47:44Z</time>
      </trkpt>
      <trkpt lat="45.21288" lon="5.39383">
        <ele>337.6</ele>
        <time>2021-05-03T08:47:45Z</time>
      </trkpt>
      <trkpt lat="45.2129" lon="5.39377">
        <ele>337.7</ele>
        <time>2021-05-03T08:47:46Z</time>
      </trkpt>
      <trkpt lat="45.21292" lon="5.3937">
        <ele>337.7</ele>
        <time>2021-05-03T08:47:47Z</time>
      </trkpt>
      <trkpt lat="45.21293" lon="5.39364">
        <ele>337.8</ele>
        <time>2021-05-03T08:47:48Z</time>
      </trkpt>
      <trkpt lat="45.21294" lon="5.39358">
        <ele>337.9</ele>
        <time>2021-05-03T08:47:49Z</time>
      </trkpt>
      <trkpt lat="45.21296" lon="5.39352">
        <ele>337.9</ele>
        <time>2021-05-03T08:47:50Z</time>
      </trkpt>
      <trkpt lat="45.21298" lon="5.39347">
        <ele>338</ele>
        <time>2021-05-03T08:47:51Z</time>
      </trkpt>
      <trkpt lat="45.213" lon="5.39332">
        <ele>338.2</ele>
        <time>2021-05-03T08:47:53Z</time>
      </trkpt>
      <trkpt lat="45.21301" lon="5.39326">
        <ele>338.4</ele>
        <time>2021-05-03T08:47:54Z</time>
      </trkpt>
      <trkpt lat="45.21302" lon="5.39319">
        <ele>338.5</ele>
        <time>2021-05-03T08:47:55Z</time>
      </trkpt>
      <trkpt lat="45.21303" lon="5.39312">
        <ele>338.6</ele>
        <time>2021-05-03T08:47:56Z</time>
      </trkpt>
      <trkpt lat="45.21304" lon="5.39306">
        <ele>338.7</ele>
        <time>2021-05-03T08:47:57Z</time>
      </trkpt>
      <trkpt lat="45.21306" lon="5.39299">
        <ele>338.9</ele>
        <time>2021-05-03T08:47:58Z</time>
      </trkpt>
      <trkpt lat="45.21307" lon="5.39293">
        <ele>339</ele>
        <time>2021-05-03T08:47:59Z</time>
      </trkpt>
      <trkpt lat="45.21307" lon="5.39287">
        <ele>339.1</ele>
        <time>2021-05-03T08:48:00Z</time>
      </trkpt>
      <trkpt lat="45.21307" lon="5.39282">
        <ele>339.2</ele>
        <time>2021-05-03T08:48:01Z</time>
      </trkpt>
      <trkpt lat="45.21309" lon="5.39275">
        <ele>339.4</ele>
        <time>2021-05-03T08:48:02Z</time>
      </trkpt>
      <trkpt lat="45.21313" lon="5.39264">
        <ele>339.7</ele>
        <time>2021-05-03T08:48:04Z</time>
      </trkpt>
      <trkpt lat="45.21316" lon="5.39257">
        <ele>339.9</ele>
        <time>2021-05-03T08:48:05Z</time>
      </trkpt>
      <trkpt lat="45.21319" lon="5.39245">
        <ele>340.2</ele>
        <time>2021-05-03T08:48:07Z</time>
      </trkpt>
      <trkpt lat="45.21321" lon="5.39237">
        <ele>340.5</ele>
        <time>2021-05-03T08:48:08Z</time>
      </trkpt>
      <trkpt lat="45.21324" lon="5.39228">
        <ele>340.7</ele>
        <time>2021-05-03T08:48:10Z</time>
      </trkpt>
      <trkpt lat="45.21325" lon="5.39222">
        <ele>340.9</ele>
        <time>2021-05-03T08:48:11Z</time>
      </trkpt>
      <trkpt lat="45.21328" lon="5.39211">
        <ele>341.3</ele>
        <time>2021-05-03T08:48:13Z</time>
      </trkpt>
      <trkpt lat="45.21331" lon="5.39202">
        <ele>341.7</ele>
        <time>2021-05-03T08:48:15Z</time>
      </trkpt>
      <trkpt lat="45.21335" lon="5.39192">
        <ele>342.1</ele>
        <time>2021-05-03T08:48:17Z</time>
      </trkpt>
      <trkpt lat="45.21339" lon="5.39183">
        <ele>342.5</ele>
        <time>2021-05-03T08:48:19Z</time>
      </trkpt>
      <trkpt lat="45.21343" lon="5.39176">
        <ele>342.8</ele>
        <time>2021-05-03T08:48:21Z</time>
      </trkpt>
      <trkpt lat="45.21345" lon="5.39173">
        <ele>342.9</ele>
        <time>2021-05-03T08:48:22Z</time>
      </trkpt>
      <trkpt lat="45.21348" lon="5.39169">
        <ele>343.1</ele>
        <time>2021-05-03T08:48:23Z</time>
      </trkpt>
      <trkpt lat="45.21351" lon="5.39166">
        <ele>343.3</ele>
        <time>2021-05-03T08:48:24Z</time>
      </trkpt>
      <trkpt lat="45.21356" lon="5.3916">
        <ele>343.7</ele>
        <time>2021-05-03T08:48:26Z</time>
      </trkpt>
      <trkpt lat="45.21359" lon="5.39157">
        <ele>343.9</ele>
        <time>2021-05-03T08:48:27Z</time>
      </trkpt>
      <trkpt lat="45.21363" lon="5.39153">
        <ele>344.1</ele>
        <time>2021-05-03T08:48:29Z</time>
      </trkpt>
      <trkpt lat="45.21367" lon="5.3915">
        <ele>344.4</ele>
        <time>2021-05-03T08:48:30Z</time>
      </trkpt>
      <trkpt lat="45.2137" lon="5.39145">
        <ele>344.7</ele>
        <time>2021-05-03T08:48:32Z</time>
      </trkpt>
      <trkpt lat="45.21373" lon="5.39142">
        <ele>344.9</ele>
        <time>2021-05-03T08:48:33Z</time>
      </trkpt>
      <trkpt lat="45.21376" lon="5.39139">
        <ele>345.1</ele>
        <time>2021-05-03T08:48:34Z</time>
      </trkpt>
      <trkpt lat="45.2138" lon="5.39135">
        <ele>345.5</ele>
        <time>2021-05-03T08:48:35Z</time>
      </trkpt>
      <trkpt lat="45.21383" lon="5.39131">
        <ele>345.7</ele>
        <time>2021-05-03T08:48:37Z</time>
      </trkpt>
      <trkpt lat="45.21385" lon="5.39128">
        <ele>346</ele>
        <time>2021-05-03T08:48:38Z</time>
      </trkpt>
      <trkpt lat="45.21388" lon="5.39124">
        <ele>346.2</ele>
        <time>2021-05-03T08:48:39Z</time>
      </trkpt>
      <trkpt lat="45.21392" lon="5.3912">
        <ele>346.5</ele>
        <time>2021-05-03T08:48:41Z</time>
      </trkpt>
      <trkpt lat="45.21394" lon="5.39117">
        <ele>346.8</ele>
        <time>2021-05-03T08:48:42Z</time>
      </trkpt>
      <trkpt lat="45.21397" lon="5.39114">
        <ele>347</ele>
        <time>2021-05-03T08:48:43Z</time>
      </trkpt>
      <trkpt lat="45.214" lon="5.3911">
        <ele>347.3</ele>
        <time>2021-05-03T08:48:44Z</time>
      </trkpt>
      <trkpt lat="45.21403" lon="5.39107">
        <ele>347.5</ele>
        <time>2021-05-03T08:48:46Z</time>
      </trkpt>
      <trkpt lat="45.21405" lon="5.39105">
        <ele>347.7</ele>
        <time>2021-05-03T08:48:47Z</time>
      </trkpt>
      <trkpt lat="45.21409" lon="5.39099">
        <ele>348.1</ele>
        <time>2021-05-03T08:48:49Z</time>
      </trkpt>
      <trkpt lat="45.21411" lon="5.39096">
        <ele>348.4</ele>
        <time>2021-05-03T08:48:50Z</time>
      </trkpt>
      <trkpt lat="45.21414" lon="5.3909">
        <ele>348.7</ele>
        <time>2021-05-03T08:48:52Z</time>
      </trkpt>
      <trkpt lat="45.21416" lon="5.39086">
        <ele>348.9</ele>
        <time>2021-05-03T08:48:53Z</time>
      </trkpt>
      <trkpt lat="45.21418" lon="5.39084">
        <ele>349.1</ele>
        <time>2021-05-03T08:48:54Z</time>
      </trkpt>
      <trkpt lat="45.2142" lon="5.3908">
        <ele>349.3</ele>
        <time>2021-05-03T08:48:55Z</time>
      </trkpt>
      <trkpt lat="45.21423" lon="5.39074">
        <ele>349.7</ele>
        <time>2021-05-03T08:48:57Z</time>
      </trkpt>
      <trkpt lat="45.21427" lon="5.39069">
        <ele>350.1</ele>
        <time>2021-05-03T08:48:59Z</time>
      </trkpt>
      <trkpt lat="45.21431" lon="5.39065">
        <ele>350.4</ele>
        <time>2021-05-03T08:49:00Z</time>
      </trkpt>
      <trkpt lat="45.21434" lon="5.39062">
        <ele>350.7</ele>
        <time>2021-05-03T08:49:01Z</time>
      </trkpt>
      <trkpt lat="45.21437" lon="5.39056">
        <ele>351.1</ele>
        <time>2021-05-03T08:49:03Z</time>
      </trkpt>
      <trkpt lat="45.21438" lon="5.39054">
        <ele>351.2</ele>
        <time>2021-05-03T08:49:04Z</time>
      </trkpt>
      <trkpt lat="45.21443" lon="5.39048">
        <ele>351.7</ele>
        <time>2021-05-03T08:49:06Z</time>
      </trkpt>
      <trkpt lat="45.21446" lon="5.39041">
        <ele>352.1</ele>
        <time>2021-05-03T08:49:08Z</time>
      </trkpt>
      <trkpt lat="45.21449" lon="5.39038">
        <ele>352.4</ele>
        <time>2021-05-03T08:49:09Z</time>
      </trkpt>
      <trkpt lat="45.2145" lon="5.39036">
        <ele>352.5</ele>
        <time>2021-05-03T08:49:10Z</time>
      </trkpt>
      <trkpt lat="45.21454" lon="5.39031">
        <ele>352.9</ele>
        <time>2021-05-03T08:49:12Z</time>
      </trkpt>
      <trkpt lat="45.21456" lon="5.39027">
        <ele>353.2</ele>
        <time>2021-05-03T08:49:13Z</time>
      </trkpt>
      <trkpt lat="45.21457" lon="5.39025">
        <ele>353.3</ele>
        <time>2021-05-03T08:49:14Z</time>
      </trkpt>
      <trkpt lat="45.2146" lon="5.39019">
        <ele>353.6</ele>
        <time>2021-05-03T08:49:16Z</time>
      </trkpt>
      <trkpt lat="45.21462" lon="5.39015">
        <ele>353.9</ele>
        <time>2021-05-03T08:49:17Z</time>
      </trkpt>
      <trkpt lat="45.21464" lon="5.39012">
        <ele>354</ele>
        <time>2021-05-03T08:49:18Z</time>
      </trkpt>
      <trkpt lat="45.21465" lon="5.39007">
        <ele>354.2</ele>
        <time>2021-05-03T08:49:20Z</time>
      </trkpt>
      <trkpt lat="45.21467" lon="5.39003">
        <ele>354.5</ele>
        <time>2021-05-03T08:49:21Z</time>
      </trkpt>
      <trkpt lat="45.21469" lon="5.38998">
        <ele>354.7</ele>
        <time>2021-05-03T08:49:23Z</time>
      </trkpt>
      <trkpt lat="45.21471" lon="5.38993">
        <ele>354.9</ele>
        <time>2021-05-03T08:49:24Z</time>
      </trkpt>
      <trkpt lat="45.21473" lon="5.3899">
        <ele>355.1</ele>
        <time>2021-05-03T08:49:25Z</time>
      </trkpt>
      <trkpt lat="45.21475" lon="5.38984">
        <ele>355.3</ele>
        <time>2021-05-03T08:49:27Z</time>
      </trkpt>
      <trkpt lat="45.21477" lon="5.38981">
        <ele>355.5</ele>
        <time>2021-05-03T08:49:28Z</time>
      </trkpt>
      <trkpt lat="45.2148" lon="5.38974">
        <ele>355.8</ele>
        <time>2021-05-03T08:49:30Z</time>
      </trkpt>
      <trkpt lat="45.21481" lon="5.3897">
        <ele>356</ele>
        <time>2021-05-03T08:49:31Z</time>
      </trkpt>
      <trkpt lat="45.21484" lon="5.38963">
        <ele>356.3</ele>
        <time>2021-05-03T08:49:33Z</time>
      </trkpt>
      <trkpt lat="45.21486" lon="5.38957">
        <ele>356.5</ele>
        <time>2021-05-03T08:49:35Z</time>
      </trkpt>
      <trkpt lat="45.21488" lon="5.38954">
        <ele>356.6</ele>
        <time>2021-05-03T08:49:36Z</time>
      </trkpt>
      <trkpt lat="45.21491" lon="5.38947">
        <ele>356.9</ele>
        <time>2021-05-03T08:49:38Z</time>
      </trkpt>
      <trkpt lat="45.21493" lon="5.38943">
        <ele>357.1</ele>
        <time>2021-05-03T08:49:39Z</time>
      </trkpt>
      <trkpt lat="45.21495" lon="5.38937">
        <ele>357.3</ele>
        <time>2021-05-03T08:49:40Z</time>
      </trkpt>
      <trkpt lat="45.21498" lon="5.38931">
        <ele>357.5</ele>
        <time>2021-05-03T08:49:42Z</time>
      </trkpt>
      <trkpt lat="45.215" lon="5.38926">
        <ele>357.7</ele>
        <time>2021-05-03T08:49:43Z</time>
      </trkpt>
      <trkpt lat="45.21502" lon="5.38919">
        <ele>357.9</ele>
        <time>2021-05-03T08:49:44Z</time>
      </trkpt>
      <trkpt lat="45.21504" lon="5.38914">
        <ele>358</ele>
        <time>2021-05-03T08:49:46Z</time>
      </trkpt>
      <trkpt lat="45.21505" lon="5.38912">
        <ele>358</ele>
        <time>2021-05-03T08:49:47Z</time>
      </trkpt>
      <trkpt lat="45.21507" lon="5.38905">
        <ele>358.2</ele>
        <time>2021-05-03T08:49:49Z</time>
      </trkpt>
      <trkpt lat="45.21509" lon="5.38899">
        <ele>358.2</ele>
        <time>2021-05-03T08:49:50Z</time>
      </trkpt>
      <trkpt lat="45.21511" lon="5.3889">
        <ele>358.3</ele>
        <time>2021-05-03T08:49:52Z</time>
      </trkpt>
      <trkpt lat="45.21513" lon="5.38883">
        <ele>358.2</ele>
        <time>2021-05-03T08:49:53Z</time>
      </trkpt>
      <trkpt lat="45.21514" lon="5.38874">
        <ele>358.2</ele>
        <time>2021-05-03T08:49:55Z</time>
      </trkpt>
      <trkpt lat="45.21516" lon="5.38867">
        <ele>358.2</ele>
        <time>2021-05-03T08:49:56Z</time>
      </trkpt>
      <trkpt lat="45.21518" lon="5.38855">
        <ele>358.1</ele>
        <time>2021-05-03T08:49:58Z</time>
      </trkpt>
      <trkpt lat="45.21518" lon="5.38849">
        <ele>358.1</ele>
        <time>2021-05-03T08:49:59Z</time>
      </trkpt>
      <trkpt lat="45.21519" lon="5.38842">
        <ele>358</ele>
        <time>2021-05-03T08:50:00Z</time>
      </trkpt>
      <trkpt lat="45.21519" lon="5.38835">
        <ele>358</ele>
        <time>2021-05-03T08:50:01Z</time>
      </trkpt>
      <trkpt lat="45.21519" lon="5.38828">
        <ele>358</ele>
        <time>2021-05-03T08:50:02Z</time>
      </trkpt>
      <trkpt lat="45.2152" lon="5.38821">
        <ele>357.9</ele>
        <time>2021-05-03T08:50:03Z</time>
      </trkpt>
      <trkpt lat="45.21521" lon="5.38814">
        <ele>357.9</ele>
        <time>2021-05-03T08:50:04Z</time>
      </trkpt>
      <trkpt lat="45.21521" lon="5.38808">
        <ele>357.9</ele>
        <time>2021-05-03T08:50:05Z</time>
      </trkpt>
      <trkpt lat="45.21522" lon="5.388">
        <ele>357.9</ele>
        <time>2021-05-03T08:50:06Z</time>
      </trkpt>
      <trkpt lat="45.21522" lon="5.38794">
        <ele>357.9</ele>
        <time>2021-05-03T08:50:07Z</time>
      </trkpt>
      <trkpt lat="45.21522" lon="5.38787">
        <ele>357.9</ele>
        <time>2021-05-03T08:50:08Z</time>
      </trkpt>
      <trkpt lat="45.21522" lon="5.38781">
        <ele>357.9</ele>
        <time>2021-05-03T08:50:09Z</time>
      </trkpt>
      <trkpt lat="45.21522" lon="5.38773">
        <ele>358</ele>
        <time>2021-05-03T08:50:10Z</time>
      </trkpt>
      <trkpt lat="45.21522" lon="5.38767">
        <ele>358</ele>
        <time>2021-05-03T08:50:11Z</time>
      </trkpt>
      <trkpt lat="45.21522" lon="5.3876">
        <ele>358</ele>
        <time>2021-05-03T08:50:12Z</time>
      </trkpt>
      <trkpt lat="45.21522" lon="5.38753">
        <ele>358</ele>
        <time>2021-05-03T08:50:13Z</time>
      </trkpt>
      <trkpt lat="45.21523" lon="5.38745">
        <ele>358</ele>
        <time>2021-05-03T08:50:14Z</time>
      </trkpt>
      <trkpt lat="45.21524" lon="5.38738">
        <ele>358.1</ele>
        <time>2021-05-03T08:50:15Z</time>
      </trkpt>
      <trkpt lat="45.21524" lon="5.3873">
        <ele>358.1</ele>
        <time>2021-05-03T08:50:16Z</time>
      </trkpt>
      <trkpt lat="45.21525" lon="5.38723">
        <ele>358.2</ele>
        <time>2021-05-03T08:50:17Z</time>
      </trkpt>
      <trkpt lat="45.21526" lon="5.38716">
        <ele>358.2</ele>
        <time>2021-05-03T08:50:18Z</time>
      </trkpt>
      <trkpt lat="45.21527" lon="5.3871">
        <ele>358.3</ele>
        <time>2021-05-03T08:50:19Z</time>
      </trkpt>
      <trkpt lat="45.21529" lon="5.38703">
        <ele>358.3</ele>
        <time>2021-05-03T08:50:20Z</time>
      </trkpt>
      <trkpt lat="45.21532" lon="5.38697">
        <ele>358.4</ele>
        <time>2021-05-03T08:50:21Z</time>
      </trkpt>
      <trkpt lat="45.21534" lon="5.38691">
        <ele>358.5</ele>
        <time>2021-05-03T08:50:22Z</time>
      </trkpt>
      <trkpt lat="45.21536" lon="5.38686">
        <ele>358.6</ele>
        <time>2021-05-03T08:50:23Z</time>
      </trkpt>
      <trkpt lat="45.21538" lon="5.3868">
        <ele>358.7</ele>
        <time>2021-05-03T08:50:24Z</time>
      </trkpt>
      <trkpt lat="45.2154" lon="5.38674">
        <ele>358.8</ele>
        <time>2021-05-03T08:50:25Z</time>
      </trkpt>
      <trkpt lat="45.21542" lon="5.38668">
        <ele>359</ele>
        <time>2021-05-03T08:50:26Z</time>
      </trkpt>
      <trkpt lat="45.21544" lon="5.38662">
        <ele>359.1</ele>
        <time>2021-05-03T08:50:27Z</time>
      </trkpt>
      <trkpt lat="45.21546" lon="5.38658">
        <ele>359.2</ele>
        <time>2021-05-03T08:50:28Z</time>
      </trkpt>
      <trkpt lat="45.21547" lon="5.38652">
        <ele>359.3</ele>
        <time>2021-05-03T08:50:29Z</time>
      </trkpt>
      <trkpt lat="45.21549" lon="5.38647">
        <ele>359.4</ele>
        <time>2021-05-03T08:50:30Z</time>
      </trkpt>
      <trkpt lat="45.21551" lon="5.38641">
        <ele>359.6</ele>
        <time>2021-05-03T08:50:31Z</time>
      </trkpt>
      <trkpt lat="45.21553" lon="5.38636">
        <ele>359.7</ele>
        <time>2021-05-03T08:50:32Z</time>
      </trkpt>
      <trkpt lat="45.21555" lon="5.38631">
        <ele>359.9</ele>
        <time>2021-05-03T08:50:33Z</time>
      </trkpt>
      <trkpt lat="45.21558" lon="5.38625">
        <ele>360.1</ele>
        <time>2021-05-03T08:50:34Z</time>
      </trkpt>
      <trkpt lat="45.21555" lon="5.38627">
        <ele>360.2</ele>
        <time>2021-05-03T08:50:35Z</time>
      </trkpt>
      <trkpt lat="45.21564" lon="5.38608">
        <ele>360.7</ele>
        <time>2021-05-03T08:50:37Z</time>
      </trkpt>
      <trkpt lat="45.21566" lon="5.386">
        <ele>361</ele>
        <time>2021-05-03T08:50:38Z</time>
      </trkpt>
      <trkpt lat="45.2157" lon="5.38588">
        <ele>361.3</ele>
        <time>2021-05-03T08:50:40Z</time>
      </trkpt>
      <trkpt lat="45.21574" lon="5.38581">
        <ele>361.5</ele>
        <time>2021-05-03T08:50:41Z</time>
      </trkpt>
      <trkpt lat="45.21577" lon="5.38574">
        <ele>361.8</ele>
        <time>2021-05-03T08:50:42Z</time>
      </trkpt>
      <trkpt lat="45.21579" lon="5.38568">
        <ele>362</ele>
        <time>2021-05-03T08:50:44Z</time>
      </trkpt>
      <trkpt lat="45.21581" lon="5.38561">
        <ele>362.2</ele>
        <time>2021-05-03T08:50:45Z</time>
      </trkpt>
      <trkpt lat="45.21584" lon="5.38555">
        <ele>362.4</ele>
        <time>2021-05-03T08:50:46Z</time>
      </trkpt>
      <trkpt lat="45.21586" lon="5.38548">
        <ele>362.6</ele>
        <time>2021-05-03T08:50:47Z</time>
      </trkpt>
      <trkpt lat="45.21588" lon="5.38541">
        <ele>362.9</ele>
        <time>2021-05-03T08:50:49Z</time>
      </trkpt>
      <trkpt lat="45.21589" lon="5.38536">
        <ele>363</ele>
        <time>2021-05-03T08:50:50Z</time>
      </trkpt>
      <trkpt lat="45.21591" lon="5.38527">
        <ele>363.3</ele>
        <time>2021-05-03T08:50:51Z</time>
      </trkpt>
      <trkpt lat="45.21592" lon="5.38522">
        <ele>363.5</ele>
        <time>2021-05-03T08:50:53Z</time>
      </trkpt>
      <trkpt lat="45.21593" lon="5.38516">
        <ele>363.7</ele>
        <time>2021-05-03T08:50:54Z</time>
      </trkpt>
      <trkpt lat="45.21594" lon="5.38509">
        <ele>363.9</ele>
        <time>2021-05-03T08:50:55Z</time>
      </trkpt>
      <trkpt lat="45.21596" lon="5.38497">
        <ele>364.3</ele>
        <time>2021-05-03T08:50:57Z</time>
      </trkpt>
      <trkpt lat="45.21596" lon="5.38489">
        <ele>364.6</ele>
        <time>2021-05-03T08:50:58Z</time>
      </trkpt>
      <trkpt lat="45.21596" lon="5.3848">
        <ele>364.9</ele>
        <time>2021-05-03T08:51:00Z</time>
      </trkpt>
      <trkpt lat="45.21596" lon="5.38473">
        <ele>365.1</ele>
        <time>2021-05-03T08:51:01Z</time>
      </trkpt>
      <trkpt lat="45.21595" lon="5.38461">
        <ele>365.6</ele>
        <time>2021-05-03T08:51:03Z</time>
      </trkpt>
      <trkpt lat="45.21594" lon="5.38455">
        <ele>365.8</ele>
        <time>2021-05-03T08:51:04Z</time>
      </trkpt>
      <trkpt lat="45.21593" lon="5.38447">
        <ele>366.1</ele>
        <time>2021-05-03T08:51:06Z</time>
      </trkpt>
      <trkpt lat="45.21592" lon="5.38441">
        <ele>366.3</ele>
        <time>2021-05-03T08:51:07Z</time>
      </trkpt>
      <trkpt lat="45.21589" lon="5.38431">
        <ele>366.6</ele>
        <time>2021-05-03T08:51:09Z</time>
      </trkpt>
      <trkpt lat="45.21588" lon="5.38419">
        <ele>367</ele>
        <time>2021-05-03T08:51:11Z</time>
      </trkpt>
      <trkpt lat="45.21587" lon="5.38412">
        <ele>367.3</ele>
        <time>2021-05-03T08:51:12Z</time>
      </trkpt>
      <trkpt lat="45.21586" lon="5.38403">
        <ele>367.6</ele>
        <time>2021-05-03T08:51:14Z</time>
      </trkpt>
      <trkpt lat="45.21586" lon="5.38398">
        <ele>367.7</ele>
        <time>2021-05-03T08:51:15Z</time>
      </trkpt>
      <trkpt lat="45.21584" lon="5.38389">
        <ele>368</ele>
        <time>2021-05-03T08:51:17Z</time>
      </trkpt>
      <trkpt lat="45.21583" lon="5.38385">
        <ele>368.2</ele>
        <time>2021-05-03T08:51:18Z</time>
      </trkpt>
      <trkpt lat="45.21583" lon="5.38379">
        <ele>368.4</ele>
        <time>2021-05-03T08:51:19Z</time>
      </trkpt>
      <trkpt lat="45.21582" lon="5.38373">
        <ele>368.7</ele>
        <time>2021-05-03T08:51:20Z</time>
      </trkpt>
      <trkpt lat="45.21581" lon="5.38362">
        <ele>369.1</ele>
        <time>2021-05-03T08:51:22Z</time>
      </trkpt>
      <trkpt lat="45.21579" lon="5.38354">
        <ele>369.4</ele>
        <time>2021-05-03T08:51:24Z</time>
      </trkpt>
      <trkpt lat="45.21578" lon="5.3835">
        <ele>369.6</ele>
        <time>2021-05-03T08:51:25Z</time>
      </trkpt>
      <trkpt lat="45.21578" lon="5.38345">
        <ele>369.8</ele>
        <time>2021-05-03T08:51:26Z</time>
      </trkpt>
      <trkpt lat="45.21576" lon="5.38335">
        <ele>370.2</ele>
        <time>2021-05-03T08:51:28Z</time>
      </trkpt>
      <trkpt lat="45.21575" lon="5.38331">
        <ele>370.4</ele>
        <time>2021-05-03T08:51:29Z</time>
      </trkpt>
      <trkpt lat="45.21574" lon="5.38325">
        <ele>370.6</ele>
        <time>2021-05-03T08:51:30Z</time>
      </trkpt>
      <trkpt lat="45.21571" lon="5.38318">
        <ele>371</ele>
        <time>2021-05-03T08:51:32Z</time>
      </trkpt>
      <trkpt lat="45.2157" lon="5.38313">
        <ele>371.2</ele>
        <time>2021-05-03T08:51:33Z</time>
      </trkpt>
      <trkpt lat="45.21568" lon="5.38307">
        <ele>371.4</ele>
        <time>2021-05-03T08:51:35Z</time>
      </trkpt>
      <trkpt lat="45.21566" lon="5.38302">
        <ele>371.7</ele>
        <time>2021-05-03T08:51:36Z</time>
      </trkpt>
      <trkpt lat="45.21564" lon="5.38297">
        <ele>371.9</ele>
        <time>2021-05-03T08:51:37Z</time>
      </trkpt>
      <trkpt lat="45.21561" lon="5.38288">
        <ele>372.3</ele>
        <time>2021-05-03T08:51:39Z</time>
      </trkpt>
      <trkpt lat="45.21558" lon="5.38281">
        <ele>372.7</ele>
        <time>2021-05-03T08:51:41Z</time>
      </trkpt>
      <trkpt lat="45.21556" lon="5.38276">
        <ele>373</ele>
        <time>2021-05-03T08:51:42Z</time>
      </trkpt>
      <trkpt lat="45.21556" lon="5.38274">
        <ele>373</ele>
        <time>2021-05-03T08:51:43Z</time>
      </trkpt>
      <trkpt lat="45.21553" lon="5.38266">
        <ele>373.4</ele>
        <time>2021-05-03T08:51:45Z</time>
      </trkpt>
      <trkpt lat="45.21552" lon="5.38262">
        <ele>373.6</ele>
        <time>2021-05-03T08:51:46Z</time>
      </trkpt>
      <trkpt lat="45.21551" lon="5.38258">
        <ele>373.8</ele>
        <time>2021-05-03T08:51:47Z</time>
      </trkpt>
      <trkpt lat="45.21548" lon="5.3825">
        <ele>374.2</ele>
        <time>2021-05-03T08:51:49Z</time>
      </trkpt>
      <trkpt lat="45.21546" lon="5.38243">
        <ele>374.6</ele>
        <time>2021-05-03T08:51:51Z</time>
      </trkpt>
      <trkpt lat="45.21544" lon="5.38239">
        <ele>374.8</ele>
        <time>2021-05-03T08:51:52Z</time>
      </trkpt>
      <trkpt lat="45.21543" lon="5.38236">
        <ele>375</ele>
        <time>2021-05-03T08:51:53Z</time>
      </trkpt>
      <trkpt lat="45.21542" lon="5.38231">
        <ele>375.2</ele>
        <time>2021-05-03T08:51:54Z</time>
      </trkpt>
      <trkpt lat="45.21539" lon="5.38224">
        <ele>375.6</ele>
        <time>2021-05-03T08:51:56Z</time>
      </trkpt>
      <trkpt lat="45.21536" lon="5.38216">
        <ele>376</ele>
        <time>2021-05-03T08:51:58Z</time>
      </trkpt>
      <trkpt lat="45.21535" lon="5.38212">
        <ele>376.2</ele>
        <time>2021-05-03T08:51:59Z</time>
      </trkpt>
      <trkpt lat="45.21533" lon="5.38208">
        <ele>376.4</ele>
        <time>2021-05-03T08:52:00Z</time>
      </trkpt>
      <trkpt lat="45.21532" lon="5.38204">
        <ele>376.6</ele>
        <time>2021-05-03T08:52:01Z</time>
      </trkpt>
      <trkpt lat="45.21528" lon="5.38195">
        <ele>377.1</ele>
        <time>2021-05-03T08:52:03Z</time>
      </trkpt>
      <trkpt lat="45.21527" lon="5.38187">
        <ele>377.5</ele>
        <time>2021-05-03T08:52:05Z</time>
      </trkpt>
      <trkpt lat="45.21526" lon="5.38183">
        <ele>377.7</ele>
        <time>2021-05-03T08:52:06Z</time>
      </trkpt>
      <trkpt lat="45.21526" lon="5.38179">
        <ele>377.9</ele>
        <time>2021-05-03T08:52:07Z</time>
      </trkpt>
      <trkpt lat="45.21525" lon="5.38175">
        <ele>378.1</ele>
        <time>2021-05-03T08:52:08Z</time>
      </trkpt>
      <trkpt lat="45.21525" lon="5.38171">
        <ele>378.3</ele>
        <time>2021-05-03T08:52:09Z</time>
      </trkpt>
      <trkpt lat="45.21527" lon="5.38165">
        <ele>378.6</ele>
        <time>2021-05-03T08:52:10Z</time>
      </trkpt>
      <trkpt lat="45.21529" lon="5.38161">
        <ele>378.9</ele>
        <time>2021-05-03T08:52:12Z</time>
      </trkpt>
      <trkpt lat="45.21532" lon="5.38156">
        <ele>379.2</ele>
        <time>2021-05-03T08:52:14Z</time>
      </trkpt>
      <trkpt lat="45.21534" lon="5.38154">
        <ele>379.4</ele>
        <time>2021-05-03T08:52:15Z</time>
      </trkpt>
      <trkpt lat="45.21538" lon="5.38149">
        <ele>379.8</ele>
        <time>2021-05-03T08:52:17Z</time>
      </trkpt>
      <trkpt lat="45.2154" lon="5.38147">
        <ele>379.9</ele>
        <time>2021-05-03T08:52:18Z</time>
      </trkpt>
      <trkpt lat="45.21545" lon="5.38143">
        <ele>380.3</ele>
        <time>2021-05-03T08:52:20Z</time>
      </trkpt>
      <trkpt lat="45.2155" lon="5.3814">
        <ele>380.8</ele>
        <time>2021-05-03T08:52:22Z</time>
      </trkpt>
      <trkpt lat="45.21555" lon="5.38136">
        <ele>381.1</ele>
        <time>2021-05-03T08:52:24Z</time>
      </trkpt>
      <trkpt lat="45.2156" lon="5.38132">
        <ele>381.5</ele>
        <time>2021-05-03T08:52:26Z</time>
      </trkpt>
      <trkpt lat="45.21562" lon="5.3813">
        <ele>381.7</ele>
        <time>2021-05-03T08:52:27Z</time>
      </trkpt>
      <trkpt lat="45.21564" lon="5.38128">
        <ele>381.9</ele>
        <time>2021-05-03T08:52:28Z</time>
      </trkpt>
      <trkpt lat="45.21568" lon="5.38125">
        <ele>382.2</ele>
        <time>2021-05-03T08:52:29Z</time>
      </trkpt>
      <trkpt lat="45.21569" lon="5.38124">
        <ele>382.3</ele>
        <time>2021-05-03T08:52:30Z</time>
      </trkpt>
      <trkpt lat="45.21571" lon="5.38122">
        <ele>382.5</ele>
        <time>2021-05-03T08:52:31Z</time>
      </trkpt>
      <trkpt lat="45.21574" lon="5.3812">
        <ele>382.7</ele>
        <time>2021-05-03T08:52:32Z</time>
      </trkpt>
      <trkpt lat="45.21576" lon="5.38118">
        <ele>382.9</ele>
        <time>2021-05-03T08:52:33Z</time>
      </trkpt>
      <trkpt lat="45.2158" lon="5.38114">
        <ele>383.2</ele>
        <time>2021-05-03T08:52:34Z</time>
      </trkpt>
      <trkpt lat="45.21581" lon="5.38112">
        <ele>383.4</ele>
        <time>2021-05-03T08:52:35Z</time>
      </trkpt>
      <trkpt lat="45.21584" lon="5.38108">
        <ele>383.7</ele>
        <time>2021-05-03T08:52:37Z</time>
      </trkpt>
      <trkpt lat="45.21587" lon="5.38104">
        <ele>383.9</ele>
        <time>2021-05-03T08:52:38Z</time>
      </trkpt>
      <trkpt lat="45.21587" lon="5.38102">
        <ele>384</ele>
        <time>2021-05-03T08:52:39Z</time>
      </trkpt>
      <trkpt lat="45.21589" lon="5.38098">
        <ele>384.2</ele>
        <time>2021-05-03T08:52:40Z</time>
      </trkpt>
      <trkpt lat="45.21592" lon="5.38092">
        <ele>384.4</ele>
        <time>2021-05-03T08:52:42Z</time>
      </trkpt>
      <trkpt lat="45.21595" lon="5.38088">
        <ele>384.7</ele>
        <time>2021-05-03T08:52:43Z</time>
      </trkpt>
      <trkpt lat="45.21596" lon="5.38086">
        <ele>384.8</ele>
        <time>2021-05-03T08:52:44Z</time>
      </trkpt>
      <trkpt lat="45.21598" lon="5.38081">
        <ele>385.1</ele>
        <time>2021-05-03T08:52:45Z</time>
      </trkpt>
      <trkpt lat="45.216" lon="5.38074">
        <ele>385.4</ele>
        <time>2021-05-03T08:52:47Z</time>
      </trkpt>
      <trkpt lat="45.21601" lon="5.38071">
        <ele>385.5</ele>
        <time>2021-05-03T08:52:48Z</time>
      </trkpt>
      <trkpt lat="45.21602" lon="5.38069">
        <ele>385.6</ele>
        <time>2021-05-03T08:52:49Z</time>
      </trkpt>
      <trkpt lat="45.21603" lon="5.38064">
        <ele>385.9</ele>
        <time>2021-05-03T08:52:50Z</time>
      </trkpt>
      <trkpt lat="45.21606" lon="5.38056">
        <ele>386.2</ele>
        <time>2021-05-03T08:52:52Z</time>
      </trkpt>
      <trkpt lat="45.21607" lon="5.3805">
        <ele>386.5</ele>
        <time>2021-05-03T08:52:54Z</time>
      </trkpt>
      <trkpt lat="45.21609" lon="5.38045">
        <ele>386.8</ele>
        <time>2021-05-03T08:52:55Z</time>
      </trkpt>
      <trkpt lat="45.21611" lon="5.38041">
        <ele>387</ele>
        <time>2021-05-03T08:52:56Z</time>
      </trkpt>
      <trkpt lat="45.21613" lon="5.38034">
        <ele>387.4</ele>
        <time>2021-05-03T08:52:58Z</time>
      </trkpt>
      <trkpt lat="45.21614" lon="5.38029">
        <ele>387.7</ele>
        <time>2021-05-03T08:52:59Z</time>
      </trkpt>
      <trkpt lat="45.21615" lon="5.38027">
        <ele>387.8</ele>
        <time>2021-05-03T08:53:00Z</time>
      </trkpt>
      <trkpt lat="45.21616" lon="5.38023">
        <ele>388</ele>
        <time>2021-05-03T08:53:01Z</time>
      </trkpt>
      <trkpt lat="45.21617" lon="5.38021">
        <ele>388.1</ele>
        <time>2021-05-03T08:53:02Z</time>
      </trkpt>
      <trkpt lat="45.21618" lon="5.38017">
        <ele>388.3</ele>
        <time>2021-05-03T08:53:03Z</time>
      </trkpt>
      <trkpt lat="45.2162" lon="5.38011">
        <ele>388.7</ele>
        <time>2021-05-03T08:53:05Z</time>
      </trkpt>
      <trkpt lat="45.21621" lon="5.38007">
        <ele>388.9</ele>
        <time>2021-05-03T08:53:06Z</time>
      </trkpt>
      <trkpt lat="45.21621" lon="5.38002">
        <ele>389.2</ele>
        <time>2021-05-03T08:53:07Z</time>
      </trkpt>
      <trkpt lat="45.21623" lon="5.37995">
        <ele>389.5</ele>
        <time>2021-05-03T08:53:09Z</time>
      </trkpt>
      <trkpt lat="45.21624" lon="5.3799">
        <ele>389.8</ele>
        <time>2021-05-03T08:53:10Z</time>
      </trkpt>
      <trkpt lat="45.21624" lon="5.37988">
        <ele>389.9</ele>
        <time>2021-05-03T08:53:11Z</time>
      </trkpt>
      <trkpt lat="45.21624" lon="5.37983">
        <ele>390.1</ele>
        <time>2021-05-03T08:53:12Z</time>
      </trkpt>
      <trkpt lat="45.21623" lon="5.37978">
        <ele>390.4</ele>
        <time>2021-05-03T08:53:13Z</time>
      </trkpt>
      <trkpt lat="45.21623" lon="5.3797">
        <ele>390.7</ele>
        <time>2021-05-03T08:53:15Z</time>
      </trkpt>
      <trkpt lat="45.21622" lon="5.3796">
        <ele>391.1</ele>
        <time>2021-05-03T08:53:17Z</time>
      </trkpt>
      <trkpt lat="45.21621" lon="5.37953">
        <ele>391.4</ele>
        <time>2021-05-03T08:53:19Z</time>
      </trkpt>
      <trkpt lat="45.2162" lon="5.37947">
        <ele>391.7</ele>
        <time>2021-05-03T08:53:20Z</time>
      </trkpt>
      <trkpt lat="45.2162" lon="5.37945">
        <ele>391.8</ele>
        <time>2021-05-03T08:53:21Z</time>
      </trkpt>
      <trkpt lat="45.2162" lon="5.37941">
        <ele>391.9</ele>
        <time>2021-05-03T08:53:22Z</time>
      </trkpt>
      <trkpt lat="45.21619" lon="5.37936">
        <ele>392.1</ele>
        <time>2021-05-03T08:53:23Z</time>
      </trkpt>
      <trkpt lat="45.21618" lon="5.37932">
        <ele>392.3</ele>
        <time>2021-05-03T08:53:24Z</time>
      </trkpt>
      <trkpt lat="45.21618" lon="5.37925">
        <ele>392.6</ele>
        <time>2021-05-03T08:53:26Z</time>
      </trkpt>
      <trkpt lat="45.21618" lon="5.37921">
        <ele>392.8</ele>
        <time>2021-05-03T08:53:27Z</time>
      </trkpt>
      <trkpt lat="45.21618" lon="5.37917">
        <ele>392.9</ele>
        <time>2021-05-03T08:53:28Z</time>
      </trkpt>
      <trkpt lat="45.21618" lon="5.37913">
        <ele>393.1</ele>
        <time>2021-05-03T08:53:29Z</time>
      </trkpt>
      <trkpt lat="45.21618" lon="5.37909">
        <ele>393.3</ele>
        <time>2021-05-03T08:53:30Z</time>
      </trkpt>
      <trkpt lat="45.21617" lon="5.37905">
        <ele>393.5</ele>
        <time>2021-05-03T08:53:31Z</time>
      </trkpt>
      <trkpt lat="45.21617" lon="5.37901">
        <ele>393.6</ele>
        <time>2021-05-03T08:53:32Z</time>
      </trkpt>
      <trkpt lat="45.21616" lon="5.37897">
        <ele>393.8</ele>
        <time>2021-05-03T08:53:33Z</time>
      </trkpt>
      <trkpt lat="45.21616" lon="5.37891">
        <ele>394.1</ele>
        <time>2021-05-03T08:53:34Z</time>
      </trkpt>
      <trkpt lat="45.21616" lon="5.37889">
        <ele>394.2</ele>
        <time>2021-05-03T08:53:35Z</time>
      </trkpt>
      <trkpt lat="45.21616" lon="5.37884">
        <ele>394.4</ele>
        <time>2021-05-03T08:53:36Z</time>
      </trkpt>
      <trkpt lat="45.21615" lon="5.37875">
        <ele>394.8</ele>
        <time>2021-05-03T08:53:38Z</time>
      </trkpt>
      <trkpt lat="45.21615" lon="5.3787">
        <ele>395</ele>
        <time>2021-05-03T08:53:39Z</time>
      </trkpt>
      <trkpt lat="45.21615" lon="5.37863">
        <ele>395.3</ele>
        <time>2021-05-03T08:53:41Z</time>
      </trkpt>
      <trkpt lat="45.21615" lon="5.37859">
        <ele>395.5</ele>
        <time>2021-05-03T08:53:42Z</time>
      </trkpt>
      <trkpt lat="45.21615" lon="5.37855">
        <ele>395.7</ele>
        <time>2021-05-03T08:53:43Z</time>
      </trkpt>
      <trkpt lat="45.21615" lon="5.37848">
        <ele>395.9</ele>
        <time>2021-05-03T08:53:45Z</time>
      </trkpt>
      <trkpt lat="45.21615" lon="5.37844">
        <ele>396.1</ele>
        <time>2021-05-03T08:53:46Z</time>
      </trkpt>
      <trkpt lat="45.21614" lon="5.37839">
        <ele>396.3</ele>
        <time>2021-05-03T08:53:47Z</time>
      </trkpt>
      <trkpt lat="45.21615" lon="5.37834">
        <ele>396.5</ele>
        <time>2021-05-03T08:53:48Z</time>
      </trkpt>
      <trkpt lat="45.21614" lon="5.37825">
        <ele>396.7</ele>
        <time>2021-05-03T08:53:50Z</time>
      </trkpt>
      <trkpt lat="45.21614" lon="5.37819">
        <ele>396.9</ele>
        <time>2021-05-03T08:53:51Z</time>
      </trkpt>
      <trkpt lat="45.21613" lon="5.37808">
        <ele>397.2</ele>
        <time>2021-05-03T08:53:53Z</time>
      </trkpt>
      <trkpt lat="45.21613" lon="5.37799">
        <ele>397.5</ele>
        <time>2021-05-03T08:53:55Z</time>
      </trkpt>
      <trkpt lat="45.21613" lon="5.37794">
        <ele>397.6</ele>
        <time>2021-05-03T08:53:56Z</time>
      </trkpt>
      <trkpt lat="45.21612" lon="5.37785">
        <ele>397.8</ele>
        <time>2021-05-03T08:53:58Z</time>
      </trkpt>
      <trkpt lat="45.21612" lon="5.3778">
        <ele>397.9</ele>
        <time>2021-05-03T08:53:59Z</time>
      </trkpt>
      <trkpt lat="45.21611" lon="5.37771">
        <ele>398.1</ele>
        <time>2021-05-03T08:54:00Z</time>
      </trkpt>
      <trkpt lat="45.2161" lon="5.37764">
        <ele>398.3</ele>
        <time>2021-05-03T08:54:02Z</time>
      </trkpt>
      <trkpt lat="45.21609" lon="5.37757">
        <ele>398.4</ele>
        <time>2021-05-03T08:54:03Z</time>
      </trkpt>
      <trkpt lat="45.21608" lon="5.37746">
        <ele>398.6</ele>
        <time>2021-05-03T08:54:05Z</time>
      </trkpt>
      <trkpt lat="45.21608" lon="5.37741">
        <ele>398.7</ele>
        <time>2021-05-03T08:54:06Z</time>
      </trkpt>
      <trkpt lat="45.21608" lon="5.37734">
        <ele>398.8</ele>
        <time>2021-05-03T08:54:07Z</time>
      </trkpt>
      <trkpt lat="45.21607" lon="5.37724">
        <ele>399</ele>
        <time>2021-05-03T08:54:08Z</time>
      </trkpt>
      <trkpt lat="45.21607" lon="5.37719">
        <ele>399</ele>
        <time>2021-05-03T08:54:10Z</time>
      </trkpt>
      <trkpt lat="45.21607" lon="5.37714">
        <ele>399.1</ele>
        <time>2021-05-03T08:54:11Z</time>
      </trkpt>
      <trkpt lat="45.21608" lon="5.37708">
        <ele>399.1</ele>
        <time>2021-05-03T08:54:12Z</time>
      </trkpt>
      <trkpt lat="45.21608" lon="5.377">
        <ele>399</ele>
        <time>2021-05-03T08:54:13Z</time>
      </trkpt>
      <trkpt lat="45.21612" lon="5.3769">
        <ele>398.8</ele>
        <time>2021-05-03T08:54:15Z</time>
      </trkpt>
      <trkpt lat="45.21614" lon="5.37684">
        <ele>398.7</ele>
        <time>2021-05-03T08:54:16Z</time>
      </trkpt>
      <trkpt lat="45.21616" lon="5.37677">
        <ele>398.4</ele>
        <time>2021-05-03T08:54:17Z</time>
      </trkpt>
      <trkpt lat="45.2162" lon="5.3767">
        <ele>398.2</ele>
        <time>2021-05-03T08:54:18Z</time>
      </trkpt>
      <trkpt lat="45.21625" lon="5.37665">
        <ele>397.9</ele>
        <time>2021-05-03T08:54:19Z</time>
      </trkpt>
      <trkpt lat="45.21631" lon="5.3766">
        <ele>397.7</ele>
        <time>2021-05-03T08:54:20Z</time>
      </trkpt>
      <trkpt lat="45.21638" lon="5.37657">
        <ele>397.4</ele>
        <time>2021-05-03T08:54:21Z</time>
      </trkpt>
      <trkpt lat="45.21645" lon="5.37656">
        <ele>397.2</ele>
        <time>2021-05-03T08:54:22Z</time>
      </trkpt>
      <trkpt lat="45.21651" lon="5.37657">
        <ele>396.9</ele>
        <time>2021-05-03T08:54:23Z</time>
      </trkpt>
      <trkpt lat="45.21657" lon="5.37661">
        <ele>396.6</ele>
        <time>2021-05-03T08:54:24Z</time>
      </trkpt>
      <trkpt lat="45.21665" lon="5.37665">
        <ele>396.3</ele>
        <time>2021-05-03T08:54:25Z</time>
      </trkpt>
      <trkpt lat="45.21671" lon="5.37668">
        <ele>396.1</ele>
        <time>2021-05-03T08:54:26Z</time>
      </trkpt>
      <trkpt lat="45.21677" lon="5.37672">
        <ele>395.8</ele>
        <time>2021-05-03T08:54:27Z</time>
      </trkpt>
      <trkpt lat="45.21685" lon="5.37674">
        <ele>395.6</ele>
        <time>2021-05-03T08:54:28Z</time>
      </trkpt>
      <trkpt lat="45.21692" lon="5.37678">
        <ele>395.4</ele>
        <time>2021-05-03T08:54:29Z</time>
      </trkpt>
      <trkpt lat="45.21698" lon="5.37682">
        <ele>395.1</ele>
        <time>2021-05-03T08:54:30Z</time>
      </trkpt>
      <trkpt lat="45.21704" lon="5.37685">
        <ele>394.9</ele>
        <time>2021-05-03T08:54:31Z</time>
      </trkpt>
      <trkpt lat="45.2171" lon="5.37689">
        <ele>394.7</ele>
        <time>2021-05-03T08:54:32Z</time>
      </trkpt>
      <trkpt lat="45.21716" lon="5.37693">
        <ele>394.5</ele>
        <time>2021-05-03T08:54:33Z</time>
      </trkpt>
      <trkpt lat="45.21722" lon="5.37696">
        <ele>394.2</ele>
        <time>2021-05-03T08:54:34Z</time>
      </trkpt>
      <trkpt lat="45.21729" lon="5.37699">
        <ele>394</ele>
        <time>2021-05-03T08:54:35Z</time>
      </trkpt>
      <trkpt lat="45.21737" lon="5.37703">
        <ele>393.7</ele>
        <time>2021-05-03T08:54:36Z</time>
      </trkpt>
      <trkpt lat="45.21745" lon="5.37706">
        <ele>393.4</ele>
        <time>2021-05-03T08:54:37Z</time>
      </trkpt>
      <trkpt lat="45.21752" lon="5.3771">
        <ele>393.1</ele>
        <time>2021-05-03T08:54:38Z</time>
      </trkpt>
      <trkpt lat="45.21758" lon="5.37713">
        <ele>392.9</ele>
        <time>2021-05-03T08:54:39Z</time>
      </trkpt>
      <trkpt lat="45.21765" lon="5.37717">
        <ele>392.6</ele>
        <time>2021-05-03T08:54:40Z</time>
      </trkpt>
      <trkpt lat="45.21773" lon="5.37719">
        <ele>392.4</ele>
        <time>2021-05-03T08:54:41Z</time>
      </trkpt>
      <trkpt lat="45.2178" lon="5.37722">
        <ele>392.1</ele>
        <time>2021-05-03T08:54:42Z</time>
      </trkpt>
      <trkpt lat="45.21788" lon="5.37726">
        <ele>391.8</ele>
        <time>2021-05-03T08:54:43Z</time>
      </trkpt>
      <trkpt lat="45.21796" lon="5.37729">
        <ele>391.6</ele>
        <time>2021-05-03T08:54:44Z</time>
      </trkpt>
      <trkpt lat="45.21803" lon="5.37732">
        <ele>391.3</ele>
        <time>2021-05-03T08:54:45Z</time>
      </trkpt>
      <trkpt lat="45.2181" lon="5.37736">
        <ele>391</ele>
        <time>2021-05-03T08:54:46Z</time>
      </trkpt>
      <trkpt lat="45.21817" lon="5.3774">
        <ele>390.7</ele>
        <time>2021-05-03T08:54:47Z</time>
      </trkpt>
      <trkpt lat="45.21824" lon="5.37743">
        <ele>390.4</ele>
        <time>2021-05-03T08:54:48Z</time>
      </trkpt>
      <trkpt lat="45.21832" lon="5.37746">
        <ele>390.1</ele>
        <time>2021-05-03T08:54:49Z</time>
      </trkpt>
      <trkpt lat="45.2184" lon="5.37749">
        <ele>389.8</ele>
        <time>2021-05-03T08:54:50Z</time>
      </trkpt>
      <trkpt lat="45.21848" lon="5.37753">
        <ele>389.5</ele>
        <time>2021-05-03T08:54:51Z</time>
      </trkpt>
      <trkpt lat="45.21856" lon="5.37755">
        <ele>389.2</ele>
        <time>2021-05-03T08:54:52Z</time>
      </trkpt>
      <trkpt lat="45.21864" lon="5.37758">
        <ele>388.9</ele>
        <time>2021-05-03T08:54:53Z</time>
      </trkpt>
      <trkpt lat="45.21872" lon="5.37762">
        <ele>388.7</ele>
        <time>2021-05-03T08:54:54Z</time>
      </trkpt>
      <trkpt lat="45.2188" lon="5.37766">
        <ele>388.5</ele>
        <time>2021-05-03T08:54:55Z</time>
      </trkpt>
      <trkpt lat="45.21888" lon="5.3777">
        <ele>388.3</ele>
        <time>2021-05-03T08:54:56Z</time>
      </trkpt>
      <trkpt lat="45.21895" lon="5.37773">
        <ele>388.1</ele>
        <time>2021-05-03T08:54:57Z</time>
      </trkpt>
      <trkpt lat="45.21902" lon="5.37777">
        <ele>387.9</ele>
        <time>2021-05-03T08:54:58Z</time>
      </trkpt>
      <trkpt lat="45.2191" lon="5.3778">
        <ele>387.7</ele>
        <time>2021-05-03T08:54:59Z</time>
      </trkpt>
      <trkpt lat="45.21918" lon="5.37782">
        <ele>387.5</ele>
        <time>2021-05-03T08:55:00Z</time>
      </trkpt>
      <trkpt lat="45.21926" lon="5.37784">
        <ele>387.3</ele>
        <time>2021-05-03T08:55:01Z</time>
      </trkpt>
      <trkpt lat="45.21934" lon="5.37785">
        <ele>387.1</ele>
        <time>2021-05-03T08:55:02Z</time>
      </trkpt>
      <trkpt lat="45.21942" lon="5.37787">
        <ele>386.8</ele>
        <time>2021-05-03T08:55:03Z</time>
      </trkpt>
      <trkpt lat="45.21951" lon="5.37789">
        <ele>386.6</ele>
        <time>2021-05-03T08:55:04Z</time>
      </trkpt>
      <trkpt lat="45.21959" lon="5.3779">
        <ele>386.3</ele>
        <time>2021-05-03T08:55:05Z</time>
      </trkpt>
      <trkpt lat="45.21967" lon="5.37791">
        <ele>386.1</ele>
        <time>2021-05-03T08:55:06Z</time>
      </trkpt>
      <trkpt lat="45.21975" lon="5.37792">
        <ele>385.8</ele>
        <time>2021-05-03T08:55:07Z</time>
      </trkpt>
      <trkpt lat="45.21983" lon="5.37792">
        <ele>385.7</ele>
        <time>2021-05-03T08:55:08Z</time>
      </trkpt>
      <trkpt lat="45.21991" lon="5.37794">
        <ele>385.5</ele>
        <time>2021-05-03T08:55:09Z</time>
      </trkpt>
      <trkpt lat="45.21999" lon="5.37794">
        <ele>385.4</ele>
        <time>2021-05-03T08:55:10Z</time>
      </trkpt>
      <trkpt lat="45.22008" lon="5.37794">
        <ele>385.2</ele>
        <time>2021-05-03T08:55:11Z</time>
      </trkpt>
      <trkpt lat="45.22018" lon="5.37795">
        <ele>385.1</ele>
        <time>2021-05-03T08:55:12Z</time>
      </trkpt>
      <trkpt lat="45.22027" lon="5.37796">
        <ele>385</ele>
        <time>2021-05-03T08:55:13Z</time>
      </trkpt>
      <trkpt lat="45.22036" lon="5.37796">
        <ele>384.9</ele>
        <time>2021-05-03T08:55:14Z</time>
      </trkpt>
      <trkpt lat="45.22044" lon="5.37796">
        <ele>384.9</ele>
        <time>2021-05-03T08:55:15Z</time>
      </trkpt>
      <trkpt lat="45.22052" lon="5.37797">
        <ele>384.8</ele>
        <time>2021-05-03T08:55:16Z</time>
      </trkpt>
      <trkpt lat="45.2206" lon="5.37798">
        <ele>384.6</ele>
        <time>2021-05-03T08:55:17Z</time>
      </trkpt>
      <trkpt lat="45.22067" lon="5.37798">
        <ele>384.5</ele>
        <time>2021-05-03T08:55:18Z</time>
      </trkpt>
      <trkpt lat="45.22075" lon="5.37795">
        <ele>384.4</ele>
        <time>2021-05-03T08:55:19Z</time>
      </trkpt>
      <trkpt lat="45.22082" lon="5.37793">
        <ele>384.3</ele>
        <time>2021-05-03T08:55:20Z</time>
      </trkpt>
      <trkpt lat="45.22094" lon="5.37788">
        <ele>384.2</ele>
        <time>2021-05-03T08:55:22Z</time>
      </trkpt>
      <trkpt lat="45.22101" lon="5.37783">
        <ele>384.2</ele>
        <time>2021-05-03T08:55:23Z</time>
      </trkpt>
      <trkpt lat="45.22107" lon="5.37779">
        <ele>384.1</ele>
        <time>2021-05-03T08:55:24Z</time>
      </trkpt>
      <trkpt lat="45.22114" lon="5.37775">
        <ele>384.1</ele>
        <time>2021-05-03T08:55:25Z</time>
      </trkpt>
      <trkpt lat="45.22122" lon="5.37771">
        <ele>384.1</ele>
        <time>2021-05-03T08:55:26Z</time>
      </trkpt>
      <trkpt lat="45.22129" lon="5.37767">
        <ele>384.2</ele>
        <time>2021-05-03T08:55:27Z</time>
      </trkpt>
      <trkpt lat="45.22135" lon="5.37763">
        <ele>384.2</ele>
        <time>2021-05-03T08:55:28Z</time>
      </trkpt>
      <trkpt lat="45.22142" lon="5.37758">
        <ele>384.3</ele>
        <time>2021-05-03T08:55:29Z</time>
      </trkpt>
      <trkpt lat="45.22148" lon="5.37755">
        <ele>384.4</ele>
        <time>2021-05-03T08:55:30Z</time>
      </trkpt>
      <trkpt lat="45.22154" lon="5.3775">
        <ele>384.5</ele>
        <time>2021-05-03T08:55:31Z</time>
      </trkpt>
      <trkpt lat="45.2216" lon="5.37747">
        <ele>384.6</ele>
        <time>2021-05-03T08:55:32Z</time>
      </trkpt>
      <trkpt lat="45.22165" lon="5.37743">
        <ele>384.7</ele>
        <time>2021-05-03T08:55:33Z</time>
      </trkpt>
      <trkpt lat="45.22171" lon="5.37739">
        <ele>384.8</ele>
        <time>2021-05-03T08:55:34Z</time>
      </trkpt>
      <trkpt lat="45.22176" lon="5.37735">
        <ele>384.9</ele>
        <time>2021-05-03T08:55:35Z</time>
      </trkpt>
      <trkpt lat="45.22181" lon="5.37731">
        <ele>385.1</ele>
        <time>2021-05-03T08:55:36Z</time>
      </trkpt>
      <trkpt lat="45.22187" lon="5.37727">
        <ele>385.2</ele>
        <time>2021-05-03T08:55:37Z</time>
      </trkpt>
      <trkpt lat="45.22192" lon="5.37724">
        <ele>385.3</ele>
        <time>2021-05-03T08:55:38Z</time>
      </trkpt>
      <trkpt lat="45.22198" lon="5.37721">
        <ele>385.5</ele>
        <time>2021-05-03T08:55:39Z</time>
      </trkpt>
      <trkpt lat="45.22203" lon="5.37717">
        <ele>385.6</ele>
        <time>2021-05-03T08:55:40Z</time>
      </trkpt>
      <trkpt lat="45.22209" lon="5.37713">
        <ele>385.7</ele>
        <time>2021-05-03T08:55:41Z</time>
      </trkpt>
      <trkpt lat="45.22214" lon="5.37709">
        <ele>385.8</ele>
        <time>2021-05-03T08:55:42Z</time>
      </trkpt>
      <trkpt lat="45.2222" lon="5.37706">
        <ele>386</ele>
        <time>2021-05-03T08:55:43Z</time>
      </trkpt>
      <trkpt lat="45.22226" lon="5.37701">
        <ele>386.1</ele>
        <time>2021-05-03T08:55:44Z</time>
      </trkpt>
      <trkpt lat="45.22231" lon="5.37697">
        <ele>386.2</ele>
        <time>2021-05-03T08:55:45Z</time>
      </trkpt>
      <trkpt lat="45.22236" lon="5.37692">
        <ele>386.4</ele>
        <time>2021-05-03T08:55:46Z</time>
      </trkpt>
      <trkpt lat="45.22242" lon="5.37687">
        <ele>386.5</ele>
        <time>2021-05-03T08:55:47Z</time>
      </trkpt>
      <trkpt lat="45.22248" lon="5.37683">
        <ele>386.7</ele>
        <time>2021-05-03T08:55:48Z</time>
      </trkpt>
      <trkpt lat="45.22253" lon="5.37678">
        <ele>386.8</ele>
        <time>2021-05-03T08:55:49Z</time>
      </trkpt>
      <trkpt lat="45.22259" lon="5.37674">
        <ele>387</ele>
        <time>2021-05-03T08:55:50Z</time>
      </trkpt>
      <trkpt lat="45.22265" lon="5.37669">
        <ele>387.1</ele>
        <time>2021-05-03T08:55:51Z</time>
      </trkpt>
      <trkpt lat="45.22271" lon="5.37665">
        <ele>387.2</ele>
        <time>2021-05-03T08:55:52Z</time>
      </trkpt>
      <trkpt lat="45.22276" lon="5.37661">
        <ele>387.4</ele>
        <time>2021-05-03T08:55:53Z</time>
      </trkpt>
      <trkpt lat="45.2228" lon="5.37657">
        <ele>387.5</ele>
        <time>2021-05-03T08:55:54Z</time>
      </trkpt>
      <trkpt lat="45.22285" lon="5.37653">
        <ele>387.6</ele>
        <time>2021-05-03T08:55:55Z</time>
      </trkpt>
      <trkpt lat="45.2229" lon="5.37649">
        <ele>387.7</ele>
        <time>2021-05-03T08:55:56Z</time>
      </trkpt>
      <trkpt lat="45.22294" lon="5.37646">
        <ele>387.8</ele>
        <time>2021-05-03T08:55:57Z</time>
      </trkpt>
      <trkpt lat="45.22298" lon="5.37643">
        <ele>387.8</ele>
        <time>2021-05-03T08:55:58Z</time>
      </trkpt>
      <trkpt lat="45.22302" lon="5.37639">
        <ele>387.9</ele>
        <time>2021-05-03T08:55:59Z</time>
      </trkpt>
      <trkpt lat="45.22305" lon="5.37634">
        <ele>387.9</ele>
        <time>2021-05-03T08:56:00Z</time>
      </trkpt>
      <trkpt lat="45.22309" lon="5.3763">
        <ele>388</ele>
        <time>2021-05-03T08:56:01Z</time>
      </trkpt>
      <trkpt lat="45.22313" lon="5.37626">
        <ele>388</ele>
        <time>2021-05-03T08:56:02Z</time>
      </trkpt>
      <trkpt lat="45.22317" lon="5.37621">
        <ele>388</ele>
        <time>2021-05-03T08:56:03Z</time>
      </trkpt>
      <trkpt lat="45.22322" lon="5.37616">
        <ele>388</ele>
        <time>2021-05-03T08:56:04Z</time>
      </trkpt>
      <trkpt lat="45.22326" lon="5.37611">
        <ele>388</ele>
        <time>2021-05-03T08:56:05Z</time>
      </trkpt>
      <trkpt lat="45.22331" lon="5.37604">
        <ele>388</ele>
        <time>2021-05-03T08:56:06Z</time>
      </trkpt>
      <trkpt lat="45.22335" lon="5.37597">
        <ele>388</ele>
        <time>2021-05-03T08:56:07Z</time>
      </trkpt>
      <trkpt lat="45.2234" lon="5.37591">
        <ele>387.9</ele>
        <time>2021-05-03T08:56:08Z</time>
      </trkpt>
      <trkpt lat="45.22345" lon="5.37585">
        <ele>387.9</ele>
        <time>2021-05-03T08:56:09Z</time>
      </trkpt>
      <trkpt lat="45.2235" lon="5.37581">
        <ele>387.9</ele>
        <time>2021-05-03T08:56:10Z</time>
      </trkpt>
      <trkpt lat="45.22355" lon="5.37575">
        <ele>387.9</ele>
        <time>2021-05-03T08:56:11Z</time>
      </trkpt>
      <trkpt lat="45.22359" lon="5.37569">
        <ele>387.8</ele>
        <time>2021-05-03T08:56:12Z</time>
      </trkpt>
      <trkpt lat="45.22363" lon="5.37563">
        <ele>387.8</ele>
        <time>2021-05-03T08:56:13Z</time>
      </trkpt>
      <trkpt lat="45.22367" lon="5.37556">
        <ele>387.8</ele>
        <time>2021-05-03T08:56:14Z</time>
      </trkpt>
      <trkpt lat="45.2237" lon="5.3755">
        <ele>387.8</ele>
        <time>2021-05-03T08:56:15Z</time>
      </trkpt>
      <trkpt lat="45.22373" lon="5.37544">
        <ele>387.8</ele>
        <time>2021-05-03T08:56:16Z</time>
      </trkpt>
      <trkpt lat="45.22378" lon="5.37538">
        <ele>387.8</ele>
        <time>2021-05-03T08:56:17Z</time>
      </trkpt>
      <trkpt lat="45.22383" lon="5.37531">
        <ele>387.8</ele>
        <time>2021-05-03T08:56:18Z</time>
      </trkpt>
      <trkpt lat="45.22387" lon="5.37524">
        <ele>387.7</ele>
        <time>2021-05-03T08:56:19Z</time>
      </trkpt>
      <trkpt lat="45.22392" lon="5.37518">
        <ele>387.7</ele>
        <time>2021-05-03T08:56:20Z</time>
      </trkpt>
      <trkpt lat="45.22397" lon="5.37512">
        <ele>387.6</ele>
        <time>2021-05-03T08:56:21Z</time>
      </trkpt>
      <trkpt lat="45.22401" lon="5.37505">
        <ele>387.6</ele>
        <time>2021-05-03T08:56:22Z</time>
      </trkpt>
      <trkpt lat="45.22406" lon="5.37499">
        <ele>387.6</ele>
        <time>2021-05-03T08:56:23Z</time>
      </trkpt>
      <trkpt lat="45.2241" lon="5.37492">
        <ele>387.5</ele>
        <time>2021-05-03T08:56:24Z</time>
      </trkpt>
      <trkpt lat="45.22415" lon="5.37485">
        <ele>387.5</ele>
        <time>2021-05-03T08:56:25Z</time>
      </trkpt>
      <trkpt lat="45.2242" lon="5.37478">
        <ele>387.5</ele>
        <time>2021-05-03T08:56:26Z</time>
      </trkpt>
      <trkpt lat="45.22425" lon="5.37472">
        <ele>387.5</ele>
        <time>2021-05-03T08:56:27Z</time>
      </trkpt>
      <trkpt lat="45.2243" lon="5.37466">
        <ele>387.4</ele>
        <time>2021-05-03T08:56:28Z</time>
      </trkpt>
      <trkpt lat="45.22435" lon="5.3746">
        <ele>387.4</ele>
        <time>2021-05-03T08:56:29Z</time>
      </trkpt>
      <trkpt lat="45.22441" lon="5.37455">
        <ele>387.4</ele>
        <time>2021-05-03T08:56:30Z</time>
      </trkpt>
      <trkpt lat="45.22447" lon="5.37449">
        <ele>387.3</ele>
        <time>2021-05-03T08:56:31Z</time>
      </trkpt>
      <trkpt lat="45.22453" lon="5.37444">
        <ele>387.3</ele>
        <time>2021-05-03T08:56:32Z</time>
      </trkpt>
      <trkpt lat="45.22459" lon="5.37439">
        <ele>387.2</ele>
        <time>2021-05-03T08:56:33Z</time>
      </trkpt>
      <trkpt lat="45.22464" lon="5.37433">
        <ele>387.2</ele>
        <time>2021-05-03T08:56:34Z</time>
      </trkpt>
      <trkpt lat="45.2247" lon="5.37428">
        <ele>387.2</ele>
        <time>2021-05-03T08:56:35Z</time>
      </trkpt>
      <trkpt lat="45.22476" lon="5.37423">
        <ele>387.1</ele>
        <time>2021-05-03T08:56:36Z</time>
      </trkpt>
      <trkpt lat="45.22481" lon="5.37417">
        <ele>387.1</ele>
        <time>2021-05-03T08:56:37Z</time>
      </trkpt>
      <trkpt lat="45.22486" lon="5.3741">
        <ele>387.1</ele>
        <time>2021-05-03T08:56:38Z</time>
      </trkpt>
      <trkpt lat="45.22492" lon="5.37405">
        <ele>387</ele>
        <time>2021-05-03T08:56:39Z</time>
      </trkpt>
      <trkpt lat="45.22497" lon="5.37398">
        <ele>387</ele>
        <time>2021-05-03T08:56:40Z</time>
      </trkpt>
      <trkpt lat="45.22502" lon="5.37392">
        <ele>387</ele>
        <time>2021-05-03T08:56:41Z</time>
      </trkpt>
      <trkpt lat="45.22506" lon="5.37385">
        <ele>387</ele>
        <time>2021-05-03T08:56:42Z</time>
      </trkpt>
      <trkpt lat="45.22511" lon="5.37379">
        <ele>386.9</ele>
        <time>2021-05-03T08:56:43Z</time>
      </trkpt>
      <trkpt lat="45.22515" lon="5.37373">
        <ele>386.9</ele>
        <time>2021-05-03T08:56:44Z</time>
      </trkpt>
      <trkpt lat="45.2252" lon="5.37367">
        <ele>386.9</ele>
        <time>2021-05-03T08:56:45Z</time>
      </trkpt>
      <trkpt lat="45.22525" lon="5.37361">
        <ele>386.9</ele>
        <time>2021-05-03T08:56:46Z</time>
      </trkpt>
      <trkpt lat="45.2253" lon="5.37356">
        <ele>386.9</ele>
        <time>2021-05-03T08:56:47Z</time>
      </trkpt>
      <trkpt lat="45.22534" lon="5.3735">
        <ele>386.9</ele>
        <time>2021-05-03T08:56:48Z</time>
      </trkpt>
      <trkpt lat="45.22539" lon="5.37344">
        <ele>386.9</ele>
        <time>2021-05-03T08:56:49Z</time>
      </trkpt>
      <trkpt lat="45.22544" lon="5.37339">
        <ele>386.9</ele>
        <time>2021-05-03T08:56:50Z</time>
      </trkpt>
      <trkpt lat="45.22549" lon="5.37333">
        <ele>386.9</ele>
        <time>2021-05-03T08:56:51Z</time>
      </trkpt>
      <trkpt lat="45.22554" lon="5.37328">
        <ele>386.8</ele>
        <time>2021-05-03T08:56:52Z</time>
      </trkpt>
      <trkpt lat="45.22559" lon="5.37323">
        <ele>386.8</ele>
        <time>2021-05-03T08:56:53Z</time>
      </trkpt>
      <trkpt lat="45.22565" lon="5.37317">
        <ele>386.8</ele>
        <time>2021-05-03T08:56:54Z</time>
      </trkpt>
      <trkpt lat="45.2257" lon="5.37311">
        <ele>386.8</ele>
        <time>2021-05-03T08:56:55Z</time>
      </trkpt>
      <trkpt lat="45.22576" lon="5.37305">
        <ele>386.8</ele>
        <time>2021-05-03T08:56:56Z</time>
      </trkpt>
      <trkpt lat="45.22581" lon="5.37299">
        <ele>386.8</ele>
        <time>2021-05-03T08:56:57Z</time>
      </trkpt>
      <trkpt lat="45.22585" lon="5.37293">
        <ele>386.8</ele>
        <time>2021-05-03T08:56:58Z</time>
      </trkpt>
      <trkpt lat="45.2259" lon="5.37287">
        <ele>386.8</ele>
        <time>2021-05-03T08:56:59Z</time>
      </trkpt>
      <trkpt lat="45.22595" lon="5.3728">
        <ele>386.8</ele>
        <time>2021-05-03T08:57:00Z</time>
      </trkpt>
      <trkpt lat="45.226" lon="5.37273">
        <ele>386.8</ele>
        <time>2021-05-03T08:57:01Z</time>
      </trkpt>
      <trkpt lat="45.22605" lon="5.37267">
        <ele>386.9</ele>
        <time>2021-05-03T08:57:02Z</time>
      </trkpt>
      <trkpt lat="45.2261" lon="5.37261">
        <ele>386.9</ele>
        <time>2021-05-03T08:57:03Z</time>
      </trkpt>
      <trkpt lat="45.22615" lon="5.37256">
        <ele>386.9</ele>
        <time>2021-05-03T08:57:04Z</time>
      </trkpt>
      <trkpt lat="45.2262" lon="5.3725">
        <ele>386.8</ele>
        <time>2021-05-03T08:57:05Z</time>
      </trkpt>
      <trkpt lat="45.22625" lon="5.37244">
        <ele>386.8</ele>
        <time>2021-05-03T08:57:06Z</time>
      </trkpt>
      <trkpt lat="45.2263" lon="5.37238">
        <ele>386.7</ele>
        <time>2021-05-03T08:57:07Z</time>
      </trkpt>
      <trkpt lat="45.22635" lon="5.37233">
        <ele>386.7</ele>
        <time>2021-05-03T08:57:08Z</time>
      </trkpt>
      <trkpt lat="45.2264" lon="5.37227">
        <ele>386.7</ele>
        <time>2021-05-03T08:57:09Z</time>
      </trkpt>
      <trkpt lat="45.22645" lon="5.37221">
        <ele>386.6</ele>
        <time>2021-05-03T08:57:10Z</time>
      </trkpt>
      <trkpt lat="45.2265" lon="5.37216">
        <ele>386.6</ele>
        <time>2021-05-03T08:57:11Z</time>
      </trkpt>
      <trkpt lat="45.22654" lon="5.3721">
        <ele>386.6</ele>
        <time>2021-05-03T08:57:12Z</time>
      </trkpt>
      <trkpt lat="45.22659" lon="5.37204">
        <ele>386.6</ele>
        <time>2021-05-03T08:57:13Z</time>
      </trkpt>
      <trkpt lat="45.22664" lon="5.37199">
        <ele>386.6</ele>
        <time>2021-05-03T08:57:14Z</time>
      </trkpt>
      <trkpt lat="45.22669" lon="5.37193">
        <ele>386.6</ele>
        <time>2021-05-03T08:57:15Z</time>
      </trkpt>
      <trkpt lat="45.22674" lon="5.37187">
        <ele>386.6</ele>
        <time>2021-05-03T08:57:16Z</time>
      </trkpt>
      <trkpt lat="45.22678" lon="5.37181">
        <ele>386.6</ele>
        <time>2021-05-03T08:57:17Z</time>
      </trkpt>
      <trkpt lat="45.22681" lon="5.37175">
        <ele>386.6</ele>
        <time>2021-05-03T08:57:18Z</time>
      </trkpt>
      <trkpt lat="45.22684" lon="5.37168">
        <ele>386.5</ele>
        <time>2021-05-03T08:57:19Z</time>
      </trkpt>
      <trkpt lat="45.22687" lon="5.3716">
        <ele>386.5</ele>
        <time>2021-05-03T08:57:20Z</time>
      </trkpt>
      <trkpt lat="45.22688" lon="5.37153">
        <ele>386.5</ele>
        <time>2021-05-03T08:57:21Z</time>
      </trkpt>
      <trkpt lat="45.22689" lon="5.37146">
        <ele>386.5</ele>
        <time>2021-05-03T08:57:22Z</time>
      </trkpt>
      <trkpt lat="45.2269" lon="5.37138">
        <ele>386.5</ele>
        <time>2021-05-03T08:57:23Z</time>
      </trkpt>
      <trkpt lat="45.2269" lon="5.3713">
        <ele>386.5</ele>
        <time>2021-05-03T08:57:24Z</time>
      </trkpt>
      <trkpt lat="45.22691" lon="5.37122">
        <ele>386.5</ele>
        <time>2021-05-03T08:57:25Z</time>
      </trkpt>
      <trkpt lat="45.2269" lon="5.37115">
        <ele>386.5</ele>
        <time>2021-05-03T08:57:26Z</time>
      </trkpt>
      <trkpt lat="45.2269" lon="5.37107">
        <ele>386.5</ele>
        <time>2021-05-03T08:57:27Z</time>
      </trkpt>
      <trkpt lat="45.22688" lon="5.37099">
        <ele>386.5</ele>
        <time>2021-05-03T08:57:28Z</time>
      </trkpt>
      <trkpt lat="45.22687" lon="5.37092">
        <ele>386.5</ele>
        <time>2021-05-03T08:57:29Z</time>
      </trkpt>
      <trkpt lat="45.22684" lon="5.37084">
        <ele>386.5</ele>
        <time>2021-05-03T08:57:30Z</time>
      </trkpt>
      <trkpt lat="45.22682" lon="5.37075">
        <ele>386.5</ele>
        <time>2021-05-03T08:57:31Z</time>
      </trkpt>
      <trkpt lat="45.2268" lon="5.37067">
        <ele>386.5</ele>
        <time>2021-05-03T08:57:32Z</time>
      </trkpt>
      <trkpt lat="45.22678" lon="5.37059">
        <ele>386.5</ele>
        <time>2021-05-03T08:57:33Z</time>
      </trkpt>
      <trkpt lat="45.22676" lon="5.37052">
        <ele>386.5</ele>
        <time>2021-05-03T08:57:34Z</time>
      </trkpt>
      <trkpt lat="45.22675" lon="5.37044">
        <ele>386.6</ele>
        <time>2021-05-03T08:57:35Z</time>
      </trkpt>
      <trkpt lat="45.22673" lon="5.37036">
        <ele>386.6</ele>
        <time>2021-05-03T08:57:36Z</time>
      </trkpt>
      <trkpt lat="45.22671" lon="5.37029">
        <ele>386.7</ele>
        <time>2021-05-03T08:57:37Z</time>
      </trkpt>
      <trkpt lat="45.2267" lon="5.37021">
        <ele>386.7</ele>
        <time>2021-05-03T08:57:38Z</time>
      </trkpt>
      <trkpt lat="45.22669" lon="5.37014">
        <ele>386.8</ele>
        <time>2021-05-03T08:57:39Z</time>
      </trkpt>
      <trkpt lat="45.22669" lon="5.37007">
        <ele>386.7</ele>
        <time>2021-05-03T08:57:40Z</time>
      </trkpt>
      <trkpt lat="45.22671" lon="5.37005">
        <ele>386.7</ele>
        <time>2021-05-03T08:57:41Z</time>
      </trkpt>
      <trkpt lat="45.22672" lon="5.37004">
        <ele>386.7</ele>
        <time>2021-05-03T08:57:42Z</time>
      </trkpt>
      <trkpt lat="45.22672" lon="5.37003">
        <ele>386.7</ele>
        <time>2021-05-03T08:57:43Z</time>
      </trkpt>
      <trkpt lat="45.22672" lon="5.37003">
        <ele>386.7</ele>
        <time>2021-05-03T08:57:44Z</time>
      </trkpt>
      <trkpt lat="45.22672" lon="5.37002">
        <ele>386.7</ele>
        <time>2021-05-03T08:57:45Z</time>
      </trkpt>
      <trkpt lat="45.22672" lon="5.37001">
        <ele>386.7</ele>
        <time>2021-05-03T08:57:46Z</time>
      </trkpt>
      <trkpt lat="45.22672" lon="5.37001">
        <ele>386.8</ele>
        <time>2021-05-03T08:57:47Z</time>
      </trkpt>
      <trkpt lat="45.22672" lon="5.37">
        <ele>386.8</ele>
        <time>2021-05-03T08:57:48Z</time>
      </trkpt>
      <trkpt lat="45.22672" lon="5.37">
        <ele>386.8</ele>
        <time>2021-05-03T08:57:49Z</time>
      </trkpt>
      <trkpt lat="45.22672" lon="5.36999">
        <ele>386.8</ele>
        <time>2021-05-03T08:57:50Z</time>
      </trkpt>
      <trkpt lat="45.22672" lon="5.36998">
        <ele>386.8</ele>
        <time>2021-05-03T08:57:51Z</time>
      </trkpt>
      <trkpt lat="45.22672" lon="5.36998">
        <ele>386.8</ele>
        <time>2021-05-03T08:57:52Z</time>
      </trkpt>
      <trkpt lat="45.22672" lon="5.36997">
        <ele>386.9</ele>
        <time>2021-05-03T08:57:53Z</time>
      </trkpt>
      <trkpt lat="45.22672" lon="5.36996">
        <ele>386.9</ele>
        <time>2021-05-03T08:57:54Z</time>
      </trkpt>
      <trkpt lat="45.22672" lon="5.36996">
        <ele>386.9</ele>
        <time>2021-05-03T08:57:55Z</time>
      </trkpt>
      <trkpt lat="45.22672" lon="5.36995">
        <ele>386.9</ele>
        <time>2021-05-03T08:57:56Z</time>
      </trkpt>
      <trkpt lat="45.22672" lon="5.36995">
        <ele>386.9</ele>
        <time>2021-05-03T08:57:57Z</time>
      </trkpt>
      <trkpt lat="45.22672" lon="5.36994">
        <ele>386.9</ele>
        <time>2021-05-03T08:57:58Z</time>
      </trkpt>
      <trkpt lat="45.22671" lon="5.36993">
        <ele>386.9</ele>
        <time>2021-05-03T08:58:00Z</time>
      </trkpt>
      <trkpt lat="45.22671" lon="5.36993">
        <ele>387</ele>
        <time>2021-05-03T08:58:39Z</time>
      </trkpt>
      <trkpt lat="45.22671" lon="5.36992">
        <ele>387</ele>
        <time>2021-05-03T08:58:40Z</time>
      </trkpt>
      <trkpt lat="45.22671" lon="5.36992">
        <ele>387</ele>
        <time>2021-05-03T08:58:41Z</time>
      </trkpt>
      <trkpt lat="45.22673" lon="5.36988">
        <ele>387.1</ele>
        <time>2021-05-03T08:58:43Z</time>
      </trkpt>
      <trkpt lat="45.22673" lon="5.36987">
        <ele>387.1</ele>
        <time>2021-05-03T08:58:44Z</time>
      </trkpt>
      <trkpt lat="45.22675" lon="5.36982">
        <ele>387.3</ele>
        <time>2021-05-03T08:58:45Z</time>
      </trkpt>
      <trkpt lat="45.22675" lon="5.36981">
        <ele>387.3</ele>
        <time>2021-05-03T08:58:46Z</time>
      </trkpt>
      <trkpt lat="45.22676" lon="5.36977">
        <ele>387.4</ele>
        <time>2021-05-03T08:58:47Z</time>
      </trkpt>
      <trkpt lat="45.22678" lon="5.36969">
        <ele>387.7</ele>
        <time>2021-05-03T08:58:49Z</time>
      </trkpt>
      <trkpt lat="45.2268" lon="5.36962">
        <ele>388</ele>
        <time>2021-05-03T08:58:51Z</time>
      </trkpt>
      <trkpt lat="45.22681" lon="5.36957">
        <ele>388.2</ele>
        <time>2021-05-03T08:58:52Z</time>
      </trkpt>
      <trkpt lat="45.22683" lon="5.36948">
        <ele>388.5</ele>
        <time>2021-05-03T08:58:54Z</time>
      </trkpt>
      <trkpt lat="45.22683" lon="5.36943">
        <ele>388.8</ele>
        <time>2021-05-03T08:58:55Z</time>
      </trkpt>
      <trkpt lat="45.22683" lon="5.36936">
        <ele>389.1</ele>
        <time>2021-05-03T08:58:56Z</time>
      </trkpt>
      <trkpt lat="45.22684" lon="5.36928">
        <ele>389.4</ele>
        <time>2021-05-03T08:58:58Z</time>
      </trkpt>
      <trkpt lat="45.22684" lon="5.36923">
        <ele>389.7</ele>
        <time>2021-05-03T08:58:59Z</time>
      </trkpt>
      <trkpt lat="45.22685" lon="5.36914">
        <ele>390</ele>
        <time>2021-05-03T08:59:01Z</time>
      </trkpt>
      <trkpt lat="45.22685" lon="5.3691">
        <ele>390.3</ele>
        <time>2021-05-03T08:59:02Z</time>
      </trkpt>
      <trkpt lat="45.22684" lon="5.36902">
        <ele>390.7</ele>
        <time>2021-05-03T08:59:04Z</time>
      </trkpt>
      <trkpt lat="45.22683" lon="5.36898">
        <ele>390.9</ele>
        <time>2021-05-03T08:59:05Z</time>
      </trkpt>
      <trkpt lat="45.22681" lon="5.36891">
        <ele>391.3</ele>
        <time>2021-05-03T08:59:07Z</time>
      </trkpt>
      <trkpt lat="45.2268" lon="5.36886">
        <ele>391.6</ele>
        <time>2021-05-03T08:59:08Z</time>
      </trkpt>
      <trkpt lat="45.22677" lon="5.36878">
        <ele>392.1</ele>
        <time>2021-05-03T08:59:10Z</time>
      </trkpt>
      <trkpt lat="45.22674" lon="5.3687">
        <ele>392.6</ele>
        <time>2021-05-03T08:59:12Z</time>
      </trkpt>
      <trkpt lat="45.22673" lon="5.36864">
        <ele>393</ele>
        <time>2021-05-03T08:59:13Z</time>
      </trkpt>
      <trkpt lat="45.22671" lon="5.36861">
        <ele>393.2</ele>
        <time>2021-05-03T08:59:14Z</time>
      </trkpt>
      <trkpt lat="45.2267" lon="5.36858">
        <ele>393.3</ele>
        <time>2021-05-03T08:59:16Z</time>
      </trkpt>
      <trkpt lat="45.22668" lon="5.36853">
        <ele>393.6</ele>
        <time>2021-05-03T08:59:17Z</time>
      </trkpt>
      <trkpt lat="45.22668" lon="5.36852">
        <ele>393.7</ele>
        <time>2021-05-03T08:59:18Z</time>
      </trkpt>
      <trkpt lat="45.22666" lon="5.36847">
        <ele>393.9</ele>
        <time>2021-05-03T08:59:19Z</time>
      </trkpt>
      <trkpt lat="45.22665" lon="5.36846">
        <ele>394</ele>
        <time>2021-05-03T08:59:20Z</time>
      </trkpt>
      <trkpt lat="45.22664" lon="5.36841">
        <ele>394.3</ele>
        <time>2021-05-03T08:59:21Z</time>
      </trkpt>
      <trkpt lat="45.22662" lon="5.36834">
        <ele>394.6</ele>
        <time>2021-05-03T08:59:23Z</time>
      </trkpt>
      <trkpt lat="45.2266" lon="5.36829">
        <ele>394.9</ele>
        <time>2021-05-03T08:59:24Z</time>
      </trkpt>
      <trkpt lat="45.22659" lon="5.36828">
        <ele>395</ele>
        <time>2021-05-03T08:59:25Z</time>
      </trkpt>
      <trkpt lat="45.22658" lon="5.36824">
        <ele>395.2</ele>
        <time>2021-05-03T08:59:26Z</time>
      </trkpt>
      <trkpt lat="45.22657" lon="5.3682">
        <ele>395.4</ele>
        <time>2021-05-03T08:59:27Z</time>
      </trkpt>
      <trkpt lat="45.22654" lon="5.36813">
        <ele>395.8</ele>
        <time>2021-05-03T08:59:29Z</time>
      </trkpt>
      <trkpt lat="45.22651" lon="5.36805">
        <ele>396.2</ele>
        <time>2021-05-03T08:59:30Z</time>
      </trkpt>
      <trkpt lat="45.2265" lon="5.368">
        <ele>396.5</ele>
        <time>2021-05-03T08:59:32Z</time>
      </trkpt>
      <trkpt lat="45.22649" lon="5.36792">
        <ele>396.8</ele>
        <time>2021-05-03T08:59:34Z</time>
      </trkpt>
      <trkpt lat="45.22648" lon="5.36788">
        <ele>397.1</ele>
        <time>2021-05-03T08:59:35Z</time>
      </trkpt>
      <trkpt lat="45.22648" lon="5.36786">
        <ele>397.1</ele>
        <time>2021-05-03T08:59:36Z</time>
      </trkpt>
      <trkpt lat="45.22648" lon="5.36782">
        <ele>397.4</ele>
        <time>2021-05-03T08:59:37Z</time>
      </trkpt>
      <trkpt lat="45.22646" lon="5.36773">
        <ele>397.8</ele>
        <time>2021-05-03T08:59:39Z</time>
      </trkpt>
      <trkpt lat="45.22646" lon="5.36764">
        <ele>398.3</ele>
        <time>2021-05-03T08:59:41Z</time>
      </trkpt>
      <trkpt lat="45.22648" lon="5.36758">
        <ele>398.6</ele>
        <time>2021-05-03T08:59:43Z</time>
      </trkpt>
      <trkpt lat="45.2265" lon="5.36754">
        <ele>398.9</ele>
        <time>2021-05-03T08:59:44Z</time>
      </trkpt>
      <trkpt lat="45.2265" lon="5.36753">
        <ele>399</ele>
        <time>2021-05-03T08:59:45Z</time>
      </trkpt>
      <trkpt lat="45.22652" lon="5.3675">
        <ele>399.2</ele>
        <time>2021-05-03T08:59:46Z</time>
      </trkpt>
      <trkpt lat="45.22655" lon="5.36745">
        <ele>399.5</ele>
        <time>2021-05-03T08:59:48Z</time>
      </trkpt>
      <trkpt lat="45.2266" lon="5.36742">
        <ele>400</ele>
        <time>2021-05-03T08:59:49Z</time>
      </trkpt>
      <trkpt lat="45.22664" lon="5.36739">
        <ele>400.3</ele>
        <time>2021-05-03T08:59:51Z</time>
      </trkpt>
      <trkpt lat="45.22669" lon="5.3674">
        <ele>400.7</ele>
        <time>2021-05-03T08:59:53Z</time>
      </trkpt>
      <trkpt lat="45.22674" lon="5.3674">
        <ele>401.1</ele>
        <time>2021-05-03T08:59:54Z</time>
      </trkpt>
      <trkpt lat="45.22678" lon="5.3674">
        <ele>401.4</ele>
        <time>2021-05-03T08:59:55Z</time>
      </trkpt>
      <trkpt lat="45.22685" lon="5.36743">
        <ele>402</ele>
        <time>2021-05-03T08:59:57Z</time>
      </trkpt>
      <trkpt lat="45.22689" lon="5.36746">
        <ele>402.4</ele>
        <time>2021-05-03T08:59:59Z</time>
      </trkpt>
      <trkpt lat="45.22692" lon="5.36749">
        <ele>402.7</ele>
        <time>2021-05-03T09:00:00Z</time>
      </trkpt>
      <trkpt lat="45.22696" lon="5.36754">
        <ele>403.1</ele>
        <time>2021-05-03T09:00:02Z</time>
      </trkpt>
      <trkpt lat="45.22699" lon="5.3676">
        <ele>403.5</ele>
        <time>2021-05-03T09:00:03Z</time>
      </trkpt>
      <trkpt lat="45.22702" lon="5.36765">
        <ele>403.8</ele>
        <time>2021-05-03T09:00:05Z</time>
      </trkpt>
      <trkpt lat="45.22705" lon="5.36768">
        <ele>404.1</ele>
        <time>2021-05-03T09:00:06Z</time>
      </trkpt>
      <trkpt lat="45.22708" lon="5.36771">
        <ele>404.4</ele>
        <time>2021-05-03T09:00:08Z</time>
      </trkpt>
      <trkpt lat="45.22711" lon="5.36773">
        <ele>404.6</ele>
        <time>2021-05-03T09:00:09Z</time>
      </trkpt>
      <trkpt lat="45.22713" lon="5.36773">
        <ele>404.7</ele>
        <time>2021-05-03T09:00:10Z</time>
      </trkpt>
      <trkpt lat="45.22718" lon="5.36774">
        <ele>405.1</ele>
        <time>2021-05-03T09:00:12Z</time>
      </trkpt>
      <trkpt lat="45.22723" lon="5.36773">
        <ele>405.5</ele>
        <time>2021-05-03T09:00:14Z</time>
      </trkpt>
      <trkpt lat="45.22728" lon="5.36771">
        <ele>405.9</ele>
        <time>2021-05-03T09:00:16Z</time>
      </trkpt>
      <trkpt lat="45.22732" lon="5.36769">
        <ele>406.2</ele>
        <time>2021-05-03T09:00:18Z</time>
      </trkpt>
      <trkpt lat="45.22735" lon="5.36767">
        <ele>406.4</ele>
        <time>2021-05-03T09:00:19Z</time>
      </trkpt>
      <trkpt lat="45.22738" lon="5.36765">
        <ele>406.7</ele>
        <time>2021-05-03T09:00:21Z</time>
      </trkpt>
      <trkpt lat="45.22741" lon="5.36763">
        <ele>406.9</ele>
        <time>2021-05-03T09:00:22Z</time>
      </trkpt>
      <trkpt lat="45.22745" lon="5.36761">
        <ele>407.2</ele>
        <time>2021-05-03T09:00:24Z</time>
      </trkpt>
      <trkpt lat="45.22748" lon="5.3676">
        <ele>407.4</ele>
        <time>2021-05-03T09:00:25Z</time>
      </trkpt>
      <trkpt lat="45.22749" lon="5.3676">
        <ele>407.5</ele>
        <time>2021-05-03T09:00:26Z</time>
      </trkpt>
      <trkpt lat="45.22752" lon="5.36759">
        <ele>407.7</ele>
        <time>2021-05-03T09:00:27Z</time>
      </trkpt>
      <trkpt lat="45.22755" lon="5.36758">
        <ele>408</ele>
        <time>2021-05-03T09:00:28Z</time>
      </trkpt>
      <trkpt lat="45.22758" lon="5.36756">
        <ele>408.2</ele>
        <time>2021-05-03T09:00:29Z</time>
      </trkpt>
      <trkpt lat="45.22762" lon="5.36755">
        <ele>408.5</ele>
        <time>2021-05-03T09:00:31Z</time>
      </trkpt>
      <trkpt lat="45.22764" lon="5.36755">
        <ele>408.7</ele>
        <time>2021-05-03T09:00:32Z</time>
      </trkpt>
      <trkpt lat="45.22768" lon="5.36753">
        <ele>409</ele>
        <time>2021-05-03T09:00:34Z</time>
      </trkpt>
      <trkpt lat="45.22772" lon="5.36752">
        <ele>409.4</ele>
        <time>2021-05-03T09:00:36Z</time>
      </trkpt>
      <trkpt lat="45.22776" lon="5.36752">
        <ele>409.7</ele>
        <time>2021-05-03T09:00:37Z</time>
      </trkpt>
      <trkpt lat="45.22777" lon="5.36751">
        <ele>409.8</ele>
        <time>2021-05-03T09:00:38Z</time>
      </trkpt>
      <trkpt lat="45.22781" lon="5.3675">
        <ele>410.1</ele>
        <time>2021-05-03T09:00:40Z</time>
      </trkpt>
      <trkpt lat="45.22785" lon="5.36749">
        <ele>410.4</ele>
        <time>2021-05-03T09:00:42Z</time>
      </trkpt>
      <trkpt lat="45.22787" lon="5.36749">
        <ele>410.6</ele>
        <time>2021-05-03T09:00:43Z</time>
      </trkpt>
      <trkpt lat="45.22792" lon="5.36749">
        <ele>411</ele>
        <time>2021-05-03T09:00:45Z</time>
      </trkpt>
      <trkpt lat="45.22794" lon="5.36747">
        <ele>411.2</ele>
        <time>2021-05-03T09:00:46Z</time>
      </trkpt>
      <trkpt lat="45.22797" lon="5.36745">
        <ele>411.5</ele>
        <time>2021-05-03T09:00:47Z</time>
      </trkpt>
      <trkpt lat="45.22801" lon="5.36743">
        <ele>411.9</ele>
        <time>2021-05-03T09:00:49Z</time>
      </trkpt>
      <trkpt lat="45.22804" lon="5.36739">
        <ele>412.2</ele>
        <time>2021-05-03T09:00:50Z</time>
      </trkpt>
      <trkpt lat="45.22805" lon="5.36738">
        <ele>412.4</ele>
        <time>2021-05-03T09:00:51Z</time>
      </trkpt>
      <trkpt lat="45.22808" lon="5.36733">
        <ele>412.7</ele>
        <time>2021-05-03T09:00:53Z</time>
      </trkpt>
      <trkpt lat="45.22809" lon="5.36731">
        <ele>412.9</ele>
        <time>2021-05-03T09:00:54Z</time>
      </trkpt>
      <trkpt lat="45.2281" lon="5.3673">
        <ele>413</ele>
        <time>2021-05-03T09:00:55Z</time>
      </trkpt>
      <trkpt lat="45.22811" lon="5.36727">
        <ele>413.2</ele>
        <time>2021-05-03T09:00:56Z</time>
      </trkpt>
      <trkpt lat="45.22815" lon="5.36723">
        <ele>413.6</ele>
        <time>2021-05-03T09:00:58Z</time>
      </trkpt>
      <trkpt lat="45.22818" lon="5.36719">
        <ele>413.9</ele>
        <time>2021-05-03T09:01:00Z</time>
      </trkpt>
      <trkpt lat="45.2282" lon="5.36716">
        <ele>414.2</ele>
        <time>2021-05-03T09:01:01Z</time>
      </trkpt>
      <trkpt lat="45.2282" lon="5.36714">
        <ele>414.3</ele>
        <time>2021-05-03T09:01:02Z</time>
      </trkpt>
      <trkpt lat="45.22822" lon="5.36709">
        <ele>414.6</ele>
        <time>2021-05-03T09:01:04Z</time>
      </trkpt>
      <trkpt lat="45.22824" lon="5.36706">
        <ele>414.9</ele>
        <time>2021-05-03T09:01:05Z</time>
      </trkpt>
      <trkpt lat="45.22826" lon="5.36703">
        <ele>415.1</ele>
        <time>2021-05-03T09:01:06Z</time>
      </trkpt>
      <trkpt lat="45.22828" lon="5.367">
        <ele>415.4</ele>
        <time>2021-05-03T09:01:08Z</time>
      </trkpt>
      <trkpt lat="45.22831" lon="5.36694">
        <ele>415.8</ele>
        <time>2021-05-03T09:01:10Z</time>
      </trkpt>
      <trkpt lat="45.22833" lon="5.3669">
        <ele>416</ele>
        <time>2021-05-03T09:01:11Z</time>
      </trkpt>
      <trkpt lat="45.22833" lon="5.36689">
        <ele>416.1</ele>
        <time>2021-05-03T09:01:12Z</time>
      </trkpt>
      <trkpt lat="45.22834" lon="5.36684">
        <ele>416.4</ele>
        <time>2021-05-03T09:01:13Z</time>
      </trkpt>
      <trkpt lat="45.22835" lon="5.36681">
        <ele>416.6</ele>
        <time>2021-05-03T09:01:14Z</time>
      </trkpt>
      <trkpt lat="45.22835" lon="5.36677">
        <ele>416.8</ele>
        <time>2021-05-03T09:01:16Z</time>
      </trkpt>
      <trkpt lat="45.22836" lon="5.36671">
        <ele>417.2</ele>
        <time>2021-05-03T09:01:18Z</time>
      </trkpt>
      <trkpt lat="45.22836" lon="5.36667">
        <ele>417.4</ele>
        <time>2021-05-03T09:01:19Z</time>
      </trkpt>
      <trkpt lat="45.22837" lon="5.36661">
        <ele>417.8</ele>
        <time>2021-05-03T09:01:21Z</time>
      </trkpt>
      <trkpt lat="45.22837" lon="5.36658">
        <ele>418</ele>
        <time>2021-05-03T09:01:22Z</time>
      </trkpt>
      <trkpt lat="45.22836" lon="5.36649">
        <ele>418.5</ele>
        <time>2021-05-03T09:01:24Z</time>
      </trkpt>
      <trkpt lat="45.22834" lon="5.36643">
        <ele>418.9</ele>
        <time>2021-05-03T09:01:26Z</time>
      </trkpt>
      <trkpt lat="45.22833" lon="5.36639">
        <ele>419.1</ele>
        <time>2021-05-03T09:01:27Z</time>
      </trkpt>
      <trkpt lat="45.22832" lon="5.36638">
        <ele>419.2</ele>
        <time>2021-05-03T09:01:28Z</time>
      </trkpt>
      <trkpt lat="45.22832" lon="5.36635">
        <ele>419.4</ele>
        <time>2021-05-03T09:01:29Z</time>
      </trkpt>
      <trkpt lat="45.22829" lon="5.36628">
        <ele>419.8</ele>
        <time>2021-05-03T09:01:31Z</time>
      </trkpt>
      <trkpt lat="45.22827" lon="5.36625">
        <ele>420</ele>
        <time>2021-05-03T09:01:32Z</time>
      </trkpt>
      <trkpt lat="45.22826" lon="5.36624">
        <ele>420.1</ele>
        <time>2021-05-03T09:01:33Z</time>
      </trkpt>
      <trkpt lat="45.22823" lon="5.3662">
        <ele>420.5</ele>
        <time>2021-05-03T09:01:34Z</time>
      </trkpt>
      <trkpt lat="45.22821" lon="5.36618">
        <ele>420.6</ele>
        <time>2021-05-03T09:01:35Z</time>
      </trkpt>
      <trkpt lat="45.22817" lon="5.36614">
        <ele>421</ele>
        <time>2021-05-03T09:01:37Z</time>
      </trkpt>
      <trkpt lat="45.22813" lon="5.3661">
        <ele>421.4</ele>
        <time>2021-05-03T09:01:39Z</time>
      </trkpt>
      <trkpt lat="45.2281" lon="5.36605">
        <ele>421.8</ele>
        <time>2021-05-03T09:01:41Z</time>
      </trkpt>
      <trkpt lat="45.22808" lon="5.36602">
        <ele>422.1</ele>
        <time>2021-05-03T09:01:42Z</time>
      </trkpt>
      <trkpt lat="45.22808" lon="5.366">
        <ele>422.2</ele>
        <time>2021-05-03T09:01:43Z</time>
      </trkpt>
      <trkpt lat="45.22807" lon="5.36597">
        <ele>422.4</ele>
        <time>2021-05-03T09:01:44Z</time>
      </trkpt>
      <trkpt lat="45.22806" lon="5.36592">
        <ele>422.7</ele>
        <time>2021-05-03T09:01:46Z</time>
      </trkpt>
      <trkpt lat="45.22806" lon="5.36588">
        <ele>423</ele>
        <time>2021-05-03T09:01:47Z</time>
      </trkpt>
      <trkpt lat="45.22807" lon="5.36578">
        <ele>423.6</ele>
        <time>2021-05-03T09:01:49Z</time>
      </trkpt>
      <trkpt lat="45.22808" lon="5.3657">
        <ele>424.1</ele>
        <time>2021-05-03T09:01:51Z</time>
      </trkpt>
      <trkpt lat="45.22808" lon="5.36566">
        <ele>424.3</ele>
        <time>2021-05-03T09:01:52Z</time>
      </trkpt>
      <trkpt lat="45.22809" lon="5.36562">
        <ele>424.6</ele>
        <time>2021-05-03T09:01:53Z</time>
      </trkpt>
      <trkpt lat="45.22811" lon="5.36557">
        <ele>424.9</ele>
        <time>2021-05-03T09:01:54Z</time>
      </trkpt>
      <trkpt lat="45.22813" lon="5.36551">
        <ele>425.3</ele>
        <time>2021-05-03T09:01:56Z</time>
      </trkpt>
      <trkpt lat="45.22816" lon="5.36544">
        <ele>425.7</ele>
        <time>2021-05-03T09:01:58Z</time>
      </trkpt>
      <trkpt lat="45.22817" lon="5.36537">
        <ele>426.2</ele>
        <time>2021-05-03T09:02:00Z</time>
      </trkpt>
      <trkpt lat="45.22818" lon="5.3653">
        <ele>426.6</ele>
        <time>2021-05-03T09:02:02Z</time>
      </trkpt>
      <trkpt lat="45.22817" lon="5.36525">
        <ele>426.9</ele>
        <time>2021-05-03T09:02:03Z</time>
      </trkpt>
      <trkpt lat="45.22817" lon="5.36517">
        <ele>427.3</ele>
        <time>2021-05-03T09:02:05Z</time>
      </trkpt>
      <trkpt lat="45.22817" lon="5.36515">
        <ele>427.5</ele>
        <time>2021-05-03T09:02:06Z</time>
      </trkpt>
      <trkpt lat="45.22816" lon="5.36512">
        <ele>427.6</ele>
        <time>2021-05-03T09:02:07Z</time>
      </trkpt>
      <trkpt lat="45.22816" lon="5.36506">
        <ele>427.9</ele>
        <time>2021-05-03T09:02:09Z</time>
      </trkpt>
      <trkpt lat="45.22815" lon="5.365">
        <ele>428.3</ele>
        <time>2021-05-03T09:02:11Z</time>
      </trkpt>
      <trkpt lat="45.22815" lon="5.36494">
        <ele>428.6</ele>
        <time>2021-05-03T09:02:13Z</time>
      </trkpt>
      <trkpt lat="45.22815" lon="5.36489">
        <ele>428.9</ele>
        <time>2021-05-03T09:02:14Z</time>
      </trkpt>
      <trkpt lat="45.22815" lon="5.36488">
        <ele>428.9</ele>
        <time>2021-05-03T09:02:15Z</time>
      </trkpt>
      <trkpt lat="45.22815" lon="5.36484">
        <ele>429.1</ele>
        <time>2021-05-03T09:02:16Z</time>
      </trkpt>
      <trkpt lat="45.22815" lon="5.36477">
        <ele>429.5</ele>
        <time>2021-05-03T09:02:18Z</time>
      </trkpt>
      <trkpt lat="45.22815" lon="5.36473">
        <ele>429.7</ele>
        <time>2021-05-03T09:02:19Z</time>
      </trkpt>
      <trkpt lat="45.22815" lon="5.36468">
        <ele>430</ele>
        <time>2021-05-03T09:02:21Z</time>
      </trkpt>
      <trkpt lat="45.22815" lon="5.36463">
        <ele>430.2</ele>
        <time>2021-05-03T09:02:22Z</time>
      </trkpt>
      <trkpt lat="45.22815" lon="5.36462">
        <ele>430.3</ele>
        <time>2021-05-03T09:02:23Z</time>
      </trkpt>
      <trkpt lat="45.22814" lon="5.36457">
        <ele>430.6</ele>
        <time>2021-05-03T09:02:24Z</time>
      </trkpt>
      <trkpt lat="45.22814" lon="5.36455">
        <ele>430.7</ele>
        <time>2021-05-03T09:02:25Z</time>
      </trkpt>
      <trkpt lat="45.22813" lon="5.3645">
        <ele>430.9</ele>
        <time>2021-05-03T09:02:26Z</time>
      </trkpt>
      <trkpt lat="45.22813" lon="5.36448">
        <ele>431</ele>
        <time>2021-05-03T09:02:27Z</time>
      </trkpt>
      <trkpt lat="45.22812" lon="5.36443">
        <ele>431.3</ele>
        <time>2021-05-03T09:02:28Z</time>
      </trkpt>
      <trkpt lat="45.2281" lon="5.36437">
        <ele>431.6</ele>
        <time>2021-05-03T09:02:30Z</time>
      </trkpt>
      <trkpt lat="45.22808" lon="5.36433">
        <ele>431.8</ele>
        <time>2021-05-03T09:02:31Z</time>
      </trkpt>
      <trkpt lat="45.22805" lon="5.3643">
        <ele>432.1</ele>
        <time>2021-05-03T09:02:33Z</time>
      </trkpt>
      <trkpt lat="45.22803" lon="5.36427">
        <ele>432.3</ele>
        <time>2021-05-03T09:02:34Z</time>
      </trkpt>
      <trkpt lat="45.22799" lon="5.36423">
        <ele>432.6</ele>
        <time>2021-05-03T09:02:36Z</time>
      </trkpt>
      <trkpt lat="45.22795" lon="5.36419">
        <ele>432.8</ele>
        <time>2021-05-03T09:02:37Z</time>
      </trkpt>
      <trkpt lat="45.22792" lon="5.36417">
        <ele>433.1</ele>
        <time>2021-05-03T09:02:38Z</time>
      </trkpt>
      <trkpt lat="45.22789" lon="5.36415">
        <ele>433.3</ele>
        <time>2021-05-03T09:02:40Z</time>
      </trkpt>
      <trkpt lat="45.22788" lon="5.36415">
        <ele>433.3</ele>
        <time>2021-05-03T09:02:41Z</time>
      </trkpt>
      <trkpt lat="45.22784" lon="5.36412">
        <ele>433.5</ele>
        <time>2021-05-03T09:02:42Z</time>
      </trkpt>
      <trkpt lat="45.22783" lon="5.36412">
        <ele>433.6</ele>
        <time>2021-05-03T09:02:43Z</time>
      </trkpt>
      <trkpt lat="45.2278" lon="5.3641">
        <ele>433.8</ele>
        <time>2021-05-03T09:02:44Z</time>
      </trkpt>
      <trkpt lat="45.22774" lon="5.36407">
        <ele>434.2</ele>
        <time>2021-05-03T09:02:46Z</time>
      </trkpt>
      <trkpt lat="45.2277" lon="5.36405">
        <ele>434.4</ele>
        <time>2021-05-03T09:02:48Z</time>
      </trkpt>
      <trkpt lat="45.22766" lon="5.36402">
        <ele>434.6</ele>
        <time>2021-05-03T09:02:49Z</time>
      </trkpt>
      <trkpt lat="45.22764" lon="5.364">
        <ele>434.8</ele>
        <time>2021-05-03T09:02:50Z</time>
      </trkpt>
      <trkpt lat="45.22759" lon="5.36394">
        <ele>435.2</ele>
        <time>2021-05-03T09:02:52Z</time>
      </trkpt>
      <trkpt lat="45.22755" lon="5.36388">
        <ele>435.5</ele>
        <time>2021-05-03T09:02:54Z</time>
      </trkpt>
      <trkpt lat="45.22751" lon="5.36383">
        <ele>435.8</ele>
        <time>2021-05-03T09:02:56Z</time>
      </trkpt>
      <trkpt lat="45.22749" lon="5.36378">
        <ele>436.1</ele>
        <time>2021-05-03T09:02:58Z</time>
      </trkpt>
      <trkpt lat="45.22747" lon="5.36374">
        <ele>436.2</ele>
        <time>2021-05-03T09:02:59Z</time>
      </trkpt>
      <trkpt lat="45.22744" lon="5.36367">
        <ele>436.6</ele>
        <time>2021-05-03T09:03:01Z</time>
      </trkpt>
      <trkpt lat="45.22742" lon="5.36364">
        <ele>436.8</ele>
        <time>2021-05-03T09:03:02Z</time>
      </trkpt>
      <trkpt lat="45.2274" lon="5.36358">
        <ele>437.1</ele>
        <time>2021-05-03T09:03:04Z</time>
      </trkpt>
      <trkpt lat="45.22738" lon="5.36352">
        <ele>437.4</ele>
        <time>2021-05-03T09:03:06Z</time>
      </trkpt>
      <trkpt lat="45.22737" lon="5.3635">
        <ele>437.5</ele>
        <time>2021-05-03T09:03:07Z</time>
      </trkpt>
      <trkpt lat="45.22734" lon="5.36344">
        <ele>437.8</ele>
        <time>2021-05-03T09:03:09Z</time>
      </trkpt>
      <trkpt lat="45.22733" lon="5.3634">
        <ele>438</ele>
        <time>2021-05-03T09:03:10Z</time>
      </trkpt>
      <trkpt lat="45.2273" lon="5.36335">
        <ele>438.3</ele>
        <time>2021-05-03T09:03:11Z</time>
      </trkpt>
      <trkpt lat="45.22728" lon="5.3633">
        <ele>438.6</ele>
        <time>2021-05-03T09:03:13Z</time>
      </trkpt>
      <trkpt lat="45.22726" lon="5.36325">
        <ele>438.9</ele>
        <time>2021-05-03T09:03:15Z</time>
      </trkpt>
      <trkpt lat="45.22724" lon="5.36321">
        <ele>439.1</ele>
        <time>2021-05-03T09:03:16Z</time>
      </trkpt>
      <trkpt lat="45.22724" lon="5.36319">
        <ele>439.2</ele>
        <time>2021-05-03T09:03:17Z</time>
      </trkpt>
      <trkpt lat="45.22722" lon="5.36315">
        <ele>439.5</ele>
        <time>2021-05-03T09:03:18Z</time>
      </trkpt>
      <trkpt lat="45.22721" lon="5.36313">
        <ele>439.5</ele>
        <time>2021-05-03T09:03:19Z</time>
      </trkpt>
      <trkpt lat="45.2272" lon="5.36309">
        <ele>439.8</ele>
        <time>2021-05-03T09:03:20Z</time>
      </trkpt>
      <trkpt lat="45.22719" lon="5.36307">
        <ele>439.8</ele>
        <time>2021-05-03T09:03:21Z</time>
      </trkpt>
      <trkpt lat="45.22717" lon="5.363">
        <ele>439.9</ele>
        <time>2021-05-03T09:03:23Z</time>
      </trkpt>
      <trkpt lat="45.22714" lon="5.36291">
        <ele>440</ele>
        <time>2021-05-03T09:03:25Z</time>
      </trkpt>
      <trkpt lat="45.22712" lon="5.36285">
        <ele>440</ele>
        <time>2021-05-03T09:03:27Z</time>
      </trkpt>
      <trkpt lat="45.2271" lon="5.36276">
        <ele>440</ele>
        <time>2021-05-03T09:03:29Z</time>
      </trkpt>
      <trkpt lat="45.22708" lon="5.36267">
        <ele>440.1</ele>
        <time>2021-05-03T09:03:30Z</time>
      </trkpt>
      <trkpt lat="45.22708" lon="5.3626">
        <ele>440</ele>
        <time>2021-05-03T09:03:32Z</time>
      </trkpt>
      <trkpt lat="45.22711" lon="5.3625">
        <ele>440</ele>
        <time>2021-05-03T09:03:34Z</time>
      </trkpt>
      <trkpt lat="45.22713" lon="5.36243">
        <ele>439.9</ele>
        <time>2021-05-03T09:03:35Z</time>
      </trkpt>
      <trkpt lat="45.22723" lon="5.36232">
        <ele>439.7</ele>
        <time>2021-05-03T09:03:37Z</time>
      </trkpt>
      <trkpt lat="45.22727" lon="5.36228">
        <ele>439.5</ele>
        <time>2021-05-03T09:03:38Z</time>
      </trkpt>
      <trkpt lat="45.22732" lon="5.36224">
        <ele>439.4</ele>
        <time>2021-05-03T09:03:39Z</time>
      </trkpt>
      <trkpt lat="45.22737" lon="5.3622">
        <ele>439.3</ele>
        <time>2021-05-03T09:03:40Z</time>
      </trkpt>
      <trkpt lat="45.22742" lon="5.36218">
        <ele>439.1</ele>
        <time>2021-05-03T09:03:41Z</time>
      </trkpt>
      <trkpt lat="45.22747" lon="5.36217">
        <ele>438.9</ele>
        <time>2021-05-03T09:03:42Z</time>
      </trkpt>
      <trkpt lat="45.22753" lon="5.36217">
        <ele>438.8</ele>
        <time>2021-05-03T09:03:43Z</time>
      </trkpt>
      <trkpt lat="45.22759" lon="5.36218">
        <ele>438.6</ele>
        <time>2021-05-03T09:03:44Z</time>
      </trkpt>
      <trkpt lat="45.22764" lon="5.36218">
        <ele>438.4</ele>
        <time>2021-05-03T09:03:45Z</time>
      </trkpt>
      <trkpt lat="45.2277" lon="5.36218">
        <ele>438.2</ele>
        <time>2021-05-03T09:03:46Z</time>
      </trkpt>
      <trkpt lat="45.22776" lon="5.36218">
        <ele>438</ele>
        <time>2021-05-03T09:03:47Z</time>
      </trkpt>
      <trkpt lat="45.22781" lon="5.36216">
        <ele>437.9</ele>
        <time>2021-05-03T09:03:48Z</time>
      </trkpt>
      <trkpt lat="45.22786" lon="5.36212">
        <ele>437.7</ele>
        <time>2021-05-03T09:03:49Z</time>
      </trkpt>
      <trkpt lat="45.22791" lon="5.36206">
        <ele>437.5</ele>
        <time>2021-05-03T09:03:50Z</time>
      </trkpt>
      <trkpt lat="45.22795" lon="5.36199">
        <ele>437.3</ele>
        <time>2021-05-03T09:03:51Z</time>
      </trkpt>
      <trkpt lat="45.22797" lon="5.36191">
        <ele>437.1</ele>
        <time>2021-05-03T09:03:52Z</time>
      </trkpt>
      <trkpt lat="45.22799" lon="5.36182">
        <ele>437</ele>
        <time>2021-05-03T09:03:53Z</time>
      </trkpt>
      <trkpt lat="45.228" lon="5.36173">
        <ele>436.8</ele>
        <time>2021-05-03T09:03:54Z</time>
      </trkpt>
      <trkpt lat="45.228" lon="5.36164">
        <ele>436.6</ele>
        <time>2021-05-03T09:03:55Z</time>
      </trkpt>
      <trkpt lat="45.22801" lon="5.36155">
        <ele>436.4</ele>
        <time>2021-05-03T09:03:56Z</time>
      </trkpt>
      <trkpt lat="45.22801" lon="5.36145">
        <ele>436.1</ele>
        <time>2021-05-03T09:03:57Z</time>
      </trkpt>
      <trkpt lat="45.22799" lon="5.36135">
        <ele>435.9</ele>
        <time>2021-05-03T09:03:58Z</time>
      </trkpt>
      <trkpt lat="45.22797" lon="5.36126">
        <ele>435.7</ele>
        <time>2021-05-03T09:03:59Z</time>
      </trkpt>
      <trkpt lat="45.22794" lon="5.36117">
        <ele>435.4</ele>
        <time>2021-05-03T09:04:00Z</time>
      </trkpt>
      <trkpt lat="45.2279" lon="5.36108">
        <ele>435.1</ele>
        <time>2021-05-03T09:04:01Z</time>
      </trkpt>
      <trkpt lat="45.22787" lon="5.36099">
        <ele>434.9</ele>
        <time>2021-05-03T09:04:02Z</time>
      </trkpt>
      <trkpt lat="45.22784" lon="5.3609">
        <ele>434.6</ele>
        <time>2021-05-03T09:04:03Z</time>
      </trkpt>
      <trkpt lat="45.22781" lon="5.3608">
        <ele>434.3</ele>
        <time>2021-05-03T09:04:04Z</time>
      </trkpt>
      <trkpt lat="45.2278" lon="5.36069">
        <ele>433.9</ele>
        <time>2021-05-03T09:04:05Z</time>
      </trkpt>
      <trkpt lat="45.22781" lon="5.36057">
        <ele>433.6</ele>
        <time>2021-05-03T09:04:06Z</time>
      </trkpt>
      <trkpt lat="45.22782" lon="5.36046">
        <ele>433.2</ele>
        <time>2021-05-03T09:04:07Z</time>
      </trkpt>
      <trkpt lat="45.22783" lon="5.36034">
        <ele>432.8</ele>
        <time>2021-05-03T09:04:08Z</time>
      </trkpt>
      <trkpt lat="45.22784" lon="5.36022">
        <ele>432.4</ele>
        <time>2021-05-03T09:04:09Z</time>
      </trkpt>
      <trkpt lat="45.22784" lon="5.3601">
        <ele>432.1</ele>
        <time>2021-05-03T09:04:10Z</time>
      </trkpt>
      <trkpt lat="45.22785" lon="5.35998">
        <ele>431.7</ele>
        <time>2021-05-03T09:04:11Z</time>
      </trkpt>
      <trkpt lat="45.22785" lon="5.35986">
        <ele>431.5</ele>
        <time>2021-05-03T09:04:12Z</time>
      </trkpt>
      <trkpt lat="45.22786" lon="5.35974">
        <ele>431</ele>
        <time>2021-05-03T09:04:13Z</time>
      </trkpt>
      <trkpt lat="45.22788" lon="5.35962">
        <ele>430.5</ele>
        <time>2021-05-03T09:04:14Z</time>
      </trkpt>
      <trkpt lat="45.22792" lon="5.35952">
        <ele>430</ele>
        <time>2021-05-03T09:04:15Z</time>
      </trkpt>
      <trkpt lat="45.22798" lon="5.35942">
        <ele>429.4</ele>
        <time>2021-05-03T09:04:16Z</time>
      </trkpt>
      <trkpt lat="45.22806" lon="5.35935">
        <ele>428.8</ele>
        <time>2021-05-03T09:04:17Z</time>
      </trkpt>
      <trkpt lat="45.22815" lon="5.35931">
        <ele>428.2</ele>
        <time>2021-05-03T09:04:18Z</time>
      </trkpt>
      <trkpt lat="45.22825" lon="5.35931">
        <ele>427.5</ele>
        <time>2021-05-03T09:04:19Z</time>
      </trkpt>
      <trkpt lat="45.22834" lon="5.35932">
        <ele>427</ele>
        <time>2021-05-03T09:04:20Z</time>
      </trkpt>
      <trkpt lat="45.22843" lon="5.35933">
        <ele>426.4</ele>
        <time>2021-05-03T09:04:21Z</time>
      </trkpt>
      <trkpt lat="45.22852" lon="5.35934">
        <ele>425.8</ele>
        <time>2021-05-03T09:04:22Z</time>
      </trkpt>
      <trkpt lat="45.22861" lon="5.35935">
        <ele>425.2</ele>
        <time>2021-05-03T09:04:23Z</time>
      </trkpt>
      <trkpt lat="45.22871" lon="5.35935">
        <ele>424.5</ele>
        <time>2021-05-03T09:04:24Z</time>
      </trkpt>
      <trkpt lat="45.2288" lon="5.35936">
        <ele>423.9</ele>
        <time>2021-05-03T09:04:25Z</time>
      </trkpt>
      <trkpt lat="45.22888" lon="5.35936">
        <ele>423.3</ele>
        <time>2021-05-03T09:04:26Z</time>
      </trkpt>
      <trkpt lat="45.22897" lon="5.35937">
        <ele>422.7</ele>
        <time>2021-05-03T09:04:27Z</time>
      </trkpt>
      <trkpt lat="45.22906" lon="5.35936">
        <ele>422.1</ele>
        <time>2021-05-03T09:04:28Z</time>
      </trkpt>
      <trkpt lat="45.22914" lon="5.35932">
        <ele>421.4</ele>
        <time>2021-05-03T09:04:29Z</time>
      </trkpt>
      <trkpt lat="45.22921" lon="5.35926">
        <ele>420.8</ele>
        <time>2021-05-03T09:04:30Z</time>
      </trkpt>
      <trkpt lat="45.22928" lon="5.35918">
        <ele>420.1</ele>
        <time>2021-05-03T09:04:31Z</time>
      </trkpt>
      <trkpt lat="45.22935" lon="5.35909">
        <ele>419.4</ele>
        <time>2021-05-03T09:04:32Z</time>
      </trkpt>
      <trkpt lat="45.22942" lon="5.359">
        <ele>418.7</ele>
        <time>2021-05-03T09:04:33Z</time>
      </trkpt>
      <trkpt lat="45.22949" lon="5.35889">
        <ele>417.9</ele>
        <time>2021-05-03T09:04:34Z</time>
      </trkpt>
      <trkpt lat="45.22954" lon="5.35877">
        <ele>417.1</ele>
        <time>2021-05-03T09:04:35Z</time>
      </trkpt>
      <trkpt lat="45.22957" lon="5.35864">
        <ele>416.5</ele>
        <time>2021-05-03T09:04:36Z</time>
      </trkpt>
      <trkpt lat="45.22958" lon="5.35849">
        <ele>415.7</ele>
        <time>2021-05-03T09:04:37Z</time>
      </trkpt>
      <trkpt lat="45.22955" lon="5.35835">
        <ele>414.9</ele>
        <time>2021-05-03T09:04:38Z</time>
      </trkpt>
      <trkpt lat="45.22951" lon="5.35821">
        <ele>414</ele>
        <time>2021-05-03T09:04:39Z</time>
      </trkpt>
      <trkpt lat="45.22948" lon="5.35806">
        <ele>413.1</ele>
        <time>2021-05-03T09:04:40Z</time>
      </trkpt>
      <trkpt lat="45.22945" lon="5.35791">
        <ele>412.1</ele>
        <time>2021-05-03T09:04:41Z</time>
      </trkpt>
      <trkpt lat="45.22942" lon="5.35776">
        <ele>411.2</ele>
        <time>2021-05-03T09:04:42Z</time>
      </trkpt>
      <trkpt lat="45.22939" lon="5.35761">
        <ele>410.3</ele>
        <time>2021-05-03T09:04:43Z</time>
      </trkpt>
      <trkpt lat="45.22936" lon="5.35746">
        <ele>409.4</ele>
        <time>2021-05-03T09:04:44Z</time>
      </trkpt>
      <trkpt lat="45.22932" lon="5.35731">
        <ele>408.5</ele>
        <time>2021-05-03T09:04:45Z</time>
      </trkpt>
      <trkpt lat="45.22929" lon="5.35716">
        <ele>407.8</ele>
        <time>2021-05-03T09:04:46Z</time>
      </trkpt>
      <trkpt lat="45.22925" lon="5.35701">
        <ele>407.2</ele>
        <time>2021-05-03T09:04:47Z</time>
      </trkpt>
      <trkpt lat="45.22921" lon="5.35685">
        <ele>406.8</ele>
        <time>2021-05-03T09:04:48Z</time>
      </trkpt>
      <trkpt lat="45.22916" lon="5.35671">
        <ele>406.6</ele>
        <time>2021-05-03T09:04:49Z</time>
      </trkpt>
      <trkpt lat="45.2291" lon="5.3566">
        <ele>406.5</ele>
        <time>2021-05-03T09:04:50Z</time>
      </trkpt>
      <trkpt lat="45.22901" lon="5.35652">
        <ele>406.5</ele>
        <time>2021-05-03T09:04:51Z</time>
      </trkpt>
      <trkpt lat="45.22892" lon="5.35647">
        <ele>406.7</ele>
        <time>2021-05-03T09:04:52Z</time>
      </trkpt>
      <trkpt lat="45.22882" lon="5.35645">
        <ele>407</ele>
        <time>2021-05-03T09:04:53Z</time>
      </trkpt>
      <trkpt lat="45.22873" lon="5.35644">
        <ele>407.4</ele>
        <time>2021-05-03T09:04:54Z</time>
      </trkpt>
      <trkpt lat="45.22865" lon="5.35643">
        <ele>407.9</ele>
        <time>2021-05-03T09:04:55Z</time>
      </trkpt>
      <trkpt lat="45.22858" lon="5.35641">
        <ele>408.4</ele>
        <time>2021-05-03T09:04:56Z</time>
      </trkpt>
      <trkpt lat="45.2285" lon="5.35639">
        <ele>409</ele>
        <time>2021-05-03T09:04:57Z</time>
      </trkpt>
      <trkpt lat="45.22844" lon="5.35637">
        <ele>409.6</ele>
        <time>2021-05-03T09:04:58Z</time>
      </trkpt>
      <trkpt lat="45.22837" lon="5.35635">
        <ele>410.1</ele>
        <time>2021-05-03T09:04:59Z</time>
      </trkpt>
      <trkpt lat="45.22831" lon="5.35634">
        <ele>410.5</ele>
        <time>2021-05-03T09:05:00Z</time>
      </trkpt>
      <trkpt lat="45.22827" lon="5.35632">
        <ele>410.8</ele>
        <time>2021-05-03T09:05:01Z</time>
      </trkpt>
      <trkpt lat="45.22824" lon="5.35627">
        <ele>411.1</ele>
        <time>2021-05-03T09:05:02Z</time>
      </trkpt>
      <trkpt lat="45.22821" lon="5.35621">
        <ele>411.5</ele>
        <time>2021-05-03T09:05:03Z</time>
      </trkpt>
      <trkpt lat="45.22818" lon="5.35615">
        <ele>411.8</ele>
        <time>2021-05-03T09:05:04Z</time>
      </trkpt>
      <trkpt lat="45.22815" lon="5.35609">
        <ele>412.1</ele>
        <time>2021-05-03T09:05:05Z</time>
      </trkpt>
      <trkpt lat="45.22814" lon="5.35605">
        <ele>412.4</ele>
        <time>2021-05-03T09:05:06Z</time>
      </trkpt>
      <trkpt lat="45.22811" lon="5.356">
        <ele>412.6</ele>
        <time>2021-05-03T09:05:07Z</time>
      </trkpt>
      <trkpt lat="45.2281" lon="5.35596">
        <ele>412.8</ele>
        <time>2021-05-03T09:05:08Z</time>
      </trkpt>
      <trkpt lat="45.22808" lon="5.3559">
        <ele>413.1</ele>
        <time>2021-05-03T09:05:09Z</time>
      </trkpt>
      <trkpt lat="45.22807" lon="5.35584">
        <ele>413.4</ele>
        <time>2021-05-03T09:05:10Z</time>
      </trkpt>
      <trkpt lat="45.22806" lon="5.35578">
        <ele>413.6</ele>
        <time>2021-05-03T09:05:11Z</time>
      </trkpt>
      <trkpt lat="45.22807" lon="5.35573">
        <ele>413.8</ele>
        <time>2021-05-03T09:05:12Z</time>
      </trkpt>
      <trkpt lat="45.22807" lon="5.35564">
        <ele>414.1</ele>
        <time>2021-05-03T09:05:13Z</time>
      </trkpt>
      <trkpt lat="45.22807" lon="5.35559">
        <ele>414.4</ele>
        <time>2021-05-03T09:05:15Z</time>
      </trkpt>
      <trkpt lat="45.22811" lon="5.35544">
        <ele>415</ele>
        <time>2021-05-03T09:05:17Z</time>
      </trkpt>
      <trkpt lat="45.22814" lon="5.3553">
        <ele>415.5</ele>
        <time>2021-05-03T09:05:19Z</time>
      </trkpt>
      <trkpt lat="45.22815" lon="5.35522">
        <ele>415.8</ele>
        <time>2021-05-03T09:05:20Z</time>
      </trkpt>
      <trkpt lat="45.22816" lon="5.35511">
        <ele>416.3</ele>
        <time>2021-05-03T09:05:21Z</time>
      </trkpt>
      <trkpt lat="45.22817" lon="5.35503">
        <ele>416.6</ele>
        <time>2021-05-03T09:05:23Z</time>
      </trkpt>
      <trkpt lat="45.22819" lon="5.35493">
        <ele>417</ele>
        <time>2021-05-03T09:05:25Z</time>
      </trkpt>
      <trkpt lat="45.2282" lon="5.35485">
        <ele>417.3</ele>
        <time>2021-05-03T09:05:26Z</time>
      </trkpt>
      <trkpt lat="45.22821" lon="5.3548">
        <ele>417.5</ele>
        <time>2021-05-03T09:05:27Z</time>
      </trkpt>
      <trkpt lat="45.22822" lon="5.35468">
        <ele>417.9</ele>
        <time>2021-05-03T09:05:29Z</time>
      </trkpt>
      <trkpt lat="45.22822" lon="5.35462">
        <ele>418.1</ele>
        <time>2021-05-03T09:05:30Z</time>
      </trkpt>
      <trkpt lat="45.22824" lon="5.35454">
        <ele>418.5</ele>
        <time>2021-05-03T09:05:31Z</time>
      </trkpt>
      <trkpt lat="45.22826" lon="5.35448">
        <ele>418.7</ele>
        <time>2021-05-03T09:05:32Z</time>
      </trkpt>
      <trkpt lat="45.22828" lon="5.35443">
        <ele>418.9</ele>
        <time>2021-05-03T09:05:34Z</time>
      </trkpt>
      <trkpt lat="45.22829" lon="5.35438">
        <ele>419.1</ele>
        <time>2021-05-03T09:05:35Z</time>
      </trkpt>
      <trkpt lat="45.22833" lon="5.3543">
        <ele>419.4</ele>
        <time>2021-05-03T09:05:37Z</time>
      </trkpt>
      <trkpt lat="45.22836" lon="5.35425">
        <ele>419.6</ele>
        <time>2021-05-03T09:05:38Z</time>
      </trkpt>
      <trkpt lat="45.22838" lon="5.3542">
        <ele>419.8</ele>
        <time>2021-05-03T09:05:39Z</time>
      </trkpt>
      <trkpt lat="45.22841" lon="5.35413">
        <ele>420.1</ele>
        <time>2021-05-03T09:05:40Z</time>
      </trkpt>
      <trkpt lat="45.22844" lon="5.35408">
        <ele>420.3</ele>
        <time>2021-05-03T09:05:42Z</time>
      </trkpt>
      <trkpt lat="45.22847" lon="5.35398">
        <ele>420.6</ele>
        <time>2021-05-03T09:05:44Z</time>
      </trkpt>
      <trkpt lat="45.2285" lon="5.35391">
        <ele>420.9</ele>
        <time>2021-05-03T09:05:46Z</time>
      </trkpt>
      <trkpt lat="45.22852" lon="5.35386">
        <ele>421</ele>
        <time>2021-05-03T09:05:47Z</time>
      </trkpt>
      <trkpt lat="45.22855" lon="5.35379">
        <ele>421.3</ele>
        <time>2021-05-03T09:05:49Z</time>
      </trkpt>
      <trkpt lat="45.22859" lon="5.35372">
        <ele>421.5</ele>
        <time>2021-05-03T09:05:50Z</time>
      </trkpt>
      <trkpt lat="45.22862" lon="5.35366">
        <ele>421.7</ele>
        <time>2021-05-03T09:05:52Z</time>
      </trkpt>
      <trkpt lat="45.22865" lon="5.35359">
        <ele>421.9</ele>
        <time>2021-05-03T09:05:54Z</time>
      </trkpt>
      <trkpt lat="45.22866" lon="5.35355">
        <ele>422</ele>
        <time>2021-05-03T09:05:55Z</time>
      </trkpt>
      <trkpt lat="45.2287" lon="5.35346">
        <ele>422.3</ele>
        <time>2021-05-03T09:05:57Z</time>
      </trkpt>
      <trkpt lat="45.22873" lon="5.3534">
        <ele>422.5</ele>
        <time>2021-05-03T09:05:59Z</time>
      </trkpt>
      <trkpt lat="45.22874" lon="5.35335">
        <ele>422.7</ele>
        <time>2021-05-03T09:06:00Z</time>
      </trkpt>
      <trkpt lat="45.22878" lon="5.35327">
        <ele>422.9</ele>
        <time>2021-05-03T09:06:02Z</time>
      </trkpt>
      <trkpt lat="45.22882" lon="5.35318">
        <ele>423.2</ele>
        <time>2021-05-03T09:06:04Z</time>
      </trkpt>
      <trkpt lat="45.22883" lon="5.35314">
        <ele>423.4</ele>
        <time>2021-05-03T09:06:05Z</time>
      </trkpt>
      <trkpt lat="45.22887" lon="5.35303">
        <ele>423.7</ele>
        <time>2021-05-03T09:06:07Z</time>
      </trkpt>
      <trkpt lat="45.2289" lon="5.35294">
        <ele>423.9</ele>
        <time>2021-05-03T09:06:08Z</time>
      </trkpt>
      <trkpt lat="45.22893" lon="5.35287">
        <ele>424.2</ele>
        <time>2021-05-03T09:06:10Z</time>
      </trkpt>
      <trkpt lat="45.22896" lon="5.35278">
        <ele>424.4</ele>
        <time>2021-05-03T09:06:12Z</time>
      </trkpt>
      <trkpt lat="45.22899" lon="5.35268">
        <ele>424.7</ele>
        <time>2021-05-03T09:06:14Z</time>
      </trkpt>
      <trkpt lat="45.22903" lon="5.3526">
        <ele>425</ele>
        <time>2021-05-03T09:06:16Z</time>
      </trkpt>
      <trkpt lat="45.22905" lon="5.35254">
        <ele>425.2</ele>
        <time>2021-05-03T09:06:17Z</time>
      </trkpt>
      <trkpt lat="45.22907" lon="5.35249">
        <ele>425.3</ele>
        <time>2021-05-03T09:06:18Z</time>
      </trkpt>
      <trkpt lat="45.2291" lon="5.35241">
        <ele>425.5</ele>
        <time>2021-05-03T09:06:20Z</time>
      </trkpt>
      <trkpt lat="45.22911" lon="5.35237">
        <ele>425.6</ele>
        <time>2021-05-03T09:06:21Z</time>
      </trkpt>
      <trkpt lat="45.22914" lon="5.3523">
        <ele>425.8</ele>
        <time>2021-05-03T09:06:23Z</time>
      </trkpt>
      <trkpt lat="45.22916" lon="5.35224">
        <ele>425.9</ele>
        <time>2021-05-03T09:06:24Z</time>
      </trkpt>
      <trkpt lat="45.22919" lon="5.35217">
        <ele>426</ele>
        <time>2021-05-03T09:06:25Z</time>
      </trkpt>
      <trkpt lat="45.22921" lon="5.3521">
        <ele>426.2</ele>
        <time>2021-05-03T09:06:27Z</time>
      </trkpt>
      <trkpt lat="45.22923" lon="5.35205">
        <ele>426.2</ele>
        <time>2021-05-03T09:06:28Z</time>
      </trkpt>
      <trkpt lat="45.22924" lon="5.352">
        <ele>426.3</ele>
        <time>2021-05-03T09:06:29Z</time>
      </trkpt>
      <trkpt lat="45.22926" lon="5.35188">
        <ele>426.4</ele>
        <time>2021-05-03T09:06:31Z</time>
      </trkpt>
      <trkpt lat="45.22927" lon="5.3518">
        <ele>426.5</ele>
        <time>2021-05-03T09:06:32Z</time>
      </trkpt>
      <trkpt lat="45.22928" lon="5.35173">
        <ele>426.6</ele>
        <time>2021-05-03T09:06:34Z</time>
      </trkpt>
      <trkpt lat="45.22928" lon="5.35158">
        <ele>426.7</ele>
        <time>2021-05-03T09:06:36Z</time>
      </trkpt>
      <trkpt lat="45.22927" lon="5.35147">
        <ele>426.8</ele>
        <time>2021-05-03T09:06:38Z</time>
      </trkpt>
      <trkpt lat="45.22926" lon="5.35141">
        <ele>426.9</ele>
        <time>2021-05-03T09:06:39Z</time>
      </trkpt>
      <trkpt lat="45.22926" lon="5.35133">
        <ele>426.9</ele>
        <time>2021-05-03T09:06:40Z</time>
      </trkpt>
      <trkpt lat="45.22924" lon="5.35122">
        <ele>427</ele>
        <time>2021-05-03T09:06:42Z</time>
      </trkpt>
      <trkpt lat="45.22923" lon="5.3511">
        <ele>427.1</ele>
        <time>2021-05-03T09:06:44Z</time>
      </trkpt>
      <trkpt lat="45.22921" lon="5.35098">
        <ele>427.2</ele>
        <time>2021-05-03T09:06:46Z</time>
      </trkpt>
      <trkpt lat="45.22921" lon="5.35091">
        <ele>427.3</ele>
        <time>2021-05-03T09:06:47Z</time>
      </trkpt>
      <trkpt lat="45.22921" lon="5.35085">
        <ele>427.4</ele>
        <time>2021-05-03T09:06:48Z</time>
      </trkpt>
      <trkpt lat="45.22921" lon="5.35079">
        <ele>427.5</ele>
        <time>2021-05-03T09:06:49Z</time>
      </trkpt>
      <trkpt lat="45.22921" lon="5.35072">
        <ele>427.5</ele>
        <time>2021-05-03T09:06:50Z</time>
      </trkpt>
      <trkpt lat="45.22922" lon="5.35066">
        <ele>427.6</ele>
        <time>2021-05-03T09:06:51Z</time>
      </trkpt>
      <trkpt lat="45.22923" lon="5.35059">
        <ele>427.7</ele>
        <time>2021-05-03T09:06:52Z</time>
      </trkpt>
      <trkpt lat="45.22924" lon="5.35053">
        <ele>427.7</ele>
        <time>2021-05-03T09:06:53Z</time>
      </trkpt>
      <trkpt lat="45.22925" lon="5.35046">
        <ele>427.8</ele>
        <time>2021-05-03T09:06:54Z</time>
      </trkpt>
      <trkpt lat="45.22926" lon="5.3504">
        <ele>427.8</ele>
        <time>2021-05-03T09:06:55Z</time>
      </trkpt>
      <trkpt lat="45.22928" lon="5.35034">
        <ele>427.9</ele>
        <time>2021-05-03T09:06:56Z</time>
      </trkpt>
      <trkpt lat="45.22929" lon="5.35028">
        <ele>428</ele>
        <time>2021-05-03T09:06:57Z</time>
      </trkpt>
      <trkpt lat="45.22931" lon="5.35022">
        <ele>428</ele>
        <time>2021-05-03T09:06:58Z</time>
      </trkpt>
      <trkpt lat="45.22934" lon="5.35016">
        <ele>428</ele>
        <time>2021-05-03T09:06:59Z</time>
      </trkpt>
      <trkpt lat="45.22936" lon="5.3501">
        <ele>428.1</ele>
        <time>2021-05-03T09:07:00Z</time>
      </trkpt>
      <trkpt lat="45.22939" lon="5.35004">
        <ele>428.1</ele>
        <time>2021-05-03T09:07:01Z</time>
      </trkpt>
      <trkpt lat="45.22942" lon="5.34998">
        <ele>428.1</ele>
        <time>2021-05-03T09:07:02Z</time>
      </trkpt>
      <trkpt lat="45.22944" lon="5.34992">
        <ele>428.1</ele>
        <time>2021-05-03T09:07:03Z</time>
      </trkpt>
      <trkpt lat="45.22947" lon="5.34986">
        <ele>428.2</ele>
        <time>2021-05-03T09:07:04Z</time>
      </trkpt>
      <trkpt lat="45.2295" lon="5.3498">
        <ele>428.2</ele>
        <time>2021-05-03T09:07:05Z</time>
      </trkpt>
      <trkpt lat="45.22953" lon="5.34974">
        <ele>428.2</ele>
        <time>2021-05-03T09:07:06Z</time>
      </trkpt>
      <trkpt lat="45.22956" lon="5.34968">
        <ele>428.2</ele>
        <time>2021-05-03T09:07:07Z</time>
      </trkpt>
      <trkpt lat="45.22958" lon="5.34962">
        <ele>428.2</ele>
        <time>2021-05-03T09:07:08Z</time>
      </trkpt>
      <trkpt lat="45.22961" lon="5.34956">
        <ele>428.3</ele>
        <time>2021-05-03T09:07:09Z</time>
      </trkpt>
      <trkpt lat="45.22963" lon="5.3495">
        <ele>428.3</ele>
        <time>2021-05-03T09:07:10Z</time>
      </trkpt>
      <trkpt lat="45.22965" lon="5.34943">
        <ele>428.3</ele>
        <time>2021-05-03T09:07:11Z</time>
      </trkpt>
      <trkpt lat="45.22967" lon="5.34937">
        <ele>428.3</ele>
        <time>2021-05-03T09:07:12Z</time>
      </trkpt>
      <trkpt lat="45.22968" lon="5.3493">
        <ele>428.3</ele>
        <time>2021-05-03T09:07:13Z</time>
      </trkpt>
      <trkpt lat="45.22969" lon="5.34923">
        <ele>428.3</ele>
        <time>2021-05-03T09:07:14Z</time>
      </trkpt>
      <trkpt lat="45.2297" lon="5.34916">
        <ele>428.2</ele>
        <time>2021-05-03T09:07:15Z</time>
      </trkpt>
      <trkpt lat="45.2297" lon="5.34908">
        <ele>428.2</ele>
        <time>2021-05-03T09:07:16Z</time>
      </trkpt>
      <trkpt lat="45.2297" lon="5.349">
        <ele>428.1</ele>
        <time>2021-05-03T09:07:17Z</time>
      </trkpt>
      <trkpt lat="45.2297" lon="5.34892">
        <ele>428.1</ele>
        <time>2021-05-03T09:07:18Z</time>
      </trkpt>
      <trkpt lat="45.22969" lon="5.34885">
        <ele>428</ele>
        <time>2021-05-03T09:07:19Z</time>
      </trkpt>
      <trkpt lat="45.22969" lon="5.34877">
        <ele>428</ele>
        <time>2021-05-03T09:07:20Z</time>
      </trkpt>
      <trkpt lat="45.22968" lon="5.34869">
        <ele>427.9</ele>
        <time>2021-05-03T09:07:21Z</time>
      </trkpt>
      <trkpt lat="45.22967" lon="5.34861">
        <ele>427.9</ele>
        <time>2021-05-03T09:07:22Z</time>
      </trkpt>
      <trkpt lat="45.22966" lon="5.34853">
        <ele>427.8</ele>
        <time>2021-05-03T09:07:23Z</time>
      </trkpt>
      <trkpt lat="45.22964" lon="5.34845">
        <ele>427.8</ele>
        <time>2021-05-03T09:07:24Z</time>
      </trkpt>
      <trkpt lat="45.22963" lon="5.34838">
        <ele>427.8</ele>
        <time>2021-05-03T09:07:25Z</time>
      </trkpt>
      <trkpt lat="45.22961" lon="5.3483">
        <ele>427.7</ele>
        <time>2021-05-03T09:07:26Z</time>
      </trkpt>
      <trkpt lat="45.22959" lon="5.34822">
        <ele>427.7</ele>
        <time>2021-05-03T09:07:27Z</time>
      </trkpt>
      <trkpt lat="45.22957" lon="5.34815">
        <ele>427.7</ele>
        <time>2021-05-03T09:07:28Z</time>
      </trkpt>
      <trkpt lat="45.22955" lon="5.34807">
        <ele>427.7</ele>
        <time>2021-05-03T09:07:29Z</time>
      </trkpt>
      <trkpt lat="45.22953" lon="5.348">
        <ele>427.6</ele>
        <time>2021-05-03T09:07:30Z</time>
      </trkpt>
      <trkpt lat="45.22951" lon="5.34792">
        <ele>427.6</ele>
        <time>2021-05-03T09:07:31Z</time>
      </trkpt>
      <trkpt lat="45.22949" lon="5.34784">
        <ele>427.5</ele>
        <time>2021-05-03T09:07:32Z</time>
      </trkpt>
      <trkpt lat="45.22947" lon="5.34777">
        <ele>427.5</ele>
        <time>2021-05-03T09:07:33Z</time>
      </trkpt>
      <trkpt lat="45.22945" lon="5.34769">
        <ele>427.3</ele>
        <time>2021-05-03T09:07:34Z</time>
      </trkpt>
      <trkpt lat="45.22943" lon="5.34761">
        <ele>427.2</ele>
        <time>2021-05-03T09:07:35Z</time>
      </trkpt>
      <trkpt lat="45.2294" lon="5.34753">
        <ele>426.9</ele>
        <time>2021-05-03T09:07:36Z</time>
      </trkpt>
      <trkpt lat="45.22938" lon="5.34744">
        <ele>426.6</ele>
        <time>2021-05-03T09:07:37Z</time>
      </trkpt>
      <trkpt lat="45.22936" lon="5.34735">
        <ele>426.3</ele>
        <time>2021-05-03T09:07:38Z</time>
      </trkpt>
      <trkpt lat="45.22934" lon="5.34726">
        <ele>426</ele>
        <time>2021-05-03T09:07:39Z</time>
      </trkpt>
      <trkpt lat="45.22933" lon="5.34716">
        <ele>425.6</ele>
        <time>2021-05-03T09:07:40Z</time>
      </trkpt>
      <trkpt lat="45.22933" lon="5.34706">
        <ele>425.2</ele>
        <time>2021-05-03T09:07:41Z</time>
      </trkpt>
      <trkpt lat="45.22933" lon="5.34695">
        <ele>424.8</ele>
        <time>2021-05-03T09:07:42Z</time>
      </trkpt>
      <trkpt lat="45.22934" lon="5.34684">
        <ele>424.5</ele>
        <time>2021-05-03T09:07:43Z</time>
      </trkpt>
      <trkpt lat="45.22936" lon="5.34673">
        <ele>424.3</ele>
        <time>2021-05-03T09:07:44Z</time>
      </trkpt>
      <trkpt lat="45.22937" lon="5.34662">
        <ele>424</ele>
        <time>2021-05-03T09:07:45Z</time>
      </trkpt>
      <trkpt lat="45.22938" lon="5.34651">
        <ele>423.7</ele>
        <time>2021-05-03T09:07:46Z</time>
      </trkpt>
      <trkpt lat="45.22939" lon="5.34639">
        <ele>423.3</ele>
        <time>2021-05-03T09:07:47Z</time>
      </trkpt>
      <trkpt lat="45.2294" lon="5.34626">
        <ele>422.7</ele>
        <time>2021-05-03T09:07:48Z</time>
      </trkpt>
      <trkpt lat="45.22941" lon="5.34614">
        <ele>422.2</ele>
        <time>2021-05-03T09:07:49Z</time>
      </trkpt>
      <trkpt lat="45.22941" lon="5.34601">
        <ele>421.6</ele>
        <time>2021-05-03T09:07:50Z</time>
      </trkpt>
      <trkpt lat="45.22941" lon="5.34588">
        <ele>421</ele>
        <time>2021-05-03T09:07:51Z</time>
      </trkpt>
      <trkpt lat="45.22941" lon="5.34576">
        <ele>420.4</ele>
        <time>2021-05-03T09:07:52Z</time>
      </trkpt>
      <trkpt lat="45.2294" lon="5.34564">
        <ele>419.8</ele>
        <time>2021-05-03T09:07:53Z</time>
      </trkpt>
      <trkpt lat="45.2294" lon="5.34551">
        <ele>419.2</ele>
        <time>2021-05-03T09:07:54Z</time>
      </trkpt>
      <trkpt lat="45.22941" lon="5.34539">
        <ele>418.6</ele>
        <time>2021-05-03T09:07:55Z</time>
      </trkpt>
      <trkpt lat="45.22945" lon="5.34527">
        <ele>417.9</ele>
        <time>2021-05-03T09:07:56Z</time>
      </trkpt>
      <trkpt lat="45.2295" lon="5.34517">
        <ele>417.3</ele>
        <time>2021-05-03T09:07:57Z</time>
      </trkpt>
      <trkpt lat="45.22956" lon="5.34508">
        <ele>416.7</ele>
        <time>2021-05-03T09:07:58Z</time>
      </trkpt>
      <trkpt lat="45.22963" lon="5.34501">
        <ele>416.2</ele>
        <time>2021-05-03T09:07:59Z</time>
      </trkpt>
      <trkpt lat="45.2297" lon="5.34494">
        <ele>415.8</ele>
        <time>2021-05-03T09:08:00Z</time>
      </trkpt>
      <trkpt lat="45.22977" lon="5.34486">
        <ele>415.3</ele>
        <time>2021-05-03T09:08:01Z</time>
      </trkpt>
      <trkpt lat="45.22983" lon="5.34478">
        <ele>414.9</ele>
        <time>2021-05-03T09:08:02Z</time>
      </trkpt>
      <trkpt lat="45.2299" lon="5.3447">
        <ele>414.6</ele>
        <time>2021-05-03T09:08:03Z</time>
      </trkpt>
      <trkpt lat="45.22996" lon="5.34462">
        <ele>414.2</ele>
        <time>2021-05-03T09:08:04Z</time>
      </trkpt>
      <trkpt lat="45.23003" lon="5.34454">
        <ele>413.9</ele>
        <time>2021-05-03T09:08:05Z</time>
      </trkpt>
      <trkpt lat="45.23009" lon="5.34446">
        <ele>413.5</ele>
        <time>2021-05-03T09:08:06Z</time>
      </trkpt>
      <trkpt lat="45.23016" lon="5.34439">
        <ele>413.1</ele>
        <time>2021-05-03T09:08:07Z</time>
      </trkpt>
      <trkpt lat="45.23022" lon="5.3443">
        <ele>412.9</ele>
        <time>2021-05-03T09:08:08Z</time>
      </trkpt>
      <trkpt lat="45.23028" lon="5.34423">
        <ele>412.7</ele>
        <time>2021-05-03T09:08:09Z</time>
      </trkpt>
      <trkpt lat="45.23035" lon="5.34415">
        <ele>412.6</ele>
        <time>2021-05-03T09:08:10Z</time>
      </trkpt>
      <trkpt lat="45.23041" lon="5.34407">
        <ele>412.6</ele>
        <time>2021-05-03T09:08:11Z</time>
      </trkpt>
      <trkpt lat="45.23047" lon="5.34399">
        <ele>412.7</ele>
        <time>2021-05-03T09:08:12Z</time>
      </trkpt>
      <trkpt lat="45.23053" lon="5.34393">
        <ele>412.7</ele>
        <time>2021-05-03T09:08:13Z</time>
      </trkpt>
      <trkpt lat="45.23058" lon="5.34386">
        <ele>412.8</ele>
        <time>2021-05-03T09:08:14Z</time>
      </trkpt>
      <trkpt lat="45.23063" lon="5.34379">
        <ele>412.9</ele>
        <time>2021-05-03T09:08:15Z</time>
      </trkpt>
      <trkpt lat="45.23067" lon="5.34373">
        <ele>413</ele>
        <time>2021-05-03T09:08:16Z</time>
      </trkpt>
      <trkpt lat="45.23071" lon="5.34368">
        <ele>413.1</ele>
        <time>2021-05-03T09:08:17Z</time>
      </trkpt>
      <trkpt lat="45.23077" lon="5.34364">
        <ele>413.3</ele>
        <time>2021-05-03T09:08:18Z</time>
      </trkpt>
      <trkpt lat="45.23082" lon="5.3436">
        <ele>413.4</ele>
        <time>2021-05-03T09:08:19Z</time>
      </trkpt>
      <trkpt lat="45.23088" lon="5.34356">
        <ele>413.4</ele>
        <time>2021-05-03T09:08:20Z</time>
      </trkpt>
      <trkpt lat="45.23094" lon="5.34353">
        <ele>413.5</ele>
        <time>2021-05-03T09:08:21Z</time>
      </trkpt>
      <trkpt lat="45.23099" lon="5.34349">
        <ele>413.5</ele>
        <time>2021-05-03T09:08:22Z</time>
      </trkpt>
      <trkpt lat="45.23105" lon="5.34344">
        <ele>413.5</ele>
        <time>2021-05-03T09:08:23Z</time>
      </trkpt>
      <trkpt lat="45.23112" lon="5.3434">
        <ele>413.5</ele>
        <time>2021-05-03T09:08:24Z</time>
      </trkpt>
      <trkpt lat="45.23118" lon="5.34337">
        <ele>413.5</ele>
        <time>2021-05-03T09:08:25Z</time>
      </trkpt>
      <trkpt lat="45.23125" lon="5.34334">
        <ele>413.5</ele>
        <time>2021-05-03T09:08:26Z</time>
      </trkpt>
      <trkpt lat="45.23131" lon="5.34331">
        <ele>413.5</ele>
        <time>2021-05-03T09:08:27Z</time>
      </trkpt>
      <trkpt lat="45.23137" lon="5.34328">
        <ele>413.5</ele>
        <time>2021-05-03T09:08:28Z</time>
      </trkpt>
      <trkpt lat="45.23143" lon="5.34325">
        <ele>413.6</ele>
        <time>2021-05-03T09:08:29Z</time>
      </trkpt>
      <trkpt lat="45.2315" lon="5.34323">
        <ele>413.6</ele>
        <time>2021-05-03T09:08:30Z</time>
      </trkpt>
      <trkpt lat="45.23156" lon="5.3432">
        <ele>413.7</ele>
        <time>2021-05-03T09:08:31Z</time>
      </trkpt>
      <trkpt lat="45.23162" lon="5.34317">
        <ele>413.8</ele>
        <time>2021-05-03T09:08:32Z</time>
      </trkpt>
      <trkpt lat="45.23168" lon="5.34314">
        <ele>413.8</ele>
        <time>2021-05-03T09:08:33Z</time>
      </trkpt>
      <trkpt lat="45.23173" lon="5.34311">
        <ele>413.9</ele>
        <time>2021-05-03T09:08:34Z</time>
      </trkpt>
      <trkpt lat="45.23178" lon="5.34308">
        <ele>414</ele>
        <time>2021-05-03T09:08:35Z</time>
      </trkpt>
      <trkpt lat="45.23183" lon="5.34305">
        <ele>414.1</ele>
        <time>2021-05-03T09:08:36Z</time>
      </trkpt>
      <trkpt lat="45.23188" lon="5.34302">
        <ele>414.2</ele>
        <time>2021-05-03T09:08:37Z</time>
      </trkpt>
      <trkpt lat="45.23192" lon="5.34299">
        <ele>414.2</ele>
        <time>2021-05-03T09:08:38Z</time>
      </trkpt>
      <trkpt lat="45.23196" lon="5.34295">
        <ele>414.3</ele>
        <time>2021-05-03T09:08:39Z</time>
      </trkpt>
      <trkpt lat="45.232" lon="5.34292">
        <ele>414.4</ele>
        <time>2021-05-03T09:08:40Z</time>
      </trkpt>
      <trkpt lat="45.23205" lon="5.34287">
        <ele>414.5</ele>
        <time>2021-05-03T09:08:41Z</time>
      </trkpt>
      <trkpt lat="45.2321" lon="5.34283">
        <ele>414.5</ele>
        <time>2021-05-03T09:08:42Z</time>
      </trkpt>
      <trkpt lat="45.23214" lon="5.34279">
        <ele>414.6</ele>
        <time>2021-05-03T09:08:43Z</time>
      </trkpt>
      <trkpt lat="45.23218" lon="5.34274">
        <ele>414.6</ele>
        <time>2021-05-03T09:08:44Z</time>
      </trkpt>
      <trkpt lat="45.23221" lon="5.34267">
        <ele>414.7</ele>
        <time>2021-05-03T09:08:45Z</time>
      </trkpt>
      <trkpt lat="45.23222" lon="5.34261">
        <ele>414.8</ele>
        <time>2021-05-03T09:08:46Z</time>
      </trkpt>
      <trkpt lat="45.23223" lon="5.34255">
        <ele>414.8</ele>
        <time>2021-05-03T09:08:47Z</time>
      </trkpt>
      <trkpt lat="45.23223" lon="5.34247">
        <ele>414.9</ele>
        <time>2021-05-03T09:08:48Z</time>
      </trkpt>
      <trkpt lat="45.23224" lon="5.3424">
        <ele>415</ele>
        <time>2021-05-03T09:08:49Z</time>
      </trkpt>
      <trkpt lat="45.23223" lon="5.34235">
        <ele>415</ele>
        <time>2021-05-03T09:08:50Z</time>
      </trkpt>
      <trkpt lat="45.23223" lon="5.34228">
        <ele>415.1</ele>
        <time>2021-05-03T09:08:51Z</time>
      </trkpt>
      <trkpt lat="45.23222" lon="5.34223">
        <ele>415.2</ele>
        <time>2021-05-03T09:08:52Z</time>
      </trkpt>
      <trkpt lat="45.23221" lon="5.34216">
        <ele>415.2</ele>
        <time>2021-05-03T09:08:53Z</time>
      </trkpt>
      <trkpt lat="45.2322" lon="5.34208">
        <ele>415.3</ele>
        <time>2021-05-03T09:08:54Z</time>
      </trkpt>
      <trkpt lat="45.23219" lon="5.342">
        <ele>415.4</ele>
        <time>2021-05-03T09:08:55Z</time>
      </trkpt>
      <trkpt lat="45.23218" lon="5.34193">
        <ele>415.5</ele>
        <time>2021-05-03T09:08:56Z</time>
      </trkpt>
      <trkpt lat="45.23216" lon="5.34185">
        <ele>415.6</ele>
        <time>2021-05-03T09:08:57Z</time>
      </trkpt>
      <trkpt lat="45.23214" lon="5.34179">
        <ele>415.7</ele>
        <time>2021-05-03T09:08:58Z</time>
      </trkpt>
      <trkpt lat="45.23212" lon="5.34172">
        <ele>415.8</ele>
        <time>2021-05-03T09:08:59Z</time>
      </trkpt>
      <trkpt lat="45.2321" lon="5.34165">
        <ele>415.9</ele>
        <time>2021-05-03T09:09:00Z</time>
      </trkpt>
      <trkpt lat="45.23209" lon="5.34158">
        <ele>416.1</ele>
        <time>2021-05-03T09:09:01Z</time>
      </trkpt>
      <trkpt lat="45.23208" lon="5.34152">
        <ele>416.2</ele>
        <time>2021-05-03T09:09:02Z</time>
      </trkpt>
      <trkpt lat="45.23206" lon="5.34148">
        <ele>416.3</ele>
        <time>2021-05-03T09:09:03Z</time>
      </trkpt>
      <trkpt lat="45.23204" lon="5.34142">
        <ele>416.5</ele>
        <time>2021-05-03T09:09:04Z</time>
      </trkpt>
      <trkpt lat="45.232" lon="5.34129">
        <ele>416.9</ele>
        <time>2021-05-03T09:09:06Z</time>
      </trkpt>
      <trkpt lat="45.23198" lon="5.3412">
        <ele>417.2</ele>
        <time>2021-05-03T09:09:07Z</time>
      </trkpt>
      <trkpt lat="45.23198" lon="5.34113">
        <ele>417.5</ele>
        <time>2021-05-03T09:09:08Z</time>
      </trkpt>
      <trkpt lat="45.23194" lon="5.34107">
        <ele>417.9</ele>
        <time>2021-05-03T09:09:10Z</time>
      </trkpt>
      <trkpt lat="45.23189" lon="5.34102">
        <ele>418.3</ele>
        <time>2021-05-03T09:09:12Z</time>
      </trkpt>
      <trkpt lat="45.23186" lon="5.34098">
        <ele>418.6</ele>
        <time>2021-05-03T09:09:13Z</time>
      </trkpt>
      <trkpt lat="45.23182" lon="5.34094">
        <ele>419</ele>
        <time>2021-05-03T09:09:14Z</time>
      </trkpt>
      <trkpt lat="45.23177" lon="5.34089">
        <ele>419.5</ele>
        <time>2021-05-03T09:09:16Z</time>
      </trkpt>
      <trkpt lat="45.23175" lon="5.34086">
        <ele>419.7</ele>
        <time>2021-05-03T09:09:17Z</time>
      </trkpt>
      <trkpt lat="45.23171" lon="5.34083">
        <ele>420.1</ele>
        <time>2021-05-03T09:09:19Z</time>
      </trkpt>
      <trkpt lat="45.23167" lon="5.34079">
        <ele>420.6</ele>
        <time>2021-05-03T09:09:20Z</time>
      </trkpt>
      <trkpt lat="45.23163" lon="5.34075">
        <ele>421</ele>
        <time>2021-05-03T09:09:22Z</time>
      </trkpt>
      <trkpt lat="45.23159" lon="5.3407">
        <ele>421.6</ele>
        <time>2021-05-03T09:09:24Z</time>
      </trkpt>
      <trkpt lat="45.23156" lon="5.34066">
        <ele>422.1</ele>
        <time>2021-05-03T09:09:26Z</time>
      </trkpt>
      <trkpt lat="45.23154" lon="5.34063">
        <ele>422.4</ele>
        <time>2021-05-03T09:09:27Z</time>
      </trkpt>
      <trkpt lat="45.23153" lon="5.34062">
        <ele>422.6</ele>
        <time>2021-05-03T09:09:28Z</time>
      </trkpt>
      <trkpt lat="45.2315" lon="5.34058">
        <ele>423</ele>
        <time>2021-05-03T09:09:29Z</time>
      </trkpt>
      <trkpt lat="45.23147" lon="5.34053">
        <ele>423.6</ele>
        <time>2021-05-03T09:09:31Z</time>
      </trkpt>
      <trkpt lat="45.23145" lon="5.34048">
        <ele>424</ele>
        <time>2021-05-03T09:09:32Z</time>
      </trkpt>
      <trkpt lat="45.23144" lon="5.34047">
        <ele>424.1</ele>
        <time>2021-05-03T09:09:33Z</time>
      </trkpt>
      <trkpt lat="45.23143" lon="5.34042">
        <ele>424.5</ele>
        <time>2021-05-03T09:09:34Z</time>
      </trkpt>
      <trkpt lat="45.23143" lon="5.3404">
        <ele>424.6</ele>
        <time>2021-05-03T09:09:35Z</time>
      </trkpt>
      <trkpt lat="45.23142" lon="5.34036">
        <ele>425</ele>
        <time>2021-05-03T09:09:36Z</time>
      </trkpt>
      <trkpt lat="45.23141" lon="5.34032">
        <ele>425.3</ele>
        <time>2021-05-03T09:09:37Z</time>
      </trkpt>
      <trkpt lat="45.2314" lon="5.34026">
        <ele>425.8</ele>
        <time>2021-05-03T09:09:38Z</time>
      </trkpt>
      <trkpt lat="45.23142" lon="5.34017">
        <ele>426.5</ele>
        <time>2021-05-03T09:09:39Z</time>
      </trkpt>
      <trkpt lat="45.23144" lon="5.34014">
        <ele>426.8</ele>
        <time>2021-05-03T09:09:40Z</time>
      </trkpt>
      <trkpt lat="45.23146" lon="5.34009">
        <ele>427.2</ele>
        <time>2021-05-03T09:09:42Z</time>
      </trkpt>
      <trkpt lat="45.23149" lon="5.34004">
        <ele>427.7</ele>
        <time>2021-05-03T09:09:43Z</time>
      </trkpt>
      <trkpt lat="45.23152" lon="5.34001">
        <ele>428</ele>
        <time>2021-05-03T09:09:45Z</time>
      </trkpt>
      <trkpt lat="45.23153" lon="5.33999">
        <ele>428.2</ele>
        <time>2021-05-03T09:09:46Z</time>
      </trkpt>
      <trkpt lat="45.23156" lon="5.33994">
        <ele>428.5</ele>
        <time>2021-05-03T09:09:47Z</time>
      </trkpt>
      <trkpt lat="45.23158" lon="5.33991">
        <ele>428.8</ele>
        <time>2021-05-03T09:09:48Z</time>
      </trkpt>
      <trkpt lat="45.23161" lon="5.33987">
        <ele>429.1</ele>
        <time>2021-05-03T09:09:49Z</time>
      </trkpt>
      <trkpt lat="45.23163" lon="5.33984">
        <ele>429.3</ele>
        <time>2021-05-03T09:09:51Z</time>
      </trkpt>
      <trkpt lat="45.23165" lon="5.3398">
        <ele>429.5</ele>
        <time>2021-05-03T09:09:52Z</time>
      </trkpt>
      <trkpt lat="45.23166" lon="5.33976">
        <ele>429.8</ele>
        <time>2021-05-03T09:09:53Z</time>
      </trkpt>
      <trkpt lat="45.23167" lon="5.33971">
        <ele>430</ele>
        <time>2021-05-03T09:09:54Z</time>
      </trkpt>
      <trkpt lat="45.23167" lon="5.33967">
        <ele>430.2</ele>
        <time>2021-05-03T09:09:56Z</time>
      </trkpt>
      <trkpt lat="45.23168" lon="5.33959">
        <ele>430.6</ele>
        <time>2021-05-03T09:09:58Z</time>
      </trkpt>
      <trkpt lat="45.23169" lon="5.33951">
        <ele>431</ele>
        <time>2021-05-03T09:10:00Z</time>
      </trkpt>
      <trkpt lat="45.23169" lon="5.33945">
        <ele>431.3</ele>
        <time>2021-05-03T09:10:02Z</time>
      </trkpt>
      <trkpt lat="45.23169" lon="5.3394">
        <ele>431.6</ele>
        <time>2021-05-03T09:10:03Z</time>
      </trkpt>
      <trkpt lat="45.23169" lon="5.33938">
        <ele>431.7</ele>
        <time>2021-05-03T09:10:04Z</time>
      </trkpt>
      <trkpt lat="45.2317" lon="5.33933">
        <ele>432</ele>
        <time>2021-05-03T09:10:05Z</time>
      </trkpt>
      <trkpt lat="45.2317" lon="5.33932">
        <ele>432</ele>
        <time>2021-05-03T09:10:06Z</time>
      </trkpt>
      <trkpt lat="45.2317" lon="5.33927">
        <ele>432.3</ele>
        <time>2021-05-03T09:10:07Z</time>
      </trkpt>
      <trkpt lat="45.2317" lon="5.33925">
        <ele>432.4</ele>
        <time>2021-05-03T09:10:08Z</time>
      </trkpt>
      <trkpt lat="45.23171" lon="5.33922">
        <ele>432.6</ele>
        <time>2021-05-03T09:10:09Z</time>
      </trkpt>
      <trkpt lat="45.23172" lon="5.33916">
        <ele>432.9</ele>
        <time>2021-05-03T09:10:11Z</time>
      </trkpt>
      <trkpt lat="45.23173" lon="5.33913">
        <ele>433.1</ele>
        <time>2021-05-03T09:10:12Z</time>
      </trkpt>
      <trkpt lat="45.23174" lon="5.33905">
        <ele>433.6</ele>
        <time>2021-05-03T09:10:14Z</time>
      </trkpt>
      <trkpt lat="45.23175" lon="5.33899">
        <ele>434</ele>
        <time>2021-05-03T09:10:16Z</time>
      </trkpt>
      <trkpt lat="45.23177" lon="5.33895">
        <ele>434.2</ele>
        <time>2021-05-03T09:10:17Z</time>
      </trkpt>
      <trkpt lat="45.23179" lon="5.3389">
        <ele>434.6</ele>
        <time>2021-05-03T09:10:19Z</time>
      </trkpt>
      <trkpt lat="45.23181" lon="5.33885">
        <ele>434.9</ele>
        <time>2021-05-03T09:10:21Z</time>
      </trkpt>
      <trkpt lat="45.23182" lon="5.33881">
        <ele>435.1</ele>
        <time>2021-05-03T09:10:22Z</time>
      </trkpt>
      <trkpt lat="45.23183" lon="5.33875">
        <ele>435.5</ele>
        <time>2021-05-03T09:10:24Z</time>
      </trkpt>
      <trkpt lat="45.23183" lon="5.33871">
        <ele>435.8</ele>
        <time>2021-05-03T09:10:25Z</time>
      </trkpt>
      <trkpt lat="45.23184" lon="5.33869">
        <ele>435.9</ele>
        <time>2021-05-03T09:10:26Z</time>
      </trkpt>
      <trkpt lat="45.23184" lon="5.33865">
        <ele>436.1</ele>
        <time>2021-05-03T09:10:27Z</time>
      </trkpt>
      <trkpt lat="45.23184" lon="5.33863">
        <ele>436.3</ele>
        <time>2021-05-03T09:10:28Z</time>
      </trkpt>
      <trkpt lat="45.23183" lon="5.33857">
        <ele>436.6</ele>
        <time>2021-05-03T09:10:30Z</time>
      </trkpt>
      <trkpt lat="45.23182" lon="5.33853">
        <ele>436.9</ele>
        <time>2021-05-03T09:10:31Z</time>
      </trkpt>
      <trkpt lat="45.23181" lon="5.33851">
        <ele>437</ele>
        <time>2021-05-03T09:10:32Z</time>
      </trkpt>
      <trkpt lat="45.2318" lon="5.33849">
        <ele>437.2</ele>
        <time>2021-05-03T09:10:33Z</time>
      </trkpt>
      <trkpt lat="45.23177" lon="5.33845">
        <ele>437.8</ele>
        <time>2021-05-03T09:10:35Z</time>
      </trkpt>
      <trkpt lat="45.23173" lon="5.33844">
        <ele>438</ele>
        <time>2021-05-03T09:10:37Z</time>
      </trkpt>
      <trkpt lat="45.23172" lon="5.33843">
        <ele>438</ele>
        <time>2021-05-03T09:10:38Z</time>
      </trkpt>
      <trkpt lat="45.23169" lon="5.33843">
        <ele>438.2</ele>
        <time>2021-05-03T09:10:39Z</time>
      </trkpt>
      <trkpt lat="45.23167" lon="5.33842">
        <ele>438.4</ele>
        <time>2021-05-03T09:10:40Z</time>
      </trkpt>
      <trkpt lat="45.23163" lon="5.33843">
        <ele>438.6</ele>
        <time>2021-05-03T09:10:42Z</time>
      </trkpt>
      <trkpt lat="45.23161" lon="5.33842">
        <ele>438.7</ele>
        <time>2021-05-03T09:10:43Z</time>
      </trkpt>
      <trkpt lat="45.23158" lon="5.33838">
        <ele>439.4</ele>
        <time>2021-05-03T09:10:45Z</time>
      </trkpt>
      <trkpt lat="45.23158" lon="5.33835">
        <ele>439.5</ele>
        <time>2021-05-03T09:10:46Z</time>
      </trkpt>
      <trkpt lat="45.2316" lon="5.33832">
        <ele>439.5</ele>
        <time>2021-05-03T09:10:48Z</time>
      </trkpt>
      <trkpt lat="45.23161" lon="5.33831">
        <ele>439.6</ele>
        <time>2021-05-03T09:10:49Z</time>
      </trkpt>
      <trkpt lat="45.23161" lon="5.33831">
        <ele>439.6</ele>
        <time>2021-05-03T09:10:50Z</time>
      </trkpt>
      <trkpt lat="45.23162" lon="5.3383">
        <ele>439.6</ele>
        <time>2021-05-03T09:10:51Z</time>
      </trkpt>
      <trkpt lat="45.23162" lon="5.3383">
        <ele>439.6</ele>
        <time>2021-05-03T09:10:52Z</time>
      </trkpt>
      <trkpt lat="45.23162" lon="5.3383">
        <ele>439.6</ele>
        <time>2021-05-03T09:10:53Z</time>
      </trkpt>
      <trkpt lat="45.23162" lon="5.3383">
        <ele>439.6</ele>
        <time>2021-05-03T09:10:54Z</time>
      </trkpt>
      <trkpt lat="45.23161" lon="5.3383">
        <ele>439.6</ele>
        <time>2021-05-03T09:10:56Z</time>
      </trkpt>
      <trkpt lat="45.23161" lon="5.33829">
        <ele>439.6</ele>
        <time>2021-05-03T09:10:57Z</time>
      </trkpt>
      <trkpt lat="45.23161" lon="5.33829">
        <ele>439.6</ele>
        <time>2021-05-03T09:10:58Z</time>
      </trkpt>
      <trkpt lat="45.23161" lon="5.33828">
        <ele>439.6</ele>
        <time>2021-05-03T09:11:35Z</time>
      </trkpt>
      <trkpt lat="45.23161" lon="5.33828">
        <ele>439.6</ele>
        <time>2021-05-03T09:11:36Z</time>
      </trkpt>
      <trkpt lat="45.23161" lon="5.33829">
        <ele>439.6</ele>
        <time>2021-05-03T09:11:37Z</time>
      </trkpt>
      <trkpt lat="45.23161" lon="5.33829">
        <ele>439.6</ele>
        <time>2021-05-03T09:11:38Z</time>
      </trkpt>
      <trkpt lat="45.23161" lon="5.33829">
        <ele>439.6</ele>
        <time>2021-05-03T09:11:39Z</time>
      </trkpt>
      <trkpt lat="45.23162" lon="5.33828">
        <ele>439.6</ele>
        <time>2021-05-03T09:11:40Z</time>
      </trkpt>
      <trkpt lat="45.23162" lon="5.33829">
        <ele>439.6</ele>
        <time>2021-05-03T09:11:41Z</time>
      </trkpt>
      <trkpt lat="45.23162" lon="5.33829">
        <ele>439.6</ele>
        <time>2021-05-03T09:11:42Z</time>
      </trkpt>
      <trkpt lat="45.23162" lon="5.33829">
        <ele>439.7</ele>
        <time>2021-05-03T09:11:43Z</time>
      </trkpt>
      <trkpt lat="45.23162" lon="5.33829">
        <ele>439.7</ele>
        <time>2021-05-03T09:11:44Z</time>
      </trkpt>
      <trkpt lat="45.23162" lon="5.33829">
        <ele>439.7</ele>
        <time>2021-05-03T09:11:45Z</time>
      </trkpt>
      <trkpt lat="45.23163" lon="5.33829">
        <ele>439.7</ele>
        <time>2021-05-03T09:11:46Z</time>
      </trkpt>
      <trkpt lat="45.23163" lon="5.33829">
        <ele>439.7</ele>
        <time>2021-05-03T09:11:47Z</time>
      </trkpt>
      <trkpt lat="45.23163" lon="5.33829">
        <ele>439.7</ele>
        <time>2021-05-03T09:11:48Z</time>
      </trkpt>
      <trkpt lat="45.23163" lon="5.33829">
        <ele>439.7</ele>
        <time>2021-05-03T09:11:49Z</time>
      </trkpt>
      <trkpt lat="45.23163" lon="5.33829">
        <ele>439.7</ele>
        <time>2021-05-03T09:11:50Z</time>
      </trkpt>
      <trkpt lat="45.23164" lon="5.33829">
        <ele>439.7</ele>
        <time>2021-05-03T09:11:52Z</time>
      </trkpt>
      <trkpt lat="45.23164" lon="5.33829">
        <ele>439.7</ele>
        <time>2021-05-03T09:11:53Z</time>
      </trkpt>
      <trkpt lat="45.23164" lon="5.33829">
        <ele>439.7</ele>
        <time>2021-05-03T09:11:54Z</time>
      </trkpt>
      <trkpt lat="45.23164" lon="5.33829">
        <ele>439.7</ele>
        <time>2021-05-03T09:11:55Z</time>
      </trkpt>
      <trkpt lat="45.23163" lon="5.33829">
        <ele>439.7</ele>
        <time>2021-05-03T09:11:56Z</time>
      </trkpt>
      <trkpt lat="45.23163" lon="5.33829">
        <ele>439.7</ele>
        <time>2021-05-03T09:11:57Z</time>
      </trkpt>
      <trkpt lat="45.23163" lon="5.33829">
        <ele>439.7</ele>
        <time>2021-05-03T09:11:58Z</time>
      </trkpt>
      <trkpt lat="45.23164" lon="5.33829">
        <ele>439.7</ele>
        <time>2021-05-03T09:11:59Z</time>
      </trkpt>
      <trkpt lat="45.23164" lon="5.33829">
        <ele>439.7</ele>
        <time>2021-05-03T09:12:00Z</time>
      </trkpt>
      <trkpt lat="45.23164" lon="5.33828">
        <ele>439.7</ele>
        <time>2021-05-03T09:12:01Z</time>
      </trkpt>
      <trkpt lat="45.23164" lon="5.33828">
        <ele>439.7</ele>
        <time>2021-05-03T09:12:02Z</time>
      </trkpt>
      <trkpt lat="45.23166" lon="5.33826">
        <ele>439.8</ele>
        <time>2021-05-03T09:12:03Z</time>
      </trkpt>
      <trkpt lat="45.23167" lon="5.33825">
        <ele>439.8</ele>
        <time>2021-05-03T09:12:05Z</time>
      </trkpt>
      <trkpt lat="45.23172" lon="5.33821">
        <ele>439.9</ele>
        <time>2021-05-03T09:12:07Z</time>
      </trkpt>
      <trkpt lat="45.23174" lon="5.33818">
        <ele>440</ele>
        <time>2021-05-03T09:12:08Z</time>
      </trkpt>
      <trkpt lat="45.23177" lon="5.33815">
        <ele>440</ele>
        <time>2021-05-03T09:12:09Z</time>
      </trkpt>
      <trkpt lat="45.23181" lon="5.33811">
        <ele>440.1</ele>
        <time>2021-05-03T09:12:10Z</time>
      </trkpt>
      <trkpt lat="45.23186" lon="5.33806">
        <ele>440.2</ele>
        <time>2021-05-03T09:12:11Z</time>
      </trkpt>
      <trkpt lat="45.23191" lon="5.33802">
        <ele>440.3</ele>
        <time>2021-05-03T09:12:13Z</time>
      </trkpt>
      <trkpt lat="45.23193" lon="5.33798">
        <ele>440.4</ele>
        <time>2021-05-03T09:12:14Z</time>
      </trkpt>
      <trkpt lat="45.23197" lon="5.33792">
        <ele>440.5</ele>
        <time>2021-05-03T09:12:16Z</time>
      </trkpt>
      <trkpt lat="45.23201" lon="5.33784">
        <ele>440.7</ele>
        <time>2021-05-03T09:12:18Z</time>
      </trkpt>
      <trkpt lat="45.23205" lon="5.3378">
        <ele>440.9</ele>
        <time>2021-05-03T09:12:19Z</time>
      </trkpt>
      <trkpt lat="45.23209" lon="5.33775">
        <ele>441.1</ele>
        <time>2021-05-03T09:12:21Z</time>
      </trkpt>
      <trkpt lat="45.23212" lon="5.33772">
        <ele>441.2</ele>
        <time>2021-05-03T09:12:22Z</time>
      </trkpt>
      <trkpt lat="45.23216" lon="5.33768">
        <ele>441.4</ele>
        <time>2021-05-03T09:12:23Z</time>
      </trkpt>
      <trkpt lat="45.23219" lon="5.33765">
        <ele>441.6</ele>
        <time>2021-05-03T09:12:25Z</time>
      </trkpt>
      <trkpt lat="45.23221" lon="5.33764">
        <ele>441.7</ele>
        <time>2021-05-03T09:12:26Z</time>
      </trkpt>
      <trkpt lat="45.23225" lon="5.3376">
        <ele>441.9</ele>
        <time>2021-05-03T09:12:27Z</time>
      </trkpt>
      <trkpt lat="45.23229" lon="5.33757">
        <ele>442.1</ele>
        <time>2021-05-03T09:12:29Z</time>
      </trkpt>
      <trkpt lat="45.23231" lon="5.33754">
        <ele>442.3</ele>
        <time>2021-05-03T09:12:31Z</time>
      </trkpt>
      <trkpt lat="45.23234" lon="5.33752">
        <ele>442.5</ele>
        <time>2021-05-03T09:12:32Z</time>
      </trkpt>
      <trkpt lat="45.23237" lon="5.33749">
        <ele>442.7</ele>
        <time>2021-05-03T09:12:33Z</time>
      </trkpt>
      <trkpt lat="45.23239" lon="5.33748">
        <ele>442.8</ele>
        <time>2021-05-03T09:12:34Z</time>
      </trkpt>
      <trkpt lat="45.23243" lon="5.33744">
        <ele>443.1</ele>
        <time>2021-05-03T09:12:36Z</time>
      </trkpt>
      <trkpt lat="45.23244" lon="5.33743">
        <ele>443.1</ele>
        <time>2021-05-03T09:12:37Z</time>
      </trkpt>
      <trkpt lat="45.23245" lon="5.33742">
        <ele>443.2</ele>
        <time>2021-05-03T09:12:38Z</time>
      </trkpt>
      <trkpt lat="45.23248" lon="5.3374">
        <ele>443.4</ele>
        <time>2021-05-03T09:12:39Z</time>
      </trkpt>
      <trkpt lat="45.23252" lon="5.33735">
        <ele>443.7</ele>
        <time>2021-05-03T09:12:41Z</time>
      </trkpt>
      <trkpt lat="45.23257" lon="5.33732">
        <ele>444</ele>
        <time>2021-05-03T09:12:43Z</time>
      </trkpt>
      <trkpt lat="45.23262" lon="5.33727">
        <ele>444.3</ele>
        <time>2021-05-03T09:12:45Z</time>
      </trkpt>
      <trkpt lat="45.23267" lon="5.33723">
        <ele>444.5</ele>
        <time>2021-05-03T09:12:47Z</time>
      </trkpt>
      <trkpt lat="45.23272" lon="5.33719">
        <ele>444.7</ele>
        <time>2021-05-03T09:12:49Z</time>
      </trkpt>
      <trkpt lat="45.23277" lon="5.33715">
        <ele>444.9</ele>
        <time>2021-05-03T09:12:51Z</time>
      </trkpt>
      <trkpt lat="45.2328" lon="5.33712">
        <ele>445</ele>
        <time>2021-05-03T09:12:52Z</time>
      </trkpt>
      <trkpt lat="45.23284" lon="5.33709">
        <ele>445.2</ele>
        <time>2021-05-03T09:12:54Z</time>
      </trkpt>
      <trkpt lat="45.23287" lon="5.33708">
        <ele>445.2</ele>
        <time>2021-05-03T09:12:55Z</time>
      </trkpt>
      <trkpt lat="45.2329" lon="5.33707">
        <ele>445.5</ele>
        <time>2021-05-03T09:12:56Z</time>
      </trkpt>
      <trkpt lat="45.23293" lon="5.33704">
        <ele>445.7</ele>
        <time>2021-05-03T09:12:57Z</time>
      </trkpt>
      <trkpt lat="45.23296" lon="5.33702">
        <ele>445.9</ele>
        <time>2021-05-03T09:12:59Z</time>
      </trkpt>
      <trkpt lat="45.23299" lon="5.33699">
        <ele>446.1</ele>
        <time>2021-05-03T09:13:00Z</time>
      </trkpt>
      <trkpt lat="45.23302" lon="5.33695">
        <ele>446.4</ele>
        <time>2021-05-03T09:13:01Z</time>
      </trkpt>
      <trkpt lat="45.23305" lon="5.33693">
        <ele>446.5</ele>
        <time>2021-05-03T09:13:03Z</time>
      </trkpt>
      <trkpt lat="45.23309" lon="5.3369">
        <ele>446.8</ele>
        <time>2021-05-03T09:13:04Z</time>
      </trkpt>
      <trkpt lat="45.23311" lon="5.33689">
        <ele>447</ele>
        <time>2021-05-03T09:13:06Z</time>
      </trkpt>
      <trkpt lat="45.23314" lon="5.33686">
        <ele>447.2</ele>
        <time>2021-05-03T09:13:07Z</time>
      </trkpt>
      <trkpt lat="45.23319" lon="5.33683">
        <ele>447.5</ele>
        <time>2021-05-03T09:13:09Z</time>
      </trkpt>
      <trkpt lat="45.23322" lon="5.33681">
        <ele>447.7</ele>
        <time>2021-05-03T09:13:10Z</time>
      </trkpt>
      <trkpt lat="45.23326" lon="5.33677">
        <ele>448</ele>
        <time>2021-05-03T09:13:11Z</time>
      </trkpt>
      <trkpt lat="45.23331" lon="5.33673">
        <ele>448.4</ele>
        <time>2021-05-03T09:13:13Z</time>
      </trkpt>
      <trkpt lat="45.23332" lon="5.33671">
        <ele>448.5</ele>
        <time>2021-05-03T09:13:14Z</time>
      </trkpt>
      <trkpt lat="45.23334" lon="5.3367">
        <ele>448.6</ele>
        <time>2021-05-03T09:13:15Z</time>
      </trkpt>
      <trkpt lat="45.2334" lon="5.33667">
        <ele>449</ele>
        <time>2021-05-03T09:13:17Z</time>
      </trkpt>
      <trkpt lat="45.23344" lon="5.33664">
        <ele>449.3</ele>
        <time>2021-05-03T09:13:19Z</time>
      </trkpt>
      <trkpt lat="45.23349" lon="5.33659">
        <ele>449.6</ele>
        <time>2021-05-03T09:13:21Z</time>
      </trkpt>
      <trkpt lat="45.23353" lon="5.33655">
        <ele>450</ele>
        <time>2021-05-03T09:13:23Z</time>
      </trkpt>
      <trkpt lat="45.23357" lon="5.33651">
        <ele>450.3</ele>
        <time>2021-05-03T09:13:25Z</time>
      </trkpt>
      <trkpt lat="45.23361" lon="5.33648">
        <ele>450.5</ele>
        <time>2021-05-03T09:13:26Z</time>
      </trkpt>
      <trkpt lat="45.23362" lon="5.33646">
        <ele>450.6</ele>
        <time>2021-05-03T09:13:27Z</time>
      </trkpt>
      <trkpt lat="45.23364" lon="5.33643">
        <ele>450.8</ele>
        <time>2021-05-03T09:13:28Z</time>
      </trkpt>
      <trkpt lat="45.23369" lon="5.33638">
        <ele>451.1</ele>
        <time>2021-05-03T09:13:30Z</time>
      </trkpt>
      <trkpt lat="45.23374" lon="5.33634">
        <ele>451.5</ele>
        <time>2021-05-03T09:13:32Z</time>
      </trkpt>
      <trkpt lat="45.23378" lon="5.33631">
        <ele>451.8</ele>
        <time>2021-05-03T09:13:34Z</time>
      </trkpt>
      <trkpt lat="45.23381" lon="5.33628">
        <ele>451.9</ele>
        <time>2021-05-03T09:13:35Z</time>
      </trkpt>
      <trkpt lat="45.23385" lon="5.33625">
        <ele>452.3</ele>
        <time>2021-05-03T09:13:37Z</time>
      </trkpt>
      <trkpt lat="45.23387" lon="5.33623">
        <ele>452.4</ele>
        <time>2021-05-03T09:13:38Z</time>
      </trkpt>
      <trkpt lat="45.23391" lon="5.3362">
        <ele>452.7</ele>
        <time>2021-05-03T09:13:39Z</time>
      </trkpt>
      <trkpt lat="45.23395" lon="5.33615">
        <ele>453.1</ele>
        <time>2021-05-03T09:13:41Z</time>
      </trkpt>
      <trkpt lat="45.23397" lon="5.33614">
        <ele>453.2</ele>
        <time>2021-05-03T09:13:42Z</time>
      </trkpt>
      <trkpt lat="45.23399" lon="5.33612">
        <ele>453.3</ele>
        <time>2021-05-03T09:13:43Z</time>
      </trkpt>
      <trkpt lat="45.23401" lon="5.3361">
        <ele>453.5</ele>
        <time>2021-05-03T09:13:44Z</time>
      </trkpt>
      <trkpt lat="45.23402" lon="5.33609">
        <ele>453.6</ele>
        <time>2021-05-03T09:13:45Z</time>
      </trkpt>
      <trkpt lat="45.23404" lon="5.33605">
        <ele>453.8</ele>
        <time>2021-05-03T09:13:47Z</time>
      </trkpt>
      <trkpt lat="45.23407" lon="5.33602">
        <ele>454</ele>
        <time>2021-05-03T09:13:48Z</time>
      </trkpt>
      <trkpt lat="45.23411" lon="5.33598">
        <ele>454.3</ele>
        <time>2021-05-03T09:13:50Z</time>
      </trkpt>
      <trkpt lat="45.23412" lon="5.33594">
        <ele>454.5</ele>
        <time>2021-05-03T09:13:51Z</time>
      </trkpt>
      <trkpt lat="45.23416" lon="5.33589">
        <ele>454.8</ele>
        <time>2021-05-03T09:13:53Z</time>
      </trkpt>
      <trkpt lat="45.23419" lon="5.33585">
        <ele>455.1</ele>
        <time>2021-05-03T09:13:55Z</time>
      </trkpt>
      <trkpt lat="45.23422" lon="5.33581">
        <ele>455.4</ele>
        <time>2021-05-03T09:13:56Z</time>
      </trkpt>
      <trkpt lat="45.23425" lon="5.33578">
        <ele>455.6</ele>
        <time>2021-05-03T09:13:58Z</time>
      </trkpt>
      <trkpt lat="45.23427" lon="5.33575">
        <ele>455.8</ele>
        <time>2021-05-03T09:13:59Z</time>
      </trkpt>
      <trkpt lat="45.2343" lon="5.33571">
        <ele>456.1</ele>
        <time>2021-05-03T09:14:01Z</time>
      </trkpt>
      <trkpt lat="45.23433" lon="5.33568">
        <ele>456.3</ele>
        <time>2021-05-03T09:14:02Z</time>
      </trkpt>
      <trkpt lat="45.23433" lon="5.33567">
        <ele>456.3</ele>
        <time>2021-05-03T09:14:03Z</time>
      </trkpt>
      <trkpt lat="45.23435" lon="5.33564">
        <ele>456.5</ele>
        <time>2021-05-03T09:14:04Z</time>
      </trkpt>
      <trkpt lat="45.23438" lon="5.33558">
        <ele>456.8</ele>
        <time>2021-05-03T09:14:06Z</time>
      </trkpt>
      <trkpt lat="45.23441" lon="5.33553">
        <ele>457.1</ele>
        <time>2021-05-03T09:14:07Z</time>
      </trkpt>
      <trkpt lat="45.23442" lon="5.33551">
        <ele>457.2</ele>
        <time>2021-05-03T09:14:08Z</time>
      </trkpt>
      <trkpt lat="45.23445" lon="5.33546">
        <ele>457.5</ele>
        <time>2021-05-03T09:14:09Z</time>
      </trkpt>
      <trkpt lat="45.23447" lon="5.3354">
        <ele>457.7</ele>
        <time>2021-05-03T09:14:11Z</time>
      </trkpt>
      <trkpt lat="45.23448" lon="5.33537">
        <ele>457.9</ele>
        <time>2021-05-03T09:14:12Z</time>
      </trkpt>
      <trkpt lat="45.23451" lon="5.33531">
        <ele>458.2</ele>
        <time>2021-05-03T09:14:14Z</time>
      </trkpt>
      <trkpt lat="45.23453" lon="5.33528">
        <ele>458.4</ele>
        <time>2021-05-03T09:14:15Z</time>
      </trkpt>
      <trkpt lat="45.23457" lon="5.33523">
        <ele>458.7</ele>
        <time>2021-05-03T09:14:17Z</time>
      </trkpt>
      <trkpt lat="45.2346" lon="5.33517">
        <ele>459</ele>
        <time>2021-05-03T09:14:19Z</time>
      </trkpt>
      <trkpt lat="45.23462" lon="5.33513">
        <ele>459.2</ele>
        <time>2021-05-03T09:14:20Z</time>
      </trkpt>
      <trkpt lat="45.23465" lon="5.33507">
        <ele>459.5</ele>
        <time>2021-05-03T09:14:22Z</time>
      </trkpt>
      <trkpt lat="45.23466" lon="5.33505">
        <ele>459.7</ele>
        <time>2021-05-03T09:14:23Z</time>
      </trkpt>
      <trkpt lat="45.23469" lon="5.33499">
        <ele>460</ele>
        <time>2021-05-03T09:14:25Z</time>
      </trkpt>
      <trkpt lat="45.23472" lon="5.33494">
        <ele>460.3</ele>
        <time>2021-05-03T09:14:27Z</time>
      </trkpt>
      <trkpt lat="45.23474" lon="5.33491">
        <ele>460.5</ele>
        <time>2021-05-03T09:14:28Z</time>
      </trkpt>
      <trkpt lat="45.23478" lon="5.33484">
        <ele>460.9</ele>
        <time>2021-05-03T09:14:30Z</time>
      </trkpt>
      <trkpt lat="45.2348" lon="5.33478">
        <ele>461.3</ele>
        <time>2021-05-03T09:14:32Z</time>
      </trkpt>
      <trkpt lat="45.23484" lon="5.33471">
        <ele>461.6</ele>
        <time>2021-05-03T09:14:34Z</time>
      </trkpt>
      <trkpt lat="45.23487" lon="5.33467">
        <ele>461.9</ele>
        <time>2021-05-03T09:14:36Z</time>
      </trkpt>
      <trkpt lat="45.23489" lon="5.33463">
        <ele>462.2</ele>
        <time>2021-05-03T09:14:37Z</time>
      </trkpt>
      <trkpt lat="45.23491" lon="5.33461">
        <ele>462.4</ele>
        <time>2021-05-03T09:14:38Z</time>
      </trkpt>
      <trkpt lat="45.23493" lon="5.33457">
        <ele>462.5</ele>
        <time>2021-05-03T09:14:40Z</time>
      </trkpt>
      <trkpt lat="45.23494" lon="5.33453">
        <ele>462.6</ele>
        <time>2021-05-03T09:14:41Z</time>
      </trkpt>
      <trkpt lat="45.23496" lon="5.33448">
        <ele>462.8</ele>
        <time>2021-05-03T09:14:42Z</time>
      </trkpt>
      <trkpt lat="45.23498" lon="5.33444">
        <ele>462.9</ele>
        <time>2021-05-03T09:14:43Z</time>
      </trkpt>
      <trkpt lat="45.235" lon="5.33441">
        <ele>463</ele>
        <time>2021-05-03T09:14:45Z</time>
      </trkpt>
      <trkpt lat="45.23504" lon="5.33437">
        <ele>463.2</ele>
        <time>2021-05-03T09:14:46Z</time>
      </trkpt>
      <trkpt lat="45.23506" lon="5.33433">
        <ele>463.3</ele>
        <time>2021-05-03T09:14:48Z</time>
      </trkpt>
      <trkpt lat="45.23509" lon="5.33431">
        <ele>463.5</ele>
        <time>2021-05-03T09:14:49Z</time>
      </trkpt>
      <trkpt lat="45.23512" lon="5.33427">
        <ele>463.7</ele>
        <time>2021-05-03T09:14:51Z</time>
      </trkpt>
      <trkpt lat="45.23515" lon="5.33424">
        <ele>463.9</ele>
        <time>2021-05-03T09:14:52Z</time>
      </trkpt>
      <trkpt lat="45.23519" lon="5.33422">
        <ele>464.2</ele>
        <time>2021-05-03T09:14:54Z</time>
      </trkpt>
      <trkpt lat="45.23523" lon="5.33421">
        <ele>464.4</ele>
        <time>2021-05-03T09:14:55Z</time>
      </trkpt>
      <trkpt lat="45.23524" lon="5.33421">
        <ele>464.4</ele>
        <time>2021-05-03T09:14:56Z</time>
      </trkpt>
      <trkpt lat="45.23527" lon="5.33419">
        <ele>464.6</ele>
        <time>2021-05-03T09:14:57Z</time>
      </trkpt>
      <trkpt lat="45.23531" lon="5.33419">
        <ele>464.8</ele>
        <time>2021-05-03T09:14:58Z</time>
      </trkpt>
      <trkpt lat="45.23535" lon="5.33419">
        <ele>465</ele>
        <time>2021-05-03T09:15:00Z</time>
      </trkpt>
      <trkpt lat="45.23538" lon="5.33419">
        <ele>465.2</ele>
        <time>2021-05-03T09:15:01Z</time>
      </trkpt>
      <trkpt lat="45.23541" lon="5.33419">
        <ele>465.3</ele>
        <time>2021-05-03T09:15:02Z</time>
      </trkpt>
      <trkpt lat="45.23544" lon="5.33419">
        <ele>465.5</ele>
        <time>2021-05-03T09:15:03Z</time>
      </trkpt>
      <trkpt lat="45.23549" lon="5.33419">
        <ele>465.8</ele>
        <time>2021-05-03T09:15:05Z</time>
      </trkpt>
      <trkpt lat="45.23552" lon="5.33419">
        <ele>466</ele>
        <time>2021-05-03T09:15:06Z</time>
      </trkpt>
      <trkpt lat="45.23557" lon="5.33419">
        <ele>466.3</ele>
        <time>2021-05-03T09:15:07Z</time>
      </trkpt>
      <trkpt lat="45.23561" lon="5.33419">
        <ele>466.5</ele>
        <time>2021-05-03T09:15:09Z</time>
      </trkpt>
      <trkpt lat="45.23564" lon="5.3342">
        <ele>466.7</ele>
        <time>2021-05-03T09:15:10Z</time>
      </trkpt>
      <trkpt lat="45.23567" lon="5.33421">
        <ele>466.9</ele>
        <time>2021-05-03T09:15:11Z</time>
      </trkpt>
      <trkpt lat="45.23572" lon="5.33422">
        <ele>467.2</ele>
        <time>2021-05-03T09:15:12Z</time>
      </trkpt>
      <trkpt lat="45.23575" lon="5.33423">
        <ele>467.5</ele>
        <time>2021-05-03T09:15:14Z</time>
      </trkpt>
      <trkpt lat="45.23579" lon="5.33425">
        <ele>467.7</ele>
        <time>2021-05-03T09:15:15Z</time>
      </trkpt>
      <trkpt lat="45.23583" lon="5.33425">
        <ele>468</ele>
        <time>2021-05-03T09:15:17Z</time>
      </trkpt>
      <trkpt lat="45.23585" lon="5.33426">
        <ele>468.1</ele>
        <time>2021-05-03T09:15:18Z</time>
      </trkpt>
      <trkpt lat="45.23589" lon="5.33426">
        <ele>468.3</ele>
        <time>2021-05-03T09:15:20Z</time>
      </trkpt>
      <trkpt lat="45.23593" lon="5.33427">
        <ele>468.6</ele>
        <time>2021-05-03T09:15:22Z</time>
      </trkpt>
      <trkpt lat="45.23596" lon="5.33428">
        <ele>468.8</ele>
        <time>2021-05-03T09:15:23Z</time>
      </trkpt>
      <trkpt lat="45.23599" lon="5.33428">
        <ele>469</ele>
        <time>2021-05-03T09:15:24Z</time>
      </trkpt>
      <trkpt lat="45.23603" lon="5.33428">
        <ele>469.2</ele>
        <time>2021-05-03T09:15:26Z</time>
      </trkpt>
      <trkpt lat="45.23606" lon="5.33428">
        <ele>469.4</ele>
        <time>2021-05-03T09:15:27Z</time>
      </trkpt>
      <trkpt lat="45.23611" lon="5.33427">
        <ele>469.7</ele>
        <time>2021-05-03T09:15:29Z</time>
      </trkpt>
      <trkpt lat="45.23616" lon="5.33425">
        <ele>470</ele>
        <time>2021-05-03T09:15:31Z</time>
      </trkpt>
      <trkpt lat="45.23621" lon="5.33423">
        <ele>470.3</ele>
        <time>2021-05-03T09:15:33Z</time>
      </trkpt>
      <trkpt lat="45.23626" lon="5.33421">
        <ele>470.6</ele>
        <time>2021-05-03T09:15:35Z</time>
      </trkpt>
      <trkpt lat="45.23631" lon="5.33417">
        <ele>470.9</ele>
        <time>2021-05-03T09:15:37Z</time>
      </trkpt>
      <trkpt lat="45.23635" lon="5.33413">
        <ele>471.3</ele>
        <time>2021-05-03T09:15:39Z</time>
      </trkpt>
      <trkpt lat="45.23639" lon="5.33409">
        <ele>471.5</ele>
        <time>2021-05-03T09:15:41Z</time>
      </trkpt>
      <trkpt lat="45.23642" lon="5.33406">
        <ele>471.8</ele>
        <time>2021-05-03T09:15:42Z</time>
      </trkpt>
      <trkpt lat="45.23644" lon="5.33401">
        <ele>472</ele>
        <time>2021-05-03T09:15:44Z</time>
      </trkpt>
      <trkpt lat="45.23646" lon="5.33398">
        <ele>472.2</ele>
        <time>2021-05-03T09:15:45Z</time>
      </trkpt>
      <trkpt lat="45.23647" lon="5.33395">
        <ele>472.4</ele>
        <time>2021-05-03T09:15:46Z</time>
      </trkpt>
      <trkpt lat="45.23649" lon="5.33387">
        <ele>472.8</ele>
        <time>2021-05-03T09:15:48Z</time>
      </trkpt>
      <trkpt lat="45.2365" lon="5.33383">
        <ele>473</ele>
        <time>2021-05-03T09:15:49Z</time>
      </trkpt>
      <trkpt lat="45.2365" lon="5.33375">
        <ele>473.3</ele>
        <time>2021-05-03T09:15:51Z</time>
      </trkpt>
      <trkpt lat="45.23651" lon="5.33371">
        <ele>473.5</ele>
        <time>2021-05-03T09:15:52Z</time>
      </trkpt>
      <trkpt lat="45.2365" lon="5.33363">
        <ele>473.8</ele>
        <time>2021-05-03T09:15:54Z</time>
      </trkpt>
      <trkpt lat="45.23649" lon="5.33359">
        <ele>474</ele>
        <time>2021-05-03T09:15:55Z</time>
      </trkpt>
      <trkpt lat="45.23648" lon="5.33355">
        <ele>474.2</ele>
        <time>2021-05-03T09:15:56Z</time>
      </trkpt>
      <trkpt lat="45.23644" lon="5.33351">
        <ele>474.5</ele>
        <time>2021-05-03T09:15:58Z</time>
      </trkpt>
      <trkpt lat="45.23642" lon="5.33349">
        <ele>474.6</ele>
        <time>2021-05-03T09:15:59Z</time>
      </trkpt>
      <trkpt lat="45.23641" lon="5.33347">
        <ele>474.7</ele>
        <time>2021-05-03T09:16:00Z</time>
      </trkpt>
      <trkpt lat="45.23639" lon="5.33344">
        <ele>474.8</ele>
        <time>2021-05-03T09:16:01Z</time>
      </trkpt>
      <trkpt lat="45.23637" lon="5.33342">
        <ele>475</ele>
        <time>2021-05-03T09:16:02Z</time>
      </trkpt>
      <trkpt lat="45.23634" lon="5.33339">
        <ele>475.2</ele>
        <time>2021-05-03T09:16:03Z</time>
      </trkpt>
      <trkpt lat="45.23632" lon="5.33338">
        <ele>475.3</ele>
        <time>2021-05-03T09:16:04Z</time>
      </trkpt>
      <trkpt lat="45.2363" lon="5.33336">
        <ele>475.4</ele>
        <time>2021-05-03T09:16:05Z</time>
      </trkpt>
      <trkpt lat="45.23627" lon="5.33334">
        <ele>475.6</ele>
        <time>2021-05-03T09:16:06Z</time>
      </trkpt>
      <trkpt lat="45.23625" lon="5.33333">
        <ele>475.7</ele>
        <time>2021-05-03T09:16:07Z</time>
      </trkpt>
      <trkpt lat="45.23623" lon="5.33331">
        <ele>475.9</ele>
        <time>2021-05-03T09:16:08Z</time>
      </trkpt>
      <trkpt lat="45.23621" lon="5.33329">
        <ele>476</ele>
        <time>2021-05-03T09:16:09Z</time>
      </trkpt>
      <trkpt lat="45.23618" lon="5.33327">
        <ele>476.2</ele>
        <time>2021-05-03T09:16:10Z</time>
      </trkpt>
      <trkpt lat="45.23616" lon="5.33326">
        <ele>476.3</ele>
        <time>2021-05-03T09:16:11Z</time>
      </trkpt>
      <trkpt lat="45.23613" lon="5.33324">
        <ele>476.5</ele>
        <time>2021-05-03T09:16:12Z</time>
      </trkpt>
      <trkpt lat="45.23612" lon="5.33324">
        <ele>476.5</ele>
        <time>2021-05-03T09:16:13Z</time>
      </trkpt>
      <trkpt lat="45.23608" lon="5.33322">
        <ele>476.8</ele>
        <time>2021-05-03T09:16:14Z</time>
      </trkpt>
      <trkpt lat="45.23607" lon="5.33321">
        <ele>476.8</ele>
        <time>2021-05-03T09:16:15Z</time>
      </trkpt>
      <trkpt lat="45.23603" lon="5.33319">
        <ele>477.1</ele>
        <time>2021-05-03T09:16:16Z</time>
      </trkpt>
      <trkpt lat="45.23602" lon="5.33319">
        <ele>477.1</ele>
        <time>2021-05-03T09:16:17Z</time>
      </trkpt>
      <trkpt lat="45.23598" lon="5.33317">
        <ele>477.3</ele>
        <time>2021-05-03T09:16:18Z</time>
      </trkpt>
      <trkpt lat="45.23597" lon="5.33316">
        <ele>477.4</ele>
        <time>2021-05-03T09:16:19Z</time>
      </trkpt>
      <trkpt lat="45.23594" lon="5.33314">
        <ele>477.6</ele>
        <time>2021-05-03T09:16:20Z</time>
      </trkpt>
      <trkpt lat="45.23593" lon="5.33313">
        <ele>477.7</ele>
        <time>2021-05-03T09:16:21Z</time>
      </trkpt>
      <trkpt lat="45.2359" lon="5.33311">
        <ele>477.8</ele>
        <time>2021-05-03T09:16:22Z</time>
      </trkpt>
      <trkpt lat="45.23589" lon="5.3331">
        <ele>477.9</ele>
        <time>2021-05-03T09:16:23Z</time>
      </trkpt>
      <trkpt lat="45.23586" lon="5.33308">
        <ele>478.1</ele>
        <time>2021-05-03T09:16:24Z</time>
      </trkpt>
      <trkpt lat="45.23586" lon="5.33307">
        <ele>478.1</ele>
        <time>2021-05-03T09:16:25Z</time>
      </trkpt>
      <trkpt lat="45.23582" lon="5.33305">
        <ele>478.4</ele>
        <time>2021-05-03T09:16:26Z</time>
      </trkpt>
      <trkpt lat="45.23581" lon="5.33304">
        <ele>478.5</ele>
        <time>2021-05-03T09:16:27Z</time>
      </trkpt>
      <trkpt lat="45.23576" lon="5.333">
        <ele>478.8</ele>
        <time>2021-05-03T09:16:29Z</time>
      </trkpt>
      <trkpt lat="45.23573" lon="5.33298">
        <ele>478.9</ele>
        <time>2021-05-03T09:16:30Z</time>
      </trkpt>
      <trkpt lat="45.2357" lon="5.33297">
        <ele>479.1</ele>
        <time>2021-05-03T09:16:31Z</time>
      </trkpt>
      <trkpt lat="45.23566" lon="5.33294">
        <ele>479.4</ele>
        <time>2021-05-03T09:16:33Z</time>
      </trkpt>
      <trkpt lat="45.23562" lon="5.3329">
        <ele>479.6</ele>
        <time>2021-05-03T09:16:34Z</time>
      </trkpt>
      <trkpt lat="45.23561" lon="5.33289">
        <ele>479.7</ele>
        <time>2021-05-03T09:16:35Z</time>
      </trkpt>
      <trkpt lat="45.23556" lon="5.33284">
        <ele>480.1</ele>
        <time>2021-05-03T09:16:37Z</time>
      </trkpt>
      <trkpt lat="45.23553" lon="5.33281">
        <ele>480.3</ele>
        <time>2021-05-03T09:16:38Z</time>
      </trkpt>
      <trkpt lat="45.2355" lon="5.33279">
        <ele>480.5</ele>
        <time>2021-05-03T09:16:39Z</time>
      </trkpt>
      <trkpt lat="45.23546" lon="5.33277">
        <ele>480.7</ele>
        <time>2021-05-03T09:16:40Z</time>
      </trkpt>
      <trkpt lat="45.23543" lon="5.33271">
        <ele>481</ele>
        <time>2021-05-03T09:16:42Z</time>
      </trkpt>
      <trkpt lat="45.23539" lon="5.33267">
        <ele>481.3</ele>
        <time>2021-05-03T09:16:44Z</time>
      </trkpt>
      <trkpt lat="45.23537" lon="5.33264">
        <ele>481.5</ele>
        <time>2021-05-03T09:16:45Z</time>
      </trkpt>
      <trkpt lat="45.23535" lon="5.3326">
        <ele>481.7</ele>
        <time>2021-05-03T09:16:46Z</time>
      </trkpt>
      <trkpt lat="45.23531" lon="5.33254">
        <ele>482.1</ele>
        <time>2021-05-03T09:16:48Z</time>
      </trkpt>
      <trkpt lat="45.23529" lon="5.33251">
        <ele>482.3</ele>
        <time>2021-05-03T09:16:49Z</time>
      </trkpt>
      <trkpt lat="45.23527" lon="5.33247">
        <ele>482.5</ele>
        <time>2021-05-03T09:16:50Z</time>
      </trkpt>
      <trkpt lat="45.23525" lon="5.33243">
        <ele>482.7</ele>
        <time>2021-05-03T09:16:51Z</time>
      </trkpt>
      <trkpt lat="45.23523" lon="5.3324">
        <ele>482.9</ele>
        <time>2021-05-03T09:16:52Z</time>
      </trkpt>
      <trkpt lat="45.23521" lon="5.33235">
        <ele>483.2</ele>
        <time>2021-05-03T09:16:54Z</time>
      </trkpt>
      <trkpt lat="45.2352" lon="5.33232">
        <ele>483.3</ele>
        <time>2021-05-03T09:16:55Z</time>
      </trkpt>
      <trkpt lat="45.23518" lon="5.33225">
        <ele>483.6</ele>
        <time>2021-05-03T09:16:56Z</time>
      </trkpt>
      <trkpt lat="45.23518" lon="5.33221">
        <ele>483.8</ele>
        <time>2021-05-03T09:16:58Z</time>
      </trkpt>
      <trkpt lat="45.23517" lon="5.33217">
        <ele>484</ele>
        <time>2021-05-03T09:16:59Z</time>
      </trkpt>
      <trkpt lat="45.23516" lon="5.33214">
        <ele>484.1</ele>
        <time>2021-05-03T09:17:00Z</time>
      </trkpt>
      <trkpt lat="45.23515" lon="5.3321">
        <ele>484.3</ele>
        <time>2021-05-03T09:17:01Z</time>
      </trkpt>
      <trkpt lat="45.23514" lon="5.33204">
        <ele>484.6</ele>
        <time>2021-05-03T09:17:02Z</time>
      </trkpt>
      <trkpt lat="45.23513" lon="5.33202">
        <ele>484.6</ele>
        <time>2021-05-03T09:17:03Z</time>
      </trkpt>
      <trkpt lat="45.23512" lon="5.33196">
        <ele>484.9</ele>
        <time>2021-05-03T09:17:04Z</time>
      </trkpt>
      <trkpt lat="45.23512" lon="5.33194">
        <ele>485</ele>
        <time>2021-05-03T09:17:05Z</time>
      </trkpt>
      <trkpt lat="45.23511" lon="5.3319">
        <ele>485.2</ele>
        <time>2021-05-03T09:17:06Z</time>
      </trkpt>
      <trkpt lat="45.2351" lon="5.33185">
        <ele>485.4</ele>
        <time>2021-05-03T09:17:07Z</time>
      </trkpt>
      <trkpt lat="45.2351" lon="5.33183">
        <ele>485.5</ele>
        <time>2021-05-03T09:17:08Z</time>
      </trkpt>
      <trkpt lat="45.2351" lon="5.33177">
        <ele>485.7</ele>
        <time>2021-05-03T09:17:09Z</time>
      </trkpt>
      <trkpt lat="45.2351" lon="5.33175">
        <ele>485.8</ele>
        <time>2021-05-03T09:17:10Z</time>
      </trkpt>
      <trkpt lat="45.23509" lon="5.3317">
        <ele>486</ele>
        <time>2021-05-03T09:17:11Z</time>
      </trkpt>
      <trkpt lat="45.23509" lon="5.33168">
        <ele>486.1</ele>
        <time>2021-05-03T09:17:12Z</time>
      </trkpt>
      <trkpt lat="45.23509" lon="5.33164">
        <ele>486.3</ele>
        <time>2021-05-03T09:17:13Z</time>
      </trkpt>
      <trkpt lat="45.2351" lon="5.33159">
        <ele>486.5</ele>
        <time>2021-05-03T09:17:14Z</time>
      </trkpt>
      <trkpt lat="45.2351" lon="5.33157">
        <ele>486.6</ele>
        <time>2021-05-03T09:17:15Z</time>
      </trkpt>
      <trkpt lat="45.23511" lon="5.33152">
        <ele>486.8</ele>
        <time>2021-05-03T09:17:16Z</time>
      </trkpt>
      <trkpt lat="45.23511" lon="5.3315">
        <ele>486.9</ele>
        <time>2021-05-03T09:17:17Z</time>
      </trkpt>
      <trkpt lat="45.23513" lon="5.33145">
        <ele>487.1</ele>
        <time>2021-05-03T09:17:18Z</time>
      </trkpt>
      <trkpt lat="45.23513" lon="5.33143">
        <ele>487.2</ele>
        <time>2021-05-03T09:17:19Z</time>
      </trkpt>
      <trkpt lat="45.23514" lon="5.33139">
        <ele>487.4</ele>
        <time>2021-05-03T09:17:20Z</time>
      </trkpt>
      <trkpt lat="45.23515" lon="5.33133">
        <ele>487.6</ele>
        <time>2021-05-03T09:17:21Z</time>
      </trkpt>
      <trkpt lat="45.23515" lon="5.33132">
        <ele>487.7</ele>
        <time>2021-05-03T09:17:22Z</time>
      </trkpt>
      <trkpt lat="45.23517" lon="5.33128">
        <ele>487.9</ele>
        <time>2021-05-03T09:17:23Z</time>
      </trkpt>
      <trkpt lat="45.23518" lon="5.33122">
        <ele>488.2</ele>
        <time>2021-05-03T09:17:24Z</time>
      </trkpt>
      <trkpt lat="45.23518" lon="5.3312">
        <ele>488.3</ele>
        <time>2021-05-03T09:17:25Z</time>
      </trkpt>
      <trkpt lat="45.23519" lon="5.33115">
        <ele>488.5</ele>
        <time>2021-05-03T09:17:26Z</time>
      </trkpt>
      <trkpt lat="45.23519" lon="5.33113">
        <ele>488.6</ele>
        <time>2021-05-03T09:17:27Z</time>
      </trkpt>
      <trkpt lat="45.2352" lon="5.33107">
        <ele>488.8</ele>
        <time>2021-05-03T09:17:28Z</time>
      </trkpt>
      <trkpt lat="45.2352" lon="5.33105">
        <ele>488.9</ele>
        <time>2021-05-03T09:17:29Z</time>
      </trkpt>
      <trkpt lat="45.23521" lon="5.331">
        <ele>489.2</ele>
        <time>2021-05-03T09:17:30Z</time>
      </trkpt>
      <trkpt lat="45.23521" lon="5.33098">
        <ele>489.3</ele>
        <time>2021-05-03T09:17:31Z</time>
      </trkpt>
      <trkpt lat="45.23522" lon="5.33094">
        <ele>489.4</ele>
        <time>2021-05-03T09:17:32Z</time>
      </trkpt>
      <trkpt lat="45.23523" lon="5.3309">
        <ele>489.6</ele>
        <time>2021-05-03T09:17:33Z</time>
      </trkpt>
      <trkpt lat="45.23524" lon="5.33087">
        <ele>489.8</ele>
        <time>2021-05-03T09:17:34Z</time>
      </trkpt>
      <trkpt lat="45.23525" lon="5.33081">
        <ele>490</ele>
        <time>2021-05-03T09:17:35Z</time>
      </trkpt>
      <trkpt lat="45.23525" lon="5.33079">
        <ele>490.1</ele>
        <time>2021-05-03T09:17:36Z</time>
      </trkpt>
      <trkpt lat="45.23525" lon="5.33074">
        <ele>490.3</ele>
        <time>2021-05-03T09:17:37Z</time>
      </trkpt>
      <trkpt lat="45.23525" lon="5.33072">
        <ele>490.4</ele>
        <time>2021-05-03T09:17:38Z</time>
      </trkpt>
      <trkpt lat="45.23525" lon="5.33067">
        <ele>490.6</ele>
        <time>2021-05-03T09:17:39Z</time>
      </trkpt>
      <trkpt lat="45.23525" lon="5.33065">
        <ele>490.7</ele>
        <time>2021-05-03T09:17:40Z</time>
      </trkpt>
      <trkpt lat="45.23525" lon="5.3306">
        <ele>491</ele>
        <time>2021-05-03T09:17:41Z</time>
      </trkpt>
      <trkpt lat="45.23525" lon="5.33058">
        <ele>491</ele>
        <time>2021-05-03T09:17:42Z</time>
      </trkpt>
      <trkpt lat="45.23524" lon="5.33053">
        <ele>491.3</ele>
        <time>2021-05-03T09:17:43Z</time>
      </trkpt>
      <trkpt lat="45.23524" lon="5.33051">
        <ele>491.4</ele>
        <time>2021-05-03T09:17:44Z</time>
      </trkpt>
      <trkpt lat="45.23524" lon="5.33047">
        <ele>491.6</ele>
        <time>2021-05-03T09:17:45Z</time>
      </trkpt>
      <trkpt lat="45.23523" lon="5.33042">
        <ele>491.8</ele>
        <time>2021-05-03T09:17:46Z</time>
      </trkpt>
      <trkpt lat="45.23523" lon="5.3304">
        <ele>491.9</ele>
        <time>2021-05-03T09:17:47Z</time>
      </trkpt>
      <trkpt lat="45.23523" lon="5.33035">
        <ele>492.1</ele>
        <time>2021-05-03T09:17:48Z</time>
      </trkpt>
      <trkpt lat="45.23523" lon="5.33033">
        <ele>492.2</ele>
        <time>2021-05-03T09:17:49Z</time>
      </trkpt>
      <trkpt lat="45.23523" lon="5.33029">
        <ele>492.4</ele>
        <time>2021-05-03T09:17:50Z</time>
      </trkpt>
      <trkpt lat="45.23523" lon="5.33024">
        <ele>492.6</ele>
        <time>2021-05-03T09:17:51Z</time>
      </trkpt>
      <trkpt lat="45.23523" lon="5.33022">
        <ele>492.7</ele>
        <time>2021-05-03T09:17:52Z</time>
      </trkpt>
      <trkpt lat="45.23524" lon="5.33017">
        <ele>492.9</ele>
        <time>2021-05-03T09:17:53Z</time>
      </trkpt>
      <trkpt lat="45.23525" lon="5.33016">
        <ele>493</ele>
        <time>2021-05-03T09:17:54Z</time>
      </trkpt>
      <trkpt lat="45.23526" lon="5.33012">
        <ele>493.2</ele>
        <time>2021-05-03T09:17:55Z</time>
      </trkpt>
      <trkpt lat="45.23528" lon="5.33008">
        <ele>493.4</ele>
        <time>2021-05-03T09:17:56Z</time>
      </trkpt>
      <trkpt lat="45.23529" lon="5.33006">
        <ele>493.5</ele>
        <time>2021-05-03T09:17:57Z</time>
      </trkpt>
      <trkpt lat="45.23531" lon="5.33002">
        <ele>493.8</ele>
        <time>2021-05-03T09:17:58Z</time>
      </trkpt>
      <trkpt lat="45.23532" lon="5.33">
        <ele>493.8</ele>
        <time>2021-05-03T09:17:59Z</time>
      </trkpt>
      <trkpt lat="45.23534" lon="5.32998">
        <ele>494</ele>
        <time>2021-05-03T09:18:00Z</time>
      </trkpt>
      <trkpt lat="45.23537" lon="5.32995">
        <ele>494.2</ele>
        <time>2021-05-03T09:18:01Z</time>
      </trkpt>
      <trkpt lat="45.23538" lon="5.32994">
        <ele>494.3</ele>
        <time>2021-05-03T09:18:02Z</time>
      </trkpt>
      <trkpt lat="45.23541" lon="5.32992">
        <ele>494.5</ele>
        <time>2021-05-03T09:18:03Z</time>
      </trkpt>
      <trkpt lat="45.23543" lon="5.32991">
        <ele>494.6</ele>
        <time>2021-05-03T09:18:04Z</time>
      </trkpt>
      <trkpt lat="45.23546" lon="5.32989">
        <ele>494.9</ele>
        <time>2021-05-03T09:18:05Z</time>
      </trkpt>
      <trkpt lat="45.23547" lon="5.32988">
        <ele>495</ele>
        <time>2021-05-03T09:18:06Z</time>
      </trkpt>
      <trkpt lat="45.23551" lon="5.32986">
        <ele>495.2</ele>
        <time>2021-05-03T09:18:07Z</time>
      </trkpt>
      <trkpt lat="45.23552" lon="5.32986">
        <ele>495.3</ele>
        <time>2021-05-03T09:18:08Z</time>
      </trkpt>
      <trkpt lat="45.23555" lon="5.32983">
        <ele>495.5</ele>
        <time>2021-05-03T09:18:09Z</time>
      </trkpt>
      <trkpt lat="45.23556" lon="5.32982">
        <ele>495.6</ele>
        <time>2021-05-03T09:18:10Z</time>
      </trkpt>
      <trkpt lat="45.2356" lon="5.3298">
        <ele>495.9</ele>
        <time>2021-05-03T09:18:11Z</time>
      </trkpt>
      <trkpt lat="45.23561" lon="5.32979">
        <ele>496</ele>
        <time>2021-05-03T09:18:12Z</time>
      </trkpt>
      <trkpt lat="45.23565" lon="5.32977">
        <ele>496.2</ele>
        <time>2021-05-03T09:18:13Z</time>
      </trkpt>
      <trkpt lat="45.23566" lon="5.32976">
        <ele>496.3</ele>
        <time>2021-05-03T09:18:14Z</time>
      </trkpt>
      <trkpt lat="45.2357" lon="5.32974">
        <ele>496.6</ele>
        <time>2021-05-03T09:18:15Z</time>
      </trkpt>
      <trkpt lat="45.23571" lon="5.32973">
        <ele>496.7</ele>
        <time>2021-05-03T09:18:16Z</time>
      </trkpt>
      <trkpt lat="45.23575" lon="5.32971">
        <ele>496.9</ele>
        <time>2021-05-03T09:18:17Z</time>
      </trkpt>
      <trkpt lat="45.23576" lon="5.3297">
        <ele>497</ele>
        <time>2021-05-03T09:18:18Z</time>
      </trkpt>
      <trkpt lat="45.23579" lon="5.32968">
        <ele>497.2</ele>
        <time>2021-05-03T09:18:19Z</time>
      </trkpt>
      <trkpt lat="45.23582" lon="5.32966">
        <ele>497.4</ele>
        <time>2021-05-03T09:18:20Z</time>
      </trkpt>
      <trkpt lat="45.23585" lon="5.32964">
        <ele>497.6</ele>
        <time>2021-05-03T09:18:21Z</time>
      </trkpt>
      <trkpt lat="45.23587" lon="5.32962">
        <ele>497.8</ele>
        <time>2021-05-03T09:18:22Z</time>
      </trkpt>
      <trkpt lat="45.2359" lon="5.3296">
        <ele>498</ele>
        <time>2021-05-03T09:18:23Z</time>
      </trkpt>
      <trkpt lat="45.23592" lon="5.32958">
        <ele>498.2</ele>
        <time>2021-05-03T09:18:24Z</time>
      </trkpt>
      <trkpt lat="45.23595" lon="5.32956">
        <ele>498.4</ele>
        <time>2021-05-03T09:18:25Z</time>
      </trkpt>
      <trkpt lat="45.23597" lon="5.32954">
        <ele>498.5</ele>
        <time>2021-05-03T09:18:26Z</time>
      </trkpt>
      <trkpt lat="45.23599" lon="5.32952">
        <ele>498.7</ele>
        <time>2021-05-03T09:18:27Z</time>
      </trkpt>
      <trkpt lat="45.23602" lon="5.32949">
        <ele>498.9</ele>
        <time>2021-05-03T09:18:28Z</time>
      </trkpt>
      <trkpt lat="45.23602" lon="5.32947">
        <ele>499</ele>
        <time>2021-05-03T09:18:29Z</time>
      </trkpt>
      <trkpt lat="45.23605" lon="5.32944">
        <ele>499.2</ele>
        <time>2021-05-03T09:18:30Z</time>
      </trkpt>
      <trkpt lat="45.23606" lon="5.32942">
        <ele>499.3</ele>
        <time>2021-05-03T09:18:31Z</time>
      </trkpt>
      <trkpt lat="45.23607" lon="5.32938">
        <ele>499.5</ele>
        <time>2021-05-03T09:18:32Z</time>
      </trkpt>
      <trkpt lat="45.23608" lon="5.32936">
        <ele>499.6</ele>
        <time>2021-05-03T09:18:33Z</time>
      </trkpt>
      <trkpt lat="45.23609" lon="5.32931">
        <ele>499.8</ele>
        <time>2021-05-03T09:18:34Z</time>
      </trkpt>
      <trkpt lat="45.23609" lon="5.32929">
        <ele>499.9</ele>
        <time>2021-05-03T09:18:35Z</time>
      </trkpt>
      <trkpt lat="45.2361" lon="5.32924">
        <ele>500.1</ele>
        <time>2021-05-03T09:18:36Z</time>
      </trkpt>
      <trkpt lat="45.23611" lon="5.32923">
        <ele>500.2</ele>
        <time>2021-05-03T09:18:37Z</time>
      </trkpt>
      <trkpt lat="45.2361" lon="5.32917">
        <ele>500.5</ele>
        <time>2021-05-03T09:18:38Z</time>
      </trkpt>
      <trkpt lat="45.2361" lon="5.32915">
        <ele>500.5</ele>
        <time>2021-05-03T09:18:39Z</time>
      </trkpt>
      <trkpt lat="45.2361" lon="5.3291">
        <ele>500.8</ele>
        <time>2021-05-03T09:18:40Z</time>
      </trkpt>
      <trkpt lat="45.2361" lon="5.32908">
        <ele>500.9</ele>
        <time>2021-05-03T09:18:41Z</time>
      </trkpt>
      <trkpt lat="45.23609" lon="5.32904">
        <ele>501.1</ele>
        <time>2021-05-03T09:18:42Z</time>
      </trkpt>
      <trkpt lat="45.23608" lon="5.32902">
        <ele>501.1</ele>
        <time>2021-05-03T09:18:43Z</time>
      </trkpt>
      <trkpt lat="45.23608" lon="5.32899">
        <ele>501.3</ele>
        <time>2021-05-03T09:18:44Z</time>
      </trkpt>
      <trkpt lat="45.23607" lon="5.32897">
        <ele>501.4</ele>
        <time>2021-05-03T09:18:45Z</time>
      </trkpt>
      <trkpt lat="45.23605" lon="5.32894">
        <ele>501.6</ele>
        <time>2021-05-03T09:18:46Z</time>
      </trkpt>
      <trkpt lat="45.23604" lon="5.32893">
        <ele>501.6</ele>
        <time>2021-05-03T09:18:47Z</time>
      </trkpt>
      <trkpt lat="45.23602" lon="5.3289">
        <ele>501.8</ele>
        <time>2021-05-03T09:18:48Z</time>
      </trkpt>
      <trkpt lat="45.23602" lon="5.32888">
        <ele>501.9</ele>
        <time>2021-05-03T09:18:49Z</time>
      </trkpt>
      <trkpt lat="45.236" lon="5.32885">
        <ele>502.1</ele>
        <time>2021-05-03T09:18:50Z</time>
      </trkpt>
      <trkpt lat="45.23599" lon="5.32884">
        <ele>502.1</ele>
        <time>2021-05-03T09:18:51Z</time>
      </trkpt>
      <trkpt lat="45.23597" lon="5.3288">
        <ele>502.3</ele>
        <time>2021-05-03T09:18:52Z</time>
      </trkpt>
      <trkpt lat="45.23596" lon="5.32878">
        <ele>502.4</ele>
        <time>2021-05-03T09:18:53Z</time>
      </trkpt>
      <trkpt lat="45.23594" lon="5.32874">
        <ele>502.6</ele>
        <time>2021-05-03T09:18:54Z</time>
      </trkpt>
      <trkpt lat="45.23594" lon="5.32873">
        <ele>502.7</ele>
        <time>2021-05-03T09:18:55Z</time>
      </trkpt>
      <trkpt lat="45.23592" lon="5.32869">
        <ele>502.9</ele>
        <time>2021-05-03T09:18:56Z</time>
      </trkpt>
      <trkpt lat="45.23591" lon="5.32867">
        <ele>503</ele>
        <time>2021-05-03T09:18:57Z</time>
      </trkpt>
      <trkpt lat="45.23589" lon="5.32864">
        <ele>503.2</ele>
        <time>2021-05-03T09:18:58Z</time>
      </trkpt>
      <trkpt lat="45.23588" lon="5.32862">
        <ele>503.3</ele>
        <time>2021-05-03T09:18:59Z</time>
      </trkpt>
      <trkpt lat="45.23585" lon="5.32858">
        <ele>503.5</ele>
        <time>2021-05-03T09:19:00Z</time>
      </trkpt>
      <trkpt lat="45.23584" lon="5.32857">
        <ele>503.6</ele>
        <time>2021-05-03T09:19:01Z</time>
      </trkpt>
      <trkpt lat="45.23582" lon="5.32853">
        <ele>503.8</ele>
        <time>2021-05-03T09:19:02Z</time>
      </trkpt>
      <trkpt lat="45.23581" lon="5.32852">
        <ele>503.9</ele>
        <time>2021-05-03T09:19:03Z</time>
      </trkpt>
      <trkpt lat="45.23579" lon="5.32848">
        <ele>504.2</ele>
        <time>2021-05-03T09:19:04Z</time>
      </trkpt>
      <trkpt lat="45.23578" lon="5.32846">
        <ele>504.2</ele>
        <time>2021-05-03T09:19:05Z</time>
      </trkpt>
      <trkpt lat="45.23575" lon="5.32842">
        <ele>504.5</ele>
        <time>2021-05-03T09:19:06Z</time>
      </trkpt>
      <trkpt lat="45.23575" lon="5.3284">
        <ele>504.6</ele>
        <time>2021-05-03T09:19:07Z</time>
      </trkpt>
      <trkpt lat="45.23572" lon="5.32835">
        <ele>504.8</ele>
        <time>2021-05-03T09:19:08Z</time>
      </trkpt>
      <trkpt lat="45.23572" lon="5.32834">
        <ele>504.9</ele>
        <time>2021-05-03T09:19:09Z</time>
      </trkpt>
      <trkpt lat="45.2357" lon="5.3283">
        <ele>505.1</ele>
        <time>2021-05-03T09:19:10Z</time>
      </trkpt>
      <trkpt lat="45.23568" lon="5.32825">
        <ele>505.3</ele>
        <time>2021-05-03T09:19:11Z</time>
      </trkpt>
      <trkpt lat="45.23567" lon="5.32824">
        <ele>505.4</ele>
        <time>2021-05-03T09:19:12Z</time>
      </trkpt>
      <trkpt lat="45.23566" lon="5.3282">
        <ele>505.6</ele>
        <time>2021-05-03T09:19:13Z</time>
      </trkpt>
      <trkpt lat="45.23564" lon="5.32816">
        <ele>505.7</ele>
        <time>2021-05-03T09:19:14Z</time>
      </trkpt>
      <trkpt lat="45.23563" lon="5.32812">
        <ele>505.9</ele>
        <time>2021-05-03T09:19:15Z</time>
      </trkpt>
      <trkpt lat="45.23561" lon="5.32809">
        <ele>506.1</ele>
        <time>2021-05-03T09:19:16Z</time>
      </trkpt>
      <trkpt lat="45.2356" lon="5.32805">
        <ele>506.3</ele>
        <time>2021-05-03T09:19:17Z</time>
      </trkpt>
      <trkpt lat="45.2356" lon="5.32801">
        <ele>506.5</ele>
        <time>2021-05-03T09:19:18Z</time>
      </trkpt>
      <trkpt lat="45.23559" lon="5.32796">
        <ele>506.7</ele>
        <time>2021-05-03T09:19:19Z</time>
      </trkpt>
      <trkpt lat="45.23558" lon="5.32792">
        <ele>506.9</ele>
        <time>2021-05-03T09:19:20Z</time>
      </trkpt>
      <trkpt lat="45.23558" lon="5.32788">
        <ele>507.1</ele>
        <time>2021-05-03T09:19:21Z</time>
      </trkpt>
      <trkpt lat="45.23558" lon="5.32784">
        <ele>507.3</ele>
        <time>2021-05-03T09:19:22Z</time>
      </trkpt>
      <trkpt lat="45.23558" lon="5.32779">
        <ele>507.5</ele>
        <time>2021-05-03T09:19:23Z</time>
      </trkpt>
      <trkpt lat="45.23558" lon="5.32775">
        <ele>507.7</ele>
        <time>2021-05-03T09:19:24Z</time>
      </trkpt>
      <trkpt lat="45.23558" lon="5.32771">
        <ele>507.9</ele>
        <time>2021-05-03T09:19:25Z</time>
      </trkpt>
      <trkpt lat="45.23558" lon="5.32766">
        <ele>508.1</ele>
        <time>2021-05-03T09:19:26Z</time>
      </trkpt>
      <trkpt lat="45.23559" lon="5.32763">
        <ele>508.3</ele>
        <time>2021-05-03T09:19:27Z</time>
      </trkpt>
      <trkpt lat="45.23559" lon="5.32759">
        <ele>508.5</ele>
        <time>2021-05-03T09:19:28Z</time>
      </trkpt>
      <trkpt lat="45.23559" lon="5.32755">
        <ele>508.7</ele>
        <time>2021-05-03T09:19:29Z</time>
      </trkpt>
      <trkpt lat="45.2356" lon="5.3275">
        <ele>508.9</ele>
        <time>2021-05-03T09:19:30Z</time>
      </trkpt>
      <trkpt lat="45.2356" lon="5.32747">
        <ele>509.1</ele>
        <time>2021-05-03T09:19:31Z</time>
      </trkpt>
      <trkpt lat="45.2356" lon="5.32741">
        <ele>509.4</ele>
        <time>2021-05-03T09:19:32Z</time>
      </trkpt>
      <trkpt lat="45.2356" lon="5.32739">
        <ele>509.5</ele>
        <time>2021-05-03T09:19:33Z</time>
      </trkpt>
      <trkpt lat="45.2356" lon="5.32735">
        <ele>509.6</ele>
        <time>2021-05-03T09:19:34Z</time>
      </trkpt>
      <trkpt lat="45.23561" lon="5.3273">
        <ele>509.9</ele>
        <time>2021-05-03T09:19:35Z</time>
      </trkpt>
      <trkpt lat="45.23561" lon="5.32728">
        <ele>510</ele>
        <time>2021-05-03T09:19:36Z</time>
      </trkpt>
      <trkpt lat="45.23561" lon="5.32723">
        <ele>510.2</ele>
        <time>2021-05-03T09:19:37Z</time>
      </trkpt>
      <trkpt lat="45.23561" lon="5.32721">
        <ele>510.3</ele>
        <time>2021-05-03T09:19:38Z</time>
      </trkpt>
      <trkpt lat="45.23561" lon="5.32716">
        <ele>510.5</ele>
        <time>2021-05-03T09:19:39Z</time>
      </trkpt>
      <trkpt lat="45.23561" lon="5.32714">
        <ele>510.6</ele>
        <time>2021-05-03T09:19:40Z</time>
      </trkpt>
      <trkpt lat="45.23561" lon="5.32708">
        <ele>510.9</ele>
        <time>2021-05-03T09:19:41Z</time>
      </trkpt>
      <trkpt lat="45.23562" lon="5.32707">
        <ele>510.9</ele>
        <time>2021-05-03T09:19:42Z</time>
      </trkpt>
      <trkpt lat="45.23562" lon="5.32703">
        <ele>511.1</ele>
        <time>2021-05-03T09:19:43Z</time>
      </trkpt>
      <trkpt lat="45.23562" lon="5.32697">
        <ele>511.3</ele>
        <time>2021-05-03T09:19:44Z</time>
      </trkpt>
      <trkpt lat="45.23562" lon="5.32695">
        <ele>511.4</ele>
        <time>2021-05-03T09:19:45Z</time>
      </trkpt>
      <trkpt lat="45.23562" lon="5.3269">
        <ele>511.7</ele>
        <time>2021-05-03T09:19:46Z</time>
      </trkpt>
      <trkpt lat="45.23562" lon="5.32688">
        <ele>511.8</ele>
        <time>2021-05-03T09:19:47Z</time>
      </trkpt>
      <trkpt lat="45.23563" lon="5.32683">
        <ele>512</ele>
        <time>2021-05-03T09:19:48Z</time>
      </trkpt>
      <trkpt lat="45.23563" lon="5.32679">
        <ele>512.2</ele>
        <time>2021-05-03T09:19:49Z</time>
      </trkpt>
      <trkpt lat="45.23563" lon="5.32674">
        <ele>512.4</ele>
        <time>2021-05-03T09:19:50Z</time>
      </trkpt>
      <trkpt lat="45.23563" lon="5.32672">
        <ele>512.5</ele>
        <time>2021-05-03T09:19:51Z</time>
      </trkpt>
      <trkpt lat="45.23564" lon="5.32666">
        <ele>512.7</ele>
        <time>2021-05-03T09:19:52Z</time>
      </trkpt>
      <trkpt lat="45.23564" lon="5.32664">
        <ele>512.8</ele>
        <time>2021-05-03T09:19:53Z</time>
      </trkpt>
      <trkpt lat="45.23564" lon="5.32658">
        <ele>513.1</ele>
        <time>2021-05-03T09:19:54Z</time>
      </trkpt>
      <trkpt lat="45.23564" lon="5.32656">
        <ele>513.2</ele>
        <time>2021-05-03T09:19:55Z</time>
      </trkpt>
      <trkpt lat="45.23564" lon="5.3265">
        <ele>513.4</ele>
        <time>2021-05-03T09:19:56Z</time>
      </trkpt>
      <trkpt lat="45.23564" lon="5.32648">
        <ele>513.5</ele>
        <time>2021-05-03T09:19:57Z</time>
      </trkpt>
      <trkpt lat="45.23565" lon="5.32643">
        <ele>513.7</ele>
        <time>2021-05-03T09:19:58Z</time>
      </trkpt>
      <trkpt lat="45.23565" lon="5.32641">
        <ele>513.8</ele>
        <time>2021-05-03T09:19:59Z</time>
      </trkpt>
      <trkpt lat="45.23564" lon="5.32637">
        <ele>514</ele>
        <time>2021-05-03T09:20:00Z</time>
      </trkpt>
      <trkpt lat="45.23564" lon="5.32635">
        <ele>514.1</ele>
        <time>2021-05-03T09:20:01Z</time>
      </trkpt>
      <trkpt lat="45.23564" lon="5.3263">
        <ele>514.3</ele>
        <time>2021-05-03T09:20:02Z</time>
      </trkpt>
      <trkpt lat="45.23563" lon="5.32629">
        <ele>514.4</ele>
        <time>2021-05-03T09:20:03Z</time>
      </trkpt>
      <trkpt lat="45.23562" lon="5.32624">
        <ele>514.6</ele>
        <time>2021-05-03T09:20:04Z</time>
      </trkpt>
      <trkpt lat="45.23562" lon="5.32622">
        <ele>514.7</ele>
        <time>2021-05-03T09:20:05Z</time>
      </trkpt>
      <trkpt lat="45.23561" lon="5.32617">
        <ele>514.9</ele>
        <time>2021-05-03T09:20:06Z</time>
      </trkpt>
      <trkpt lat="45.23561" lon="5.32615">
        <ele>515</ele>
        <time>2021-05-03T09:20:07Z</time>
      </trkpt>
      <trkpt lat="45.23559" lon="5.32611">
        <ele>515.2</ele>
        <time>2021-05-03T09:20:08Z</time>
      </trkpt>
      <trkpt lat="45.23558" lon="5.32609">
        <ele>515.3</ele>
        <time>2021-05-03T09:20:09Z</time>
      </trkpt>
      <trkpt lat="45.23557" lon="5.32604">
        <ele>515.5</ele>
        <time>2021-05-03T09:20:10Z</time>
      </trkpt>
      <trkpt lat="45.23556" lon="5.32603">
        <ele>515.6</ele>
        <time>2021-05-03T09:20:11Z</time>
      </trkpt>
      <trkpt lat="45.23555" lon="5.32599">
        <ele>515.8</ele>
        <time>2021-05-03T09:20:12Z</time>
      </trkpt>
      <trkpt lat="45.23555" lon="5.32597">
        <ele>515.8</ele>
        <time>2021-05-03T09:20:13Z</time>
      </trkpt>
      <trkpt lat="45.23554" lon="5.32592">
        <ele>516</ele>
        <time>2021-05-03T09:20:14Z</time>
      </trkpt>
      <trkpt lat="45.23554" lon="5.32591">
        <ele>516.1</ele>
        <time>2021-05-03T09:20:15Z</time>
      </trkpt>
      <trkpt lat="45.23553" lon="5.32586">
        <ele>516.3</ele>
        <time>2021-05-03T09:20:16Z</time>
      </trkpt>
      <trkpt lat="45.23552" lon="5.32585">
        <ele>516.4</ele>
        <time>2021-05-03T09:20:17Z</time>
      </trkpt>
      <trkpt lat="45.23551" lon="5.3258">
        <ele>516.6</ele>
        <time>2021-05-03T09:20:18Z</time>
      </trkpt>
      <trkpt lat="45.2355" lon="5.32578">
        <ele>516.7</ele>
        <time>2021-05-03T09:20:19Z</time>
      </trkpt>
      <trkpt lat="45.23548" lon="5.32573">
        <ele>516.9</ele>
        <time>2021-05-03T09:20:20Z</time>
      </trkpt>
      <trkpt lat="45.23547" lon="5.32572">
        <ele>517</ele>
        <time>2021-05-03T09:20:21Z</time>
      </trkpt>
      <trkpt lat="45.23545" lon="5.32568">
        <ele>517.2</ele>
        <time>2021-05-03T09:20:22Z</time>
      </trkpt>
      <trkpt lat="45.23544" lon="5.32565">
        <ele>517.4</ele>
        <time>2021-05-03T09:20:23Z</time>
      </trkpt>
      <trkpt lat="45.23542" lon="5.32561">
        <ele>517.6</ele>
        <time>2021-05-03T09:20:24Z</time>
      </trkpt>
      <trkpt lat="45.23541" lon="5.32559">
        <ele>517.7</ele>
        <time>2021-05-03T09:20:25Z</time>
      </trkpt>
      <trkpt lat="45.23539" lon="5.32556">
        <ele>517.8</ele>
        <time>2021-05-03T09:20:26Z</time>
      </trkpt>
      <trkpt lat="45.23537" lon="5.32553">
        <ele>518</ele>
        <time>2021-05-03T09:20:27Z</time>
      </trkpt>
      <trkpt lat="45.23535" lon="5.3255">
        <ele>518.2</ele>
        <time>2021-05-03T09:20:28Z</time>
      </trkpt>
      <trkpt lat="45.23532" lon="5.32546">
        <ele>518.4</ele>
        <time>2021-05-03T09:20:29Z</time>
      </trkpt>
      <trkpt lat="45.23531" lon="5.32545">
        <ele>518.5</ele>
        <time>2021-05-03T09:20:30Z</time>
      </trkpt>
      <trkpt lat="45.23529" lon="5.32542">
        <ele>518.7</ele>
        <time>2021-05-03T09:20:31Z</time>
      </trkpt>
      <trkpt lat="45.23527" lon="5.32539">
        <ele>518.8</ele>
        <time>2021-05-03T09:20:32Z</time>
      </trkpt>
      <trkpt lat="45.23525" lon="5.32536">
        <ele>519</ele>
        <time>2021-05-03T09:20:33Z</time>
      </trkpt>
      <trkpt lat="45.23523" lon="5.32531">
        <ele>519.2</ele>
        <time>2021-05-03T09:20:34Z</time>
      </trkpt>
      <trkpt lat="45.23523" lon="5.3253">
        <ele>519.3</ele>
        <time>2021-05-03T09:20:35Z</time>
      </trkpt>
      <trkpt lat="45.23521" lon="5.32527">
        <ele>519.5</ele>
        <time>2021-05-03T09:20:36Z</time>
      </trkpt>
      <trkpt lat="45.23519" lon="5.32524">
        <ele>519.7</ele>
        <time>2021-05-03T09:20:37Z</time>
      </trkpt>
      <trkpt lat="45.23517" lon="5.32519">
        <ele>519.9</ele>
        <time>2021-05-03T09:20:38Z</time>
      </trkpt>
      <trkpt lat="45.23516" lon="5.32517">
        <ele>520</ele>
        <time>2021-05-03T09:20:39Z</time>
      </trkpt>
      <trkpt lat="45.23514" lon="5.32514">
        <ele>520.2</ele>
        <time>2021-05-03T09:20:40Z</time>
      </trkpt>
      <trkpt lat="45.23512" lon="5.32509">
        <ele>520.4</ele>
        <time>2021-05-03T09:20:41Z</time>
      </trkpt>
      <trkpt lat="45.23511" lon="5.32508">
        <ele>520.5</ele>
        <time>2021-05-03T09:20:42Z</time>
      </trkpt>
      <trkpt lat="45.23509" lon="5.32505">
        <ele>520.7</ele>
        <time>2021-05-03T09:20:43Z</time>
      </trkpt>
      <trkpt lat="45.23508" lon="5.325">
        <ele>520.9</ele>
        <time>2021-05-03T09:20:44Z</time>
      </trkpt>
      <trkpt lat="45.23507" lon="5.32498">
        <ele>521</ele>
        <time>2021-05-03T09:20:45Z</time>
      </trkpt>
      <trkpt lat="45.23507" lon="5.32494">
        <ele>521.2</ele>
        <time>2021-05-03T09:20:46Z</time>
      </trkpt>
      <trkpt lat="45.23506" lon="5.32492">
        <ele>521.3</ele>
        <time>2021-05-03T09:20:47Z</time>
      </trkpt>
      <trkpt lat="45.23506" lon="5.32487">
        <ele>521.6</ele>
        <time>2021-05-03T09:20:48Z</time>
      </trkpt>
      <trkpt lat="45.23506" lon="5.32485">
        <ele>521.6</ele>
        <time>2021-05-03T09:20:49Z</time>
      </trkpt>
      <trkpt lat="45.23507" lon="5.32481">
        <ele>521.8</ele>
        <time>2021-05-03T09:20:50Z</time>
      </trkpt>
      <trkpt lat="45.23508" lon="5.32476">
        <ele>522.1</ele>
        <time>2021-05-03T09:20:51Z</time>
      </trkpt>
      <trkpt lat="45.23508" lon="5.32474">
        <ele>522.1</ele>
        <time>2021-05-03T09:20:52Z</time>
      </trkpt>
      <trkpt lat="45.2351" lon="5.32471">
        <ele>522.3</ele>
        <time>2021-05-03T09:20:53Z</time>
      </trkpt>
      <trkpt lat="45.23513" lon="5.32467">
        <ele>522.6</ele>
        <time>2021-05-03T09:20:54Z</time>
      </trkpt>
      <trkpt lat="45.23514" lon="5.32465">
        <ele>522.7</ele>
        <time>2021-05-03T09:20:55Z</time>
      </trkpt>
      <trkpt lat="45.23517" lon="5.32463">
        <ele>522.9</ele>
        <time>2021-05-03T09:20:56Z</time>
      </trkpt>
      <trkpt lat="45.23518" lon="5.32462">
        <ele>522.9</ele>
        <time>2021-05-03T09:20:57Z</time>
      </trkpt>
      <trkpt lat="45.23521" lon="5.3246">
        <ele>523.1</ele>
        <time>2021-05-03T09:20:58Z</time>
      </trkpt>
      <trkpt lat="45.23524" lon="5.32458">
        <ele>523.4</ele>
        <time>2021-05-03T09:20:59Z</time>
      </trkpt>
      <trkpt lat="45.23525" lon="5.32457">
        <ele>523.5</ele>
        <time>2021-05-03T09:21:00Z</time>
      </trkpt>
      <trkpt lat="45.23528" lon="5.32456">
        <ele>523.6</ele>
        <time>2021-05-03T09:21:01Z</time>
      </trkpt>
      <trkpt lat="45.23532" lon="5.32454">
        <ele>523.9</ele>
        <time>2021-05-03T09:21:02Z</time>
      </trkpt>
      <trkpt lat="45.23533" lon="5.32454">
        <ele>524</ele>
        <time>2021-05-03T09:21:03Z</time>
      </trkpt>
      <trkpt lat="45.23536" lon="5.32453">
        <ele>524.2</ele>
        <time>2021-05-03T09:21:04Z</time>
      </trkpt>
      <trkpt lat="45.23537" lon="5.32452">
        <ele>524.3</ele>
        <time>2021-05-03T09:21:05Z</time>
      </trkpt>
      <trkpt lat="45.23541" lon="5.32451">
        <ele>524.6</ele>
        <time>2021-05-03T09:21:06Z</time>
      </trkpt>
      <trkpt lat="45.23542" lon="5.32451">
        <ele>524.7</ele>
        <time>2021-05-03T09:21:07Z</time>
      </trkpt>
      <trkpt lat="45.23546" lon="5.3245">
        <ele>524.9</ele>
        <time>2021-05-03T09:21:08Z</time>
      </trkpt>
      <trkpt lat="45.23547" lon="5.3245">
        <ele>525</ele>
        <time>2021-05-03T09:21:09Z</time>
      </trkpt>
      <trkpt lat="45.23551" lon="5.32449">
        <ele>525.3</ele>
        <time>2021-05-03T09:21:10Z</time>
      </trkpt>
      <trkpt lat="45.23552" lon="5.32448">
        <ele>525.3</ele>
        <time>2021-05-03T09:21:11Z</time>
      </trkpt>
      <trkpt lat="45.23555" lon="5.32448">
        <ele>525.6</ele>
        <time>2021-05-03T09:21:12Z</time>
      </trkpt>
      <trkpt lat="45.23557" lon="5.32447">
        <ele>525.7</ele>
        <time>2021-05-03T09:21:13Z</time>
      </trkpt>
      <trkpt lat="45.2356" lon="5.32447">
        <ele>525.9</ele>
        <time>2021-05-03T09:21:14Z</time>
      </trkpt>
      <trkpt lat="45.23562" lon="5.32447">
        <ele>526</ele>
        <time>2021-05-03T09:21:15Z</time>
      </trkpt>
      <trkpt lat="45.23566" lon="5.32446">
        <ele>526.3</ele>
        <time>2021-05-03T09:21:16Z</time>
      </trkpt>
      <trkpt lat="45.23567" lon="5.32445">
        <ele>526.4</ele>
        <time>2021-05-03T09:21:17Z</time>
      </trkpt>
      <trkpt lat="45.2357" lon="5.32445">
        <ele>526.6</ele>
        <time>2021-05-03T09:21:18Z</time>
      </trkpt>
      <trkpt lat="45.23573" lon="5.32444">
        <ele>526.8</ele>
        <time>2021-05-03T09:21:19Z</time>
      </trkpt>
      <trkpt lat="45.23577" lon="5.32442">
        <ele>527</ele>
        <time>2021-05-03T09:21:20Z</time>
      </trkpt>
      <trkpt lat="45.23578" lon="5.32441">
        <ele>527.1</ele>
        <time>2021-05-03T09:21:21Z</time>
      </trkpt>
      <trkpt lat="45.23581" lon="5.3244">
        <ele>527.4</ele>
        <time>2021-05-03T09:21:22Z</time>
      </trkpt>
      <trkpt lat="45.23582" lon="5.32439">
        <ele>527.4</ele>
        <time>2021-05-03T09:21:23Z</time>
      </trkpt>
      <trkpt lat="45.23586" lon="5.32437">
        <ele>527.7</ele>
        <time>2021-05-03T09:21:24Z</time>
      </trkpt>
      <trkpt lat="45.23587" lon="5.32437">
        <ele>527.8</ele>
        <time>2021-05-03T09:21:25Z</time>
      </trkpt>
      <trkpt lat="45.2359" lon="5.32435">
        <ele>527.9</ele>
        <time>2021-05-03T09:21:26Z</time>
      </trkpt>
      <trkpt lat="45.23592" lon="5.32434">
        <ele>528.1</ele>
        <time>2021-05-03T09:21:27Z</time>
      </trkpt>
      <trkpt lat="45.23595" lon="5.32431">
        <ele>528.4</ele>
        <time>2021-05-03T09:21:28Z</time>
      </trkpt>
      <trkpt lat="45.23596" lon="5.3243">
        <ele>528.4</ele>
        <time>2021-05-03T09:21:29Z</time>
      </trkpt>
      <trkpt lat="45.236" lon="5.32428">
        <ele>528.7</ele>
        <time>2021-05-03T09:21:30Z</time>
      </trkpt>
      <trkpt lat="45.23601" lon="5.32427">
        <ele>528.8</ele>
        <time>2021-05-03T09:21:31Z</time>
      </trkpt>
      <trkpt lat="45.23604" lon="5.32424">
        <ele>529</ele>
        <time>2021-05-03T09:21:32Z</time>
      </trkpt>
      <trkpt lat="45.23605" lon="5.32423">
        <ele>529.1</ele>
        <time>2021-05-03T09:21:33Z</time>
      </trkpt>
      <trkpt lat="45.23608" lon="5.3242">
        <ele>529.3</ele>
        <time>2021-05-03T09:21:34Z</time>
      </trkpt>
      <trkpt lat="45.2361" lon="5.32418">
        <ele>529.4</ele>
        <time>2021-05-03T09:21:35Z</time>
      </trkpt>
      <trkpt lat="45.23613" lon="5.32415">
        <ele>529.7</ele>
        <time>2021-05-03T09:21:36Z</time>
      </trkpt>
      <trkpt lat="45.23614" lon="5.32414">
        <ele>529.8</ele>
        <time>2021-05-03T09:21:37Z</time>
      </trkpt>
      <trkpt lat="45.23617" lon="5.32411">
        <ele>530</ele>
        <time>2021-05-03T09:21:38Z</time>
      </trkpt>
      <trkpt lat="45.23618" lon="5.3241">
        <ele>530.1</ele>
        <time>2021-05-03T09:21:39Z</time>
      </trkpt>
      <trkpt lat="45.23621" lon="5.32407">
        <ele>530.3</ele>
        <time>2021-05-03T09:21:40Z</time>
      </trkpt>
      <trkpt lat="45.23622" lon="5.32406">
        <ele>530.4</ele>
        <time>2021-05-03T09:21:41Z</time>
      </trkpt>
      <trkpt lat="45.23625" lon="5.32404">
        <ele>530.6</ele>
        <time>2021-05-03T09:21:42Z</time>
      </trkpt>
      <trkpt lat="45.23628" lon="5.32402">
        <ele>530.8</ele>
        <time>2021-05-03T09:21:43Z</time>
      </trkpt>
      <trkpt lat="45.23629" lon="5.32401">
        <ele>530.9</ele>
        <time>2021-05-03T09:21:44Z</time>
      </trkpt>
      <trkpt lat="45.23633" lon="5.32399">
        <ele>531.1</ele>
        <time>2021-05-03T09:21:45Z</time>
      </trkpt>
      <trkpt lat="45.23634" lon="5.32399">
        <ele>531.2</ele>
        <time>2021-05-03T09:21:46Z</time>
      </trkpt>
      <trkpt lat="45.23637" lon="5.32397">
        <ele>531.4</ele>
        <time>2021-05-03T09:21:47Z</time>
      </trkpt>
      <trkpt lat="45.23638" lon="5.32396">
        <ele>531.5</ele>
        <time>2021-05-03T09:21:48Z</time>
      </trkpt>
      <trkpt lat="45.23641" lon="5.32395">
        <ele>531.8</ele>
        <time>2021-05-03T09:21:49Z</time>
      </trkpt>
      <trkpt lat="45.23643" lon="5.32394">
        <ele>531.8</ele>
        <time>2021-05-03T09:21:50Z</time>
      </trkpt>
      <trkpt lat="45.23646" lon="5.32392">
        <ele>532.1</ele>
        <time>2021-05-03T09:21:51Z</time>
      </trkpt>
      <trkpt lat="45.23646" lon="5.32391">
        <ele>532.1</ele>
        <time>2021-05-03T09:21:52Z</time>
      </trkpt>
      <trkpt lat="45.23649" lon="5.32389">
        <ele>532.3</ele>
        <time>2021-05-03T09:21:53Z</time>
      </trkpt>
      <trkpt lat="45.23651" lon="5.32389">
        <ele>532.4</ele>
        <time>2021-05-03T09:21:54Z</time>
      </trkpt>
      <trkpt lat="45.23654" lon="5.32387">
        <ele>532.6</ele>
        <time>2021-05-03T09:21:55Z</time>
      </trkpt>
      <trkpt lat="45.23655" lon="5.32386">
        <ele>532.7</ele>
        <time>2021-05-03T09:21:56Z</time>
      </trkpt>
      <trkpt lat="45.23657" lon="5.32384">
        <ele>532.9</ele>
        <time>2021-05-03T09:21:57Z</time>
      </trkpt>
      <trkpt lat="45.23661" lon="5.3238">
        <ele>533.1</ele>
        <time>2021-05-03T09:21:58Z</time>
      </trkpt>
      <trkpt lat="45.23661" lon="5.32379">
        <ele>533.2</ele>
        <time>2021-05-03T09:21:59Z</time>
      </trkpt>
      <trkpt lat="45.23663" lon="5.32376">
        <ele>533.3</ele>
        <time>2021-05-03T09:22:00Z</time>
      </trkpt>
      <trkpt lat="45.23665" lon="5.32374">
        <ele>533.5</ele>
        <time>2021-05-03T09:22:01Z</time>
      </trkpt>
      <trkpt lat="45.23667" lon="5.3237">
        <ele>533.7</ele>
        <time>2021-05-03T09:22:02Z</time>
      </trkpt>
      <trkpt lat="45.23669" lon="5.32367">
        <ele>533.8</ele>
        <time>2021-05-03T09:22:03Z</time>
      </trkpt>
      <trkpt lat="45.23671" lon="5.32364">
        <ele>534</ele>
        <time>2021-05-03T09:22:04Z</time>
      </trkpt>
      <trkpt lat="45.23673" lon="5.3236">
        <ele>534.2</ele>
        <time>2021-05-03T09:22:05Z</time>
      </trkpt>
      <trkpt lat="45.23674" lon="5.32357">
        <ele>534.3</ele>
        <time>2021-05-03T09:22:06Z</time>
      </trkpt>
      <trkpt lat="45.23676" lon="5.32353">
        <ele>534.5</ele>
        <time>2021-05-03T09:22:07Z</time>
      </trkpt>
      <trkpt lat="45.23678" lon="5.3235">
        <ele>534.7</ele>
        <time>2021-05-03T09:22:08Z</time>
      </trkpt>
      <trkpt lat="45.2368" lon="5.32346">
        <ele>534.8</ele>
        <time>2021-05-03T09:22:09Z</time>
      </trkpt>
      <trkpt lat="45.23681" lon="5.32341">
        <ele>535</ele>
        <time>2021-05-03T09:22:10Z</time>
      </trkpt>
      <trkpt lat="45.23683" lon="5.32338">
        <ele>535.1</ele>
        <time>2021-05-03T09:22:11Z</time>
      </trkpt>
      <trkpt lat="45.23684" lon="5.32334">
        <ele>535.3</ele>
        <time>2021-05-03T09:22:12Z</time>
      </trkpt>
      <trkpt lat="45.23685" lon="5.3233">
        <ele>535.4</ele>
        <time>2021-05-03T09:22:13Z</time>
      </trkpt>
      <trkpt lat="45.23685" lon="5.32325">
        <ele>535.6</ele>
        <time>2021-05-03T09:22:14Z</time>
      </trkpt>
      <trkpt lat="45.23685" lon="5.32321">
        <ele>535.7</ele>
        <time>2021-05-03T09:22:15Z</time>
      </trkpt>
      <trkpt lat="45.23686" lon="5.32317">
        <ele>535.8</ele>
        <time>2021-05-03T09:22:16Z</time>
      </trkpt>
      <trkpt lat="45.23685" lon="5.32313">
        <ele>536</ele>
        <time>2021-05-03T09:22:17Z</time>
      </trkpt>
      <trkpt lat="45.23684" lon="5.32309">
        <ele>536.1</ele>
        <time>2021-05-03T09:22:18Z</time>
      </trkpt>
      <trkpt lat="45.23683" lon="5.32305">
        <ele>536.2</ele>
        <time>2021-05-03T09:22:19Z</time>
      </trkpt>
      <trkpt lat="45.23681" lon="5.32302">
        <ele>536.4</ele>
        <time>2021-05-03T09:22:20Z</time>
      </trkpt>
      <trkpt lat="45.23679" lon="5.32298">
        <ele>536.5</ele>
        <time>2021-05-03T09:22:21Z</time>
      </trkpt>
      <trkpt lat="45.23677" lon="5.32295">
        <ele>536.6</ele>
        <time>2021-05-03T09:22:22Z</time>
      </trkpt>
      <trkpt lat="45.23675" lon="5.32292">
        <ele>536.8</ele>
        <time>2021-05-03T09:22:23Z</time>
      </trkpt>
      <trkpt lat="45.23672" lon="5.32289">
        <ele>536.9</ele>
        <time>2021-05-03T09:22:24Z</time>
      </trkpt>
      <trkpt lat="45.2367" lon="5.32287">
        <ele>537.1</ele>
        <time>2021-05-03T09:22:25Z</time>
      </trkpt>
      <trkpt lat="45.23667" lon="5.32285">
        <ele>537.3</ele>
        <time>2021-05-03T09:22:26Z</time>
      </trkpt>
      <trkpt lat="45.23665" lon="5.32283">
        <ele>537.4</ele>
        <time>2021-05-03T09:22:27Z</time>
      </trkpt>
      <trkpt lat="45.23662" lon="5.32282">
        <ele>537.5</ele>
        <time>2021-05-03T09:22:28Z</time>
      </trkpt>
      <trkpt lat="45.23659" lon="5.32281">
        <ele>537.6</ele>
        <time>2021-05-03T09:22:29Z</time>
      </trkpt>
      <trkpt lat="45.23656" lon="5.3228">
        <ele>537.8</ele>
        <time>2021-05-03T09:22:30Z</time>
      </trkpt>
      <trkpt lat="45.23654" lon="5.3228">
        <ele>537.9</ele>
        <time>2021-05-03T09:22:31Z</time>
      </trkpt>
      <trkpt lat="45.23651" lon="5.3228">
        <ele>538.1</ele>
        <time>2021-05-03T09:22:32Z</time>
      </trkpt>
      <trkpt lat="45.23648" lon="5.3228">
        <ele>538.2</ele>
        <time>2021-05-03T09:22:33Z</time>
      </trkpt>
      <trkpt lat="45.23644" lon="5.32279">
        <ele>538.4</ele>
        <time>2021-05-03T09:22:34Z</time>
      </trkpt>
      <trkpt lat="45.23643" lon="5.32279">
        <ele>538.5</ele>
        <time>2021-05-03T09:22:35Z</time>
      </trkpt>
      <trkpt lat="45.2364" lon="5.32279">
        <ele>538.6</ele>
        <time>2021-05-03T09:22:36Z</time>
      </trkpt>
      <trkpt lat="45.23636" lon="5.32279">
        <ele>538.9</ele>
        <time>2021-05-03T09:22:37Z</time>
      </trkpt>
      <trkpt lat="45.23634" lon="5.32278">
        <ele>538.9</ele>
        <time>2021-05-03T09:22:38Z</time>
      </trkpt>
      <trkpt lat="45.23631" lon="5.32277">
        <ele>539.1</ele>
        <time>2021-05-03T09:22:39Z</time>
      </trkpt>
      <trkpt lat="45.23628" lon="5.32275">
        <ele>539.3</ele>
        <time>2021-05-03T09:22:40Z</time>
      </trkpt>
      <trkpt lat="45.23626" lon="5.32273">
        <ele>539.5</ele>
        <time>2021-05-03T09:22:41Z</time>
      </trkpt>
      <trkpt lat="45.23622" lon="5.3227">
        <ele>539.8</ele>
        <time>2021-05-03T09:22:42Z</time>
      </trkpt>
      <trkpt lat="45.23621" lon="5.32269">
        <ele>539.8</ele>
        <time>2021-05-03T09:22:43Z</time>
      </trkpt>
      <trkpt lat="45.23618" lon="5.32264">
        <ele>540.1</ele>
        <time>2021-05-03T09:22:44Z</time>
      </trkpt>
      <trkpt lat="45.23618" lon="5.32263">
        <ele>540.2</ele>
        <time>2021-05-03T09:22:45Z</time>
      </trkpt>
      <trkpt lat="45.23616" lon="5.32259">
        <ele>540.4</ele>
        <time>2021-05-03T09:22:46Z</time>
      </trkpt>
      <trkpt lat="45.23615" lon="5.32253">
        <ele>540.7</ele>
        <time>2021-05-03T09:22:47Z</time>
      </trkpt>
      <trkpt lat="45.23615" lon="5.32251">
        <ele>540.8</ele>
        <time>2021-05-03T09:22:48Z</time>
      </trkpt>
      <trkpt lat="45.23614" lon="5.32247">
        <ele>540.9</ele>
        <time>2021-05-03T09:22:49Z</time>
      </trkpt>
      <trkpt lat="45.23614" lon="5.32243">
        <ele>541.1</ele>
        <time>2021-05-03T09:22:50Z</time>
      </trkpt>
      <trkpt lat="45.23615" lon="5.32237">
        <ele>541.4</ele>
        <time>2021-05-03T09:22:51Z</time>
      </trkpt>
      <trkpt lat="45.23615" lon="5.32236">
        <ele>541.4</ele>
        <time>2021-05-03T09:22:52Z</time>
      </trkpt>
      <trkpt lat="45.23617" lon="5.3223">
        <ele>541.7</ele>
        <time>2021-05-03T09:22:53Z</time>
      </trkpt>
      <trkpt lat="45.23618" lon="5.32228">
        <ele>541.8</ele>
        <time>2021-05-03T09:22:54Z</time>
      </trkpt>
      <trkpt lat="45.23619" lon="5.32223">
        <ele>542</ele>
        <time>2021-05-03T09:22:55Z</time>
      </trkpt>
      <trkpt lat="45.2362" lon="5.32221">
        <ele>542.1</ele>
        <time>2021-05-03T09:22:56Z</time>
      </trkpt>
      <trkpt lat="45.23621" lon="5.32217">
        <ele>542.3</ele>
        <time>2021-05-03T09:22:57Z</time>
      </trkpt>
      <trkpt lat="45.23622" lon="5.32214">
        <ele>542.4</ele>
        <time>2021-05-03T09:22:58Z</time>
      </trkpt>
      <trkpt lat="45.23623" lon="5.32209">
        <ele>542.6</ele>
        <time>2021-05-03T09:22:59Z</time>
      </trkpt>
      <trkpt lat="45.23624" lon="5.32207">
        <ele>542.7</ele>
        <time>2021-05-03T09:23:00Z</time>
      </trkpt>
      <trkpt lat="45.23625" lon="5.32203">
        <ele>542.9</ele>
        <time>2021-05-03T09:23:01Z</time>
      </trkpt>
      <trkpt lat="45.23627" lon="5.32198">
        <ele>543.1</ele>
        <time>2021-05-03T09:23:02Z</time>
      </trkpt>
      <trkpt lat="45.23627" lon="5.32197">
        <ele>543.2</ele>
        <time>2021-05-03T09:23:03Z</time>
      </trkpt>
      <trkpt lat="45.23629" lon="5.32193">
        <ele>543.3</ele>
        <time>2021-05-03T09:23:04Z</time>
      </trkpt>
      <trkpt lat="45.23631" lon="5.32188">
        <ele>543.6</ele>
        <time>2021-05-03T09:23:05Z</time>
      </trkpt>
      <trkpt lat="45.23632" lon="5.32187">
        <ele>543.7</ele>
        <time>2021-05-03T09:23:06Z</time>
      </trkpt>
      <trkpt lat="45.23633" lon="5.32182">
        <ele>544</ele>
        <time>2021-05-03T09:23:07Z</time>
      </trkpt>
      <trkpt lat="45.23634" lon="5.3218">
        <ele>544.1</ele>
        <time>2021-05-03T09:23:08Z</time>
      </trkpt>
      <trkpt lat="45.23635" lon="5.32175">
        <ele>544.3</ele>
        <time>2021-05-03T09:23:09Z</time>
      </trkpt>
      <trkpt lat="45.23636" lon="5.32173">
        <ele>544.4</ele>
        <time>2021-05-03T09:23:10Z</time>
      </trkpt>
      <trkpt lat="45.23637" lon="5.3217">
        <ele>544.6</ele>
        <time>2021-05-03T09:23:11Z</time>
      </trkpt>
      <trkpt lat="45.23638" lon="5.32164">
        <ele>544.8</ele>
        <time>2021-05-03T09:23:12Z</time>
      </trkpt>
      <trkpt lat="45.23638" lon="5.32163">
        <ele>544.9</ele>
        <time>2021-05-03T09:23:13Z</time>
      </trkpt>
      <trkpt lat="45.23639" lon="5.32157">
        <ele>545.2</ele>
        <time>2021-05-03T09:23:14Z</time>
      </trkpt>
      <trkpt lat="45.2364" lon="5.32156">
        <ele>545.3</ele>
        <time>2021-05-03T09:23:15Z</time>
      </trkpt>
      <trkpt lat="45.2364" lon="5.32151">
        <ele>545.5</ele>
        <time>2021-05-03T09:23:16Z</time>
      </trkpt>
      <trkpt lat="45.23641" lon="5.32147">
        <ele>545.6</ele>
        <time>2021-05-03T09:23:17Z</time>
      </trkpt>
      <trkpt lat="45.23642" lon="5.32143">
        <ele>545.8</ele>
        <time>2021-05-03T09:23:18Z</time>
      </trkpt>
      <trkpt lat="45.23642" lon="5.32138">
        <ele>546.1</ele>
        <time>2021-05-03T09:23:19Z</time>
      </trkpt>
      <trkpt lat="45.23642" lon="5.32136">
        <ele>546.2</ele>
        <time>2021-05-03T09:23:20Z</time>
      </trkpt>
      <trkpt lat="45.23643" lon="5.32132">
        <ele>546.4</ele>
        <time>2021-05-03T09:23:21Z</time>
      </trkpt>
      <trkpt lat="45.23643" lon="5.32128">
        <ele>546.5</ele>
        <time>2021-05-03T09:23:22Z</time>
      </trkpt>
      <trkpt lat="45.23643" lon="5.32124">
        <ele>546.7</ele>
        <time>2021-05-03T09:23:23Z</time>
      </trkpt>
      <trkpt lat="45.23643" lon="5.32119">
        <ele>547</ele>
        <time>2021-05-03T09:23:24Z</time>
      </trkpt>
      <trkpt lat="45.23643" lon="5.32117">
        <ele>547.1</ele>
        <time>2021-05-03T09:23:25Z</time>
      </trkpt>
      <trkpt lat="45.23643" lon="5.32113">
        <ele>547.3</ele>
        <time>2021-05-03T09:23:26Z</time>
      </trkpt>
      <trkpt lat="45.23643" lon="5.32107">
        <ele>547.5</ele>
        <time>2021-05-03T09:23:27Z</time>
      </trkpt>
      <trkpt lat="45.23643" lon="5.32105">
        <ele>547.6</ele>
        <time>2021-05-03T09:23:28Z</time>
      </trkpt>
      <trkpt lat="45.23643" lon="5.32101">
        <ele>547.8</ele>
        <time>2021-05-03T09:23:29Z</time>
      </trkpt>
      <trkpt lat="45.23643" lon="5.32097">
        <ele>548</ele>
        <time>2021-05-03T09:23:30Z</time>
      </trkpt>
      <trkpt lat="45.23642" lon="5.32092">
        <ele>548.3</ele>
        <time>2021-05-03T09:23:31Z</time>
      </trkpt>
      <trkpt lat="45.23642" lon="5.3209">
        <ele>548.4</ele>
        <time>2021-05-03T09:23:32Z</time>
      </trkpt>
      <trkpt lat="45.23642" lon="5.32085">
        <ele>548.7</ele>
        <time>2021-05-03T09:23:33Z</time>
      </trkpt>
      <trkpt lat="45.23642" lon="5.32084">
        <ele>548.8</ele>
        <time>2021-05-03T09:23:34Z</time>
      </trkpt>
      <trkpt lat="45.23643" lon="5.3208">
        <ele>549</ele>
        <time>2021-05-03T09:23:35Z</time>
      </trkpt>
      <trkpt lat="45.23643" lon="5.32076">
        <ele>549.2</ele>
        <time>2021-05-03T09:23:36Z</time>
      </trkpt>
      <trkpt lat="45.23643" lon="5.32072">
        <ele>549.4</ele>
        <time>2021-05-03T09:23:37Z</time>
      </trkpt>
      <trkpt lat="45.23644" lon="5.32067">
        <ele>549.7</ele>
        <time>2021-05-03T09:23:38Z</time>
      </trkpt>
      <trkpt lat="45.23644" lon="5.32065">
        <ele>549.8</ele>
        <time>2021-05-03T09:23:39Z</time>
      </trkpt>
      <trkpt lat="45.23645" lon="5.32062">
        <ele>550</ele>
        <time>2021-05-03T09:23:40Z</time>
      </trkpt>
      <trkpt lat="45.23647" lon="5.32057">
        <ele>550.3</ele>
        <time>2021-05-03T09:23:41Z</time>
      </trkpt>
      <trkpt lat="45.23647" lon="5.32055">
        <ele>550.4</ele>
        <time>2021-05-03T09:23:42Z</time>
      </trkpt>
      <trkpt lat="45.23649" lon="5.32052">
        <ele>550.7</ele>
        <time>2021-05-03T09:23:43Z</time>
      </trkpt>
      <trkpt lat="45.2365" lon="5.3205">
        <ele>550.8</ele>
        <time>2021-05-03T09:23:44Z</time>
      </trkpt>
      <trkpt lat="45.23653" lon="5.32047">
        <ele>551</ele>
        <time>2021-05-03T09:23:45Z</time>
      </trkpt>
      <trkpt lat="45.23654" lon="5.32046">
        <ele>551.1</ele>
        <time>2021-05-03T09:23:46Z</time>
      </trkpt>
      <trkpt lat="45.23657" lon="5.32044">
        <ele>551.4</ele>
        <time>2021-05-03T09:23:47Z</time>
      </trkpt>
      <trkpt lat="45.23657" lon="5.32044">
        <ele>551.4</ele>
        <time>2021-05-03T09:23:48Z</time>
      </trkpt>
      <trkpt lat="45.23661" lon="5.32043">
        <ele>551.7</ele>
        <time>2021-05-03T09:23:49Z</time>
      </trkpt>
      <trkpt lat="45.23662" lon="5.32042">
        <ele>551.8</ele>
        <time>2021-05-03T09:23:50Z</time>
      </trkpt>
      <trkpt lat="45.23665" lon="5.32042">
        <ele>552</ele>
        <time>2021-05-03T09:23:51Z</time>
      </trkpt>
      <trkpt lat="45.23667" lon="5.32042">
        <ele>552.1</ele>
        <time>2021-05-03T09:23:52Z</time>
      </trkpt>
      <trkpt lat="45.2367" lon="5.32042">
        <ele>552.3</ele>
        <time>2021-05-03T09:23:53Z</time>
      </trkpt>
      <trkpt lat="45.23671" lon="5.32042">
        <ele>552.4</ele>
        <time>2021-05-03T09:23:54Z</time>
      </trkpt>
      <trkpt lat="45.23675" lon="5.32042">
        <ele>552.5</ele>
        <time>2021-05-03T09:23:55Z</time>
      </trkpt>
      <trkpt lat="45.23676" lon="5.32042">
        <ele>552.6</ele>
        <time>2021-05-03T09:23:56Z</time>
      </trkpt>
      <trkpt lat="45.2368" lon="5.32042">
        <ele>552.8</ele>
        <time>2021-05-03T09:23:57Z</time>
      </trkpt>
      <trkpt lat="45.23681" lon="5.32042">
        <ele>552.9</ele>
        <time>2021-05-03T09:23:58Z</time>
      </trkpt>
      <trkpt lat="45.23684" lon="5.32042">
        <ele>553.1</ele>
        <time>2021-05-03T09:23:59Z</time>
      </trkpt>
      <trkpt lat="45.23685" lon="5.32042">
        <ele>553.1</ele>
        <time>2021-05-03T09:24:00Z</time>
      </trkpt>
      <trkpt lat="45.2369" lon="5.32042">
        <ele>553.4</ele>
        <time>2021-05-03T09:24:02Z</time>
      </trkpt>
      <trkpt lat="45.23694" lon="5.32041">
        <ele>553.6</ele>
        <time>2021-05-03T09:24:03Z</time>
      </trkpt>
      <trkpt lat="45.23696" lon="5.3204">
        <ele>553.7</ele>
        <time>2021-05-03T09:24:04Z</time>
      </trkpt>
      <trkpt lat="45.23701" lon="5.32037">
        <ele>554</ele>
        <time>2021-05-03T09:24:06Z</time>
      </trkpt>
      <trkpt lat="45.23703" lon="5.32035">
        <ele>554.2</ele>
        <time>2021-05-03T09:24:07Z</time>
      </trkpt>
      <trkpt lat="45.23705" lon="5.32032">
        <ele>554.3</ele>
        <time>2021-05-03T09:24:08Z</time>
      </trkpt>
      <trkpt lat="45.23707" lon="5.3203">
        <ele>554.5</ele>
        <time>2021-05-03T09:24:09Z</time>
      </trkpt>
      <trkpt lat="45.2371" lon="5.32025">
        <ele>554.7</ele>
        <time>2021-05-03T09:24:10Z</time>
      </trkpt>
      <trkpt lat="45.2371" lon="5.32024">
        <ele>554.8</ele>
        <time>2021-05-03T09:24:11Z</time>
      </trkpt>
      <trkpt lat="45.23713" lon="5.32016">
        <ele>555.1</ele>
        <time>2021-05-03T09:24:13Z</time>
      </trkpt>
      <trkpt lat="45.23715" lon="5.3201">
        <ele>555.4</ele>
        <time>2021-05-03T09:24:15Z</time>
      </trkpt>
      <trkpt lat="45.23716" lon="5.32005">
        <ele>555.7</ele>
        <time>2021-05-03T09:24:16Z</time>
      </trkpt>
      <trkpt lat="45.23717" lon="5.32004">
        <ele>555.7</ele>
        <time>2021-05-03T09:24:17Z</time>
      </trkpt>
      <trkpt lat="45.23718" lon="5.31999">
        <ele>555.9</ele>
        <time>2021-05-03T09:24:18Z</time>
      </trkpt>
      <trkpt lat="45.23719" lon="5.31997">
        <ele>556</ele>
        <time>2021-05-03T09:24:19Z</time>
      </trkpt>
      <trkpt lat="45.2372" lon="5.31993">
        <ele>556.2</ele>
        <time>2021-05-03T09:24:20Z</time>
      </trkpt>
      <trkpt lat="45.23721" lon="5.31991">
        <ele>556.3</ele>
        <time>2021-05-03T09:24:21Z</time>
      </trkpt>
      <trkpt lat="45.23722" lon="5.31988">
        <ele>556.4</ele>
        <time>2021-05-03T09:24:22Z</time>
      </trkpt>
      <trkpt lat="45.23723" lon="5.31984">
        <ele>556.6</ele>
        <time>2021-05-03T09:24:23Z</time>
      </trkpt>
      <trkpt lat="45.23724" lon="5.31981">
        <ele>556.7</ele>
        <time>2021-05-03T09:24:24Z</time>
      </trkpt>
      <trkpt lat="45.23726" lon="5.31977">
        <ele>556.9</ele>
        <time>2021-05-03T09:24:25Z</time>
      </trkpt>
      <trkpt lat="45.23727" lon="5.31974">
        <ele>557.1</ele>
        <time>2021-05-03T09:24:26Z</time>
      </trkpt>
      <trkpt lat="45.23729" lon="5.31969">
        <ele>557.3</ele>
        <time>2021-05-03T09:24:27Z</time>
      </trkpt>
      <trkpt lat="45.23729" lon="5.31967">
        <ele>557.4</ele>
        <time>2021-05-03T09:24:28Z</time>
      </trkpt>
      <trkpt lat="45.2373" lon="5.31963">
        <ele>557.5</ele>
        <time>2021-05-03T09:24:29Z</time>
      </trkpt>
      <trkpt lat="45.23732" lon="5.31959">
        <ele>557.7</ele>
        <time>2021-05-03T09:24:30Z</time>
      </trkpt>
      <trkpt lat="45.23733" lon="5.31955">
        <ele>557.9</ele>
        <time>2021-05-03T09:24:31Z</time>
      </trkpt>
      <trkpt lat="45.23736" lon="5.31948">
        <ele>558.2</ele>
        <time>2021-05-03T09:24:33Z</time>
      </trkpt>
      <trkpt lat="45.23738" lon="5.31944">
        <ele>558.4</ele>
        <time>2021-05-03T09:24:34Z</time>
      </trkpt>
      <trkpt lat="45.23742" lon="5.31938">
        <ele>558.7</ele>
        <time>2021-05-03T09:24:36Z</time>
      </trkpt>
      <trkpt lat="45.23744" lon="5.31936">
        <ele>558.8</ele>
        <time>2021-05-03T09:24:37Z</time>
      </trkpt>
      <trkpt lat="45.23747" lon="5.31934">
        <ele>559</ele>
        <time>2021-05-03T09:24:38Z</time>
      </trkpt>
      <trkpt lat="45.2375" lon="5.31933">
        <ele>559.1</ele>
        <time>2021-05-03T09:24:39Z</time>
      </trkpt>
      <trkpt lat="45.23752" lon="5.31933">
        <ele>559.3</ele>
        <time>2021-05-03T09:24:40Z</time>
      </trkpt>
      <trkpt lat="45.23756" lon="5.31933">
        <ele>559.4</ele>
        <time>2021-05-03T09:24:41Z</time>
      </trkpt>
      <trkpt lat="45.23761" lon="5.31937">
        <ele>559.7</ele>
        <time>2021-05-03T09:24:43Z</time>
      </trkpt>
      <trkpt lat="45.23763" lon="5.31939">
        <ele>559.9</ele>
        <time>2021-05-03T09:24:44Z</time>
      </trkpt>
      <trkpt lat="45.23765" lon="5.31942">
        <ele>560</ele>
        <time>2021-05-03T09:24:45Z</time>
      </trkpt>
      <trkpt lat="45.23767" lon="5.31945">
        <ele>560.2</ele>
        <time>2021-05-03T09:24:46Z</time>
      </trkpt>
      <trkpt lat="45.23769" lon="5.31948">
        <ele>560.3</ele>
        <time>2021-05-03T09:24:47Z</time>
      </trkpt>
      <trkpt lat="45.2377" lon="5.31952">
        <ele>560.4</ele>
        <time>2021-05-03T09:24:48Z</time>
      </trkpt>
      <trkpt lat="45.2377" lon="5.31956">
        <ele>560.6</ele>
        <time>2021-05-03T09:24:49Z</time>
      </trkpt>
      <trkpt lat="45.2377" lon="5.3196">
        <ele>560.7</ele>
        <time>2021-05-03T09:24:50Z</time>
      </trkpt>
      <trkpt lat="45.2377" lon="5.31964">
        <ele>560.8</ele>
        <time>2021-05-03T09:24:51Z</time>
      </trkpt>
      <trkpt lat="45.23769" lon="5.31969">
        <ele>560.9</ele>
        <time>2021-05-03T09:24:52Z</time>
      </trkpt>
      <trkpt lat="45.23766" lon="5.31976">
        <ele>561.1</ele>
        <time>2021-05-03T09:24:53Z</time>
      </trkpt>
      <trkpt lat="45.23764" lon="5.31982">
        <ele>561.3</ele>
        <time>2021-05-03T09:24:55Z</time>
      </trkpt>
      <trkpt lat="45.23763" lon="5.31984">
        <ele>561.4</ele>
        <time>2021-05-03T09:24:56Z</time>
      </trkpt>
      <trkpt lat="45.23762" lon="5.31987">
        <ele>561.5</ele>
        <time>2021-05-03T09:24:57Z</time>
      </trkpt>
      <trkpt lat="45.2376" lon="5.31991">
        <ele>561.6</ele>
        <time>2021-05-03T09:24:58Z</time>
      </trkpt>
      <trkpt lat="45.23758" lon="5.31995">
        <ele>561.7</ele>
        <time>2021-05-03T09:24:59Z</time>
      </trkpt>
      <trkpt lat="45.23756" lon="5.31999">
        <ele>561.8</ele>
        <time>2021-05-03T09:25:00Z</time>
      </trkpt>
      <trkpt lat="45.23754" lon="5.32005">
        <ele>562</ele>
        <time>2021-05-03T09:25:02Z</time>
      </trkpt>
      <trkpt lat="45.23752" lon="5.3201">
        <ele>562.2</ele>
        <time>2021-05-03T09:25:03Z</time>
      </trkpt>
      <trkpt lat="45.23751" lon="5.32014">
        <ele>562.3</ele>
        <time>2021-05-03T09:25:04Z</time>
      </trkpt>
      <trkpt lat="45.2375" lon="5.3202">
        <ele>562.5</ele>
        <time>2021-05-03T09:25:06Z</time>
      </trkpt>
      <trkpt lat="45.23748" lon="5.32028">
        <ele>562.8</ele>
        <time>2021-05-03T09:25:08Z</time>
      </trkpt>
      <trkpt lat="45.23747" lon="5.32035">
        <ele>563</ele>
        <time>2021-05-03T09:25:10Z</time>
      </trkpt>
      <trkpt lat="45.23747" lon="5.32039">
        <ele>563.2</ele>
        <time>2021-05-03T09:25:11Z</time>
      </trkpt>
      <trkpt lat="45.23748" lon="5.32048">
        <ele>563.5</ele>
        <time>2021-05-03T09:25:13Z</time>
      </trkpt>
      <trkpt lat="45.23748" lon="5.32054">
        <ele>563.7</ele>
        <time>2021-05-03T09:25:14Z</time>
      </trkpt>
      <trkpt lat="45.23749" lon="5.32058">
        <ele>563.8</ele>
        <time>2021-05-03T09:25:16Z</time>
      </trkpt>
      <trkpt lat="45.2375" lon="5.32064">
        <ele>564.1</ele>
        <time>2021-05-03T09:25:18Z</time>
      </trkpt>
      <trkpt lat="45.2375" lon="5.32069">
        <ele>564.2</ele>
        <time>2021-05-03T09:25:19Z</time>
      </trkpt>
      <trkpt lat="45.23752" lon="5.32076">
        <ele>564.5</ele>
        <time>2021-05-03T09:25:21Z</time>
      </trkpt>
      <trkpt lat="45.23754" lon="5.32082">
        <ele>564.8</ele>
        <time>2021-05-03T09:25:22Z</time>
      </trkpt>
      <trkpt lat="45.23755" lon="5.32087">
        <ele>565</ele>
        <time>2021-05-03T09:25:24Z</time>
      </trkpt>
      <trkpt lat="45.23755" lon="5.32089">
        <ele>565</ele>
        <time>2021-05-03T09:25:25Z</time>
      </trkpt>
      <trkpt lat="45.23756" lon="5.32094">
        <ele>565.3</ele>
        <time>2021-05-03T09:25:26Z</time>
      </trkpt>
      <trkpt lat="45.23757" lon="5.32097">
        <ele>565.3</ele>
        <time>2021-05-03T09:25:27Z</time>
      </trkpt>
      <trkpt lat="45.23758" lon="5.32101">
        <ele>565.5</ele>
        <time>2021-05-03T09:25:28Z</time>
      </trkpt>
      <trkpt lat="45.23759" lon="5.32105">
        <ele>565.7</ele>
        <time>2021-05-03T09:25:29Z</time>
      </trkpt>
      <trkpt lat="45.23759" lon="5.3211">
        <ele>565.9</ele>
        <time>2021-05-03T09:25:31Z</time>
      </trkpt>
      <trkpt lat="45.23761" lon="5.32116">
        <ele>566.1</ele>
        <time>2021-05-03T09:25:32Z</time>
      </trkpt>
      <trkpt lat="45.23761" lon="5.32118">
        <ele>566.2</ele>
        <time>2021-05-03T09:25:33Z</time>
      </trkpt>
      <trkpt lat="45.23763" lon="5.32123">
        <ele>566.4</ele>
        <time>2021-05-03T09:25:34Z</time>
      </trkpt>
      <trkpt lat="45.23764" lon="5.32126">
        <ele>566.5</ele>
        <time>2021-05-03T09:25:36Z</time>
      </trkpt>
      <trkpt lat="45.23766" lon="5.32131">
        <ele>566.7</ele>
        <time>2021-05-03T09:25:37Z</time>
      </trkpt>
      <trkpt lat="45.23767" lon="5.32136">
        <ele>566.9</ele>
        <time>2021-05-03T09:25:39Z</time>
      </trkpt>
      <trkpt lat="45.23769" lon="5.32139">
        <ele>567.1</ele>
        <time>2021-05-03T09:25:40Z</time>
      </trkpt>
      <trkpt lat="45.23771" lon="5.32145">
        <ele>567.4</ele>
        <time>2021-05-03T09:25:42Z</time>
      </trkpt>
      <trkpt lat="45.23772" lon="5.32149">
        <ele>567.5</ele>
        <time>2021-05-03T09:25:43Z</time>
      </trkpt>
      <trkpt lat="45.23774" lon="5.32154">
        <ele>567.8</ele>
        <time>2021-05-03T09:25:45Z</time>
      </trkpt>
      <trkpt lat="45.23777" lon="5.3216">
        <ele>568.1</ele>
        <time>2021-05-03T09:25:46Z</time>
      </trkpt>
      <trkpt lat="45.23778" lon="5.32162">
        <ele>568.2</ele>
        <time>2021-05-03T09:25:47Z</time>
      </trkpt>
      <trkpt lat="45.23781" lon="5.32166">
        <ele>568.4</ele>
        <time>2021-05-03T09:25:49Z</time>
      </trkpt>
      <trkpt lat="45.23782" lon="5.32169">
        <ele>568.5</ele>
        <time>2021-05-03T09:25:50Z</time>
      </trkpt>
      <trkpt lat="45.23784" lon="5.32174">
        <ele>568.8</ele>
        <time>2021-05-03T09:25:52Z</time>
      </trkpt>
      <trkpt lat="45.23787" lon="5.32178">
        <ele>569</ele>
        <time>2021-05-03T09:25:53Z</time>
      </trkpt>
      <trkpt lat="45.2379" lon="5.32182">
        <ele>569.2</ele>
        <time>2021-05-03T09:25:54Z</time>
      </trkpt>
      <trkpt lat="45.23791" lon="5.32183">
        <ele>569.3</ele>
        <time>2021-05-03T09:25:55Z</time>
      </trkpt>
      <trkpt lat="45.23795" lon="5.32186">
        <ele>569.6</ele>
        <time>2021-05-03T09:25:57Z</time>
      </trkpt>
      <trkpt lat="45.23798" lon="5.32189">
        <ele>569.8</ele>
        <time>2021-05-03T09:25:59Z</time>
      </trkpt>
      <trkpt lat="45.23802" lon="5.32193">
        <ele>570</ele>
        <time>2021-05-03T09:26:01Z</time>
      </trkpt>
      <trkpt lat="45.23805" lon="5.32197">
        <ele>570.2</ele>
        <time>2021-05-03T09:26:02Z</time>
      </trkpt>
      <trkpt lat="45.23806" lon="5.32198">
        <ele>570.3</ele>
        <time>2021-05-03T09:26:03Z</time>
      </trkpt>
      <trkpt lat="45.23808" lon="5.322">
        <ele>570.4</ele>
        <time>2021-05-03T09:26:04Z</time>
      </trkpt>
      <trkpt lat="45.2381" lon="5.32204">
        <ele>570.6</ele>
        <time>2021-05-03T09:26:05Z</time>
      </trkpt>
      <trkpt lat="45.23811" lon="5.32206">
        <ele>570.7</ele>
        <time>2021-05-03T09:26:06Z</time>
      </trkpt>
      <trkpt lat="45.23815" lon="5.32209">
        <ele>570.9</ele>
        <time>2021-05-03T09:26:07Z</time>
      </trkpt>
      <trkpt lat="45.23816" lon="5.3221">
        <ele>571</ele>
        <time>2021-05-03T09:26:08Z</time>
      </trkpt>
      <trkpt lat="45.23818" lon="5.32213">
        <ele>571.1</ele>
        <time>2021-05-03T09:26:09Z</time>
      </trkpt>
      <trkpt lat="45.2382" lon="5.32215">
        <ele>571.3</ele>
        <time>2021-05-03T09:26:10Z</time>
      </trkpt>
      <trkpt lat="45.23822" lon="5.32217">
        <ele>571.4</ele>
        <time>2021-05-03T09:26:11Z</time>
      </trkpt>
      <trkpt lat="45.23826" lon="5.32221">
        <ele>571.6</ele>
        <time>2021-05-03T09:26:12Z</time>
      </trkpt>
      <trkpt lat="45.23827" lon="5.32223">
        <ele>571.7</ele>
        <time>2021-05-03T09:26:13Z</time>
      </trkpt>
      <trkpt lat="45.23829" lon="5.32225">
        <ele>571.8</ele>
        <time>2021-05-03T09:26:14Z</time>
      </trkpt>
      <trkpt lat="45.23832" lon="5.32228">
        <ele>572.1</ele>
        <time>2021-05-03T09:26:15Z</time>
      </trkpt>
      <trkpt lat="45.23833" lon="5.3223">
        <ele>572.1</ele>
        <time>2021-05-03T09:26:16Z</time>
      </trkpt>
      <trkpt lat="45.23836" lon="5.32233">
        <ele>572.4</ele>
        <time>2021-05-03T09:26:17Z</time>
      </trkpt>
      <trkpt lat="45.23837" lon="5.32235">
        <ele>572.5</ele>
        <time>2021-05-03T09:26:18Z</time>
      </trkpt>
      <trkpt lat="45.2384" lon="5.32239">
        <ele>572.7</ele>
        <time>2021-05-03T09:26:19Z</time>
      </trkpt>
      <trkpt lat="45.23841" lon="5.3224">
        <ele>572.7</ele>
        <time>2021-05-03T09:26:20Z</time>
      </trkpt>
      <trkpt lat="45.23843" lon="5.32243">
        <ele>572.9</ele>
        <time>2021-05-03T09:26:21Z</time>
      </trkpt>
      <trkpt lat="45.23846" lon="5.32246">
        <ele>573.1</ele>
        <time>2021-05-03T09:26:22Z</time>
      </trkpt>
      <trkpt lat="45.23847" lon="5.32247">
        <ele>573.2</ele>
        <time>2021-05-03T09:26:23Z</time>
      </trkpt>
      <trkpt lat="45.2385" lon="5.3225">
        <ele>573.4</ele>
        <time>2021-05-03T09:26:24Z</time>
      </trkpt>
      <trkpt lat="45.23851" lon="5.32251">
        <ele>573.4</ele>
        <time>2021-05-03T09:26:25Z</time>
      </trkpt>
      <trkpt lat="45.23854" lon="5.32255">
        <ele>573.6</ele>
        <time>2021-05-03T09:26:26Z</time>
      </trkpt>
      <trkpt lat="45.23855" lon="5.32256">
        <ele>573.7</ele>
        <time>2021-05-03T09:26:27Z</time>
      </trkpt>
      <trkpt lat="45.23856" lon="5.32259">
        <ele>573.8</ele>
        <time>2021-05-03T09:26:28Z</time>
      </trkpt>
      <trkpt lat="45.23859" lon="5.32263">
        <ele>574</ele>
        <time>2021-05-03T09:26:29Z</time>
      </trkpt>
      <trkpt lat="45.2386" lon="5.32264">
        <ele>574.1</ele>
        <time>2021-05-03T09:26:30Z</time>
      </trkpt>
      <trkpt lat="45.23862" lon="5.32268">
        <ele>574.3</ele>
        <time>2021-05-03T09:26:31Z</time>
      </trkpt>
      <trkpt lat="45.23864" lon="5.32272">
        <ele>574.5</ele>
        <time>2021-05-03T09:26:32Z</time>
      </trkpt>
      <trkpt lat="45.23864" lon="5.32274">
        <ele>574.5</ele>
        <time>2021-05-03T09:26:33Z</time>
      </trkpt>
      <trkpt lat="45.23866" lon="5.32277">
        <ele>574.7</ele>
        <time>2021-05-03T09:26:34Z</time>
      </trkpt>
      <trkpt lat="45.23869" lon="5.32281">
        <ele>574.9</ele>
        <time>2021-05-03T09:26:35Z</time>
      </trkpt>
      <trkpt lat="45.2387" lon="5.32283">
        <ele>575</ele>
        <time>2021-05-03T09:26:36Z</time>
      </trkpt>
      <trkpt lat="45.23872" lon="5.32287">
        <ele>575.2</ele>
        <time>2021-05-03T09:26:37Z</time>
      </trkpt>
      <trkpt lat="45.23874" lon="5.3229">
        <ele>575.4</ele>
        <time>2021-05-03T09:26:38Z</time>
      </trkpt>
      <trkpt lat="45.23877" lon="5.32295">
        <ele>575.6</ele>
        <time>2021-05-03T09:26:39Z</time>
      </trkpt>
      <trkpt lat="45.23877" lon="5.32296">
        <ele>575.7</ele>
        <time>2021-05-03T09:26:40Z</time>
      </trkpt>
      <trkpt lat="45.23878" lon="5.32301">
        <ele>575.9</ele>
        <time>2021-05-03T09:26:41Z</time>
      </trkpt>
      <trkpt lat="45.2388" lon="5.32306">
        <ele>576.1</ele>
        <time>2021-05-03T09:26:42Z</time>
      </trkpt>
      <trkpt lat="45.23882" lon="5.3231">
        <ele>576.3</ele>
        <time>2021-05-03T09:26:43Z</time>
      </trkpt>
      <trkpt lat="45.23883" lon="5.32314">
        <ele>576.4</ele>
        <time>2021-05-03T09:26:44Z</time>
      </trkpt>
      <trkpt lat="45.23884" lon="5.32317">
        <ele>576.6</ele>
        <time>2021-05-03T09:26:45Z</time>
      </trkpt>
      <trkpt lat="45.23886" lon="5.32321">
        <ele>576.8</ele>
        <time>2021-05-03T09:26:46Z</time>
      </trkpt>
      <trkpt lat="45.23887" lon="5.32325">
        <ele>576.9</ele>
        <time>2021-05-03T09:26:47Z</time>
      </trkpt>
      <trkpt lat="45.23889" lon="5.32329">
        <ele>577.1</ele>
        <time>2021-05-03T09:26:48Z</time>
      </trkpt>
      <trkpt lat="45.23891" lon="5.32333">
        <ele>577.3</ele>
        <time>2021-05-03T09:26:49Z</time>
      </trkpt>
      <trkpt lat="45.23892" lon="5.32335">
        <ele>577.4</ele>
        <time>2021-05-03T09:26:50Z</time>
      </trkpt>
      <trkpt lat="45.23892" lon="5.32338">
        <ele>577.6</ele>
        <time>2021-05-03T09:26:51Z</time>
      </trkpt>
      <trkpt lat="45.23894" lon="5.32342">
        <ele>577.7</ele>
        <time>2021-05-03T09:26:52Z</time>
      </trkpt>
      <trkpt lat="45.23895" lon="5.32346">
        <ele>577.9</ele>
        <time>2021-05-03T09:26:53Z</time>
      </trkpt>
      <trkpt lat="45.23896" lon="5.3235">
        <ele>578.1</ele>
        <time>2021-05-03T09:26:54Z</time>
      </trkpt>
      <trkpt lat="45.23899" lon="5.32355">
        <ele>578.3</ele>
        <time>2021-05-03T09:26:55Z</time>
      </trkpt>
      <trkpt lat="45.23899" lon="5.32356">
        <ele>578.4</ele>
        <time>2021-05-03T09:26:56Z</time>
      </trkpt>
      <trkpt lat="45.23901" lon="5.3236">
        <ele>578.5</ele>
        <time>2021-05-03T09:26:57Z</time>
      </trkpt>
      <trkpt lat="45.23903" lon="5.32366">
        <ele>578.8</ele>
        <time>2021-05-03T09:26:58Z</time>
      </trkpt>
      <trkpt lat="45.23903" lon="5.32368">
        <ele>578.9</ele>
        <time>2021-05-03T09:26:59Z</time>
      </trkpt>
      <trkpt lat="45.23905" lon="5.32371">
        <ele>579</ele>
        <time>2021-05-03T09:27:00Z</time>
      </trkpt>
      <trkpt lat="45.23907" lon="5.32375">
        <ele>579.2</ele>
        <time>2021-05-03T09:27:01Z</time>
      </trkpt>
      <trkpt lat="45.23908" lon="5.32378">
        <ele>579.4</ele>
        <time>2021-05-03T09:27:02Z</time>
      </trkpt>
      <trkpt lat="45.2391" lon="5.32382">
        <ele>579.5</ele>
        <time>2021-05-03T09:27:03Z</time>
      </trkpt>
      <trkpt lat="45.23911" lon="5.32386">
        <ele>579.7</ele>
        <time>2021-05-03T09:27:04Z</time>
      </trkpt>
      <trkpt lat="45.23913" lon="5.32389">
        <ele>579.8</ele>
        <time>2021-05-03T09:27:05Z</time>
      </trkpt>
      <trkpt lat="45.23914" lon="5.32393">
        <ele>580</ele>
        <time>2021-05-03T09:27:06Z</time>
      </trkpt>
      <trkpt lat="45.23916" lon="5.32396">
        <ele>580.1</ele>
        <time>2021-05-03T09:27:07Z</time>
      </trkpt>
      <trkpt lat="45.23917" lon="5.324">
        <ele>580.3</ele>
        <time>2021-05-03T09:27:08Z</time>
      </trkpt>
      <trkpt lat="45.23918" lon="5.32404">
        <ele>580.5</ele>
        <time>2021-05-03T09:27:09Z</time>
      </trkpt>
      <trkpt lat="45.23919" lon="5.32407">
        <ele>580.6</ele>
        <time>2021-05-03T09:27:10Z</time>
      </trkpt>
      <trkpt lat="45.2392" lon="5.32411">
        <ele>580.8</ele>
        <time>2021-05-03T09:27:11Z</time>
      </trkpt>
      <trkpt lat="45.23921" lon="5.32415">
        <ele>580.9</ele>
        <time>2021-05-03T09:27:12Z</time>
      </trkpt>
      <trkpt lat="45.23922" lon="5.3242">
        <ele>581.1</ele>
        <time>2021-05-03T09:27:13Z</time>
      </trkpt>
      <trkpt lat="45.23922" lon="5.32423">
        <ele>581.2</ele>
        <time>2021-05-03T09:27:14Z</time>
      </trkpt>
      <trkpt lat="45.23923" lon="5.32429">
        <ele>581.5</ele>
        <time>2021-05-03T09:27:15Z</time>
      </trkpt>
      <trkpt lat="45.23923" lon="5.32431">
        <ele>581.5</ele>
        <time>2021-05-03T09:27:16Z</time>
      </trkpt>
      <trkpt lat="45.23923" lon="5.32436">
        <ele>581.7</ele>
        <time>2021-05-03T09:27:17Z</time>
      </trkpt>
      <trkpt lat="45.23923" lon="5.32438">
        <ele>581.8</ele>
        <time>2021-05-03T09:27:18Z</time>
      </trkpt>
      <trkpt lat="45.23923" lon="5.32442">
        <ele>582</ele>
        <time>2021-05-03T09:27:19Z</time>
      </trkpt>
      <trkpt lat="45.23923" lon="5.32446">
        <ele>582.2</ele>
        <time>2021-05-03T09:27:20Z</time>
      </trkpt>
      <trkpt lat="45.23922" lon="5.32452">
        <ele>582.4</ele>
        <time>2021-05-03T09:27:21Z</time>
      </trkpt>
      <trkpt lat="45.23921" lon="5.32453">
        <ele>582.4</ele>
        <time>2021-05-03T09:27:22Z</time>
      </trkpt>
      <trkpt lat="45.2392" lon="5.32458">
        <ele>582.7</ele>
        <time>2021-05-03T09:27:23Z</time>
      </trkpt>
      <trkpt lat="45.23919" lon="5.32459">
        <ele>582.7</ele>
        <time>2021-05-03T09:27:24Z</time>
      </trkpt>
      <trkpt lat="45.23918" lon="5.32463">
        <ele>582.9</ele>
        <time>2021-05-03T09:27:25Z</time>
      </trkpt>
      <trkpt lat="45.23917" lon="5.32468">
        <ele>583.1</ele>
        <time>2021-05-03T09:27:26Z</time>
      </trkpt>
      <trkpt lat="45.23916" lon="5.3247">
        <ele>583.2</ele>
        <time>2021-05-03T09:27:27Z</time>
      </trkpt>
      <trkpt lat="45.23915" lon="5.32475">
        <ele>583.4</ele>
        <time>2021-05-03T09:27:28Z</time>
      </trkpt>
      <trkpt lat="45.23914" lon="5.3248">
        <ele>583.6</ele>
        <time>2021-05-03T09:27:29Z</time>
      </trkpt>
      <trkpt lat="45.23914" lon="5.32481">
        <ele>583.7</ele>
        <time>2021-05-03T09:27:30Z</time>
      </trkpt>
      <trkpt lat="45.23912" lon="5.32486">
        <ele>583.9</ele>
        <time>2021-05-03T09:27:31Z</time>
      </trkpt>
      <trkpt lat="45.23912" lon="5.32488">
        <ele>584</ele>
        <time>2021-05-03T09:27:32Z</time>
      </trkpt>
      <trkpt lat="45.2391" lon="5.32492">
        <ele>584.2</ele>
        <time>2021-05-03T09:27:33Z</time>
      </trkpt>
      <trkpt lat="45.2391" lon="5.32494">
        <ele>584.2</ele>
        <time>2021-05-03T09:27:34Z</time>
      </trkpt>
      <trkpt lat="45.23908" lon="5.32498">
        <ele>584.4</ele>
        <time>2021-05-03T09:27:35Z</time>
      </trkpt>
      <trkpt lat="45.23908" lon="5.325">
        <ele>584.5</ele>
        <time>2021-05-03T09:27:36Z</time>
      </trkpt>
      <trkpt lat="45.23906" lon="5.32505">
        <ele>584.7</ele>
        <time>2021-05-03T09:27:37Z</time>
      </trkpt>
      <trkpt lat="45.23906" lon="5.32506">
        <ele>584.8</ele>
        <time>2021-05-03T09:27:38Z</time>
      </trkpt>
      <trkpt lat="45.23905" lon="5.32511">
        <ele>585</ele>
        <time>2021-05-03T09:27:39Z</time>
      </trkpt>
      <trkpt lat="45.23904" lon="5.32513">
        <ele>585.1</ele>
        <time>2021-05-03T09:27:40Z</time>
      </trkpt>
      <trkpt lat="45.23903" lon="5.32518">
        <ele>585.3</ele>
        <time>2021-05-03T09:27:41Z</time>
      </trkpt>
      <trkpt lat="45.23903" lon="5.3252">
        <ele>585.4</ele>
        <time>2021-05-03T09:27:42Z</time>
      </trkpt>
      <trkpt lat="45.23903" lon="5.32525">
        <ele>585.6</ele>
        <time>2021-05-03T09:27:43Z</time>
      </trkpt>
      <trkpt lat="45.23903" lon="5.32527">
        <ele>585.7</ele>
        <time>2021-05-03T09:27:44Z</time>
      </trkpt>
      <trkpt lat="45.23903" lon="5.32533">
        <ele>585.9</ele>
        <time>2021-05-03T09:27:45Z</time>
      </trkpt>
      <trkpt lat="45.23903" lon="5.32534">
        <ele>586</ele>
        <time>2021-05-03T09:27:46Z</time>
      </trkpt>
      <trkpt lat="45.23904" lon="5.32539">
        <ele>586.1</ele>
        <time>2021-05-03T09:27:47Z</time>
      </trkpt>
      <trkpt lat="45.23905" lon="5.32542">
        <ele>586.3</ele>
        <time>2021-05-03T09:27:48Z</time>
      </trkpt>
      <trkpt lat="45.23907" lon="5.32546">
        <ele>586.4</ele>
        <time>2021-05-03T09:27:49Z</time>
      </trkpt>
      <trkpt lat="45.23908" lon="5.3255">
        <ele>586.6</ele>
        <time>2021-05-03T09:27:50Z</time>
      </trkpt>
      <trkpt lat="45.2391" lon="5.32552">
        <ele>586.7</ele>
        <time>2021-05-03T09:27:51Z</time>
      </trkpt>
      <trkpt lat="45.23914" lon="5.32555">
        <ele>586.8</ele>
        <time>2021-05-03T09:27:52Z</time>
      </trkpt>
      <trkpt lat="45.23915" lon="5.32555">
        <ele>586.9</ele>
        <time>2021-05-03T09:27:53Z</time>
      </trkpt>
      <trkpt lat="45.23918" lon="5.32556">
        <ele>587</ele>
        <time>2021-05-03T09:27:54Z</time>
      </trkpt>
      <trkpt lat="45.23921" lon="5.32556">
        <ele>587.1</ele>
        <time>2021-05-03T09:27:55Z</time>
      </trkpt>
      <trkpt lat="45.23924" lon="5.32555">
        <ele>587.2</ele>
        <time>2021-05-03T09:27:56Z</time>
      </trkpt>
      <trkpt lat="45.23926" lon="5.32554">
        <ele>587.4</ele>
        <time>2021-05-03T09:27:57Z</time>
      </trkpt>
      <trkpt lat="45.23928" lon="5.32551">
        <ele>587.5</ele>
        <time>2021-05-03T09:27:58Z</time>
      </trkpt>
      <trkpt lat="45.2393" lon="5.32548">
        <ele>587.6</ele>
        <time>2021-05-03T09:27:59Z</time>
      </trkpt>
      <trkpt lat="45.23932" lon="5.32544">
        <ele>587.7</ele>
        <time>2021-05-03T09:28:00Z</time>
      </trkpt>
      <trkpt lat="45.23934" lon="5.3254">
        <ele>587.8</ele>
        <time>2021-05-03T09:28:01Z</time>
      </trkpt>
      <trkpt lat="45.23935" lon="5.32536">
        <ele>588</ele>
        <time>2021-05-03T09:28:02Z</time>
      </trkpt>
      <trkpt lat="45.23936" lon="5.32531">
        <ele>588.1</ele>
        <time>2021-05-03T09:28:03Z</time>
      </trkpt>
      <trkpt lat="45.23937" lon="5.32527">
        <ele>588.2</ele>
        <time>2021-05-03T09:28:04Z</time>
      </trkpt>
      <trkpt lat="45.23937" lon="5.32523">
        <ele>588.3</ele>
        <time>2021-05-03T09:28:05Z</time>
      </trkpt>
      <trkpt lat="45.23937" lon="5.32519">
        <ele>588.4</ele>
        <time>2021-05-03T09:28:06Z</time>
      </trkpt>
      <trkpt lat="45.23937" lon="5.32515">
        <ele>588.6</ele>
        <time>2021-05-03T09:28:07Z</time>
      </trkpt>
      <trkpt lat="45.23938" lon="5.32511">
        <ele>588.7</ele>
        <time>2021-05-03T09:28:08Z</time>
      </trkpt>
      <trkpt lat="45.23938" lon="5.32507">
        <ele>588.8</ele>
        <time>2021-05-03T09:28:09Z</time>
      </trkpt>
      <trkpt lat="45.23938" lon="5.32502">
        <ele>589</ele>
        <time>2021-05-03T09:28:10Z</time>
      </trkpt>
      <trkpt lat="45.23938" lon="5.32498">
        <ele>589.1</ele>
        <time>2021-05-03T09:28:11Z</time>
      </trkpt>
      <trkpt lat="45.23939" lon="5.32493">
        <ele>589.3</ele>
        <time>2021-05-03T09:28:12Z</time>
      </trkpt>
      <trkpt lat="45.23939" lon="5.32491">
        <ele>589.3</ele>
        <time>2021-05-03T09:28:13Z</time>
      </trkpt>
      <trkpt lat="45.2394" lon="5.32487">
        <ele>589.5</ele>
        <time>2021-05-03T09:28:14Z</time>
      </trkpt>
      <trkpt lat="45.23941" lon="5.32483">
        <ele>589.6</ele>
        <time>2021-05-03T09:28:15Z</time>
      </trkpt>
      <trkpt lat="45.23941" lon="5.32479">
        <ele>589.8</ele>
        <time>2021-05-03T09:28:16Z</time>
      </trkpt>
      <trkpt lat="45.23942" lon="5.32474">
        <ele>589.9</ele>
        <time>2021-05-03T09:28:17Z</time>
      </trkpt>
      <trkpt lat="45.23943" lon="5.32472">
        <ele>590</ele>
        <time>2021-05-03T09:28:18Z</time>
      </trkpt>
      <trkpt lat="45.23944" lon="5.32468">
        <ele>590.1</ele>
        <time>2021-05-03T09:28:19Z</time>
      </trkpt>
      <trkpt lat="45.23944" lon="5.32462">
        <ele>590.3</ele>
        <time>2021-05-03T09:28:20Z</time>
      </trkpt>
      <trkpt lat="45.23944" lon="5.3246">
        <ele>590.4</ele>
        <time>2021-05-03T09:28:21Z</time>
      </trkpt>
      <trkpt lat="45.23944" lon="5.32456">
        <ele>590.5</ele>
        <time>2021-05-03T09:28:22Z</time>
      </trkpt>
      <trkpt lat="45.23945" lon="5.32452">
        <ele>590.7</ele>
        <time>2021-05-03T09:28:23Z</time>
      </trkpt>
      <trkpt lat="45.23945" lon="5.32448">
        <ele>590.8</ele>
        <time>2021-05-03T09:28:24Z</time>
      </trkpt>
      <trkpt lat="45.23946" lon="5.32444">
        <ele>590.9</ele>
        <time>2021-05-03T09:28:25Z</time>
      </trkpt>
      <trkpt lat="45.23947" lon="5.32439">
        <ele>591.1</ele>
        <time>2021-05-03T09:28:26Z</time>
      </trkpt>
      <trkpt lat="45.23947" lon="5.32435">
        <ele>591.2</ele>
        <time>2021-05-03T09:28:27Z</time>
      </trkpt>
      <trkpt lat="45.23947" lon="5.3243">
        <ele>591.4</ele>
        <time>2021-05-03T09:28:28Z</time>
      </trkpt>
      <trkpt lat="45.23948" lon="5.32426">
        <ele>591.5</ele>
        <time>2021-05-03T09:28:29Z</time>
      </trkpt>
      <trkpt lat="45.23948" lon="5.32422">
        <ele>591.7</ele>
        <time>2021-05-03T09:28:30Z</time>
      </trkpt>
      <trkpt lat="45.23949" lon="5.32417">
        <ele>591.8</ele>
        <time>2021-05-03T09:28:31Z</time>
      </trkpt>
      <trkpt lat="45.23949" lon="5.32413">
        <ele>591.9</ele>
        <time>2021-05-03T09:28:32Z</time>
      </trkpt>
      <trkpt lat="45.2395" lon="5.32409">
        <ele>592.1</ele>
        <time>2021-05-03T09:28:33Z</time>
      </trkpt>
      <trkpt lat="45.23951" lon="5.32404">
        <ele>592.3</ele>
        <time>2021-05-03T09:28:34Z</time>
      </trkpt>
      <trkpt lat="45.23951" lon="5.32399">
        <ele>592.4</ele>
        <time>2021-05-03T09:28:35Z</time>
      </trkpt>
      <trkpt lat="45.23952" lon="5.32395">
        <ele>592.6</ele>
        <time>2021-05-03T09:28:36Z</time>
      </trkpt>
      <trkpt lat="45.23953" lon="5.3239">
        <ele>592.7</ele>
        <time>2021-05-03T09:28:37Z</time>
      </trkpt>
      <trkpt lat="45.23953" lon="5.32386">
        <ele>592.9</ele>
        <time>2021-05-03T09:28:38Z</time>
      </trkpt>
      <trkpt lat="45.23954" lon="5.32382">
        <ele>593</ele>
        <time>2021-05-03T09:28:39Z</time>
      </trkpt>
      <trkpt lat="45.23954" lon="5.32378">
        <ele>593.2</ele>
        <time>2021-05-03T09:28:40Z</time>
      </trkpt>
      <trkpt lat="45.23955" lon="5.32374">
        <ele>593.4</ele>
        <time>2021-05-03T09:28:41Z</time>
      </trkpt>
      <trkpt lat="45.23956" lon="5.32369">
        <ele>593.5</ele>
        <time>2021-05-03T09:28:42Z</time>
      </trkpt>
      <trkpt lat="45.23956" lon="5.32364">
        <ele>593.8</ele>
        <time>2021-05-03T09:28:43Z</time>
      </trkpt>
      <trkpt lat="45.23957" lon="5.32362">
        <ele>593.8</ele>
        <time>2021-05-03T09:28:44Z</time>
      </trkpt>
      <trkpt lat="45.23957" lon="5.32358">
        <ele>594</ele>
        <time>2021-05-03T09:28:45Z</time>
      </trkpt>
      <trkpt lat="45.23958" lon="5.32354">
        <ele>594.1</ele>
        <time>2021-05-03T09:28:46Z</time>
      </trkpt>
      <trkpt lat="45.23959" lon="5.3235">
        <ele>594.2</ele>
        <time>2021-05-03T09:28:47Z</time>
      </trkpt>
      <trkpt lat="45.23961" lon="5.32346">
        <ele>594.3</ele>
        <time>2021-05-03T09:28:48Z</time>
      </trkpt>
      <trkpt lat="45.23963" lon="5.32342">
        <ele>594.5</ele>
        <time>2021-05-03T09:28:49Z</time>
      </trkpt>
      <trkpt lat="45.23965" lon="5.32339">
        <ele>594.6</ele>
        <time>2021-05-03T09:28:50Z</time>
      </trkpt>
      <trkpt lat="45.23967" lon="5.32336">
        <ele>594.8</ele>
        <time>2021-05-03T09:28:51Z</time>
      </trkpt>
      <trkpt lat="45.23969" lon="5.32332">
        <ele>595</ele>
        <time>2021-05-03T09:28:52Z</time>
      </trkpt>
      <trkpt lat="45.2397" lon="5.32329">
        <ele>595.1</ele>
        <time>2021-05-03T09:28:53Z</time>
      </trkpt>
      <trkpt lat="45.23972" lon="5.32325">
        <ele>595.3</ele>
        <time>2021-05-03T09:28:54Z</time>
      </trkpt>
      <trkpt lat="45.23973" lon="5.32322">
        <ele>595.4</ele>
        <time>2021-05-03T09:28:55Z</time>
      </trkpt>
      <trkpt lat="45.23976" lon="5.32318">
        <ele>595.6</ele>
        <time>2021-05-03T09:28:56Z</time>
      </trkpt>
      <trkpt lat="45.23978" lon="5.32315">
        <ele>595.7</ele>
        <time>2021-05-03T09:28:57Z</time>
      </trkpt>
      <trkpt lat="45.2398" lon="5.32312">
        <ele>595.9</ele>
        <time>2021-05-03T09:28:58Z</time>
      </trkpt>
      <trkpt lat="45.23982" lon="5.32309">
        <ele>596</ele>
        <time>2021-05-03T09:28:59Z</time>
      </trkpt>
      <trkpt lat="45.23984" lon="5.32306">
        <ele>596.2</ele>
        <time>2021-05-03T09:29:00Z</time>
      </trkpt>
      <trkpt lat="45.23986" lon="5.32303">
        <ele>596.4</ele>
        <time>2021-05-03T09:29:01Z</time>
      </trkpt>
      <trkpt lat="45.23988" lon="5.32299">
        <ele>596.5</ele>
        <time>2021-05-03T09:29:02Z</time>
      </trkpt>
      <trkpt lat="45.2399" lon="5.32295">
        <ele>596.7</ele>
        <time>2021-05-03T09:29:03Z</time>
      </trkpt>
      <trkpt lat="45.23992" lon="5.32292">
        <ele>596.8</ele>
        <time>2021-05-03T09:29:04Z</time>
      </trkpt>
      <trkpt lat="45.23994" lon="5.32288">
        <ele>597</ele>
        <time>2021-05-03T09:29:05Z</time>
      </trkpt>
      <trkpt lat="45.23996" lon="5.32285">
        <ele>597.1</ele>
        <time>2021-05-03T09:29:06Z</time>
      </trkpt>
      <trkpt lat="45.23997" lon="5.32281">
        <ele>597.3</ele>
        <time>2021-05-03T09:29:07Z</time>
      </trkpt>
      <trkpt lat="45.23999" lon="5.32278">
        <ele>597.4</ele>
        <time>2021-05-03T09:29:08Z</time>
      </trkpt>
      <trkpt lat="45.24001" lon="5.32275">
        <ele>597.6</ele>
        <time>2021-05-03T09:29:09Z</time>
      </trkpt>
      <trkpt lat="45.24004" lon="5.32272">
        <ele>597.7</ele>
        <time>2021-05-03T09:29:10Z</time>
      </trkpt>
      <trkpt lat="45.24006" lon="5.32269">
        <ele>597.9</ele>
        <time>2021-05-03T09:29:11Z</time>
      </trkpt>
      <trkpt lat="45.24008" lon="5.32265">
        <ele>598</ele>
        <time>2021-05-03T09:29:12Z</time>
      </trkpt>
      <trkpt lat="45.2401" lon="5.32262">
        <ele>598.2</ele>
        <time>2021-05-03T09:29:13Z</time>
      </trkpt>
      <trkpt lat="45.24013" lon="5.32258">
        <ele>598.3</ele>
        <time>2021-05-03T09:29:14Z</time>
      </trkpt>
      <trkpt lat="45.24015" lon="5.32255">
        <ele>598.5</ele>
        <time>2021-05-03T09:29:15Z</time>
      </trkpt>
      <trkpt lat="45.24017" lon="5.32252">
        <ele>598.6</ele>
        <time>2021-05-03T09:29:16Z</time>
      </trkpt>
      <trkpt lat="45.24019" lon="5.32248">
        <ele>598.8</ele>
        <time>2021-05-03T09:29:17Z</time>
      </trkpt>
      <trkpt lat="45.24021" lon="5.32245">
        <ele>598.9</ele>
        <time>2021-05-03T09:29:18Z</time>
      </trkpt>
      <trkpt lat="45.24023" lon="5.32241">
        <ele>599.1</ele>
        <time>2021-05-03T09:29:19Z</time>
      </trkpt>
      <trkpt lat="45.24024" lon="5.32238">
        <ele>599.2</ele>
        <time>2021-05-03T09:29:20Z</time>
      </trkpt>
      <trkpt lat="45.24026" lon="5.32234">
        <ele>599.3</ele>
        <time>2021-05-03T09:29:21Z</time>
      </trkpt>
      <trkpt lat="45.24028" lon="5.3223">
        <ele>599.5</ele>
        <time>2021-05-03T09:29:22Z</time>
      </trkpt>
      <trkpt lat="45.24029" lon="5.32227">
        <ele>599.6</ele>
        <time>2021-05-03T09:29:23Z</time>
      </trkpt>
      <trkpt lat="45.24031" lon="5.32222">
        <ele>599.8</ele>
        <time>2021-05-03T09:29:24Z</time>
      </trkpt>
      <trkpt lat="45.24032" lon="5.32218">
        <ele>600</ele>
        <time>2021-05-03T09:29:25Z</time>
      </trkpt>
      <trkpt lat="45.24033" lon="5.32213">
        <ele>600.2</ele>
        <time>2021-05-03T09:29:26Z</time>
      </trkpt>
      <trkpt lat="45.24034" lon="5.32209">
        <ele>600.4</ele>
        <time>2021-05-03T09:29:27Z</time>
      </trkpt>
      <trkpt lat="45.24034" lon="5.32204">
        <ele>600.6</ele>
        <time>2021-05-03T09:29:28Z</time>
      </trkpt>
      <trkpt lat="45.24034" lon="5.32202">
        <ele>600.7</ele>
        <time>2021-05-03T09:29:29Z</time>
      </trkpt>
      <trkpt lat="45.24035" lon="5.32197">
        <ele>600.9</ele>
        <time>2021-05-03T09:29:30Z</time>
      </trkpt>
      <trkpt lat="45.24036" lon="5.32193">
        <ele>601.1</ele>
        <time>2021-05-03T09:29:31Z</time>
      </trkpt>
      <trkpt lat="45.24036" lon="5.32187">
        <ele>601.3</ele>
        <time>2021-05-03T09:29:32Z</time>
      </trkpt>
      <trkpt lat="45.24036" lon="5.32185">
        <ele>601.4</ele>
        <time>2021-05-03T09:29:33Z</time>
      </trkpt>
      <trkpt lat="45.24037" lon="5.32179">
        <ele>601.6</ele>
        <time>2021-05-03T09:29:34Z</time>
      </trkpt>
      <trkpt lat="45.24037" lon="5.32177">
        <ele>601.7</ele>
        <time>2021-05-03T09:29:35Z</time>
      </trkpt>
      <trkpt lat="45.24037" lon="5.32172">
        <ele>602</ele>
        <time>2021-05-03T09:29:36Z</time>
      </trkpt>
      <trkpt lat="45.24037" lon="5.3217">
        <ele>602</ele>
        <time>2021-05-03T09:29:37Z</time>
      </trkpt>
      <trkpt lat="45.24036" lon="5.32166">
        <ele>602.2</ele>
        <time>2021-05-03T09:29:38Z</time>
      </trkpt>
      <trkpt lat="45.24036" lon="5.32161">
        <ele>602.4</ele>
        <time>2021-05-03T09:29:39Z</time>
      </trkpt>
      <trkpt lat="45.24036" lon="5.32159">
        <ele>602.5</ele>
        <time>2021-05-03T09:29:40Z</time>
      </trkpt>
      <trkpt lat="45.24035" lon="5.32155">
        <ele>602.7</ele>
        <time>2021-05-03T09:29:41Z</time>
      </trkpt>
      <trkpt lat="45.24035" lon="5.3215">
        <ele>602.9</ele>
        <time>2021-05-03T09:29:42Z</time>
      </trkpt>
      <trkpt lat="45.24035" lon="5.32148">
        <ele>603</ele>
        <time>2021-05-03T09:29:43Z</time>
      </trkpt>
      <trkpt lat="45.24035" lon="5.32142">
        <ele>603.2</ele>
        <time>2021-05-03T09:29:44Z</time>
      </trkpt>
      <trkpt lat="45.24035" lon="5.3214">
        <ele>603.3</ele>
        <time>2021-05-03T09:29:45Z</time>
      </trkpt>
      <trkpt lat="45.24035" lon="5.32134">
        <ele>603.5</ele>
        <time>2021-05-03T09:29:46Z</time>
      </trkpt>
      <trkpt lat="45.24034" lon="5.32132">
        <ele>603.6</ele>
        <time>2021-05-03T09:29:47Z</time>
      </trkpt>
      <trkpt lat="45.24034" lon="5.32128">
        <ele>603.8</ele>
        <time>2021-05-03T09:29:48Z</time>
      </trkpt>
      <trkpt lat="45.24033" lon="5.32124">
        <ele>603.9</ele>
        <time>2021-05-03T09:29:49Z</time>
      </trkpt>
      <trkpt lat="45.24032" lon="5.3212">
        <ele>604.1</ele>
        <time>2021-05-03T09:29:50Z</time>
      </trkpt>
      <trkpt lat="45.24032" lon="5.32114">
        <ele>604.3</ele>
        <time>2021-05-03T09:29:51Z</time>
      </trkpt>
      <trkpt lat="45.24031" lon="5.32112">
        <ele>604.4</ele>
        <time>2021-05-03T09:29:52Z</time>
      </trkpt>
      <trkpt lat="45.24031" lon="5.32108">
        <ele>604.6</ele>
        <time>2021-05-03T09:29:53Z</time>
      </trkpt>
      <trkpt lat="45.24031" lon="5.32104">
        <ele>604.8</ele>
        <time>2021-05-03T09:29:54Z</time>
      </trkpt>
      <trkpt lat="45.2403" lon="5.32099">
        <ele>605</ele>
        <time>2021-05-03T09:29:55Z</time>
      </trkpt>
      <trkpt lat="45.2403" lon="5.32097">
        <ele>605.1</ele>
        <time>2021-05-03T09:29:56Z</time>
      </trkpt>
      <trkpt lat="45.24029" lon="5.32092">
        <ele>605.3</ele>
        <time>2021-05-03T09:29:57Z</time>
      </trkpt>
      <trkpt lat="45.24029" lon="5.3209">
        <ele>605.4</ele>
        <time>2021-05-03T09:29:58Z</time>
      </trkpt>
      <trkpt lat="45.24027" lon="5.32085">
        <ele>605.6</ele>
        <time>2021-05-03T09:29:59Z</time>
      </trkpt>
      <trkpt lat="45.24026" lon="5.32083">
        <ele>605.7</ele>
        <time>2021-05-03T09:30:00Z</time>
      </trkpt>
      <trkpt lat="45.24025" lon="5.32078">
        <ele>605.9</ele>
        <time>2021-05-03T09:30:01Z</time>
      </trkpt>
      <trkpt lat="45.24024" lon="5.32071">
        <ele>606.2</ele>
        <time>2021-05-03T09:30:02Z</time>
      </trkpt>
      <trkpt lat="45.24022" lon="5.32065">
        <ele>606.5</ele>
        <time>2021-05-03T09:30:04Z</time>
      </trkpt>
      <trkpt lat="45.24019" lon="5.32059">
        <ele>606.8</ele>
        <time>2021-05-03T09:30:06Z</time>
      </trkpt>
      <trkpt lat="45.24017" lon="5.32054">
        <ele>607</ele>
        <time>2021-05-03T09:30:07Z</time>
      </trkpt>
      <trkpt lat="45.24016" lon="5.32052">
        <ele>607.1</ele>
        <time>2021-05-03T09:30:08Z</time>
      </trkpt>
      <trkpt lat="45.24014" lon="5.32048">
        <ele>607.3</ele>
        <time>2021-05-03T09:30:09Z</time>
      </trkpt>
      <trkpt lat="45.24012" lon="5.32043">
        <ele>607.5</ele>
        <time>2021-05-03T09:30:11Z</time>
      </trkpt>
      <trkpt lat="45.2401" lon="5.32038">
        <ele>607.7</ele>
        <time>2021-05-03T09:30:12Z</time>
      </trkpt>
      <trkpt lat="45.24008" lon="5.32032">
        <ele>608</ele>
        <time>2021-05-03T09:30:14Z</time>
      </trkpt>
      <trkpt lat="45.24007" lon="5.32027">
        <ele>608.2</ele>
        <time>2021-05-03T09:30:16Z</time>
      </trkpt>
      <trkpt lat="45.24006" lon="5.32022">
        <ele>608.4</ele>
        <time>2021-05-03T09:30:17Z</time>
      </trkpt>
      <trkpt lat="45.24004" lon="5.32014">
        <ele>608.7</ele>
        <time>2021-05-03T09:30:19Z</time>
      </trkpt>
      <trkpt lat="45.24002" lon="5.32008">
        <ele>609</ele>
        <time>2021-05-03T09:30:21Z</time>
      </trkpt>
      <trkpt lat="45.24" lon="5.32005">
        <ele>609.1</ele>
        <time>2021-05-03T09:30:22Z</time>
      </trkpt>
      <trkpt lat="45.23998" lon="5.31996">
        <ele>609.5</ele>
        <time>2021-05-03T09:30:24Z</time>
      </trkpt>
      <trkpt lat="45.23997" lon="5.31989">
        <ele>609.7</ele>
        <time>2021-05-03T09:30:26Z</time>
      </trkpt>
      <trkpt lat="45.23996" lon="5.31985">
        <ele>609.9</ele>
        <time>2021-05-03T09:30:27Z</time>
      </trkpt>
      <trkpt lat="45.23996" lon="5.31977">
        <ele>610.2</ele>
        <time>2021-05-03T09:30:29Z</time>
      </trkpt>
      <trkpt lat="45.23996" lon="5.31973">
        <ele>610.3</ele>
        <time>2021-05-03T09:30:30Z</time>
      </trkpt>
      <trkpt lat="45.23995" lon="5.31967">
        <ele>610.5</ele>
        <time>2021-05-03T09:30:31Z</time>
      </trkpt>
      <trkpt lat="45.23995" lon="5.31963">
        <ele>610.7</ele>
        <time>2021-05-03T09:30:32Z</time>
      </trkpt>
      <trkpt lat="45.23995" lon="5.31953">
        <ele>611</ele>
        <time>2021-05-03T09:30:34Z</time>
      </trkpt>
      <trkpt lat="45.23996" lon="5.31944">
        <ele>611.4</ele>
        <time>2021-05-03T09:30:36Z</time>
      </trkpt>
      <trkpt lat="45.23996" lon="5.31938">
        <ele>611.6</ele>
        <time>2021-05-03T09:30:37Z</time>
      </trkpt>
      <trkpt lat="45.23997" lon="5.31933">
        <ele>611.8</ele>
        <time>2021-05-03T09:30:38Z</time>
      </trkpt>
      <trkpt lat="45.23997" lon="5.31929">
        <ele>612</ele>
        <time>2021-05-03T09:30:40Z</time>
      </trkpt>
      <trkpt lat="45.23998" lon="5.31924">
        <ele>612.1</ele>
        <time>2021-05-03T09:30:41Z</time>
      </trkpt>
      <trkpt lat="45.23999" lon="5.31917">
        <ele>612.4</ele>
        <time>2021-05-03T09:30:43Z</time>
      </trkpt>
      <trkpt lat="45.23999" lon="5.31908">
        <ele>612.8</ele>
        <time>2021-05-03T09:30:45Z</time>
      </trkpt>
      <trkpt lat="45.24" lon="5.31899">
        <ele>613.1</ele>
        <time>2021-05-03T09:30:46Z</time>
      </trkpt>
      <trkpt lat="45.24" lon="5.3189">
        <ele>613.5</ele>
        <time>2021-05-03T09:30:48Z</time>
      </trkpt>
      <trkpt lat="45.24" lon="5.31885">
        <ele>613.7</ele>
        <time>2021-05-03T09:30:49Z</time>
      </trkpt>
      <trkpt lat="45.24" lon="5.31876">
        <ele>614.1</ele>
        <time>2021-05-03T09:30:51Z</time>
      </trkpt>
      <trkpt lat="45.24" lon="5.31872">
        <ele>614.2</ele>
        <time>2021-05-03T09:30:52Z</time>
      </trkpt>
      <trkpt lat="45.24" lon="5.31866">
        <ele>614.4</ele>
        <time>2021-05-03T09:30:53Z</time>
      </trkpt>
      <trkpt lat="45.24" lon="5.31859">
        <ele>614.7</ele>
        <time>2021-05-03T09:30:54Z</time>
      </trkpt>
      <trkpt lat="45.24" lon="5.31854">
        <ele>614.9</ele>
        <time>2021-05-03T09:30:56Z</time>
      </trkpt>
      <trkpt lat="45.24001" lon="5.31848">
        <ele>615.1</ele>
        <time>2021-05-03T09:30:57Z</time>
      </trkpt>
      <trkpt lat="45.24002" lon="5.3184">
        <ele>615.4</ele>
        <time>2021-05-03T09:30:59Z</time>
      </trkpt>
      <trkpt lat="45.24003" lon="5.31834">
        <ele>615.6</ele>
        <time>2021-05-03T09:31:01Z</time>
      </trkpt>
      <trkpt lat="45.24004" lon="5.31831">
        <ele>615.8</ele>
        <time>2021-05-03T09:31:02Z</time>
      </trkpt>
      <trkpt lat="45.24005" lon="5.31827">
        <ele>616</ele>
        <time>2021-05-03T09:31:03Z</time>
      </trkpt>
      <trkpt lat="45.24006" lon="5.31823">
        <ele>616.1</ele>
        <time>2021-05-03T09:31:04Z</time>
      </trkpt>
      <trkpt lat="45.24007" lon="5.31819">
        <ele>616.3</ele>
        <time>2021-05-03T09:31:05Z</time>
      </trkpt>
      <trkpt lat="45.24008" lon="5.31815">
        <ele>616.5</ele>
        <time>2021-05-03T09:31:06Z</time>
      </trkpt>
      <trkpt lat="45.24009" lon="5.31811">
        <ele>616.6</ele>
        <time>2021-05-03T09:31:07Z</time>
      </trkpt>
      <trkpt lat="45.2401" lon="5.31806">
        <ele>616.9</ele>
        <time>2021-05-03T09:31:08Z</time>
      </trkpt>
      <trkpt lat="45.24011" lon="5.31804">
        <ele>616.9</ele>
        <time>2021-05-03T09:31:09Z</time>
      </trkpt>
      <trkpt lat="45.24012" lon="5.318">
        <ele>617.1</ele>
        <time>2021-05-03T09:31:10Z</time>
      </trkpt>
      <trkpt lat="45.24013" lon="5.31795">
        <ele>617.3</ele>
        <time>2021-05-03T09:31:11Z</time>
      </trkpt>
      <trkpt lat="45.24014" lon="5.31794">
        <ele>617.4</ele>
        <time>2021-05-03T09:31:12Z</time>
      </trkpt>
      <trkpt lat="45.24015" lon="5.3179">
        <ele>617.5</ele>
        <time>2021-05-03T09:31:13Z</time>
      </trkpt>
      <trkpt lat="45.24016" lon="5.31785">
        <ele>617.7</ele>
        <time>2021-05-03T09:31:14Z</time>
      </trkpt>
      <trkpt lat="45.24017" lon="5.3178">
        <ele>617.9</ele>
        <time>2021-05-03T09:31:15Z</time>
      </trkpt>
      <trkpt lat="45.24017" lon="5.31777">
        <ele>618</ele>
        <time>2021-05-03T09:31:16Z</time>
      </trkpt>
      <trkpt lat="45.24018" lon="5.31774">
        <ele>618.1</ele>
        <time>2021-05-03T09:31:17Z</time>
      </trkpt>
      <trkpt lat="45.24019" lon="5.3177">
        <ele>618.3</ele>
        <time>2021-05-03T09:31:18Z</time>
      </trkpt>
      <trkpt lat="45.2402" lon="5.31766">
        <ele>618.4</ele>
        <time>2021-05-03T09:31:19Z</time>
      </trkpt>
      <trkpt lat="45.24022" lon="5.31762">
        <ele>618.6</ele>
        <time>2021-05-03T09:31:20Z</time>
      </trkpt>
      <trkpt lat="45.24024" lon="5.31758">
        <ele>618.8</ele>
        <time>2021-05-03T09:31:21Z</time>
      </trkpt>
      <trkpt lat="45.24024" lon="5.31756">
        <ele>618.8</ele>
        <time>2021-05-03T09:31:22Z</time>
      </trkpt>
      <trkpt lat="45.24026" lon="5.31753">
        <ele>619</ele>
        <time>2021-05-03T09:31:23Z</time>
      </trkpt>
      <trkpt lat="45.24027" lon="5.31749">
        <ele>619.1</ele>
        <time>2021-05-03T09:31:24Z</time>
      </trkpt>
      <trkpt lat="45.24029" lon="5.31745">
        <ele>619.3</ele>
        <time>2021-05-03T09:31:25Z</time>
      </trkpt>
      <trkpt lat="45.2403" lon="5.31741">
        <ele>619.4</ele>
        <time>2021-05-03T09:31:26Z</time>
      </trkpt>
      <trkpt lat="45.24031" lon="5.31737">
        <ele>619.6</ele>
        <time>2021-05-03T09:31:27Z</time>
      </trkpt>
      <trkpt lat="45.24032" lon="5.31733">
        <ele>619.7</ele>
        <time>2021-05-03T09:31:28Z</time>
      </trkpt>
      <trkpt lat="45.24034" lon="5.31729">
        <ele>619.9</ele>
        <time>2021-05-03T09:31:29Z</time>
      </trkpt>
      <trkpt lat="45.24035" lon="5.31724">
        <ele>620.1</ele>
        <time>2021-05-03T09:31:30Z</time>
      </trkpt>
      <trkpt lat="45.24036" lon="5.31723">
        <ele>620.1</ele>
        <time>2021-05-03T09:31:31Z</time>
      </trkpt>
      <trkpt lat="45.24037" lon="5.31719">
        <ele>620.3</ele>
        <time>2021-05-03T09:31:32Z</time>
      </trkpt>
      <trkpt lat="45.24038" lon="5.31715">
        <ele>620.5</ele>
        <time>2021-05-03T09:31:33Z</time>
      </trkpt>
      <trkpt lat="45.24039" lon="5.31711">
        <ele>620.6</ele>
        <time>2021-05-03T09:31:34Z</time>
      </trkpt>
      <trkpt lat="45.24041" lon="5.31706">
        <ele>620.8</ele>
        <time>2021-05-03T09:31:35Z</time>
      </trkpt>
      <trkpt lat="45.24042" lon="5.31705">
        <ele>620.9</ele>
        <time>2021-05-03T09:31:36Z</time>
      </trkpt>
      <trkpt lat="45.24044" lon="5.317">
        <ele>621.1</ele>
        <time>2021-05-03T09:31:37Z</time>
      </trkpt>
      <trkpt lat="45.24044" lon="5.31699">
        <ele>621.2</ele>
        <time>2021-05-03T09:31:38Z</time>
      </trkpt>
      <trkpt lat="45.24046" lon="5.31695">
        <ele>621.3</ele>
        <time>2021-05-03T09:31:39Z</time>
      </trkpt>
      <trkpt lat="45.24047" lon="5.31692">
        <ele>621.5</ele>
        <time>2021-05-03T09:31:40Z</time>
      </trkpt>
      <trkpt lat="45.24048" lon="5.31687">
        <ele>621.7</ele>
        <time>2021-05-03T09:31:41Z</time>
      </trkpt>
      <trkpt lat="45.24049" lon="5.31685">
        <ele>621.8</ele>
        <time>2021-05-03T09:31:42Z</time>
      </trkpt>
      <trkpt lat="45.2405" lon="5.31681">
        <ele>622</ele>
        <time>2021-05-03T09:31:43Z</time>
      </trkpt>
      <trkpt lat="45.24051" lon="5.31679">
        <ele>622</ele>
        <time>2021-05-03T09:31:44Z</time>
      </trkpt>
      <trkpt lat="45.24052" lon="5.31675">
        <ele>622.2</ele>
        <time>2021-05-03T09:31:45Z</time>
      </trkpt>
      <trkpt lat="45.24053" lon="5.31673">
        <ele>622.3</ele>
        <time>2021-05-03T09:31:46Z</time>
      </trkpt>
      <trkpt lat="45.24054" lon="5.3167">
        <ele>622.4</ele>
        <time>2021-05-03T09:31:47Z</time>
      </trkpt>
      <trkpt lat="45.24055" lon="5.31666">
        <ele>622.6</ele>
        <time>2021-05-03T09:31:48Z</time>
      </trkpt>
      <trkpt lat="45.24056" lon="5.31661">
        <ele>622.8</ele>
        <time>2021-05-03T09:31:49Z</time>
      </trkpt>
      <trkpt lat="45.24057" lon="5.3166">
        <ele>622.8</ele>
        <time>2021-05-03T09:31:50Z</time>
      </trkpt>
      <trkpt lat="45.24059" lon="5.31655">
        <ele>623</ele>
        <time>2021-05-03T09:31:51Z</time>
      </trkpt>
      <trkpt lat="45.2406" lon="5.31653">
        <ele>623.1</ele>
        <time>2021-05-03T09:31:52Z</time>
      </trkpt>
      <trkpt lat="45.24062" lon="5.31648">
        <ele>623.3</ele>
        <time>2021-05-03T09:31:53Z</time>
      </trkpt>
      <trkpt lat="45.24063" lon="5.31647">
        <ele>623.4</ele>
        <time>2021-05-03T09:31:54Z</time>
      </trkpt>
      <trkpt lat="45.24065" lon="5.31643">
        <ele>623.6</ele>
        <time>2021-05-03T09:31:55Z</time>
      </trkpt>
      <trkpt lat="45.24066" lon="5.31641">
        <ele>623.7</ele>
        <time>2021-05-03T09:31:56Z</time>
      </trkpt>
      <trkpt lat="45.24068" lon="5.31639">
        <ele>623.8</ele>
        <time>2021-05-03T09:31:57Z</time>
      </trkpt>
      <trkpt lat="45.2407" lon="5.31635">
        <ele>624</ele>
        <time>2021-05-03T09:31:58Z</time>
      </trkpt>
      <trkpt lat="45.24071" lon="5.31632">
        <ele>624.1</ele>
        <time>2021-05-03T09:31:59Z</time>
      </trkpt>
      <trkpt lat="45.24073" lon="5.31627">
        <ele>624.3</ele>
        <time>2021-05-03T09:32:00Z</time>
      </trkpt>
      <trkpt lat="45.24074" lon="5.31625">
        <ele>624.4</ele>
        <time>2021-05-03T09:32:01Z</time>
      </trkpt>
      <trkpt lat="45.24076" lon="5.31622">
        <ele>624.5</ele>
        <time>2021-05-03T09:32:02Z</time>
      </trkpt>
      <trkpt lat="45.24077" lon="5.31619">
        <ele>624.7</ele>
        <time>2021-05-03T09:32:03Z</time>
      </trkpt>
      <trkpt lat="45.24079" lon="5.31615">
        <ele>624.8</ele>
        <time>2021-05-03T09:32:04Z</time>
      </trkpt>
      <trkpt lat="45.2408" lon="5.31611">
        <ele>625</ele>
        <time>2021-05-03T09:32:05Z</time>
      </trkpt>
      <trkpt lat="45.24081" lon="5.31607">
        <ele>625.1</ele>
        <time>2021-05-03T09:32:06Z</time>
      </trkpt>
      <trkpt lat="45.24083" lon="5.31604">
        <ele>625.3</ele>
        <time>2021-05-03T09:32:07Z</time>
      </trkpt>
      <trkpt lat="45.24084" lon="5.31601">
        <ele>625.4</ele>
        <time>2021-05-03T09:32:08Z</time>
      </trkpt>
      <trkpt lat="45.24087" lon="5.31596">
        <ele>625.6</ele>
        <time>2021-05-03T09:32:09Z</time>
      </trkpt>
      <trkpt lat="45.24087" lon="5.31595">
        <ele>625.7</ele>
        <time>2021-05-03T09:32:10Z</time>
      </trkpt>
      <trkpt lat="45.24089" lon="5.31592">
        <ele>625.8</ele>
        <time>2021-05-03T09:32:11Z</time>
      </trkpt>
      <trkpt lat="45.2409" lon="5.31588">
        <ele>626</ele>
        <time>2021-05-03T09:32:12Z</time>
      </trkpt>
      <trkpt lat="45.24092" lon="5.31585">
        <ele>626.1</ele>
        <time>2021-05-03T09:32:13Z</time>
      </trkpt>
      <trkpt lat="45.24094" lon="5.3158">
        <ele>626.3</ele>
        <time>2021-05-03T09:32:14Z</time>
      </trkpt>
      <trkpt lat="45.24094" lon="5.31578">
        <ele>626.4</ele>
        <time>2021-05-03T09:32:15Z</time>
      </trkpt>
      <trkpt lat="45.24097" lon="5.31573">
        <ele>626.6</ele>
        <time>2021-05-03T09:32:16Z</time>
      </trkpt>
      <trkpt lat="45.24097" lon="5.31572">
        <ele>626.7</ele>
        <time>2021-05-03T09:32:17Z</time>
      </trkpt>
      <trkpt lat="45.24099" lon="5.31567">
        <ele>626.9</ele>
        <time>2021-05-03T09:32:18Z</time>
      </trkpt>
      <trkpt lat="45.241" lon="5.31565">
        <ele>627</ele>
        <time>2021-05-03T09:32:19Z</time>
      </trkpt>
      <trkpt lat="45.24102" lon="5.31562">
        <ele>627.1</ele>
        <time>2021-05-03T09:32:20Z</time>
      </trkpt>
      <trkpt lat="45.24104" lon="5.31558">
        <ele>627.3</ele>
        <time>2021-05-03T09:32:21Z</time>
      </trkpt>
      <trkpt lat="45.24106" lon="5.31554">
        <ele>627.5</ele>
        <time>2021-05-03T09:32:22Z</time>
      </trkpt>
      <trkpt lat="45.24107" lon="5.31551">
        <ele>627.6</ele>
        <time>2021-05-03T09:32:23Z</time>
      </trkpt>
      <trkpt lat="45.24109" lon="5.31547">
        <ele>627.8</ele>
        <time>2021-05-03T09:32:24Z</time>
      </trkpt>
      <trkpt lat="45.24111" lon="5.31544">
        <ele>627.9</ele>
        <time>2021-05-03T09:32:25Z</time>
      </trkpt>
      <trkpt lat="45.24113" lon="5.3154">
        <ele>628.1</ele>
        <time>2021-05-03T09:32:26Z</time>
      </trkpt>
      <trkpt lat="45.24114" lon="5.31537">
        <ele>628.3</ele>
        <time>2021-05-03T09:32:27Z</time>
      </trkpt>
      <trkpt lat="45.24117" lon="5.31533">
        <ele>628.4</ele>
        <time>2021-05-03T09:32:28Z</time>
      </trkpt>
      <trkpt lat="45.24119" lon="5.3153">
        <ele>628.6</ele>
        <time>2021-05-03T09:32:29Z</time>
      </trkpt>
      <trkpt lat="45.24121" lon="5.31526">
        <ele>628.7</ele>
        <time>2021-05-03T09:32:30Z</time>
      </trkpt>
      <trkpt lat="45.24123" lon="5.31523">
        <ele>628.9</ele>
        <time>2021-05-03T09:32:31Z</time>
      </trkpt>
      <trkpt lat="45.24125" lon="5.3152">
        <ele>629.1</ele>
        <time>2021-05-03T09:32:32Z</time>
      </trkpt>
      <trkpt lat="45.24128" lon="5.31517">
        <ele>629.2</ele>
        <time>2021-05-03T09:32:33Z</time>
      </trkpt>
      <trkpt lat="45.2413" lon="5.31515">
        <ele>629.4</ele>
        <time>2021-05-03T09:32:34Z</time>
      </trkpt>
      <trkpt lat="45.24133" lon="5.31513">
        <ele>629.5</ele>
        <time>2021-05-03T09:32:35Z</time>
      </trkpt>
      <trkpt lat="45.24136" lon="5.31511">
        <ele>629.7</ele>
        <time>2021-05-03T09:32:36Z</time>
      </trkpt>
      <trkpt lat="45.24139" lon="5.31509">
        <ele>629.8</ele>
        <time>2021-05-03T09:32:37Z</time>
      </trkpt>
      <trkpt lat="45.24142" lon="5.31508">
        <ele>630</ele>
        <time>2021-05-03T09:32:38Z</time>
      </trkpt>
      <trkpt lat="45.24144" lon="5.31507">
        <ele>630.2</ele>
        <time>2021-05-03T09:32:39Z</time>
      </trkpt>
      <trkpt lat="45.24147" lon="5.31506">
        <ele>630.3</ele>
        <time>2021-05-03T09:32:40Z</time>
      </trkpt>
      <trkpt lat="45.2415" lon="5.31506">
        <ele>630.5</ele>
        <time>2021-05-03T09:32:41Z</time>
      </trkpt>
      <trkpt lat="45.24153" lon="5.31505">
        <ele>630.6</ele>
        <time>2021-05-03T09:32:42Z</time>
      </trkpt>
      <trkpt lat="45.24157" lon="5.31505">
        <ele>630.8</ele>
        <time>2021-05-03T09:32:43Z</time>
      </trkpt>
      <trkpt lat="45.24158" lon="5.31505">
        <ele>630.9</ele>
        <time>2021-05-03T09:32:44Z</time>
      </trkpt>
      <trkpt lat="45.24162" lon="5.31505">
        <ele>631</ele>
        <time>2021-05-03T09:32:45Z</time>
      </trkpt>
      <trkpt lat="45.24163" lon="5.31505">
        <ele>631.1</ele>
        <time>2021-05-03T09:32:46Z</time>
      </trkpt>
      <trkpt lat="45.24166" lon="5.31504">
        <ele>631.3</ele>
        <time>2021-05-03T09:32:47Z</time>
      </trkpt>
      <trkpt lat="45.24169" lon="5.31504">
        <ele>631.5</ele>
        <time>2021-05-03T09:32:48Z</time>
      </trkpt>
      <trkpt lat="45.24171" lon="5.31504">
        <ele>631.5</ele>
        <time>2021-05-03T09:32:49Z</time>
      </trkpt>
      <trkpt lat="45.24174" lon="5.31503">
        <ele>631.7</ele>
        <time>2021-05-03T09:32:50Z</time>
      </trkpt>
      <trkpt lat="45.24177" lon="5.31503">
        <ele>631.9</ele>
        <time>2021-05-03T09:32:51Z</time>
      </trkpt>
      <trkpt lat="45.24179" lon="5.31503">
        <ele>632</ele>
        <time>2021-05-03T09:32:52Z</time>
      </trkpt>
      <trkpt lat="45.24183" lon="5.31503">
        <ele>632.2</ele>
        <time>2021-05-03T09:32:53Z</time>
      </trkpt>
      <trkpt lat="45.24184" lon="5.31503">
        <ele>632.3</ele>
        <time>2021-05-03T09:32:54Z</time>
      </trkpt>
      <trkpt lat="45.24188" lon="5.31503">
        <ele>632.5</ele>
        <time>2021-05-03T09:32:55Z</time>
      </trkpt>
      <trkpt lat="45.24189" lon="5.31503">
        <ele>632.5</ele>
        <time>2021-05-03T09:32:56Z</time>
      </trkpt>
      <trkpt lat="45.24193" lon="5.31503">
        <ele>632.7</ele>
        <time>2021-05-03T09:32:57Z</time>
      </trkpt>
      <trkpt lat="45.24194" lon="5.31503">
        <ele>632.8</ele>
        <time>2021-05-03T09:32:58Z</time>
      </trkpt>
      <trkpt lat="45.24197" lon="5.31502">
        <ele>632.9</ele>
        <time>2021-05-03T09:32:59Z</time>
      </trkpt>
      <trkpt lat="45.242" lon="5.31502">
        <ele>633</ele>
        <time>2021-05-03T09:33:00Z</time>
      </trkpt>
      <trkpt lat="45.24204" lon="5.31501">
        <ele>633.2</ele>
        <time>2021-05-03T09:33:01Z</time>
      </trkpt>
      <trkpt lat="45.24205" lon="5.31501">
        <ele>633.3</ele>
        <time>2021-05-03T09:33:02Z</time>
      </trkpt>
      <trkpt lat="45.24209" lon="5.31501">
        <ele>633.5</ele>
        <time>2021-05-03T09:33:03Z</time>
      </trkpt>
      <trkpt lat="45.24211" lon="5.315">
        <ele>633.6</ele>
        <time>2021-05-03T09:33:04Z</time>
      </trkpt>
      <trkpt lat="45.24215" lon="5.315">
        <ele>633.7</ele>
        <time>2021-05-03T09:33:05Z</time>
      </trkpt>
      <trkpt lat="45.24216" lon="5.31499">
        <ele>633.7</ele>
        <time>2021-05-03T09:33:06Z</time>
      </trkpt>
      <trkpt lat="45.24219" lon="5.31499">
        <ele>633.8</ele>
        <time>2021-05-03T09:33:07Z</time>
      </trkpt>
      <trkpt lat="45.24222" lon="5.31499">
        <ele>633.9</ele>
        <time>2021-05-03T09:33:08Z</time>
      </trkpt>
      <trkpt lat="45.24226" lon="5.31498">
        <ele>634</ele>
        <time>2021-05-03T09:33:09Z</time>
      </trkpt>
      <trkpt lat="45.24227" lon="5.31497">
        <ele>634.1</ele>
        <time>2021-05-03T09:33:10Z</time>
      </trkpt>
      <trkpt lat="45.24231" lon="5.31496">
        <ele>634.2</ele>
        <time>2021-05-03T09:33:11Z</time>
      </trkpt>
      <trkpt lat="45.24232" lon="5.31495">
        <ele>634.2</ele>
        <time>2021-05-03T09:33:12Z</time>
      </trkpt>
      <trkpt lat="45.24235" lon="5.31494">
        <ele>634.3</ele>
        <time>2021-05-03T09:33:13Z</time>
      </trkpt>
      <trkpt lat="45.24239" lon="5.31492">
        <ele>634.6</ele>
        <time>2021-05-03T09:33:14Z</time>
      </trkpt>
      <trkpt lat="45.2424" lon="5.31491">
        <ele>634.6</ele>
        <time>2021-05-03T09:33:15Z</time>
      </trkpt>
      <trkpt lat="45.24244" lon="5.31488">
        <ele>634.8</ele>
        <time>2021-05-03T09:33:16Z</time>
      </trkpt>
      <trkpt lat="45.24245" lon="5.31487">
        <ele>634.9</ele>
        <time>2021-05-03T09:33:17Z</time>
      </trkpt>
      <trkpt lat="45.24247" lon="5.31485">
        <ele>635.1</ele>
        <time>2021-05-03T09:33:18Z</time>
      </trkpt>
      <trkpt lat="45.24249" lon="5.31482">
        <ele>635.2</ele>
        <time>2021-05-03T09:33:19Z</time>
      </trkpt>
      <trkpt lat="45.24253" lon="5.31479">
        <ele>635.4</ele>
        <time>2021-05-03T09:33:20Z</time>
      </trkpt>
      <trkpt lat="45.24254" lon="5.31478">
        <ele>635.5</ele>
        <time>2021-05-03T09:33:21Z</time>
      </trkpt>
      <trkpt lat="45.24257" lon="5.31475">
        <ele>635.7</ele>
        <time>2021-05-03T09:33:22Z</time>
      </trkpt>
      <trkpt lat="45.2426" lon="5.31472">
        <ele>635.9</ele>
        <time>2021-05-03T09:33:23Z</time>
      </trkpt>
      <trkpt lat="45.24261" lon="5.3147">
        <ele>636</ele>
        <time>2021-05-03T09:33:24Z</time>
      </trkpt>
      <trkpt lat="45.24263" lon="5.31468">
        <ele>636.1</ele>
        <time>2021-05-03T09:33:25Z</time>
      </trkpt>
      <trkpt lat="45.24265" lon="5.31465">
        <ele>636.3</ele>
        <time>2021-05-03T09:33:26Z</time>
      </trkpt>
      <trkpt lat="45.24267" lon="5.31462">
        <ele>636.4</ele>
        <time>2021-05-03T09:33:27Z</time>
      </trkpt>
      <trkpt lat="45.24269" lon="5.31459">
        <ele>636.6</ele>
        <time>2021-05-03T09:33:28Z</time>
      </trkpt>
      <trkpt lat="45.2427" lon="5.31455">
        <ele>636.7</ele>
        <time>2021-05-03T09:33:29Z</time>
      </trkpt>
      <trkpt lat="45.24272" lon="5.31452">
        <ele>636.9</ele>
        <time>2021-05-03T09:33:30Z</time>
      </trkpt>
      <trkpt lat="45.24273" lon="5.31447">
        <ele>637.1</ele>
        <time>2021-05-03T09:33:31Z</time>
      </trkpt>
      <trkpt lat="45.24274" lon="5.31446">
        <ele>637.1</ele>
        <time>2021-05-03T09:33:32Z</time>
      </trkpt>
      <trkpt lat="45.24275" lon="5.3144">
        <ele>637.3</ele>
        <time>2021-05-03T09:33:33Z</time>
      </trkpt>
      <trkpt lat="45.24275" lon="5.31438">
        <ele>637.4</ele>
        <time>2021-05-03T09:33:34Z</time>
      </trkpt>
      <trkpt lat="45.24276" lon="5.31434">
        <ele>637.6</ele>
        <time>2021-05-03T09:33:35Z</time>
      </trkpt>
      <trkpt lat="45.24277" lon="5.31428">
        <ele>637.8</ele>
        <time>2021-05-03T09:33:36Z</time>
      </trkpt>
      <trkpt lat="45.24277" lon="5.31426">
        <ele>637.8</ele>
        <time>2021-05-03T09:33:37Z</time>
      </trkpt>
      <trkpt lat="45.24278" lon="5.31421">
        <ele>638</ele>
        <time>2021-05-03T09:33:38Z</time>
      </trkpt>
      <trkpt lat="45.24278" lon="5.31419">
        <ele>638.1</ele>
        <time>2021-05-03T09:33:39Z</time>
      </trkpt>
      <trkpt lat="45.24278" lon="5.31415">
        <ele>638.3</ele>
        <time>2021-05-03T09:33:40Z</time>
      </trkpt>
      <trkpt lat="45.24279" lon="5.31409">
        <ele>638.5</ele>
        <time>2021-05-03T09:33:41Z</time>
      </trkpt>
      <trkpt lat="45.24279" lon="5.31407">
        <ele>638.6</ele>
        <time>2021-05-03T09:33:42Z</time>
      </trkpt>
      <trkpt lat="45.24279" lon="5.31403">
        <ele>638.8</ele>
        <time>2021-05-03T09:33:43Z</time>
      </trkpt>
      <trkpt lat="45.24279" lon="5.31399">
        <ele>638.9</ele>
        <time>2021-05-03T09:33:44Z</time>
      </trkpt>
      <trkpt lat="45.2428" lon="5.31394">
        <ele>639.1</ele>
        <time>2021-05-03T09:33:45Z</time>
      </trkpt>
      <trkpt lat="45.2428" lon="5.31389">
        <ele>639.3</ele>
        <time>2021-05-03T09:33:46Z</time>
      </trkpt>
      <trkpt lat="45.2428" lon="5.31384">
        <ele>639.5</ele>
        <time>2021-05-03T09:33:47Z</time>
      </trkpt>
      <trkpt lat="45.2428" lon="5.31382">
        <ele>639.6</ele>
        <time>2021-05-03T09:33:48Z</time>
      </trkpt>
      <trkpt lat="45.24281" lon="5.31378">
        <ele>639.8</ele>
        <time>2021-05-03T09:33:49Z</time>
      </trkpt>
      <trkpt lat="45.24282" lon="5.31373">
        <ele>640</ele>
        <time>2021-05-03T09:33:50Z</time>
      </trkpt>
      <trkpt lat="45.24282" lon="5.3137">
        <ele>640.1</ele>
        <time>2021-05-03T09:33:51Z</time>
      </trkpt>
      <trkpt lat="45.24282" lon="5.31367">
        <ele>640.3</ele>
        <time>2021-05-03T09:33:52Z</time>
      </trkpt>
      <trkpt lat="45.24283" lon="5.31361">
        <ele>640.5</ele>
        <time>2021-05-03T09:33:53Z</time>
      </trkpt>
      <trkpt lat="45.24284" lon="5.31359">
        <ele>640.6</ele>
        <time>2021-05-03T09:33:54Z</time>
      </trkpt>
      <trkpt lat="45.24284" lon="5.31355">
        <ele>640.7</ele>
        <time>2021-05-03T09:33:55Z</time>
      </trkpt>
      <trkpt lat="45.24285" lon="5.31349">
        <ele>641</ele>
        <time>2021-05-03T09:33:56Z</time>
      </trkpt>
      <trkpt lat="45.24286" lon="5.31347">
        <ele>641</ele>
        <time>2021-05-03T09:33:57Z</time>
      </trkpt>
      <trkpt lat="45.24286" lon="5.31343">
        <ele>641.2</ele>
        <time>2021-05-03T09:33:58Z</time>
      </trkpt>
      <trkpt lat="45.24287" lon="5.3134">
        <ele>641.3</ele>
        <time>2021-05-03T09:33:59Z</time>
      </trkpt>
      <trkpt lat="45.24288" lon="5.31336">
        <ele>641.5</ele>
        <time>2021-05-03T09:34:00Z</time>
      </trkpt>
      <trkpt lat="45.2429" lon="5.31331">
        <ele>641.7</ele>
        <time>2021-05-03T09:34:01Z</time>
      </trkpt>
      <trkpt lat="45.24291" lon="5.31329">
        <ele>641.8</ele>
        <time>2021-05-03T09:34:02Z</time>
      </trkpt>
      <trkpt lat="45.24292" lon="5.31325">
        <ele>641.9</ele>
        <time>2021-05-03T09:34:03Z</time>
      </trkpt>
      <trkpt lat="45.24294" lon="5.31321">
        <ele>642.1</ele>
        <time>2021-05-03T09:34:04Z</time>
      </trkpt>
      <trkpt lat="45.24296" lon="5.31317">
        <ele>642.2</ele>
        <time>2021-05-03T09:34:05Z</time>
      </trkpt>
      <trkpt lat="45.24297" lon="5.31314">
        <ele>642.4</ele>
        <time>2021-05-03T09:34:06Z</time>
      </trkpt>
      <trkpt lat="45.24299" lon="5.31311">
        <ele>642.5</ele>
        <time>2021-05-03T09:34:07Z</time>
      </trkpt>
      <trkpt lat="45.24301" lon="5.31308">
        <ele>642.7</ele>
        <time>2021-05-03T09:34:08Z</time>
      </trkpt>
      <trkpt lat="45.24303" lon="5.31304">
        <ele>642.8</ele>
        <time>2021-05-03T09:34:09Z</time>
      </trkpt>
      <trkpt lat="45.24305" lon="5.31301">
        <ele>643</ele>
        <time>2021-05-03T09:34:10Z</time>
      </trkpt>
      <trkpt lat="45.24307" lon="5.31298">
        <ele>643.2</ele>
        <time>2021-05-03T09:34:11Z</time>
      </trkpt>
      <trkpt lat="45.24309" lon="5.31295">
        <ele>643.3</ele>
        <time>2021-05-03T09:34:12Z</time>
      </trkpt>
      <trkpt lat="45.2431" lon="5.31292">
        <ele>643.5</ele>
        <time>2021-05-03T09:34:13Z</time>
      </trkpt>
      <trkpt lat="45.24312" lon="5.31287">
        <ele>643.7</ele>
        <time>2021-05-03T09:34:14Z</time>
      </trkpt>
      <trkpt lat="45.24313" lon="5.31285">
        <ele>643.8</ele>
        <time>2021-05-03T09:34:15Z</time>
      </trkpt>
      <trkpt lat="45.24315" lon="5.31282">
        <ele>643.9</ele>
        <time>2021-05-03T09:34:16Z</time>
      </trkpt>
      <trkpt lat="45.24317" lon="5.31277">
        <ele>644.2</ele>
        <time>2021-05-03T09:34:17Z</time>
      </trkpt>
      <trkpt lat="45.24317" lon="5.31276">
        <ele>644.2</ele>
        <time>2021-05-03T09:34:18Z</time>
      </trkpt>
      <trkpt lat="45.24319" lon="5.31271">
        <ele>644.5</ele>
        <time>2021-05-03T09:34:19Z</time>
      </trkpt>
      <trkpt lat="45.2432" lon="5.3127">
        <ele>644.5</ele>
        <time>2021-05-03T09:34:20Z</time>
      </trkpt>
      <trkpt lat="45.24321" lon="5.31264">
        <ele>644.7</ele>
        <time>2021-05-03T09:34:21Z</time>
      </trkpt>
      <trkpt lat="45.24322" lon="5.31262">
        <ele>644.8</ele>
        <time>2021-05-03T09:34:22Z</time>
      </trkpt>
      <trkpt lat="45.24322" lon="5.31259">
        <ele>645</ele>
        <time>2021-05-03T09:34:23Z</time>
      </trkpt>
      <trkpt lat="45.24323" lon="5.31255">
        <ele>645.2</ele>
        <time>2021-05-03T09:34:24Z</time>
      </trkpt>
      <trkpt lat="45.24324" lon="5.31251">
        <ele>645.3</ele>
        <time>2021-05-03T09:34:25Z</time>
      </trkpt>
      <trkpt lat="45.24325" lon="5.31246">
        <ele>645.5</ele>
        <time>2021-05-03T09:34:26Z</time>
      </trkpt>
      <trkpt lat="45.24325" lon="5.31242">
        <ele>645.7</ele>
        <time>2021-05-03T09:34:27Z</time>
      </trkpt>
      <trkpt lat="45.24326" lon="5.31238">
        <ele>645.9</ele>
        <time>2021-05-03T09:34:28Z</time>
      </trkpt>
      <trkpt lat="45.24326" lon="5.31232">
        <ele>646.1</ele>
        <time>2021-05-03T09:34:29Z</time>
      </trkpt>
      <trkpt lat="45.24326" lon="5.3123">
        <ele>646.2</ele>
        <time>2021-05-03T09:34:30Z</time>
      </trkpt>
      <trkpt lat="45.24327" lon="5.31225">
        <ele>646.4</ele>
        <time>2021-05-03T09:34:31Z</time>
      </trkpt>
      <trkpt lat="45.24327" lon="5.31223">
        <ele>646.5</ele>
        <time>2021-05-03T09:34:32Z</time>
      </trkpt>
      <trkpt lat="45.24327" lon="5.31218">
        <ele>646.7</ele>
        <time>2021-05-03T09:34:33Z</time>
      </trkpt>
      <trkpt lat="45.24327" lon="5.31216">
        <ele>646.8</ele>
        <time>2021-05-03T09:34:34Z</time>
      </trkpt>
      <trkpt lat="45.24327" lon="5.31212">
        <ele>647</ele>
        <time>2021-05-03T09:34:35Z</time>
      </trkpt>
      <trkpt lat="45.24327" lon="5.31207">
        <ele>647.1</ele>
        <time>2021-05-03T09:34:36Z</time>
      </trkpt>
      <trkpt lat="45.24327" lon="5.31203">
        <ele>647.3</ele>
        <time>2021-05-03T09:34:37Z</time>
      </trkpt>
      <trkpt lat="45.24326" lon="5.31199">
        <ele>647.5</ele>
        <time>2021-05-03T09:34:38Z</time>
      </trkpt>
      <trkpt lat="45.24324" lon="5.31194">
        <ele>647.7</ele>
        <time>2021-05-03T09:34:39Z</time>
      </trkpt>
      <trkpt lat="45.24323" lon="5.31192">
        <ele>647.8</ele>
        <time>2021-05-03T09:34:40Z</time>
      </trkpt>
      <trkpt lat="45.24321" lon="5.31189">
        <ele>648</ele>
        <time>2021-05-03T09:34:41Z</time>
      </trkpt>
      <trkpt lat="45.24319" lon="5.31185">
        <ele>648.2</ele>
        <time>2021-05-03T09:34:42Z</time>
      </trkpt>
      <trkpt lat="45.24316" lon="5.31182">
        <ele>648.4</ele>
        <time>2021-05-03T09:34:43Z</time>
      </trkpt>
      <trkpt lat="45.24314" lon="5.31182">
        <ele>648.5</ele>
        <time>2021-05-03T09:34:44Z</time>
      </trkpt>
      <trkpt lat="45.24312" lon="5.3118">
        <ele>648.7</ele>
        <time>2021-05-03T09:34:45Z</time>
      </trkpt>
      <trkpt lat="45.24309" lon="5.31179">
        <ele>648.8</ele>
        <time>2021-05-03T09:34:46Z</time>
      </trkpt>
      <trkpt lat="45.24306" lon="5.31179">
        <ele>649.1</ele>
        <time>2021-05-03T09:34:47Z</time>
      </trkpt>
      <trkpt lat="45.24303" lon="5.3118">
        <ele>649.3</ele>
        <time>2021-05-03T09:34:48Z</time>
      </trkpt>
      <trkpt lat="45.243" lon="5.31181">
        <ele>649.6</ele>
        <time>2021-05-03T09:34:49Z</time>
      </trkpt>
      <trkpt lat="45.24297" lon="5.31184">
        <ele>649.8</ele>
        <time>2021-05-03T09:34:50Z</time>
      </trkpt>
      <trkpt lat="45.24295" lon="5.31187">
        <ele>650</ele>
        <time>2021-05-03T09:34:51Z</time>
      </trkpt>
      <trkpt lat="45.24292" lon="5.31191">
        <ele>650.3</ele>
        <time>2021-05-03T09:34:52Z</time>
      </trkpt>
      <trkpt lat="45.24292" lon="5.31193">
        <ele>650.4</ele>
        <time>2021-05-03T09:34:53Z</time>
      </trkpt>
      <trkpt lat="45.2429" lon="5.31196">
        <ele>650.6</ele>
        <time>2021-05-03T09:34:54Z</time>
      </trkpt>
      <trkpt lat="45.24287" lon="5.31198">
        <ele>650.8</ele>
        <time>2021-05-03T09:34:55Z</time>
      </trkpt>
      <trkpt lat="45.24285" lon="5.312">
        <ele>651</ele>
        <time>2021-05-03T09:34:56Z</time>
      </trkpt>
      <trkpt lat="45.24282" lon="5.31202">
        <ele>651.2</ele>
        <time>2021-05-03T09:34:57Z</time>
      </trkpt>
      <trkpt lat="45.24279" lon="5.31202">
        <ele>651.4</ele>
        <time>2021-05-03T09:34:58Z</time>
      </trkpt>
      <trkpt lat="45.24276" lon="5.31202">
        <ele>651.6</ele>
        <time>2021-05-03T09:34:59Z</time>
      </trkpt>
      <trkpt lat="45.24273" lon="5.31202">
        <ele>651.8</ele>
        <time>2021-05-03T09:35:00Z</time>
      </trkpt>
      <trkpt lat="45.24268" lon="5.31201">
        <ele>652.1</ele>
        <time>2021-05-03T09:35:01Z</time>
      </trkpt>
      <trkpt lat="45.24267" lon="5.312">
        <ele>652.2</ele>
        <time>2021-05-03T09:35:02Z</time>
      </trkpt>
      <trkpt lat="45.24264" lon="5.312">
        <ele>652.3</ele>
        <time>2021-05-03T09:35:03Z</time>
      </trkpt>
      <trkpt lat="45.24261" lon="5.31199">
        <ele>652.5</ele>
        <time>2021-05-03T09:35:04Z</time>
      </trkpt>
      <trkpt lat="45.2426" lon="5.31199">
        <ele>652.6</ele>
        <time>2021-05-03T09:35:05Z</time>
      </trkpt>
      <trkpt lat="45.24257" lon="5.31199">
        <ele>652.8</ele>
        <time>2021-05-03T09:35:06Z</time>
      </trkpt>
      <trkpt lat="45.24255" lon="5.31198">
        <ele>652.9</ele>
        <time>2021-05-03T09:35:07Z</time>
      </trkpt>
      <trkpt lat="45.24251" lon="5.31197">
        <ele>653.1</ele>
        <time>2021-05-03T09:35:08Z</time>
      </trkpt>
      <trkpt lat="45.2425" lon="5.31197">
        <ele>653.1</ele>
        <time>2021-05-03T09:35:09Z</time>
      </trkpt>
      <trkpt lat="45.24247" lon="5.31196">
        <ele>653.3</ele>
        <time>2021-05-03T09:35:10Z</time>
      </trkpt>
      <trkpt lat="45.24244" lon="5.31194">
        <ele>653.4</ele>
        <time>2021-05-03T09:35:11Z</time>
      </trkpt>
      <trkpt lat="45.24241" lon="5.31193">
        <ele>653.6</ele>
        <time>2021-05-03T09:35:12Z</time>
      </trkpt>
      <trkpt lat="45.24239" lon="5.31192">
        <ele>653.7</ele>
        <time>2021-05-03T09:35:13Z</time>
      </trkpt>
      <trkpt lat="45.24236" lon="5.31191">
        <ele>653.9</ele>
        <time>2021-05-03T09:35:14Z</time>
      </trkpt>
      <trkpt lat="45.24232" lon="5.31189">
        <ele>654</ele>
        <time>2021-05-03T09:35:15Z</time>
      </trkpt>
      <trkpt lat="45.2423" lon="5.31189">
        <ele>654.1</ele>
        <time>2021-05-03T09:35:16Z</time>
      </trkpt>
      <trkpt lat="45.24227" lon="5.31188">
        <ele>654.3</ele>
        <time>2021-05-03T09:35:17Z</time>
      </trkpt>
      <trkpt lat="45.24224" lon="5.31186">
        <ele>654.4</ele>
        <time>2021-05-03T09:35:18Z</time>
      </trkpt>
      <trkpt lat="45.24221" lon="5.31184">
        <ele>654.6</ele>
        <time>2021-05-03T09:35:19Z</time>
      </trkpt>
      <trkpt lat="45.24218" lon="5.31183">
        <ele>654.7</ele>
        <time>2021-05-03T09:35:20Z</time>
      </trkpt>
      <trkpt lat="45.24215" lon="5.31181">
        <ele>654.9</ele>
        <time>2021-05-03T09:35:21Z</time>
      </trkpt>
      <trkpt lat="45.24214" lon="5.31181">
        <ele>654.9</ele>
        <time>2021-05-03T09:35:22Z</time>
      </trkpt>
      <trkpt lat="45.24211" lon="5.31179">
        <ele>655.1</ele>
        <time>2021-05-03T09:35:23Z</time>
      </trkpt>
      <trkpt lat="45.24209" lon="5.31176">
        <ele>655.2</ele>
        <time>2021-05-03T09:35:24Z</time>
      </trkpt>
      <trkpt lat="45.24206" lon="5.31173">
        <ele>655.4</ele>
        <time>2021-05-03T09:35:25Z</time>
      </trkpt>
      <trkpt lat="45.24204" lon="5.31171">
        <ele>655.5</ele>
        <time>2021-05-03T09:35:26Z</time>
      </trkpt>
      <trkpt lat="45.24202" lon="5.31168">
        <ele>655.7</ele>
        <time>2021-05-03T09:35:27Z</time>
      </trkpt>
      <trkpt lat="45.24199" lon="5.31165">
        <ele>655.8</ele>
        <time>2021-05-03T09:35:28Z</time>
      </trkpt>
      <trkpt lat="45.24197" lon="5.31162">
        <ele>656</ele>
        <time>2021-05-03T09:35:29Z</time>
      </trkpt>
      <trkpt lat="45.24194" lon="5.31159">
        <ele>656.2</ele>
        <time>2021-05-03T09:35:30Z</time>
      </trkpt>
      <trkpt lat="45.24191" lon="5.31156">
        <ele>656.4</ele>
        <time>2021-05-03T09:35:31Z</time>
      </trkpt>
      <trkpt lat="45.24188" lon="5.31152">
        <ele>656.5</ele>
        <time>2021-05-03T09:35:32Z</time>
      </trkpt>
      <trkpt lat="45.24186" lon="5.31149">
        <ele>656.7</ele>
        <time>2021-05-03T09:35:33Z</time>
      </trkpt>
      <trkpt lat="45.24184" lon="5.31145">
        <ele>656.9</ele>
        <time>2021-05-03T09:35:34Z</time>
      </trkpt>
      <trkpt lat="45.24182" lon="5.31141">
        <ele>657</ele>
        <time>2021-05-03T09:35:35Z</time>
      </trkpt>
      <trkpt lat="45.24181" lon="5.31137">
        <ele>657.2</ele>
        <time>2021-05-03T09:35:36Z</time>
      </trkpt>
      <trkpt lat="45.2418" lon="5.31132">
        <ele>657.4</ele>
        <time>2021-05-03T09:35:37Z</time>
      </trkpt>
      <trkpt lat="45.24179" lon="5.31128">
        <ele>657.5</ele>
        <time>2021-05-03T09:35:38Z</time>
      </trkpt>
      <trkpt lat="45.24179" lon="5.31123">
        <ele>657.7</ele>
        <time>2021-05-03T09:35:39Z</time>
      </trkpt>
      <trkpt lat="45.24179" lon="5.31118">
        <ele>657.9</ele>
        <time>2021-05-03T09:35:40Z</time>
      </trkpt>
      <trkpt lat="45.2418" lon="5.31114">
        <ele>658</ele>
        <time>2021-05-03T09:35:41Z</time>
      </trkpt>
      <trkpt lat="45.24181" lon="5.3111">
        <ele>658.2</ele>
        <time>2021-05-03T09:35:42Z</time>
      </trkpt>
      <trkpt lat="45.24183" lon="5.31107">
        <ele>658.3</ele>
        <time>2021-05-03T09:35:43Z</time>
      </trkpt>
      <trkpt lat="45.24184" lon="5.31103">
        <ele>658.5</ele>
        <time>2021-05-03T09:35:44Z</time>
      </trkpt>
      <trkpt lat="45.24186" lon="5.31099">
        <ele>658.6</ele>
        <time>2021-05-03T09:35:45Z</time>
      </trkpt>
      <trkpt lat="45.24187" lon="5.31095">
        <ele>658.8</ele>
        <time>2021-05-03T09:35:46Z</time>
      </trkpt>
      <trkpt lat="45.24189" lon="5.31089">
        <ele>659</ele>
        <time>2021-05-03T09:35:47Z</time>
      </trkpt>
      <trkpt lat="45.24189" lon="5.31087">
        <ele>659</ele>
        <time>2021-05-03T09:35:48Z</time>
      </trkpt>
      <trkpt lat="45.2419" lon="5.31083">
        <ele>659.2</ele>
        <time>2021-05-03T09:35:49Z</time>
      </trkpt>
      <trkpt lat="45.24191" lon="5.3108">
        <ele>659.4</ele>
        <time>2021-05-03T09:35:50Z</time>
      </trkpt>
      <trkpt lat="45.24192" lon="5.31076">
        <ele>659.5</ele>
        <time>2021-05-03T09:35:51Z</time>
      </trkpt>
      <trkpt lat="45.24193" lon="5.3107">
        <ele>659.7</ele>
        <time>2021-05-03T09:35:52Z</time>
      </trkpt>
      <trkpt lat="45.24193" lon="5.31068">
        <ele>659.8</ele>
        <time>2021-05-03T09:35:53Z</time>
      </trkpt>
      <trkpt lat="45.24194" lon="5.31063">
        <ele>660</ele>
        <time>2021-05-03T09:35:54Z</time>
      </trkpt>
      <trkpt lat="45.24194" lon="5.31061">
        <ele>660.1</ele>
        <time>2021-05-03T09:35:55Z</time>
      </trkpt>
      <trkpt lat="45.24195" lon="5.31057">
        <ele>660.3</ele>
        <time>2021-05-03T09:35:56Z</time>
      </trkpt>
      <trkpt lat="45.24195" lon="5.31053">
        <ele>660.5</ele>
        <time>2021-05-03T09:35:57Z</time>
      </trkpt>
      <trkpt lat="45.24195" lon="5.31048">
        <ele>660.6</ele>
        <time>2021-05-03T09:35:58Z</time>
      </trkpt>
      <trkpt lat="45.24195" lon="5.31043">
        <ele>660.9</ele>
        <time>2021-05-03T09:35:59Z</time>
      </trkpt>
      <trkpt lat="45.24194" lon="5.31038">
        <ele>661.1</ele>
        <time>2021-05-03T09:36:00Z</time>
      </trkpt>
      <trkpt lat="45.24193" lon="5.31034">
        <ele>661.2</ele>
        <time>2021-05-03T09:36:01Z</time>
      </trkpt>
      <trkpt lat="45.24193" lon="5.3103">
        <ele>661.4</ele>
        <time>2021-05-03T09:36:02Z</time>
      </trkpt>
      <trkpt lat="45.24192" lon="5.31026">
        <ele>661.6</ele>
        <time>2021-05-03T09:36:03Z</time>
      </trkpt>
      <trkpt lat="45.24191" lon="5.31021">
        <ele>661.8</ele>
        <time>2021-05-03T09:36:04Z</time>
      </trkpt>
      <trkpt lat="45.24189" lon="5.31017">
        <ele>662</ele>
        <time>2021-05-03T09:36:05Z</time>
      </trkpt>
      <trkpt lat="45.24187" lon="5.31012">
        <ele>662.2</ele>
        <time>2021-05-03T09:36:06Z</time>
      </trkpt>
      <trkpt lat="45.24186" lon="5.3101">
        <ele>662.3</ele>
        <time>2021-05-03T09:36:07Z</time>
      </trkpt>
      <trkpt lat="45.24185" lon="5.31007">
        <ele>662.4</ele>
        <time>2021-05-03T09:36:08Z</time>
      </trkpt>
      <trkpt lat="45.24183" lon="5.31004">
        <ele>662.6</ele>
        <time>2021-05-03T09:36:09Z</time>
      </trkpt>
      <trkpt lat="45.24181" lon="5.31">
        <ele>662.8</ele>
        <time>2021-05-03T09:36:10Z</time>
      </trkpt>
      <trkpt lat="45.24178" lon="5.30997">
        <ele>663</ele>
        <time>2021-05-03T09:36:11Z</time>
      </trkpt>
      <trkpt lat="45.24177" lon="5.30995">
        <ele>663.1</ele>
        <time>2021-05-03T09:36:12Z</time>
      </trkpt>
      <trkpt lat="45.24174" lon="5.30993">
        <ele>663.2</ele>
        <time>2021-05-03T09:36:13Z</time>
      </trkpt>
      <trkpt lat="45.24172" lon="5.3099">
        <ele>663.4</ele>
        <time>2021-05-03T09:36:14Z</time>
      </trkpt>
      <trkpt lat="45.24169" lon="5.30988">
        <ele>663.6</ele>
        <time>2021-05-03T09:36:15Z</time>
      </trkpt>
      <trkpt lat="45.24165" lon="5.30987">
        <ele>663.8</ele>
        <time>2021-05-03T09:36:16Z</time>
      </trkpt>
      <trkpt lat="45.24164" lon="5.30986">
        <ele>663.8</ele>
        <time>2021-05-03T09:36:17Z</time>
      </trkpt>
      <trkpt lat="45.2416" lon="5.30985">
        <ele>664</ele>
        <time>2021-05-03T09:36:18Z</time>
      </trkpt>
      <trkpt lat="45.24159" lon="5.30984">
        <ele>664.1</ele>
        <time>2021-05-03T09:36:19Z</time>
      </trkpt>
      <trkpt lat="45.24156" lon="5.30983">
        <ele>664.3</ele>
        <time>2021-05-03T09:36:20Z</time>
      </trkpt>
      <trkpt lat="45.24154" lon="5.30982">
        <ele>664.4</ele>
        <time>2021-05-03T09:36:21Z</time>
      </trkpt>
      <trkpt lat="45.24151" lon="5.30981">
        <ele>664.5</ele>
        <time>2021-05-03T09:36:22Z</time>
      </trkpt>
      <trkpt lat="45.24148" lon="5.30979">
        <ele>664.7</ele>
        <time>2021-05-03T09:36:23Z</time>
      </trkpt>
      <trkpt lat="45.24147" lon="5.30979">
        <ele>664.8</ele>
        <time>2021-05-03T09:36:24Z</time>
      </trkpt>
      <trkpt lat="45.24144" lon="5.30978">
        <ele>665</ele>
        <time>2021-05-03T09:36:25Z</time>
      </trkpt>
      <trkpt lat="45.24141" lon="5.30977">
        <ele>665.1</ele>
        <time>2021-05-03T09:36:26Z</time>
      </trkpt>
      <trkpt lat="45.24138" lon="5.30976">
        <ele>665.3</ele>
        <time>2021-05-03T09:36:27Z</time>
      </trkpt>
      <trkpt lat="45.24137" lon="5.30975">
        <ele>665.4</ele>
        <time>2021-05-03T09:36:28Z</time>
      </trkpt>
      <trkpt lat="45.24133" lon="5.30974">
        <ele>665.6</ele>
        <time>2021-05-03T09:36:29Z</time>
      </trkpt>
      <trkpt lat="45.24131" lon="5.30973">
        <ele>665.7</ele>
        <time>2021-05-03T09:36:30Z</time>
      </trkpt>
      <trkpt lat="45.24128" lon="5.30973">
        <ele>665.9</ele>
        <time>2021-05-03T09:36:31Z</time>
      </trkpt>
      <trkpt lat="45.24125" lon="5.30972">
        <ele>666.1</ele>
        <time>2021-05-03T09:36:32Z</time>
      </trkpt>
      <trkpt lat="45.24123" lon="5.30972">
        <ele>666.1</ele>
        <time>2021-05-03T09:36:33Z</time>
      </trkpt>
      <trkpt lat="45.2412" lon="5.3097">
        <ele>666.3</ele>
        <time>2021-05-03T09:36:34Z</time>
      </trkpt>
      <trkpt lat="45.24118" lon="5.30969">
        <ele>666.4</ele>
        <time>2021-05-03T09:36:35Z</time>
      </trkpt>
      <trkpt lat="45.24116" lon="5.30967">
        <ele>666.6</ele>
        <time>2021-05-03T09:36:36Z</time>
      </trkpt>
      <trkpt lat="45.24113" lon="5.30966">
        <ele>666.7</ele>
        <time>2021-05-03T09:36:37Z</time>
      </trkpt>
      <trkpt lat="45.2411" lon="5.30964">
        <ele>666.9</ele>
        <time>2021-05-03T09:36:38Z</time>
      </trkpt>
      <trkpt lat="45.24108" lon="5.30963">
        <ele>667</ele>
        <time>2021-05-03T09:36:39Z</time>
      </trkpt>
      <trkpt lat="45.24105" lon="5.3096">
        <ele>667.2</ele>
        <time>2021-05-03T09:36:40Z</time>
      </trkpt>
      <trkpt lat="45.24104" lon="5.30959">
        <ele>667.3</ele>
        <time>2021-05-03T09:36:41Z</time>
      </trkpt>
      <trkpt lat="45.241" lon="5.30956">
        <ele>667.5</ele>
        <time>2021-05-03T09:36:42Z</time>
      </trkpt>
      <trkpt lat="45.24099" lon="5.30955">
        <ele>667.6</ele>
        <time>2021-05-03T09:36:43Z</time>
      </trkpt>
      <trkpt lat="45.24097" lon="5.30953">
        <ele>667.7</ele>
        <time>2021-05-03T09:36:44Z</time>
      </trkpt>
      <trkpt lat="45.24094" lon="5.30951">
        <ele>667.9</ele>
        <time>2021-05-03T09:36:45Z</time>
      </trkpt>
      <trkpt lat="45.24092" lon="5.30948">
        <ele>668.1</ele>
        <time>2021-05-03T09:36:46Z</time>
      </trkpt>
      <trkpt lat="45.24089" lon="5.30946">
        <ele>668.2</ele>
        <time>2021-05-03T09:36:47Z</time>
      </trkpt>
      <trkpt lat="45.24087" lon="5.30943">
        <ele>668.4</ele>
        <time>2021-05-03T09:36:48Z</time>
      </trkpt>
      <trkpt lat="45.24085" lon="5.3094">
        <ele>668.6</ele>
        <time>2021-05-03T09:36:49Z</time>
      </trkpt>
      <trkpt lat="45.24082" lon="5.30937">
        <ele>668.8</ele>
        <time>2021-05-03T09:36:50Z</time>
      </trkpt>
      <trkpt lat="45.2408" lon="5.30934">
        <ele>668.9</ele>
        <time>2021-05-03T09:36:51Z</time>
      </trkpt>
      <trkpt lat="45.24077" lon="5.30931">
        <ele>669.2</ele>
        <time>2021-05-03T09:36:52Z</time>
      </trkpt>
      <trkpt lat="45.24076" lon="5.3093">
        <ele>669.2</ele>
        <time>2021-05-03T09:36:53Z</time>
      </trkpt>
      <trkpt lat="45.24073" lon="5.30927">
        <ele>669.4</ele>
        <time>2021-05-03T09:36:54Z</time>
      </trkpt>
      <trkpt lat="45.24072" lon="5.30926">
        <ele>669.5</ele>
        <time>2021-05-03T09:36:55Z</time>
      </trkpt>
      <trkpt lat="45.24069" lon="5.30923">
        <ele>669.7</ele>
        <time>2021-05-03T09:36:56Z</time>
      </trkpt>
      <trkpt lat="45.24068" lon="5.30922">
        <ele>669.8</ele>
        <time>2021-05-03T09:36:57Z</time>
      </trkpt>
      <trkpt lat="45.24065" lon="5.30918">
        <ele>670</ele>
        <time>2021-05-03T09:36:58Z</time>
      </trkpt>
      <trkpt lat="45.24064" lon="5.30917">
        <ele>670.1</ele>
        <time>2021-05-03T09:36:59Z</time>
      </trkpt>
      <trkpt lat="45.24061" lon="5.30914">
        <ele>670.3</ele>
        <time>2021-05-03T09:37:00Z</time>
      </trkpt>
      <trkpt lat="45.24059" lon="5.30912">
        <ele>670.4</ele>
        <time>2021-05-03T09:37:01Z</time>
      </trkpt>
      <trkpt lat="45.24057" lon="5.30911">
        <ele>670.5</ele>
        <time>2021-05-03T09:37:02Z</time>
      </trkpt>
      <trkpt lat="45.24054" lon="5.30909">
        <ele>670.7</ele>
        <time>2021-05-03T09:37:03Z</time>
      </trkpt>
      <trkpt lat="45.24052" lon="5.30907">
        <ele>670.9</ele>
        <time>2021-05-03T09:37:04Z</time>
      </trkpt>
      <trkpt lat="45.24048" lon="5.30905">
        <ele>671.1</ele>
        <time>2021-05-03T09:37:05Z</time>
      </trkpt>
      <trkpt lat="45.24047" lon="5.30904">
        <ele>671.2</ele>
        <time>2021-05-03T09:37:06Z</time>
      </trkpt>
      <trkpt lat="45.24044" lon="5.30902">
        <ele>671.3</ele>
        <time>2021-05-03T09:37:07Z</time>
      </trkpt>
      <trkpt lat="45.24041" lon="5.30901">
        <ele>671.5</ele>
        <time>2021-05-03T09:37:08Z</time>
      </trkpt>
      <trkpt lat="45.24037" lon="5.30901">
        <ele>671.7</ele>
        <time>2021-05-03T09:37:09Z</time>
      </trkpt>
      <trkpt lat="45.24036" lon="5.30901">
        <ele>671.8</ele>
        <time>2021-05-03T09:37:10Z</time>
      </trkpt>
      <trkpt lat="45.24033" lon="5.30901">
        <ele>672</ele>
        <time>2021-05-03T09:37:11Z</time>
      </trkpt>
      <trkpt lat="45.24029" lon="5.30902">
        <ele>672.2</ele>
        <time>2021-05-03T09:37:12Z</time>
      </trkpt>
      <trkpt lat="45.24027" lon="5.30902">
        <ele>672.3</ele>
        <time>2021-05-03T09:37:13Z</time>
      </trkpt>
      <trkpt lat="45.24025" lon="5.30903">
        <ele>672.4</ele>
        <time>2021-05-03T09:37:14Z</time>
      </trkpt>
      <trkpt lat="45.24021" lon="5.30904">
        <ele>672.6</ele>
        <time>2021-05-03T09:37:15Z</time>
      </trkpt>
      <trkpt lat="45.2402" lon="5.30904">
        <ele>672.7</ele>
        <time>2021-05-03T09:37:16Z</time>
      </trkpt>
      <trkpt lat="45.24017" lon="5.30904">
        <ele>672.9</ele>
        <time>2021-05-03T09:37:17Z</time>
      </trkpt>
      <trkpt lat="45.24014" lon="5.30905">
        <ele>673</ele>
        <time>2021-05-03T09:37:18Z</time>
      </trkpt>
      <trkpt lat="45.24011" lon="5.30906">
        <ele>673.2</ele>
        <time>2021-05-03T09:37:19Z</time>
      </trkpt>
      <trkpt lat="45.24008" lon="5.30906">
        <ele>673.4</ele>
        <time>2021-05-03T09:37:20Z</time>
      </trkpt>
      <trkpt lat="45.24005" lon="5.30907">
        <ele>673.6</ele>
        <time>2021-05-03T09:37:21Z</time>
      </trkpt>
      <trkpt lat="45.24003" lon="5.30908">
        <ele>673.7</ele>
        <time>2021-05-03T09:37:22Z</time>
      </trkpt>
      <trkpt lat="45.24" lon="5.30908">
        <ele>673.9</ele>
        <time>2021-05-03T09:37:23Z</time>
      </trkpt>
      <trkpt lat="45.23998" lon="5.30909">
        <ele>674</ele>
        <time>2021-05-03T09:37:24Z</time>
      </trkpt>
      <trkpt lat="45.23995" lon="5.3091">
        <ele>674.2</ele>
        <time>2021-05-03T09:37:25Z</time>
      </trkpt>
      <trkpt lat="45.23992" lon="5.3091">
        <ele>674.3</ele>
        <time>2021-05-03T09:37:26Z</time>
      </trkpt>
      <trkpt lat="45.23989" lon="5.30911">
        <ele>674.5</ele>
        <time>2021-05-03T09:37:27Z</time>
      </trkpt>
      <trkpt lat="45.23985" lon="5.30912">
        <ele>674.8</ele>
        <time>2021-05-03T09:37:28Z</time>
      </trkpt>
      <trkpt lat="45.23984" lon="5.30912">
        <ele>674.8</ele>
        <time>2021-05-03T09:37:29Z</time>
      </trkpt>
      <trkpt lat="45.2398" lon="5.30912">
        <ele>675</ele>
        <time>2021-05-03T09:37:30Z</time>
      </trkpt>
      <trkpt lat="45.23976" lon="5.30913">
        <ele>675.3</ele>
        <time>2021-05-03T09:37:31Z</time>
      </trkpt>
      <trkpt lat="45.23975" lon="5.30914">
        <ele>675.4</ele>
        <time>2021-05-03T09:37:32Z</time>
      </trkpt>
      <trkpt lat="45.23971" lon="5.30914">
        <ele>675.6</ele>
        <time>2021-05-03T09:37:33Z</time>
      </trkpt>
      <trkpt lat="45.23968" lon="5.30915">
        <ele>675.8</ele>
        <time>2021-05-03T09:37:34Z</time>
      </trkpt>
      <trkpt lat="45.23965" lon="5.30916">
        <ele>676.1</ele>
        <time>2021-05-03T09:37:35Z</time>
      </trkpt>
      <trkpt lat="45.23961" lon="5.30917">
        <ele>676.3</ele>
        <time>2021-05-03T09:37:36Z</time>
      </trkpt>
      <trkpt lat="45.23958" lon="5.30919">
        <ele>676.5</ele>
        <time>2021-05-03T09:37:37Z</time>
      </trkpt>
      <trkpt lat="45.23954" lon="5.3092">
        <ele>676.8</ele>
        <time>2021-05-03T09:37:38Z</time>
      </trkpt>
      <trkpt lat="45.23951" lon="5.30922">
        <ele>677</ele>
        <time>2021-05-03T09:37:39Z</time>
      </trkpt>
      <trkpt lat="45.23947" lon="5.30923">
        <ele>677.3</ele>
        <time>2021-05-03T09:37:40Z</time>
      </trkpt>
      <trkpt lat="45.23944" lon="5.30924">
        <ele>677.5</ele>
        <time>2021-05-03T09:37:41Z</time>
      </trkpt>
      <trkpt lat="45.23941" lon="5.30925">
        <ele>677.7</ele>
        <time>2021-05-03T09:37:42Z</time>
      </trkpt>
      <trkpt lat="45.23938" lon="5.30926">
        <ele>677.8</ele>
        <time>2021-05-03T09:37:43Z</time>
      </trkpt>
      <trkpt lat="45.23936" lon="5.30926">
        <ele>678</ele>
        <time>2021-05-03T09:37:44Z</time>
      </trkpt>
      <trkpt lat="45.23932" lon="5.30926">
        <ele>678.2</ele>
        <time>2021-05-03T09:37:45Z</time>
      </trkpt>
      <trkpt lat="45.23929" lon="5.30926">
        <ele>678.4</ele>
        <time>2021-05-03T09:37:46Z</time>
      </trkpt>
      <trkpt lat="45.23926" lon="5.30925">
        <ele>678.6</ele>
        <time>2021-05-03T09:37:47Z</time>
      </trkpt>
      <trkpt lat="45.23923" lon="5.30925">
        <ele>678.8</ele>
        <time>2021-05-03T09:37:48Z</time>
      </trkpt>
      <trkpt lat="45.2392" lon="5.30924">
        <ele>678.9</ele>
        <time>2021-05-03T09:37:49Z</time>
      </trkpt>
      <trkpt lat="45.23917" lon="5.30923">
        <ele>679.1</ele>
        <time>2021-05-03T09:37:50Z</time>
      </trkpt>
      <trkpt lat="45.23914" lon="5.30921">
        <ele>679.3</ele>
        <time>2021-05-03T09:37:51Z</time>
      </trkpt>
      <trkpt lat="45.23912" lon="5.30919">
        <ele>679.5</ele>
        <time>2021-05-03T09:37:52Z</time>
      </trkpt>
      <trkpt lat="45.23909" lon="5.30916">
        <ele>679.7</ele>
        <time>2021-05-03T09:37:53Z</time>
      </trkpt>
      <trkpt lat="45.23906" lon="5.30912">
        <ele>680</ele>
        <time>2021-05-03T09:37:54Z</time>
      </trkpt>
      <trkpt lat="45.23905" lon="5.3091">
        <ele>680.1</ele>
        <time>2021-05-03T09:37:55Z</time>
      </trkpt>
      <trkpt lat="45.23903" lon="5.30907">
        <ele>680.2</ele>
        <time>2021-05-03T09:37:56Z</time>
      </trkpt>
      <trkpt lat="45.23901" lon="5.30903">
        <ele>680.5</ele>
        <time>2021-05-03T09:37:57Z</time>
      </trkpt>
      <trkpt lat="45.239" lon="5.30899">
        <ele>680.6</ele>
        <time>2021-05-03T09:37:58Z</time>
      </trkpt>
      <trkpt lat="45.23899" lon="5.30895">
        <ele>680.8</ele>
        <time>2021-05-03T09:37:59Z</time>
      </trkpt>
      <trkpt lat="45.23898" lon="5.3089">
        <ele>681.1</ele>
        <time>2021-05-03T09:38:00Z</time>
      </trkpt>
      <trkpt lat="45.23897" lon="5.30886">
        <ele>681.3</ele>
        <time>2021-05-03T09:38:01Z</time>
      </trkpt>
      <trkpt lat="45.23896" lon="5.30881">
        <ele>681.5</ele>
        <time>2021-05-03T09:38:02Z</time>
      </trkpt>
      <trkpt lat="45.23896" lon="5.30877">
        <ele>681.6</ele>
        <time>2021-05-03T09:38:03Z</time>
      </trkpt>
      <trkpt lat="45.23896" lon="5.30873">
        <ele>681.8</ele>
        <time>2021-05-03T09:38:04Z</time>
      </trkpt>
      <trkpt lat="45.23895" lon="5.30868">
        <ele>682</ele>
        <time>2021-05-03T09:38:05Z</time>
      </trkpt>
      <trkpt lat="45.23895" lon="5.30864">
        <ele>682.2</ele>
        <time>2021-05-03T09:38:06Z</time>
      </trkpt>
      <trkpt lat="45.23894" lon="5.30859">
        <ele>682.4</ele>
        <time>2021-05-03T09:38:07Z</time>
      </trkpt>
      <trkpt lat="45.23894" lon="5.30855">
        <ele>682.6</ele>
        <time>2021-05-03T09:38:08Z</time>
      </trkpt>
      <trkpt lat="45.23893" lon="5.30851">
        <ele>682.7</ele>
        <time>2021-05-03T09:38:09Z</time>
      </trkpt>
      <trkpt lat="45.23893" lon="5.30846">
        <ele>682.9</ele>
        <time>2021-05-03T09:38:10Z</time>
      </trkpt>
      <trkpt lat="45.23893" lon="5.30841">
        <ele>683.1</ele>
        <time>2021-05-03T09:38:11Z</time>
      </trkpt>
      <trkpt lat="45.23894" lon="5.30837">
        <ele>683.3</ele>
        <time>2021-05-03T09:38:12Z</time>
      </trkpt>
      <trkpt lat="45.23894" lon="5.30832">
        <ele>683.5</ele>
        <time>2021-05-03T09:38:13Z</time>
      </trkpt>
      <trkpt lat="45.23895" lon="5.30828">
        <ele>683.6</ele>
        <time>2021-05-03T09:38:14Z</time>
      </trkpt>
      <trkpt lat="45.23895" lon="5.30823">
        <ele>683.8</ele>
        <time>2021-05-03T09:38:15Z</time>
      </trkpt>
      <trkpt lat="45.23896" lon="5.30819">
        <ele>684</ele>
        <time>2021-05-03T09:38:16Z</time>
      </trkpt>
      <trkpt lat="45.23897" lon="5.30815">
        <ele>684.1</ele>
        <time>2021-05-03T09:38:17Z</time>
      </trkpt>
      <trkpt lat="45.239" lon="5.3081">
        <ele>684.4</ele>
        <time>2021-05-03T09:38:18Z</time>
      </trkpt>
      <trkpt lat="45.239" lon="5.30809">
        <ele>684.5</ele>
        <time>2021-05-03T09:38:19Z</time>
      </trkpt>
      <trkpt lat="45.23903" lon="5.30804">
        <ele>684.7</ele>
        <time>2021-05-03T09:38:20Z</time>
      </trkpt>
      <trkpt lat="45.23904" lon="5.30802">
        <ele>684.8</ele>
        <time>2021-05-03T09:38:21Z</time>
      </trkpt>
      <trkpt lat="45.23905" lon="5.30798">
        <ele>685</ele>
        <time>2021-05-03T09:38:22Z</time>
      </trkpt>
      <trkpt lat="45.23907" lon="5.30795">
        <ele>685.1</ele>
        <time>2021-05-03T09:38:23Z</time>
      </trkpt>
      <trkpt lat="45.23909" lon="5.30792">
        <ele>685.3</ele>
        <time>2021-05-03T09:38:24Z</time>
      </trkpt>
      <trkpt lat="45.23911" lon="5.30789">
        <ele>685.5</ele>
        <time>2021-05-03T09:38:25Z</time>
      </trkpt>
      <trkpt lat="45.23913" lon="5.30785">
        <ele>685.7</ele>
        <time>2021-05-03T09:38:26Z</time>
      </trkpt>
      <trkpt lat="45.23915" lon="5.30782">
        <ele>685.8</ele>
        <time>2021-05-03T09:38:27Z</time>
      </trkpt>
      <trkpt lat="45.23917" lon="5.30777">
        <ele>686.1</ele>
        <time>2021-05-03T09:38:28Z</time>
      </trkpt>
      <trkpt lat="45.23918" lon="5.30775">
        <ele>686.2</ele>
        <time>2021-05-03T09:38:29Z</time>
      </trkpt>
      <trkpt lat="45.23919" lon="5.30771">
        <ele>686.3</ele>
        <time>2021-05-03T09:38:30Z</time>
      </trkpt>
      <trkpt lat="45.23921" lon="5.30766">
        <ele>686.4</ele>
        <time>2021-05-03T09:38:31Z</time>
      </trkpt>
      <trkpt lat="45.23923" lon="5.30763">
        <ele>686.4</ele>
        <time>2021-05-03T09:38:32Z</time>
      </trkpt>
      <trkpt lat="45.23925" lon="5.30758">
        <ele>686.4</ele>
        <time>2021-05-03T09:38:33Z</time>
      </trkpt>
      <trkpt lat="45.23928" lon="5.30754">
        <ele>686.3</ele>
        <time>2021-05-03T09:38:34Z</time>
      </trkpt>
      <trkpt lat="45.2393" lon="5.30749">
        <ele>686.3</ele>
        <time>2021-05-03T09:38:35Z</time>
      </trkpt>
      <trkpt lat="45.23933" lon="5.30744">
        <ele>686.2</ele>
        <time>2021-05-03T09:38:36Z</time>
      </trkpt>
      <trkpt lat="45.23935" lon="5.3074">
        <ele>686.2</ele>
        <time>2021-05-03T09:38:37Z</time>
      </trkpt>
      <trkpt lat="45.23938" lon="5.30736">
        <ele>686.1</ele>
        <time>2021-05-03T09:38:38Z</time>
      </trkpt>
      <trkpt lat="45.23942" lon="5.3073">
        <ele>686</ele>
        <time>2021-05-03T09:38:39Z</time>
      </trkpt>
      <trkpt lat="45.23946" lon="5.30724">
        <ele>685.8</ele>
        <time>2021-05-03T09:38:40Z</time>
      </trkpt>
      <trkpt lat="45.2395" lon="5.30719">
        <ele>685.7</ele>
        <time>2021-05-03T09:38:41Z</time>
      </trkpt>
      <trkpt lat="45.23954" lon="5.30713">
        <ele>685.5</ele>
        <time>2021-05-03T09:38:42Z</time>
      </trkpt>
      <trkpt lat="45.23958" lon="5.30705">
        <ele>685.3</ele>
        <time>2021-05-03T09:38:43Z</time>
      </trkpt>
      <trkpt lat="45.23961" lon="5.30696">
        <ele>685.1</ele>
        <time>2021-05-03T09:38:44Z</time>
      </trkpt>
      <trkpt lat="45.23966" lon="5.30687">
        <ele>684.8</ele>
        <time>2021-05-03T09:38:45Z</time>
      </trkpt>
      <trkpt lat="45.2397" lon="5.30678">
        <ele>684.5</ele>
        <time>2021-05-03T09:38:46Z</time>
      </trkpt>
      <trkpt lat="45.23973" lon="5.30669">
        <ele>684.2</ele>
        <time>2021-05-03T09:38:47Z</time>
      </trkpt>
      <trkpt lat="45.23976" lon="5.3066">
        <ele>683.9</ele>
        <time>2021-05-03T09:38:48Z</time>
      </trkpt>
      <trkpt lat="45.23978" lon="5.30651">
        <ele>683.6</ele>
        <time>2021-05-03T09:38:49Z</time>
      </trkpt>
      <trkpt lat="45.23979" lon="5.30641">
        <ele>683.3</ele>
        <time>2021-05-03T09:38:50Z</time>
      </trkpt>
      <trkpt lat="45.23979" lon="5.3063">
        <ele>683</ele>
        <time>2021-05-03T09:38:51Z</time>
      </trkpt>
      <trkpt lat="45.23978" lon="5.3062">
        <ele>682.8</ele>
        <time>2021-05-03T09:38:52Z</time>
      </trkpt>
      <trkpt lat="45.23977" lon="5.3061">
        <ele>682.5</ele>
        <time>2021-05-03T09:38:53Z</time>
      </trkpt>
      <trkpt lat="45.23975" lon="5.306">
        <ele>682.2</ele>
        <time>2021-05-03T09:38:54Z</time>
      </trkpt>
      <trkpt lat="45.23973" lon="5.30592">
        <ele>682</ele>
        <time>2021-05-03T09:38:55Z</time>
      </trkpt>
      <trkpt lat="45.2397" lon="5.30584">
        <ele>681.8</ele>
        <time>2021-05-03T09:38:56Z</time>
      </trkpt>
      <trkpt lat="45.23968" lon="5.30575">
        <ele>681.5</ele>
        <time>2021-05-03T09:38:57Z</time>
      </trkpt>
      <trkpt lat="45.23965" lon="5.30565">
        <ele>681.3</ele>
        <time>2021-05-03T09:38:58Z</time>
      </trkpt>
      <trkpt lat="45.23961" lon="5.30556">
        <ele>681</ele>
        <time>2021-05-03T09:38:59Z</time>
      </trkpt>
      <trkpt lat="45.23959" lon="5.30545">
        <ele>680.8</ele>
        <time>2021-05-03T09:39:00Z</time>
      </trkpt>
      <trkpt lat="45.23955" lon="5.30535">
        <ele>680.5</ele>
        <time>2021-05-03T09:39:01Z</time>
      </trkpt>
      <trkpt lat="45.23952" lon="5.30524">
        <ele>680.2</ele>
        <time>2021-05-03T09:39:02Z</time>
      </trkpt>
      <trkpt lat="45.23949" lon="5.30515">
        <ele>679.9</ele>
        <time>2021-05-03T09:39:03Z</time>
      </trkpt>
      <trkpt lat="45.23946" lon="5.30504">
        <ele>679.7</ele>
        <time>2021-05-03T09:39:04Z</time>
      </trkpt>
      <trkpt lat="45.23942" lon="5.30494">
        <ele>679.4</ele>
        <time>2021-05-03T09:39:05Z</time>
      </trkpt>
      <trkpt lat="45.23939" lon="5.30483">
        <ele>679.1</ele>
        <time>2021-05-03T09:39:06Z</time>
      </trkpt>
      <trkpt lat="45.23936" lon="5.30472">
        <ele>678.8</ele>
        <time>2021-05-03T09:39:07Z</time>
      </trkpt>
      <trkpt lat="45.23933" lon="5.30461">
        <ele>678.5</ele>
        <time>2021-05-03T09:39:08Z</time>
      </trkpt>
      <trkpt lat="45.23931" lon="5.3045">
        <ele>678.3</ele>
        <time>2021-05-03T09:39:09Z</time>
      </trkpt>
      <trkpt lat="45.2393" lon="5.30438">
        <ele>678</ele>
        <time>2021-05-03T09:39:10Z</time>
      </trkpt>
      <trkpt lat="45.23928" lon="5.30427">
        <ele>677.7</ele>
        <time>2021-05-03T09:39:11Z</time>
      </trkpt>
      <trkpt lat="45.23928" lon="5.30415">
        <ele>677.5</ele>
        <time>2021-05-03T09:39:12Z</time>
      </trkpt>
      <trkpt lat="45.23927" lon="5.30403">
        <ele>677.2</ele>
        <time>2021-05-03T09:39:13Z</time>
      </trkpt>
      <trkpt lat="45.23926" lon="5.30392">
        <ele>676.9</ele>
        <time>2021-05-03T09:39:14Z</time>
      </trkpt>
      <trkpt lat="45.23925" lon="5.3038">
        <ele>676.6</ele>
        <time>2021-05-03T09:39:15Z</time>
      </trkpt>
      <trkpt lat="45.23924" lon="5.30368">
        <ele>676.3</ele>
        <time>2021-05-03T09:39:16Z</time>
      </trkpt>
      <trkpt lat="45.23924" lon="5.30355">
        <ele>676</ele>
        <time>2021-05-03T09:39:17Z</time>
      </trkpt>
      <trkpt lat="45.23924" lon="5.30343">
        <ele>675.7</ele>
        <time>2021-05-03T09:39:18Z</time>
      </trkpt>
      <trkpt lat="45.23922" lon="5.30331">
        <ele>675.5</ele>
        <time>2021-05-03T09:39:19Z</time>
      </trkpt>
      <trkpt lat="45.23921" lon="5.3032">
        <ele>675.3</ele>
        <time>2021-05-03T09:39:20Z</time>
      </trkpt>
      <trkpt lat="45.23919" lon="5.30307">
        <ele>675</ele>
        <time>2021-05-03T09:39:21Z</time>
      </trkpt>
      <trkpt lat="45.23917" lon="5.30296">
        <ele>674.8</ele>
        <time>2021-05-03T09:39:22Z</time>
      </trkpt>
      <trkpt lat="45.23916" lon="5.30286">
        <ele>674.6</ele>
        <time>2021-05-03T09:39:23Z</time>
      </trkpt>
      <trkpt lat="45.23914" lon="5.30275">
        <ele>674.4</ele>
        <time>2021-05-03T09:39:24Z</time>
      </trkpt>
      <trkpt lat="45.23912" lon="5.30265">
        <ele>674.2</ele>
        <time>2021-05-03T09:39:25Z</time>
      </trkpt>
      <trkpt lat="45.2391" lon="5.30255">
        <ele>674</ele>
        <time>2021-05-03T09:39:26Z</time>
      </trkpt>
      <trkpt lat="45.23909" lon="5.30245">
        <ele>673.9</ele>
        <time>2021-05-03T09:39:27Z</time>
      </trkpt>
      <trkpt lat="45.23908" lon="5.30233">
        <ele>673.7</ele>
        <time>2021-05-03T09:39:28Z</time>
      </trkpt>
      <trkpt lat="45.23907" lon="5.30222">
        <ele>673.6</ele>
        <time>2021-05-03T09:39:29Z</time>
      </trkpt>
      <trkpt lat="45.23906" lon="5.30213">
        <ele>673.5</ele>
        <time>2021-05-03T09:39:30Z</time>
      </trkpt>
      <trkpt lat="45.23907" lon="5.30203">
        <ele>673.2</ele>
        <time>2021-05-03T09:39:31Z</time>
      </trkpt>
      <trkpt lat="45.2391" lon="5.30193">
        <ele>673</ele>
        <time>2021-05-03T09:39:32Z</time>
      </trkpt>
      <trkpt lat="45.23914" lon="5.30185">
        <ele>672.8</ele>
        <time>2021-05-03T09:39:33Z</time>
      </trkpt>
      <trkpt lat="45.23918" lon="5.30177">
        <ele>672.6</ele>
        <time>2021-05-03T09:39:34Z</time>
      </trkpt>
      <trkpt lat="45.23921" lon="5.30168">
        <ele>672.3</ele>
        <time>2021-05-03T09:39:35Z</time>
      </trkpt>
      <trkpt lat="45.23924" lon="5.30159">
        <ele>672.1</ele>
        <time>2021-05-03T09:39:36Z</time>
      </trkpt>
      <trkpt lat="45.23929" lon="5.30151">
        <ele>671.8</ele>
        <time>2021-05-03T09:39:37Z</time>
      </trkpt>
      <trkpt lat="45.23933" lon="5.30142">
        <ele>671.6</ele>
        <time>2021-05-03T09:39:38Z</time>
      </trkpt>
      <trkpt lat="45.23937" lon="5.30134">
        <ele>671.3</ele>
        <time>2021-05-03T09:39:39Z</time>
      </trkpt>
      <trkpt lat="45.23941" lon="5.30123">
        <ele>671</ele>
        <time>2021-05-03T09:39:40Z</time>
      </trkpt>
      <trkpt lat="45.23945" lon="5.30113">
        <ele>670.7</ele>
        <time>2021-05-03T09:39:41Z</time>
      </trkpt>
      <trkpt lat="45.23948" lon="5.30104">
        <ele>670.5</ele>
        <time>2021-05-03T09:39:42Z</time>
      </trkpt>
      <trkpt lat="45.23952" lon="5.30096">
        <ele>670.4</ele>
        <time>2021-05-03T09:39:43Z</time>
      </trkpt>
      <trkpt lat="45.23955" lon="5.30088">
        <ele>670.2</ele>
        <time>2021-05-03T09:39:44Z</time>
      </trkpt>
      <trkpt lat="45.23959" lon="5.30078">
        <ele>670</ele>
        <time>2021-05-03T09:39:45Z</time>
      </trkpt>
      <trkpt lat="45.23963" lon="5.30068">
        <ele>669.8</ele>
        <time>2021-05-03T09:39:46Z</time>
      </trkpt>
      <trkpt lat="45.23966" lon="5.30058">
        <ele>669.7</ele>
        <time>2021-05-03T09:39:47Z</time>
      </trkpt>
      <trkpt lat="45.2397" lon="5.30048">
        <ele>669.5</ele>
        <time>2021-05-03T09:39:48Z</time>
      </trkpt>
      <trkpt lat="45.23974" lon="5.30038">
        <ele>669.4</ele>
        <time>2021-05-03T09:39:49Z</time>
      </trkpt>
      <trkpt lat="45.23978" lon="5.30028">
        <ele>669.3</ele>
        <time>2021-05-03T09:39:50Z</time>
      </trkpt>
      <trkpt lat="45.23981" lon="5.30019">
        <ele>669.3</ele>
        <time>2021-05-03T09:39:51Z</time>
      </trkpt>
      <trkpt lat="45.23984" lon="5.3001">
        <ele>669.2</ele>
        <time>2021-05-03T09:39:52Z</time>
      </trkpt>
      <trkpt lat="45.23987" lon="5.30002">
        <ele>669.2</ele>
        <time>2021-05-03T09:39:53Z</time>
      </trkpt>
      <trkpt lat="45.23991" lon="5.29994">
        <ele>669.2</ele>
        <time>2021-05-03T09:39:54Z</time>
      </trkpt>
      <trkpt lat="45.23994" lon="5.29986">
        <ele>669.2</ele>
        <time>2021-05-03T09:39:55Z</time>
      </trkpt>
      <trkpt lat="45.23998" lon="5.29978">
        <ele>669.2</ele>
        <time>2021-05-03T09:39:56Z</time>
      </trkpt>
      <trkpt lat="45.24001" lon="5.2997">
        <ele>669.3</ele>
        <time>2021-05-03T09:39:57Z</time>
      </trkpt>
      <trkpt lat="45.24005" lon="5.29961">
        <ele>669.3</ele>
        <time>2021-05-03T09:39:58Z</time>
      </trkpt>
      <trkpt lat="45.24008" lon="5.29953">
        <ele>669.4</ele>
        <time>2021-05-03T09:39:59Z</time>
      </trkpt>
      <trkpt lat="45.2401" lon="5.29945">
        <ele>669.5</ele>
        <time>2021-05-03T09:40:00Z</time>
      </trkpt>
      <trkpt lat="45.24012" lon="5.29938">
        <ele>669.5</ele>
        <time>2021-05-03T09:40:01Z</time>
      </trkpt>
      <trkpt lat="45.24015" lon="5.2993">
        <ele>669.6</ele>
        <time>2021-05-03T09:40:02Z</time>
      </trkpt>
      <trkpt lat="45.24018" lon="5.29922">
        <ele>669.7</ele>
        <time>2021-05-03T09:40:03Z</time>
      </trkpt>
      <trkpt lat="45.24021" lon="5.29914">
        <ele>669.8</ele>
        <time>2021-05-03T09:40:04Z</time>
      </trkpt>
      <trkpt lat="45.24024" lon="5.29906">
        <ele>670</ele>
        <time>2021-05-03T09:40:05Z</time>
      </trkpt>
      <trkpt lat="45.24027" lon="5.29898">
        <ele>670.1</ele>
        <time>2021-05-03T09:40:06Z</time>
      </trkpt>
      <trkpt lat="45.24029" lon="5.29892">
        <ele>670.2</ele>
        <time>2021-05-03T09:40:07Z</time>
      </trkpt>
      <trkpt lat="45.24032" lon="5.29885">
        <ele>670.3</ele>
        <time>2021-05-03T09:40:08Z</time>
      </trkpt>
      <trkpt lat="45.24035" lon="5.29878">
        <ele>670.5</ele>
        <time>2021-05-03T09:40:09Z</time>
      </trkpt>
      <trkpt lat="45.24037" lon="5.29871">
        <ele>670.6</ele>
        <time>2021-05-03T09:40:10Z</time>
      </trkpt>
      <trkpt lat="45.2404" lon="5.29863">
        <ele>670.7</ele>
        <time>2021-05-03T09:40:11Z</time>
      </trkpt>
      <trkpt lat="45.24042" lon="5.29855">
        <ele>670.9</ele>
        <time>2021-05-03T09:40:12Z</time>
      </trkpt>
      <trkpt lat="45.24045" lon="5.29848">
        <ele>671</ele>
        <time>2021-05-03T09:40:13Z</time>
      </trkpt>
      <trkpt lat="45.24047" lon="5.29841">
        <ele>671.2</ele>
        <time>2021-05-03T09:40:14Z</time>
      </trkpt>
      <trkpt lat="45.2405" lon="5.29835">
        <ele>671.3</ele>
        <time>2021-05-03T09:40:15Z</time>
      </trkpt>
      <trkpt lat="45.24053" lon="5.2983">
        <ele>671.4</ele>
        <time>2021-05-03T09:40:16Z</time>
      </trkpt>
      <trkpt lat="45.24056" lon="5.29824">
        <ele>671.6</ele>
        <time>2021-05-03T09:40:17Z</time>
      </trkpt>
      <trkpt lat="45.24057" lon="5.29818">
        <ele>671.7</ele>
        <time>2021-05-03T09:40:18Z</time>
      </trkpt>
      <trkpt lat="45.24059" lon="5.29811">
        <ele>671.9</ele>
        <time>2021-05-03T09:40:19Z</time>
      </trkpt>
      <trkpt lat="45.24061" lon="5.29805">
        <ele>672</ele>
        <time>2021-05-03T09:40:20Z</time>
      </trkpt>
      <trkpt lat="45.24063" lon="5.29802">
        <ele>672.1</ele>
        <time>2021-05-03T09:40:21Z</time>
      </trkpt>
      <trkpt lat="45.24065" lon="5.29797">
        <ele>672.2</ele>
        <time>2021-05-03T09:40:22Z</time>
      </trkpt>
      <trkpt lat="45.24067" lon="5.29792">
        <ele>672.3</ele>
        <time>2021-05-03T09:40:23Z</time>
      </trkpt>
      <trkpt lat="45.2407" lon="5.29785">
        <ele>672.4</ele>
        <time>2021-05-03T09:40:24Z</time>
      </trkpt>
      <trkpt lat="45.24072" lon="5.2978">
        <ele>672.5</ele>
        <time>2021-05-03T09:40:25Z</time>
      </trkpt>
      <trkpt lat="45.24074" lon="5.29775">
        <ele>672.6</ele>
        <time>2021-05-03T09:40:26Z</time>
      </trkpt>
      <trkpt lat="45.24077" lon="5.2977">
        <ele>672.7</ele>
        <time>2021-05-03T09:40:27Z</time>
      </trkpt>
      <trkpt lat="45.24079" lon="5.29763">
        <ele>672.8</ele>
        <time>2021-05-03T09:40:28Z</time>
      </trkpt>
      <trkpt lat="45.24081" lon="5.29758">
        <ele>672.8</ele>
        <time>2021-05-03T09:40:29Z</time>
      </trkpt>
      <trkpt lat="45.24083" lon="5.29752">
        <ele>672.8</ele>
        <time>2021-05-03T09:40:30Z</time>
      </trkpt>
      <trkpt lat="45.24084" lon="5.29747">
        <ele>672.8</ele>
        <time>2021-05-03T09:40:31Z</time>
      </trkpt>
      <trkpt lat="45.24085" lon="5.2974">
        <ele>672.8</ele>
        <time>2021-05-03T09:40:32Z</time>
      </trkpt>
      <trkpt lat="45.24087" lon="5.29732">
        <ele>672.8</ele>
        <time>2021-05-03T09:40:33Z</time>
      </trkpt>
      <trkpt lat="45.24088" lon="5.29722">
        <ele>672.8</ele>
        <time>2021-05-03T09:40:34Z</time>
      </trkpt>
      <trkpt lat="45.24088" lon="5.29713">
        <ele>672.7</ele>
        <time>2021-05-03T09:40:35Z</time>
      </trkpt>
      <trkpt lat="45.24089" lon="5.29704">
        <ele>672.6</ele>
        <time>2021-05-03T09:40:36Z</time>
      </trkpt>
      <trkpt lat="45.24089" lon="5.29695">
        <ele>672.5</ele>
        <time>2021-05-03T09:40:37Z</time>
      </trkpt>
      <trkpt lat="45.24089" lon="5.29686">
        <ele>672.5</ele>
        <time>2021-05-03T09:40:38Z</time>
      </trkpt>
      <trkpt lat="45.2409" lon="5.29677">
        <ele>672.4</ele>
        <time>2021-05-03T09:40:39Z</time>
      </trkpt>
      <trkpt lat="45.2409" lon="5.29669">
        <ele>672.3</ele>
        <time>2021-05-03T09:40:40Z</time>
      </trkpt>
      <trkpt lat="45.24091" lon="5.29659">
        <ele>672.2</ele>
        <time>2021-05-03T09:40:41Z</time>
      </trkpt>
      <trkpt lat="45.24093" lon="5.29649">
        <ele>672.1</ele>
        <time>2021-05-03T09:40:42Z</time>
      </trkpt>
      <trkpt lat="45.24094" lon="5.29639">
        <ele>672.1</ele>
        <time>2021-05-03T09:40:43Z</time>
      </trkpt>
      <trkpt lat="45.24094" lon="5.29629">
        <ele>672</ele>
        <time>2021-05-03T09:40:44Z</time>
      </trkpt>
      <trkpt lat="45.24095" lon="5.29621">
        <ele>672</ele>
        <time>2021-05-03T09:40:45Z</time>
      </trkpt>
      <trkpt lat="45.24095" lon="5.29611">
        <ele>671.9</ele>
        <time>2021-05-03T09:40:46Z</time>
      </trkpt>
      <trkpt lat="45.24095" lon="5.29602">
        <ele>671.9</ele>
        <time>2021-05-03T09:40:47Z</time>
      </trkpt>
      <trkpt lat="45.24095" lon="5.29593">
        <ele>671.8</ele>
        <time>2021-05-03T09:40:48Z</time>
      </trkpt>
      <trkpt lat="45.24095" lon="5.29584">
        <ele>671.8</ele>
        <time>2021-05-03T09:40:49Z</time>
      </trkpt>
      <trkpt lat="45.24095" lon="5.29574">
        <ele>671.7</ele>
        <time>2021-05-03T09:40:50Z</time>
      </trkpt>
      <trkpt lat="45.24095" lon="5.29564">
        <ele>671.6</ele>
        <time>2021-05-03T09:40:51Z</time>
      </trkpt>
      <trkpt lat="45.24095" lon="5.29554">
        <ele>671.6</ele>
        <time>2021-05-03T09:40:52Z</time>
      </trkpt>
      <trkpt lat="45.24095" lon="5.29545">
        <ele>671.5</ele>
        <time>2021-05-03T09:40:53Z</time>
      </trkpt>
      <trkpt lat="45.24095" lon="5.29536">
        <ele>671.4</ele>
        <time>2021-05-03T09:40:54Z</time>
      </trkpt>
      <trkpt lat="45.24095" lon="5.29525">
        <ele>671.3</ele>
        <time>2021-05-03T09:40:55Z</time>
      </trkpt>
      <trkpt lat="45.24095" lon="5.29516">
        <ele>671.2</ele>
        <time>2021-05-03T09:40:56Z</time>
      </trkpt>
      <trkpt lat="45.24095" lon="5.29506">
        <ele>671.1</ele>
        <time>2021-05-03T09:40:57Z</time>
      </trkpt>
      <trkpt lat="45.24095" lon="5.29496">
        <ele>671.1</ele>
        <time>2021-05-03T09:40:58Z</time>
      </trkpt>
      <trkpt lat="45.24095" lon="5.29486">
        <ele>671.1</ele>
        <time>2021-05-03T09:40:59Z</time>
      </trkpt>
      <trkpt lat="45.24096" lon="5.29477">
        <ele>671.1</ele>
        <time>2021-05-03T09:41:00Z</time>
      </trkpt>
      <trkpt lat="45.24096" lon="5.29468">
        <ele>671</ele>
        <time>2021-05-03T09:41:01Z</time>
      </trkpt>
      <trkpt lat="45.24095" lon="5.29459">
        <ele>671</ele>
        <time>2021-05-03T09:41:02Z</time>
      </trkpt>
      <trkpt lat="45.24096" lon="5.29448">
        <ele>670.9</ele>
        <time>2021-05-03T09:41:03Z</time>
      </trkpt>
      <trkpt lat="45.24099" lon="5.29438">
        <ele>670.8</ele>
        <time>2021-05-03T09:41:04Z</time>
      </trkpt>
      <trkpt lat="45.241" lon="5.29428">
        <ele>670.7</ele>
        <time>2021-05-03T09:41:05Z</time>
      </trkpt>
      <trkpt lat="45.241" lon="5.29418">
        <ele>670.6</ele>
        <time>2021-05-03T09:41:06Z</time>
      </trkpt>
      <trkpt lat="45.241" lon="5.29408">
        <ele>670.5</ele>
        <time>2021-05-03T09:41:07Z</time>
      </trkpt>
      <trkpt lat="45.241" lon="5.29398">
        <ele>670.4</ele>
        <time>2021-05-03T09:41:08Z</time>
      </trkpt>
      <trkpt lat="45.241" lon="5.29388">
        <ele>670.2</ele>
        <time>2021-05-03T09:41:09Z</time>
      </trkpt>
      <trkpt lat="45.24101" lon="5.29378">
        <ele>670.1</ele>
        <time>2021-05-03T09:41:10Z</time>
      </trkpt>
      <trkpt lat="45.24101" lon="5.2937">
        <ele>670</ele>
        <time>2021-05-03T09:41:11Z</time>
      </trkpt>
      <trkpt lat="45.24101" lon="5.29361">
        <ele>669.8</ele>
        <time>2021-05-03T09:41:12Z</time>
      </trkpt>
      <trkpt lat="45.24101" lon="5.29351">
        <ele>669.7</ele>
        <time>2021-05-03T09:41:13Z</time>
      </trkpt>
      <trkpt lat="45.24101" lon="5.29341">
        <ele>669.5</ele>
        <time>2021-05-03T09:41:14Z</time>
      </trkpt>
      <trkpt lat="45.24101" lon="5.2933">
        <ele>669.4</ele>
        <time>2021-05-03T09:41:15Z</time>
      </trkpt>
      <trkpt lat="45.24102" lon="5.2932">
        <ele>669.3</ele>
        <time>2021-05-03T09:41:16Z</time>
      </trkpt>
      <trkpt lat="45.24102" lon="5.29311">
        <ele>669.2</ele>
        <time>2021-05-03T09:41:17Z</time>
      </trkpt>
      <trkpt lat="45.24104" lon="5.29301">
        <ele>669.1</ele>
        <time>2021-05-03T09:41:18Z</time>
      </trkpt>
      <trkpt lat="45.24105" lon="5.29291">
        <ele>669.1</ele>
        <time>2021-05-03T09:41:19Z</time>
      </trkpt>
      <trkpt lat="45.24105" lon="5.29282">
        <ele>669</ele>
        <time>2021-05-03T09:41:20Z</time>
      </trkpt>
      <trkpt lat="45.24105" lon="5.29272">
        <ele>669</ele>
        <time>2021-05-03T09:41:21Z</time>
      </trkpt>
      <trkpt lat="45.24106" lon="5.29262">
        <ele>668.9</ele>
        <time>2021-05-03T09:41:22Z</time>
      </trkpt>
      <trkpt lat="45.24108" lon="5.29254">
        <ele>668.8</ele>
        <time>2021-05-03T09:41:23Z</time>
      </trkpt>
      <trkpt lat="45.2411" lon="5.29246">
        <ele>668.7</ele>
        <time>2021-05-03T09:41:24Z</time>
      </trkpt>
      <trkpt lat="45.24111" lon="5.29238">
        <ele>668.6</ele>
        <time>2021-05-03T09:41:25Z</time>
      </trkpt>
      <trkpt lat="45.24111" lon="5.2923">
        <ele>668.5</ele>
        <time>2021-05-03T09:41:26Z</time>
      </trkpt>
      <trkpt lat="45.24111" lon="5.2922">
        <ele>668.4</ele>
        <time>2021-05-03T09:41:27Z</time>
      </trkpt>
      <trkpt lat="45.24111" lon="5.29211">
        <ele>668.3</ele>
        <time>2021-05-03T09:41:28Z</time>
      </trkpt>
      <trkpt lat="45.24111" lon="5.29204">
        <ele>668.1</ele>
        <time>2021-05-03T09:41:29Z</time>
      </trkpt>
      <trkpt lat="45.24111" lon="5.29194">
        <ele>668</ele>
        <time>2021-05-03T09:41:30Z</time>
      </trkpt>
      <trkpt lat="45.24111" lon="5.29183">
        <ele>667.9</ele>
        <time>2021-05-03T09:41:31Z</time>
      </trkpt>
      <trkpt lat="45.24111" lon="5.29172">
        <ele>667.7</ele>
        <time>2021-05-03T09:41:32Z</time>
      </trkpt>
      <trkpt lat="45.2411" lon="5.29162">
        <ele>667.6</ele>
        <time>2021-05-03T09:41:33Z</time>
      </trkpt>
      <trkpt lat="45.2411" lon="5.29153">
        <ele>667.5</ele>
        <time>2021-05-03T09:41:34Z</time>
      </trkpt>
      <trkpt lat="45.2411" lon="5.29142">
        <ele>667.4</ele>
        <time>2021-05-03T09:41:35Z</time>
      </trkpt>
      <trkpt lat="45.24111" lon="5.29132">
        <ele>667.4</ele>
        <time>2021-05-03T09:41:36Z</time>
      </trkpt>
      <trkpt lat="45.2411" lon="5.29123">
        <ele>667.3</ele>
        <time>2021-05-03T09:41:37Z</time>
      </trkpt>
      <trkpt lat="45.2411" lon="5.29114">
        <ele>667.3</ele>
        <time>2021-05-03T09:41:38Z</time>
      </trkpt>
      <trkpt lat="45.2411" lon="5.29104">
        <ele>667.2</ele>
        <time>2021-05-03T09:41:39Z</time>
      </trkpt>
      <trkpt lat="45.24111" lon="5.29093">
        <ele>667.2</ele>
        <time>2021-05-03T09:41:40Z</time>
      </trkpt>
      <trkpt lat="45.24111" lon="5.29084">
        <ele>667.2</ele>
        <time>2021-05-03T09:41:41Z</time>
      </trkpt>
      <trkpt lat="45.24112" lon="5.29075">
        <ele>667.2</ele>
        <time>2021-05-03T09:41:42Z</time>
      </trkpt>
      <trkpt lat="45.24112" lon="5.29065">
        <ele>667.2</ele>
        <time>2021-05-03T09:41:43Z</time>
      </trkpt>
      <trkpt lat="45.24112" lon="5.29056">
        <ele>667.2</ele>
        <time>2021-05-03T09:41:44Z</time>
      </trkpt>
      <trkpt lat="45.24113" lon="5.29046">
        <ele>667.3</ele>
        <time>2021-05-03T09:41:45Z</time>
      </trkpt>
      <trkpt lat="45.24113" lon="5.29036">
        <ele>667.3</ele>
        <time>2021-05-03T09:41:46Z</time>
      </trkpt>
      <trkpt lat="45.24114" lon="5.29027">
        <ele>667.3</ele>
        <time>2021-05-03T09:41:47Z</time>
      </trkpt>
      <trkpt lat="45.24114" lon="5.29018">
        <ele>667.3</ele>
        <time>2021-05-03T09:41:48Z</time>
      </trkpt>
      <trkpt lat="45.24115" lon="5.29008">
        <ele>667.3</ele>
        <time>2021-05-03T09:41:49Z</time>
      </trkpt>
      <trkpt lat="45.24115" lon="5.28999">
        <ele>667.3</ele>
        <time>2021-05-03T09:41:50Z</time>
      </trkpt>
      <trkpt lat="45.24115" lon="5.2899">
        <ele>667.3</ele>
        <time>2021-05-03T09:41:51Z</time>
      </trkpt>
      <trkpt lat="45.24115" lon="5.28981">
        <ele>667.3</ele>
        <time>2021-05-03T09:41:52Z</time>
      </trkpt>
      <trkpt lat="45.24116" lon="5.28972">
        <ele>667.3</ele>
        <time>2021-05-03T09:41:53Z</time>
      </trkpt>
      <trkpt lat="45.24116" lon="5.28963">
        <ele>667.3</ele>
        <time>2021-05-03T09:41:54Z</time>
      </trkpt>
      <trkpt lat="45.24117" lon="5.28953">
        <ele>667.3</ele>
        <time>2021-05-03T09:41:55Z</time>
      </trkpt>
      <trkpt lat="45.24117" lon="5.28943">
        <ele>667.3</ele>
        <time>2021-05-03T09:41:56Z</time>
      </trkpt>
      <trkpt lat="45.24118" lon="5.28935">
        <ele>667.3</ele>
        <time>2021-05-03T09:41:57Z</time>
      </trkpt>
      <trkpt lat="45.24118" lon="5.28926">
        <ele>667.3</ele>
        <time>2021-05-03T09:41:58Z</time>
      </trkpt>
      <trkpt lat="45.24118" lon="5.28917">
        <ele>667.4</ele>
        <time>2021-05-03T09:41:59Z</time>
      </trkpt>
      <trkpt lat="45.24119" lon="5.28909">
        <ele>667.4</ele>
        <time>2021-05-03T09:42:00Z</time>
      </trkpt>
      <trkpt lat="45.24119" lon="5.289">
        <ele>667.4</ele>
        <time>2021-05-03T09:42:01Z</time>
      </trkpt>
      <trkpt lat="45.24119" lon="5.28892">
        <ele>667.4</ele>
        <time>2021-05-03T09:42:02Z</time>
      </trkpt>
      <trkpt lat="45.2412" lon="5.28884">
        <ele>667.4</ele>
        <time>2021-05-03T09:42:03Z</time>
      </trkpt>
      <trkpt lat="45.2412" lon="5.28876">
        <ele>667.4</ele>
        <time>2021-05-03T09:42:04Z</time>
      </trkpt>
      <trkpt lat="45.24121" lon="5.28868">
        <ele>667.4</ele>
        <time>2021-05-03T09:42:05Z</time>
      </trkpt>
      <trkpt lat="45.24121" lon="5.28861">
        <ele>667.3</ele>
        <time>2021-05-03T09:42:06Z</time>
      </trkpt>
      <trkpt lat="45.24121" lon="5.28853">
        <ele>667.3</ele>
        <time>2021-05-03T09:42:07Z</time>
      </trkpt>
      <trkpt lat="45.24122" lon="5.28845">
        <ele>667.2</ele>
        <time>2021-05-03T09:42:08Z</time>
      </trkpt>
      <trkpt lat="45.24122" lon="5.28837">
        <ele>667.1</ele>
        <time>2021-05-03T09:42:09Z</time>
      </trkpt>
      <trkpt lat="45.24123" lon="5.28829">
        <ele>666.9</ele>
        <time>2021-05-03T09:42:10Z</time>
      </trkpt>
      <trkpt lat="45.24123" lon="5.2882">
        <ele>666.8</ele>
        <time>2021-05-03T09:42:11Z</time>
      </trkpt>
      <trkpt lat="45.24123" lon="5.28811">
        <ele>666.6</ele>
        <time>2021-05-03T09:42:12Z</time>
      </trkpt>
      <trkpt lat="45.24123" lon="5.28802">
        <ele>666.4</ele>
        <time>2021-05-03T09:42:13Z</time>
      </trkpt>
      <trkpt lat="45.24123" lon="5.28792">
        <ele>666.3</ele>
        <time>2021-05-03T09:42:14Z</time>
      </trkpt>
      <trkpt lat="45.24123" lon="5.28783">
        <ele>666.1</ele>
        <time>2021-05-03T09:42:15Z</time>
      </trkpt>
      <trkpt lat="45.24124" lon="5.28774">
        <ele>665.9</ele>
        <time>2021-05-03T09:42:16Z</time>
      </trkpt>
      <trkpt lat="45.24125" lon="5.28764">
        <ele>665.7</ele>
        <time>2021-05-03T09:42:17Z</time>
      </trkpt>
      <trkpt lat="45.24125" lon="5.28754">
        <ele>665.5</ele>
        <time>2021-05-03T09:42:18Z</time>
      </trkpt>
      <trkpt lat="45.24125" lon="5.28744">
        <ele>665.3</ele>
        <time>2021-05-03T09:42:19Z</time>
      </trkpt>
      <trkpt lat="45.24125" lon="5.28733">
        <ele>665.1</ele>
        <time>2021-05-03T09:42:20Z</time>
      </trkpt>
      <trkpt lat="45.24125" lon="5.28723">
        <ele>664.9</ele>
        <time>2021-05-03T09:42:21Z</time>
      </trkpt>
      <trkpt lat="45.24126" lon="5.28711">
        <ele>664.6</ele>
        <time>2021-05-03T09:42:22Z</time>
      </trkpt>
      <trkpt lat="45.24126" lon="5.287">
        <ele>664.3</ele>
        <time>2021-05-03T09:42:23Z</time>
      </trkpt>
      <trkpt lat="45.24126" lon="5.28689">
        <ele>664.1</ele>
        <time>2021-05-03T09:42:24Z</time>
      </trkpt>
      <trkpt lat="45.24127" lon="5.28678">
        <ele>663.9</ele>
        <time>2021-05-03T09:42:25Z</time>
      </trkpt>
      <trkpt lat="45.24127" lon="5.28668">
        <ele>663.7</ele>
        <time>2021-05-03T09:42:26Z</time>
      </trkpt>
      <trkpt lat="45.24128" lon="5.28657">
        <ele>663.4</ele>
        <time>2021-05-03T09:42:27Z</time>
      </trkpt>
      <trkpt lat="45.24128" lon="5.28646">
        <ele>663.2</ele>
        <time>2021-05-03T09:42:28Z</time>
      </trkpt>
      <trkpt lat="45.24128" lon="5.28635">
        <ele>663</ele>
        <time>2021-05-03T09:42:29Z</time>
      </trkpt>
      <trkpt lat="45.24129" lon="5.28624">
        <ele>662.8</ele>
        <time>2021-05-03T09:42:30Z</time>
      </trkpt>
      <trkpt lat="45.24129" lon="5.28613">
        <ele>662.6</ele>
        <time>2021-05-03T09:42:31Z</time>
      </trkpt>
      <trkpt lat="45.2413" lon="5.28602">
        <ele>662.4</ele>
        <time>2021-05-03T09:42:32Z</time>
      </trkpt>
      <trkpt lat="45.2413" lon="5.28591">
        <ele>662.1</ele>
        <time>2021-05-03T09:42:33Z</time>
      </trkpt>
      <trkpt lat="45.24131" lon="5.2858">
        <ele>661.9</ele>
        <time>2021-05-03T09:42:34Z</time>
      </trkpt>
      <trkpt lat="45.24131" lon="5.28568">
        <ele>661.7</ele>
        <time>2021-05-03T09:42:35Z</time>
      </trkpt>
      <trkpt lat="45.24131" lon="5.28557">
        <ele>661.6</ele>
        <time>2021-05-03T09:42:36Z</time>
      </trkpt>
      <trkpt lat="45.24132" lon="5.28546">
        <ele>661.5</ele>
        <time>2021-05-03T09:42:37Z</time>
      </trkpt>
      <trkpt lat="45.24132" lon="5.28535">
        <ele>661.4</ele>
        <time>2021-05-03T09:42:38Z</time>
      </trkpt>
      <trkpt lat="45.24132" lon="5.28525">
        <ele>661.3</ele>
        <time>2021-05-03T09:42:39Z</time>
      </trkpt>
      <trkpt lat="45.24133" lon="5.28514">
        <ele>661.2</ele>
        <time>2021-05-03T09:42:40Z</time>
      </trkpt>
      <trkpt lat="45.24133" lon="5.28503">
        <ele>661.1</ele>
        <time>2021-05-03T09:42:41Z</time>
      </trkpt>
      <trkpt lat="45.24135" lon="5.28493">
        <ele>661</ele>
        <time>2021-05-03T09:42:42Z</time>
      </trkpt>
      <trkpt lat="45.24135" lon="5.28483">
        <ele>660.9</ele>
        <time>2021-05-03T09:42:43Z</time>
      </trkpt>
      <trkpt lat="45.24135" lon="5.28473">
        <ele>660.8</ele>
        <time>2021-05-03T09:42:44Z</time>
      </trkpt>
      <trkpt lat="45.24136" lon="5.28463">
        <ele>660.7</ele>
        <time>2021-05-03T09:42:45Z</time>
      </trkpt>
      <trkpt lat="45.24136" lon="5.28452">
        <ele>660.6</ele>
        <time>2021-05-03T09:42:46Z</time>
      </trkpt>
      <trkpt lat="45.24136" lon="5.28442">
        <ele>660.4</ele>
        <time>2021-05-03T09:42:47Z</time>
      </trkpt>
      <trkpt lat="45.24137" lon="5.28431">
        <ele>660.3</ele>
        <time>2021-05-03T09:42:48Z</time>
      </trkpt>
      <trkpt lat="45.24137" lon="5.28421">
        <ele>660.2</ele>
        <time>2021-05-03T09:42:49Z</time>
      </trkpt>
      <trkpt lat="45.24137" lon="5.28411">
        <ele>660</ele>
        <time>2021-05-03T09:42:50Z</time>
      </trkpt>
      <trkpt lat="45.24138" lon="5.284">
        <ele>659.9</ele>
        <time>2021-05-03T09:42:51Z</time>
      </trkpt>
      <trkpt lat="45.24138" lon="5.2839">
        <ele>659.7</ele>
        <time>2021-05-03T09:42:52Z</time>
      </trkpt>
      <trkpt lat="45.24139" lon="5.28379">
        <ele>659.6</ele>
        <time>2021-05-03T09:42:53Z</time>
      </trkpt>
      <trkpt lat="45.2414" lon="5.28368">
        <ele>659.4</ele>
        <time>2021-05-03T09:42:54Z</time>
      </trkpt>
      <trkpt lat="45.2414" lon="5.28358">
        <ele>659.2</ele>
        <time>2021-05-03T09:42:55Z</time>
      </trkpt>
      <trkpt lat="45.24141" lon="5.28347">
        <ele>659</ele>
        <time>2021-05-03T09:42:56Z</time>
      </trkpt>
      <trkpt lat="45.24141" lon="5.28336">
        <ele>658.8</ele>
        <time>2021-05-03T09:42:57Z</time>
      </trkpt>
      <trkpt lat="45.24141" lon="5.28325">
        <ele>658.6</ele>
        <time>2021-05-03T09:42:58Z</time>
      </trkpt>
      <trkpt lat="45.24142" lon="5.28314">
        <ele>658.3</ele>
        <time>2021-05-03T09:42:59Z</time>
      </trkpt>
      <trkpt lat="45.24142" lon="5.28304">
        <ele>658.1</ele>
        <time>2021-05-03T09:43:00Z</time>
      </trkpt>
      <trkpt lat="45.24143" lon="5.28292">
        <ele>657.8</ele>
        <time>2021-05-03T09:43:01Z</time>
      </trkpt>
      <trkpt lat="45.24143" lon="5.28281">
        <ele>657.5</ele>
        <time>2021-05-03T09:43:02Z</time>
      </trkpt>
      <trkpt lat="45.24143" lon="5.2827">
        <ele>657.2</ele>
        <time>2021-05-03T09:43:03Z</time>
      </trkpt>
      <trkpt lat="45.24144" lon="5.28258">
        <ele>656.9</ele>
        <time>2021-05-03T09:43:04Z</time>
      </trkpt>
      <trkpt lat="45.24144" lon="5.28246">
        <ele>656.6</ele>
        <time>2021-05-03T09:43:05Z</time>
      </trkpt>
      <trkpt lat="45.24144" lon="5.28235">
        <ele>656.3</ele>
        <time>2021-05-03T09:43:06Z</time>
      </trkpt>
      <trkpt lat="45.24144" lon="5.28224">
        <ele>656</ele>
        <time>2021-05-03T09:43:07Z</time>
      </trkpt>
      <trkpt lat="45.24145" lon="5.28213">
        <ele>655.8</ele>
        <time>2021-05-03T09:43:08Z</time>
      </trkpt>
      <trkpt lat="45.24145" lon="5.28201">
        <ele>655.5</ele>
        <time>2021-05-03T09:43:09Z</time>
      </trkpt>
      <trkpt lat="45.24145" lon="5.2819">
        <ele>655.2</ele>
        <time>2021-05-03T09:43:10Z</time>
      </trkpt>
      <trkpt lat="45.24146" lon="5.28178">
        <ele>654.9</ele>
        <time>2021-05-03T09:43:11Z</time>
      </trkpt>
      <trkpt lat="45.24146" lon="5.28167">
        <ele>654.6</ele>
        <time>2021-05-03T09:43:12Z</time>
      </trkpt>
      <trkpt lat="45.24146" lon="5.28155">
        <ele>654.3</ele>
        <time>2021-05-03T09:43:13Z</time>
      </trkpt>
      <trkpt lat="45.24147" lon="5.28144">
        <ele>653.9</ele>
        <time>2021-05-03T09:43:14Z</time>
      </trkpt>
      <trkpt lat="45.24147" lon="5.28132">
        <ele>653.6</ele>
        <time>2021-05-03T09:43:15Z</time>
      </trkpt>
      <trkpt lat="45.24147" lon="5.2812">
        <ele>653.3</ele>
        <time>2021-05-03T09:43:16Z</time>
      </trkpt>
      <trkpt lat="45.24147" lon="5.28107">
        <ele>653</ele>
        <time>2021-05-03T09:43:17Z</time>
      </trkpt>
      <trkpt lat="45.24148" lon="5.28096">
        <ele>652.7</ele>
        <time>2021-05-03T09:43:18Z</time>
      </trkpt>
      <trkpt lat="45.24148" lon="5.28084">
        <ele>652.5</ele>
        <time>2021-05-03T09:43:19Z</time>
      </trkpt>
      <trkpt lat="45.24149" lon="5.28072">
        <ele>652.2</ele>
        <time>2021-05-03T09:43:20Z</time>
      </trkpt>
      <trkpt lat="45.2415" lon="5.28061">
        <ele>651.9</ele>
        <time>2021-05-03T09:43:21Z</time>
      </trkpt>
      <trkpt lat="45.24152" lon="5.2805">
        <ele>651.7</ele>
        <time>2021-05-03T09:43:22Z</time>
      </trkpt>
      <trkpt lat="45.24154" lon="5.28039">
        <ele>651.5</ele>
        <time>2021-05-03T09:43:23Z</time>
      </trkpt>
      <trkpt lat="45.24158" lon="5.28028">
        <ele>651.3</ele>
        <time>2021-05-03T09:43:24Z</time>
      </trkpt>
      <trkpt lat="45.24162" lon="5.28019">
        <ele>651.1</ele>
        <time>2021-05-03T09:43:25Z</time>
      </trkpt>
      <trkpt lat="45.24166" lon="5.2801">
        <ele>650.9</ele>
        <time>2021-05-03T09:43:26Z</time>
      </trkpt>
      <trkpt lat="45.24171" lon="5.28002">
        <ele>650.7</ele>
        <time>2021-05-03T09:43:27Z</time>
      </trkpt>
      <trkpt lat="45.24177" lon="5.27994">
        <ele>650.5</ele>
        <time>2021-05-03T09:43:28Z</time>
      </trkpt>
      <trkpt lat="45.24182" lon="5.27987">
        <ele>650.3</ele>
        <time>2021-05-03T09:43:29Z</time>
      </trkpt>
      <trkpt lat="45.24187" lon="5.27979">
        <ele>650.1</ele>
        <time>2021-05-03T09:43:30Z</time>
      </trkpt>
      <trkpt lat="45.24193" lon="5.27971">
        <ele>649.9</ele>
        <time>2021-05-03T09:43:31Z</time>
      </trkpt>
      <trkpt lat="45.24199" lon="5.27963">
        <ele>649.7</ele>
        <time>2021-05-03T09:43:32Z</time>
      </trkpt>
      <trkpt lat="45.24204" lon="5.27955">
        <ele>649.5</ele>
        <time>2021-05-03T09:43:33Z</time>
      </trkpt>
      <trkpt lat="45.2421" lon="5.27947">
        <ele>649.3</ele>
        <time>2021-05-03T09:43:34Z</time>
      </trkpt>
      <trkpt lat="45.24215" lon="5.27939">
        <ele>649.2</ele>
        <time>2021-05-03T09:43:35Z</time>
      </trkpt>
      <trkpt lat="45.24221" lon="5.27932">
        <ele>649</ele>
        <time>2021-05-03T09:43:36Z</time>
      </trkpt>
      <trkpt lat="45.24226" lon="5.27924">
        <ele>648.9</ele>
        <time>2021-05-03T09:43:37Z</time>
      </trkpt>
      <trkpt lat="45.24231" lon="5.27917">
        <ele>648.7</ele>
        <time>2021-05-03T09:43:38Z</time>
      </trkpt>
      <trkpt lat="45.24236" lon="5.27909">
        <ele>648.5</ele>
        <time>2021-05-03T09:43:39Z</time>
      </trkpt>
      <trkpt lat="45.24241" lon="5.27902">
        <ele>648.4</ele>
        <time>2021-05-03T09:43:40Z</time>
      </trkpt>
      <trkpt lat="45.24247" lon="5.27894">
        <ele>648.2</ele>
        <time>2021-05-03T09:43:41Z</time>
      </trkpt>
      <trkpt lat="45.24252" lon="5.27886">
        <ele>648</ele>
        <time>2021-05-03T09:43:42Z</time>
      </trkpt>
      <trkpt lat="45.24257" lon="5.27879">
        <ele>647.8</ele>
        <time>2021-05-03T09:43:43Z</time>
      </trkpt>
      <trkpt lat="45.24262" lon="5.27871">
        <ele>647.7</ele>
        <time>2021-05-03T09:43:44Z</time>
      </trkpt>
      <trkpt lat="45.24266" lon="5.27864">
        <ele>647.5</ele>
        <time>2021-05-03T09:43:45Z</time>
      </trkpt>
      <trkpt lat="45.24271" lon="5.27856">
        <ele>647.3</ele>
        <time>2021-05-03T09:43:46Z</time>
      </trkpt>
      <trkpt lat="45.24276" lon="5.27848">
        <ele>647.2</ele>
        <time>2021-05-03T09:43:47Z</time>
      </trkpt>
      <trkpt lat="45.24281" lon="5.27841">
        <ele>647</ele>
        <time>2021-05-03T09:43:48Z</time>
      </trkpt>
      <trkpt lat="45.24286" lon="5.27833">
        <ele>646.8</ele>
        <time>2021-05-03T09:43:49Z</time>
      </trkpt>
      <trkpt lat="45.24292" lon="5.27826">
        <ele>646.7</ele>
        <time>2021-05-03T09:43:50Z</time>
      </trkpt>
      <trkpt lat="45.24297" lon="5.27818">
        <ele>646.6</ele>
        <time>2021-05-03T09:43:51Z</time>
      </trkpt>
      <trkpt lat="45.24302" lon="5.2781">
        <ele>646.4</ele>
        <time>2021-05-03T09:43:52Z</time>
      </trkpt>
      <trkpt lat="45.24307" lon="5.27803">
        <ele>646.2</ele>
        <time>2021-05-03T09:43:53Z</time>
      </trkpt>
      <trkpt lat="45.24312" lon="5.27796">
        <ele>646.1</ele>
        <time>2021-05-03T09:43:54Z</time>
      </trkpt>
      <trkpt lat="45.24317" lon="5.27788">
        <ele>645.9</ele>
        <time>2021-05-03T09:43:55Z</time>
      </trkpt>
      <trkpt lat="45.24322" lon="5.27781">
        <ele>645.7</ele>
        <time>2021-05-03T09:43:56Z</time>
      </trkpt>
      <trkpt lat="45.24327" lon="5.27773">
        <ele>645.6</ele>
        <time>2021-05-03T09:43:57Z</time>
      </trkpt>
      <trkpt lat="45.24333" lon="5.27765">
        <ele>645.4</ele>
        <time>2021-05-03T09:43:58Z</time>
      </trkpt>
      <trkpt lat="45.24338" lon="5.27758">
        <ele>645.3</ele>
        <time>2021-05-03T09:43:59Z</time>
      </trkpt>
      <trkpt lat="45.24344" lon="5.2775">
        <ele>645.1</ele>
        <time>2021-05-03T09:44:00Z</time>
      </trkpt>
      <trkpt lat="45.24349" lon="5.27742">
        <ele>645</ele>
        <time>2021-05-03T09:44:01Z</time>
      </trkpt>
      <trkpt lat="45.24355" lon="5.27734">
        <ele>644.8</ele>
        <time>2021-05-03T09:44:02Z</time>
      </trkpt>
      <trkpt lat="45.2436" lon="5.27726">
        <ele>644.6</ele>
        <time>2021-05-03T09:44:03Z</time>
      </trkpt>
      <trkpt lat="45.24366" lon="5.27718">
        <ele>644.2</ele>
        <time>2021-05-03T09:44:04Z</time>
      </trkpt>
      <trkpt lat="45.24371" lon="5.27709">
        <ele>643.8</ele>
        <time>2021-05-03T09:44:05Z</time>
      </trkpt>
      <trkpt lat="45.24376" lon="5.27702">
        <ele>643.5</ele>
        <time>2021-05-03T09:44:06Z</time>
      </trkpt>
      <trkpt lat="45.24382" lon="5.27693">
        <ele>643.1</ele>
        <time>2021-05-03T09:44:07Z</time>
      </trkpt>
      <trkpt lat="45.24387" lon="5.27685">
        <ele>642.8</ele>
        <time>2021-05-03T09:44:08Z</time>
      </trkpt>
      <trkpt lat="45.24393" lon="5.27677">
        <ele>642.4</ele>
        <time>2021-05-03T09:44:09Z</time>
      </trkpt>
      <trkpt lat="45.24399" lon="5.27669">
        <ele>642.1</ele>
        <time>2021-05-03T09:44:10Z</time>
      </trkpt>
      <trkpt lat="45.24404" lon="5.2766">
        <ele>641.7</ele>
        <time>2021-05-03T09:44:11Z</time>
      </trkpt>
      <trkpt lat="45.2441" lon="5.27652">
        <ele>641.4</ele>
        <time>2021-05-03T09:44:12Z</time>
      </trkpt>
      <trkpt lat="45.24416" lon="5.27644">
        <ele>641</ele>
        <time>2021-05-03T09:44:13Z</time>
      </trkpt>
      <trkpt lat="45.24422" lon="5.27635">
        <ele>640.6</ele>
        <time>2021-05-03T09:44:14Z</time>
      </trkpt>
      <trkpt lat="45.24428" lon="5.27626">
        <ele>640.2</ele>
        <time>2021-05-03T09:44:15Z</time>
      </trkpt>
      <trkpt lat="45.24434" lon="5.27617">
        <ele>639.9</ele>
        <time>2021-05-03T09:44:16Z</time>
      </trkpt>
      <trkpt lat="45.24441" lon="5.27608">
        <ele>639.4</ele>
        <time>2021-05-03T09:44:17Z</time>
      </trkpt>
      <trkpt lat="45.24447" lon="5.276">
        <ele>639</ele>
        <time>2021-05-03T09:44:18Z</time>
      </trkpt>
      <trkpt lat="45.24453" lon="5.27591">
        <ele>638.7</ele>
        <time>2021-05-03T09:44:19Z</time>
      </trkpt>
      <trkpt lat="45.24459" lon="5.27582">
        <ele>638.4</ele>
        <time>2021-05-03T09:44:20Z</time>
      </trkpt>
      <trkpt lat="45.24465" lon="5.27573">
        <ele>638.2</ele>
        <time>2021-05-03T09:44:21Z</time>
      </trkpt>
      <trkpt lat="45.24471" lon="5.27564">
        <ele>638</ele>
        <time>2021-05-03T09:44:22Z</time>
      </trkpt>
      <trkpt lat="45.24476" lon="5.27555">
        <ele>637.8</ele>
        <time>2021-05-03T09:44:23Z</time>
      </trkpt>
      <trkpt lat="45.24482" lon="5.27547">
        <ele>637.6</ele>
        <time>2021-05-03T09:44:24Z</time>
      </trkpt>
      <trkpt lat="45.24487" lon="5.27539">
        <ele>637.5</ele>
        <time>2021-05-03T09:44:25Z</time>
      </trkpt>
      <trkpt lat="45.24493" lon="5.27531">
        <ele>637.4</ele>
        <time>2021-05-03T09:44:26Z</time>
      </trkpt>
      <trkpt lat="45.24498" lon="5.27523">
        <ele>637.3</ele>
        <time>2021-05-03T09:44:27Z</time>
      </trkpt>
      <trkpt lat="45.24503" lon="5.27515">
        <ele>637.1</ele>
        <time>2021-05-03T09:44:28Z</time>
      </trkpt>
      <trkpt lat="45.24508" lon="5.27508">
        <ele>637</ele>
        <time>2021-05-03T09:44:29Z</time>
      </trkpt>
      <trkpt lat="45.24513" lon="5.27501">
        <ele>636.9</ele>
        <time>2021-05-03T09:44:30Z</time>
      </trkpt>
      <trkpt lat="45.24517" lon="5.27495">
        <ele>636.8</ele>
        <time>2021-05-03T09:44:31Z</time>
      </trkpt>
      <trkpt lat="45.24522" lon="5.27488">
        <ele>636.6</ele>
        <time>2021-05-03T09:44:32Z</time>
      </trkpt>
      <trkpt lat="45.24527" lon="5.27481">
        <ele>636.5</ele>
        <time>2021-05-03T09:44:33Z</time>
      </trkpt>
      <trkpt lat="45.24532" lon="5.27474">
        <ele>636.3</ele>
        <time>2021-05-03T09:44:34Z</time>
      </trkpt>
      <trkpt lat="45.24536" lon="5.27467">
        <ele>636.2</ele>
        <time>2021-05-03T09:44:35Z</time>
      </trkpt>
      <trkpt lat="45.24541" lon="5.27461">
        <ele>636.1</ele>
        <time>2021-05-03T09:44:36Z</time>
      </trkpt>
      <trkpt lat="45.24546" lon="5.27454">
        <ele>636</ele>
        <time>2021-05-03T09:44:37Z</time>
      </trkpt>
      <trkpt lat="45.2455" lon="5.27448">
        <ele>635.9</ele>
        <time>2021-05-03T09:44:38Z</time>
      </trkpt>
      <trkpt lat="45.24554" lon="5.27442">
        <ele>635.7</ele>
        <time>2021-05-03T09:44:39Z</time>
      </trkpt>
      <trkpt lat="45.24559" lon="5.27435">
        <ele>635.6</ele>
        <time>2021-05-03T09:44:40Z</time>
      </trkpt>
      <trkpt lat="45.24564" lon="5.27428">
        <ele>635.5</ele>
        <time>2021-05-03T09:44:41Z</time>
      </trkpt>
      <trkpt lat="45.24568" lon="5.27421">
        <ele>635.3</ele>
        <time>2021-05-03T09:44:42Z</time>
      </trkpt>
      <trkpt lat="45.24573" lon="5.27414">
        <ele>635.2</ele>
        <time>2021-05-03T09:44:43Z</time>
      </trkpt>
      <trkpt lat="45.24577" lon="5.27407">
        <ele>635.1</ele>
        <time>2021-05-03T09:44:44Z</time>
      </trkpt>
      <trkpt lat="45.24582" lon="5.27401">
        <ele>635</ele>
        <time>2021-05-03T09:44:45Z</time>
      </trkpt>
      <trkpt lat="45.24586" lon="5.27394">
        <ele>634.9</ele>
        <time>2021-05-03T09:44:46Z</time>
      </trkpt>
      <trkpt lat="45.2459" lon="5.27388">
        <ele>634.8</ele>
        <time>2021-05-03T09:44:47Z</time>
      </trkpt>
      <trkpt lat="45.24594" lon="5.27381">
        <ele>634.7</ele>
        <time>2021-05-03T09:44:48Z</time>
      </trkpt>
      <trkpt lat="45.24599" lon="5.27375">
        <ele>634.6</ele>
        <time>2021-05-03T09:44:49Z</time>
      </trkpt>
      <trkpt lat="45.24604" lon="5.27368">
        <ele>634.5</ele>
        <time>2021-05-03T09:44:50Z</time>
      </trkpt>
      <trkpt lat="45.24608" lon="5.27361">
        <ele>634.4</ele>
        <time>2021-05-03T09:44:51Z</time>
      </trkpt>
      <trkpt lat="45.24613" lon="5.27355">
        <ele>634.2</ele>
        <time>2021-05-03T09:44:52Z</time>
      </trkpt>
      <trkpt lat="45.24618" lon="5.27348">
        <ele>634.1</ele>
        <time>2021-05-03T09:44:53Z</time>
      </trkpt>
      <trkpt lat="45.24622" lon="5.2734">
        <ele>634</ele>
        <time>2021-05-03T09:44:54Z</time>
      </trkpt>
      <trkpt lat="45.24627" lon="5.27333">
        <ele>633.9</ele>
        <time>2021-05-03T09:44:55Z</time>
      </trkpt>
      <trkpt lat="45.24632" lon="5.27326">
        <ele>633.7</ele>
        <time>2021-05-03T09:44:56Z</time>
      </trkpt>
      <trkpt lat="45.24637" lon="5.27319">
        <ele>633.6</ele>
        <time>2021-05-03T09:44:57Z</time>
      </trkpt>
      <trkpt lat="45.24642" lon="5.27312">
        <ele>633.5</ele>
        <time>2021-05-03T09:44:58Z</time>
      </trkpt>
      <trkpt lat="45.24647" lon="5.27305">
        <ele>633.4</ele>
        <time>2021-05-03T09:44:59Z</time>
      </trkpt>
      <trkpt lat="45.24652" lon="5.27297">
        <ele>633.3</ele>
        <time>2021-05-03T09:45:00Z</time>
      </trkpt>
      <trkpt lat="45.24657" lon="5.2729">
        <ele>633.2</ele>
        <time>2021-05-03T09:45:01Z</time>
      </trkpt>
      <trkpt lat="45.24662" lon="5.27283">
        <ele>633.1</ele>
        <time>2021-05-03T09:45:02Z</time>
      </trkpt>
      <trkpt lat="45.24667" lon="5.27275">
        <ele>633</ele>
        <time>2021-05-03T09:45:03Z</time>
      </trkpt>
      <trkpt lat="45.24672" lon="5.27268">
        <ele>632.9</ele>
        <time>2021-05-03T09:45:04Z</time>
      </trkpt>
      <trkpt lat="45.24677" lon="5.27261">
        <ele>632.9</ele>
        <time>2021-05-03T09:45:05Z</time>
      </trkpt>
      <trkpt lat="45.24681" lon="5.27254">
        <ele>632.8</ele>
        <time>2021-05-03T09:45:06Z</time>
      </trkpt>
      <trkpt lat="45.24686" lon="5.27247">
        <ele>632.7</ele>
        <time>2021-05-03T09:45:07Z</time>
      </trkpt>
      <trkpt lat="45.24691" lon="5.27239">
        <ele>632.7</ele>
        <time>2021-05-03T09:45:08Z</time>
      </trkpt>
      <trkpt lat="45.24696" lon="5.27232">
        <ele>632.6</ele>
        <time>2021-05-03T09:45:09Z</time>
      </trkpt>
      <trkpt lat="45.24702" lon="5.27224">
        <ele>632.6</ele>
        <time>2021-05-03T09:45:10Z</time>
      </trkpt>
      <trkpt lat="45.24707" lon="5.27216">
        <ele>632.5</ele>
        <time>2021-05-03T09:45:11Z</time>
      </trkpt>
      <trkpt lat="45.24713" lon="5.27209">
        <ele>632.5</ele>
        <time>2021-05-03T09:45:12Z</time>
      </trkpt>
      <trkpt lat="45.24718" lon="5.27201">
        <ele>632.4</ele>
        <time>2021-05-03T09:45:13Z</time>
      </trkpt>
      <trkpt lat="45.24723" lon="5.27194">
        <ele>632.3</ele>
        <time>2021-05-03T09:45:14Z</time>
      </trkpt>
      <trkpt lat="45.24728" lon="5.27187">
        <ele>632.3</ele>
        <time>2021-05-03T09:45:15Z</time>
      </trkpt>
      <trkpt lat="45.24734" lon="5.27179">
        <ele>632.2</ele>
        <time>2021-05-03T09:45:16Z</time>
      </trkpt>
      <trkpt lat="45.24739" lon="5.27172">
        <ele>632.2</ele>
        <time>2021-05-03T09:45:17Z</time>
      </trkpt>
      <trkpt lat="45.24744" lon="5.27164">
        <ele>632.1</ele>
        <time>2021-05-03T09:45:18Z</time>
      </trkpt>
      <trkpt lat="45.24749" lon="5.27157">
        <ele>632.1</ele>
        <time>2021-05-03T09:45:19Z</time>
      </trkpt>
      <trkpt lat="45.24754" lon="5.2715">
        <ele>632</ele>
        <time>2021-05-03T09:45:20Z</time>
      </trkpt>
      <trkpt lat="45.24759" lon="5.27143">
        <ele>631.9</ele>
        <time>2021-05-03T09:45:21Z</time>
      </trkpt>
      <trkpt lat="45.24763" lon="5.27135">
        <ele>631.9</ele>
        <time>2021-05-03T09:45:22Z</time>
      </trkpt>
      <trkpt lat="45.24768" lon="5.27128">
        <ele>631.8</ele>
        <time>2021-05-03T09:45:23Z</time>
      </trkpt>
      <trkpt lat="45.24773" lon="5.27121">
        <ele>631.7</ele>
        <time>2021-05-03T09:45:24Z</time>
      </trkpt>
      <trkpt lat="45.24778" lon="5.27113">
        <ele>631.6</ele>
        <time>2021-05-03T09:45:25Z</time>
      </trkpt>
      <trkpt lat="45.24783" lon="5.27106">
        <ele>631.5</ele>
        <time>2021-05-03T09:45:26Z</time>
      </trkpt>
      <trkpt lat="45.24788" lon="5.27098">
        <ele>631.4</ele>
        <time>2021-05-03T09:45:27Z</time>
      </trkpt>
      <trkpt lat="45.24793" lon="5.27091">
        <ele>631.2</ele>
        <time>2021-05-03T09:45:28Z</time>
      </trkpt>
      <trkpt lat="45.24798" lon="5.27083">
        <ele>631</ele>
        <time>2021-05-03T09:45:29Z</time>
      </trkpt>
      <trkpt lat="45.24802" lon="5.27076">
        <ele>630.9</ele>
        <time>2021-05-03T09:45:30Z</time>
      </trkpt>
      <trkpt lat="45.24807" lon="5.27069">
        <ele>630.7</ele>
        <time>2021-05-03T09:45:31Z</time>
      </trkpt>
      <trkpt lat="45.24812" lon="5.27063">
        <ele>630.6</ele>
        <time>2021-05-03T09:45:32Z</time>
      </trkpt>
      <trkpt lat="45.24817" lon="5.27056">
        <ele>630.5</ele>
        <time>2021-05-03T09:45:33Z</time>
      </trkpt>
      <trkpt lat="45.24821" lon="5.27049">
        <ele>630.4</ele>
        <time>2021-05-03T09:45:34Z</time>
      </trkpt>
      <trkpt lat="45.24826" lon="5.27043">
        <ele>630.3</ele>
        <time>2021-05-03T09:45:35Z</time>
      </trkpt>
      <trkpt lat="45.2483" lon="5.27036">
        <ele>630.2</ele>
        <time>2021-05-03T09:45:36Z</time>
      </trkpt>
      <trkpt lat="45.24834" lon="5.27029">
        <ele>630.1</ele>
        <time>2021-05-03T09:45:37Z</time>
      </trkpt>
      <trkpt lat="45.24838" lon="5.27023">
        <ele>630</ele>
        <time>2021-05-03T09:45:38Z</time>
      </trkpt>
      <trkpt lat="45.24843" lon="5.27017">
        <ele>629.9</ele>
        <time>2021-05-03T09:45:39Z</time>
      </trkpt>
      <trkpt lat="45.24847" lon="5.2701">
        <ele>629.8</ele>
        <time>2021-05-03T09:45:40Z</time>
      </trkpt>
      <trkpt lat="45.24851" lon="5.27004">
        <ele>629.7</ele>
        <time>2021-05-03T09:45:41Z</time>
      </trkpt>
      <trkpt lat="45.24856" lon="5.26997">
        <ele>629.6</ele>
        <time>2021-05-03T09:45:42Z</time>
      </trkpt>
      <trkpt lat="45.2486" lon="5.26991">
        <ele>629.6</ele>
        <time>2021-05-03T09:45:43Z</time>
      </trkpt>
      <trkpt lat="45.24865" lon="5.26985">
        <ele>629.5</ele>
        <time>2021-05-03T09:45:44Z</time>
      </trkpt>
      <trkpt lat="45.24869" lon="5.26979">
        <ele>629.4</ele>
        <time>2021-05-03T09:45:45Z</time>
      </trkpt>
      <trkpt lat="45.24873" lon="5.26972">
        <ele>629.3</ele>
        <time>2021-05-03T09:45:46Z</time>
      </trkpt>
      <trkpt lat="45.24877" lon="5.26965">
        <ele>629.2</ele>
        <time>2021-05-03T09:45:47Z</time>
      </trkpt>
      <trkpt lat="45.24881" lon="5.26959">
        <ele>629.1</ele>
        <time>2021-05-03T09:45:48Z</time>
      </trkpt>
      <trkpt lat="45.24886" lon="5.26952">
        <ele>629</ele>
        <time>2021-05-03T09:45:49Z</time>
      </trkpt>
      <trkpt lat="45.2489" lon="5.26945">
        <ele>628.9</ele>
        <time>2021-05-03T09:45:50Z</time>
      </trkpt>
      <trkpt lat="45.24895" lon="5.26939">
        <ele>628.8</ele>
        <time>2021-05-03T09:45:51Z</time>
      </trkpt>
      <trkpt lat="45.24899" lon="5.26932">
        <ele>628.7</ele>
        <time>2021-05-03T09:45:52Z</time>
      </trkpt>
      <trkpt lat="45.24904" lon="5.26925">
        <ele>628.6</ele>
        <time>2021-05-03T09:45:53Z</time>
      </trkpt>
      <trkpt lat="45.24909" lon="5.26918">
        <ele>628.5</ele>
        <time>2021-05-03T09:45:54Z</time>
      </trkpt>
      <trkpt lat="45.24913" lon="5.26912">
        <ele>628.4</ele>
        <time>2021-05-03T09:45:55Z</time>
      </trkpt>
      <trkpt lat="45.24918" lon="5.26905">
        <ele>628.3</ele>
        <time>2021-05-03T09:45:56Z</time>
      </trkpt>
      <trkpt lat="45.24923" lon="5.26898">
        <ele>628.2</ele>
        <time>2021-05-03T09:45:57Z</time>
      </trkpt>
      <trkpt lat="45.24928" lon="5.26892">
        <ele>628.1</ele>
        <time>2021-05-03T09:45:58Z</time>
      </trkpt>
      <trkpt lat="45.24932" lon="5.26885">
        <ele>628</ele>
        <time>2021-05-03T09:45:59Z</time>
      </trkpt>
      <trkpt lat="45.24937" lon="5.26879">
        <ele>627.9</ele>
        <time>2021-05-03T09:46:00Z</time>
      </trkpt>
      <trkpt lat="45.24942" lon="5.26872">
        <ele>627.8</ele>
        <time>2021-05-03T09:46:01Z</time>
      </trkpt>
      <trkpt lat="45.24946" lon="5.26866">
        <ele>627.8</ele>
        <time>2021-05-03T09:46:02Z</time>
      </trkpt>
      <trkpt lat="45.24951" lon="5.26859">
        <ele>627.7</ele>
        <time>2021-05-03T09:46:03Z</time>
      </trkpt>
      <trkpt lat="45.24955" lon="5.26853">
        <ele>627.7</ele>
        <time>2021-05-03T09:46:04Z</time>
      </trkpt>
      <trkpt lat="45.24959" lon="5.26846">
        <ele>627.7</ele>
        <time>2021-05-03T09:46:05Z</time>
      </trkpt>
      <trkpt lat="45.24964" lon="5.26839">
        <ele>627.6</ele>
        <time>2021-05-03T09:46:06Z</time>
      </trkpt>
      <trkpt lat="45.24968" lon="5.26833">
        <ele>627.6</ele>
        <time>2021-05-03T09:46:07Z</time>
      </trkpt>
      <trkpt lat="45.24972" lon="5.26826">
        <ele>627.5</ele>
        <time>2021-05-03T09:46:08Z</time>
      </trkpt>
      <trkpt lat="45.24976" lon="5.26819">
        <ele>627.4</ele>
        <time>2021-05-03T09:46:09Z</time>
      </trkpt>
      <trkpt lat="45.2498" lon="5.26812">
        <ele>627.4</ele>
        <time>2021-05-03T09:46:10Z</time>
      </trkpt>
      <trkpt lat="45.24983" lon="5.26805">
        <ele>627.4</ele>
        <time>2021-05-03T09:46:11Z</time>
      </trkpt>
      <trkpt lat="45.24986" lon="5.26797">
        <ele>627.3</ele>
        <time>2021-05-03T09:46:12Z</time>
      </trkpt>
      <trkpt lat="45.24989" lon="5.2679">
        <ele>627.3</ele>
        <time>2021-05-03T09:46:13Z</time>
      </trkpt>
      <trkpt lat="45.2499" lon="5.26781">
        <ele>627.3</ele>
        <time>2021-05-03T09:46:14Z</time>
      </trkpt>
      <trkpt lat="45.24992" lon="5.26773">
        <ele>627.2</ele>
        <time>2021-05-03T09:46:15Z</time>
      </trkpt>
      <trkpt lat="45.24993" lon="5.26765">
        <ele>627.2</ele>
        <time>2021-05-03T09:46:16Z</time>
      </trkpt>
      <trkpt lat="45.24994" lon="5.26756">
        <ele>627.1</ele>
        <time>2021-05-03T09:46:17Z</time>
      </trkpt>
      <trkpt lat="45.24994" lon="5.26747">
        <ele>627.1</ele>
        <time>2021-05-03T09:46:18Z</time>
      </trkpt>
      <trkpt lat="45.24995" lon="5.26738">
        <ele>627</ele>
        <time>2021-05-03T09:46:19Z</time>
      </trkpt>
      <trkpt lat="45.24995" lon="5.26728">
        <ele>626.9</ele>
        <time>2021-05-03T09:46:20Z</time>
      </trkpt>
      <trkpt lat="45.24996" lon="5.2672">
        <ele>626.8</ele>
        <time>2021-05-03T09:46:21Z</time>
      </trkpt>
      <trkpt lat="45.24997" lon="5.2671">
        <ele>626.8</ele>
        <time>2021-05-03T09:46:22Z</time>
      </trkpt>
      <trkpt lat="45.24997" lon="5.26701">
        <ele>626.7</ele>
        <time>2021-05-03T09:46:23Z</time>
      </trkpt>
      <trkpt lat="45.24998" lon="5.26691">
        <ele>626.6</ele>
        <time>2021-05-03T09:46:24Z</time>
      </trkpt>
      <trkpt lat="45.24998" lon="5.26682">
        <ele>626.5</ele>
        <time>2021-05-03T09:46:25Z</time>
      </trkpt>
      <trkpt lat="45.24999" lon="5.26672">
        <ele>626.5</ele>
        <time>2021-05-03T09:46:26Z</time>
      </trkpt>
      <trkpt lat="45.24999" lon="5.26663">
        <ele>626.4</ele>
        <time>2021-05-03T09:46:27Z</time>
      </trkpt>
      <trkpt lat="45.25" lon="5.26654">
        <ele>626.3</ele>
        <time>2021-05-03T09:46:28Z</time>
      </trkpt>
      <trkpt lat="45.25" lon="5.26644">
        <ele>626.2</ele>
        <time>2021-05-03T09:46:29Z</time>
      </trkpt>
      <trkpt lat="45.25001" lon="5.26635">
        <ele>626.1</ele>
        <time>2021-05-03T09:46:30Z</time>
      </trkpt>
      <trkpt lat="45.25002" lon="5.26626">
        <ele>626</ele>
        <time>2021-05-03T09:46:31Z</time>
      </trkpt>
      <trkpt lat="45.25003" lon="5.26617">
        <ele>625.8</ele>
        <time>2021-05-03T09:46:32Z</time>
      </trkpt>
      <trkpt lat="45.25004" lon="5.26608">
        <ele>625.7</ele>
        <time>2021-05-03T09:46:33Z</time>
      </trkpt>
      <trkpt lat="45.25005" lon="5.26598">
        <ele>625.5</ele>
        <time>2021-05-03T09:46:34Z</time>
      </trkpt>
      <trkpt lat="45.25006" lon="5.26589">
        <ele>625.3</ele>
        <time>2021-05-03T09:46:35Z</time>
      </trkpt>
      <trkpt lat="45.25006" lon="5.2658">
        <ele>625</ele>
        <time>2021-05-03T09:46:36Z</time>
      </trkpt>
      <trkpt lat="45.25007" lon="5.2657">
        <ele>624.7</ele>
        <time>2021-05-03T09:46:37Z</time>
      </trkpt>
      <trkpt lat="45.25008" lon="5.2656">
        <ele>624.4</ele>
        <time>2021-05-03T09:46:38Z</time>
      </trkpt>
      <trkpt lat="45.25008" lon="5.26551">
        <ele>624.2</ele>
        <time>2021-05-03T09:46:39Z</time>
      </trkpt>
      <trkpt lat="45.25009" lon="5.26541">
        <ele>623.9</ele>
        <time>2021-05-03T09:46:40Z</time>
      </trkpt>
      <trkpt lat="45.2501" lon="5.26531">
        <ele>623.6</ele>
        <time>2021-05-03T09:46:41Z</time>
      </trkpt>
      <trkpt lat="45.2501" lon="5.2652">
        <ele>623.3</ele>
        <time>2021-05-03T09:46:42Z</time>
      </trkpt>
      <trkpt lat="45.2501" lon="5.2651">
        <ele>622.9</ele>
        <time>2021-05-03T09:46:43Z</time>
      </trkpt>
      <trkpt lat="45.2501" lon="5.26499">
        <ele>622.7</ele>
        <time>2021-05-03T09:46:44Z</time>
      </trkpt>
      <trkpt lat="45.2501" lon="5.26488">
        <ele>622.4</ele>
        <time>2021-05-03T09:46:45Z</time>
      </trkpt>
      <trkpt lat="45.2501" lon="5.26476">
        <ele>622.2</ele>
        <time>2021-05-03T09:46:46Z</time>
      </trkpt>
      <trkpt lat="45.2501" lon="5.26465">
        <ele>622.1</ele>
        <time>2021-05-03T09:46:47Z</time>
      </trkpt>
      <trkpt lat="45.2501" lon="5.26454">
        <ele>622</ele>
        <time>2021-05-03T09:46:48Z</time>
      </trkpt>
      <trkpt lat="45.2501" lon="5.26444">
        <ele>621.9</ele>
        <time>2021-05-03T09:46:49Z</time>
      </trkpt>
      <trkpt lat="45.2501" lon="5.26433">
        <ele>621.8</ele>
        <time>2021-05-03T09:46:50Z</time>
      </trkpt>
      <trkpt lat="45.2501" lon="5.26423">
        <ele>621.8</ele>
        <time>2021-05-03T09:46:51Z</time>
      </trkpt>
      <trkpt lat="45.2501" lon="5.26412">
        <ele>621.7</ele>
        <time>2021-05-03T09:46:52Z</time>
      </trkpt>
      <trkpt lat="45.2501" lon="5.26402">
        <ele>621.6</ele>
        <time>2021-05-03T09:46:53Z</time>
      </trkpt>
      <trkpt lat="45.25011" lon="5.26392">
        <ele>621.6</ele>
        <time>2021-05-03T09:46:54Z</time>
      </trkpt>
      <trkpt lat="45.25011" lon="5.26383">
        <ele>621.6</ele>
        <time>2021-05-03T09:46:55Z</time>
      </trkpt>
      <trkpt lat="45.25011" lon="5.26373">
        <ele>621.5</ele>
        <time>2021-05-03T09:46:56Z</time>
      </trkpt>
      <trkpt lat="45.25011" lon="5.26364">
        <ele>621.5</ele>
        <time>2021-05-03T09:46:57Z</time>
      </trkpt>
      <trkpt lat="45.25011" lon="5.26355">
        <ele>621.5</ele>
        <time>2021-05-03T09:46:58Z</time>
      </trkpt>
      <trkpt lat="45.25011" lon="5.26345">
        <ele>621.5</ele>
        <time>2021-05-03T09:46:59Z</time>
      </trkpt>
      <trkpt lat="45.25011" lon="5.26336">
        <ele>621.4</ele>
        <time>2021-05-03T09:47:00Z</time>
      </trkpt>
      <trkpt lat="45.25012" lon="5.26326">
        <ele>621.5</ele>
        <time>2021-05-03T09:47:01Z</time>
      </trkpt>
      <trkpt lat="45.25012" lon="5.26317">
        <ele>621.5</ele>
        <time>2021-05-03T09:47:02Z</time>
      </trkpt>
      <trkpt lat="45.25012" lon="5.26308">
        <ele>621.5</ele>
        <time>2021-05-03T09:47:03Z</time>
      </trkpt>
      <trkpt lat="45.25012" lon="5.26298">
        <ele>621.5</ele>
        <time>2021-05-03T09:47:04Z</time>
      </trkpt>
      <trkpt lat="45.25012" lon="5.26289">
        <ele>621.6</ele>
        <time>2021-05-03T09:47:05Z</time>
      </trkpt>
      <trkpt lat="45.25013" lon="5.2628">
        <ele>621.6</ele>
        <time>2021-05-03T09:47:06Z</time>
      </trkpt>
      <trkpt lat="45.25013" lon="5.26271">
        <ele>621.6</ele>
        <time>2021-05-03T09:47:07Z</time>
      </trkpt>
      <trkpt lat="45.25013" lon="5.26263">
        <ele>621.6</ele>
        <time>2021-05-03T09:47:08Z</time>
      </trkpt>
      <trkpt lat="45.25012" lon="5.26255">
        <ele>621.6</ele>
        <time>2021-05-03T09:47:09Z</time>
      </trkpt>
      <trkpt lat="45.25013" lon="5.26246">
        <ele>621.6</ele>
        <time>2021-05-03T09:47:10Z</time>
      </trkpt>
      <trkpt lat="45.25013" lon="5.26237">
        <ele>621.6</ele>
        <time>2021-05-03T09:47:11Z</time>
      </trkpt>
      <trkpt lat="45.25013" lon="5.26228">
        <ele>621.6</ele>
        <time>2021-05-03T09:47:12Z</time>
      </trkpt>
      <trkpt lat="45.25014" lon="5.2622">
        <ele>621.6</ele>
        <time>2021-05-03T09:47:13Z</time>
      </trkpt>
      <trkpt lat="45.25015" lon="5.26211">
        <ele>621.6</ele>
        <time>2021-05-03T09:47:14Z</time>
      </trkpt>
      <trkpt lat="45.25015" lon="5.26202">
        <ele>621.6</ele>
        <time>2021-05-03T09:47:15Z</time>
      </trkpt>
      <trkpt lat="45.25015" lon="5.26193">
        <ele>621.6</ele>
        <time>2021-05-03T09:47:16Z</time>
      </trkpt>
      <trkpt lat="45.25015" lon="5.26184">
        <ele>621.5</ele>
        <time>2021-05-03T09:47:17Z</time>
      </trkpt>
      <trkpt lat="45.25015" lon="5.26175">
        <ele>621.5</ele>
        <time>2021-05-03T09:47:18Z</time>
      </trkpt>
      <trkpt lat="45.25015" lon="5.26166">
        <ele>621.5</ele>
        <time>2021-05-03T09:47:19Z</time>
      </trkpt>
      <trkpt lat="45.25014" lon="5.26157">
        <ele>621.5</ele>
        <time>2021-05-03T09:47:20Z</time>
      </trkpt>
      <trkpt lat="45.25014" lon="5.26148">
        <ele>621.5</ele>
        <time>2021-05-03T09:47:21Z</time>
      </trkpt>
      <trkpt lat="45.25014" lon="5.26139">
        <ele>621.5</ele>
        <time>2021-05-03T09:47:22Z</time>
      </trkpt>
      <trkpt lat="45.25014" lon="5.26129">
        <ele>621.5</ele>
        <time>2021-05-03T09:47:23Z</time>
      </trkpt>
      <trkpt lat="45.25015" lon="5.2612">
        <ele>621.5</ele>
        <time>2021-05-03T09:47:24Z</time>
      </trkpt>
      <trkpt lat="45.25015" lon="5.2611">
        <ele>621.5</ele>
        <time>2021-05-03T09:47:25Z</time>
      </trkpt>
      <trkpt lat="45.25015" lon="5.261">
        <ele>621.5</ele>
        <time>2021-05-03T09:47:26Z</time>
      </trkpt>
      <trkpt lat="45.25015" lon="5.26091">
        <ele>621.5</ele>
        <time>2021-05-03T09:47:27Z</time>
      </trkpt>
      <trkpt lat="45.25015" lon="5.26081">
        <ele>621.5</ele>
        <time>2021-05-03T09:47:28Z</time>
      </trkpt>
      <trkpt lat="45.25015" lon="5.26072">
        <ele>621.5</ele>
        <time>2021-05-03T09:47:29Z</time>
      </trkpt>
      <trkpt lat="45.25015" lon="5.26063">
        <ele>621.5</ele>
        <time>2021-05-03T09:47:30Z</time>
      </trkpt>
      <trkpt lat="45.25015" lon="5.26053">
        <ele>621.5</ele>
        <time>2021-05-03T09:47:31Z</time>
      </trkpt>
      <trkpt lat="45.25015" lon="5.26044">
        <ele>621.5</ele>
        <time>2021-05-03T09:47:32Z</time>
      </trkpt>
      <trkpt lat="45.25015" lon="5.26036">
        <ele>621.5</ele>
        <time>2021-05-03T09:47:33Z</time>
      </trkpt>
      <trkpt lat="45.25016" lon="5.26027">
        <ele>621.4</ele>
        <time>2021-05-03T09:47:34Z</time>
      </trkpt>
      <trkpt lat="45.25016" lon="5.26018">
        <ele>621.4</ele>
        <time>2021-05-03T09:47:35Z</time>
      </trkpt>
      <trkpt lat="45.25017" lon="5.26009">
        <ele>621.3</ele>
        <time>2021-05-03T09:47:36Z</time>
      </trkpt>
      <trkpt lat="45.25017" lon="5.25999">
        <ele>621.1</ele>
        <time>2021-05-03T09:47:37Z</time>
      </trkpt>
      <trkpt lat="45.25017" lon="5.25989">
        <ele>620.8</ele>
        <time>2021-05-03T09:47:38Z</time>
      </trkpt>
      <trkpt lat="45.25017" lon="5.25979">
        <ele>620.6</ele>
        <time>2021-05-03T09:47:39Z</time>
      </trkpt>
      <trkpt lat="45.25017" lon="5.25969">
        <ele>620.3</ele>
        <time>2021-05-03T09:47:40Z</time>
      </trkpt>
      <trkpt lat="45.25017" lon="5.25959">
        <ele>620.1</ele>
        <time>2021-05-03T09:47:41Z</time>
      </trkpt>
      <trkpt lat="45.25017" lon="5.25948">
        <ele>619.8</ele>
        <time>2021-05-03T09:47:42Z</time>
      </trkpt>
      <trkpt lat="45.25017" lon="5.25937">
        <ele>619.5</ele>
        <time>2021-05-03T09:47:43Z</time>
      </trkpt>
      <trkpt lat="45.25018" lon="5.25927">
        <ele>619.3</ele>
        <time>2021-05-03T09:47:44Z</time>
      </trkpt>
      <trkpt lat="45.25018" lon="5.25916">
        <ele>619</ele>
        <time>2021-05-03T09:47:45Z</time>
      </trkpt>
      <trkpt lat="45.25018" lon="5.25905">
        <ele>618.8</ele>
        <time>2021-05-03T09:47:46Z</time>
      </trkpt>
      <trkpt lat="45.25018" lon="5.25895">
        <ele>618.5</ele>
        <time>2021-05-03T09:47:47Z</time>
      </trkpt>
      <trkpt lat="45.25018" lon="5.25885">
        <ele>618.3</ele>
        <time>2021-05-03T09:47:48Z</time>
      </trkpt>
      <trkpt lat="45.25018" lon="5.25874">
        <ele>618</ele>
        <time>2021-05-03T09:47:49Z</time>
      </trkpt>
      <trkpt lat="45.25018" lon="5.25863">
        <ele>617.7</ele>
        <time>2021-05-03T09:47:50Z</time>
      </trkpt>
      <trkpt lat="45.25018" lon="5.25852">
        <ele>617.4</ele>
        <time>2021-05-03T09:47:51Z</time>
      </trkpt>
      <trkpt lat="45.25017" lon="5.25841">
        <ele>617.1</ele>
        <time>2021-05-03T09:47:52Z</time>
      </trkpt>
      <trkpt lat="45.25016" lon="5.2583">
        <ele>616.8</ele>
        <time>2021-05-03T09:47:53Z</time>
      </trkpt>
      <trkpt lat="45.25014" lon="5.25819">
        <ele>616.5</ele>
        <time>2021-05-03T09:47:54Z</time>
      </trkpt>
      <trkpt lat="45.25012" lon="5.25808">
        <ele>616.1</ele>
        <time>2021-05-03T09:47:55Z</time>
      </trkpt>
      <trkpt lat="45.25009" lon="5.25796">
        <ele>615.7</ele>
        <time>2021-05-03T09:47:56Z</time>
      </trkpt>
      <trkpt lat="45.25006" lon="5.25785">
        <ele>615.3</ele>
        <time>2021-05-03T09:47:57Z</time>
      </trkpt>
      <trkpt lat="45.25002" lon="5.25773">
        <ele>615</ele>
        <time>2021-05-03T09:47:58Z</time>
      </trkpt>
      <trkpt lat="45.24998" lon="5.25762">
        <ele>614.6</ele>
        <time>2021-05-03T09:47:59Z</time>
      </trkpt>
      <trkpt lat="45.24994" lon="5.25752">
        <ele>614.4</ele>
        <time>2021-05-03T09:48:00Z</time>
      </trkpt>
      <trkpt lat="45.24989" lon="5.25741">
        <ele>614.1</ele>
        <time>2021-05-03T09:48:01Z</time>
      </trkpt>
      <trkpt lat="45.24984" lon="5.25731">
        <ele>613.6</ele>
        <time>2021-05-03T09:48:02Z</time>
      </trkpt>
      <trkpt lat="45.24978" lon="5.25722">
        <ele>613.2</ele>
        <time>2021-05-03T09:48:03Z</time>
      </trkpt>
      <trkpt lat="45.24972" lon="5.25712">
        <ele>612.7</ele>
        <time>2021-05-03T09:48:04Z</time>
      </trkpt>
      <trkpt lat="45.24966" lon="5.25702">
        <ele>612.1</ele>
        <time>2021-05-03T09:48:05Z</time>
      </trkpt>
      <trkpt lat="45.2496" lon="5.25693">
        <ele>611.5</ele>
        <time>2021-05-03T09:48:06Z</time>
      </trkpt>
      <trkpt lat="45.24955" lon="5.25682">
        <ele>610.9</ele>
        <time>2021-05-03T09:48:07Z</time>
      </trkpt>
      <trkpt lat="45.24951" lon="5.25669">
        <ele>610.1</ele>
        <time>2021-05-03T09:48:08Z</time>
      </trkpt>
      <trkpt lat="45.24948" lon="5.25657">
        <ele>609.4</ele>
        <time>2021-05-03T09:48:09Z</time>
      </trkpt>
      <trkpt lat="45.24945" lon="5.25644">
        <ele>608.6</ele>
        <time>2021-05-03T09:48:10Z</time>
      </trkpt>
      <trkpt lat="45.24943" lon="5.25629">
        <ele>607.7</ele>
        <time>2021-05-03T09:48:11Z</time>
      </trkpt>
      <trkpt lat="45.24942" lon="5.25613">
        <ele>606.7</ele>
        <time>2021-05-03T09:48:12Z</time>
      </trkpt>
      <trkpt lat="45.24942" lon="5.25596">
        <ele>605.6</ele>
        <time>2021-05-03T09:48:13Z</time>
      </trkpt>
      <trkpt lat="45.24942" lon="5.25578">
        <ele>604.4</ele>
        <time>2021-05-03T09:48:14Z</time>
      </trkpt>
      <trkpt lat="45.24943" lon="5.2556">
        <ele>603.3</ele>
        <time>2021-05-03T09:48:15Z</time>
      </trkpt>
      <trkpt lat="45.24947" lon="5.25544">
        <ele>602.1</ele>
        <time>2021-05-03T09:48:16Z</time>
      </trkpt>
      <trkpt lat="45.24953" lon="5.25528">
        <ele>600.9</ele>
        <time>2021-05-03T09:48:17Z</time>
      </trkpt>
      <trkpt lat="45.24959" lon="5.25512">
        <ele>599.8</ele>
        <time>2021-05-03T09:48:18Z</time>
      </trkpt>
      <trkpt lat="45.24962" lon="5.25496">
        <ele>598.7</ele>
        <time>2021-05-03T09:48:19Z</time>
      </trkpt>
      <trkpt lat="45.24965" lon="5.2548">
        <ele>597.7</ele>
        <time>2021-05-03T09:48:20Z</time>
      </trkpt>
      <trkpt lat="45.24968" lon="5.25464">
        <ele>596.8</ele>
        <time>2021-05-03T09:48:21Z</time>
      </trkpt>
      <trkpt lat="45.2497" lon="5.25448">
        <ele>595.9</ele>
        <time>2021-05-03T09:48:22Z</time>
      </trkpt>
      <trkpt lat="45.24973" lon="5.25433">
        <ele>594.9</ele>
        <time>2021-05-03T09:48:23Z</time>
      </trkpt>
      <trkpt lat="45.24975" lon="5.25417">
        <ele>594</ele>
        <time>2021-05-03T09:48:24Z</time>
      </trkpt>
      <trkpt lat="45.24975" lon="5.254">
        <ele>593.1</ele>
        <time>2021-05-03T09:48:25Z</time>
      </trkpt>
      <trkpt lat="45.24974" lon="5.25383">
        <ele>592.1</ele>
        <time>2021-05-03T09:48:26Z</time>
      </trkpt>
      <trkpt lat="45.24972" lon="5.25367">
        <ele>591.1</ele>
        <time>2021-05-03T09:48:27Z</time>
      </trkpt>
      <trkpt lat="45.24968" lon="5.25351">
        <ele>590</ele>
        <time>2021-05-03T09:48:28Z</time>
      </trkpt>
      <trkpt lat="45.24963" lon="5.25336">
        <ele>589.1</ele>
        <time>2021-05-03T09:48:29Z</time>
      </trkpt>
      <trkpt lat="45.24957" lon="5.25321">
        <ele>588.1</ele>
        <time>2021-05-03T09:48:30Z</time>
      </trkpt>
      <trkpt lat="45.24953" lon="5.25304">
        <ele>586.9</ele>
        <time>2021-05-03T09:48:31Z</time>
      </trkpt>
      <trkpt lat="45.24951" lon="5.25287">
        <ele>585.9</ele>
        <time>2021-05-03T09:48:32Z</time>
      </trkpt>
      <trkpt lat="45.24952" lon="5.2527">
        <ele>585</ele>
        <time>2021-05-03T09:48:33Z</time>
      </trkpt>
      <trkpt lat="45.24955" lon="5.25254">
        <ele>584</ele>
        <time>2021-05-03T09:48:34Z</time>
      </trkpt>
      <trkpt lat="45.24957" lon="5.25238">
        <ele>583.1</ele>
        <time>2021-05-03T09:48:35Z</time>
      </trkpt>
      <trkpt lat="45.2496" lon="5.25222">
        <ele>582.2</ele>
        <time>2021-05-03T09:48:36Z</time>
      </trkpt>
      <trkpt lat="45.24964" lon="5.25206">
        <ele>581.3</ele>
        <time>2021-05-03T09:48:37Z</time>
      </trkpt>
      <trkpt lat="45.24969" lon="5.25192">
        <ele>580.4</ele>
        <time>2021-05-03T09:48:38Z</time>
      </trkpt>
      <trkpt lat="45.24975" lon="5.25177">
        <ele>579.4</ele>
        <time>2021-05-03T09:48:39Z</time>
      </trkpt>
      <trkpt lat="45.24981" lon="5.25162">
        <ele>578.3</ele>
        <time>2021-05-03T09:48:40Z</time>
      </trkpt>
      <trkpt lat="45.24989" lon="5.25148">
        <ele>577.3</ele>
        <time>2021-05-03T09:48:41Z</time>
      </trkpt>
      <trkpt lat="45.24998" lon="5.25136">
        <ele>576.3</ele>
        <time>2021-05-03T09:48:42Z</time>
      </trkpt>
      <trkpt lat="45.25009" lon="5.25127">
        <ele>575.3</ele>
        <time>2021-05-03T09:48:43Z</time>
      </trkpt>
      <trkpt lat="45.2502" lon="5.25119">
        <ele>574.3</ele>
        <time>2021-05-03T09:48:44Z</time>
      </trkpt>
      <trkpt lat="45.2503" lon="5.2511">
        <ele>573.4</ele>
        <time>2021-05-03T09:48:45Z</time>
      </trkpt>
      <trkpt lat="45.25041" lon="5.25103">
        <ele>572.5</ele>
        <time>2021-05-03T09:48:46Z</time>
      </trkpt>
      <trkpt lat="45.25051" lon="5.25096">
        <ele>571.6</ele>
        <time>2021-05-03T09:48:47Z</time>
      </trkpt>
      <trkpt lat="45.2506" lon="5.25088">
        <ele>570.6</ele>
        <time>2021-05-03T09:48:48Z</time>
      </trkpt>
      <trkpt lat="45.2507" lon="5.25079">
        <ele>569.7</ele>
        <time>2021-05-03T09:48:49Z</time>
      </trkpt>
      <trkpt lat="45.25079" lon="5.25071">
        <ele>568.8</ele>
        <time>2021-05-03T09:48:50Z</time>
      </trkpt>
      <trkpt lat="45.25087" lon="5.25062">
        <ele>567.9</ele>
        <time>2021-05-03T09:48:51Z</time>
      </trkpt>
      <trkpt lat="45.25096" lon="5.25054">
        <ele>567</ele>
        <time>2021-05-03T09:48:52Z</time>
      </trkpt>
      <trkpt lat="45.25105" lon="5.25046">
        <ele>566.2</ele>
        <time>2021-05-03T09:48:53Z</time>
      </trkpt>
      <trkpt lat="45.25114" lon="5.25038">
        <ele>565.4</ele>
        <time>2021-05-03T09:48:54Z</time>
      </trkpt>
      <trkpt lat="45.25123" lon="5.25031">
        <ele>564.7</ele>
        <time>2021-05-03T09:48:55Z</time>
      </trkpt>
      <trkpt lat="45.25132" lon="5.25024">
        <ele>564</ele>
        <time>2021-05-03T09:48:56Z</time>
      </trkpt>
      <trkpt lat="45.25141" lon="5.25016">
        <ele>563.2</ele>
        <time>2021-05-03T09:48:57Z</time>
      </trkpt>
      <trkpt lat="45.2515" lon="5.25009">
        <ele>562.5</ele>
        <time>2021-05-03T09:48:58Z</time>
      </trkpt>
      <trkpt lat="45.25159" lon="5.25001">
        <ele>561.7</ele>
        <time>2021-05-03T09:48:59Z</time>
      </trkpt>
      <trkpt lat="45.25168" lon="5.24994">
        <ele>560.9</ele>
        <time>2021-05-03T09:49:00Z</time>
      </trkpt>
      <trkpt lat="45.25177" lon="5.24987">
        <ele>560.2</ele>
        <time>2021-05-03T09:49:01Z</time>
      </trkpt>
      <trkpt lat="45.25187" lon="5.24981">
        <ele>559.6</ele>
        <time>2021-05-03T09:49:02Z</time>
      </trkpt>
      <trkpt lat="45.25197" lon="5.24974">
        <ele>558.9</ele>
        <time>2021-05-03T09:49:03Z</time>
      </trkpt>
      <trkpt lat="45.25206" lon="5.24966">
        <ele>558.2</ele>
        <time>2021-05-03T09:49:04Z</time>
      </trkpt>
      <trkpt lat="45.25216" lon="5.24957">
        <ele>557.5</ele>
        <time>2021-05-03T09:49:05Z</time>
      </trkpt>
      <trkpt lat="45.25226" lon="5.24949">
        <ele>556.7</ele>
        <time>2021-05-03T09:49:06Z</time>
      </trkpt>
      <trkpt lat="45.25237" lon="5.24944">
        <ele>555.9</ele>
        <time>2021-05-03T09:49:07Z</time>
      </trkpt>
      <trkpt lat="45.25248" lon="5.24941">
        <ele>555</ele>
        <time>2021-05-03T09:49:08Z</time>
      </trkpt>
      <trkpt lat="45.2526" lon="5.24941">
        <ele>554.2</ele>
        <time>2021-05-03T09:49:09Z</time>
      </trkpt>
      <trkpt lat="45.25272" lon="5.24941">
        <ele>553.3</ele>
        <time>2021-05-03T09:49:10Z</time>
      </trkpt>
      <trkpt lat="45.25283" lon="5.24938">
        <ele>552.9</ele>
        <time>2021-05-03T09:49:11Z</time>
      </trkpt>
      <trkpt lat="45.25292" lon="5.2493">
        <ele>552.1</ele>
        <time>2021-05-03T09:49:12Z</time>
      </trkpt>
      <trkpt lat="45.253" lon="5.24917">
        <ele>551.3</ele>
        <time>2021-05-03T09:49:13Z</time>
      </trkpt>
      <trkpt lat="45.25308" lon="5.24905">
        <ele>550.4</ele>
        <time>2021-05-03T09:49:14Z</time>
      </trkpt>
      <trkpt lat="45.25318" lon="5.24895">
        <ele>549.5</ele>
        <time>2021-05-03T09:49:15Z</time>
      </trkpt>
      <trkpt lat="45.25328" lon="5.24887">
        <ele>548.6</ele>
        <time>2021-05-03T09:49:16Z</time>
      </trkpt>
      <trkpt lat="45.25338" lon="5.24877">
        <ele>547.7</ele>
        <time>2021-05-03T09:49:17Z</time>
      </trkpt>
      <trkpt lat="45.25347" lon="5.24867">
        <ele>546.8</ele>
        <time>2021-05-03T09:49:18Z</time>
      </trkpt>
      <trkpt lat="45.25357" lon="5.24858">
        <ele>545.8</ele>
        <time>2021-05-03T09:49:19Z</time>
      </trkpt>
      <trkpt lat="45.25368" lon="5.24849">
        <ele>544.9</ele>
        <time>2021-05-03T09:49:20Z</time>
      </trkpt>
      <trkpt lat="45.25378" lon="5.24842">
        <ele>544</ele>
        <time>2021-05-03T09:49:21Z</time>
      </trkpt>
      <trkpt lat="45.25389" lon="5.24836">
        <ele>543.2</ele>
        <time>2021-05-03T09:49:22Z</time>
      </trkpt>
      <trkpt lat="45.254" lon="5.24831">
        <ele>542.3</ele>
        <time>2021-05-03T09:49:23Z</time>
      </trkpt>
      <trkpt lat="45.2541" lon="5.24825">
        <ele>541.6</ele>
        <time>2021-05-03T09:49:24Z</time>
      </trkpt>
      <trkpt lat="45.2542" lon="5.24818">
        <ele>540.7</ele>
        <time>2021-05-03T09:49:25Z</time>
      </trkpt>
      <trkpt lat="45.2543" lon="5.2481">
        <ele>539.9</ele>
        <time>2021-05-03T09:49:26Z</time>
      </trkpt>
      <trkpt lat="45.25438" lon="5.24801">
        <ele>539.1</ele>
        <time>2021-05-03T09:49:27Z</time>
      </trkpt>
      <trkpt lat="45.25446" lon="5.24791">
        <ele>538.2</ele>
        <time>2021-05-03T09:49:28Z</time>
      </trkpt>
      <trkpt lat="45.25453" lon="5.24781">
        <ele>537.5</ele>
        <time>2021-05-03T09:49:29Z</time>
      </trkpt>
      <trkpt lat="45.25461" lon="5.2477">
        <ele>536.8</ele>
        <time>2021-05-03T09:49:30Z</time>
      </trkpt>
      <trkpt lat="45.25467" lon="5.24759">
        <ele>536</ele>
        <time>2021-05-03T09:49:31Z</time>
      </trkpt>
      <trkpt lat="45.25474" lon="5.24748">
        <ele>535.2</ele>
        <time>2021-05-03T09:49:32Z</time>
      </trkpt>
      <trkpt lat="45.25482" lon="5.24738">
        <ele>534.4</ele>
        <time>2021-05-03T09:49:33Z</time>
      </trkpt>
      <trkpt lat="45.25489" lon="5.24728">
        <ele>533.6</ele>
        <time>2021-05-03T09:49:34Z</time>
      </trkpt>
      <trkpt lat="45.25496" lon="5.24719">
        <ele>532.9</ele>
        <time>2021-05-03T09:49:35Z</time>
      </trkpt>
      <trkpt lat="45.25503" lon="5.2471">
        <ele>532.2</ele>
        <time>2021-05-03T09:49:36Z</time>
      </trkpt>
      <trkpt lat="45.25511" lon="5.247">
        <ele>531.4</ele>
        <time>2021-05-03T09:49:37Z</time>
      </trkpt>
      <trkpt lat="45.25519" lon="5.24691">
        <ele>530.7</ele>
        <time>2021-05-03T09:49:38Z</time>
      </trkpt>
      <trkpt lat="45.25526" lon="5.24682">
        <ele>530</ele>
        <time>2021-05-03T09:49:39Z</time>
      </trkpt>
      <trkpt lat="45.25534" lon="5.24674">
        <ele>529.3</ele>
        <time>2021-05-03T09:49:40Z</time>
      </trkpt>
      <trkpt lat="45.25542" lon="5.24665">
        <ele>528.6</ele>
        <time>2021-05-03T09:49:41Z</time>
      </trkpt>
      <trkpt lat="45.25549" lon="5.24655">
        <ele>527.8</ele>
        <time>2021-05-03T09:49:42Z</time>
      </trkpt>
      <trkpt lat="45.25555" lon="5.24644">
        <ele>527.2</ele>
        <time>2021-05-03T09:49:43Z</time>
      </trkpt>
      <trkpt lat="45.25561" lon="5.24633">
        <ele>526.5</ele>
        <time>2021-05-03T09:49:44Z</time>
      </trkpt>
      <trkpt lat="45.25567" lon="5.24622">
        <ele>525.8</ele>
        <time>2021-05-03T09:49:45Z</time>
      </trkpt>
      <trkpt lat="45.25574" lon="5.24611">
        <ele>525.1</ele>
        <time>2021-05-03T09:49:46Z</time>
      </trkpt>
      <trkpt lat="45.25581" lon="5.24601">
        <ele>524.3</ele>
        <time>2021-05-03T09:49:47Z</time>
      </trkpt>
      <trkpt lat="45.25588" lon="5.24591">
        <ele>523.5</ele>
        <time>2021-05-03T09:49:48Z</time>
      </trkpt>
      <trkpt lat="45.25594" lon="5.24583">
        <ele>522.9</ele>
        <time>2021-05-03T09:49:49Z</time>
      </trkpt>
      <trkpt lat="45.25601" lon="5.24575">
        <ele>522.2</ele>
        <time>2021-05-03T09:49:50Z</time>
      </trkpt>
      <trkpt lat="45.25609" lon="5.24566">
        <ele>521.5</ele>
        <time>2021-05-03T09:49:51Z</time>
      </trkpt>
      <trkpt lat="45.25616" lon="5.24558">
        <ele>520.9</ele>
        <time>2021-05-03T09:49:52Z</time>
      </trkpt>
      <trkpt lat="45.25623" lon="5.24549">
        <ele>520.3</ele>
        <time>2021-05-03T09:49:53Z</time>
      </trkpt>
      <trkpt lat="45.25631" lon="5.2454">
        <ele>519.7</ele>
        <time>2021-05-03T09:49:54Z</time>
      </trkpt>
      <trkpt lat="45.25638" lon="5.24532">
        <ele>519.2</ele>
        <time>2021-05-03T09:49:55Z</time>
      </trkpt>
      <trkpt lat="45.25645" lon="5.24523">
        <ele>518.7</ele>
        <time>2021-05-03T09:49:56Z</time>
      </trkpt>
      <trkpt lat="45.25652" lon="5.24515">
        <ele>518.2</ele>
        <time>2021-05-03T09:49:57Z</time>
      </trkpt>
      <trkpt lat="45.25659" lon="5.24505">
        <ele>517.6</ele>
        <time>2021-05-03T09:49:58Z</time>
      </trkpt>
      <trkpt lat="45.25665" lon="5.24494">
        <ele>517.2</ele>
        <time>2021-05-03T09:49:59Z</time>
      </trkpt>
      <trkpt lat="45.25671" lon="5.24485">
        <ele>516.8</ele>
        <time>2021-05-03T09:50:00Z</time>
      </trkpt>
      <trkpt lat="45.25677" lon="5.24477">
        <ele>516.4</ele>
        <time>2021-05-03T09:50:01Z</time>
      </trkpt>
      <trkpt lat="45.25682" lon="5.24469">
        <ele>516.1</ele>
        <time>2021-05-03T09:50:02Z</time>
      </trkpt>
      <trkpt lat="45.25686" lon="5.24462">
        <ele>515.8</ele>
        <time>2021-05-03T09:50:03Z</time>
      </trkpt>
      <trkpt lat="45.25689" lon="5.24456">
        <ele>515.6</ele>
        <time>2021-05-03T09:50:04Z</time>
      </trkpt>
      <trkpt lat="45.25692" lon="5.2445">
        <ele>515.4</ele>
        <time>2021-05-03T09:50:05Z</time>
      </trkpt>
      <trkpt lat="45.25696" lon="5.24446">
        <ele>515.2</ele>
        <time>2021-05-03T09:50:06Z</time>
      </trkpt>
      <trkpt lat="45.25699" lon="5.24441">
        <ele>515.2</ele>
        <time>2021-05-03T09:50:07Z</time>
      </trkpt>
      <trkpt lat="45.25702" lon="5.24439">
        <ele>515.2</ele>
        <time>2021-05-03T09:50:08Z</time>
      </trkpt>
      <trkpt lat="45.25705" lon="5.24436">
        <ele>515.1</ele>
        <time>2021-05-03T09:50:09Z</time>
      </trkpt>
      <trkpt lat="45.2571" lon="5.24431">
        <ele>515</ele>
        <time>2021-05-03T09:50:10Z</time>
      </trkpt>
      <trkpt lat="45.25713" lon="5.24426">
        <ele>515</ele>
        <time>2021-05-03T09:50:11Z</time>
      </trkpt>
      <trkpt lat="45.25716" lon="5.24423">
        <ele>515</ele>
        <time>2021-05-03T09:50:12Z</time>
      </trkpt>
      <trkpt lat="45.25719" lon="5.24421">
        <ele>514.9</ele>
        <time>2021-05-03T09:50:13Z</time>
      </trkpt>
      <trkpt lat="45.25721" lon="5.24419">
        <ele>514.9</ele>
        <time>2021-05-03T09:50:14Z</time>
      </trkpt>
      <trkpt lat="45.25723" lon="5.24417">
        <ele>514.9</ele>
        <time>2021-05-03T09:50:15Z</time>
      </trkpt>
      <trkpt lat="45.25725" lon="5.24418">
        <ele>514.9</ele>
        <time>2021-05-03T09:50:16Z</time>
      </trkpt>
      <trkpt lat="45.25725" lon="5.24418">
        <ele>514.8</ele>
        <time>2021-05-03T09:50:17Z</time>
      </trkpt>
      <trkpt lat="45.25726" lon="5.24418">
        <ele>514.8</ele>
        <time>2021-05-03T09:50:18Z</time>
      </trkpt>
      <trkpt lat="45.25726" lon="5.24419">
        <ele>514.8</ele>
        <time>2021-05-03T09:50:19Z</time>
      </trkpt>
      <trkpt lat="45.25726" lon="5.2442">
        <ele>514.8</ele>
        <time>2021-05-03T09:50:20Z</time>
      </trkpt>
      <trkpt lat="45.25726" lon="5.2442">
        <ele>514.8</ele>
        <time>2021-05-03T09:50:21Z</time>
      </trkpt>
      <trkpt lat="45.25726" lon="5.2442">
        <ele>514.8</ele>
        <time>2021-05-03T09:50:22Z</time>
      </trkpt>
      <trkpt lat="45.25726" lon="5.2442">
        <ele>514.8</ele>
        <time>2021-05-03T09:50:23Z</time>
      </trkpt>
      <trkpt lat="45.25726" lon="5.2442">
        <ele>514.8</ele>
        <time>2021-05-03T09:50:24Z</time>
      </trkpt>
      <trkpt lat="45.25726" lon="5.24419">
        <ele>514.8</ele>
        <time>2021-05-03T09:50:25Z</time>
      </trkpt>
      <trkpt lat="45.25727" lon="5.24419">
        <ele>514.8</ele>
        <time>2021-05-03T09:50:26Z</time>
      </trkpt>
      <trkpt lat="45.25727" lon="5.24419">
        <ele>514.8</ele>
        <time>2021-05-03T09:50:27Z</time>
      </trkpt>
      <trkpt lat="45.25727" lon="5.24418">
        <ele>514.8</ele>
        <time>2021-05-03T09:50:28Z</time>
      </trkpt>
      <trkpt lat="45.25727" lon="5.24418">
        <ele>514.8</ele>
        <time>2021-05-03T09:50:29Z</time>
      </trkpt>
      <trkpt lat="45.25727" lon="5.24418">
        <ele>514.8</ele>
        <time>2021-05-03T09:50:30Z</time>
      </trkpt>
      <trkpt lat="45.25727" lon="5.24418">
        <ele>514.8</ele>
        <time>2021-05-03T09:50:31Z</time>
      </trkpt>
      <trkpt lat="45.25727" lon="5.24418">
        <ele>514.8</ele>
        <time>2021-05-03T09:50:32Z</time>
      </trkpt>
      <trkpt lat="45.25727" lon="5.24418">
        <ele>514.8</ele>
        <time>2021-05-03T09:50:33Z</time>
      </trkpt>
      <trkpt lat="45.25727" lon="5.24418">
        <ele>514.8</ele>
        <time>2021-05-03T09:50:34Z</time>
      </trkpt>
      <trkpt lat="45.25727" lon="5.24418">
        <ele>514.8</ele>
        <time>2021-05-03T09:50:35Z</time>
      </trkpt>
      <trkpt lat="45.25727" lon="5.24415">
        <ele>514.8</ele>
        <time>2021-05-03T09:51:43Z</time>
      </trkpt>
      <trkpt lat="45.25728" lon="5.24414">
        <ele>514.8</ele>
        <time>2021-05-03T09:51:44Z</time>
      </trkpt>
      <trkpt lat="45.25728" lon="5.24414">
        <ele>514.7</ele>
        <time>2021-05-03T09:51:45Z</time>
      </trkpt>
      <trkpt lat="45.25728" lon="5.24411">
        <ele>514.7</ele>
        <time>2021-05-03T09:51:46Z</time>
      </trkpt>
      <trkpt lat="45.25728" lon="5.24407">
        <ele>514.5</ele>
        <time>2021-05-03T09:51:47Z</time>
      </trkpt>
      <trkpt lat="45.25726" lon="5.24403">
        <ele>514.4</ele>
        <time>2021-05-03T09:51:48Z</time>
      </trkpt>
      <trkpt lat="45.25725" lon="5.24399">
        <ele>514.3</ele>
        <time>2021-05-03T09:51:49Z</time>
      </trkpt>
      <trkpt lat="45.25725" lon="5.24395">
        <ele>514.2</ele>
        <time>2021-05-03T09:51:50Z</time>
      </trkpt>
      <trkpt lat="45.25725" lon="5.24391">
        <ele>514</ele>
        <time>2021-05-03T09:51:51Z</time>
      </trkpt>
      <trkpt lat="45.25727" lon="5.24386">
        <ele>513.8</ele>
        <time>2021-05-03T09:51:52Z</time>
      </trkpt>
      <trkpt lat="45.2573" lon="5.24379">
        <ele>513.6</ele>
        <time>2021-05-03T09:51:53Z</time>
      </trkpt>
      <trkpt lat="45.25734" lon="5.24371">
        <ele>513.3</ele>
        <time>2021-05-03T09:51:54Z</time>
      </trkpt>
      <trkpt lat="45.25737" lon="5.24366">
        <ele>513.1</ele>
        <time>2021-05-03T09:51:56Z</time>
      </trkpt>
      <trkpt lat="45.2574" lon="5.24362">
        <ele>512.9</ele>
        <time>2021-05-03T09:51:57Z</time>
      </trkpt>
      <trkpt lat="45.25741" lon="5.2436">
        <ele>512.8</ele>
        <time>2021-05-03T09:51:58Z</time>
      </trkpt>
      <trkpt lat="45.25744" lon="5.24357">
        <ele>512.7</ele>
        <time>2021-05-03T09:51:59Z</time>
      </trkpt>
      <trkpt lat="45.25747" lon="5.24348">
        <ele>512.4</ele>
        <time>2021-05-03T09:52:01Z</time>
      </trkpt>
      <trkpt lat="45.25751" lon="5.24342">
        <ele>512.1</ele>
        <time>2021-05-03T09:52:02Z</time>
      </trkpt>
      <trkpt lat="45.25755" lon="5.24332">
        <ele>511.8</ele>
        <time>2021-05-03T09:52:04Z</time>
      </trkpt>
      <trkpt lat="45.25758" lon="5.24327">
        <ele>511.6</ele>
        <time>2021-05-03T09:52:05Z</time>
      </trkpt>
      <trkpt lat="45.2576" lon="5.24321">
        <ele>511.4</ele>
        <time>2021-05-03T09:52:06Z</time>
      </trkpt>
      <trkpt lat="45.25762" lon="5.24317">
        <ele>511.2</ele>
        <time>2021-05-03T09:52:08Z</time>
      </trkpt>
      <trkpt lat="45.25764" lon="5.24314">
        <ele>511.1</ele>
        <time>2021-05-03T09:52:09Z</time>
      </trkpt>
      <trkpt lat="45.25766" lon="5.24309">
        <ele>510.9</ele>
        <time>2021-05-03T09:52:11Z</time>
      </trkpt>
      <trkpt lat="45.25766" lon="5.24307">
        <ele>510.9</ele>
        <time>2021-05-03T09:52:12Z</time>
      </trkpt>
      <trkpt lat="45.25765" lon="5.24305">
        <ele>510.8</ele>
        <time>2021-05-03T09:52:13Z</time>
      </trkpt>
      <trkpt lat="45.25762" lon="5.24303">
        <ele>510.6</ele>
        <time>2021-05-03T09:52:15Z</time>
      </trkpt>
      <trkpt lat="45.25762" lon="5.24304">
        <ele>510.6</ele>
        <time>2021-05-03T09:52:16Z</time>
      </trkpt>
      <trkpt lat="45.25762" lon="5.24305">
        <ele>510.6</ele>
        <time>2021-05-03T09:52:17Z</time>
      </trkpt>
      <trkpt lat="45.25762" lon="5.24306">
        <ele>510.6</ele>
        <time>2021-05-03T09:52:18Z</time>
      </trkpt>
      <trkpt lat="45.25761" lon="5.24306">
        <ele>510.6</ele>
        <time>2021-05-03T09:52:19Z</time>
      </trkpt>
      <trkpt lat="45.25761" lon="5.24306">
        <ele>510.5</ele>
        <time>2021-05-03T09:52:20Z</time>
      </trkpt>
      <trkpt lat="45.25761" lon="5.24306">
        <ele>510.5</ele>
        <time>2021-05-03T09:52:21Z</time>
      </trkpt>
      <trkpt lat="45.25759" lon="5.24308">
        <ele>510.4</ele>
        <time>2021-05-03T09:52:23Z</time>
      </trkpt>
      <trkpt lat="45.25757" lon="5.2431">
        <ele>510.3</ele>
        <time>2021-05-03T09:52:24Z</time>
      </trkpt>
      <trkpt lat="45.25757" lon="5.2431">
        <ele>510.3</ele>
        <time>2021-05-03T09:52:25Z</time>
      </trkpt>
      <trkpt lat="45.25756" lon="5.24311">
        <ele>510.2</ele>
        <time>2021-05-03T09:52:26Z</time>
      </trkpt>
      <trkpt lat="45.25755" lon="5.24311">
        <ele>510.2</ele>
        <time>2021-05-03T09:52:27Z</time>
      </trkpt>
      <trkpt lat="45.25754" lon="5.24311">
        <ele>510.2</ele>
        <time>2021-05-03T09:52:28Z</time>
      </trkpt>
      <trkpt lat="45.25753" lon="5.2431">
        <ele>510.1</ele>
        <time>2021-05-03T09:52:29Z</time>
      </trkpt>
      <trkpt lat="45.25752" lon="5.24311">
        <ele>510</ele>
        <time>2021-05-03T09:52:30Z</time>
      </trkpt>
      <trkpt lat="45.2575" lon="5.24311">
        <ele>510</ele>
        <time>2021-05-03T09:52:31Z</time>
      </trkpt>
      <trkpt lat="45.2575" lon="5.24312">
        <ele>510</ele>
        <time>2021-05-03T09:52:32Z</time>
      </trkpt>
      <trkpt lat="45.25749" lon="5.24313">
        <ele>509.9</ele>
        <time>2021-05-03T09:52:33Z</time>
      </trkpt>
      <trkpt lat="45.25748" lon="5.24314">
        <ele>509.8</ele>
        <time>2021-05-03T09:52:34Z</time>
      </trkpt>
      <trkpt lat="45.25748" lon="5.24315">
        <ele>509.8</ele>
        <time>2021-05-03T09:52:35Z</time>
      </trkpt>
      <trkpt lat="45.25746" lon="5.24318">
        <ele>509.7</ele>
        <time>2021-05-03T09:52:36Z</time>
      </trkpt>
      <trkpt lat="45.25746" lon="5.24319">
        <ele>509.7</ele>
        <time>2021-05-03T09:52:37Z</time>
      </trkpt>
      <trkpt lat="45.25746" lon="5.2432">
        <ele>509.6</ele>
        <time>2021-05-03T09:52:38Z</time>
      </trkpt>
      <trkpt lat="45.25745" lon="5.24321">
        <ele>509.6</ele>
        <time>2021-05-03T09:52:39Z</time>
      </trkpt>
      <trkpt lat="45.25745" lon="5.24322">
        <ele>509.6</ele>
        <time>2021-05-03T09:52:40Z</time>
      </trkpt>
      <trkpt lat="45.25744" lon="5.24323">
        <ele>509.5</ele>
        <time>2021-05-03T09:52:41Z</time>
      </trkpt>
      <trkpt lat="45.25744" lon="5.24324">
        <ele>509.5</ele>
        <time>2021-05-03T09:52:42Z</time>
      </trkpt>
      <trkpt lat="45.25743" lon="5.24325">
        <ele>509.4</ele>
        <time>2021-05-03T09:52:43Z</time>
      </trkpt>
      <trkpt lat="45.25742" lon="5.24327">
        <ele>509.4</ele>
        <time>2021-05-03T09:52:44Z</time>
      </trkpt>
      <trkpt lat="45.25742" lon="5.24328">
        <ele>509.3</ele>
        <time>2021-05-03T09:52:45Z</time>
      </trkpt>
      <trkpt lat="45.25741" lon="5.24329">
        <ele>509.3</ele>
        <time>2021-05-03T09:52:46Z</time>
      </trkpt>
      <trkpt lat="45.25741" lon="5.24329">
        <ele>509.3</ele>
        <time>2021-05-03T09:52:47Z</time>
      </trkpt>
      <trkpt lat="45.25741" lon="5.2433">
        <ele>509.3</ele>
        <time>2021-05-03T09:52:48Z</time>
      </trkpt>
      <trkpt lat="45.25741" lon="5.2433">
        <ele>509.3</ele>
        <time>2021-05-03T09:52:49Z</time>
      </trkpt>
      <trkpt lat="45.25741" lon="5.24329">
        <ele>509.2</ele>
        <time>2021-05-03T09:52:50Z</time>
      </trkpt>
      <trkpt lat="45.25741" lon="5.24329">
        <ele>509.2</ele>
        <time>2021-05-03T09:52:51Z</time>
      </trkpt>
      <trkpt lat="45.25741" lon="5.24329">
        <ele>509.2</ele>
        <time>2021-05-03T09:52:52Z</time>
      </trkpt>
      <trkpt lat="45.25741" lon="5.24329">
        <ele>509.2</ele>
        <time>2021-05-03T09:52:53Z</time>
      </trkpt>
      <trkpt lat="45.25741" lon="5.24329">
        <ele>509.2</ele>
        <time>2021-05-03T09:52:54Z</time>
      </trkpt>
      <trkpt lat="45.25741" lon="5.24329">
        <ele>509.2</ele>
        <time>2021-05-03T09:52:55Z</time>
      </trkpt>
      <trkpt lat="45.25741" lon="5.24329">
        <ele>509.2</ele>
        <time>2021-05-03T09:52:56Z</time>
      </trkpt>
      <trkpt lat="45.25741" lon="5.24328">
        <ele>509.2</ele>
        <time>2021-05-03T09:52:57Z</time>
      </trkpt>
      <trkpt lat="45.25741" lon="5.24328">
        <ele>509.2</ele>
        <time>2021-05-03T09:52:58Z</time>
      </trkpt>
      <trkpt lat="45.25742" lon="5.24332">
        <ele>509.1</ele>
        <time>2021-05-03T09:53:48Z</time>
      </trkpt>
      <trkpt lat="45.25742" lon="5.24333">
        <ele>509</ele>
        <time>2021-05-03T09:53:49Z</time>
      </trkpt>
      <trkpt lat="45.25743" lon="5.24334">
        <ele>509</ele>
        <time>2021-05-03T09:53:50Z</time>
      </trkpt>
      <trkpt lat="45.25744" lon="5.24334">
        <ele>508.9</ele>
        <time>2021-05-03T09:53:51Z</time>
      </trkpt>
      <trkpt lat="45.25745" lon="5.24335">
        <ele>508.9</ele>
        <time>2021-05-03T09:53:52Z</time>
      </trkpt>
      <trkpt lat="45.25746" lon="5.24335">
        <ele>508.9</ele>
        <time>2021-05-03T09:53:53Z</time>
      </trkpt>
      <trkpt lat="45.25746" lon="5.24336">
        <ele>508.8</ele>
        <time>2021-05-03T09:53:54Z</time>
      </trkpt>
      <trkpt lat="45.25746" lon="5.24338">
        <ele>508.8</ele>
        <time>2021-05-03T09:53:55Z</time>
      </trkpt>
      <trkpt lat="45.25746" lon="5.2434">
        <ele>508.7</ele>
        <time>2021-05-03T09:53:56Z</time>
      </trkpt>
      <trkpt lat="45.25746" lon="5.24341">
        <ele>508.7</ele>
        <time>2021-05-03T09:53:57Z</time>
      </trkpt>
      <trkpt lat="45.25746" lon="5.24341">
        <ele>508.7</ele>
        <time>2021-05-03T09:53:58Z</time>
      </trkpt>
      <trkpt lat="45.25746" lon="5.24341">
        <ele>508.7</ele>
        <time>2021-05-03T09:53:59Z</time>
      </trkpt>
      <trkpt lat="45.25746" lon="5.24341">
        <ele>508.7</ele>
        <time>2021-05-03T09:54:00Z</time>
      </trkpt>
      <trkpt lat="45.25746" lon="5.24341">
        <ele>508.7</ele>
        <time>2021-05-03T09:54:01Z</time>
      </trkpt>
      <trkpt lat="45.25746" lon="5.24341">
        <ele>508.6</ele>
        <time>2021-05-03T09:54:02Z</time>
      </trkpt>
      <trkpt lat="45.25746" lon="5.24341">
        <ele>508.6</ele>
        <time>2021-05-03T09:54:03Z</time>
      </trkpt>
      <trkpt lat="45.25746" lon="5.24342">
        <ele>508.6</ele>
        <time>2021-05-03T09:54:04Z</time>
      </trkpt>
      <trkpt lat="45.25746" lon="5.24342">
        <ele>508.6</ele>
        <time>2021-05-03T09:54:05Z</time>
      </trkpt>
      <trkpt lat="45.25746" lon="5.24343">
        <ele>508.6</ele>
        <time>2021-05-03T09:54:06Z</time>
      </trkpt>
      <trkpt lat="45.25745" lon="5.24343">
        <ele>508.6</ele>
        <time>2021-05-03T09:54:07Z</time>
      </trkpt>
      <trkpt lat="45.25745" lon="5.24345">
        <ele>508.5</ele>
        <time>2021-05-03T09:54:08Z</time>
      </trkpt>
      <trkpt lat="45.25745" lon="5.24347">
        <ele>508.5</ele>
        <time>2021-05-03T09:54:09Z</time>
      </trkpt>
      <trkpt lat="45.25744" lon="5.24349">
        <ele>508.4</ele>
        <time>2021-05-03T09:54:10Z</time>
      </trkpt>
      <trkpt lat="45.25743" lon="5.2435">
        <ele>508.3</ele>
        <time>2021-05-03T09:54:11Z</time>
      </trkpt>
      <trkpt lat="45.25742" lon="5.24351">
        <ele>508.3</ele>
        <time>2021-05-03T09:54:12Z</time>
      </trkpt>
      <trkpt lat="45.25741" lon="5.24352">
        <ele>508.2</ele>
        <time>2021-05-03T09:54:13Z</time>
      </trkpt>
      <trkpt lat="45.2574" lon="5.24354">
        <ele>508.1</ele>
        <time>2021-05-03T09:54:14Z</time>
      </trkpt>
      <trkpt lat="45.25739" lon="5.24355">
        <ele>508.1</ele>
        <time>2021-05-03T09:54:15Z</time>
      </trkpt>
      <trkpt lat="45.25738" lon="5.24355">
        <ele>508</ele>
        <time>2021-05-03T09:54:16Z</time>
      </trkpt>
      <trkpt lat="45.25738" lon="5.24355">
        <ele>508</ele>
        <time>2021-05-03T09:54:17Z</time>
      </trkpt>
      <trkpt lat="45.25737" lon="5.24356">
        <ele>508</ele>
        <time>2021-05-03T09:54:18Z</time>
      </trkpt>
      <trkpt lat="45.25739" lon="5.24356">
        <ele>507.9</ele>
        <time>2021-05-03T09:54:19Z</time>
      </trkpt>
      <trkpt lat="45.25741" lon="5.24356">
        <ele>507.8</ele>
        <time>2021-05-03T09:54:20Z</time>
      </trkpt>
      <trkpt lat="45.25742" lon="5.24355">
        <ele>507.8</ele>
        <time>2021-05-03T09:54:21Z</time>
      </trkpt>
      <trkpt lat="45.25744" lon="5.24352">
        <ele>507.6</ele>
        <time>2021-05-03T09:54:22Z</time>
      </trkpt>
      <trkpt lat="45.25746" lon="5.24348">
        <ele>507.5</ele>
        <time>2021-05-03T09:54:23Z</time>
      </trkpt>
      <trkpt lat="45.25748" lon="5.24345">
        <ele>507.3</ele>
        <time>2021-05-03T09:54:24Z</time>
      </trkpt>
      <trkpt lat="45.25749" lon="5.2434">
        <ele>507.2</ele>
        <time>2021-05-03T09:54:25Z</time>
      </trkpt>
      <trkpt lat="45.25751" lon="5.24335">
        <ele>507</ele>
        <time>2021-05-03T09:54:26Z</time>
      </trkpt>
      <trkpt lat="45.25753" lon="5.2433">
        <ele>506.8</ele>
        <time>2021-05-03T09:54:27Z</time>
      </trkpt>
      <trkpt lat="45.25756" lon="5.24324">
        <ele>506.6</ele>
        <time>2021-05-03T09:54:28Z</time>
      </trkpt>
      <trkpt lat="45.25758" lon="5.24318">
        <ele>506.4</ele>
        <time>2021-05-03T09:54:29Z</time>
      </trkpt>
      <trkpt lat="45.25761" lon="5.2431">
        <ele>506.1</ele>
        <time>2021-05-03T09:54:30Z</time>
      </trkpt>
      <trkpt lat="45.25764" lon="5.24302">
        <ele>505.8</ele>
        <time>2021-05-03T09:54:31Z</time>
      </trkpt>
      <trkpt lat="45.25768" lon="5.24295">
        <ele>505.6</ele>
        <time>2021-05-03T09:54:32Z</time>
      </trkpt>
      <trkpt lat="45.25771" lon="5.24287">
        <ele>505.3</ele>
        <time>2021-05-03T09:54:33Z</time>
      </trkpt>
      <trkpt lat="45.25775" lon="5.2428">
        <ele>505</ele>
        <time>2021-05-03T09:54:34Z</time>
      </trkpt>
      <trkpt lat="45.25779" lon="5.24273">
        <ele>504.8</ele>
        <time>2021-05-03T09:54:35Z</time>
      </trkpt>
      <trkpt lat="45.25782" lon="5.24267">
        <ele>504.6</ele>
        <time>2021-05-03T09:54:36Z</time>
      </trkpt>
      <trkpt lat="45.25784" lon="5.24262">
        <ele>504.4</ele>
        <time>2021-05-03T09:54:37Z</time>
      </trkpt>
      <trkpt lat="45.25786" lon="5.24258">
        <ele>504.3</ele>
        <time>2021-05-03T09:54:38Z</time>
      </trkpt>
      <trkpt lat="45.25788" lon="5.24253">
        <ele>504.2</ele>
        <time>2021-05-03T09:54:39Z</time>
      </trkpt>
      <trkpt lat="45.25791" lon="5.24247">
        <ele>503.9</ele>
        <time>2021-05-03T09:54:40Z</time>
      </trkpt>
      <trkpt lat="45.25795" lon="5.24241">
        <ele>503.7</ele>
        <time>2021-05-03T09:54:41Z</time>
      </trkpt>
      <trkpt lat="45.25799" lon="5.24235">
        <ele>503.5</ele>
        <time>2021-05-03T09:54:42Z</time>
      </trkpt>
      <trkpt lat="45.25802" lon="5.2423">
        <ele>503.3</ele>
        <time>2021-05-03T09:54:43Z</time>
      </trkpt>
      <trkpt lat="45.25805" lon="5.24224">
        <ele>503.1</ele>
        <time>2021-05-03T09:54:44Z</time>
      </trkpt>
      <trkpt lat="45.25808" lon="5.24218">
        <ele>502.9</ele>
        <time>2021-05-03T09:54:45Z</time>
      </trkpt>
      <trkpt lat="45.25811" lon="5.24211">
        <ele>502.7</ele>
        <time>2021-05-03T09:54:46Z</time>
      </trkpt>
      <trkpt lat="45.25814" lon="5.24207">
        <ele>502.6</ele>
        <time>2021-05-03T09:54:47Z</time>
      </trkpt>
      <trkpt lat="45.25817" lon="5.24202">
        <ele>502.4</ele>
        <time>2021-05-03T09:54:48Z</time>
      </trkpt>
      <trkpt lat="45.2582" lon="5.24196">
        <ele>502.3</ele>
        <time>2021-05-03T09:54:49Z</time>
      </trkpt>
      <trkpt lat="45.25823" lon="5.2419">
        <ele>502.1</ele>
        <time>2021-05-03T09:54:50Z</time>
      </trkpt>
      <trkpt lat="45.25826" lon="5.24184">
        <ele>502</ele>
        <time>2021-05-03T09:54:51Z</time>
      </trkpt>
      <trkpt lat="45.2583" lon="5.2418">
        <ele>501.9</ele>
        <time>2021-05-03T09:54:52Z</time>
      </trkpt>
      <trkpt lat="45.25833" lon="5.24175">
        <ele>501.7</ele>
        <time>2021-05-03T09:54:53Z</time>
      </trkpt>
      <trkpt lat="45.25836" lon="5.24169">
        <ele>501.6</ele>
        <time>2021-05-03T09:54:54Z</time>
      </trkpt>
      <trkpt lat="45.25839" lon="5.24165">
        <ele>501.5</ele>
        <time>2021-05-03T09:54:55Z</time>
      </trkpt>
      <trkpt lat="45.25841" lon="5.24161">
        <ele>502.2</ele>
        <time>2021-05-03T09:54:56Z</time>
      </trkpt>
      <trkpt lat="45.25842" lon="5.24157">
        <ele>502.4</ele>
        <time>2021-05-03T09:54:57Z</time>
      </trkpt>
      <trkpt lat="45.25844" lon="5.24155">
        <ele>502.6</ele>
        <time>2021-05-03T09:54:58Z</time>
      </trkpt>
      <trkpt lat="45.25846" lon="5.24158">
        <ele>502.8</ele>
        <time>2021-05-03T09:54:59Z</time>
      </trkpt>
      <trkpt lat="45.25847" lon="5.24163">
        <ele>503.1</ele>
        <time>2021-05-03T09:55:00Z</time>
      </trkpt>
      <trkpt lat="45.25849" lon="5.24167">
        <ele>503.3</ele>
        <time>2021-05-03T09:55:01Z</time>
      </trkpt>
      <trkpt lat="45.2585" lon="5.2417">
        <ele>503.6</ele>
        <time>2021-05-03T09:55:02Z</time>
      </trkpt>
      <trkpt lat="45.25851" lon="5.24175">
        <ele>503.9</ele>
        <time>2021-05-03T09:55:03Z</time>
      </trkpt>
      <trkpt lat="45.25851" lon="5.24177">
        <ele>504</ele>
        <time>2021-05-03T09:55:04Z</time>
      </trkpt>
      <trkpt lat="45.25852" lon="5.24179">
        <ele>504.1</ele>
        <time>2021-05-03T09:55:05Z</time>
      </trkpt>
      <trkpt lat="45.25853" lon="5.24181">
        <ele>504.3</ele>
        <time>2021-05-03T09:55:06Z</time>
      </trkpt>
      <trkpt lat="45.25854" lon="5.24185">
        <ele>504.6</ele>
        <time>2021-05-03T09:55:07Z</time>
      </trkpt>
      <trkpt lat="45.25855" lon="5.24186">
        <ele>504.7</ele>
        <time>2021-05-03T09:55:08Z</time>
      </trkpt>
      <trkpt lat="45.25856" lon="5.24191">
        <ele>505</ele>
        <time>2021-05-03T09:55:09Z</time>
      </trkpt>
      <trkpt lat="45.25856" lon="5.24193">
        <ele>505.2</ele>
        <time>2021-05-03T09:55:10Z</time>
      </trkpt>
      <trkpt lat="45.25858" lon="5.24197">
        <ele>505.5</ele>
        <time>2021-05-03T09:55:11Z</time>
      </trkpt>
      <trkpt lat="45.25859" lon="5.24202">
        <ele>505.9</ele>
        <time>2021-05-03T09:55:12Z</time>
      </trkpt>
      <trkpt lat="45.2586" lon="5.24203">
        <ele>506</ele>
        <time>2021-05-03T09:55:13Z</time>
      </trkpt>
      <trkpt lat="45.25862" lon="5.24207">
        <ele>506.3</ele>
        <time>2021-05-03T09:55:14Z</time>
      </trkpt>
      <trkpt lat="45.25862" lon="5.24208">
        <ele>506.4</ele>
        <time>2021-05-03T09:55:15Z</time>
      </trkpt>
      <trkpt lat="45.25864" lon="5.24212">
        <ele>506.7</ele>
        <time>2021-05-03T09:55:16Z</time>
      </trkpt>
      <trkpt lat="45.25864" lon="5.24214">
        <ele>506.9</ele>
        <time>2021-05-03T09:55:17Z</time>
      </trkpt>
      <trkpt lat="45.25866" lon="5.24218">
        <ele>507.1</ele>
        <time>2021-05-03T09:55:18Z</time>
      </trkpt>
      <trkpt lat="45.25866" lon="5.24219">
        <ele>507.3</ele>
        <time>2021-05-03T09:55:19Z</time>
      </trkpt>
      <trkpt lat="45.25868" lon="5.24221">
        <ele>507.5</ele>
        <time>2021-05-03T09:55:20Z</time>
      </trkpt>
      <trkpt lat="45.25869" lon="5.24222">
        <ele>507.5</ele>
        <time>2021-05-03T09:55:21Z</time>
      </trkpt>
      <trkpt lat="45.25871" lon="5.24225">
        <ele>507.7</ele>
        <time>2021-05-03T09:55:22Z</time>
      </trkpt>
      <trkpt lat="45.25872" lon="5.24226">
        <ele>507.8</ele>
        <time>2021-05-03T09:55:23Z</time>
      </trkpt>
      <trkpt lat="45.25874" lon="5.24229">
        <ele>507.9</ele>
        <time>2021-05-03T09:55:24Z</time>
      </trkpt>
      <trkpt lat="45.25875" lon="5.2423">
        <ele>508</ele>
        <time>2021-05-03T09:55:25Z</time>
      </trkpt>
      <trkpt lat="45.25878" lon="5.24232">
        <ele>508.2</ele>
        <time>2021-05-03T09:55:26Z</time>
      </trkpt>
      <trkpt lat="45.25878" lon="5.24233">
        <ele>508.2</ele>
        <time>2021-05-03T09:55:27Z</time>
      </trkpt>
      <trkpt lat="45.25881" lon="5.24236">
        <ele>508.4</ele>
        <time>2021-05-03T09:55:28Z</time>
      </trkpt>
      <trkpt lat="45.25882" lon="5.24237">
        <ele>508.5</ele>
        <time>2021-05-03T09:55:29Z</time>
      </trkpt>
      <trkpt lat="45.25885" lon="5.2424">
        <ele>508.7</ele>
        <time>2021-05-03T09:55:30Z</time>
      </trkpt>
      <trkpt lat="45.25885" lon="5.24241">
        <ele>508.7</ele>
        <time>2021-05-03T09:55:31Z</time>
      </trkpt>
      <trkpt lat="45.25888" lon="5.24244">
        <ele>508.9</ele>
        <time>2021-05-03T09:55:32Z</time>
      </trkpt>
      <trkpt lat="45.25888" lon="5.24244">
        <ele>508.9</ele>
        <time>2021-05-03T09:55:33Z</time>
      </trkpt>
      <trkpt lat="45.25891" lon="5.24247">
        <ele>509.1</ele>
        <time>2021-05-03T09:55:34Z</time>
      </trkpt>
      <trkpt lat="45.25892" lon="5.24248">
        <ele>509.2</ele>
        <time>2021-05-03T09:55:35Z</time>
      </trkpt>
      <trkpt lat="45.25895" lon="5.24249">
        <ele>509.4</ele>
        <time>2021-05-03T09:55:36Z</time>
      </trkpt>
      <trkpt lat="45.25896" lon="5.24249">
        <ele>509.4</ele>
        <time>2021-05-03T09:55:37Z</time>
      </trkpt>
      <trkpt lat="45.25899" lon="5.2425">
        <ele>509.6</ele>
        <time>2021-05-03T09:55:38Z</time>
      </trkpt>
      <trkpt lat="45.259" lon="5.2425">
        <ele>509.7</ele>
        <time>2021-05-03T09:55:39Z</time>
      </trkpt>
      <trkpt lat="45.25902" lon="5.24252">
        <ele>509.8</ele>
        <time>2021-05-03T09:55:40Z</time>
      </trkpt>
      <trkpt lat="45.25902" lon="5.24254">
        <ele>509.8</ele>
        <time>2021-05-03T09:55:41Z</time>
      </trkpt>
      <trkpt lat="45.25903" lon="5.24255">
        <ele>509.9</ele>
        <time>2021-05-03T09:55:42Z</time>
      </trkpt>
      <trkpt lat="45.25904" lon="5.24259">
        <ele>510.1</ele>
        <time>2021-05-03T09:55:43Z</time>
      </trkpt>
      <trkpt lat="45.25904" lon="5.24261">
        <ele>510.1</ele>
        <time>2021-05-03T09:55:44Z</time>
      </trkpt>
      <trkpt lat="45.25904" lon="5.24265">
        <ele>510.3</ele>
        <time>2021-05-03T09:55:45Z</time>
      </trkpt>
      <trkpt lat="45.25902" lon="5.24269">
        <ele>510.5</ele>
        <time>2021-05-03T09:55:46Z</time>
      </trkpt>
      <trkpt lat="45.25901" lon="5.2427">
        <ele>510.5</ele>
        <time>2021-05-03T09:55:47Z</time>
      </trkpt>
      <trkpt lat="45.259" lon="5.24274">
        <ele>510.7</ele>
        <time>2021-05-03T09:55:48Z</time>
      </trkpt>
      <trkpt lat="45.259" lon="5.24276">
        <ele>510.7</ele>
        <time>2021-05-03T09:55:49Z</time>
      </trkpt>
      <trkpt lat="45.25899" lon="5.2428">
        <ele>510.8</ele>
        <time>2021-05-03T09:55:50Z</time>
      </trkpt>
      <trkpt lat="45.25899" lon="5.24282">
        <ele>510.9</ele>
        <time>2021-05-03T09:55:51Z</time>
      </trkpt>
      <trkpt lat="45.259" lon="5.24286">
        <ele>511</ele>
        <time>2021-05-03T09:55:52Z</time>
      </trkpt>
      <trkpt lat="45.259" lon="5.24287">
        <ele>511.1</ele>
        <time>2021-05-03T09:55:53Z</time>
      </trkpt>
      <trkpt lat="45.25901" lon="5.24289">
        <ele>511.1</ele>
        <time>2021-05-03T09:55:54Z</time>
      </trkpt>
      <trkpt lat="45.25902" lon="5.2429">
        <ele>511.2</ele>
        <time>2021-05-03T09:55:55Z</time>
      </trkpt>
      <trkpt lat="45.25903" lon="5.24291">
        <ele>511.2</ele>
        <time>2021-05-03T09:55:56Z</time>
      </trkpt>
      <trkpt lat="45.25903" lon="5.24289">
        <ele>511.3</ele>
        <time>2021-05-03T09:55:57Z</time>
      </trkpt>
      <trkpt lat="45.25904" lon="5.2429">
        <ele>511.3</ele>
        <time>2021-05-03T09:55:58Z</time>
      </trkpt>
      <trkpt lat="45.25904" lon="5.24293">
        <ele>511.4</ele>
        <time>2021-05-03T09:55:59Z</time>
      </trkpt>
      <trkpt lat="45.25904" lon="5.24297">
        <ele>511.4</ele>
        <time>2021-05-03T09:56:00Z</time>
      </trkpt>
      <trkpt lat="45.25904" lon="5.24298">
        <ele>511.3</ele>
        <time>2021-05-03T09:56:01Z</time>
      </trkpt>
      <trkpt lat="45.25905" lon="5.24302">
        <ele>511.3</ele>
        <time>2021-05-03T09:56:02Z</time>
      </trkpt>
      <trkpt lat="45.25906" lon="5.24306">
        <ele>511.2</ele>
        <time>2021-05-03T09:56:03Z</time>
      </trkpt>
      <trkpt lat="45.25904" lon="5.2431">
        <ele>511.2</ele>
        <time>2021-05-03T09:56:04Z</time>
      </trkpt>
      <trkpt lat="45.25888" lon="5.24302">
        <ele>511</ele>
        <time>2021-05-03T09:56:06Z</time>
      </trkpt>
      <trkpt lat="45.2588" lon="5.24293">
        <ele>511</ele>
        <time>2021-05-03T09:56:07Z</time>
      </trkpt>
      <trkpt lat="45.25871" lon="5.24282">
        <ele>511</ele>
        <time>2021-05-03T09:56:08Z</time>
      </trkpt>
      <trkpt lat="45.25866" lon="5.24275">
        <ele>510.9</ele>
        <time>2021-05-03T09:56:10Z</time>
      </trkpt>
      <trkpt lat="45.25863" lon="5.24272">
        <ele>510.9</ele>
        <time>2021-05-03T09:56:11Z</time>
      </trkpt>
      <trkpt lat="45.25859" lon="5.24267">
        <ele>510.9</ele>
        <time>2021-05-03T09:56:13Z</time>
      </trkpt>
      <trkpt lat="45.25858" lon="5.24265">
        <ele>510.9</ele>
        <time>2021-05-03T09:56:14Z</time>
      </trkpt>
      <trkpt lat="45.25856" lon="5.24263">
        <ele>510.8</ele>
        <time>2021-05-03T09:56:15Z</time>
      </trkpt>
      <trkpt lat="45.25853" lon="5.24262">
        <ele>510.8</ele>
        <time>2021-05-03T09:56:17Z</time>
      </trkpt>
      <trkpt lat="45.25852" lon="5.24264">
        <ele>511.3</ele>
        <time>2021-05-03T09:56:19Z</time>
      </trkpt>
      <trkpt lat="45.2585" lon="5.24266">
        <ele>511.5</ele>
        <time>2021-05-03T09:56:20Z</time>
      </trkpt>
      <trkpt lat="45.25848" lon="5.24268">
        <ele>511.6</ele>
        <time>2021-05-03T09:56:21Z</time>
      </trkpt>
      <trkpt lat="45.25844" lon="5.24269">
        <ele>511.9</ele>
        <time>2021-05-03T09:56:23Z</time>
      </trkpt>
      <trkpt lat="45.25841" lon="5.24272">
        <ele>512.2</ele>
        <time>2021-05-03T09:56:24Z</time>
      </trkpt>
      <trkpt lat="45.2584" lon="5.24273">
        <ele>512.3</ele>
        <time>2021-05-03T09:56:25Z</time>
      </trkpt>
      <trkpt lat="45.25838" lon="5.24275">
        <ele>512.5</ele>
        <time>2021-05-03T09:56:27Z</time>
      </trkpt>
      <trkpt lat="45.25835" lon="5.2428">
        <ele>512.8</ele>
        <time>2021-05-03T09:56:29Z</time>
      </trkpt>
      <trkpt lat="45.25833" lon="5.24283">
        <ele>513</ele>
        <time>2021-05-03T09:56:31Z</time>
      </trkpt>
      <trkpt lat="45.25832" lon="5.24284">
        <ele>513.1</ele>
        <time>2021-05-03T09:56:32Z</time>
      </trkpt>
      <trkpt lat="45.25831" lon="5.24287">
        <ele>513.2</ele>
        <time>2021-05-03T09:56:33Z</time>
      </trkpt>
      <trkpt lat="45.25829" lon="5.2429">
        <ele>513.5</ele>
        <time>2021-05-03T09:56:34Z</time>
      </trkpt>
      <trkpt lat="45.25828" lon="5.24291">
        <ele>513.6</ele>
        <time>2021-05-03T09:56:35Z</time>
      </trkpt>
      <trkpt lat="45.25826" lon="5.24295">
        <ele>513.8</ele>
        <time>2021-05-03T09:56:36Z</time>
      </trkpt>
      <trkpt lat="45.25826" lon="5.24297">
        <ele>513.9</ele>
        <time>2021-05-03T09:56:37Z</time>
      </trkpt>
      <trkpt lat="45.25826" lon="5.24299">
        <ele>514</ele>
        <time>2021-05-03T09:56:38Z</time>
      </trkpt>
      <trkpt lat="45.25826" lon="5.24302">
        <ele>514.1</ele>
        <time>2021-05-03T09:56:39Z</time>
      </trkpt>
      <trkpt lat="45.25826" lon="5.24304">
        <ele>514.2</ele>
        <time>2021-05-03T09:56:40Z</time>
      </trkpt>
      <trkpt lat="45.25826" lon="5.24306">
        <ele>514.3</ele>
        <time>2021-05-03T09:56:41Z</time>
      </trkpt>
      <trkpt lat="45.25827" lon="5.24309">
        <ele>514.4</ele>
        <time>2021-05-03T09:56:42Z</time>
      </trkpt>
      <trkpt lat="45.25828" lon="5.24311">
        <ele>514.5</ele>
        <time>2021-05-03T09:56:43Z</time>
      </trkpt>
      <trkpt lat="45.25828" lon="5.24314">
        <ele>514.7</ele>
        <time>2021-05-03T09:56:44Z</time>
      </trkpt>
      <trkpt lat="45.25828" lon="5.24316">
        <ele>514.8</ele>
        <time>2021-05-03T09:56:45Z</time>
      </trkpt>
      <trkpt lat="45.25829" lon="5.24318">
        <ele>514.9</ele>
        <time>2021-05-03T09:56:46Z</time>
      </trkpt>
      <trkpt lat="45.25829" lon="5.24321">
        <ele>515</ele>
        <time>2021-05-03T09:56:47Z</time>
      </trkpt>
      <trkpt lat="45.25829" lon="5.24323">
        <ele>515.1</ele>
        <time>2021-05-03T09:56:48Z</time>
      </trkpt>
      <trkpt lat="45.25829" lon="5.24325">
        <ele>515.2</ele>
        <time>2021-05-03T09:56:49Z</time>
      </trkpt>
      <trkpt lat="45.25829" lon="5.24327">
        <ele>515.3</ele>
        <time>2021-05-03T09:56:50Z</time>
      </trkpt>
      <trkpt lat="45.25829" lon="5.2433">
        <ele>515.5</ele>
        <time>2021-05-03T09:56:51Z</time>
      </trkpt>
      <trkpt lat="45.25829" lon="5.24333">
        <ele>515.6</ele>
        <time>2021-05-03T09:56:52Z</time>
      </trkpt>
      <trkpt lat="45.25829" lon="5.24335">
        <ele>515.7</ele>
        <time>2021-05-03T09:56:53Z</time>
      </trkpt>
      <trkpt lat="45.25829" lon="5.24337">
        <ele>515.9</ele>
        <time>2021-05-03T09:56:54Z</time>
      </trkpt>
      <trkpt lat="45.25829" lon="5.24339">
        <ele>516</ele>
        <time>2021-05-03T09:56:55Z</time>
      </trkpt>
      <trkpt lat="45.25828" lon="5.24342">
        <ele>516.2</ele>
        <time>2021-05-03T09:56:56Z</time>
      </trkpt>
      <trkpt lat="45.25828" lon="5.24343">
        <ele>516.3</ele>
        <time>2021-05-03T09:56:57Z</time>
      </trkpt>
      <trkpt lat="45.25828" lon="5.24344">
        <ele>516.3</ele>
        <time>2021-05-03T09:56:58Z</time>
      </trkpt>
      <trkpt lat="45.25827" lon="5.24346">
        <ele>516.5</ele>
        <time>2021-05-03T09:56:59Z</time>
      </trkpt>
      <trkpt lat="45.25826" lon="5.24347">
        <ele>516.6</ele>
        <time>2021-05-03T09:57:00Z</time>
      </trkpt>
      <trkpt lat="45.25825" lon="5.24348">
        <ele>516.7</ele>
        <time>2021-05-03T09:57:01Z</time>
      </trkpt>
      <trkpt lat="45.25826" lon="5.24349">
        <ele>516.8</ele>
        <time>2021-05-03T09:57:02Z</time>
      </trkpt>
      <trkpt lat="45.25826" lon="5.2435">
        <ele>516.9</ele>
        <time>2021-05-03T09:57:04Z</time>
      </trkpt>
      <trkpt lat="45.25826" lon="5.2435">
        <ele>516.9</ele>
        <time>2021-05-03T09:57:05Z</time>
      </trkpt>
      <trkpt lat="45.25826" lon="5.2435">
        <ele>516.9</ele>
        <time>2021-05-03T09:57:06Z</time>
      </trkpt>
      <trkpt lat="45.25826" lon="5.2435">
        <ele>516.9</ele>
        <time>2021-05-03T09:57:07Z</time>
      </trkpt>
      <trkpt lat="45.25825" lon="5.24349">
        <ele>517</ele>
        <time>2021-05-03T09:57:08Z</time>
      </trkpt>
      <trkpt lat="45.25825" lon="5.24349">
        <ele>517</ele>
        <time>2021-05-03T09:57:09Z</time>
      </trkpt>
      <trkpt lat="45.25825" lon="5.24349">
        <ele>517</ele>
        <time>2021-05-03T09:57:10Z</time>
      </trkpt>
      <trkpt lat="45.25825" lon="5.24349">
        <ele>517</ele>
        <time>2021-05-03T09:57:11Z</time>
      </trkpt>
      <trkpt lat="45.25825" lon="5.24349">
        <ele>517</ele>
        <time>2021-05-03T09:57:12Z</time>
      </trkpt>
      <trkpt lat="45.25825" lon="5.24349">
        <ele>517</ele>
        <time>2021-05-03T09:57:13Z</time>
      </trkpt>
      <trkpt lat="45.25825" lon="5.24349">
        <ele>517</ele>
        <time>2021-05-03T09:57:14Z</time>
      </trkpt>
      <trkpt lat="45.25824" lon="5.24351">
        <ele>517.2</ele>
        <time>2021-05-03T09:57:24Z</time>
      </trkpt>
      <trkpt lat="45.2582" lon="5.24351">
        <ele>517.4</ele>
        <time>2021-05-03T09:57:25Z</time>
      </trkpt>
      <trkpt lat="45.25818" lon="5.24351">
        <ele>517.4</ele>
        <time>2021-05-03T09:57:26Z</time>
      </trkpt>
      <trkpt lat="45.25814" lon="5.24352">
        <ele>517.2</ele>
        <time>2021-05-03T09:57:28Z</time>
      </trkpt>
      <trkpt lat="45.25812" lon="5.24352">
        <ele>517.1</ele>
        <time>2021-05-03T09:57:29Z</time>
      </trkpt>
      <trkpt lat="45.25808" lon="5.24352">
        <ele>517</ele>
        <time>2021-05-03T09:57:30Z</time>
      </trkpt>
      <trkpt lat="45.25806" lon="5.24354">
        <ele>517</ele>
        <time>2021-05-03T09:57:32Z</time>
      </trkpt>
      <trkpt lat="45.25803" lon="5.24353">
        <ele>517</ele>
        <time>2021-05-03T09:57:34Z</time>
      </trkpt>
      <trkpt lat="45.25801" lon="5.24352">
        <ele>517.1</ele>
        <time>2021-05-03T09:57:35Z</time>
      </trkpt>
      <trkpt lat="45.258" lon="5.24352">
        <ele>517.1</ele>
        <time>2021-05-03T09:57:36Z</time>
      </trkpt>
      <trkpt lat="45.25801" lon="5.24352">
        <ele>517.1</ele>
        <time>2021-05-03T09:57:38Z</time>
      </trkpt>
      <trkpt lat="45.25803" lon="5.24352">
        <ele>517.1</ele>
        <time>2021-05-03T09:57:40Z</time>
      </trkpt>
      <trkpt lat="45.25804" lon="5.24351">
        <ele>517.2</ele>
        <time>2021-05-03T09:57:41Z</time>
      </trkpt>
      <trkpt lat="45.25806" lon="5.24352">
        <ele>517.2</ele>
        <time>2021-05-03T09:57:42Z</time>
      </trkpt>
      <trkpt lat="45.25809" lon="5.24352">
        <ele>517.3</ele>
        <time>2021-05-03T09:57:44Z</time>
      </trkpt>
      <trkpt lat="45.25814" lon="5.24354">
        <ele>517.4</ele>
        <time>2021-05-03T09:57:46Z</time>
      </trkpt>
      <trkpt lat="45.25816" lon="5.24355">
        <ele>517.4</ele>
        <time>2021-05-03T09:57:47Z</time>
      </trkpt>
      <trkpt lat="45.25817" lon="5.24356">
        <ele>517.4</ele>
        <time>2021-05-03T09:57:48Z</time>
      </trkpt>
      <trkpt lat="45.25821" lon="5.24356">
        <ele>517.5</ele>
        <time>2021-05-03T09:57:50Z</time>
      </trkpt>
      <trkpt lat="45.25824" lon="5.24356">
        <ele>517.6</ele>
        <time>2021-05-03T09:57:51Z</time>
      </trkpt>
      <trkpt lat="45.25825" lon="5.24356">
        <ele>517.6</ele>
        <time>2021-05-03T09:57:52Z</time>
      </trkpt>
      <trkpt lat="45.25829" lon="5.24357">
        <ele>517.9</ele>
        <time>2021-05-03T09:57:54Z</time>
      </trkpt>
      <trkpt lat="45.25829" lon="5.24357">
        <ele>518</ele>
        <time>2021-05-03T09:57:55Z</time>
      </trkpt>
      <trkpt lat="45.25833" lon="5.24358">
        <ele>518.2</ele>
        <time>2021-05-03T09:57:56Z</time>
      </trkpt>
      <trkpt lat="45.25834" lon="5.24358">
        <ele>518.3</ele>
        <time>2021-05-03T09:57:57Z</time>
      </trkpt>
      <trkpt lat="45.25837" lon="5.24359">
        <ele>518.6</ele>
        <time>2021-05-03T09:57:59Z</time>
      </trkpt>
      <trkpt lat="45.2584" lon="5.2436">
        <ele>518.8</ele>
        <time>2021-05-03T09:58:00Z</time>
      </trkpt>
      <trkpt lat="45.25843" lon="5.24363">
        <ele>519.1</ele>
        <time>2021-05-03T09:58:02Z</time>
      </trkpt>
      <trkpt lat="45.25846" lon="5.24365">
        <ele>519.2</ele>
        <time>2021-05-03T09:58:03Z</time>
      </trkpt>
      <trkpt lat="45.25847" lon="5.24366">
        <ele>519.2</ele>
        <time>2021-05-03T09:58:04Z</time>
      </trkpt>
      <trkpt lat="45.2585" lon="5.24368">
        <ele>519.4</ele>
        <time>2021-05-03T09:58:05Z</time>
      </trkpt>
      <trkpt lat="45.25851" lon="5.24368">
        <ele>519.5</ele>
        <time>2021-05-03T09:58:06Z</time>
      </trkpt>
      <trkpt lat="45.25854" lon="5.2437">
        <ele>519.7</ele>
        <time>2021-05-03T09:58:07Z</time>
      </trkpt>
      <trkpt lat="45.25855" lon="5.24371">
        <ele>519.7</ele>
        <time>2021-05-03T09:58:08Z</time>
      </trkpt>
      <trkpt lat="45.25857" lon="5.24371">
        <ele>519.8</ele>
        <time>2021-05-03T09:58:09Z</time>
      </trkpt>
      <trkpt lat="45.25858" lon="5.24371">
        <ele>519.9</ele>
        <time>2021-05-03T09:58:10Z</time>
      </trkpt>
      <trkpt lat="45.2586" lon="5.24372">
        <ele>520</ele>
        <time>2021-05-03T09:58:11Z</time>
      </trkpt>
      <trkpt lat="45.25862" lon="5.24372">
        <ele>520.1</ele>
        <time>2021-05-03T09:58:12Z</time>
      </trkpt>
      <trkpt lat="45.25865" lon="5.24374">
        <ele>520.3</ele>
        <time>2021-05-03T09:58:13Z</time>
      </trkpt>
      <trkpt lat="45.25866" lon="5.24375">
        <ele>520.4</ele>
        <time>2021-05-03T09:58:14Z</time>
      </trkpt>
      <trkpt lat="45.25869" lon="5.24377">
        <ele>520.7</ele>
        <time>2021-05-03T09:58:15Z</time>
      </trkpt>
      <trkpt lat="45.2587" lon="5.24378">
        <ele>520.8</ele>
        <time>2021-05-03T09:58:16Z</time>
      </trkpt>
      <trkpt lat="45.25873" lon="5.2438">
        <ele>521.1</ele>
        <time>2021-05-03T09:58:17Z</time>
      </trkpt>
      <trkpt lat="45.25874" lon="5.24381">
        <ele>521.2</ele>
        <time>2021-05-03T09:58:18Z</time>
      </trkpt>
      <trkpt lat="45.25878" lon="5.24382">
        <ele>521.6</ele>
        <time>2021-05-03T09:58:19Z</time>
      </trkpt>
      <trkpt lat="45.25879" lon="5.24382">
        <ele>521.7</ele>
        <time>2021-05-03T09:58:20Z</time>
      </trkpt>
      <trkpt lat="45.2588" lon="5.24384">
        <ele>521.8</ele>
        <time>2021-05-03T09:58:21Z</time>
      </trkpt>
      <trkpt lat="45.25882" lon="5.24385">
        <ele>522</ele>
        <time>2021-05-03T09:58:22Z</time>
      </trkpt>
      <trkpt lat="45.25884" lon="5.24388">
        <ele>522.1</ele>
        <time>2021-05-03T09:58:23Z</time>
      </trkpt>
      <trkpt lat="45.25885" lon="5.24388">
        <ele>522.2</ele>
        <time>2021-05-03T09:58:24Z</time>
      </trkpt>
      <trkpt lat="45.25888" lon="5.2439">
        <ele>522.4</ele>
        <time>2021-05-03T09:58:25Z</time>
      </trkpt>
      <trkpt lat="45.25889" lon="5.24391">
        <ele>522.5</ele>
        <time>2021-05-03T09:58:26Z</time>
      </trkpt>
      <trkpt lat="45.25891" lon="5.24393">
        <ele>522.7</ele>
        <time>2021-05-03T09:58:27Z</time>
      </trkpt>
      <trkpt lat="45.25892" lon="5.24394">
        <ele>522.7</ele>
        <time>2021-05-03T09:58:28Z</time>
      </trkpt>
      <trkpt lat="45.25893" lon="5.24397">
        <ele>522.9</ele>
        <time>2021-05-03T09:58:29Z</time>
      </trkpt>
      <trkpt lat="45.25894" lon="5.24398">
        <ele>523</ele>
        <time>2021-05-03T09:58:30Z</time>
      </trkpt>
      <trkpt lat="45.25897" lon="5.24402">
        <ele>523.3</ele>
        <time>2021-05-03T09:58:31Z</time>
      </trkpt>
      <trkpt lat="45.25897" lon="5.24402">
        <ele>523.4</ele>
        <time>2021-05-03T09:58:32Z</time>
      </trkpt>
      <trkpt lat="45.259" lon="5.24405">
        <ele>523.6</ele>
        <time>2021-05-03T09:58:33Z</time>
      </trkpt>
      <trkpt lat="45.25901" lon="5.24406">
        <ele>523.7</ele>
        <time>2021-05-03T09:58:34Z</time>
      </trkpt>
      <trkpt lat="45.25903" lon="5.24408">
        <ele>523.9</ele>
        <time>2021-05-03T09:58:35Z</time>
      </trkpt>
      <trkpt lat="45.25904" lon="5.24409">
        <ele>524</ele>
        <time>2021-05-03T09:58:36Z</time>
      </trkpt>
      <trkpt lat="45.25906" lon="5.24411">
        <ele>524.1</ele>
        <time>2021-05-03T09:58:37Z</time>
      </trkpt>
      <trkpt lat="45.25909" lon="5.24414">
        <ele>524.3</ele>
        <time>2021-05-03T09:58:39Z</time>
      </trkpt>
      <trkpt lat="45.25911" lon="5.24416">
        <ele>524.4</ele>
        <time>2021-05-03T09:58:40Z</time>
      </trkpt>
      <trkpt lat="45.25912" lon="5.24417">
        <ele>524.5</ele>
        <time>2021-05-03T09:58:41Z</time>
      </trkpt>
      <trkpt lat="45.25914" lon="5.24418">
        <ele>524.6</ele>
        <time>2021-05-03T09:58:42Z</time>
      </trkpt>
      <trkpt lat="45.25917" lon="5.24422">
        <ele>524.8</ele>
        <time>2021-05-03T09:58:44Z</time>
      </trkpt>
      <trkpt lat="45.25918" lon="5.24425">
        <ele>524.9</ele>
        <time>2021-05-03T09:58:45Z</time>
      </trkpt>
      <trkpt lat="45.2592" lon="5.2443">
        <ele>525.2</ele>
        <time>2021-05-03T09:58:47Z</time>
      </trkpt>
      <trkpt lat="45.25922" lon="5.24435">
        <ele>525.4</ele>
        <time>2021-05-03T09:58:49Z</time>
      </trkpt>
      <trkpt lat="45.25924" lon="5.24439">
        <ele>525.7</ele>
        <time>2021-05-03T09:58:51Z</time>
      </trkpt>
      <trkpt lat="45.25926" lon="5.24442">
        <ele>525.9</ele>
        <time>2021-05-03T09:58:52Z</time>
      </trkpt>
      <trkpt lat="45.25929" lon="5.24447">
        <ele>526.2</ele>
        <time>2021-05-03T09:58:54Z</time>
      </trkpt>
      <trkpt lat="45.25932" lon="5.2445">
        <ele>526.3</ele>
        <time>2021-05-03T09:58:55Z</time>
      </trkpt>
      <trkpt lat="45.25934" lon="5.24452">
        <ele>526.4</ele>
        <time>2021-05-03T09:58:57Z</time>
      </trkpt>
      <trkpt lat="45.25935" lon="5.24453">
        <ele>526.5</ele>
        <time>2021-05-03T09:58:58Z</time>
      </trkpt>
      <trkpt lat="45.25937" lon="5.24456">
        <ele>526.6</ele>
        <time>2021-05-03T09:58:59Z</time>
      </trkpt>
      <trkpt lat="45.2594" lon="5.24459">
        <ele>526.7</ele>
        <time>2021-05-03T09:59:00Z</time>
      </trkpt>
      <trkpt lat="45.25943" lon="5.24463">
        <ele>527</ele>
        <time>2021-05-03T09:59:02Z</time>
      </trkpt>
      <trkpt lat="45.25945" lon="5.24464">
        <ele>527</ele>
        <time>2021-05-03T09:59:03Z</time>
      </trkpt>
      <trkpt lat="45.25946" lon="5.24466">
        <ele>527.1</ele>
        <time>2021-05-03T09:59:04Z</time>
      </trkpt>
      <trkpt lat="45.25948" lon="5.24468">
        <ele>527.2</ele>
        <time>2021-05-03T09:59:05Z</time>
      </trkpt>
      <trkpt lat="45.25952" lon="5.2447">
        <ele>527.4</ele>
        <time>2021-05-03T09:59:07Z</time>
      </trkpt>
      <trkpt lat="45.25955" lon="5.24472">
        <ele>527.5</ele>
        <time>2021-05-03T09:59:09Z</time>
      </trkpt>
      <trkpt lat="45.2596" lon="5.24478">
        <ele>527.8</ele>
        <time>2021-05-03T09:59:11Z</time>
      </trkpt>
      <trkpt lat="45.25962" lon="5.24482">
        <ele>527.9</ele>
        <time>2021-05-03T09:59:12Z</time>
      </trkpt>
      <trkpt lat="45.25966" lon="5.24488">
        <ele>528.1</ele>
        <time>2021-05-03T09:59:14Z</time>
      </trkpt>
      <trkpt lat="45.2597" lon="5.24493">
        <ele>528.3</ele>
        <time>2021-05-03T09:59:16Z</time>
      </trkpt>
      <trkpt lat="45.25973" lon="5.24499">
        <ele>528.5</ele>
        <time>2021-05-03T09:59:18Z</time>
      </trkpt>
      <trkpt lat="45.25975" lon="5.24504">
        <ele>528.6</ele>
        <time>2021-05-03T09:59:20Z</time>
      </trkpt>
      <trkpt lat="45.25978" lon="5.24508">
        <ele>528.7</ele>
        <time>2021-05-03T09:59:21Z</time>
      </trkpt>
      <trkpt lat="45.25982" lon="5.24514">
        <ele>528.8</ele>
        <time>2021-05-03T09:59:23Z</time>
      </trkpt>
      <trkpt lat="45.25983" lon="5.24518">
        <ele>528.9</ele>
        <time>2021-05-03T09:59:24Z</time>
      </trkpt>
      <trkpt lat="45.25987" lon="5.24522">
        <ele>529</ele>
        <time>2021-05-03T09:59:26Z</time>
      </trkpt>
      <trkpt lat="45.25989" lon="5.24525">
        <ele>529.1</ele>
        <time>2021-05-03T09:59:27Z</time>
      </trkpt>
      <trkpt lat="45.25991" lon="5.24528">
        <ele>529.2</ele>
        <time>2021-05-03T09:59:28Z</time>
      </trkpt>
      <trkpt lat="45.25993" lon="5.24532">
        <ele>529.3</ele>
        <time>2021-05-03T09:59:29Z</time>
      </trkpt>
      <trkpt lat="45.25996" lon="5.24538">
        <ele>529.5</ele>
        <time>2021-05-03T09:59:30Z</time>
      </trkpt>
      <trkpt lat="45.25998" lon="5.24542">
        <ele>529.6</ele>
        <time>2021-05-03T09:59:32Z</time>
      </trkpt>
      <trkpt lat="45.26002" lon="5.24548">
        <ele>529.8</ele>
        <time>2021-05-03T09:59:34Z</time>
      </trkpt>
      <trkpt lat="45.26004" lon="5.2455">
        <ele>529.9</ele>
        <time>2021-05-03T09:59:35Z</time>
      </trkpt>
      <trkpt lat="45.26007" lon="5.24555">
        <ele>530.1</ele>
        <time>2021-05-03T09:59:37Z</time>
      </trkpt>
      <trkpt lat="45.26011" lon="5.2456">
        <ele>530.2</ele>
        <time>2021-05-03T09:59:39Z</time>
      </trkpt>
      <trkpt lat="45.26014" lon="5.24565">
        <ele>530.4</ele>
        <time>2021-05-03T09:59:40Z</time>
      </trkpt>
      <trkpt lat="45.26017" lon="5.24568">
        <ele>530.5</ele>
        <time>2021-05-03T09:59:42Z</time>
      </trkpt>
      <trkpt lat="45.26019" lon="5.24571">
        <ele>530.6</ele>
        <time>2021-05-03T09:59:43Z</time>
      </trkpt>
      <trkpt lat="45.26022" lon="5.24575">
        <ele>530.8</ele>
        <time>2021-05-03T09:59:45Z</time>
      </trkpt>
      <trkpt lat="45.26024" lon="5.24578">
        <ele>530.9</ele>
        <time>2021-05-03T09:59:46Z</time>
      </trkpt>
      <trkpt lat="45.26026" lon="5.24581">
        <ele>531</ele>
        <time>2021-05-03T09:59:47Z</time>
      </trkpt>
      <trkpt lat="45.26029" lon="5.24586">
        <ele>531.2</ele>
        <time>2021-05-03T09:59:49Z</time>
      </trkpt>
      <trkpt lat="45.26031" lon="5.24588">
        <ele>531.3</ele>
        <time>2021-05-03T09:59:50Z</time>
      </trkpt>
      <trkpt lat="45.26035" lon="5.24593">
        <ele>531.4</ele>
        <time>2021-05-03T09:59:52Z</time>
      </trkpt>
      <trkpt lat="45.26038" lon="5.24596">
        <ele>531.6</ele>
        <time>2021-05-03T09:59:53Z</time>
      </trkpt>
      <trkpt lat="45.26041" lon="5.246">
        <ele>531.7</ele>
        <time>2021-05-03T09:59:55Z</time>
      </trkpt>
      <trkpt lat="45.26044" lon="5.24604">
        <ele>531.9</ele>
        <time>2021-05-03T09:59:56Z</time>
      </trkpt>
      <trkpt lat="45.26047" lon="5.24608">
        <ele>531.9</ele>
        <time>2021-05-03T09:59:58Z</time>
      </trkpt>
      <trkpt lat="45.2605" lon="5.24613">
        <ele>531.9</ele>
        <time>2021-05-03T10:00:00Z</time>
      </trkpt>
      <trkpt lat="45.26052" lon="5.24616">
        <ele>532</ele>
        <time>2021-05-03T10:00:01Z</time>
      </trkpt>
      <trkpt lat="45.26057" lon="5.24622">
        <ele>532</ele>
        <time>2021-05-03T10:00:03Z</time>
      </trkpt>
      <trkpt lat="45.2606" lon="5.24626">
        <ele>532</ele>
        <time>2021-05-03T10:00:04Z</time>
      </trkpt>
      <trkpt lat="45.26062" lon="5.24629">
        <ele>532.1</ele>
        <time>2021-05-03T10:00:05Z</time>
      </trkpt>
      <trkpt lat="45.26066" lon="5.24633">
        <ele>532.1</ele>
        <time>2021-05-03T10:00:07Z</time>
      </trkpt>
      <trkpt lat="45.26069" lon="5.24637">
        <ele>532.1</ele>
        <time>2021-05-03T10:00:08Z</time>
      </trkpt>
      <trkpt lat="45.26073" lon="5.24642">
        <ele>532.1</ele>
        <time>2021-05-03T10:00:10Z</time>
      </trkpt>
      <trkpt lat="45.26074" lon="5.24644">
        <ele>532.1</ele>
        <time>2021-05-03T10:00:11Z</time>
      </trkpt>
      <trkpt lat="45.26075" lon="5.24645">
        <ele>532.1</ele>
        <time>2021-05-03T10:00:12Z</time>
      </trkpt>
      <trkpt lat="45.26076" lon="5.24646">
        <ele>532.1</ele>
        <time>2021-05-03T10:00:13Z</time>
      </trkpt>
      <trkpt lat="45.26076" lon="5.24645">
        <ele>532.1</ele>
        <time>2021-05-03T10:00:14Z</time>
      </trkpt>
      <trkpt lat="45.26074" lon="5.24643">
        <ele>532.1</ele>
        <time>2021-05-03T10:00:15Z</time>
      </trkpt>
      <trkpt lat="45.26074" lon="5.24643">
        <ele>532.1</ele>
        <time>2021-05-03T10:00:16Z</time>
      </trkpt>
      <trkpt lat="45.26074" lon="5.24642">
        <ele>532.1</ele>
        <time>2021-05-03T10:00:17Z</time>
      </trkpt>
      <trkpt lat="45.26073" lon="5.24642">
        <ele>532.1</ele>
        <time>2021-05-03T10:00:18Z</time>
      </trkpt>
      <trkpt lat="45.26073" lon="5.24642">
        <ele>532.1</ele>
        <time>2021-05-03T10:00:19Z</time>
      </trkpt>
      <trkpt lat="45.26073" lon="5.24642">
        <ele>532.1</ele>
        <time>2021-05-03T10:00:20Z</time>
      </trkpt>
      <trkpt lat="45.26073" lon="5.24642">
        <ele>532.1</ele>
        <time>2021-05-03T10:00:21Z</time>
      </trkpt>
      <trkpt lat="45.26073" lon="5.24642">
        <ele>532.1</ele>
        <time>2021-05-03T10:00:22Z</time>
      </trkpt>
      <trkpt lat="45.26077" lon="5.24641">
        <ele>532.1</ele>
        <time>2021-05-03T10:00:48Z</time>
      </trkpt>
      <trkpt lat="45.26079" lon="5.24639">
        <ele>532.1</ele>
        <time>2021-05-03T10:00:49Z</time>
      </trkpt>
      <trkpt lat="45.26079" lon="5.24635">
        <ele>532.1</ele>
        <time>2021-05-03T10:00:51Z</time>
      </trkpt>
      <trkpt lat="45.26079" lon="5.2463">
        <ele>532.1</ele>
        <time>2021-05-03T10:00:52Z</time>
      </trkpt>
      <trkpt lat="45.26078" lon="5.24628">
        <ele>532.1</ele>
        <time>2021-05-03T10:00:53Z</time>
      </trkpt>
      <trkpt lat="45.26075" lon="5.24623">
        <ele>532.1</ele>
        <time>2021-05-03T10:00:55Z</time>
      </trkpt>
      <trkpt lat="45.26071" lon="5.24619">
        <ele>532.1</ele>
        <time>2021-05-03T10:00:56Z</time>
      </trkpt>
      <trkpt lat="45.2607" lon="5.24617">
        <ele>531.6</ele>
        <time>2021-05-03T10:00:57Z</time>
      </trkpt>
      <trkpt lat="45.26066" lon="5.24614">
        <ele>531.3</ele>
        <time>2021-05-03T10:00:59Z</time>
      </trkpt>
      <trkpt lat="45.26065" lon="5.24609">
        <ele>531</ele>
        <time>2021-05-03T10:01:00Z</time>
      </trkpt>
      <trkpt lat="45.26063" lon="5.24605">
        <ele>530.8</ele>
        <time>2021-05-03T10:01:02Z</time>
      </trkpt>
      <trkpt lat="45.26064" lon="5.24605">
        <ele>530.7</ele>
        <time>2021-05-03T10:01:03Z</time>
      </trkpt>
      <trkpt lat="45.26064" lon="5.24607">
        <ele>530.5</ele>
        <time>2021-05-03T10:01:04Z</time>
      </trkpt>
      <trkpt lat="45.26065" lon="5.24608">
        <ele>530.4</ele>
        <time>2021-05-03T10:01:05Z</time>
      </trkpt>
      <trkpt lat="45.26065" lon="5.24609">
        <ele>530.4</ele>
        <time>2021-05-03T10:01:06Z</time>
      </trkpt>
      <trkpt lat="45.26065" lon="5.24607">
        <ele>530.3</ele>
        <time>2021-05-03T10:01:07Z</time>
      </trkpt>
      <trkpt lat="45.26065" lon="5.24606">
        <ele>530.2</ele>
        <time>2021-05-03T10:01:08Z</time>
      </trkpt>
      <trkpt lat="45.26064" lon="5.24605">
        <ele>530.1</ele>
        <time>2021-05-03T10:01:09Z</time>
      </trkpt>
      <trkpt lat="45.26064" lon="5.24604">
        <ele>530</ele>
        <time>2021-05-03T10:01:10Z</time>
      </trkpt>
      <trkpt lat="45.26064" lon="5.24602">
        <ele>529.9</ele>
        <time>2021-05-03T10:01:12Z</time>
      </trkpt>
      <trkpt lat="45.26064" lon="5.24601">
        <ele>529.8</ele>
        <time>2021-05-03T10:03:58Z</time>
      </trkpt>
      <trkpt lat="45.26063" lon="5.246">
        <ele>529.7</ele>
        <time>2021-05-03T10:03:59Z</time>
      </trkpt>
      <trkpt lat="45.26063" lon="5.24599">
        <ele>529.6</ele>
        <time>2021-05-03T10:04:00Z</time>
      </trkpt>
      <trkpt lat="45.26063" lon="5.24594">
        <ele>529.2</ele>
        <time>2021-05-03T10:04:01Z</time>
      </trkpt>
      <trkpt lat="45.26062" lon="5.24592">
        <ele>529.1</ele>
        <time>2021-05-03T10:04:02Z</time>
      </trkpt>
      <trkpt lat="45.26061" lon="5.24587">
        <ele>528.5</ele>
        <time>2021-05-03T10:04:03Z</time>
      </trkpt>
      <trkpt lat="45.26061" lon="5.24584">
        <ele>528.3</ele>
        <time>2021-05-03T10:04:04Z</time>
      </trkpt>
      <trkpt lat="45.26059" lon="5.24581">
        <ele>528</ele>
        <time>2021-05-03T10:04:05Z</time>
      </trkpt>
      <trkpt lat="45.26058" lon="5.24577">
        <ele>527.6</ele>
        <time>2021-05-03T10:04:06Z</time>
      </trkpt>
      <trkpt lat="45.26056" lon="5.24572">
        <ele>527.1</ele>
        <time>2021-05-03T10:04:07Z</time>
      </trkpt>
      <trkpt lat="45.26054" lon="5.24564">
        <ele>526.4</ele>
        <time>2021-05-03T10:04:08Z</time>
      </trkpt>
      <trkpt lat="45.26054" lon="5.24553">
        <ele>525.3</ele>
        <time>2021-05-03T10:04:09Z</time>
      </trkpt>
      <trkpt lat="45.26052" lon="5.24544">
        <ele>524.3</ele>
        <time>2021-05-03T10:04:10Z</time>
      </trkpt>
      <trkpt lat="45.26051" lon="5.24534">
        <ele>523.3</ele>
        <time>2021-05-03T10:04:11Z</time>
      </trkpt>
      <trkpt lat="45.26049" lon="5.24525">
        <ele>522.4</ele>
        <time>2021-05-03T10:04:12Z</time>
      </trkpt>
      <trkpt lat="45.26047" lon="5.24516">
        <ele>521.6</ele>
        <time>2021-05-03T10:04:13Z</time>
      </trkpt>
      <trkpt lat="45.26046" lon="5.24507">
        <ele>520.8</ele>
        <time>2021-05-03T10:04:14Z</time>
      </trkpt>
      <trkpt lat="45.26044" lon="5.24497">
        <ele>520.1</ele>
        <time>2021-05-03T10:04:15Z</time>
      </trkpt>
      <trkpt lat="45.26042" lon="5.24487">
        <ele>519.4</ele>
        <time>2021-05-03T10:04:16Z</time>
      </trkpt>
      <trkpt lat="45.2604" lon="5.24476">
        <ele>518.6</ele>
        <time>2021-05-03T10:04:17Z</time>
      </trkpt>
      <trkpt lat="45.26037" lon="5.24465">
        <ele>517.9</ele>
        <time>2021-05-03T10:04:18Z</time>
      </trkpt>
      <trkpt lat="45.26033" lon="5.24454">
        <ele>517.3</ele>
        <time>2021-05-03T10:04:19Z</time>
      </trkpt>
      <trkpt lat="45.26027" lon="5.24445">
        <ele>516.8</ele>
        <time>2021-05-03T10:04:20Z</time>
      </trkpt>
      <trkpt lat="45.26022" lon="5.24435">
        <ele>516.4</ele>
        <time>2021-05-03T10:04:21Z</time>
      </trkpt>
      <trkpt lat="45.26016" lon="5.24425">
        <ele>516</ele>
        <time>2021-05-03T10:04:22Z</time>
      </trkpt>
      <trkpt lat="45.26011" lon="5.24416">
        <ele>515.6</ele>
        <time>2021-05-03T10:04:23Z</time>
      </trkpt>
      <trkpt lat="45.26005" lon="5.24406">
        <ele>515.2</ele>
        <time>2021-05-03T10:04:24Z</time>
      </trkpt>
      <trkpt lat="45.26" lon="5.24397">
        <ele>515</ele>
        <time>2021-05-03T10:04:25Z</time>
      </trkpt>
      <trkpt lat="45.25994" lon="5.24389">
        <ele>514.7</ele>
        <time>2021-05-03T10:04:26Z</time>
      </trkpt>
      <trkpt lat="45.25987" lon="5.24381">
        <ele>514.5</ele>
        <time>2021-05-03T10:04:27Z</time>
      </trkpt>
      <trkpt lat="45.2598" lon="5.24375">
        <ele>514.4</ele>
        <time>2021-05-03T10:04:28Z</time>
      </trkpt>
      <trkpt lat="45.25974" lon="5.24368">
        <ele>514.1</ele>
        <time>2021-05-03T10:04:29Z</time>
      </trkpt>
      <trkpt lat="45.25967" lon="5.2436">
        <ele>513.9</ele>
        <time>2021-05-03T10:04:30Z</time>
      </trkpt>
      <trkpt lat="45.25961" lon="5.24353">
        <ele>513.6</ele>
        <time>2021-05-03T10:04:31Z</time>
      </trkpt>
      <trkpt lat="45.25956" lon="5.24345">
        <ele>513.4</ele>
        <time>2021-05-03T10:04:32Z</time>
      </trkpt>
      <trkpt lat="45.25953" lon="5.24339">
        <ele>513.2</ele>
        <time>2021-05-03T10:04:33Z</time>
      </trkpt>
      <trkpt lat="45.25949" lon="5.24333">
        <ele>513</ele>
        <time>2021-05-03T10:04:34Z</time>
      </trkpt>
      <trkpt lat="45.25946" lon="5.24328">
        <ele>512.9</ele>
        <time>2021-05-03T10:04:35Z</time>
      </trkpt>
      <trkpt lat="45.25944" lon="5.24323">
        <ele>512.8</ele>
        <time>2021-05-03T10:04:36Z</time>
      </trkpt>
      <trkpt lat="45.25943" lon="5.24323">
        <ele>512.7</ele>
        <time>2021-05-03T10:04:37Z</time>
      </trkpt>
      <trkpt lat="45.25941" lon="5.24321">
        <ele>512.7</ele>
        <time>2021-05-03T10:04:38Z</time>
      </trkpt>
      <trkpt lat="45.25941" lon="5.2432">
        <ele>512.7</ele>
        <time>2021-05-03T10:04:39Z</time>
      </trkpt>
      <trkpt lat="45.2594" lon="5.2432">
        <ele>512.6</ele>
        <time>2021-05-03T10:04:40Z</time>
      </trkpt>
      <trkpt lat="45.2594" lon="5.2432">
        <ele>512.6</ele>
        <time>2021-05-03T10:04:41Z</time>
      </trkpt>
      <trkpt lat="45.2594" lon="5.24319">
        <ele>512.6</ele>
        <time>2021-05-03T10:04:42Z</time>
      </trkpt>
      <trkpt lat="45.2594" lon="5.24319">
        <ele>512.6</ele>
        <time>2021-05-03T10:04:43Z</time>
      </trkpt>
      <trkpt lat="45.25939" lon="5.24319">
        <ele>512.6</ele>
        <time>2021-05-03T10:04:44Z</time>
      </trkpt>
      <trkpt lat="45.25939" lon="5.24319">
        <ele>512.6</ele>
        <time>2021-05-03T10:04:45Z</time>
      </trkpt>
      <trkpt lat="45.25939" lon="5.24318">
        <ele>512.6</ele>
        <time>2021-05-03T10:04:46Z</time>
      </trkpt>
      <trkpt lat="45.25938" lon="5.24318">
        <ele>512.6</ele>
        <time>2021-05-03T10:04:47Z</time>
      </trkpt>
      <trkpt lat="45.25938" lon="5.24318">
        <ele>512.6</ele>
        <time>2021-05-03T10:04:48Z</time>
      </trkpt>
      <trkpt lat="45.25938" lon="5.24318">
        <ele>512.6</ele>
        <time>2021-05-03T10:04:49Z</time>
      </trkpt>
      <trkpt lat="45.25938" lon="5.24318">
        <ele>512.6</ele>
        <time>2021-05-03T10:04:50Z</time>
      </trkpt>
      <trkpt lat="45.25937" lon="5.24317">
        <ele>512.6</ele>
        <time>2021-05-03T10:04:51Z</time>
      </trkpt>
      <trkpt lat="45.25937" lon="5.24317">
        <ele>512.6</ele>
        <time>2021-05-03T10:04:52Z</time>
      </trkpt>
      <trkpt lat="45.25937" lon="5.24317">
        <ele>512.5</ele>
        <time>2021-05-03T10:04:53Z</time>
      </trkpt>
      <trkpt lat="45.25937" lon="5.24317">
        <ele>512.5</ele>
        <time>2021-05-03T10:04:54Z</time>
      </trkpt>
      <trkpt lat="45.25936" lon="5.24316">
        <ele>512.5</ele>
        <time>2021-05-03T10:04:55Z</time>
      </trkpt>
      <trkpt lat="45.25936" lon="5.24316">
        <ele>512.5</ele>
        <time>2021-05-03T10:04:56Z</time>
      </trkpt>
      <trkpt lat="45.25936" lon="5.24316">
        <ele>512.5</ele>
        <time>2021-05-03T10:04:57Z</time>
      </trkpt>
      <trkpt lat="45.25935" lon="5.24316">
        <ele>512.5</ele>
        <time>2021-05-03T10:04:58Z</time>
      </trkpt>
      <trkpt lat="45.25935" lon="5.24316">
        <ele>512.5</ele>
        <time>2021-05-03T10:04:59Z</time>
      </trkpt>
      <trkpt lat="45.25935" lon="5.24315">
        <ele>512.5</ele>
        <time>2021-05-03T10:05:00Z</time>
      </trkpt>
      <trkpt lat="45.25935" lon="5.24315">
        <ele>512.5</ele>
        <time>2021-05-03T10:05:06Z</time>
      </trkpt>
      <trkpt lat="45.25934" lon="5.24315">
        <ele>512.5</ele>
        <time>2021-05-03T10:05:07Z</time>
      </trkpt>
      <trkpt lat="45.25934" lon="5.24315">
        <ele>512.5</ele>
        <time>2021-05-03T10:05:08Z</time>
      </trkpt>
      <trkpt lat="45.25932" lon="5.24312">
        <ele>512.4</ele>
        <time>2021-05-03T10:05:09Z</time>
      </trkpt>
      <trkpt lat="45.25927" lon="5.24308">
        <ele>512.3</ele>
        <time>2021-05-03T10:05:11Z</time>
      </trkpt>
      <trkpt lat="45.2592" lon="5.24304">
        <ele>512.2</ele>
        <time>2021-05-03T10:05:13Z</time>
      </trkpt>
      <trkpt lat="45.25916" lon="5.24302">
        <ele>512.1</ele>
        <time>2021-05-03T10:05:14Z</time>
      </trkpt>
      <trkpt lat="45.25909" lon="5.24298">
        <ele>511.9</ele>
        <time>2021-05-03T10:05:16Z</time>
      </trkpt>
      <trkpt lat="45.259" lon="5.24293">
        <ele>511.7</ele>
        <time>2021-05-03T10:05:18Z</time>
      </trkpt>
      <trkpt lat="45.25893" lon="5.24288">
        <ele>511.5</ele>
        <time>2021-05-03T10:05:20Z</time>
      </trkpt>
      <trkpt lat="45.25891" lon="5.24287">
        <ele>511.4</ele>
        <time>2021-05-03T10:05:22Z</time>
      </trkpt>
      <trkpt lat="45.25897" lon="5.2428">
        <ele>511.1</ele>
        <time>2021-05-03T10:05:24Z</time>
      </trkpt>
      <trkpt lat="45.25901" lon="5.2427">
        <ele>510.7</ele>
        <time>2021-05-03T10:05:26Z</time>
      </trkpt>
      <trkpt lat="45.25905" lon="5.24263">
        <ele>510.5</ele>
        <time>2021-05-03T10:05:28Z</time>
      </trkpt>
      <trkpt lat="45.25907" lon="5.24264">
        <ele>510.3</ele>
        <time>2021-05-03T10:05:29Z</time>
      </trkpt>
      <trkpt lat="45.25907" lon="5.24269">
        <ele>510.2</ele>
        <time>2021-05-03T10:05:31Z</time>
      </trkpt>
      <trkpt lat="45.259" lon="5.24269">
        <ele>509.9</ele>
        <time>2021-05-03T10:05:33Z</time>
      </trkpt>
      <trkpt lat="45.25895" lon="5.24266">
        <ele>509.6</ele>
        <time>2021-05-03T10:05:34Z</time>
      </trkpt>
      <trkpt lat="45.2589" lon="5.24259">
        <ele>509.2</ele>
        <time>2021-05-03T10:05:36Z</time>
      </trkpt>
      <trkpt lat="45.25885" lon="5.24253">
        <ele>508.9</ele>
        <time>2021-05-03T10:05:37Z</time>
      </trkpt>
      <trkpt lat="45.25879" lon="5.24246">
        <ele>508.5</ele>
        <time>2021-05-03T10:05:39Z</time>
      </trkpt>
      <trkpt lat="45.25867" lon="5.24227">
        <ele>507.6</ele>
        <time>2021-05-03T10:05:41Z</time>
      </trkpt>
      <trkpt lat="45.25865" lon="5.2422">
        <ele>507.3</ele>
        <time>2021-05-03T10:05:42Z</time>
      </trkpt>
      <trkpt lat="45.25863" lon="5.24213">
        <ele>506.7</ele>
        <time>2021-05-03T10:05:43Z</time>
      </trkpt>
      <trkpt lat="45.25855" lon="5.24197">
        <ele>505.1</ele>
        <time>2021-05-03T10:05:45Z</time>
      </trkpt>
      <trkpt lat="45.25852" lon="5.2419">
        <ele>504.5</ele>
        <time>2021-05-03T10:05:46Z</time>
      </trkpt>
      <trkpt lat="45.25851" lon="5.24183">
        <ele>504</ele>
        <time>2021-05-03T10:05:47Z</time>
      </trkpt>
      <trkpt lat="45.2585" lon="5.24176">
        <ele>503.5</ele>
        <time>2021-05-03T10:05:48Z</time>
      </trkpt>
      <trkpt lat="45.25849" lon="5.24171">
        <ele>503.1</ele>
        <time>2021-05-03T10:05:49Z</time>
      </trkpt>
      <trkpt lat="45.25847" lon="5.24165">
        <ele>502.8</ele>
        <time>2021-05-03T10:05:50Z</time>
      </trkpt>
      <trkpt lat="45.25846" lon="5.24159">
        <ele>502.4</ele>
        <time>2021-05-03T10:05:51Z</time>
      </trkpt>
      <trkpt lat="45.25844" lon="5.24156">
        <ele>502.1</ele>
        <time>2021-05-03T10:05:52Z</time>
      </trkpt>
      <trkpt lat="45.25841" lon="5.24151">
        <ele>501.8</ele>
        <time>2021-05-03T10:05:54Z</time>
      </trkpt>
      <trkpt lat="45.2584" lon="5.2415">
        <ele>501.7</ele>
        <time>2021-05-03T10:05:55Z</time>
      </trkpt>
      <trkpt lat="45.25841" lon="5.24146">
        <ele>501.5</ele>
        <time>2021-05-03T10:05:57Z</time>
      </trkpt>
      <trkpt lat="45.2584" lon="5.24144">
        <ele>501.3</ele>
        <time>2021-05-03T10:05:58Z</time>
      </trkpt>
      <trkpt lat="45.25841" lon="5.24141">
        <ele>501.2</ele>
        <time>2021-05-03T10:05:59Z</time>
      </trkpt>
      <trkpt lat="45.25841" lon="5.24137">
        <ele>501.2</ele>
        <time>2021-05-03T10:06:00Z</time>
      </trkpt>
      <trkpt lat="45.2584" lon="5.24134">
        <ele>501.2</ele>
        <time>2021-05-03T10:06:01Z</time>
      </trkpt>
      <trkpt lat="45.25838" lon="5.24129">
        <ele>501.2</ele>
        <time>2021-05-03T10:06:03Z</time>
      </trkpt>
      <trkpt lat="45.25837" lon="5.24126">
        <ele>501.2</ele>
        <time>2021-05-03T10:06:04Z</time>
      </trkpt>
      <trkpt lat="45.25834" lon="5.24122">
        <ele>501.2</ele>
        <time>2021-05-03T10:06:06Z</time>
      </trkpt>
      <trkpt lat="45.25833" lon="5.24118">
        <ele>501.2</ele>
        <time>2021-05-03T10:06:08Z</time>
      </trkpt>
      <trkpt lat="45.25832" lon="5.24118">
        <ele>501.2</ele>
        <time>2021-05-03T10:06:09Z</time>
      </trkpt>
      <trkpt lat="45.25833" lon="5.2412">
        <ele>501.2</ele>
        <time>2021-05-03T10:06:10Z</time>
      </trkpt>
      <trkpt lat="45.25833" lon="5.2412">
        <ele>501.2</ele>
        <time>2021-05-03T10:06:11Z</time>
      </trkpt>
      <trkpt lat="45.25833" lon="5.24121">
        <ele>501.2</ele>
        <time>2021-05-03T10:06:12Z</time>
      </trkpt>
      <trkpt lat="45.25833" lon="5.24121">
        <ele>501.2</ele>
        <time>2021-05-03T10:06:13Z</time>
      </trkpt>
      <trkpt lat="45.25833" lon="5.24121">
        <ele>501.2</ele>
        <time>2021-05-03T10:06:14Z</time>
      </trkpt>
      <trkpt lat="45.25833" lon="5.24122">
        <ele>501.2</ele>
        <time>2021-05-03T10:06:15Z</time>
      </trkpt>
      <trkpt lat="45.25833" lon="5.24122">
        <ele>501.2</ele>
        <time>2021-05-03T10:06:16Z</time>
      </trkpt>
      <trkpt lat="45.25833" lon="5.24122">
        <ele>501.2</ele>
        <time>2021-05-03T10:06:17Z</time>
      </trkpt>
      <trkpt lat="45.25832" lon="5.24122">
        <ele>501.2</ele>
        <time>2021-05-03T10:06:18Z</time>
      </trkpt>
      <trkpt lat="45.2583" lon="5.24118">
        <ele>501.2</ele>
        <time>2021-05-03T10:06:48Z</time>
      </trkpt>
      <trkpt lat="45.25825" lon="5.24116">
        <ele>501.2</ele>
        <time>2021-05-03T10:06:50Z</time>
      </trkpt>
      <trkpt lat="45.25821" lon="5.2412">
        <ele>501.5</ele>
        <time>2021-05-03T10:06:52Z</time>
      </trkpt>
      <trkpt lat="45.25818" lon="5.24123">
        <ele>501.6</ele>
        <time>2021-05-03T10:06:53Z</time>
      </trkpt>
      <trkpt lat="45.25816" lon="5.24127">
        <ele>501.8</ele>
        <time>2021-05-03T10:06:54Z</time>
      </trkpt>
      <trkpt lat="45.25814" lon="5.24129">
        <ele>501.8</ele>
        <time>2021-05-03T10:06:56Z</time>
      </trkpt>
      <trkpt lat="45.25814" lon="5.2413">
        <ele>501.8</ele>
        <time>2021-05-03T10:06:57Z</time>
      </trkpt>
      <trkpt lat="45.25813" lon="5.24136">
        <ele>501.9</ele>
        <time>2021-05-03T10:06:58Z</time>
      </trkpt>
      <trkpt lat="45.2581" lon="5.24141">
        <ele>501.9</ele>
        <time>2021-05-03T10:07:00Z</time>
      </trkpt>
      <trkpt lat="45.25809" lon="5.24142">
        <ele>501.9</ele>
        <time>2021-05-03T10:07:01Z</time>
      </trkpt>
      <trkpt lat="45.25808" lon="5.24144">
        <ele>501.9</ele>
        <time>2021-05-03T10:07:02Z</time>
      </trkpt>
      <trkpt lat="45.25807" lon="5.24145">
        <ele>501.9</ele>
        <time>2021-05-03T10:07:03Z</time>
      </trkpt>
      <trkpt lat="45.25803" lon="5.2415">
        <ele>501.9</ele>
        <time>2021-05-03T10:07:05Z</time>
      </trkpt>
      <trkpt lat="45.25801" lon="5.24153">
        <ele>502</ele>
        <time>2021-05-03T10:07:06Z</time>
      </trkpt>
      <trkpt lat="45.258" lon="5.24154">
        <ele>502</ele>
        <time>2021-05-03T10:07:07Z</time>
      </trkpt>
      <trkpt lat="45.25797" lon="5.24151">
        <ele>502</ele>
        <time>2021-05-03T10:07:08Z</time>
      </trkpt>
      <trkpt lat="45.25794" lon="5.24146">
        <ele>502</ele>
        <time>2021-05-03T10:07:10Z</time>
      </trkpt>
      <trkpt lat="45.25793" lon="5.24144">
        <ele>502</ele>
        <time>2021-05-03T10:07:11Z</time>
      </trkpt>
      <trkpt lat="45.25793" lon="5.24142">
        <ele>502</ele>
        <time>2021-05-03T10:07:12Z</time>
      </trkpt>
      <trkpt lat="45.25792" lon="5.24136">
        <ele>502</ele>
        <time>2021-05-03T10:07:13Z</time>
      </trkpt>
      <trkpt lat="45.25792" lon="5.24132">
        <ele>502</ele>
        <time>2021-05-03T10:07:15Z</time>
      </trkpt>
      <trkpt lat="45.25791" lon="5.2413">
        <ele>502</ele>
        <time>2021-05-03T10:07:16Z</time>
      </trkpt>
      <trkpt lat="45.25791" lon="5.24128">
        <ele>502</ele>
        <time>2021-05-03T10:07:18Z</time>
      </trkpt>
      <trkpt lat="45.25789" lon="5.24127">
        <ele>502</ele>
        <time>2021-05-03T10:07:19Z</time>
      </trkpt>
      <trkpt lat="45.25788" lon="5.24126">
        <ele>502</ele>
        <time>2021-05-03T10:07:20Z</time>
      </trkpt>
      <trkpt lat="45.25787" lon="5.24127">
        <ele>502</ele>
        <time>2021-05-03T10:07:21Z</time>
      </trkpt>
      <trkpt lat="45.25788" lon="5.24131">
        <ele>502</ele>
        <time>2021-05-03T10:07:23Z</time>
      </trkpt>
      <trkpt lat="45.2579" lon="5.24135">
        <ele>502</ele>
        <time>2021-05-03T10:07:24Z</time>
      </trkpt>
      <trkpt lat="45.25793" lon="5.24139">
        <ele>502</ele>
        <time>2021-05-03T10:07:26Z</time>
      </trkpt>
      <trkpt lat="45.25797" lon="5.24142">
        <ele>502</ele>
        <time>2021-05-03T10:07:28Z</time>
      </trkpt>
      <trkpt lat="45.258" lon="5.24144">
        <ele>502</ele>
        <time>2021-05-03T10:07:29Z</time>
      </trkpt>
      <trkpt lat="45.25802" lon="5.24145">
        <ele>501.9</ele>
        <time>2021-05-03T10:07:30Z</time>
      </trkpt>
      <trkpt lat="45.25805" lon="5.24144">
        <ele>501.9</ele>
        <time>2021-05-03T10:07:32Z</time>
      </trkpt>
      <trkpt lat="45.25809" lon="5.24145">
        <ele>501.9</ele>
        <time>2021-05-03T10:07:34Z</time>
      </trkpt>
      <trkpt lat="45.2581" lon="5.24145">
        <ele>501.9</ele>
        <time>2021-05-03T10:07:35Z</time>
      </trkpt>
      <trkpt lat="45.25813" lon="5.24143">
        <ele>501.9</ele>
        <time>2021-05-03T10:07:36Z</time>
      </trkpt>
      <trkpt lat="45.25816" lon="5.24137">
        <ele>501.9</ele>
        <time>2021-05-03T10:07:38Z</time>
      </trkpt>
      <trkpt lat="45.25819" lon="5.24133">
        <ele>501.8</ele>
        <time>2021-05-03T10:07:39Z</time>
      </trkpt>
      <trkpt lat="45.25824" lon="5.24128">
        <ele>501.6</ele>
        <time>2021-05-03T10:07:41Z</time>
      </trkpt>
      <trkpt lat="45.25827" lon="5.24124">
        <ele>501.4</ele>
        <time>2021-05-03T10:07:42Z</time>
      </trkpt>
      <trkpt lat="45.2583" lon="5.2412">
        <ele>501.3</ele>
        <time>2021-05-03T10:07:43Z</time>
      </trkpt>
      <trkpt lat="45.25833" lon="5.24116">
        <ele>501.2</ele>
        <time>2021-05-03T10:07:44Z</time>
      </trkpt>
      <trkpt lat="45.25834" lon="5.24105">
        <ele>500.9</ele>
        <time>2021-05-03T10:07:46Z</time>
      </trkpt>
      <trkpt lat="45.25827" lon="5.24094">
        <ele>500.6</ele>
        <time>2021-05-03T10:07:48Z</time>
      </trkpt>
      <trkpt lat="45.25825" lon="5.24086">
        <ele>500.4</ele>
        <time>2021-05-03T10:07:49Z</time>
      </trkpt>
      <trkpt lat="45.25818" lon="5.24075">
        <ele>500.1</ele>
        <time>2021-05-03T10:07:51Z</time>
      </trkpt>
      <trkpt lat="45.25815" lon="5.24069">
        <ele>499.9</ele>
        <time>2021-05-03T10:07:52Z</time>
      </trkpt>
      <trkpt lat="45.25813" lon="5.24063">
        <ele>499.8</ele>
        <time>2021-05-03T10:07:53Z</time>
      </trkpt>
      <trkpt lat="45.25811" lon="5.24056">
        <ele>499.6</ele>
        <time>2021-05-03T10:07:54Z</time>
      </trkpt>
      <trkpt lat="45.2581" lon="5.24049">
        <ele>499.5</ele>
        <time>2021-05-03T10:07:55Z</time>
      </trkpt>
      <trkpt lat="45.25808" lon="5.24042">
        <ele>499.4</ele>
        <time>2021-05-03T10:07:56Z</time>
      </trkpt>
      <trkpt lat="45.25806" lon="5.24036">
        <ele>499.2</ele>
        <time>2021-05-03T10:07:57Z</time>
      </trkpt>
      <trkpt lat="45.25803" lon="5.24029">
        <ele>499.1</ele>
        <time>2021-05-03T10:07:58Z</time>
      </trkpt>
      <trkpt lat="45.25801" lon="5.24022">
        <ele>499</ele>
        <time>2021-05-03T10:07:59Z</time>
      </trkpt>
      <trkpt lat="45.25799" lon="5.24014">
        <ele>498.9</ele>
        <time>2021-05-03T10:08:00Z</time>
      </trkpt>
      <trkpt lat="45.25797" lon="5.24007">
        <ele>498.8</ele>
        <time>2021-05-03T10:08:01Z</time>
      </trkpt>
      <trkpt lat="45.25795" lon="5.24">
        <ele>498.7</ele>
        <time>2021-05-03T10:08:02Z</time>
      </trkpt>
      <trkpt lat="45.25793" lon="5.23993">
        <ele>498.6</ele>
        <time>2021-05-03T10:08:03Z</time>
      </trkpt>
      <trkpt lat="45.25791" lon="5.23986">
        <ele>498.6</ele>
        <time>2021-05-03T10:08:04Z</time>
      </trkpt>
      <trkpt lat="45.25789" lon="5.23979">
        <ele>498.6</ele>
        <time>2021-05-03T10:08:05Z</time>
      </trkpt>
      <trkpt lat="45.25786" lon="5.23972">
        <ele>498.5</ele>
        <time>2021-05-03T10:08:06Z</time>
      </trkpt>
      <trkpt lat="45.25784" lon="5.23965">
        <ele>498.4</ele>
        <time>2021-05-03T10:08:07Z</time>
      </trkpt>
      <trkpt lat="45.25782" lon="5.23958">
        <ele>498.3</ele>
        <time>2021-05-03T10:08:08Z</time>
      </trkpt>
      <trkpt lat="45.25779" lon="5.23951">
        <ele>498.2</ele>
        <time>2021-05-03T10:08:09Z</time>
      </trkpt>
      <trkpt lat="45.25777" lon="5.23944">
        <ele>498.1</ele>
        <time>2021-05-03T10:08:10Z</time>
      </trkpt>
      <trkpt lat="45.25774" lon="5.23937">
        <ele>498</ele>
        <time>2021-05-03T10:08:11Z</time>
      </trkpt>
      <trkpt lat="45.25771" lon="5.23929">
        <ele>497.9</ele>
        <time>2021-05-03T10:08:12Z</time>
      </trkpt>
      <trkpt lat="45.25769" lon="5.23922">
        <ele>497.8</ele>
        <time>2021-05-03T10:08:13Z</time>
      </trkpt>
      <trkpt lat="45.25767" lon="5.23914">
        <ele>497.7</ele>
        <time>2021-05-03T10:08:14Z</time>
      </trkpt>
      <trkpt lat="45.25764" lon="5.23907">
        <ele>497.6</ele>
        <time>2021-05-03T10:08:15Z</time>
      </trkpt>
      <trkpt lat="45.25762" lon="5.23899">
        <ele>497.6</ele>
        <time>2021-05-03T10:08:16Z</time>
      </trkpt>
      <trkpt lat="45.25759" lon="5.23892">
        <ele>497.5</ele>
        <time>2021-05-03T10:08:17Z</time>
      </trkpt>
      <trkpt lat="45.25757" lon="5.23885">
        <ele>497.5</ele>
        <time>2021-05-03T10:08:18Z</time>
      </trkpt>
      <trkpt lat="45.25754" lon="5.23878">
        <ele>497.4</ele>
        <time>2021-05-03T10:08:19Z</time>
      </trkpt>
      <trkpt lat="45.25752" lon="5.2387">
        <ele>497.4</ele>
        <time>2021-05-03T10:08:20Z</time>
      </trkpt>
      <trkpt lat="45.2575" lon="5.23863">
        <ele>497.4</ele>
        <time>2021-05-03T10:08:21Z</time>
      </trkpt>
      <trkpt lat="45.25748" lon="5.23856">
        <ele>497.4</ele>
        <time>2021-05-03T10:08:22Z</time>
      </trkpt>
      <trkpt lat="45.25746" lon="5.2385">
        <ele>497.4</ele>
        <time>2021-05-03T10:08:23Z</time>
      </trkpt>
      <trkpt lat="45.25745" lon="5.23843">
        <ele>497.4</ele>
        <time>2021-05-03T10:08:24Z</time>
      </trkpt>
      <trkpt lat="45.25743" lon="5.23838">
        <ele>497.5</ele>
        <time>2021-05-03T10:08:25Z</time>
      </trkpt>
      <trkpt lat="45.25741" lon="5.23834">
        <ele>497.5</ele>
        <time>2021-05-03T10:08:26Z</time>
      </trkpt>
      <trkpt lat="45.25738" lon="5.23827">
        <ele>497.6</ele>
        <time>2021-05-03T10:08:27Z</time>
      </trkpt>
      <trkpt lat="45.25736" lon="5.23819">
        <ele>497.8</ele>
        <time>2021-05-03T10:08:28Z</time>
      </trkpt>
      <trkpt lat="45.25734" lon="5.23812">
        <ele>497.9</ele>
        <time>2021-05-03T10:08:29Z</time>
      </trkpt>
      <trkpt lat="45.25732" lon="5.23806">
        <ele>498</ele>
        <time>2021-05-03T10:08:30Z</time>
      </trkpt>
      <trkpt lat="45.25731" lon="5.23802">
        <ele>498.1</ele>
        <time>2021-05-03T10:08:31Z</time>
      </trkpt>
      <trkpt lat="45.2573" lon="5.23797">
        <ele>498.2</ele>
        <time>2021-05-03T10:08:32Z</time>
      </trkpt>
      <trkpt lat="45.25729" lon="5.23792">
        <ele>498.3</ele>
        <time>2021-05-03T10:08:33Z</time>
      </trkpt>
      <trkpt lat="45.25728" lon="5.23788">
        <ele>498.5</ele>
        <time>2021-05-03T10:08:34Z</time>
      </trkpt>
      <trkpt lat="45.25727" lon="5.23784">
        <ele>498.6</ele>
        <time>2021-05-03T10:08:35Z</time>
      </trkpt>
      <trkpt lat="45.25725" lon="5.23779">
        <ele>498.7</ele>
        <time>2021-05-03T10:08:36Z</time>
      </trkpt>
      <trkpt lat="45.25721" lon="5.23771">
        <ele>499</ele>
        <time>2021-05-03T10:08:38Z</time>
      </trkpt>
      <trkpt lat="45.2572" lon="5.23763">
        <ele>499.2</ele>
        <time>2021-05-03T10:08:40Z</time>
      </trkpt>
      <trkpt lat="45.2572" lon="5.23759">
        <ele>499.4</ele>
        <time>2021-05-03T10:08:41Z</time>
      </trkpt>
      <trkpt lat="45.25718" lon="5.23753">
        <ele>499.6</ele>
        <time>2021-05-03T10:08:42Z</time>
      </trkpt>
      <trkpt lat="45.25717" lon="5.23749">
        <ele>499.7</ele>
        <time>2021-05-03T10:08:43Z</time>
      </trkpt>
      <trkpt lat="45.25715" lon="5.23743">
        <ele>500</ele>
        <time>2021-05-03T10:08:45Z</time>
      </trkpt>
      <trkpt lat="45.25712" lon="5.23741">
        <ele>500.1</ele>
        <time>2021-05-03T10:08:46Z</time>
      </trkpt>
      <trkpt lat="45.25713" lon="5.23733">
        <ele>500.4</ele>
        <time>2021-05-03T10:08:47Z</time>
      </trkpt>
      <trkpt lat="45.25713" lon="5.23729">
        <ele>500.6</ele>
        <time>2021-05-03T10:08:49Z</time>
      </trkpt>
      <trkpt lat="45.25713" lon="5.23727">
        <ele>500.7</ele>
        <time>2021-05-03T10:08:50Z</time>
      </trkpt>
      <trkpt lat="45.25712" lon="5.23723">
        <ele>500.8</ele>
        <time>2021-05-03T10:08:51Z</time>
      </trkpt>
      <trkpt lat="45.25711" lon="5.23716">
        <ele>501.1</ele>
        <time>2021-05-03T10:08:52Z</time>
      </trkpt>
      <trkpt lat="45.25709" lon="5.2371">
        <ele>501.3</ele>
        <time>2021-05-03T10:08:54Z</time>
      </trkpt>
      <trkpt lat="45.25708" lon="5.23704">
        <ele>501.5</ele>
        <time>2021-05-03T10:08:56Z</time>
      </trkpt>
      <trkpt lat="45.25707" lon="5.23699">
        <ele>501.7</ele>
        <time>2021-05-03T10:08:57Z</time>
      </trkpt>
      <trkpt lat="45.25706" lon="5.23697">
        <ele>501.8</ele>
        <time>2021-05-03T10:08:58Z</time>
      </trkpt>
      <trkpt lat="45.25706" lon="5.23693">
        <ele>501.9</ele>
        <time>2021-05-03T10:08:59Z</time>
      </trkpt>
      <trkpt lat="45.25705" lon="5.23689">
        <ele>502.1</ele>
        <time>2021-05-03T10:09:00Z</time>
      </trkpt>
      <trkpt lat="45.25704" lon="5.23684">
        <ele>502.3</ele>
        <time>2021-05-03T10:09:01Z</time>
      </trkpt>
      <trkpt lat="45.25703" lon="5.23677">
        <ele>502.6</ele>
        <time>2021-05-03T10:09:03Z</time>
      </trkpt>
      <trkpt lat="45.25703" lon="5.23674">
        <ele>502.6</ele>
        <time>2021-05-03T10:09:04Z</time>
      </trkpt>
      <trkpt lat="45.25702" lon="5.23671">
        <ele>502.7</ele>
        <time>2021-05-03T10:09:05Z</time>
      </trkpt>
      <trkpt lat="45.25701" lon="5.23666">
        <ele>502.8</ele>
        <time>2021-05-03T10:09:07Z</time>
      </trkpt>
      <trkpt lat="45.257" lon="5.2366">
        <ele>502.9</ele>
        <time>2021-05-03T10:09:08Z</time>
      </trkpt>
      <trkpt lat="45.25699" lon="5.23658">
        <ele>503</ele>
        <time>2021-05-03T10:09:09Z</time>
      </trkpt>
      <trkpt lat="45.25698" lon="5.23653">
        <ele>503.1</ele>
        <time>2021-05-03T10:09:10Z</time>
      </trkpt>
      <trkpt lat="45.25697" lon="5.23648">
        <ele>503.2</ele>
        <time>2021-05-03T10:09:11Z</time>
      </trkpt>
      <trkpt lat="45.25696" lon="5.23644">
        <ele>503.3</ele>
        <time>2021-05-03T10:09:12Z</time>
      </trkpt>
      <trkpt lat="45.25695" lon="5.23638">
        <ele>503.4</ele>
        <time>2021-05-03T10:09:14Z</time>
      </trkpt>
      <trkpt lat="45.25693" lon="5.23633">
        <ele>503.5</ele>
        <time>2021-05-03T10:09:15Z</time>
      </trkpt>
      <trkpt lat="45.25692" lon="5.23629">
        <ele>503.6</ele>
        <time>2021-05-03T10:09:16Z</time>
      </trkpt>
      <trkpt lat="45.25691" lon="5.23624">
        <ele>503.7</ele>
        <time>2021-05-03T10:09:18Z</time>
      </trkpt>
      <trkpt lat="45.25689" lon="5.23618">
        <ele>503.9</ele>
        <time>2021-05-03T10:09:20Z</time>
      </trkpt>
      <trkpt lat="45.25687" lon="5.23613">
        <ele>504</ele>
        <time>2021-05-03T10:09:21Z</time>
      </trkpt>
      <trkpt lat="45.25687" lon="5.2361">
        <ele>504.1</ele>
        <time>2021-05-03T10:09:22Z</time>
      </trkpt>
      <trkpt lat="45.25685" lon="5.23603">
        <ele>504.2</ele>
        <time>2021-05-03T10:09:24Z</time>
      </trkpt>
      <trkpt lat="45.25685" lon="5.23599">
        <ele>504.3</ele>
        <time>2021-05-03T10:09:25Z</time>
      </trkpt>
      <trkpt lat="45.25684" lon="5.23594">
        <ele>504.4</ele>
        <time>2021-05-03T10:09:26Z</time>
      </trkpt>
      <trkpt lat="45.25683" lon="5.23592">
        <ele>504.5</ele>
        <time>2021-05-03T10:09:27Z</time>
      </trkpt>
      <trkpt lat="45.25683" lon="5.2359">
        <ele>504.5</ele>
        <time>2021-05-03T10:09:29Z</time>
      </trkpt>
      <trkpt lat="45.25683" lon="5.2359">
        <ele>504.5</ele>
        <time>2021-05-03T10:09:30Z</time>
      </trkpt>
      <trkpt lat="45.25683" lon="5.23592">
        <ele>504.6</ele>
        <time>2021-05-03T10:09:31Z</time>
      </trkpt>
      <trkpt lat="45.25683" lon="5.23593">
        <ele>504.6</ele>
        <time>2021-05-03T10:09:32Z</time>
      </trkpt>
      <trkpt lat="45.25683" lon="5.23594">
        <ele>504.6</ele>
        <time>2021-05-03T10:09:34Z</time>
      </trkpt>
      <trkpt lat="45.25683" lon="5.23594">
        <ele>504.6</ele>
        <time>2021-05-03T10:09:35Z</time>
      </trkpt>
      <trkpt lat="45.25683" lon="5.23594">
        <ele>504.6</ele>
        <time>2021-05-03T10:09:36Z</time>
      </trkpt>
      <trkpt lat="45.25683" lon="5.23594">
        <ele>504.6</ele>
        <time>2021-05-03T10:09:37Z</time>
      </trkpt>
      <trkpt lat="45.25683" lon="5.23594">
        <ele>504.6</ele>
        <time>2021-05-03T10:09:38Z</time>
      </trkpt>
      <trkpt lat="45.25683" lon="5.23595">
        <ele>504.6</ele>
        <time>2021-05-03T10:09:39Z</time>
      </trkpt>
      <trkpt lat="45.2568" lon="5.23594">
        <ele>504.7</ele>
        <time>2021-05-03T10:10:22Z</time>
      </trkpt>
      <trkpt lat="45.25681" lon="5.23594">
        <ele>504.8</ele>
        <time>2021-05-03T10:10:24Z</time>
      </trkpt>
      <trkpt lat="45.2568" lon="5.23594">
        <ele>504.8</ele>
        <time>2021-05-03T10:10:25Z</time>
      </trkpt>
      <trkpt lat="45.2568" lon="5.23596">
        <ele>504.8</ele>
        <time>2021-05-03T10:10:26Z</time>
      </trkpt>
      <trkpt lat="45.25681" lon="5.23605">
        <ele>505</ele>
        <time>2021-05-03T10:10:28Z</time>
      </trkpt>
      <trkpt lat="45.25682" lon="5.23611">
        <ele>505.1</ele>
        <time>2021-05-03T10:10:29Z</time>
      </trkpt>
      <trkpt lat="45.25685" lon="5.23621">
        <ele>504.8</ele>
        <time>2021-05-03T10:10:31Z</time>
      </trkpt>
      <trkpt lat="45.25687" lon="5.23628">
        <ele>504.5</ele>
        <time>2021-05-03T10:10:32Z</time>
      </trkpt>
      <trkpt lat="45.25689" lon="5.23636">
        <ele>504.2</ele>
        <time>2021-05-03T10:10:33Z</time>
      </trkpt>
      <trkpt lat="45.25694" lon="5.2365">
        <ele>503.6</ele>
        <time>2021-05-03T10:10:35Z</time>
      </trkpt>
      <trkpt lat="45.25695" lon="5.23657">
        <ele>503.4</ele>
        <time>2021-05-03T10:10:36Z</time>
      </trkpt>
      <trkpt lat="45.25697" lon="5.23664">
        <ele>503.1</ele>
        <time>2021-05-03T10:10:37Z</time>
      </trkpt>
      <trkpt lat="45.257" lon="5.23671">
        <ele>502.8</ele>
        <time>2021-05-03T10:10:38Z</time>
      </trkpt>
      <trkpt lat="45.25704" lon="5.23683">
        <ele>502.3</ele>
        <time>2021-05-03T10:10:40Z</time>
      </trkpt>
      <trkpt lat="45.25705" lon="5.23691">
        <ele>502</ele>
        <time>2021-05-03T10:10:41Z</time>
      </trkpt>
      <trkpt lat="45.25707" lon="5.237">
        <ele>501.7</ele>
        <time>2021-05-03T10:10:42Z</time>
      </trkpt>
      <trkpt lat="45.25709" lon="5.2371">
        <ele>501.3</ele>
        <time>2021-05-03T10:10:43Z</time>
      </trkpt>
      <trkpt lat="45.25711" lon="5.23719">
        <ele>501</ele>
        <time>2021-05-03T10:10:44Z</time>
      </trkpt>
      <trkpt lat="45.25713" lon="5.23727">
        <ele>500.6</ele>
        <time>2021-05-03T10:10:45Z</time>
      </trkpt>
      <trkpt lat="45.25715" lon="5.23736">
        <ele>500.3</ele>
        <time>2021-05-03T10:10:46Z</time>
      </trkpt>
      <trkpt lat="45.25718" lon="5.23745">
        <ele>499.9</ele>
        <time>2021-05-03T10:10:47Z</time>
      </trkpt>
      <trkpt lat="45.2572" lon="5.23755">
        <ele>499.5</ele>
        <time>2021-05-03T10:10:48Z</time>
      </trkpt>
      <trkpt lat="45.25721" lon="5.23765">
        <ele>499.2</ele>
        <time>2021-05-03T10:10:49Z</time>
      </trkpt>
      <trkpt lat="45.25722" lon="5.23774">
        <ele>498.9</ele>
        <time>2021-05-03T10:10:50Z</time>
      </trkpt>
      <trkpt lat="45.25725" lon="5.23784">
        <ele>498.6</ele>
        <time>2021-05-03T10:10:51Z</time>
      </trkpt>
      <trkpt lat="45.25727" lon="5.23795">
        <ele>498.3</ele>
        <time>2021-05-03T10:10:52Z</time>
      </trkpt>
      <trkpt lat="45.2573" lon="5.23805">
        <ele>498.1</ele>
        <time>2021-05-03T10:10:53Z</time>
      </trkpt>
      <trkpt lat="45.25734" lon="5.23816">
        <ele>497.8</ele>
        <time>2021-05-03T10:10:54Z</time>
      </trkpt>
      <trkpt lat="45.25738" lon="5.23827">
        <ele>497.6</ele>
        <time>2021-05-03T10:10:55Z</time>
      </trkpt>
      <trkpt lat="45.25741" lon="5.23839">
        <ele>497.5</ele>
        <time>2021-05-03T10:10:56Z</time>
      </trkpt>
      <trkpt lat="45.25745" lon="5.2385">
        <ele>497.4</ele>
        <time>2021-05-03T10:10:57Z</time>
      </trkpt>
      <trkpt lat="45.25747" lon="5.2386">
        <ele>497.4</ele>
        <time>2021-05-03T10:10:58Z</time>
      </trkpt>
      <trkpt lat="45.25751" lon="5.2387">
        <ele>497.4</ele>
        <time>2021-05-03T10:10:59Z</time>
      </trkpt>
      <trkpt lat="45.25753" lon="5.23879">
        <ele>497.4</ele>
        <time>2021-05-03T10:11:00Z</time>
      </trkpt>
      <trkpt lat="45.25755" lon="5.23889">
        <ele>497.5</ele>
        <time>2021-05-03T10:11:01Z</time>
      </trkpt>
      <trkpt lat="45.25758" lon="5.23899">
        <ele>497.5</ele>
        <time>2021-05-03T10:11:02Z</time>
      </trkpt>
      <trkpt lat="45.25761" lon="5.23907">
        <ele>497.6</ele>
        <time>2021-05-03T10:11:03Z</time>
      </trkpt>
      <trkpt lat="45.25763" lon="5.23916">
        <ele>497.7</ele>
        <time>2021-05-03T10:11:04Z</time>
      </trkpt>
      <trkpt lat="45.25766" lon="5.23924">
        <ele>497.8</ele>
        <time>2021-05-03T10:11:05Z</time>
      </trkpt>
      <trkpt lat="45.25769" lon="5.23932">
        <ele>497.9</ele>
        <time>2021-05-03T10:11:06Z</time>
      </trkpt>
      <trkpt lat="45.25772" lon="5.2394">
        <ele>498</ele>
        <time>2021-05-03T10:11:07Z</time>
      </trkpt>
      <trkpt lat="45.25775" lon="5.23949">
        <ele>498.2</ele>
        <time>2021-05-03T10:11:08Z</time>
      </trkpt>
      <trkpt lat="45.25778" lon="5.23957">
        <ele>498.3</ele>
        <time>2021-05-03T10:11:09Z</time>
      </trkpt>
      <trkpt lat="45.25781" lon="5.23964">
        <ele>498.4</ele>
        <time>2021-05-03T10:11:10Z</time>
      </trkpt>
      <trkpt lat="45.25784" lon="5.23972">
        <ele>498.5</ele>
        <time>2021-05-03T10:11:11Z</time>
      </trkpt>
      <trkpt lat="45.25787" lon="5.2398">
        <ele>498.6</ele>
        <time>2021-05-03T10:11:12Z</time>
      </trkpt>
      <trkpt lat="45.25789" lon="5.23988">
        <ele>498.6</ele>
        <time>2021-05-03T10:11:13Z</time>
      </trkpt>
      <trkpt lat="45.25792" lon="5.23995">
        <ele>498.6</ele>
        <time>2021-05-03T10:11:14Z</time>
      </trkpt>
      <trkpt lat="45.25794" lon="5.24002">
        <ele>498.7</ele>
        <time>2021-05-03T10:11:15Z</time>
      </trkpt>
      <trkpt lat="45.25797" lon="5.24009">
        <ele>498.8</ele>
        <time>2021-05-03T10:11:16Z</time>
      </trkpt>
      <trkpt lat="45.25799" lon="5.24016">
        <ele>498.9</ele>
        <time>2021-05-03T10:11:17Z</time>
      </trkpt>
      <trkpt lat="45.25801" lon="5.24023">
        <ele>499</ele>
        <time>2021-05-03T10:11:18Z</time>
      </trkpt>
      <trkpt lat="45.25803" lon="5.24029">
        <ele>499.1</ele>
        <time>2021-05-03T10:11:19Z</time>
      </trkpt>
      <trkpt lat="45.25805" lon="5.24036">
        <ele>499.2</ele>
        <time>2021-05-03T10:11:20Z</time>
      </trkpt>
      <trkpt lat="45.25807" lon="5.24042">
        <ele>499.4</ele>
        <time>2021-05-03T10:11:21Z</time>
      </trkpt>
      <trkpt lat="45.2581" lon="5.24048">
        <ele>499.5</ele>
        <time>2021-05-03T10:11:22Z</time>
      </trkpt>
      <trkpt lat="45.25812" lon="5.24055">
        <ele>499.6</ele>
        <time>2021-05-03T10:11:23Z</time>
      </trkpt>
      <trkpt lat="45.25813" lon="5.24061">
        <ele>499.8</ele>
        <time>2021-05-03T10:11:24Z</time>
      </trkpt>
      <trkpt lat="45.25815" lon="5.24068">
        <ele>499.9</ele>
        <time>2021-05-03T10:11:25Z</time>
      </trkpt>
      <trkpt lat="45.25817" lon="5.24074">
        <ele>500.1</ele>
        <time>2021-05-03T10:11:26Z</time>
      </trkpt>
      <trkpt lat="45.25819" lon="5.2408">
        <ele>500.2</ele>
        <time>2021-05-03T10:11:27Z</time>
      </trkpt>
      <trkpt lat="45.25821" lon="5.24086">
        <ele>500.4</ele>
        <time>2021-05-03T10:11:28Z</time>
      </trkpt>
      <trkpt lat="45.25822" lon="5.2409">
        <ele>500.5</ele>
        <time>2021-05-03T10:11:29Z</time>
      </trkpt>
      <trkpt lat="45.25824" lon="5.24095">
        <ele>500.6</ele>
        <time>2021-05-03T10:11:30Z</time>
      </trkpt>
      <trkpt lat="45.25825" lon="5.24099">
        <ele>500.7</ele>
        <time>2021-05-03T10:11:31Z</time>
      </trkpt>
      <trkpt lat="45.25826" lon="5.24104">
        <ele>500.8</ele>
        <time>2021-05-03T10:11:32Z</time>
      </trkpt>
      <trkpt lat="45.25827" lon="5.24108">
        <ele>500.9</ele>
        <time>2021-05-03T10:11:33Z</time>
      </trkpt>
      <trkpt lat="45.25828" lon="5.24113">
        <ele>501</ele>
        <time>2021-05-03T10:11:34Z</time>
      </trkpt>
      <trkpt lat="45.2583" lon="5.24117">
        <ele>501.1</ele>
        <time>2021-05-03T10:11:35Z</time>
      </trkpt>
      <trkpt lat="45.25832" lon="5.24121">
        <ele>501.2</ele>
        <time>2021-05-03T10:11:36Z</time>
      </trkpt>
      <trkpt lat="45.25832" lon="5.24123">
        <ele>501.2</ele>
        <time>2021-05-03T10:11:37Z</time>
      </trkpt>
      <trkpt lat="45.25835" lon="5.24126">
        <ele>501.2</ele>
        <time>2021-05-03T10:11:38Z</time>
      </trkpt>
      <trkpt lat="45.25837" lon="5.24129">
        <ele>501.2</ele>
        <time>2021-05-03T10:11:39Z</time>
      </trkpt>
      <trkpt lat="45.25839" lon="5.24131">
        <ele>501.2</ele>
        <time>2021-05-03T10:11:40Z</time>
      </trkpt>
      <trkpt lat="45.25843" lon="5.24131">
        <ele>500.9</ele>
        <time>2021-05-03T10:11:41Z</time>
      </trkpt>
      <trkpt lat="45.25845" lon="5.2413">
        <ele>500.8</ele>
        <time>2021-05-03T10:11:42Z</time>
      </trkpt>
      <trkpt lat="45.25848" lon="5.24128">
        <ele>500.7</ele>
        <time>2021-05-03T10:11:43Z</time>
      </trkpt>
      <trkpt lat="45.25851" lon="5.24125">
        <ele>500.5</ele>
        <time>2021-05-03T10:11:44Z</time>
      </trkpt>
      <trkpt lat="45.25854" lon="5.24119">
        <ele>500.4</ele>
        <time>2021-05-03T10:11:45Z</time>
      </trkpt>
      <trkpt lat="45.25856" lon="5.24112">
        <ele>500.1</ele>
        <time>2021-05-03T10:11:46Z</time>
      </trkpt>
      <trkpt lat="45.25859" lon="5.24105">
        <ele>499.9</ele>
        <time>2021-05-03T10:11:47Z</time>
      </trkpt>
      <trkpt lat="45.25862" lon="5.24098">
        <ele>499.7</ele>
        <time>2021-05-03T10:11:48Z</time>
      </trkpt>
      <trkpt lat="45.25865" lon="5.24091">
        <ele>499.6</ele>
        <time>2021-05-03T10:11:49Z</time>
      </trkpt>
      <trkpt lat="45.25868" lon="5.24085">
        <ele>499.4</ele>
        <time>2021-05-03T10:11:50Z</time>
      </trkpt>
      <trkpt lat="45.25871" lon="5.24078">
        <ele>499.3</ele>
        <time>2021-05-03T10:11:51Z</time>
      </trkpt>
      <trkpt lat="45.25874" lon="5.24071">
        <ele>499.2</ele>
        <time>2021-05-03T10:11:52Z</time>
      </trkpt>
      <trkpt lat="45.25877" lon="5.24064">
        <ele>498.9</ele>
        <time>2021-05-03T10:11:53Z</time>
      </trkpt>
      <trkpt lat="45.25879" lon="5.24056">
        <ele>498.7</ele>
        <time>2021-05-03T10:11:54Z</time>
      </trkpt>
      <trkpt lat="45.25881" lon="5.24049">
        <ele>498.4</ele>
        <time>2021-05-03T10:11:55Z</time>
      </trkpt>
      <trkpt lat="45.25883" lon="5.24042">
        <ele>498.2</ele>
        <time>2021-05-03T10:11:56Z</time>
      </trkpt>
      <trkpt lat="45.25886" lon="5.24035">
        <ele>497.9</ele>
        <time>2021-05-03T10:11:57Z</time>
      </trkpt>
      <trkpt lat="45.25889" lon="5.24027">
        <ele>497.6</ele>
        <time>2021-05-03T10:11:58Z</time>
      </trkpt>
      <trkpt lat="45.25891" lon="5.24019">
        <ele>497.3</ele>
        <time>2021-05-03T10:11:59Z</time>
      </trkpt>
      <trkpt lat="45.25895" lon="5.24012">
        <ele>497.1</ele>
        <time>2021-05-03T10:12:00Z</time>
      </trkpt>
      <trkpt lat="45.25899" lon="5.24005">
        <ele>496.8</ele>
        <time>2021-05-03T10:12:01Z</time>
      </trkpt>
      <trkpt lat="45.25901" lon="5.23997">
        <ele>496.7</ele>
        <time>2021-05-03T10:12:02Z</time>
      </trkpt>
      <trkpt lat="45.25905" lon="5.2399">
        <ele>496.5</ele>
        <time>2021-05-03T10:12:03Z</time>
      </trkpt>
      <trkpt lat="45.25908" lon="5.23981">
        <ele>496.4</ele>
        <time>2021-05-03T10:12:04Z</time>
      </trkpt>
      <trkpt lat="45.25912" lon="5.23973">
        <ele>496.3</ele>
        <time>2021-05-03T10:12:05Z</time>
      </trkpt>
      <trkpt lat="45.25915" lon="5.23966">
        <ele>496.3</ele>
        <time>2021-05-03T10:12:06Z</time>
      </trkpt>
      <trkpt lat="45.25918" lon="5.23959">
        <ele>496.2</ele>
        <time>2021-05-03T10:12:07Z</time>
      </trkpt>
      <trkpt lat="45.25921" lon="5.23951">
        <ele>496.2</ele>
        <time>2021-05-03T10:12:08Z</time>
      </trkpt>
      <trkpt lat="45.25923" lon="5.23943">
        <ele>496.1</ele>
        <time>2021-05-03T10:12:09Z</time>
      </trkpt>
      <trkpt lat="45.25926" lon="5.23935">
        <ele>496.1</ele>
        <time>2021-05-03T10:12:10Z</time>
      </trkpt>
      <trkpt lat="45.25928" lon="5.23928">
        <ele>496.1</ele>
        <time>2021-05-03T10:12:11Z</time>
      </trkpt>
      <trkpt lat="45.2593" lon="5.23921">
        <ele>496.1</ele>
        <time>2021-05-03T10:12:12Z</time>
      </trkpt>
      <trkpt lat="45.25932" lon="5.23913">
        <ele>496.1</ele>
        <time>2021-05-03T10:12:13Z</time>
      </trkpt>
      <trkpt lat="45.25935" lon="5.23906">
        <ele>496.2</ele>
        <time>2021-05-03T10:12:14Z</time>
      </trkpt>
      <trkpt lat="45.25937" lon="5.23899">
        <ele>496.2</ele>
        <time>2021-05-03T10:12:15Z</time>
      </trkpt>
      <trkpt lat="45.2594" lon="5.23892">
        <ele>496.3</ele>
        <time>2021-05-03T10:12:16Z</time>
      </trkpt>
      <trkpt lat="45.25943" lon="5.23886">
        <ele>496.5</ele>
        <time>2021-05-03T10:12:17Z</time>
      </trkpt>
      <trkpt lat="45.25945" lon="5.23879">
        <ele>496.6</ele>
        <time>2021-05-03T10:12:18Z</time>
      </trkpt>
      <trkpt lat="45.25948" lon="5.23873">
        <ele>496.7</ele>
        <time>2021-05-03T10:12:19Z</time>
      </trkpt>
      <trkpt lat="45.25951" lon="5.23867">
        <ele>496.9</ele>
        <time>2021-05-03T10:12:20Z</time>
      </trkpt>
      <trkpt lat="45.25954" lon="5.23862">
        <ele>497.1</ele>
        <time>2021-05-03T10:12:21Z</time>
      </trkpt>
      <trkpt lat="45.25957" lon="5.23856">
        <ele>497.2</ele>
        <time>2021-05-03T10:12:22Z</time>
      </trkpt>
      <trkpt lat="45.2596" lon="5.23851">
        <ele>497.4</ele>
        <time>2021-05-03T10:12:23Z</time>
      </trkpt>
      <trkpt lat="45.25962" lon="5.23849">
        <ele>497.5</ele>
        <time>2021-05-03T10:12:24Z</time>
      </trkpt>
      <trkpt lat="45.25965" lon="5.23845">
        <ele>497.6</ele>
        <time>2021-05-03T10:12:25Z</time>
      </trkpt>
      <trkpt lat="45.25967" lon="5.23842">
        <ele>497.6</ele>
        <time>2021-05-03T10:12:26Z</time>
      </trkpt>
      <trkpt lat="45.2597" lon="5.23839">
        <ele>497.7</ele>
        <time>2021-05-03T10:12:27Z</time>
      </trkpt>
      <trkpt lat="45.25973" lon="5.23836">
        <ele>497.8</ele>
        <time>2021-05-03T10:12:28Z</time>
      </trkpt>
      <trkpt lat="45.25976" lon="5.23834">
        <ele>497.8</ele>
        <time>2021-05-03T10:12:29Z</time>
      </trkpt>
      <trkpt lat="45.25979" lon="5.23831">
        <ele>497.8</ele>
        <time>2021-05-03T10:12:30Z</time>
      </trkpt>
      <trkpt lat="45.25977" lon="5.2383">
        <ele>497.8</ele>
        <time>2021-05-03T10:12:31Z</time>
      </trkpt>
      <trkpt lat="45.25981" lon="5.23827">
        <ele>497.9</ele>
        <time>2021-05-03T10:12:32Z</time>
      </trkpt>
      <trkpt lat="45.25989" lon="5.23822">
        <ele>497.9</ele>
        <time>2021-05-03T10:12:33Z</time>
      </trkpt>
      <trkpt lat="45.25993" lon="5.23821">
        <ele>497.9</ele>
        <time>2021-05-03T10:12:34Z</time>
      </trkpt>
      <trkpt lat="45.26003" lon="5.23817">
        <ele>497.9</ele>
        <time>2021-05-03T10:12:36Z</time>
      </trkpt>
      <trkpt lat="45.26014" lon="5.23812">
        <ele>497.9</ele>
        <time>2021-05-03T10:12:38Z</time>
      </trkpt>
      <trkpt lat="45.26019" lon="5.23808">
        <ele>497.8</ele>
        <time>2021-05-03T10:12:39Z</time>
      </trkpt>
      <trkpt lat="45.26023" lon="5.23805">
        <ele>497.8</ele>
        <time>2021-05-03T10:12:40Z</time>
      </trkpt>
      <trkpt lat="45.26027" lon="5.23801">
        <ele>497.8</ele>
        <time>2021-05-03T10:12:41Z</time>
      </trkpt>
      <trkpt lat="45.26029" lon="5.23796">
        <ele>497.7</ele>
        <time>2021-05-03T10:12:42Z</time>
      </trkpt>
      <trkpt lat="45.2603" lon="5.23789">
        <ele>497.7</ele>
        <time>2021-05-03T10:12:43Z</time>
      </trkpt>
      <trkpt lat="45.26029" lon="5.23782">
        <ele>497.6</ele>
        <time>2021-05-03T10:12:44Z</time>
      </trkpt>
      <trkpt lat="45.26028" lon="5.23774">
        <ele>497.5</ele>
        <time>2021-05-03T10:12:45Z</time>
      </trkpt>
      <trkpt lat="45.26026" lon="5.23767">
        <ele>497.4</ele>
        <time>2021-05-03T10:12:46Z</time>
      </trkpt>
      <trkpt lat="45.26024" lon="5.23759">
        <ele>497.2</ele>
        <time>2021-05-03T10:12:47Z</time>
      </trkpt>
      <trkpt lat="45.26022" lon="5.23751">
        <ele>497.1</ele>
        <time>2021-05-03T10:12:48Z</time>
      </trkpt>
      <trkpt lat="45.2602" lon="5.23743">
        <ele>496.9</ele>
        <time>2021-05-03T10:12:49Z</time>
      </trkpt>
      <trkpt lat="45.26018" lon="5.23735">
        <ele>496.8</ele>
        <time>2021-05-03T10:12:50Z</time>
      </trkpt>
      <trkpt lat="45.26016" lon="5.23727">
        <ele>496.6</ele>
        <time>2021-05-03T10:12:51Z</time>
      </trkpt>
      <trkpt lat="45.26014" lon="5.23718">
        <ele>496.5</ele>
        <time>2021-05-03T10:12:52Z</time>
      </trkpt>
      <trkpt lat="45.26012" lon="5.23709">
        <ele>496.3</ele>
        <time>2021-05-03T10:12:53Z</time>
      </trkpt>
      <trkpt lat="45.2601" lon="5.23699">
        <ele>496.2</ele>
        <time>2021-05-03T10:12:54Z</time>
      </trkpt>
      <trkpt lat="45.26008" lon="5.2369">
        <ele>496.1</ele>
        <time>2021-05-03T10:12:55Z</time>
      </trkpt>
      <trkpt lat="45.26005" lon="5.2368">
        <ele>495.9</ele>
        <time>2021-05-03T10:12:56Z</time>
      </trkpt>
      <trkpt lat="45.26003" lon="5.2367">
        <ele>495.8</ele>
        <time>2021-05-03T10:12:57Z</time>
      </trkpt>
      <trkpt lat="45.26001" lon="5.23659">
        <ele>495.7</ele>
        <time>2021-05-03T10:12:58Z</time>
      </trkpt>
      <trkpt lat="45.26" lon="5.23648">
        <ele>495.7</ele>
        <time>2021-05-03T10:12:59Z</time>
      </trkpt>
      <trkpt lat="45.25999" lon="5.23637">
        <ele>495.6</ele>
        <time>2021-05-03T10:13:00Z</time>
      </trkpt>
      <trkpt lat="45.25998" lon="5.23627">
        <ele>495.6</ele>
        <time>2021-05-03T10:13:01Z</time>
      </trkpt>
      <trkpt lat="45.25997" lon="5.23617">
        <ele>495.6</ele>
        <time>2021-05-03T10:13:02Z</time>
      </trkpt>
      <trkpt lat="45.25996" lon="5.23607">
        <ele>495.7</ele>
        <time>2021-05-03T10:13:03Z</time>
      </trkpt>
      <trkpt lat="45.25995" lon="5.23597">
        <ele>495.7</ele>
        <time>2021-05-03T10:13:04Z</time>
      </trkpt>
      <trkpt lat="45.25995" lon="5.23587">
        <ele>495.7</ele>
        <time>2021-05-03T10:13:05Z</time>
      </trkpt>
      <trkpt lat="45.25995" lon="5.23577">
        <ele>495.8</ele>
        <time>2021-05-03T10:13:06Z</time>
      </trkpt>
      <trkpt lat="45.25994" lon="5.23568">
        <ele>495.9</ele>
        <time>2021-05-03T10:13:07Z</time>
      </trkpt>
      <trkpt lat="45.25994" lon="5.23559">
        <ele>495.9</ele>
        <time>2021-05-03T10:13:08Z</time>
      </trkpt>
      <trkpt lat="45.25994" lon="5.23549">
        <ele>496</ele>
        <time>2021-05-03T10:13:09Z</time>
      </trkpt>
      <trkpt lat="45.25994" lon="5.2354">
        <ele>496.1</ele>
        <time>2021-05-03T10:13:10Z</time>
      </trkpt>
      <trkpt lat="45.25994" lon="5.23531">
        <ele>496.2</ele>
        <time>2021-05-03T10:13:11Z</time>
      </trkpt>
      <trkpt lat="45.25993" lon="5.23523">
        <ele>496.3</ele>
        <time>2021-05-03T10:13:12Z</time>
      </trkpt>
      <trkpt lat="45.25993" lon="5.23514">
        <ele>496.4</ele>
        <time>2021-05-03T10:13:13Z</time>
      </trkpt>
      <trkpt lat="45.25992" lon="5.23505">
        <ele>496.5</ele>
        <time>2021-05-03T10:13:14Z</time>
      </trkpt>
      <trkpt lat="45.25992" lon="5.23496">
        <ele>496.6</ele>
        <time>2021-05-03T10:13:15Z</time>
      </trkpt>
      <trkpt lat="45.25992" lon="5.23488">
        <ele>496.7</ele>
        <time>2021-05-03T10:13:16Z</time>
      </trkpt>
      <trkpt lat="45.25992" lon="5.23479">
        <ele>496.8</ele>
        <time>2021-05-03T10:13:17Z</time>
      </trkpt>
      <trkpt lat="45.25991" lon="5.23471">
        <ele>496.9</ele>
        <time>2021-05-03T10:13:18Z</time>
      </trkpt>
      <trkpt lat="45.25991" lon="5.23463">
        <ele>497</ele>
        <time>2021-05-03T10:13:19Z</time>
      </trkpt>
      <trkpt lat="45.25991" lon="5.23455">
        <ele>497.1</ele>
        <time>2021-05-03T10:13:20Z</time>
      </trkpt>
      <trkpt lat="45.25991" lon="5.23447">
        <ele>497.2</ele>
        <time>2021-05-03T10:13:21Z</time>
      </trkpt>
      <trkpt lat="45.2599" lon="5.2344">
        <ele>497.3</ele>
        <time>2021-05-03T10:13:22Z</time>
      </trkpt>
      <trkpt lat="45.2599" lon="5.23432">
        <ele>497.4</ele>
        <time>2021-05-03T10:13:23Z</time>
      </trkpt>
      <trkpt lat="45.2599" lon="5.23425">
        <ele>497.5</ele>
        <time>2021-05-03T10:13:24Z</time>
      </trkpt>
      <trkpt lat="45.2599" lon="5.23418">
        <ele>497.6</ele>
        <time>2021-05-03T10:13:25Z</time>
      </trkpt>
      <trkpt lat="45.2599" lon="5.23411">
        <ele>497.7</ele>
        <time>2021-05-03T10:13:26Z</time>
      </trkpt>
      <trkpt lat="45.25989" lon="5.23403">
        <ele>497.8</ele>
        <time>2021-05-03T10:13:27Z</time>
      </trkpt>
      <trkpt lat="45.25989" lon="5.23396">
        <ele>497.9</ele>
        <time>2021-05-03T10:13:28Z</time>
      </trkpt>
      <trkpt lat="45.25989" lon="5.23388">
        <ele>498</ele>
        <time>2021-05-03T10:13:29Z</time>
      </trkpt>
      <trkpt lat="45.25989" lon="5.23381">
        <ele>498.1</ele>
        <time>2021-05-03T10:13:30Z</time>
      </trkpt>
      <trkpt lat="45.25989" lon="5.23373">
        <ele>498.2</ele>
        <time>2021-05-03T10:13:31Z</time>
      </trkpt>
      <trkpt lat="45.25989" lon="5.23366">
        <ele>498.2</ele>
        <time>2021-05-03T10:13:32Z</time>
      </trkpt>
      <trkpt lat="45.25989" lon="5.23358">
        <ele>498.3</ele>
        <time>2021-05-03T10:13:33Z</time>
      </trkpt>
      <trkpt lat="45.25989" lon="5.23351">
        <ele>498.4</ele>
        <time>2021-05-03T10:13:34Z</time>
      </trkpt>
      <trkpt lat="45.25989" lon="5.23344">
        <ele>498.4</ele>
        <time>2021-05-03T10:13:35Z</time>
      </trkpt>
      <trkpt lat="45.2599" lon="5.23337">
        <ele>498.5</ele>
        <time>2021-05-03T10:13:36Z</time>
      </trkpt>
      <trkpt lat="45.25991" lon="5.23331">
        <ele>498.5</ele>
        <time>2021-05-03T10:13:37Z</time>
      </trkpt>
      <trkpt lat="45.25991" lon="5.23323">
        <ele>498.6</ele>
        <time>2021-05-03T10:13:38Z</time>
      </trkpt>
      <trkpt lat="45.25991" lon="5.23316">
        <ele>498.6</ele>
        <time>2021-05-03T10:13:39Z</time>
      </trkpt>
      <trkpt lat="45.25992" lon="5.23309">
        <ele>498.7</ele>
        <time>2021-05-03T10:13:40Z</time>
      </trkpt>
      <trkpt lat="45.25992" lon="5.23301">
        <ele>498.8</ele>
        <time>2021-05-03T10:13:41Z</time>
      </trkpt>
      <trkpt lat="45.25993" lon="5.23294">
        <ele>498.8</ele>
        <time>2021-05-03T10:13:42Z</time>
      </trkpt>
      <trkpt lat="45.25994" lon="5.23287">
        <ele>498.9</ele>
        <time>2021-05-03T10:13:43Z</time>
      </trkpt>
      <trkpt lat="45.25995" lon="5.2328">
        <ele>498.9</ele>
        <time>2021-05-03T10:13:44Z</time>
      </trkpt>
      <trkpt lat="45.25996" lon="5.23273">
        <ele>499</ele>
        <time>2021-05-03T10:13:45Z</time>
      </trkpt>
      <trkpt lat="45.25997" lon="5.23266">
        <ele>499</ele>
        <time>2021-05-03T10:13:46Z</time>
      </trkpt>
      <trkpt lat="45.25997" lon="5.23258">
        <ele>499.1</ele>
        <time>2021-05-03T10:13:47Z</time>
      </trkpt>
      <trkpt lat="45.25998" lon="5.23251">
        <ele>499.1</ele>
        <time>2021-05-03T10:13:48Z</time>
      </trkpt>
      <trkpt lat="45.25999" lon="5.23243">
        <ele>499.1</ele>
        <time>2021-05-03T10:13:49Z</time>
      </trkpt>
      <trkpt lat="45.26001" lon="5.23236">
        <ele>499.1</ele>
        <time>2021-05-03T10:13:50Z</time>
      </trkpt>
      <trkpt lat="45.26002" lon="5.23229">
        <ele>499</ele>
        <time>2021-05-03T10:13:51Z</time>
      </trkpt>
      <trkpt lat="45.26004" lon="5.23222">
        <ele>499</ele>
        <time>2021-05-03T10:13:52Z</time>
      </trkpt>
      <trkpt lat="45.26005" lon="5.23215">
        <ele>499</ele>
        <time>2021-05-03T10:13:53Z</time>
      </trkpt>
      <trkpt lat="45.26006" lon="5.23207">
        <ele>499</ele>
        <time>2021-05-03T10:13:54Z</time>
      </trkpt>
      <trkpt lat="45.26008" lon="5.23199">
        <ele>498.9</ele>
        <time>2021-05-03T10:13:55Z</time>
      </trkpt>
      <trkpt lat="45.2601" lon="5.23192">
        <ele>498.8</ele>
        <time>2021-05-03T10:13:56Z</time>
      </trkpt>
      <trkpt lat="45.26012" lon="5.23184">
        <ele>498.8</ele>
        <time>2021-05-03T10:13:57Z</time>
      </trkpt>
      <trkpt lat="45.26014" lon="5.23177">
        <ele>498.8</ele>
        <time>2021-05-03T10:13:58Z</time>
      </trkpt>
      <trkpt lat="45.26016" lon="5.23169">
        <ele>498.7</ele>
        <time>2021-05-03T10:13:59Z</time>
      </trkpt>
      <trkpt lat="45.26018" lon="5.23161">
        <ele>498.7</ele>
        <time>2021-05-03T10:14:00Z</time>
      </trkpt>
      <trkpt lat="45.2602" lon="5.23153">
        <ele>498.6</ele>
        <time>2021-05-03T10:14:01Z</time>
      </trkpt>
      <trkpt lat="45.26022" lon="5.23145">
        <ele>498.6</ele>
        <time>2021-05-03T10:14:02Z</time>
      </trkpt>
      <trkpt lat="45.26024" lon="5.23137">
        <ele>498.6</ele>
        <time>2021-05-03T10:14:03Z</time>
      </trkpt>
      <trkpt lat="45.26026" lon="5.23129">
        <ele>498.5</ele>
        <time>2021-05-03T10:14:04Z</time>
      </trkpt>
      <trkpt lat="45.26028" lon="5.23121">
        <ele>498.5</ele>
        <time>2021-05-03T10:14:05Z</time>
      </trkpt>
      <trkpt lat="45.26031" lon="5.23112">
        <ele>498.4</ele>
        <time>2021-05-03T10:14:06Z</time>
      </trkpt>
      <trkpt lat="45.26033" lon="5.23104">
        <ele>498.4</ele>
        <time>2021-05-03T10:14:07Z</time>
      </trkpt>
      <trkpt lat="45.26036" lon="5.23095">
        <ele>498.3</ele>
        <time>2021-05-03T10:14:08Z</time>
      </trkpt>
      <trkpt lat="45.26038" lon="5.23087">
        <ele>498.3</ele>
        <time>2021-05-03T10:14:09Z</time>
      </trkpt>
      <trkpt lat="45.2604" lon="5.23079">
        <ele>498.2</ele>
        <time>2021-05-03T10:14:10Z</time>
      </trkpt>
      <trkpt lat="45.26042" lon="5.23072">
        <ele>498.2</ele>
        <time>2021-05-03T10:14:11Z</time>
      </trkpt>
      <trkpt lat="45.26043" lon="5.23065">
        <ele>498.1</ele>
        <time>2021-05-03T10:14:12Z</time>
      </trkpt>
      <trkpt lat="45.26045" lon="5.23057">
        <ele>498.1</ele>
        <time>2021-05-03T10:14:13Z</time>
      </trkpt>
      <trkpt lat="45.26047" lon="5.23049">
        <ele>498</ele>
        <time>2021-05-03T10:14:14Z</time>
      </trkpt>
      <trkpt lat="45.2605" lon="5.23041">
        <ele>498</ele>
        <time>2021-05-03T10:14:15Z</time>
      </trkpt>
      <trkpt lat="45.26052" lon="5.23032">
        <ele>497.9</ele>
        <time>2021-05-03T10:14:16Z</time>
      </trkpt>
      <trkpt lat="45.26055" lon="5.23024">
        <ele>497.8</ele>
        <time>2021-05-03T10:14:17Z</time>
      </trkpt>
      <trkpt lat="45.26057" lon="5.23016">
        <ele>497.8</ele>
        <time>2021-05-03T10:14:18Z</time>
      </trkpt>
      <trkpt lat="45.2606" lon="5.23008">
        <ele>497.8</ele>
        <time>2021-05-03T10:14:19Z</time>
      </trkpt>
      <trkpt lat="45.26062" lon="5.22999">
        <ele>497.7</ele>
        <time>2021-05-03T10:14:20Z</time>
      </trkpt>
      <trkpt lat="45.26064" lon="5.22991">
        <ele>497.7</ele>
        <time>2021-05-03T10:14:21Z</time>
      </trkpt>
      <trkpt lat="45.26067" lon="5.22982">
        <ele>497.7</ele>
        <time>2021-05-03T10:14:22Z</time>
      </trkpt>
      <trkpt lat="45.26069" lon="5.22974">
        <ele>497.7</ele>
        <time>2021-05-03T10:14:23Z</time>
      </trkpt>
      <trkpt lat="45.26071" lon="5.22966">
        <ele>497.7</ele>
        <time>2021-05-03T10:14:24Z</time>
      </trkpt>
      <trkpt lat="45.26073" lon="5.22958">
        <ele>497.7</ele>
        <time>2021-05-03T10:14:25Z</time>
      </trkpt>
      <trkpt lat="45.26075" lon="5.22949">
        <ele>497.7</ele>
        <time>2021-05-03T10:14:26Z</time>
      </trkpt>
      <trkpt lat="45.26077" lon="5.2294">
        <ele>497.7</ele>
        <time>2021-05-03T10:14:27Z</time>
      </trkpt>
      <trkpt lat="45.2608" lon="5.22931">
        <ele>497.7</ele>
        <time>2021-05-03T10:14:28Z</time>
      </trkpt>
      <trkpt lat="45.26083" lon="5.22922">
        <ele>497.7</ele>
        <time>2021-05-03T10:14:29Z</time>
      </trkpt>
      <trkpt lat="45.26085" lon="5.22913">
        <ele>497.6</ele>
        <time>2021-05-03T10:14:30Z</time>
      </trkpt>
      <trkpt lat="45.26088" lon="5.22905">
        <ele>497.6</ele>
        <time>2021-05-03T10:14:31Z</time>
      </trkpt>
      <trkpt lat="45.26091" lon="5.22897">
        <ele>497.6</ele>
        <time>2021-05-03T10:14:32Z</time>
      </trkpt>
      <trkpt lat="45.26094" lon="5.22888">
        <ele>497.5</ele>
        <time>2021-05-03T10:14:33Z</time>
      </trkpt>
      <trkpt lat="45.26095" lon="5.2288">
        <ele>497.5</ele>
        <time>2021-05-03T10:14:34Z</time>
      </trkpt>
      <trkpt lat="45.26097" lon="5.22871">
        <ele>497.4</ele>
        <time>2021-05-03T10:14:35Z</time>
      </trkpt>
      <trkpt lat="45.26099" lon="5.22863">
        <ele>497.4</ele>
        <time>2021-05-03T10:14:36Z</time>
      </trkpt>
      <trkpt lat="45.26102" lon="5.22855">
        <ele>497.2</ele>
        <time>2021-05-03T10:14:37Z</time>
      </trkpt>
      <trkpt lat="45.26104" lon="5.22846">
        <ele>497.1</ele>
        <time>2021-05-03T10:14:38Z</time>
      </trkpt>
      <trkpt lat="45.26107" lon="5.22837">
        <ele>496.9</ele>
        <time>2021-05-03T10:14:39Z</time>
      </trkpt>
      <trkpt lat="45.26109" lon="5.22828">
        <ele>496.7</ele>
        <time>2021-05-03T10:14:40Z</time>
      </trkpt>
      <trkpt lat="45.26112" lon="5.22819">
        <ele>496.5</ele>
        <time>2021-05-03T10:14:41Z</time>
      </trkpt>
      <trkpt lat="45.26114" lon="5.22809">
        <ele>496.3</ele>
        <time>2021-05-03T10:14:42Z</time>
      </trkpt>
      <trkpt lat="45.26116" lon="5.22799">
        <ele>496.1</ele>
        <time>2021-05-03T10:14:43Z</time>
      </trkpt>
      <trkpt lat="45.26119" lon="5.22789">
        <ele>495.8</ele>
        <time>2021-05-03T10:14:44Z</time>
      </trkpt>
      <trkpt lat="45.26121" lon="5.22778">
        <ele>495.6</ele>
        <time>2021-05-03T10:14:45Z</time>
      </trkpt>
      <trkpt lat="45.26124" lon="5.22768">
        <ele>495.3</ele>
        <time>2021-05-03T10:14:46Z</time>
      </trkpt>
      <trkpt lat="45.26127" lon="5.22757">
        <ele>495</ele>
        <time>2021-05-03T10:14:47Z</time>
      </trkpt>
      <trkpt lat="45.2613" lon="5.22746">
        <ele>494.7</ele>
        <time>2021-05-03T10:14:48Z</time>
      </trkpt>
      <trkpt lat="45.26133" lon="5.22735">
        <ele>494.4</ele>
        <time>2021-05-03T10:14:49Z</time>
      </trkpt>
      <trkpt lat="45.26136" lon="5.22724">
        <ele>494.1</ele>
        <time>2021-05-03T10:14:50Z</time>
      </trkpt>
      <trkpt lat="45.26139" lon="5.22713">
        <ele>493.8</ele>
        <time>2021-05-03T10:14:51Z</time>
      </trkpt>
      <trkpt lat="45.26142" lon="5.22701">
        <ele>493.6</ele>
        <time>2021-05-03T10:14:52Z</time>
      </trkpt>
      <trkpt lat="45.26145" lon="5.22689">
        <ele>493.3</ele>
        <time>2021-05-03T10:14:53Z</time>
      </trkpt>
      <trkpt lat="45.26148" lon="5.22677">
        <ele>493</ele>
        <time>2021-05-03T10:14:54Z</time>
      </trkpt>
      <trkpt lat="45.26152" lon="5.22665">
        <ele>492.7</ele>
        <time>2021-05-03T10:14:55Z</time>
      </trkpt>
      <trkpt lat="45.26156" lon="5.22653">
        <ele>492.4</ele>
        <time>2021-05-03T10:14:56Z</time>
      </trkpt>
      <trkpt lat="45.2616" lon="5.2264">
        <ele>492.1</ele>
        <time>2021-05-03T10:14:57Z</time>
      </trkpt>
      <trkpt lat="45.26164" lon="5.22627">
        <ele>491.7</ele>
        <time>2021-05-03T10:14:58Z</time>
      </trkpt>
      <trkpt lat="45.26168" lon="5.22615">
        <ele>491.4</ele>
        <time>2021-05-03T10:14:59Z</time>
      </trkpt>
      <trkpt lat="45.26171" lon="5.22602">
        <ele>491.1</ele>
        <time>2021-05-03T10:15:00Z</time>
      </trkpt>
      <trkpt lat="45.26175" lon="5.22589">
        <ele>490.7</ele>
        <time>2021-05-03T10:15:01Z</time>
      </trkpt>
      <trkpt lat="45.26178" lon="5.22577">
        <ele>490.3</ele>
        <time>2021-05-03T10:15:02Z</time>
      </trkpt>
      <trkpt lat="45.26181" lon="5.22564">
        <ele>490</ele>
        <time>2021-05-03T10:15:03Z</time>
      </trkpt>
      <trkpt lat="45.26185" lon="5.22551">
        <ele>489.6</ele>
        <time>2021-05-03T10:15:04Z</time>
      </trkpt>
      <trkpt lat="45.26188" lon="5.22538">
        <ele>489.3</ele>
        <time>2021-05-03T10:15:05Z</time>
      </trkpt>
      <trkpt lat="45.26191" lon="5.22526">
        <ele>489</ele>
        <time>2021-05-03T10:15:06Z</time>
      </trkpt>
      <trkpt lat="45.26193" lon="5.22514">
        <ele>488.8</ele>
        <time>2021-05-03T10:15:07Z</time>
      </trkpt>
      <trkpt lat="45.26195" lon="5.22503">
        <ele>488.5</ele>
        <time>2021-05-03T10:15:08Z</time>
      </trkpt>
      <trkpt lat="45.26196" lon="5.22491">
        <ele>488.3</ele>
        <time>2021-05-03T10:15:09Z</time>
      </trkpt>
      <trkpt lat="45.26198" lon="5.22479">
        <ele>488</ele>
        <time>2021-05-03T10:15:10Z</time>
      </trkpt>
      <trkpt lat="45.26201" lon="5.22467">
        <ele>487.7</ele>
        <time>2021-05-03T10:15:11Z</time>
      </trkpt>
      <trkpt lat="45.26203" lon="5.22456">
        <ele>487.5</ele>
        <time>2021-05-03T10:15:12Z</time>
      </trkpt>
      <trkpt lat="45.26205" lon="5.22444">
        <ele>487.2</ele>
        <time>2021-05-03T10:15:13Z</time>
      </trkpt>
      <trkpt lat="45.26207" lon="5.22433">
        <ele>486.9</ele>
        <time>2021-05-03T10:15:14Z</time>
      </trkpt>
      <trkpt lat="45.26209" lon="5.22422">
        <ele>486.7</ele>
        <time>2021-05-03T10:15:15Z</time>
      </trkpt>
      <trkpt lat="45.2621" lon="5.2241">
        <ele>486.5</ele>
        <time>2021-05-03T10:15:16Z</time>
      </trkpt>
      <trkpt lat="45.26209" lon="5.22399">
        <ele>486.2</ele>
        <time>2021-05-03T10:15:17Z</time>
      </trkpt>
      <trkpt lat="45.26208" lon="5.22386">
        <ele>486</ele>
        <time>2021-05-03T10:15:18Z</time>
      </trkpt>
      <trkpt lat="45.26207" lon="5.22373">
        <ele>485.6</ele>
        <time>2021-05-03T10:15:19Z</time>
      </trkpt>
      <trkpt lat="45.26206" lon="5.22361">
        <ele>485.3</ele>
        <time>2021-05-03T10:15:20Z</time>
      </trkpt>
      <trkpt lat="45.26205" lon="5.2235">
        <ele>485.1</ele>
        <time>2021-05-03T10:15:21Z</time>
      </trkpt>
      <trkpt lat="45.26204" lon="5.22338">
        <ele>484.7</ele>
        <time>2021-05-03T10:15:22Z</time>
      </trkpt>
      <trkpt lat="45.26202" lon="5.22325">
        <ele>484.4</ele>
        <time>2021-05-03T10:15:23Z</time>
      </trkpt>
      <trkpt lat="45.262" lon="5.22312">
        <ele>484.1</ele>
        <time>2021-05-03T10:15:24Z</time>
      </trkpt>
      <trkpt lat="45.26198" lon="5.22299">
        <ele>483.8</ele>
        <time>2021-05-03T10:15:25Z</time>
      </trkpt>
      <trkpt lat="45.26196" lon="5.22286">
        <ele>483.5</ele>
        <time>2021-05-03T10:15:26Z</time>
      </trkpt>
      <trkpt lat="45.26194" lon="5.22273">
        <ele>483.3</ele>
        <time>2021-05-03T10:15:27Z</time>
      </trkpt>
      <trkpt lat="45.26192" lon="5.2226">
        <ele>483</ele>
        <time>2021-05-03T10:15:28Z</time>
      </trkpt>
      <trkpt lat="45.26191" lon="5.22247">
        <ele>482.8</ele>
        <time>2021-05-03T10:15:29Z</time>
      </trkpt>
      <trkpt lat="45.26189" lon="5.22235">
        <ele>482.6</ele>
        <time>2021-05-03T10:15:30Z</time>
      </trkpt>
      <trkpt lat="45.26188" lon="5.22221">
        <ele>482.4</ele>
        <time>2021-05-03T10:15:31Z</time>
      </trkpt>
      <trkpt lat="45.26187" lon="5.22209">
        <ele>482.3</ele>
        <time>2021-05-03T10:15:32Z</time>
      </trkpt>
      <trkpt lat="45.26186" lon="5.22197">
        <ele>482.2</ele>
        <time>2021-05-03T10:15:33Z</time>
      </trkpt>
      <trkpt lat="45.26184" lon="5.22185">
        <ele>482.1</ele>
        <time>2021-05-03T10:15:34Z</time>
      </trkpt>
      <trkpt lat="45.26182" lon="5.22173">
        <ele>482</ele>
        <time>2021-05-03T10:15:35Z</time>
      </trkpt>
      <trkpt lat="45.2618" lon="5.22162">
        <ele>482</ele>
        <time>2021-05-03T10:15:36Z</time>
      </trkpt>
      <trkpt lat="45.26179" lon="5.22151">
        <ele>482</ele>
        <time>2021-05-03T10:15:37Z</time>
      </trkpt>
      <trkpt lat="45.26177" lon="5.22139">
        <ele>481.9</ele>
        <time>2021-05-03T10:15:38Z</time>
      </trkpt>
      <trkpt lat="45.26175" lon="5.22128">
        <ele>481.8</ele>
        <time>2021-05-03T10:15:39Z</time>
      </trkpt>
      <trkpt lat="45.26174" lon="5.22116">
        <ele>481.7</ele>
        <time>2021-05-03T10:15:40Z</time>
      </trkpt>
      <trkpt lat="45.26173" lon="5.22104">
        <ele>481.6</ele>
        <time>2021-05-03T10:15:41Z</time>
      </trkpt>
      <trkpt lat="45.26171" lon="5.22092">
        <ele>481.5</ele>
        <time>2021-05-03T10:15:42Z</time>
      </trkpt>
      <trkpt lat="45.2617" lon="5.2208">
        <ele>481.3</ele>
        <time>2021-05-03T10:15:43Z</time>
      </trkpt>
      <trkpt lat="45.2617" lon="5.22067">
        <ele>481.1</ele>
        <time>2021-05-03T10:15:44Z</time>
      </trkpt>
      <trkpt lat="45.26169" lon="5.22055">
        <ele>481</ele>
        <time>2021-05-03T10:15:45Z</time>
      </trkpt>
      <trkpt lat="45.26169" lon="5.22043">
        <ele>480.8</ele>
        <time>2021-05-03T10:15:46Z</time>
      </trkpt>
      <trkpt lat="45.26169" lon="5.22031">
        <ele>480.5</ele>
        <time>2021-05-03T10:15:47Z</time>
      </trkpt>
      <trkpt lat="45.26169" lon="5.22019">
        <ele>480.3</ele>
        <time>2021-05-03T10:15:48Z</time>
      </trkpt>
      <trkpt lat="45.26169" lon="5.22006">
        <ele>480</ele>
        <time>2021-05-03T10:15:49Z</time>
      </trkpt>
      <trkpt lat="45.26169" lon="5.21994">
        <ele>479.8</ele>
        <time>2021-05-03T10:15:50Z</time>
      </trkpt>
      <trkpt lat="45.26169" lon="5.21982">
        <ele>479.5</ele>
        <time>2021-05-03T10:15:51Z</time>
      </trkpt>
      <trkpt lat="45.26169" lon="5.2197">
        <ele>479.2</ele>
        <time>2021-05-03T10:15:52Z</time>
      </trkpt>
      <trkpt lat="45.2617" lon="5.21957">
        <ele>479</ele>
        <time>2021-05-03T10:15:53Z</time>
      </trkpt>
      <trkpt lat="45.2617" lon="5.21945">
        <ele>478.7</ele>
        <time>2021-05-03T10:15:54Z</time>
      </trkpt>
      <trkpt lat="45.2617" lon="5.21933">
        <ele>478.4</ele>
        <time>2021-05-03T10:15:55Z</time>
      </trkpt>
      <trkpt lat="45.2617" lon="5.2192">
        <ele>478.1</ele>
        <time>2021-05-03T10:15:56Z</time>
      </trkpt>
      <trkpt lat="45.2617" lon="5.21907">
        <ele>477.8</ele>
        <time>2021-05-03T10:15:57Z</time>
      </trkpt>
      <trkpt lat="45.2617" lon="5.21894">
        <ele>477.5</ele>
        <time>2021-05-03T10:15:58Z</time>
      </trkpt>
      <trkpt lat="45.26171" lon="5.21881">
        <ele>477.3</ele>
        <time>2021-05-03T10:15:59Z</time>
      </trkpt>
      <trkpt lat="45.26172" lon="5.21868">
        <ele>477</ele>
        <time>2021-05-03T10:16:00Z</time>
      </trkpt>
      <trkpt lat="45.26173" lon="5.21855">
        <ele>476.7</ele>
        <time>2021-05-03T10:16:01Z</time>
      </trkpt>
      <trkpt lat="45.26174" lon="5.21841">
        <ele>476.4</ele>
        <time>2021-05-03T10:16:02Z</time>
      </trkpt>
      <trkpt lat="45.26175" lon="5.21828">
        <ele>476.1</ele>
        <time>2021-05-03T10:16:03Z</time>
      </trkpt>
      <trkpt lat="45.26176" lon="5.21814">
        <ele>475.9</ele>
        <time>2021-05-03T10:16:04Z</time>
      </trkpt>
      <trkpt lat="45.26177" lon="5.21801">
        <ele>475.7</ele>
        <time>2021-05-03T10:16:05Z</time>
      </trkpt>
      <trkpt lat="45.26179" lon="5.21788">
        <ele>475.5</ele>
        <time>2021-05-03T10:16:06Z</time>
      </trkpt>
      <trkpt lat="45.2618" lon="5.21775">
        <ele>475.3</ele>
        <time>2021-05-03T10:16:07Z</time>
      </trkpt>
      <trkpt lat="45.26181" lon="5.21761">
        <ele>475.2</ele>
        <time>2021-05-03T10:16:08Z</time>
      </trkpt>
      <trkpt lat="45.26182" lon="5.21748">
        <ele>475.1</ele>
        <time>2021-05-03T10:16:09Z</time>
      </trkpt>
      <trkpt lat="45.26184" lon="5.21736">
        <ele>475</ele>
        <time>2021-05-03T10:16:10Z</time>
      </trkpt>
      <trkpt lat="45.26185" lon="5.21723">
        <ele>474.9</ele>
        <time>2021-05-03T10:16:11Z</time>
      </trkpt>
      <trkpt lat="45.26186" lon="5.21711">
        <ele>474.8</ele>
        <time>2021-05-03T10:16:12Z</time>
      </trkpt>
      <trkpt lat="45.26188" lon="5.21699">
        <ele>474.7</ele>
        <time>2021-05-03T10:16:13Z</time>
      </trkpt>
      <trkpt lat="45.26189" lon="5.21687">
        <ele>474.6</ele>
        <time>2021-05-03T10:16:14Z</time>
      </trkpt>
      <trkpt lat="45.2619" lon="5.21675">
        <ele>474.5</ele>
        <time>2021-05-03T10:16:15Z</time>
      </trkpt>
      <trkpt lat="45.26191" lon="5.21663">
        <ele>474.4</ele>
        <time>2021-05-03T10:16:16Z</time>
      </trkpt>
      <trkpt lat="45.26193" lon="5.21652">
        <ele>474.4</ele>
        <time>2021-05-03T10:16:17Z</time>
      </trkpt>
      <trkpt lat="45.26195" lon="5.21641">
        <ele>474.3</ele>
        <time>2021-05-03T10:16:18Z</time>
      </trkpt>
      <trkpt lat="45.26196" lon="5.2163">
        <ele>474.2</ele>
        <time>2021-05-03T10:16:19Z</time>
      </trkpt>
      <trkpt lat="45.26198" lon="5.21619">
        <ele>474.2</ele>
        <time>2021-05-03T10:16:20Z</time>
      </trkpt>
      <trkpt lat="45.26199" lon="5.21608">
        <ele>474.1</ele>
        <time>2021-05-03T10:16:21Z</time>
      </trkpt>
      <trkpt lat="45.262" lon="5.21597">
        <ele>474.1</ele>
        <time>2021-05-03T10:16:22Z</time>
      </trkpt>
      <trkpt lat="45.26201" lon="5.21586">
        <ele>474</ele>
        <time>2021-05-03T10:16:23Z</time>
      </trkpt>
      <trkpt lat="45.26202" lon="5.21576">
        <ele>474</ele>
        <time>2021-05-03T10:16:24Z</time>
      </trkpt>
      <trkpt lat="45.26203" lon="5.21566">
        <ele>473.9</ele>
        <time>2021-05-03T10:16:25Z</time>
      </trkpt>
      <trkpt lat="45.26205" lon="5.21555">
        <ele>473.9</ele>
        <time>2021-05-03T10:16:26Z</time>
      </trkpt>
      <trkpt lat="45.26206" lon="5.21545">
        <ele>473.9</ele>
        <time>2021-05-03T10:16:27Z</time>
      </trkpt>
      <trkpt lat="45.26207" lon="5.21534">
        <ele>473.9</ele>
        <time>2021-05-03T10:16:28Z</time>
      </trkpt>
      <trkpt lat="45.26208" lon="5.21524">
        <ele>473.9</ele>
        <time>2021-05-03T10:16:29Z</time>
      </trkpt>
      <trkpt lat="45.26209" lon="5.21514">
        <ele>473.9</ele>
        <time>2021-05-03T10:16:30Z</time>
      </trkpt>
      <trkpt lat="45.2621" lon="5.21504">
        <ele>473.9</ele>
        <time>2021-05-03T10:16:31Z</time>
      </trkpt>
      <trkpt lat="45.26211" lon="5.21493">
        <ele>473.9</ele>
        <time>2021-05-03T10:16:32Z</time>
      </trkpt>
      <trkpt lat="45.26213" lon="5.21483">
        <ele>473.9</ele>
        <time>2021-05-03T10:16:33Z</time>
      </trkpt>
      <trkpt lat="45.26214" lon="5.21474">
        <ele>473.9</ele>
        <time>2021-05-03T10:16:34Z</time>
      </trkpt>
      <trkpt lat="45.26216" lon="5.21464">
        <ele>473.8</ele>
        <time>2021-05-03T10:16:35Z</time>
      </trkpt>
      <trkpt lat="45.26217" lon="5.21455">
        <ele>473.8</ele>
        <time>2021-05-03T10:16:36Z</time>
      </trkpt>
      <trkpt lat="45.2622" lon="5.21446">
        <ele>473.7</ele>
        <time>2021-05-03T10:16:37Z</time>
      </trkpt>
      <trkpt lat="45.26223" lon="5.21437">
        <ele>473.6</ele>
        <time>2021-05-03T10:16:38Z</time>
      </trkpt>
      <trkpt lat="45.26226" lon="5.21428">
        <ele>473.5</ele>
        <time>2021-05-03T10:16:39Z</time>
      </trkpt>
      <trkpt lat="45.26228" lon="5.2142">
        <ele>473.3</ele>
        <time>2021-05-03T10:16:40Z</time>
      </trkpt>
      <trkpt lat="45.26231" lon="5.2141">
        <ele>473.2</ele>
        <time>2021-05-03T10:16:41Z</time>
      </trkpt>
      <trkpt lat="45.26233" lon="5.21402">
        <ele>473</ele>
        <time>2021-05-03T10:16:42Z</time>
      </trkpt>
      <trkpt lat="45.26235" lon="5.21393">
        <ele>472.9</ele>
        <time>2021-05-03T10:16:43Z</time>
      </trkpt>
      <trkpt lat="45.26237" lon="5.21384">
        <ele>472.8</ele>
        <time>2021-05-03T10:16:44Z</time>
      </trkpt>
      <trkpt lat="45.26241" lon="5.21374">
        <ele>472.6</ele>
        <time>2021-05-03T10:16:45Z</time>
      </trkpt>
      <trkpt lat="45.26244" lon="5.21365">
        <ele>472.5</ele>
        <time>2021-05-03T10:16:46Z</time>
      </trkpt>
      <trkpt lat="45.26246" lon="5.21356">
        <ele>472.3</ele>
        <time>2021-05-03T10:16:47Z</time>
      </trkpt>
      <trkpt lat="45.26247" lon="5.21347">
        <ele>472.2</ele>
        <time>2021-05-03T10:16:48Z</time>
      </trkpt>
      <trkpt lat="45.2625" lon="5.21337">
        <ele>472.1</ele>
        <time>2021-05-03T10:16:49Z</time>
      </trkpt>
      <trkpt lat="45.26252" lon="5.21328">
        <ele>471.9</ele>
        <time>2021-05-03T10:16:50Z</time>
      </trkpt>
      <trkpt lat="45.26255" lon="5.2132">
        <ele>471.8</ele>
        <time>2021-05-03T10:16:51Z</time>
      </trkpt>
      <trkpt lat="45.26257" lon="5.21311">
        <ele>471.7</ele>
        <time>2021-05-03T10:16:52Z</time>
      </trkpt>
      <trkpt lat="45.26259" lon="5.21302">
        <ele>471.6</ele>
        <time>2021-05-03T10:16:53Z</time>
      </trkpt>
      <trkpt lat="45.26261" lon="5.21293">
        <ele>471.6</ele>
        <time>2021-05-03T10:16:54Z</time>
      </trkpt>
      <trkpt lat="45.26263" lon="5.21284">
        <ele>471.5</ele>
        <time>2021-05-03T10:16:55Z</time>
      </trkpt>
      <trkpt lat="45.26265" lon="5.21275">
        <ele>471.4</ele>
        <time>2021-05-03T10:16:56Z</time>
      </trkpt>
      <trkpt lat="45.26267" lon="5.21266">
        <ele>471.3</ele>
        <time>2021-05-03T10:16:57Z</time>
      </trkpt>
      <trkpt lat="45.26268" lon="5.21257">
        <ele>471.3</ele>
        <time>2021-05-03T10:16:58Z</time>
      </trkpt>
      <trkpt lat="45.2627" lon="5.21249">
        <ele>471.3</ele>
        <time>2021-05-03T10:16:59Z</time>
      </trkpt>
      <trkpt lat="45.26272" lon="5.2124">
        <ele>471.3</ele>
        <time>2021-05-03T10:17:00Z</time>
      </trkpt>
      <trkpt lat="45.26275" lon="5.21232">
        <ele>471.3</ele>
        <time>2021-05-03T10:17:01Z</time>
      </trkpt>
      <trkpt lat="45.26276" lon="5.21224">
        <ele>471.3</ele>
        <time>2021-05-03T10:17:02Z</time>
      </trkpt>
      <trkpt lat="45.26278" lon="5.21215">
        <ele>471.3</ele>
        <time>2021-05-03T10:17:03Z</time>
      </trkpt>
      <trkpt lat="45.2628" lon="5.21207">
        <ele>471.3</ele>
        <time>2021-05-03T10:17:04Z</time>
      </trkpt>
      <trkpt lat="45.26282" lon="5.21199">
        <ele>471.4</ele>
        <time>2021-05-03T10:17:05Z</time>
      </trkpt>
      <trkpt lat="45.26285" lon="5.21191">
        <ele>471.4</ele>
        <time>2021-05-03T10:17:06Z</time>
      </trkpt>
      <trkpt lat="45.26287" lon="5.21184">
        <ele>471.4</ele>
        <time>2021-05-03T10:17:07Z</time>
      </trkpt>
      <trkpt lat="45.26289" lon="5.21176">
        <ele>471.5</ele>
        <time>2021-05-03T10:17:08Z</time>
      </trkpt>
      <trkpt lat="45.26291" lon="5.21169">
        <ele>471.6</ele>
        <time>2021-05-03T10:17:09Z</time>
      </trkpt>
      <trkpt lat="45.26293" lon="5.21161">
        <ele>471.6</ele>
        <time>2021-05-03T10:17:10Z</time>
      </trkpt>
      <trkpt lat="45.26294" lon="5.21154">
        <ele>471.7</ele>
        <time>2021-05-03T10:17:11Z</time>
      </trkpt>
      <trkpt lat="45.26296" lon="5.21147">
        <ele>471.7</ele>
        <time>2021-05-03T10:17:12Z</time>
      </trkpt>
      <trkpt lat="45.26298" lon="5.2114">
        <ele>471.7</ele>
        <time>2021-05-03T10:17:13Z</time>
      </trkpt>
      <trkpt lat="45.26298" lon="5.21133">
        <ele>471.7</ele>
        <time>2021-05-03T10:17:14Z</time>
      </trkpt>
      <trkpt lat="45.26299" lon="5.21125">
        <ele>471.7</ele>
        <time>2021-05-03T10:17:15Z</time>
      </trkpt>
      <trkpt lat="45.26299" lon="5.21118">
        <ele>471.7</ele>
        <time>2021-05-03T10:17:16Z</time>
      </trkpt>
      <trkpt lat="45.26299" lon="5.2111">
        <ele>471.6</ele>
        <time>2021-05-03T10:17:17Z</time>
      </trkpt>
      <trkpt lat="45.263" lon="5.21102">
        <ele>471.6</ele>
        <time>2021-05-03T10:17:18Z</time>
      </trkpt>
      <trkpt lat="45.263" lon="5.21094">
        <ele>471.5</ele>
        <time>2021-05-03T10:17:19Z</time>
      </trkpt>
      <trkpt lat="45.26299" lon="5.21086">
        <ele>471.3</ele>
        <time>2021-05-03T10:17:20Z</time>
      </trkpt>
      <trkpt lat="45.26299" lon="5.21077">
        <ele>471.2</ele>
        <time>2021-05-03T10:17:21Z</time>
      </trkpt>
      <trkpt lat="45.26299" lon="5.21069">
        <ele>471.1</ele>
        <time>2021-05-03T10:17:22Z</time>
      </trkpt>
      <trkpt lat="45.26299" lon="5.21061">
        <ele>470.9</ele>
        <time>2021-05-03T10:17:23Z</time>
      </trkpt>
      <trkpt lat="45.26298" lon="5.21052">
        <ele>470.8</ele>
        <time>2021-05-03T10:17:24Z</time>
      </trkpt>
      <trkpt lat="45.26298" lon="5.21044">
        <ele>470.7</ele>
        <time>2021-05-03T10:17:25Z</time>
      </trkpt>
      <trkpt lat="45.26297" lon="5.21035">
        <ele>470.5</ele>
        <time>2021-05-03T10:17:26Z</time>
      </trkpt>
      <trkpt lat="45.26297" lon="5.21026">
        <ele>470.4</ele>
        <time>2021-05-03T10:17:27Z</time>
      </trkpt>
      <trkpt lat="45.26297" lon="5.21017">
        <ele>470.2</ele>
        <time>2021-05-03T10:17:28Z</time>
      </trkpt>
      <trkpt lat="45.26296" lon="5.21008">
        <ele>470.1</ele>
        <time>2021-05-03T10:17:29Z</time>
      </trkpt>
      <trkpt lat="45.26296" lon="5.20999">
        <ele>470</ele>
        <time>2021-05-03T10:17:30Z</time>
      </trkpt>
      <trkpt lat="45.26296" lon="5.20989">
        <ele>469.8</ele>
        <time>2021-05-03T10:17:31Z</time>
      </trkpt>
      <trkpt lat="45.26295" lon="5.2098">
        <ele>469.7</ele>
        <time>2021-05-03T10:17:32Z</time>
      </trkpt>
      <trkpt lat="45.26295" lon="5.2097">
        <ele>469.6</ele>
        <time>2021-05-03T10:17:33Z</time>
      </trkpt>
      <trkpt lat="45.26294" lon="5.20961">
        <ele>469.5</ele>
        <time>2021-05-03T10:17:34Z</time>
      </trkpt>
      <trkpt lat="45.26294" lon="5.20952">
        <ele>469.4</ele>
        <time>2021-05-03T10:17:35Z</time>
      </trkpt>
      <trkpt lat="45.26293" lon="5.20942">
        <ele>469.3</ele>
        <time>2021-05-03T10:17:36Z</time>
      </trkpt>
      <trkpt lat="45.26293" lon="5.20933">
        <ele>469.2</ele>
        <time>2021-05-03T10:17:37Z</time>
      </trkpt>
      <trkpt lat="45.26292" lon="5.20924">
        <ele>469.1</ele>
        <time>2021-05-03T10:17:38Z</time>
      </trkpt>
      <trkpt lat="45.26292" lon="5.20914">
        <ele>469</ele>
        <time>2021-05-03T10:17:39Z</time>
      </trkpt>
      <trkpt lat="45.26291" lon="5.20905">
        <ele>468.9</ele>
        <time>2021-05-03T10:17:40Z</time>
      </trkpt>
      <trkpt lat="45.2629" lon="5.20896">
        <ele>468.8</ele>
        <time>2021-05-03T10:17:41Z</time>
      </trkpt>
      <trkpt lat="45.2629" lon="5.20887">
        <ele>468.7</ele>
        <time>2021-05-03T10:17:42Z</time>
      </trkpt>
      <trkpt lat="45.26289" lon="5.20878">
        <ele>468.5</ele>
        <time>2021-05-03T10:17:43Z</time>
      </trkpt>
      <trkpt lat="45.26289" lon="5.20869">
        <ele>468.4</ele>
        <time>2021-05-03T10:17:44Z</time>
      </trkpt>
      <trkpt lat="45.26288" lon="5.2086">
        <ele>468.3</ele>
        <time>2021-05-03T10:17:45Z</time>
      </trkpt>
      <trkpt lat="45.26288" lon="5.2085">
        <ele>468.2</ele>
        <time>2021-05-03T10:17:46Z</time>
      </trkpt>
      <trkpt lat="45.26287" lon="5.20841">
        <ele>468</ele>
        <time>2021-05-03T10:17:47Z</time>
      </trkpt>
      <trkpt lat="45.26287" lon="5.20832">
        <ele>467.9</ele>
        <time>2021-05-03T10:17:48Z</time>
      </trkpt>
      <trkpt lat="45.26286" lon="5.20823">
        <ele>467.8</ele>
        <time>2021-05-03T10:17:49Z</time>
      </trkpt>
      <trkpt lat="45.26285" lon="5.20814">
        <ele>467.7</ele>
        <time>2021-05-03T10:17:50Z</time>
      </trkpt>
      <trkpt lat="45.26285" lon="5.20805">
        <ele>467.6</ele>
        <time>2021-05-03T10:17:51Z</time>
      </trkpt>
      <trkpt lat="45.26284" lon="5.20795">
        <ele>467.5</ele>
        <time>2021-05-03T10:17:52Z</time>
      </trkpt>
      <trkpt lat="45.26284" lon="5.20786">
        <ele>467.4</ele>
        <time>2021-05-03T10:17:53Z</time>
      </trkpt>
      <trkpt lat="45.26284" lon="5.20778">
        <ele>467.4</ele>
        <time>2021-05-03T10:17:54Z</time>
      </trkpt>
      <trkpt lat="45.26283" lon="5.20769">
        <ele>467.3</ele>
        <time>2021-05-03T10:17:55Z</time>
      </trkpt>
      <trkpt lat="45.26283" lon="5.2076">
        <ele>467.3</ele>
        <time>2021-05-03T10:17:56Z</time>
      </trkpt>
      <trkpt lat="45.26283" lon="5.20751">
        <ele>467.3</ele>
        <time>2021-05-03T10:17:57Z</time>
      </trkpt>
      <trkpt lat="45.26282" lon="5.20742">
        <ele>467.2</ele>
        <time>2021-05-03T10:17:58Z</time>
      </trkpt>
      <trkpt lat="45.26281" lon="5.20733">
        <ele>467.2</ele>
        <time>2021-05-03T10:17:59Z</time>
      </trkpt>
      <trkpt lat="45.26281" lon="5.20724">
        <ele>467.2</ele>
        <time>2021-05-03T10:18:00Z</time>
      </trkpt>
      <trkpt lat="45.26281" lon="5.20715">
        <ele>467.2</ele>
        <time>2021-05-03T10:18:01Z</time>
      </trkpt>
      <trkpt lat="45.2628" lon="5.20707">
        <ele>467.2</ele>
        <time>2021-05-03T10:18:02Z</time>
      </trkpt>
      <trkpt lat="45.2628" lon="5.20698">
        <ele>467.2</ele>
        <time>2021-05-03T10:18:03Z</time>
      </trkpt>
      <trkpt lat="45.26279" lon="5.2069">
        <ele>467.2</ele>
        <time>2021-05-03T10:18:04Z</time>
      </trkpt>
      <trkpt lat="45.26279" lon="5.20681">
        <ele>467.3</ele>
        <time>2021-05-03T10:18:05Z</time>
      </trkpt>
      <trkpt lat="45.26278" lon="5.20673">
        <ele>467.3</ele>
        <time>2021-05-03T10:18:06Z</time>
      </trkpt>
      <trkpt lat="45.26278" lon="5.20665">
        <ele>467.3</ele>
        <time>2021-05-03T10:18:07Z</time>
      </trkpt>
      <trkpt lat="45.26277" lon="5.20657">
        <ele>467.3</ele>
        <time>2021-05-03T10:18:08Z</time>
      </trkpt>
      <trkpt lat="45.26277" lon="5.2065">
        <ele>467.4</ele>
        <time>2021-05-03T10:18:09Z</time>
      </trkpt>
      <trkpt lat="45.26277" lon="5.20642">
        <ele>467.4</ele>
        <time>2021-05-03T10:18:10Z</time>
      </trkpt>
      <trkpt lat="45.26277" lon="5.20634">
        <ele>467.5</ele>
        <time>2021-05-03T10:18:11Z</time>
      </trkpt>
      <trkpt lat="45.26277" lon="5.20626">
        <ele>467.5</ele>
        <time>2021-05-03T10:18:12Z</time>
      </trkpt>
      <trkpt lat="45.26276" lon="5.20619">
        <ele>467.6</ele>
        <time>2021-05-03T10:18:13Z</time>
      </trkpt>
      <trkpt lat="45.26276" lon="5.20612">
        <ele>467.6</ele>
        <time>2021-05-03T10:18:14Z</time>
      </trkpt>
      <trkpt lat="45.26275" lon="5.20604">
        <ele>467.7</ele>
        <time>2021-05-03T10:18:15Z</time>
      </trkpt>
      <trkpt lat="45.26275" lon="5.20597">
        <ele>467.8</ele>
        <time>2021-05-03T10:18:16Z</time>
      </trkpt>
      <trkpt lat="45.26274" lon="5.2059">
        <ele>467.8</ele>
        <time>2021-05-03T10:18:17Z</time>
      </trkpt>
      <trkpt lat="45.26274" lon="5.20583">
        <ele>467.9</ele>
        <time>2021-05-03T10:18:18Z</time>
      </trkpt>
      <trkpt lat="45.26273" lon="5.20575">
        <ele>467.9</ele>
        <time>2021-05-03T10:18:19Z</time>
      </trkpt>
      <trkpt lat="45.26273" lon="5.20568">
        <ele>467.9</ele>
        <time>2021-05-03T10:18:20Z</time>
      </trkpt>
      <trkpt lat="45.26272" lon="5.2056">
        <ele>468</ele>
        <time>2021-05-03T10:18:21Z</time>
      </trkpt>
      <trkpt lat="45.26272" lon="5.20552">
        <ele>468</ele>
        <time>2021-05-03T10:18:22Z</time>
      </trkpt>
      <trkpt lat="45.26271" lon="5.20543">
        <ele>468.1</ele>
        <time>2021-05-03T10:18:23Z</time>
      </trkpt>
      <trkpt lat="45.2627" lon="5.20535">
        <ele>468.2</ele>
        <time>2021-05-03T10:18:24Z</time>
      </trkpt>
      <trkpt lat="45.26269" lon="5.20528">
        <ele>468.2</ele>
        <time>2021-05-03T10:18:25Z</time>
      </trkpt>
      <trkpt lat="45.26269" lon="5.2052">
        <ele>468.3</ele>
        <time>2021-05-03T10:18:26Z</time>
      </trkpt>
      <trkpt lat="45.26268" lon="5.20512">
        <ele>468.4</ele>
        <time>2021-05-03T10:18:27Z</time>
      </trkpt>
      <trkpt lat="45.26267" lon="5.20505">
        <ele>468.5</ele>
        <time>2021-05-03T10:18:28Z</time>
      </trkpt>
      <trkpt lat="45.26266" lon="5.20498">
        <ele>468.6</ele>
        <time>2021-05-03T10:18:29Z</time>
      </trkpt>
      <trkpt lat="45.26265" lon="5.2049">
        <ele>468.7</ele>
        <time>2021-05-03T10:18:30Z</time>
      </trkpt>
      <trkpt lat="45.26264" lon="5.20483">
        <ele>468.8</ele>
        <time>2021-05-03T10:18:31Z</time>
      </trkpt>
      <trkpt lat="45.26263" lon="5.20476">
        <ele>468.9</ele>
        <time>2021-05-03T10:18:32Z</time>
      </trkpt>
      <trkpt lat="45.26261" lon="5.20469">
        <ele>469</ele>
        <time>2021-05-03T10:18:33Z</time>
      </trkpt>
      <trkpt lat="45.2626" lon="5.20462">
        <ele>469.1</ele>
        <time>2021-05-03T10:18:34Z</time>
      </trkpt>
      <trkpt lat="45.26259" lon="5.20455">
        <ele>469.2</ele>
        <time>2021-05-03T10:18:35Z</time>
      </trkpt>
      <trkpt lat="45.26258" lon="5.20448">
        <ele>469.3</ele>
        <time>2021-05-03T10:18:36Z</time>
      </trkpt>
      <trkpt lat="45.26257" lon="5.20441">
        <ele>469.4</ele>
        <time>2021-05-03T10:18:37Z</time>
      </trkpt>
      <trkpt lat="45.26256" lon="5.20434">
        <ele>469.5</ele>
        <time>2021-05-03T10:18:38Z</time>
      </trkpt>
      <trkpt lat="45.26255" lon="5.20428">
        <ele>469.5</ele>
        <time>2021-05-03T10:18:39Z</time>
      </trkpt>
      <trkpt lat="45.26254" lon="5.20422">
        <ele>469.6</ele>
        <time>2021-05-03T10:18:40Z</time>
      </trkpt>
      <trkpt lat="45.26254" lon="5.20416">
        <ele>469.6</ele>
        <time>2021-05-03T10:18:41Z</time>
      </trkpt>
      <trkpt lat="45.26253" lon="5.20411">
        <ele>469.7</ele>
        <time>2021-05-03T10:18:42Z</time>
      </trkpt>
      <trkpt lat="45.26253" lon="5.20407">
        <ele>469.7</ele>
        <time>2021-05-03T10:18:43Z</time>
      </trkpt>
      <trkpt lat="45.26252" lon="5.20401">
        <ele>469.7</ele>
        <time>2021-05-03T10:18:44Z</time>
      </trkpt>
      <trkpt lat="45.26251" lon="5.20397">
        <ele>469.8</ele>
        <time>2021-05-03T10:18:45Z</time>
      </trkpt>
      <trkpt lat="45.2625" lon="5.20394">
        <ele>469.8</ele>
        <time>2021-05-03T10:18:46Z</time>
      </trkpt>
      <trkpt lat="45.26249" lon="5.20393">
        <ele>469.8</ele>
        <time>2021-05-03T10:18:47Z</time>
      </trkpt>
      <trkpt lat="45.26249" lon="5.20391">
        <ele>469.8</ele>
        <time>2021-05-03T10:18:48Z</time>
      </trkpt>
      <trkpt lat="45.26249" lon="5.20391">
        <ele>469.8</ele>
        <time>2021-05-03T10:18:49Z</time>
      </trkpt>
      <trkpt lat="45.26248" lon="5.20391">
        <ele>469.8</ele>
        <time>2021-05-03T10:18:50Z</time>
      </trkpt>
      <trkpt lat="45.26248" lon="5.20391">
        <ele>469.8</ele>
        <time>2021-05-03T10:18:51Z</time>
      </trkpt>
      <trkpt lat="45.26248" lon="5.2039">
        <ele>469.8</ele>
        <time>2021-05-03T10:18:52Z</time>
      </trkpt>
      <trkpt lat="45.26248" lon="5.2039">
        <ele>469.8</ele>
        <time>2021-05-03T10:18:53Z</time>
      </trkpt>
      <trkpt lat="45.26248" lon="5.2039">
        <ele>469.8</ele>
        <time>2021-05-03T10:18:54Z</time>
      </trkpt>
      <trkpt lat="45.26248" lon="5.2039">
        <ele>469.8</ele>
        <time>2021-05-03T10:18:55Z</time>
      </trkpt>
      <trkpt lat="45.26248" lon="5.2039">
        <ele>469.8</ele>
        <time>2021-05-03T10:18:56Z</time>
      </trkpt>
      <trkpt lat="45.26248" lon="5.20389">
        <ele>469.8</ele>
        <time>2021-05-03T10:18:57Z</time>
      </trkpt>
      <trkpt lat="45.26248" lon="5.20389">
        <ele>469.8</ele>
        <time>2021-05-03T10:22:09Z</time>
      </trkpt>
      <trkpt lat="45.26248" lon="5.20389">
        <ele>469.8</ele>
        <time>2021-05-03T10:22:10Z</time>
      </trkpt>
      <trkpt lat="45.26248" lon="5.20389">
        <ele>469.8</ele>
        <time>2021-05-03T10:22:11Z</time>
      </trkpt>
      <trkpt lat="45.26248" lon="5.20389">
        <ele>469.8</ele>
        <time>2021-05-03T10:22:12Z</time>
      </trkpt>
      <trkpt lat="45.2625" lon="5.20385">
        <ele>469.8</ele>
        <time>2021-05-03T10:22:13Z</time>
      </trkpt>
      <trkpt lat="45.26251" lon="5.20384">
        <ele>469.8</ele>
        <time>2021-05-03T10:22:14Z</time>
      </trkpt>
      <trkpt lat="45.2625" lon="5.2038">
        <ele>469.8</ele>
        <time>2021-05-03T10:22:15Z</time>
      </trkpt>
      <trkpt lat="45.26249" lon="5.20375">
        <ele>469.8</ele>
        <time>2021-05-03T10:22:16Z</time>
      </trkpt>
      <trkpt lat="45.26247" lon="5.20369">
        <ele>469.8</ele>
        <time>2021-05-03T10:22:17Z</time>
      </trkpt>
      <trkpt lat="45.26246" lon="5.20364">
        <ele>469.8</ele>
        <time>2021-05-03T10:22:18Z</time>
      </trkpt>
      <trkpt lat="45.26244" lon="5.20358">
        <ele>469.8</ele>
        <time>2021-05-03T10:22:19Z</time>
      </trkpt>
      <trkpt lat="45.26243" lon="5.20352">
        <ele>469.8</ele>
        <time>2021-05-03T10:22:20Z</time>
      </trkpt>
      <trkpt lat="45.26241" lon="5.20347">
        <ele>469.8</ele>
        <time>2021-05-03T10:22:21Z</time>
      </trkpt>
      <trkpt lat="45.2624" lon="5.20341">
        <ele>469.8</ele>
        <time>2021-05-03T10:22:22Z</time>
      </trkpt>
      <trkpt lat="45.26239" lon="5.20334">
        <ele>469.8</ele>
        <time>2021-05-03T10:22:23Z</time>
      </trkpt>
      <trkpt lat="45.26237" lon="5.20326">
        <ele>469.8</ele>
        <time>2021-05-03T10:22:24Z</time>
      </trkpt>
      <trkpt lat="45.26236" lon="5.20319">
        <ele>469.8</ele>
        <time>2021-05-03T10:22:25Z</time>
      </trkpt>
      <trkpt lat="45.26235" lon="5.20313">
        <ele>469.8</ele>
        <time>2021-05-03T10:22:26Z</time>
      </trkpt>
      <trkpt lat="45.26234" lon="5.20306">
        <ele>469.8</ele>
        <time>2021-05-03T10:22:27Z</time>
      </trkpt>
      <trkpt lat="45.26232" lon="5.20298">
        <ele>469.8</ele>
        <time>2021-05-03T10:22:28Z</time>
      </trkpt>
      <trkpt lat="45.26231" lon="5.2029">
        <ele>469.7</ele>
        <time>2021-05-03T10:22:29Z</time>
      </trkpt>
      <trkpt lat="45.2623" lon="5.20283">
        <ele>469.7</ele>
        <time>2021-05-03T10:22:30Z</time>
      </trkpt>
      <trkpt lat="45.26229" lon="5.20275">
        <ele>469.6</ele>
        <time>2021-05-03T10:22:31Z</time>
      </trkpt>
      <trkpt lat="45.26228" lon="5.20268">
        <ele>469.5</ele>
        <time>2021-05-03T10:22:32Z</time>
      </trkpt>
      <trkpt lat="45.26227" lon="5.2026">
        <ele>469.4</ele>
        <time>2021-05-03T10:22:33Z</time>
      </trkpt>
      <trkpt lat="45.26225" lon="5.20252">
        <ele>469.3</ele>
        <time>2021-05-03T10:22:34Z</time>
      </trkpt>
      <trkpt lat="45.26224" lon="5.20244">
        <ele>469.2</ele>
        <time>2021-05-03T10:22:35Z</time>
      </trkpt>
      <trkpt lat="45.26222" lon="5.20236">
        <ele>469</ele>
        <time>2021-05-03T10:22:36Z</time>
      </trkpt>
      <trkpt lat="45.26221" lon="5.20227">
        <ele>468.9</ele>
        <time>2021-05-03T10:22:37Z</time>
      </trkpt>
      <trkpt lat="45.26219" lon="5.20218">
        <ele>468.7</ele>
        <time>2021-05-03T10:22:38Z</time>
      </trkpt>
      <trkpt lat="45.26219" lon="5.20208">
        <ele>468.5</ele>
        <time>2021-05-03T10:22:39Z</time>
      </trkpt>
      <trkpt lat="45.26218" lon="5.20199">
        <ele>468.4</ele>
        <time>2021-05-03T10:22:40Z</time>
      </trkpt>
      <trkpt lat="45.26217" lon="5.2019">
        <ele>468.2</ele>
        <time>2021-05-03T10:22:41Z</time>
      </trkpt>
      <trkpt lat="45.26216" lon="5.20181">
        <ele>468.1</ele>
        <time>2021-05-03T10:22:42Z</time>
      </trkpt>
      <trkpt lat="45.26214" lon="5.20172">
        <ele>468</ele>
        <time>2021-05-03T10:22:43Z</time>
      </trkpt>
      <trkpt lat="45.26213" lon="5.20163">
        <ele>467.9</ele>
        <time>2021-05-03T10:22:44Z</time>
      </trkpt>
      <trkpt lat="45.26211" lon="5.20154">
        <ele>467.8</ele>
        <time>2021-05-03T10:22:45Z</time>
      </trkpt>
      <trkpt lat="45.26209" lon="5.20146">
        <ele>467.7</ele>
        <time>2021-05-03T10:22:46Z</time>
      </trkpt>
      <trkpt lat="45.26208" lon="5.20138">
        <ele>467.6</ele>
        <time>2021-05-03T10:22:47Z</time>
      </trkpt>
      <trkpt lat="45.26207" lon="5.2013">
        <ele>467.6</ele>
        <time>2021-05-03T10:22:48Z</time>
      </trkpt>
      <trkpt lat="45.26205" lon="5.20122">
        <ele>467.5</ele>
        <time>2021-05-03T10:22:49Z</time>
      </trkpt>
      <trkpt lat="45.26203" lon="5.20115">
        <ele>467.4</ele>
        <time>2021-05-03T10:22:50Z</time>
      </trkpt>
      <trkpt lat="45.26202" lon="5.20108">
        <ele>467.4</ele>
        <time>2021-05-03T10:22:51Z</time>
      </trkpt>
      <trkpt lat="45.26201" lon="5.20099">
        <ele>467.3</ele>
        <time>2021-05-03T10:22:52Z</time>
      </trkpt>
      <trkpt lat="45.262" lon="5.20091">
        <ele>467.3</ele>
        <time>2021-05-03T10:22:53Z</time>
      </trkpt>
      <trkpt lat="45.26198" lon="5.20082">
        <ele>467.2</ele>
        <time>2021-05-03T10:22:54Z</time>
      </trkpt>
      <trkpt lat="45.26196" lon="5.20073">
        <ele>467.1</ele>
        <time>2021-05-03T10:22:55Z</time>
      </trkpt>
      <trkpt lat="45.26195" lon="5.20064">
        <ele>467.1</ele>
        <time>2021-05-03T10:22:56Z</time>
      </trkpt>
      <trkpt lat="45.26194" lon="5.20055">
        <ele>467</ele>
        <time>2021-05-03T10:22:57Z</time>
      </trkpt>
      <trkpt lat="45.26193" lon="5.20046">
        <ele>467</ele>
        <time>2021-05-03T10:22:58Z</time>
      </trkpt>
      <trkpt lat="45.26192" lon="5.20038">
        <ele>466.9</ele>
        <time>2021-05-03T10:22:59Z</time>
      </trkpt>
      <trkpt lat="45.2619" lon="5.2003">
        <ele>466.9</ele>
        <time>2021-05-03T10:23:00Z</time>
      </trkpt>
      <trkpt lat="45.26189" lon="5.20023">
        <ele>466.8</ele>
        <time>2021-05-03T10:23:01Z</time>
      </trkpt>
      <trkpt lat="45.26188" lon="5.20015">
        <ele>466.7</ele>
        <time>2021-05-03T10:23:02Z</time>
      </trkpt>
      <trkpt lat="45.26187" lon="5.20006">
        <ele>466.7</ele>
        <time>2021-05-03T10:23:03Z</time>
      </trkpt>
      <trkpt lat="45.26187" lon="5.19998">
        <ele>466.6</ele>
        <time>2021-05-03T10:23:04Z</time>
      </trkpt>
      <trkpt lat="45.26186" lon="5.19989">
        <ele>466.6</ele>
        <time>2021-05-03T10:23:05Z</time>
      </trkpt>
      <trkpt lat="45.26185" lon="5.19981">
        <ele>466.5</ele>
        <time>2021-05-03T10:23:06Z</time>
      </trkpt>
      <trkpt lat="45.26184" lon="5.19972">
        <ele>466.5</ele>
        <time>2021-05-03T10:23:07Z</time>
      </trkpt>
      <trkpt lat="45.26183" lon="5.19963">
        <ele>466.4</ele>
        <time>2021-05-03T10:23:08Z</time>
      </trkpt>
      <trkpt lat="45.26182" lon="5.19954">
        <ele>466.3</ele>
        <time>2021-05-03T10:23:09Z</time>
      </trkpt>
      <trkpt lat="45.26181" lon="5.19945">
        <ele>466.3</ele>
        <time>2021-05-03T10:23:10Z</time>
      </trkpt>
      <trkpt lat="45.26179" lon="5.19936">
        <ele>466.2</ele>
        <time>2021-05-03T10:23:11Z</time>
      </trkpt>
      <trkpt lat="45.26177" lon="5.19928">
        <ele>466.1</ele>
        <time>2021-05-03T10:23:12Z</time>
      </trkpt>
      <trkpt lat="45.26175" lon="5.1992">
        <ele>466</ele>
        <time>2021-05-03T10:23:13Z</time>
      </trkpt>
      <trkpt lat="45.26174" lon="5.19911">
        <ele>466</ele>
        <time>2021-05-03T10:23:14Z</time>
      </trkpt>
      <trkpt lat="45.26173" lon="5.19902">
        <ele>465.9</ele>
        <time>2021-05-03T10:23:15Z</time>
      </trkpt>
      <trkpt lat="45.26172" lon="5.19893">
        <ele>465.8</ele>
        <time>2021-05-03T10:23:16Z</time>
      </trkpt>
      <trkpt lat="45.2617" lon="5.19885">
        <ele>465.7</ele>
        <time>2021-05-03T10:23:17Z</time>
      </trkpt>
      <trkpt lat="45.26168" lon="5.19876">
        <ele>465.7</ele>
        <time>2021-05-03T10:23:18Z</time>
      </trkpt>
      <trkpt lat="45.26167" lon="5.19868">
        <ele>465.6</ele>
        <time>2021-05-03T10:23:19Z</time>
      </trkpt>
      <trkpt lat="45.26166" lon="5.1986">
        <ele>465.5</ele>
        <time>2021-05-03T10:23:20Z</time>
      </trkpt>
      <trkpt lat="45.26165" lon="5.19851">
        <ele>465.4</ele>
        <time>2021-05-03T10:23:21Z</time>
      </trkpt>
      <trkpt lat="45.26163" lon="5.19843">
        <ele>465.4</ele>
        <time>2021-05-03T10:23:22Z</time>
      </trkpt>
      <trkpt lat="45.26162" lon="5.19834">
        <ele>465.3</ele>
        <time>2021-05-03T10:23:23Z</time>
      </trkpt>
      <trkpt lat="45.26161" lon="5.19825">
        <ele>465.2</ele>
        <time>2021-05-03T10:23:24Z</time>
      </trkpt>
      <trkpt lat="45.26159" lon="5.19817">
        <ele>465.2</ele>
        <time>2021-05-03T10:23:25Z</time>
      </trkpt>
      <trkpt lat="45.26158" lon="5.19808">
        <ele>465.1</ele>
        <time>2021-05-03T10:23:26Z</time>
      </trkpt>
      <trkpt lat="45.26158" lon="5.19798">
        <ele>464.9</ele>
        <time>2021-05-03T10:23:27Z</time>
      </trkpt>
      <trkpt lat="45.26157" lon="5.19789">
        <ele>464.8</ele>
        <time>2021-05-03T10:23:28Z</time>
      </trkpt>
      <trkpt lat="45.26155" lon="5.1978">
        <ele>464.7</ele>
        <time>2021-05-03T10:23:29Z</time>
      </trkpt>
      <trkpt lat="45.26154" lon="5.19771">
        <ele>464.6</ele>
        <time>2021-05-03T10:23:30Z</time>
      </trkpt>
      <trkpt lat="45.26152" lon="5.19763">
        <ele>464.5</ele>
        <time>2021-05-03T10:23:31Z</time>
      </trkpt>
      <trkpt lat="45.2615" lon="5.19754">
        <ele>464.3</ele>
        <time>2021-05-03T10:23:32Z</time>
      </trkpt>
      <trkpt lat="45.26148" lon="5.19744">
        <ele>464.2</ele>
        <time>2021-05-03T10:23:33Z</time>
      </trkpt>
      <trkpt lat="45.26145" lon="5.19735">
        <ele>464</ele>
        <time>2021-05-03T10:23:34Z</time>
      </trkpt>
      <trkpt lat="45.26142" lon="5.19726">
        <ele>463.9</ele>
        <time>2021-05-03T10:23:35Z</time>
      </trkpt>
      <trkpt lat="45.26139" lon="5.19717">
        <ele>463.7</ele>
        <time>2021-05-03T10:23:36Z</time>
      </trkpt>
      <trkpt lat="45.26136" lon="5.19708">
        <ele>463.6</ele>
        <time>2021-05-03T10:23:37Z</time>
      </trkpt>
      <trkpt lat="45.26133" lon="5.19699">
        <ele>463.5</ele>
        <time>2021-05-03T10:23:38Z</time>
      </trkpt>
      <trkpt lat="45.2613" lon="5.19689">
        <ele>463.3</ele>
        <time>2021-05-03T10:23:39Z</time>
      </trkpt>
      <trkpt lat="45.26127" lon="5.1968">
        <ele>463.2</ele>
        <time>2021-05-03T10:23:40Z</time>
      </trkpt>
      <trkpt lat="45.26124" lon="5.1967">
        <ele>463.1</ele>
        <time>2021-05-03T10:23:41Z</time>
      </trkpt>
      <trkpt lat="45.26122" lon="5.19661">
        <ele>463</ele>
        <time>2021-05-03T10:23:42Z</time>
      </trkpt>
      <trkpt lat="45.2612" lon="5.19651">
        <ele>462.9</ele>
        <time>2021-05-03T10:23:43Z</time>
      </trkpt>
      <trkpt lat="45.26118" lon="5.19642">
        <ele>462.9</ele>
        <time>2021-05-03T10:23:44Z</time>
      </trkpt>
      <trkpt lat="45.26116" lon="5.19633">
        <ele>462.8</ele>
        <time>2021-05-03T10:23:45Z</time>
      </trkpt>
      <trkpt lat="45.26115" lon="5.19624">
        <ele>462.7</ele>
        <time>2021-05-03T10:23:46Z</time>
      </trkpt>
      <trkpt lat="45.26113" lon="5.19614">
        <ele>462.6</ele>
        <time>2021-05-03T10:23:47Z</time>
      </trkpt>
      <trkpt lat="45.26112" lon="5.19603">
        <ele>462.5</ele>
        <time>2021-05-03T10:23:48Z</time>
      </trkpt>
      <trkpt lat="45.26111" lon="5.19593">
        <ele>462.3</ele>
        <time>2021-05-03T10:23:49Z</time>
      </trkpt>
      <trkpt lat="45.26111" lon="5.19581">
        <ele>462.1</ele>
        <time>2021-05-03T10:23:50Z</time>
      </trkpt>
      <trkpt lat="45.26111" lon="5.1957">
        <ele>461.9</ele>
        <time>2021-05-03T10:23:51Z</time>
      </trkpt>
      <trkpt lat="45.26111" lon="5.19559">
        <ele>461.7</ele>
        <time>2021-05-03T10:23:52Z</time>
      </trkpt>
      <trkpt lat="45.26111" lon="5.19548">
        <ele>461.5</ele>
        <time>2021-05-03T10:23:53Z</time>
      </trkpt>
      <trkpt lat="45.26111" lon="5.19538">
        <ele>461.3</ele>
        <time>2021-05-03T10:23:54Z</time>
      </trkpt>
      <trkpt lat="45.26111" lon="5.19527">
        <ele>461.1</ele>
        <time>2021-05-03T10:23:55Z</time>
      </trkpt>
      <trkpt lat="45.26111" lon="5.19516">
        <ele>461</ele>
        <time>2021-05-03T10:23:56Z</time>
      </trkpt>
      <trkpt lat="45.26111" lon="5.19505">
        <ele>460.8</ele>
        <time>2021-05-03T10:23:57Z</time>
      </trkpt>
      <trkpt lat="45.2611" lon="5.19494">
        <ele>460.6</ele>
        <time>2021-05-03T10:23:58Z</time>
      </trkpt>
      <trkpt lat="45.26109" lon="5.19484">
        <ele>460.5</ele>
        <time>2021-05-03T10:23:59Z</time>
      </trkpt>
      <trkpt lat="45.26108" lon="5.19473">
        <ele>460.3</ele>
        <time>2021-05-03T10:24:00Z</time>
      </trkpt>
      <trkpt lat="45.26107" lon="5.19462">
        <ele>460.2</ele>
        <time>2021-05-03T10:24:01Z</time>
      </trkpt>
      <trkpt lat="45.26106" lon="5.19451">
        <ele>460.1</ele>
        <time>2021-05-03T10:24:02Z</time>
      </trkpt>
      <trkpt lat="45.26105" lon="5.19441">
        <ele>460</ele>
        <time>2021-05-03T10:24:03Z</time>
      </trkpt>
      <trkpt lat="45.26103" lon="5.1943">
        <ele>459.8</ele>
        <time>2021-05-03T10:24:04Z</time>
      </trkpt>
      <trkpt lat="45.26101" lon="5.19419">
        <ele>459.7</ele>
        <time>2021-05-03T10:24:05Z</time>
      </trkpt>
      <trkpt lat="45.26099" lon="5.19408">
        <ele>459.6</ele>
        <time>2021-05-03T10:24:06Z</time>
      </trkpt>
      <trkpt lat="45.26097" lon="5.19398">
        <ele>459.5</ele>
        <time>2021-05-03T10:24:07Z</time>
      </trkpt>
      <trkpt lat="45.26094" lon="5.19387">
        <ele>459.5</ele>
        <time>2021-05-03T10:24:08Z</time>
      </trkpt>
      <trkpt lat="45.26092" lon="5.19376">
        <ele>459.4</ele>
        <time>2021-05-03T10:24:09Z</time>
      </trkpt>
      <trkpt lat="45.2609" lon="5.19366">
        <ele>459.3</ele>
        <time>2021-05-03T10:24:10Z</time>
      </trkpt>
      <trkpt lat="45.26087" lon="5.19354">
        <ele>459.2</ele>
        <time>2021-05-03T10:24:11Z</time>
      </trkpt>
      <trkpt lat="45.26084" lon="5.19344">
        <ele>459.1</ele>
        <time>2021-05-03T10:24:12Z</time>
      </trkpt>
      <trkpt lat="45.26082" lon="5.19334">
        <ele>459</ele>
        <time>2021-05-03T10:24:13Z</time>
      </trkpt>
      <trkpt lat="45.26079" lon="5.19324">
        <ele>459</ele>
        <time>2021-05-03T10:24:14Z</time>
      </trkpt>
      <trkpt lat="45.26077" lon="5.19314">
        <ele>458.9</ele>
        <time>2021-05-03T10:24:15Z</time>
      </trkpt>
      <trkpt lat="45.26074" lon="5.19304">
        <ele>458.8</ele>
        <time>2021-05-03T10:24:16Z</time>
      </trkpt>
      <trkpt lat="45.26072" lon="5.19294">
        <ele>458.7</ele>
        <time>2021-05-03T10:24:17Z</time>
      </trkpt>
      <trkpt lat="45.26069" lon="5.19284">
        <ele>458.7</ele>
        <time>2021-05-03T10:24:18Z</time>
      </trkpt>
      <trkpt lat="45.26067" lon="5.19274">
        <ele>458.6</ele>
        <time>2021-05-03T10:24:19Z</time>
      </trkpt>
      <trkpt lat="45.26064" lon="5.19265">
        <ele>458.5</ele>
        <time>2021-05-03T10:24:20Z</time>
      </trkpt>
      <trkpt lat="45.26062" lon="5.19255">
        <ele>458.4</ele>
        <time>2021-05-03T10:24:21Z</time>
      </trkpt>
      <trkpt lat="45.26059" lon="5.19246">
        <ele>458.3</ele>
        <time>2021-05-03T10:24:22Z</time>
      </trkpt>
      <trkpt lat="45.26056" lon="5.19237">
        <ele>458.2</ele>
        <time>2021-05-03T10:24:23Z</time>
      </trkpt>
      <trkpt lat="45.26053" lon="5.19228">
        <ele>458.2</ele>
        <time>2021-05-03T10:24:24Z</time>
      </trkpt>
      <trkpt lat="45.26049" lon="5.19219">
        <ele>458.1</ele>
        <time>2021-05-03T10:24:25Z</time>
      </trkpt>
      <trkpt lat="45.26046" lon="5.1921">
        <ele>458</ele>
        <time>2021-05-03T10:24:26Z</time>
      </trkpt>
      <trkpt lat="45.26043" lon="5.19201">
        <ele>457.9</ele>
        <time>2021-05-03T10:24:27Z</time>
      </trkpt>
      <trkpt lat="45.2604" lon="5.19192">
        <ele>457.7</ele>
        <time>2021-05-03T10:24:28Z</time>
      </trkpt>
      <trkpt lat="45.26038" lon="5.19183">
        <ele>457.5</ele>
        <time>2021-05-03T10:24:29Z</time>
      </trkpt>
      <trkpt lat="45.26035" lon="5.19174">
        <ele>457.4</ele>
        <time>2021-05-03T10:24:30Z</time>
      </trkpt>
      <trkpt lat="45.26031" lon="5.19164">
        <ele>457.2</ele>
        <time>2021-05-03T10:24:31Z</time>
      </trkpt>
      <trkpt lat="45.26029" lon="5.19154">
        <ele>457.1</ele>
        <time>2021-05-03T10:24:32Z</time>
      </trkpt>
      <trkpt lat="45.26025" lon="5.19145">
        <ele>456.9</ele>
        <time>2021-05-03T10:24:33Z</time>
      </trkpt>
      <trkpt lat="45.26022" lon="5.19136">
        <ele>456.7</ele>
        <time>2021-05-03T10:24:34Z</time>
      </trkpt>
      <trkpt lat="45.26018" lon="5.19126">
        <ele>456.5</ele>
        <time>2021-05-03T10:24:35Z</time>
      </trkpt>
      <trkpt lat="45.26015" lon="5.19116">
        <ele>456.2</ele>
        <time>2021-05-03T10:24:36Z</time>
      </trkpt>
      <trkpt lat="45.26012" lon="5.19105">
        <ele>455.9</ele>
        <time>2021-05-03T10:24:37Z</time>
      </trkpt>
      <trkpt lat="45.26009" lon="5.19094">
        <ele>455.7</ele>
        <time>2021-05-03T10:24:38Z</time>
      </trkpt>
      <trkpt lat="45.26005" lon="5.19084">
        <ele>455.4</ele>
        <time>2021-05-03T10:24:39Z</time>
      </trkpt>
      <trkpt lat="45.26002" lon="5.19073">
        <ele>455.1</ele>
        <time>2021-05-03T10:24:40Z</time>
      </trkpt>
      <trkpt lat="45.26" lon="5.19061">
        <ele>454.8</ele>
        <time>2021-05-03T10:24:41Z</time>
      </trkpt>
      <trkpt lat="45.25997" lon="5.19049">
        <ele>454.5</ele>
        <time>2021-05-03T10:24:42Z</time>
      </trkpt>
      <trkpt lat="45.25994" lon="5.19037">
        <ele>454.2</ele>
        <time>2021-05-03T10:24:43Z</time>
      </trkpt>
      <trkpt lat="45.25991" lon="5.19025">
        <ele>453.8</ele>
        <time>2021-05-03T10:24:44Z</time>
      </trkpt>
      <trkpt lat="45.25989" lon="5.19014">
        <ele>453.5</ele>
        <time>2021-05-03T10:24:45Z</time>
      </trkpt>
      <trkpt lat="45.25985" lon="5.19002">
        <ele>453.1</ele>
        <time>2021-05-03T10:24:46Z</time>
      </trkpt>
      <trkpt lat="45.25982" lon="5.18991">
        <ele>452.8</ele>
        <time>2021-05-03T10:24:47Z</time>
      </trkpt>
      <trkpt lat="45.25978" lon="5.18981">
        <ele>452.4</ele>
        <time>2021-05-03T10:24:48Z</time>
      </trkpt>
      <trkpt lat="45.25975" lon="5.1897">
        <ele>452.1</ele>
        <time>2021-05-03T10:24:49Z</time>
      </trkpt>
      <trkpt lat="45.25971" lon="5.18959">
        <ele>451.7</ele>
        <time>2021-05-03T10:24:50Z</time>
      </trkpt>
      <trkpt lat="45.25967" lon="5.18947">
        <ele>451.4</ele>
        <time>2021-05-03T10:24:51Z</time>
      </trkpt>
      <trkpt lat="45.25964" lon="5.18936">
        <ele>451</ele>
        <time>2021-05-03T10:24:52Z</time>
      </trkpt>
      <trkpt lat="45.2596" lon="5.18924">
        <ele>450.6</ele>
        <time>2021-05-03T10:24:53Z</time>
      </trkpt>
      <trkpt lat="45.25957" lon="5.18913">
        <ele>450.3</ele>
        <time>2021-05-03T10:24:54Z</time>
      </trkpt>
      <trkpt lat="45.25953" lon="5.18901">
        <ele>449.9</ele>
        <time>2021-05-03T10:24:55Z</time>
      </trkpt>
      <trkpt lat="45.2595" lon="5.1889">
        <ele>449.5</ele>
        <time>2021-05-03T10:24:56Z</time>
      </trkpt>
      <trkpt lat="45.25947" lon="5.18879">
        <ele>449.2</ele>
        <time>2021-05-03T10:24:57Z</time>
      </trkpt>
      <trkpt lat="45.25943" lon="5.18868">
        <ele>448.8</ele>
        <time>2021-05-03T10:24:58Z</time>
      </trkpt>
      <trkpt lat="45.2594" lon="5.18858">
        <ele>448.5</ele>
        <time>2021-05-03T10:24:59Z</time>
      </trkpt>
      <trkpt lat="45.25937" lon="5.18847">
        <ele>448.2</ele>
        <time>2021-05-03T10:25:00Z</time>
      </trkpt>
      <trkpt lat="45.25934" lon="5.18836">
        <ele>447.9</ele>
        <time>2021-05-03T10:25:01Z</time>
      </trkpt>
      <trkpt lat="45.25931" lon="5.18825">
        <ele>447.6</ele>
        <time>2021-05-03T10:25:02Z</time>
      </trkpt>
      <trkpt lat="45.25928" lon="5.18813">
        <ele>447.3</ele>
        <time>2021-05-03T10:25:03Z</time>
      </trkpt>
      <trkpt lat="45.25925" lon="5.18802">
        <ele>447</ele>
        <time>2021-05-03T10:25:04Z</time>
      </trkpt>
      <trkpt lat="45.25922" lon="5.18791">
        <ele>446.8</ele>
        <time>2021-05-03T10:25:05Z</time>
      </trkpt>
      <trkpt lat="45.2592" lon="5.18781">
        <ele>446.6</ele>
        <time>2021-05-03T10:25:06Z</time>
      </trkpt>
      <trkpt lat="45.25918" lon="5.18772">
        <ele>446.5</ele>
        <time>2021-05-03T10:25:07Z</time>
      </trkpt>
      <trkpt lat="45.25916" lon="5.18761">
        <ele>446.3</ele>
        <time>2021-05-03T10:25:08Z</time>
      </trkpt>
      <trkpt lat="45.25914" lon="5.1875">
        <ele>446.1</ele>
        <time>2021-05-03T10:25:09Z</time>
      </trkpt>
      <trkpt lat="45.25912" lon="5.18738">
        <ele>446</ele>
        <time>2021-05-03T10:25:10Z</time>
      </trkpt>
      <trkpt lat="45.25911" lon="5.18726">
        <ele>445.8</ele>
        <time>2021-05-03T10:25:11Z</time>
      </trkpt>
      <trkpt lat="45.25909" lon="5.18714">
        <ele>445.7</ele>
        <time>2021-05-03T10:25:12Z</time>
      </trkpt>
      <trkpt lat="45.25907" lon="5.18704">
        <ele>445.6</ele>
        <time>2021-05-03T10:25:13Z</time>
      </trkpt>
      <trkpt lat="45.25905" lon="5.18694">
        <ele>445.5</ele>
        <time>2021-05-03T10:25:14Z</time>
      </trkpt>
      <trkpt lat="45.25904" lon="5.18683">
        <ele>445.4</ele>
        <time>2021-05-03T10:25:15Z</time>
      </trkpt>
      <trkpt lat="45.25903" lon="5.18673">
        <ele>445.4</ele>
        <time>2021-05-03T10:25:16Z</time>
      </trkpt>
      <trkpt lat="45.25901" lon="5.18663">
        <ele>445.4</ele>
        <time>2021-05-03T10:25:17Z</time>
      </trkpt>
      <trkpt lat="45.259" lon="5.18653">
        <ele>445.3</ele>
        <time>2021-05-03T10:25:18Z</time>
      </trkpt>
      <trkpt lat="45.25898" lon="5.18643">
        <ele>445.3</ele>
        <time>2021-05-03T10:25:19Z</time>
      </trkpt>
      <trkpt lat="45.25897" lon="5.18633">
        <ele>445.2</ele>
        <time>2021-05-03T10:25:20Z</time>
      </trkpt>
      <trkpt lat="45.25895" lon="5.18622">
        <ele>445.2</ele>
        <time>2021-05-03T10:25:21Z</time>
      </trkpt>
      <trkpt lat="45.25893" lon="5.18613">
        <ele>445.2</ele>
        <time>2021-05-03T10:25:22Z</time>
      </trkpt>
      <trkpt lat="45.25892" lon="5.18603">
        <ele>445.2</ele>
        <time>2021-05-03T10:25:23Z</time>
      </trkpt>
      <trkpt lat="45.25891" lon="5.18593">
        <ele>445.1</ele>
        <time>2021-05-03T10:25:24Z</time>
      </trkpt>
      <trkpt lat="45.2589" lon="5.18583">
        <ele>445.1</ele>
        <time>2021-05-03T10:25:25Z</time>
      </trkpt>
      <trkpt lat="45.25888" lon="5.18575">
        <ele>445.1</ele>
        <time>2021-05-03T10:25:26Z</time>
      </trkpt>
      <trkpt lat="45.25887" lon="5.18566">
        <ele>445.1</ele>
        <time>2021-05-03T10:25:27Z</time>
      </trkpt>
      <trkpt lat="45.25886" lon="5.18557">
        <ele>445.1</ele>
        <time>2021-05-03T10:25:28Z</time>
      </trkpt>
      <trkpt lat="45.25884" lon="5.18549">
        <ele>445.1</ele>
        <time>2021-05-03T10:25:29Z</time>
      </trkpt>
      <trkpt lat="45.25882" lon="5.1854">
        <ele>445.1</ele>
        <time>2021-05-03T10:25:30Z</time>
      </trkpt>
      <trkpt lat="45.2588" lon="5.18532">
        <ele>445.1</ele>
        <time>2021-05-03T10:25:31Z</time>
      </trkpt>
      <trkpt lat="45.25877" lon="5.18524">
        <ele>445.1</ele>
        <time>2021-05-03T10:25:32Z</time>
      </trkpt>
      <trkpt lat="45.25875" lon="5.18516">
        <ele>445.1</ele>
        <time>2021-05-03T10:25:33Z</time>
      </trkpt>
      <trkpt lat="45.25873" lon="5.18508">
        <ele>445.1</ele>
        <time>2021-05-03T10:25:34Z</time>
      </trkpt>
      <trkpt lat="45.25871" lon="5.18499">
        <ele>445.1</ele>
        <time>2021-05-03T10:25:35Z</time>
      </trkpt>
      <trkpt lat="45.25869" lon="5.18491">
        <ele>445.1</ele>
        <time>2021-05-03T10:25:36Z</time>
      </trkpt>
      <trkpt lat="45.25867" lon="5.18483">
        <ele>445.1</ele>
        <time>2021-05-03T10:25:37Z</time>
      </trkpt>
      <trkpt lat="45.25865" lon="5.18475">
        <ele>445</ele>
        <time>2021-05-03T10:25:38Z</time>
      </trkpt>
      <trkpt lat="45.25864" lon="5.18467">
        <ele>445</ele>
        <time>2021-05-03T10:25:39Z</time>
      </trkpt>
      <trkpt lat="45.25862" lon="5.18458">
        <ele>444.9</ele>
        <time>2021-05-03T10:25:40Z</time>
      </trkpt>
      <trkpt lat="45.2586" lon="5.18451">
        <ele>444.8</ele>
        <time>2021-05-03T10:25:41Z</time>
      </trkpt>
      <trkpt lat="45.25859" lon="5.18443">
        <ele>444.8</ele>
        <time>2021-05-03T10:25:42Z</time>
      </trkpt>
      <trkpt lat="45.25857" lon="5.18435">
        <ele>444.7</ele>
        <time>2021-05-03T10:25:43Z</time>
      </trkpt>
      <trkpt lat="45.25856" lon="5.18426">
        <ele>444.6</ele>
        <time>2021-05-03T10:25:44Z</time>
      </trkpt>
      <trkpt lat="45.25855" lon="5.18417">
        <ele>444.6</ele>
        <time>2021-05-03T10:25:45Z</time>
      </trkpt>
      <trkpt lat="45.25854" lon="5.18408">
        <ele>444.5</ele>
        <time>2021-05-03T10:25:46Z</time>
      </trkpt>
      <trkpt lat="45.25853" lon="5.18399">
        <ele>444.4</ele>
        <time>2021-05-03T10:25:47Z</time>
      </trkpt>
      <trkpt lat="45.25852" lon="5.1839">
        <ele>444.4</ele>
        <time>2021-05-03T10:25:48Z</time>
      </trkpt>
      <trkpt lat="45.25852" lon="5.18381">
        <ele>444.3</ele>
        <time>2021-05-03T10:25:49Z</time>
      </trkpt>
      <trkpt lat="45.25851" lon="5.18372">
        <ele>444.2</ele>
        <time>2021-05-03T10:25:50Z</time>
      </trkpt>
      <trkpt lat="45.25851" lon="5.18363">
        <ele>444.1</ele>
        <time>2021-05-03T10:25:51Z</time>
      </trkpt>
      <trkpt lat="45.25851" lon="5.18355">
        <ele>444</ele>
        <time>2021-05-03T10:25:52Z</time>
      </trkpt>
      <trkpt lat="45.25851" lon="5.18346">
        <ele>444</ele>
        <time>2021-05-03T10:25:53Z</time>
      </trkpt>
      <trkpt lat="45.25851" lon="5.18337">
        <ele>443.9</ele>
        <time>2021-05-03T10:25:54Z</time>
      </trkpt>
      <trkpt lat="45.2585" lon="5.18328">
        <ele>443.8</ele>
        <time>2021-05-03T10:25:55Z</time>
      </trkpt>
      <trkpt lat="45.2585" lon="5.1832">
        <ele>443.7</ele>
        <time>2021-05-03T10:25:56Z</time>
      </trkpt>
      <trkpt lat="45.25849" lon="5.18311">
        <ele>443.7</ele>
        <time>2021-05-03T10:25:57Z</time>
      </trkpt>
      <trkpt lat="45.25849" lon="5.18303">
        <ele>443.6</ele>
        <time>2021-05-03T10:25:58Z</time>
      </trkpt>
      <trkpt lat="45.2585" lon="5.18295">
        <ele>443.6</ele>
        <time>2021-05-03T10:25:59Z</time>
      </trkpt>
      <trkpt lat="45.2585" lon="5.18286">
        <ele>443.5</ele>
        <time>2021-05-03T10:26:00Z</time>
      </trkpt>
      <trkpt lat="45.2585" lon="5.18277">
        <ele>443.4</ele>
        <time>2021-05-03T10:26:01Z</time>
      </trkpt>
      <trkpt lat="45.25849" lon="5.18268">
        <ele>443.4</ele>
        <time>2021-05-03T10:26:02Z</time>
      </trkpt>
      <trkpt lat="45.25849" lon="5.18259">
        <ele>443.3</ele>
        <time>2021-05-03T10:26:03Z</time>
      </trkpt>
      <trkpt lat="45.2585" lon="5.1825">
        <ele>443.2</ele>
        <time>2021-05-03T10:26:04Z</time>
      </trkpt>
      <trkpt lat="45.2585" lon="5.18241">
        <ele>443.1</ele>
        <time>2021-05-03T10:26:05Z</time>
      </trkpt>
      <trkpt lat="45.2585" lon="5.18232">
        <ele>443</ele>
        <time>2021-05-03T10:26:06Z</time>
      </trkpt>
      <trkpt lat="45.25851" lon="5.18223">
        <ele>443</ele>
        <time>2021-05-03T10:26:07Z</time>
      </trkpt>
      <trkpt lat="45.25851" lon="5.18213">
        <ele>442.9</ele>
        <time>2021-05-03T10:26:08Z</time>
      </trkpt>
      <trkpt lat="45.25851" lon="5.18204">
        <ele>442.8</ele>
        <time>2021-05-03T10:26:09Z</time>
      </trkpt>
      <trkpt lat="45.25851" lon="5.18194">
        <ele>442.7</ele>
        <time>2021-05-03T10:26:10Z</time>
      </trkpt>
      <trkpt lat="45.25851" lon="5.18185">
        <ele>442.6</ele>
        <time>2021-05-03T10:26:11Z</time>
      </trkpt>
      <trkpt lat="45.25851" lon="5.18176">
        <ele>442.5</ele>
        <time>2021-05-03T10:26:12Z</time>
      </trkpt>
      <trkpt lat="45.25851" lon="5.18166">
        <ele>442.5</ele>
        <time>2021-05-03T10:26:13Z</time>
      </trkpt>
      <trkpt lat="45.2585" lon="5.18157">
        <ele>442.4</ele>
        <time>2021-05-03T10:26:14Z</time>
      </trkpt>
      <trkpt lat="45.2585" lon="5.18148">
        <ele>442.3</ele>
        <time>2021-05-03T10:26:15Z</time>
      </trkpt>
      <trkpt lat="45.25851" lon="5.18139">
        <ele>442.2</ele>
        <time>2021-05-03T10:26:16Z</time>
      </trkpt>
      <trkpt lat="45.25851" lon="5.18129">
        <ele>442.2</ele>
        <time>2021-05-03T10:26:17Z</time>
      </trkpt>
      <trkpt lat="45.25851" lon="5.1812">
        <ele>442.1</ele>
        <time>2021-05-03T10:26:18Z</time>
      </trkpt>
      <trkpt lat="45.25851" lon="5.1811">
        <ele>442</ele>
        <time>2021-05-03T10:26:19Z</time>
      </trkpt>
      <trkpt lat="45.25851" lon="5.18101">
        <ele>441.9</ele>
        <time>2021-05-03T10:26:20Z</time>
      </trkpt>
      <trkpt lat="45.25851" lon="5.18091">
        <ele>441.8</ele>
        <time>2021-05-03T10:26:21Z</time>
      </trkpt>
      <trkpt lat="45.25851" lon="5.18082">
        <ele>441.8</ele>
        <time>2021-05-03T10:26:22Z</time>
      </trkpt>
      <trkpt lat="45.25851" lon="5.18073">
        <ele>441.7</ele>
        <time>2021-05-03T10:26:23Z</time>
      </trkpt>
      <trkpt lat="45.25851" lon="5.18063">
        <ele>441.6</ele>
        <time>2021-05-03T10:26:24Z</time>
      </trkpt>
      <trkpt lat="45.25851" lon="5.18054">
        <ele>441.6</ele>
        <time>2021-05-03T10:26:25Z</time>
      </trkpt>
      <trkpt lat="45.25851" lon="5.18044">
        <ele>441.5</ele>
        <time>2021-05-03T10:26:26Z</time>
      </trkpt>
      <trkpt lat="45.2585" lon="5.18035">
        <ele>441.4</ele>
        <time>2021-05-03T10:26:27Z</time>
      </trkpt>
      <trkpt lat="45.25848" lon="5.18026">
        <ele>441.4</ele>
        <time>2021-05-03T10:26:28Z</time>
      </trkpt>
      <trkpt lat="45.25846" lon="5.18017">
        <ele>441.3</ele>
        <time>2021-05-03T10:26:29Z</time>
      </trkpt>
      <trkpt lat="45.25844" lon="5.18008">
        <ele>441.3</ele>
        <time>2021-05-03T10:26:30Z</time>
      </trkpt>
      <trkpt lat="45.25841" lon="5.17999">
        <ele>441.2</ele>
        <time>2021-05-03T10:26:31Z</time>
      </trkpt>
      <trkpt lat="45.25837" lon="5.17991">
        <ele>441.1</ele>
        <time>2021-05-03T10:26:32Z</time>
      </trkpt>
      <trkpt lat="45.25834" lon="5.17983">
        <ele>441</ele>
        <time>2021-05-03T10:26:33Z</time>
      </trkpt>
      <trkpt lat="45.25831" lon="5.17974">
        <ele>440.9</ele>
        <time>2021-05-03T10:26:34Z</time>
      </trkpt>
      <trkpt lat="45.25828" lon="5.17965">
        <ele>440.8</ele>
        <time>2021-05-03T10:26:35Z</time>
      </trkpt>
      <trkpt lat="45.25825" lon="5.17956">
        <ele>440.7</ele>
        <time>2021-05-03T10:26:36Z</time>
      </trkpt>
      <trkpt lat="45.25821" lon="5.17947">
        <ele>440.7</ele>
        <time>2021-05-03T10:26:37Z</time>
      </trkpt>
      <trkpt lat="45.25818" lon="5.17938">
        <ele>440.6</ele>
        <time>2021-05-03T10:26:38Z</time>
      </trkpt>
      <trkpt lat="45.25815" lon="5.1793">
        <ele>440.5</ele>
        <time>2021-05-03T10:26:39Z</time>
      </trkpt>
      <trkpt lat="45.25812" lon="5.17921">
        <ele>440.4</ele>
        <time>2021-05-03T10:26:40Z</time>
      </trkpt>
      <trkpt lat="45.25809" lon="5.17912">
        <ele>440.3</ele>
        <time>2021-05-03T10:26:41Z</time>
      </trkpt>
      <trkpt lat="45.25806" lon="5.17903">
        <ele>440.2</ele>
        <time>2021-05-03T10:26:42Z</time>
      </trkpt>
      <trkpt lat="45.25803" lon="5.17894">
        <ele>440.1</ele>
        <time>2021-05-03T10:26:43Z</time>
      </trkpt>
      <trkpt lat="45.25799" lon="5.17885">
        <ele>440</ele>
        <time>2021-05-03T10:26:44Z</time>
      </trkpt>
      <trkpt lat="45.25796" lon="5.17876">
        <ele>439.9</ele>
        <time>2021-05-03T10:26:45Z</time>
      </trkpt>
      <trkpt lat="45.25793" lon="5.17867">
        <ele>439.8</ele>
        <time>2021-05-03T10:26:46Z</time>
      </trkpt>
      <trkpt lat="45.2579" lon="5.17858">
        <ele>439.7</ele>
        <time>2021-05-03T10:26:47Z</time>
      </trkpt>
      <trkpt lat="45.25786" lon="5.17849">
        <ele>439.6</ele>
        <time>2021-05-03T10:26:48Z</time>
      </trkpt>
      <trkpt lat="45.25783" lon="5.1784">
        <ele>439.5</ele>
        <time>2021-05-03T10:26:49Z</time>
      </trkpt>
      <trkpt lat="45.2578" lon="5.17831">
        <ele>439.4</ele>
        <time>2021-05-03T10:26:50Z</time>
      </trkpt>
      <trkpt lat="45.25777" lon="5.17822">
        <ele>439.3</ele>
        <time>2021-05-03T10:26:51Z</time>
      </trkpt>
      <trkpt lat="45.25774" lon="5.17813">
        <ele>439.2</ele>
        <time>2021-05-03T10:26:52Z</time>
      </trkpt>
      <trkpt lat="45.25771" lon="5.17804">
        <ele>439.1</ele>
        <time>2021-05-03T10:26:53Z</time>
      </trkpt>
      <trkpt lat="45.25768" lon="5.17795">
        <ele>439</ele>
        <time>2021-05-03T10:26:54Z</time>
      </trkpt>
      <trkpt lat="45.25765" lon="5.17786">
        <ele>438.9</ele>
        <time>2021-05-03T10:26:55Z</time>
      </trkpt>
      <trkpt lat="45.25761" lon="5.17777">
        <ele>438.8</ele>
        <time>2021-05-03T10:26:56Z</time>
      </trkpt>
      <trkpt lat="45.25758" lon="5.17768">
        <ele>438.7</ele>
        <time>2021-05-03T10:26:57Z</time>
      </trkpt>
      <trkpt lat="45.25755" lon="5.17759">
        <ele>438.6</ele>
        <time>2021-05-03T10:26:58Z</time>
      </trkpt>
      <trkpt lat="45.25752" lon="5.17751">
        <ele>438.6</ele>
        <time>2021-05-03T10:26:59Z</time>
      </trkpt>
      <trkpt lat="45.25749" lon="5.17743">
        <ele>438.5</ele>
        <time>2021-05-03T10:27:00Z</time>
      </trkpt>
      <trkpt lat="45.25747" lon="5.17734">
        <ele>438.4</ele>
        <time>2021-05-03T10:27:01Z</time>
      </trkpt>
      <trkpt lat="45.25744" lon="5.17725">
        <ele>438.3</ele>
        <time>2021-05-03T10:27:02Z</time>
      </trkpt>
      <trkpt lat="45.25742" lon="5.17717">
        <ele>438.2</ele>
        <time>2021-05-03T10:27:03Z</time>
      </trkpt>
      <trkpt lat="45.2574" lon="5.17708">
        <ele>438.1</ele>
        <time>2021-05-03T10:27:04Z</time>
      </trkpt>
      <trkpt lat="45.25738" lon="5.17699">
        <ele>438</ele>
        <time>2021-05-03T10:27:05Z</time>
      </trkpt>
      <trkpt lat="45.25735" lon="5.17689">
        <ele>437.9</ele>
        <time>2021-05-03T10:27:06Z</time>
      </trkpt>
      <trkpt lat="45.25733" lon="5.1768">
        <ele>437.9</ele>
        <time>2021-05-03T10:27:07Z</time>
      </trkpt>
      <trkpt lat="45.25732" lon="5.17672">
        <ele>437.8</ele>
        <time>2021-05-03T10:27:08Z</time>
      </trkpt>
      <trkpt lat="45.25731" lon="5.17663">
        <ele>437.7</ele>
        <time>2021-05-03T10:27:09Z</time>
      </trkpt>
      <trkpt lat="45.25729" lon="5.17655">
        <ele>437.6</ele>
        <time>2021-05-03T10:27:10Z</time>
      </trkpt>
      <trkpt lat="45.25727" lon="5.17646">
        <ele>437.5</ele>
        <time>2021-05-03T10:27:11Z</time>
      </trkpt>
      <trkpt lat="45.25726" lon="5.17637">
        <ele>437.4</ele>
        <time>2021-05-03T10:27:12Z</time>
      </trkpt>
      <trkpt lat="45.25724" lon="5.17629">
        <ele>437.4</ele>
        <time>2021-05-03T10:27:13Z</time>
      </trkpt>
      <trkpt lat="45.25722" lon="5.1762">
        <ele>437.3</ele>
        <time>2021-05-03T10:27:14Z</time>
      </trkpt>
      <trkpt lat="45.2572" lon="5.17612">
        <ele>437.2</ele>
        <time>2021-05-03T10:27:15Z</time>
      </trkpt>
      <trkpt lat="45.25718" lon="5.17603">
        <ele>437.1</ele>
        <time>2021-05-03T10:27:16Z</time>
      </trkpt>
      <trkpt lat="45.25716" lon="5.17594">
        <ele>437</ele>
        <time>2021-05-03T10:27:17Z</time>
      </trkpt>
      <trkpt lat="45.25713" lon="5.17585">
        <ele>436.9</ele>
        <time>2021-05-03T10:27:18Z</time>
      </trkpt>
      <trkpt lat="45.25711" lon="5.17575">
        <ele>436.8</ele>
        <time>2021-05-03T10:27:19Z</time>
      </trkpt>
      <trkpt lat="45.25709" lon="5.17566">
        <ele>436.7</ele>
        <time>2021-05-03T10:27:20Z</time>
      </trkpt>
      <trkpt lat="45.25707" lon="5.17557">
        <ele>436.6</ele>
        <time>2021-05-03T10:27:21Z</time>
      </trkpt>
      <trkpt lat="45.25704" lon="5.17548">
        <ele>436.5</ele>
        <time>2021-05-03T10:27:22Z</time>
      </trkpt>
      <trkpt lat="45.25702" lon="5.17539">
        <ele>436.4</ele>
        <time>2021-05-03T10:27:23Z</time>
      </trkpt>
      <trkpt lat="45.257" lon="5.1753">
        <ele>436.3</ele>
        <time>2021-05-03T10:27:24Z</time>
      </trkpt>
      <trkpt lat="45.25698" lon="5.17522">
        <ele>436.2</ele>
        <time>2021-05-03T10:27:25Z</time>
      </trkpt>
      <trkpt lat="45.25696" lon="5.17512">
        <ele>436.1</ele>
        <time>2021-05-03T10:27:26Z</time>
      </trkpt>
      <trkpt lat="45.25694" lon="5.17503">
        <ele>436</ele>
        <time>2021-05-03T10:27:27Z</time>
      </trkpt>
      <trkpt lat="45.25693" lon="5.17493">
        <ele>435.9</ele>
        <time>2021-05-03T10:27:28Z</time>
      </trkpt>
      <trkpt lat="45.25691" lon="5.17484">
        <ele>435.8</ele>
        <time>2021-05-03T10:27:29Z</time>
      </trkpt>
      <trkpt lat="45.2569" lon="5.17474">
        <ele>435.7</ele>
        <time>2021-05-03T10:27:30Z</time>
      </trkpt>
      <trkpt lat="45.25688" lon="5.17464">
        <ele>435.6</ele>
        <time>2021-05-03T10:27:31Z</time>
      </trkpt>
      <trkpt lat="45.25687" lon="5.17453">
        <ele>435.4</ele>
        <time>2021-05-03T10:27:32Z</time>
      </trkpt>
      <trkpt lat="45.25686" lon="5.17442">
        <ele>435.3</ele>
        <time>2021-05-03T10:27:33Z</time>
      </trkpt>
      <trkpt lat="45.25685" lon="5.17431">
        <ele>435.1</ele>
        <time>2021-05-03T10:27:34Z</time>
      </trkpt>
      <trkpt lat="45.25684" lon="5.1742">
        <ele>435</ele>
        <time>2021-05-03T10:27:35Z</time>
      </trkpt>
      <trkpt lat="45.25683" lon="5.1741">
        <ele>434.8</ele>
        <time>2021-05-03T10:27:36Z</time>
      </trkpt>
      <trkpt lat="45.25682" lon="5.17399">
        <ele>434.7</ele>
        <time>2021-05-03T10:27:37Z</time>
      </trkpt>
      <trkpt lat="45.25681" lon="5.17388">
        <ele>434.5</ele>
        <time>2021-05-03T10:27:38Z</time>
      </trkpt>
      <trkpt lat="45.25679" lon="5.17377">
        <ele>434.3</ele>
        <time>2021-05-03T10:27:39Z</time>
      </trkpt>
      <trkpt lat="45.25679" lon="5.17366">
        <ele>434.1</ele>
        <time>2021-05-03T10:27:40Z</time>
      </trkpt>
      <trkpt lat="45.25678" lon="5.17356">
        <ele>434</ele>
        <time>2021-05-03T10:27:41Z</time>
      </trkpt>
      <trkpt lat="45.25677" lon="5.17345">
        <ele>433.8</ele>
        <time>2021-05-03T10:27:42Z</time>
      </trkpt>
      <trkpt lat="45.25677" lon="5.17334">
        <ele>433.7</ele>
        <time>2021-05-03T10:27:43Z</time>
      </trkpt>
      <trkpt lat="45.25677" lon="5.17324">
        <ele>433.6</ele>
        <time>2021-05-03T10:27:44Z</time>
      </trkpt>
      <trkpt lat="45.25677" lon="5.17317">
        <ele>433.5</ele>
        <time>2021-05-03T10:27:45Z</time>
      </trkpt>
      <trkpt lat="45.25673" lon="5.1731">
        <ele>433.5</ele>
        <time>2021-05-03T10:27:46Z</time>
      </trkpt>
      <trkpt lat="45.25668" lon="5.17306">
        <ele>433.1</ele>
        <time>2021-05-03T10:27:47Z</time>
      </trkpt>
      <trkpt lat="45.25664" lon="5.17304">
        <ele>432.9</ele>
        <time>2021-05-03T10:27:48Z</time>
      </trkpt>
      <trkpt lat="45.25663" lon="5.17304">
        <ele>432.8</ele>
        <time>2021-05-03T10:27:49Z</time>
      </trkpt>
      <trkpt lat="45.25661" lon="5.17304">
        <ele>432.7</ele>
        <time>2021-05-03T10:27:50Z</time>
      </trkpt>
      <trkpt lat="45.25661" lon="5.17304">
        <ele>432.7</ele>
        <time>2021-05-03T10:27:51Z</time>
      </trkpt>
      <trkpt lat="45.2566" lon="5.17303">
        <ele>432.7</ele>
        <time>2021-05-03T10:27:52Z</time>
      </trkpt>
      <trkpt lat="45.25661" lon="5.17304">
        <ele>432.6</ele>
        <time>2021-05-03T10:27:53Z</time>
      </trkpt>
      <trkpt lat="45.25661" lon="5.17304">
        <ele>432.6</ele>
        <time>2021-05-03T10:27:54Z</time>
      </trkpt>
      <trkpt lat="45.25661" lon="5.17304">
        <ele>432.6</ele>
        <time>2021-05-03T10:27:55Z</time>
      </trkpt>
      <trkpt lat="45.25661" lon="5.17304">
        <ele>432.6</ele>
        <time>2021-05-03T10:27:56Z</time>
      </trkpt>
      <trkpt lat="45.25661" lon="5.17303">
        <ele>432.6</ele>
        <time>2021-05-03T10:27:58Z</time>
      </trkpt>
      <trkpt lat="45.25661" lon="5.17303">
        <ele>432.6</ele>
        <time>2021-05-03T10:27:59Z</time>
      </trkpt>
      <trkpt lat="45.25661" lon="5.17303">
        <ele>432.6</ele>
        <time>2021-05-03T10:28:00Z</time>
      </trkpt>
      <trkpt lat="45.25661" lon="5.17303">
        <ele>432.6</ele>
        <time>2021-05-03T10:28:01Z</time>
      </trkpt>
      <trkpt lat="45.2566" lon="5.17303">
        <ele>432.6</ele>
        <time>2021-05-03T10:28:02Z</time>
      </trkpt>
      <trkpt lat="45.25655" lon="5.17304">
        <ele>432.3</ele>
        <time>2021-05-03T10:28:39Z</time>
      </trkpt>
      <trkpt lat="45.25651" lon="5.17301">
        <ele>432.1</ele>
        <time>2021-05-03T10:28:41Z</time>
      </trkpt>
      <trkpt lat="45.25645" lon="5.17293">
        <ele>431.8</ele>
        <time>2021-05-03T10:28:43Z</time>
      </trkpt>
      <trkpt lat="45.25641" lon="5.17288">
        <ele>431.6</ele>
        <time>2021-05-03T10:28:44Z</time>
      </trkpt>
      <trkpt lat="45.25635" lon="5.17281">
        <ele>431.4</ele>
        <time>2021-05-03T10:28:46Z</time>
      </trkpt>
      <trkpt lat="45.25632" lon="5.17286">
        <ele>431.5</ele>
        <time>2021-05-03T10:28:48Z</time>
      </trkpt>
      <trkpt lat="45.25636" lon="5.17291">
        <ele>431.6</ele>
        <time>2021-05-03T10:28:50Z</time>
      </trkpt>
      <trkpt lat="45.25639" lon="5.17294">
        <ele>431.7</ele>
        <time>2021-05-03T10:28:51Z</time>
      </trkpt>
      <trkpt lat="45.25644" lon="5.17297">
        <ele>431.9</ele>
        <time>2021-05-03T10:28:53Z</time>
      </trkpt>
      <trkpt lat="45.25647" lon="5.17299">
        <ele>432</ele>
        <time>2021-05-03T10:28:54Z</time>
      </trkpt>
      <trkpt lat="45.25652" lon="5.17303">
        <ele>432.3</ele>
        <time>2021-05-03T10:28:56Z</time>
      </trkpt>
      <trkpt lat="45.25655" lon="5.17306">
        <ele>432.4</ele>
        <time>2021-05-03T10:28:57Z</time>
      </trkpt>
      <trkpt lat="45.2566" lon="5.1731">
        <ele>432.7</ele>
        <time>2021-05-03T10:28:59Z</time>
      </trkpt>
      <trkpt lat="45.25664" lon="5.17313">
        <ele>433</ele>
        <time>2021-05-03T10:29:01Z</time>
      </trkpt>
      <trkpt lat="45.25668" lon="5.17315">
        <ele>433.2</ele>
        <time>2021-05-03T10:29:02Z</time>
      </trkpt>
      <trkpt lat="45.2567" lon="5.17314">
        <ele>433.5</ele>
        <time>2021-05-03T10:29:03Z</time>
      </trkpt>
      <trkpt lat="45.25672" lon="5.17313">
        <ele>433.5</ele>
        <time>2021-05-03T10:29:04Z</time>
      </trkpt>
      <trkpt lat="45.25673" lon="5.17308">
        <ele>433.4</ele>
        <time>2021-05-03T10:29:06Z</time>
      </trkpt>
      <trkpt lat="45.25675" lon="5.17303">
        <ele>433.4</ele>
        <time>2021-05-03T10:29:07Z</time>
      </trkpt>
      <trkpt lat="45.25678" lon="5.17295">
        <ele>433.4</ele>
        <time>2021-05-03T10:29:08Z</time>
      </trkpt>
      <trkpt lat="45.25679" lon="5.17289">
        <ele>433.3</ele>
        <time>2021-05-03T10:29:10Z</time>
      </trkpt>
      <trkpt lat="45.2568" lon="5.17281">
        <ele>433.3</ele>
        <time>2021-05-03T10:29:11Z</time>
      </trkpt>
      <trkpt lat="45.25682" lon="5.17269">
        <ele>433.2</ele>
        <time>2021-05-03T10:29:13Z</time>
      </trkpt>
      <trkpt lat="45.25684" lon="5.17252">
        <ele>433.1</ele>
        <time>2021-05-03T10:29:15Z</time>
      </trkpt>
      <trkpt lat="45.25685" lon="5.17245">
        <ele>433</ele>
        <time>2021-05-03T10:29:16Z</time>
      </trkpt>
      <trkpt lat="45.25687" lon="5.17237">
        <ele>433</ele>
        <time>2021-05-03T10:29:17Z</time>
      </trkpt>
      <trkpt lat="45.25688" lon="5.1723">
        <ele>432.9</ele>
        <time>2021-05-03T10:29:18Z</time>
      </trkpt>
      <trkpt lat="45.25689" lon="5.17222">
        <ele>432.9</ele>
        <time>2021-05-03T10:29:19Z</time>
      </trkpt>
      <trkpt lat="45.2569" lon="5.17215">
        <ele>432.8</ele>
        <time>2021-05-03T10:29:20Z</time>
      </trkpt>
      <trkpt lat="45.2569" lon="5.17208">
        <ele>432.8</ele>
        <time>2021-05-03T10:29:21Z</time>
      </trkpt>
      <trkpt lat="45.2569" lon="5.17201">
        <ele>432.8</ele>
        <time>2021-05-03T10:29:22Z</time>
      </trkpt>
      <trkpt lat="45.2569" lon="5.17194">
        <ele>432.8</ele>
        <time>2021-05-03T10:29:23Z</time>
      </trkpt>
      <trkpt lat="45.25691" lon="5.17185">
        <ele>432.7</ele>
        <time>2021-05-03T10:29:24Z</time>
      </trkpt>
      <trkpt lat="45.25692" lon="5.17177">
        <ele>432.7</ele>
        <time>2021-05-03T10:29:25Z</time>
      </trkpt>
      <trkpt lat="45.25693" lon="5.17169">
        <ele>432.7</ele>
        <time>2021-05-03T10:29:26Z</time>
      </trkpt>
      <trkpt lat="45.25694" lon="5.17161">
        <ele>432.6</ele>
        <time>2021-05-03T10:29:27Z</time>
      </trkpt>
      <trkpt lat="45.25696" lon="5.17153">
        <ele>432.6</ele>
        <time>2021-05-03T10:29:28Z</time>
      </trkpt>
      <trkpt lat="45.25697" lon="5.17145">
        <ele>432.6</ele>
        <time>2021-05-03T10:29:29Z</time>
      </trkpt>
      <trkpt lat="45.25698" lon="5.17137">
        <ele>432.6</ele>
        <time>2021-05-03T10:29:30Z</time>
      </trkpt>
      <trkpt lat="45.25699" lon="5.17128">
        <ele>432.5</ele>
        <time>2021-05-03T10:29:31Z</time>
      </trkpt>
      <trkpt lat="45.25701" lon="5.17119">
        <ele>432.5</ele>
        <time>2021-05-03T10:29:32Z</time>
      </trkpt>
      <trkpt lat="45.25702" lon="5.1711">
        <ele>432.5</ele>
        <time>2021-05-03T10:29:33Z</time>
      </trkpt>
      <trkpt lat="45.25704" lon="5.17101">
        <ele>432.4</ele>
        <time>2021-05-03T10:29:34Z</time>
      </trkpt>
      <trkpt lat="45.25705" lon="5.17092">
        <ele>432.4</ele>
        <time>2021-05-03T10:29:35Z</time>
      </trkpt>
      <trkpt lat="45.25707" lon="5.17083">
        <ele>432.4</ele>
        <time>2021-05-03T10:29:36Z</time>
      </trkpt>
      <trkpt lat="45.25708" lon="5.17074">
        <ele>432.3</ele>
        <time>2021-05-03T10:29:37Z</time>
      </trkpt>
      <trkpt lat="45.2571" lon="5.17065">
        <ele>432.3</ele>
        <time>2021-05-03T10:29:38Z</time>
      </trkpt>
      <trkpt lat="45.25711" lon="5.17057">
        <ele>432.3</ele>
        <time>2021-05-03T10:29:39Z</time>
      </trkpt>
      <trkpt lat="45.25711" lon="5.17048">
        <ele>432.3</ele>
        <time>2021-05-03T10:29:40Z</time>
      </trkpt>
      <trkpt lat="45.25712" lon="5.17039">
        <ele>432.3</ele>
        <time>2021-05-03T10:29:41Z</time>
      </trkpt>
      <trkpt lat="45.25714" lon="5.17031">
        <ele>432.2</ele>
        <time>2021-05-03T10:29:42Z</time>
      </trkpt>
      <trkpt lat="45.25715" lon="5.17022">
        <ele>432.2</ele>
        <time>2021-05-03T10:29:43Z</time>
      </trkpt>
      <trkpt lat="45.25716" lon="5.17013">
        <ele>432.1</ele>
        <time>2021-05-03T10:29:44Z</time>
      </trkpt>
      <trkpt lat="45.25716" lon="5.17005">
        <ele>432.1</ele>
        <time>2021-05-03T10:29:45Z</time>
      </trkpt>
      <trkpt lat="45.25717" lon="5.16996">
        <ele>432</ele>
        <time>2021-05-03T10:29:46Z</time>
      </trkpt>
      <trkpt lat="45.25718" lon="5.16987">
        <ele>432</ele>
        <time>2021-05-03T10:29:47Z</time>
      </trkpt>
      <trkpt lat="45.25719" lon="5.16978">
        <ele>432</ele>
        <time>2021-05-03T10:29:48Z</time>
      </trkpt>
      <trkpt lat="45.2572" lon="5.16969">
        <ele>431.9</ele>
        <time>2021-05-03T10:29:49Z</time>
      </trkpt>
      <trkpt lat="45.25721" lon="5.1696">
        <ele>431.9</ele>
        <time>2021-05-03T10:29:50Z</time>
      </trkpt>
      <trkpt lat="45.25721" lon="5.16952">
        <ele>431.9</ele>
        <time>2021-05-03T10:29:51Z</time>
      </trkpt>
      <trkpt lat="45.25721" lon="5.16944">
        <ele>431.8</ele>
        <time>2021-05-03T10:29:52Z</time>
      </trkpt>
      <trkpt lat="45.25721" lon="5.16936">
        <ele>431.8</ele>
        <time>2021-05-03T10:29:53Z</time>
      </trkpt>
      <trkpt lat="45.25721" lon="5.16927">
        <ele>431.7</ele>
        <time>2021-05-03T10:29:54Z</time>
      </trkpt>
      <trkpt lat="45.25721" lon="5.16918">
        <ele>431.6</ele>
        <time>2021-05-03T10:29:55Z</time>
      </trkpt>
      <trkpt lat="45.25721" lon="5.16909">
        <ele>431.5</ele>
        <time>2021-05-03T10:29:56Z</time>
      </trkpt>
      <trkpt lat="45.2572" lon="5.169">
        <ele>431.4</ele>
        <time>2021-05-03T10:29:57Z</time>
      </trkpt>
      <trkpt lat="45.25719" lon="5.16891">
        <ele>431.3</ele>
        <time>2021-05-03T10:29:58Z</time>
      </trkpt>
      <trkpt lat="45.25719" lon="5.16881">
        <ele>431.2</ele>
        <time>2021-05-03T10:29:59Z</time>
      </trkpt>
      <trkpt lat="45.25718" lon="5.16871">
        <ele>431.1</ele>
        <time>2021-05-03T10:30:00Z</time>
      </trkpt>
      <trkpt lat="45.25717" lon="5.16862">
        <ele>430.9</ele>
        <time>2021-05-03T10:30:01Z</time>
      </trkpt>
      <trkpt lat="45.25716" lon="5.16852">
        <ele>430.8</ele>
        <time>2021-05-03T10:30:02Z</time>
      </trkpt>
      <trkpt lat="45.25715" lon="5.16842">
        <ele>430.6</ele>
        <time>2021-05-03T10:30:03Z</time>
      </trkpt>
      <trkpt lat="45.25715" lon="5.16832">
        <ele>430.5</ele>
        <time>2021-05-03T10:30:04Z</time>
      </trkpt>
      <trkpt lat="45.25713" lon="5.16822">
        <ele>430.4</ele>
        <time>2021-05-03T10:30:05Z</time>
      </trkpt>
      <trkpt lat="45.25713" lon="5.16812">
        <ele>430.3</ele>
        <time>2021-05-03T10:30:06Z</time>
      </trkpt>
      <trkpt lat="45.25712" lon="5.16801">
        <ele>430.1</ele>
        <time>2021-05-03T10:30:07Z</time>
      </trkpt>
      <trkpt lat="45.25712" lon="5.16791">
        <ele>430</ele>
        <time>2021-05-03T10:30:08Z</time>
      </trkpt>
      <trkpt lat="45.25711" lon="5.16781">
        <ele>429.9</ele>
        <time>2021-05-03T10:30:09Z</time>
      </trkpt>
      <trkpt lat="45.25711" lon="5.16771">
        <ele>429.7</ele>
        <time>2021-05-03T10:30:10Z</time>
      </trkpt>
      <trkpt lat="45.2571" lon="5.16761">
        <ele>429.6</ele>
        <time>2021-05-03T10:30:11Z</time>
      </trkpt>
      <trkpt lat="45.25709" lon="5.1675">
        <ele>429.4</ele>
        <time>2021-05-03T10:30:12Z</time>
      </trkpt>
      <trkpt lat="45.25708" lon="5.1674">
        <ele>429.3</ele>
        <time>2021-05-03T10:30:13Z</time>
      </trkpt>
      <trkpt lat="45.25707" lon="5.16729">
        <ele>429.1</ele>
        <time>2021-05-03T10:30:14Z</time>
      </trkpt>
      <trkpt lat="45.25706" lon="5.16719">
        <ele>429</ele>
        <time>2021-05-03T10:30:15Z</time>
      </trkpt>
      <trkpt lat="45.25705" lon="5.16708">
        <ele>428.9</ele>
        <time>2021-05-03T10:30:16Z</time>
      </trkpt>
      <trkpt lat="45.25704" lon="5.16698">
        <ele>428.7</ele>
        <time>2021-05-03T10:30:17Z</time>
      </trkpt>
      <trkpt lat="45.25703" lon="5.16687">
        <ele>428.6</ele>
        <time>2021-05-03T10:30:18Z</time>
      </trkpt>
      <trkpt lat="45.25702" lon="5.16676">
        <ele>428.4</ele>
        <time>2021-05-03T10:30:19Z</time>
      </trkpt>
      <trkpt lat="45.257" lon="5.16665">
        <ele>428.2</ele>
        <time>2021-05-03T10:30:20Z</time>
      </trkpt>
      <trkpt lat="45.25698" lon="5.16655">
        <ele>428.1</ele>
        <time>2021-05-03T10:30:21Z</time>
      </trkpt>
      <trkpt lat="45.25696" lon="5.16644">
        <ele>427.8</ele>
        <time>2021-05-03T10:30:22Z</time>
      </trkpt>
      <trkpt lat="45.25695" lon="5.16633">
        <ele>427.6</ele>
        <time>2021-05-03T10:30:23Z</time>
      </trkpt>
      <trkpt lat="45.25693" lon="5.16622">
        <ele>427.4</ele>
        <time>2021-05-03T10:30:24Z</time>
      </trkpt>
      <trkpt lat="45.2569" lon="5.1661">
        <ele>427.1</ele>
        <time>2021-05-03T10:30:25Z</time>
      </trkpt>
      <trkpt lat="45.25688" lon="5.16599">
        <ele>426.9</ele>
        <time>2021-05-03T10:30:26Z</time>
      </trkpt>
      <trkpt lat="45.25685" lon="5.16587">
        <ele>426.7</ele>
        <time>2021-05-03T10:30:27Z</time>
      </trkpt>
      <trkpt lat="45.25682" lon="5.16576">
        <ele>426.4</ele>
        <time>2021-05-03T10:30:28Z</time>
      </trkpt>
      <trkpt lat="45.2568" lon="5.16564">
        <ele>426.2</ele>
        <time>2021-05-03T10:30:29Z</time>
      </trkpt>
      <trkpt lat="45.25677" lon="5.16553">
        <ele>426</ele>
        <time>2021-05-03T10:30:30Z</time>
      </trkpt>
      <trkpt lat="45.25675" lon="5.16541">
        <ele>425.7</ele>
        <time>2021-05-03T10:30:31Z</time>
      </trkpt>
      <trkpt lat="45.25673" lon="5.1653">
        <ele>425.6</ele>
        <time>2021-05-03T10:30:32Z</time>
      </trkpt>
      <trkpt lat="45.25671" lon="5.16519">
        <ele>425.4</ele>
        <time>2021-05-03T10:30:33Z</time>
      </trkpt>
      <trkpt lat="45.25669" lon="5.16508">
        <ele>425.2</ele>
        <time>2021-05-03T10:30:34Z</time>
      </trkpt>
      <trkpt lat="45.25667" lon="5.16497">
        <ele>425</ele>
        <time>2021-05-03T10:30:35Z</time>
      </trkpt>
      <trkpt lat="45.25665" lon="5.16487">
        <ele>424.8</ele>
        <time>2021-05-03T10:30:36Z</time>
      </trkpt>
      <trkpt lat="45.25664" lon="5.16477">
        <ele>424.7</ele>
        <time>2021-05-03T10:30:37Z</time>
      </trkpt>
      <trkpt lat="45.25662" lon="5.16467">
        <ele>424.5</ele>
        <time>2021-05-03T10:30:38Z</time>
      </trkpt>
      <trkpt lat="45.25661" lon="5.16455">
        <ele>424.4</ele>
        <time>2021-05-03T10:30:39Z</time>
      </trkpt>
      <trkpt lat="45.25661" lon="5.16444">
        <ele>424.2</ele>
        <time>2021-05-03T10:30:40Z</time>
      </trkpt>
      <trkpt lat="45.2566" lon="5.16433">
        <ele>424.1</ele>
        <time>2021-05-03T10:30:41Z</time>
      </trkpt>
      <trkpt lat="45.2566" lon="5.16422">
        <ele>424</ele>
        <time>2021-05-03T10:30:42Z</time>
      </trkpt>
      <trkpt lat="45.25661" lon="5.16411">
        <ele>424</ele>
        <time>2021-05-03T10:30:43Z</time>
      </trkpt>
      <trkpt lat="45.25661" lon="5.16401">
        <ele>424</ele>
        <time>2021-05-03T10:30:44Z</time>
      </trkpt>
      <trkpt lat="45.25662" lon="5.1639">
        <ele>424</ele>
        <time>2021-05-03T10:30:45Z</time>
      </trkpt>
      <trkpt lat="45.25663" lon="5.1638">
        <ele>424</ele>
        <time>2021-05-03T10:30:46Z</time>
      </trkpt>
      <trkpt lat="45.25663" lon="5.16369">
        <ele>424</ele>
        <time>2021-05-03T10:30:47Z</time>
      </trkpt>
      <trkpt lat="45.25664" lon="5.16359">
        <ele>424</ele>
        <time>2021-05-03T10:30:48Z</time>
      </trkpt>
      <trkpt lat="45.25665" lon="5.1635">
        <ele>424</ele>
        <time>2021-05-03T10:30:49Z</time>
      </trkpt>
      <trkpt lat="45.25665" lon="5.1634">
        <ele>424.1</ele>
        <time>2021-05-03T10:30:50Z</time>
      </trkpt>
      <trkpt lat="45.25665" lon="5.16331">
        <ele>424.1</ele>
        <time>2021-05-03T10:30:51Z</time>
      </trkpt>
      <trkpt lat="45.25666" lon="5.16323">
        <ele>424.2</ele>
        <time>2021-05-03T10:30:52Z</time>
      </trkpt>
      <trkpt lat="45.25667" lon="5.16314">
        <ele>424.3</ele>
        <time>2021-05-03T10:30:53Z</time>
      </trkpt>
      <trkpt lat="45.25667" lon="5.16306">
        <ele>424.3</ele>
        <time>2021-05-03T10:30:54Z</time>
      </trkpt>
      <trkpt lat="45.25667" lon="5.16298">
        <ele>424.4</ele>
        <time>2021-05-03T10:30:55Z</time>
      </trkpt>
      <trkpt lat="45.25666" lon="5.1629">
        <ele>424.5</ele>
        <time>2021-05-03T10:30:56Z</time>
      </trkpt>
      <trkpt lat="45.25666" lon="5.16282">
        <ele>424.5</ele>
        <time>2021-05-03T10:30:57Z</time>
      </trkpt>
      <trkpt lat="45.25666" lon="5.16274">
        <ele>424.6</ele>
        <time>2021-05-03T10:30:58Z</time>
      </trkpt>
      <trkpt lat="45.25666" lon="5.16266">
        <ele>424.6</ele>
        <time>2021-05-03T10:30:59Z</time>
      </trkpt>
      <trkpt lat="45.25666" lon="5.16258">
        <ele>424.7</ele>
        <time>2021-05-03T10:31:00Z</time>
      </trkpt>
      <trkpt lat="45.25666" lon="5.1625">
        <ele>424.8</ele>
        <time>2021-05-03T10:31:01Z</time>
      </trkpt>
      <trkpt lat="45.25667" lon="5.16243">
        <ele>424.8</ele>
        <time>2021-05-03T10:31:02Z</time>
      </trkpt>
      <trkpt lat="45.25667" lon="5.16235">
        <ele>424.8</ele>
        <time>2021-05-03T10:31:03Z</time>
      </trkpt>
      <trkpt lat="45.25668" lon="5.16227">
        <ele>424.9</ele>
        <time>2021-05-03T10:31:04Z</time>
      </trkpt>
      <trkpt lat="45.25667" lon="5.16218">
        <ele>424.9</ele>
        <time>2021-05-03T10:31:05Z</time>
      </trkpt>
      <trkpt lat="45.25667" lon="5.1621">
        <ele>424.9</ele>
        <time>2021-05-03T10:31:06Z</time>
      </trkpt>
      <trkpt lat="45.25667" lon="5.16201">
        <ele>424.9</ele>
        <time>2021-05-03T10:31:07Z</time>
      </trkpt>
      <trkpt lat="45.25667" lon="5.16192">
        <ele>424.9</ele>
        <time>2021-05-03T10:31:08Z</time>
      </trkpt>
      <trkpt lat="45.25667" lon="5.16183">
        <ele>424.9</ele>
        <time>2021-05-03T10:31:09Z</time>
      </trkpt>
      <trkpt lat="45.25666" lon="5.16173">
        <ele>424.9</ele>
        <time>2021-05-03T10:31:10Z</time>
      </trkpt>
      <trkpt lat="45.25666" lon="5.16164">
        <ele>424.8</ele>
        <time>2021-05-03T10:31:11Z</time>
      </trkpt>
      <trkpt lat="45.25666" lon="5.16155">
        <ele>424.8</ele>
        <time>2021-05-03T10:31:12Z</time>
      </trkpt>
      <trkpt lat="45.25665" lon="5.16148">
        <ele>424.7</ele>
        <time>2021-05-03T10:31:13Z</time>
      </trkpt>
      <trkpt lat="45.25664" lon="5.1614">
        <ele>424.6</ele>
        <time>2021-05-03T10:31:14Z</time>
      </trkpt>
      <trkpt lat="45.25662" lon="5.16131">
        <ele>424.6</ele>
        <time>2021-05-03T10:31:15Z</time>
      </trkpt>
      <trkpt lat="45.2566" lon="5.16123">
        <ele>424.5</ele>
        <time>2021-05-03T10:31:16Z</time>
      </trkpt>
      <trkpt lat="45.25659" lon="5.16113">
        <ele>424.4</ele>
        <time>2021-05-03T10:31:17Z</time>
      </trkpt>
      <trkpt lat="45.25657" lon="5.16103">
        <ele>424.2</ele>
        <time>2021-05-03T10:31:18Z</time>
      </trkpt>
      <trkpt lat="45.25656" lon="5.16092">
        <ele>424</ele>
        <time>2021-05-03T10:31:19Z</time>
      </trkpt>
      <trkpt lat="45.25654" lon="5.16081">
        <ele>423.8</ele>
        <time>2021-05-03T10:31:20Z</time>
      </trkpt>
      <trkpt lat="45.25654" lon="5.1607">
        <ele>423.6</ele>
        <time>2021-05-03T10:31:21Z</time>
      </trkpt>
      <trkpt lat="45.25654" lon="5.16059">
        <ele>423.4</ele>
        <time>2021-05-03T10:31:22Z</time>
      </trkpt>
      <trkpt lat="45.25654" lon="5.16048">
        <ele>423.2</ele>
        <time>2021-05-03T10:31:23Z</time>
      </trkpt>
      <trkpt lat="45.25654" lon="5.16037">
        <ele>423</ele>
        <time>2021-05-03T10:31:24Z</time>
      </trkpt>
      <trkpt lat="45.25653" lon="5.16026">
        <ele>422.8</ele>
        <time>2021-05-03T10:31:25Z</time>
      </trkpt>
      <trkpt lat="45.25653" lon="5.16015">
        <ele>422.6</ele>
        <time>2021-05-03T10:31:26Z</time>
      </trkpt>
      <trkpt lat="45.25653" lon="5.16004">
        <ele>422.4</ele>
        <time>2021-05-03T10:31:27Z</time>
      </trkpt>
      <trkpt lat="45.25654" lon="5.15993">
        <ele>422.2</ele>
        <time>2021-05-03T10:31:28Z</time>
      </trkpt>
      <trkpt lat="45.25654" lon="5.15983">
        <ele>422.1</ele>
        <time>2021-05-03T10:31:29Z</time>
      </trkpt>
      <trkpt lat="45.25655" lon="5.15973">
        <ele>421.9</ele>
        <time>2021-05-03T10:31:30Z</time>
      </trkpt>
      <trkpt lat="45.25657" lon="5.15963">
        <ele>421.8</ele>
        <time>2021-05-03T10:31:31Z</time>
      </trkpt>
      <trkpt lat="45.25659" lon="5.15953">
        <ele>421.6</ele>
        <time>2021-05-03T10:31:32Z</time>
      </trkpt>
      <trkpt lat="45.25661" lon="5.15942">
        <ele>421.4</ele>
        <time>2021-05-03T10:31:33Z</time>
      </trkpt>
      <trkpt lat="45.25663" lon="5.15932">
        <ele>421.3</ele>
        <time>2021-05-03T10:31:34Z</time>
      </trkpt>
      <trkpt lat="45.25664" lon="5.15921">
        <ele>421.1</ele>
        <time>2021-05-03T10:31:35Z</time>
      </trkpt>
      <trkpt lat="45.25666" lon="5.15911">
        <ele>420.9</ele>
        <time>2021-05-03T10:31:36Z</time>
      </trkpt>
      <trkpt lat="45.25667" lon="5.15901">
        <ele>420.8</ele>
        <time>2021-05-03T10:31:37Z</time>
      </trkpt>
      <trkpt lat="45.25669" lon="5.15891">
        <ele>420.7</ele>
        <time>2021-05-03T10:31:38Z</time>
      </trkpt>
      <trkpt lat="45.25671" lon="5.15881">
        <ele>420.6</ele>
        <time>2021-05-03T10:31:39Z</time>
      </trkpt>
      <trkpt lat="45.25673" lon="5.15871">
        <ele>420.5</ele>
        <time>2021-05-03T10:31:40Z</time>
      </trkpt>
      <trkpt lat="45.25674" lon="5.15861">
        <ele>420.5</ele>
        <time>2021-05-03T10:31:41Z</time>
      </trkpt>
      <trkpt lat="45.25676" lon="5.15851">
        <ele>420.4</ele>
        <time>2021-05-03T10:31:42Z</time>
      </trkpt>
      <trkpt lat="45.25678" lon="5.15841">
        <ele>420.3</ele>
        <time>2021-05-03T10:31:43Z</time>
      </trkpt>
      <trkpt lat="45.25679" lon="5.15831">
        <ele>420.2</ele>
        <time>2021-05-03T10:31:44Z</time>
      </trkpt>
      <trkpt lat="45.25681" lon="5.1582">
        <ele>420.1</ele>
        <time>2021-05-03T10:31:45Z</time>
      </trkpt>
      <trkpt lat="45.25683" lon="5.1581">
        <ele>420</ele>
        <time>2021-05-03T10:31:46Z</time>
      </trkpt>
      <trkpt lat="45.25685" lon="5.15801">
        <ele>419.9</ele>
        <time>2021-05-03T10:31:47Z</time>
      </trkpt>
      <trkpt lat="45.25687" lon="5.15791">
        <ele>419.8</ele>
        <time>2021-05-03T10:31:48Z</time>
      </trkpt>
      <trkpt lat="45.25689" lon="5.15782">
        <ele>419.7</ele>
        <time>2021-05-03T10:31:49Z</time>
      </trkpt>
      <trkpt lat="45.2569" lon="5.15772">
        <ele>419.6</ele>
        <time>2021-05-03T10:31:50Z</time>
      </trkpt>
      <trkpt lat="45.25693" lon="5.15763">
        <ele>419.4</ele>
        <time>2021-05-03T10:31:51Z</time>
      </trkpt>
      <trkpt lat="45.25695" lon="5.15753">
        <ele>419.3</ele>
        <time>2021-05-03T10:31:52Z</time>
      </trkpt>
      <trkpt lat="45.25696" lon="5.15744">
        <ele>419.2</ele>
        <time>2021-05-03T10:31:53Z</time>
      </trkpt>
      <trkpt lat="45.25698" lon="5.15735">
        <ele>419.1</ele>
        <time>2021-05-03T10:31:54Z</time>
      </trkpt>
      <trkpt lat="45.257" lon="5.15725">
        <ele>419</ele>
        <time>2021-05-03T10:31:55Z</time>
      </trkpt>
      <trkpt lat="45.25702" lon="5.15715">
        <ele>418.9</ele>
        <time>2021-05-03T10:31:56Z</time>
      </trkpt>
      <trkpt lat="45.25704" lon="5.15704">
        <ele>418.8</ele>
        <time>2021-05-03T10:31:57Z</time>
      </trkpt>
      <trkpt lat="45.25706" lon="5.15695">
        <ele>418.8</ele>
        <time>2021-05-03T10:31:58Z</time>
      </trkpt>
      <trkpt lat="45.25707" lon="5.15685">
        <ele>418.7</ele>
        <time>2021-05-03T10:31:59Z</time>
      </trkpt>
      <trkpt lat="45.2571" lon="5.15674">
        <ele>418.5</ele>
        <time>2021-05-03T10:32:00Z</time>
      </trkpt>
      <trkpt lat="45.25712" lon="5.15664">
        <ele>418.4</ele>
        <time>2021-05-03T10:32:01Z</time>
      </trkpt>
      <trkpt lat="45.25714" lon="5.15654">
        <ele>418.3</ele>
        <time>2021-05-03T10:32:02Z</time>
      </trkpt>
      <trkpt lat="45.25716" lon="5.15643">
        <ele>418.2</ele>
        <time>2021-05-03T10:32:03Z</time>
      </trkpt>
      <trkpt lat="45.25718" lon="5.15633">
        <ele>418.1</ele>
        <time>2021-05-03T10:32:04Z</time>
      </trkpt>
      <trkpt lat="45.2572" lon="5.15624">
        <ele>418</ele>
        <time>2021-05-03T10:32:05Z</time>
      </trkpt>
      <trkpt lat="45.25722" lon="5.15614">
        <ele>417.9</ele>
        <time>2021-05-03T10:32:06Z</time>
      </trkpt>
      <trkpt lat="45.25724" lon="5.15604">
        <ele>417.8</ele>
        <time>2021-05-03T10:32:07Z</time>
      </trkpt>
      <trkpt lat="45.25726" lon="5.15594">
        <ele>417.7</ele>
        <time>2021-05-03T10:32:08Z</time>
      </trkpt>
      <trkpt lat="45.25728" lon="5.15584">
        <ele>417.6</ele>
        <time>2021-05-03T10:32:09Z</time>
      </trkpt>
      <trkpt lat="45.2573" lon="5.15574">
        <ele>417.5</ele>
        <time>2021-05-03T10:32:10Z</time>
      </trkpt>
      <trkpt lat="45.25731" lon="5.15564">
        <ele>417.4</ele>
        <time>2021-05-03T10:32:11Z</time>
      </trkpt>
      <trkpt lat="45.25733" lon="5.15554">
        <ele>417.3</ele>
        <time>2021-05-03T10:32:12Z</time>
      </trkpt>
      <trkpt lat="45.25734" lon="5.15544">
        <ele>417.2</ele>
        <time>2021-05-03T10:32:13Z</time>
      </trkpt>
      <trkpt lat="45.25735" lon="5.15534">
        <ele>417.1</ele>
        <time>2021-05-03T10:32:14Z</time>
      </trkpt>
      <trkpt lat="45.25736" lon="5.15524">
        <ele>417</ele>
        <time>2021-05-03T10:32:15Z</time>
      </trkpt>
      <trkpt lat="45.25736" lon="5.15514">
        <ele>416.9</ele>
        <time>2021-05-03T10:32:16Z</time>
      </trkpt>
      <trkpt lat="45.25736" lon="5.15505">
        <ele>416.8</ele>
        <time>2021-05-03T10:32:17Z</time>
      </trkpt>
      <trkpt lat="45.25737" lon="5.15495">
        <ele>416.6</ele>
        <time>2021-05-03T10:32:18Z</time>
      </trkpt>
      <trkpt lat="45.25737" lon="5.15485">
        <ele>416.5</ele>
        <time>2021-05-03T10:32:19Z</time>
      </trkpt>
      <trkpt lat="45.25737" lon="5.15475">
        <ele>416.3</ele>
        <time>2021-05-03T10:32:20Z</time>
      </trkpt>
      <trkpt lat="45.25737" lon="5.15464">
        <ele>416.2</ele>
        <time>2021-05-03T10:32:21Z</time>
      </trkpt>
      <trkpt lat="45.25736" lon="5.15454">
        <ele>416</ele>
        <time>2021-05-03T10:32:22Z</time>
      </trkpt>
      <trkpt lat="45.25736" lon="5.15444">
        <ele>415.8</ele>
        <time>2021-05-03T10:32:23Z</time>
      </trkpt>
      <trkpt lat="45.25735" lon="5.15434">
        <ele>415.7</ele>
        <time>2021-05-03T10:32:24Z</time>
      </trkpt>
      <trkpt lat="45.25735" lon="5.15424">
        <ele>415.5</ele>
        <time>2021-05-03T10:32:25Z</time>
      </trkpt>
      <trkpt lat="45.25736" lon="5.15414">
        <ele>415.4</ele>
        <time>2021-05-03T10:32:26Z</time>
      </trkpt>
      <trkpt lat="45.25736" lon="5.15404">
        <ele>415.3</ele>
        <time>2021-05-03T10:32:27Z</time>
      </trkpt>
      <trkpt lat="45.25736" lon="5.15394">
        <ele>415.2</ele>
        <time>2021-05-03T10:32:28Z</time>
      </trkpt>
      <trkpt lat="45.25737" lon="5.15384">
        <ele>415.1</ele>
        <time>2021-05-03T10:32:29Z</time>
      </trkpt>
      <trkpt lat="45.25739" lon="5.15374">
        <ele>415</ele>
        <time>2021-05-03T10:32:30Z</time>
      </trkpt>
      <trkpt lat="45.2574" lon="5.15364">
        <ele>414.9</ele>
        <time>2021-05-03T10:32:31Z</time>
      </trkpt>
      <trkpt lat="45.25742" lon="5.15354">
        <ele>414.8</ele>
        <time>2021-05-03T10:32:32Z</time>
      </trkpt>
      <trkpt lat="45.25743" lon="5.15344">
        <ele>414.7</ele>
        <time>2021-05-03T10:32:33Z</time>
      </trkpt>
      <trkpt lat="45.25745" lon="5.15335">
        <ele>414.5</ele>
        <time>2021-05-03T10:32:34Z</time>
      </trkpt>
      <trkpt lat="45.25747" lon="5.15325">
        <ele>414.4</ele>
        <time>2021-05-03T10:32:35Z</time>
      </trkpt>
      <trkpt lat="45.25749" lon="5.15316">
        <ele>414.3</ele>
        <time>2021-05-03T10:32:36Z</time>
      </trkpt>
      <trkpt lat="45.25752" lon="5.15306">
        <ele>414.1</ele>
        <time>2021-05-03T10:32:37Z</time>
      </trkpt>
      <trkpt lat="45.25754" lon="5.15297">
        <ele>414</ele>
        <time>2021-05-03T10:32:38Z</time>
      </trkpt>
      <trkpt lat="45.25756" lon="5.15287">
        <ele>413.9</ele>
        <time>2021-05-03T10:32:39Z</time>
      </trkpt>
      <trkpt lat="45.25759" lon="5.15278">
        <ele>413.8</ele>
        <time>2021-05-03T10:32:40Z</time>
      </trkpt>
      <trkpt lat="45.25761" lon="5.15268">
        <ele>413.7</ele>
        <time>2021-05-03T10:32:41Z</time>
      </trkpt>
      <trkpt lat="45.25764" lon="5.15259">
        <ele>413.6</ele>
        <time>2021-05-03T10:32:42Z</time>
      </trkpt>
      <trkpt lat="45.25767" lon="5.1525">
        <ele>413.5</ele>
        <time>2021-05-03T10:32:43Z</time>
      </trkpt>
      <trkpt lat="45.2577" lon="5.15241">
        <ele>413.4</ele>
        <time>2021-05-03T10:32:44Z</time>
      </trkpt>
      <trkpt lat="45.25773" lon="5.15232">
        <ele>413.3</ele>
        <time>2021-05-03T10:32:45Z</time>
      </trkpt>
      <trkpt lat="45.25777" lon="5.15223">
        <ele>413.3</ele>
        <time>2021-05-03T10:32:46Z</time>
      </trkpt>
      <trkpt lat="45.25781" lon="5.15214">
        <ele>413.2</ele>
        <time>2021-05-03T10:32:47Z</time>
      </trkpt>
      <trkpt lat="45.25785" lon="5.15206">
        <ele>413.1</ele>
        <time>2021-05-03T10:32:48Z</time>
      </trkpt>
      <trkpt lat="45.2579" lon="5.15198">
        <ele>413</ele>
        <time>2021-05-03T10:32:49Z</time>
      </trkpt>
      <trkpt lat="45.25794" lon="5.15192">
        <ele>412.9</ele>
        <time>2021-05-03T10:32:50Z</time>
      </trkpt>
      <trkpt lat="45.25799" lon="5.15185">
        <ele>412.8</ele>
        <time>2021-05-03T10:32:51Z</time>
      </trkpt>
      <trkpt lat="45.25804" lon="5.15178">
        <ele>412.7</ele>
        <time>2021-05-03T10:32:52Z</time>
      </trkpt>
      <trkpt lat="45.25809" lon="5.1517">
        <ele>412.7</ele>
        <time>2021-05-03T10:32:53Z</time>
      </trkpt>
      <trkpt lat="45.25814" lon="5.15163">
        <ele>412.6</ele>
        <time>2021-05-03T10:32:54Z</time>
      </trkpt>
      <trkpt lat="45.25818" lon="5.15157">
        <ele>412.6</ele>
        <time>2021-05-03T10:32:55Z</time>
      </trkpt>
      <trkpt lat="45.25823" lon="5.1515">
        <ele>412.5</ele>
        <time>2021-05-03T10:32:56Z</time>
      </trkpt>
      <trkpt lat="45.25827" lon="5.15144">
        <ele>412.5</ele>
        <time>2021-05-03T10:32:57Z</time>
      </trkpt>
      <trkpt lat="45.25831" lon="5.15137">
        <ele>412.5</ele>
        <time>2021-05-03T10:32:58Z</time>
      </trkpt>
      <trkpt lat="45.25835" lon="5.1513">
        <ele>412.5</ele>
        <time>2021-05-03T10:32:59Z</time>
      </trkpt>
      <trkpt lat="45.25838" lon="5.15123">
        <ele>412.5</ele>
        <time>2021-05-03T10:33:00Z</time>
      </trkpt>
      <trkpt lat="45.25841" lon="5.15116">
        <ele>412.5</ele>
        <time>2021-05-03T10:33:01Z</time>
      </trkpt>
      <trkpt lat="45.25845" lon="5.15109">
        <ele>412.4</ele>
        <time>2021-05-03T10:33:02Z</time>
      </trkpt>
      <trkpt lat="45.25849" lon="5.15101">
        <ele>412.4</ele>
        <time>2021-05-03T10:33:03Z</time>
      </trkpt>
      <trkpt lat="45.25853" lon="5.15094">
        <ele>412.4</ele>
        <time>2021-05-03T10:33:04Z</time>
      </trkpt>
      <trkpt lat="45.25856" lon="5.15086">
        <ele>412.3</ele>
        <time>2021-05-03T10:33:05Z</time>
      </trkpt>
      <trkpt lat="45.25859" lon="5.15079">
        <ele>412.3</ele>
        <time>2021-05-03T10:33:06Z</time>
      </trkpt>
      <trkpt lat="45.25861" lon="5.15072">
        <ele>412.2</ele>
        <time>2021-05-03T10:33:07Z</time>
      </trkpt>
      <trkpt lat="45.25865" lon="5.15065">
        <ele>412.2</ele>
        <time>2021-05-03T10:33:08Z</time>
      </trkpt>
      <trkpt lat="45.25868" lon="5.15058">
        <ele>412.1</ele>
        <time>2021-05-03T10:33:09Z</time>
      </trkpt>
      <trkpt lat="45.25872" lon="5.15052">
        <ele>412</ele>
        <time>2021-05-03T10:33:10Z</time>
      </trkpt>
      <trkpt lat="45.25876" lon="5.15045">
        <ele>412</ele>
        <time>2021-05-03T10:33:11Z</time>
      </trkpt>
      <trkpt lat="45.25881" lon="5.15038">
        <ele>411.9</ele>
        <time>2021-05-03T10:33:12Z</time>
      </trkpt>
      <trkpt lat="45.25886" lon="5.15032">
        <ele>411.9</ele>
        <time>2021-05-03T10:33:13Z</time>
      </trkpt>
      <trkpt lat="45.25891" lon="5.15026">
        <ele>411.9</ele>
        <time>2021-05-03T10:33:14Z</time>
      </trkpt>
      <trkpt lat="45.25896" lon="5.15021">
        <ele>411.9</ele>
        <time>2021-05-03T10:33:15Z</time>
      </trkpt>
      <trkpt lat="45.25901" lon="5.15015">
        <ele>411.8</ele>
        <time>2021-05-03T10:33:16Z</time>
      </trkpt>
      <trkpt lat="45.25906" lon="5.1501">
        <ele>411.8</ele>
        <time>2021-05-03T10:33:17Z</time>
      </trkpt>
      <trkpt lat="45.25911" lon="5.15004">
        <ele>411.8</ele>
        <time>2021-05-03T10:33:18Z</time>
      </trkpt>
      <trkpt lat="45.25915" lon="5.14998">
        <ele>411.9</ele>
        <time>2021-05-03T10:33:19Z</time>
      </trkpt>
      <trkpt lat="45.25919" lon="5.14993">
        <ele>411.9</ele>
        <time>2021-05-03T10:33:20Z</time>
      </trkpt>
      <trkpt lat="45.25923" lon="5.14987">
        <ele>411.9</ele>
        <time>2021-05-03T10:33:21Z</time>
      </trkpt>
      <trkpt lat="45.25927" lon="5.14981">
        <ele>412</ele>
        <time>2021-05-03T10:33:22Z</time>
      </trkpt>
      <trkpt lat="45.25931" lon="5.14976">
        <ele>412</ele>
        <time>2021-05-03T10:33:23Z</time>
      </trkpt>
      <trkpt lat="45.25934" lon="5.14969">
        <ele>412</ele>
        <time>2021-05-03T10:33:24Z</time>
      </trkpt>
      <trkpt lat="45.25937" lon="5.14963">
        <ele>412</ele>
        <time>2021-05-03T10:33:25Z</time>
      </trkpt>
      <trkpt lat="45.2594" lon="5.14957">
        <ele>412</ele>
        <time>2021-05-03T10:33:26Z</time>
      </trkpt>
      <trkpt lat="45.25943" lon="5.1495">
        <ele>412</ele>
        <time>2021-05-03T10:33:27Z</time>
      </trkpt>
      <trkpt lat="45.25945" lon="5.14944">
        <ele>412</ele>
        <time>2021-05-03T10:33:28Z</time>
      </trkpt>
      <trkpt lat="45.25948" lon="5.14937">
        <ele>412</ele>
        <time>2021-05-03T10:33:29Z</time>
      </trkpt>
      <trkpt lat="45.25952" lon="5.1493">
        <ele>412</ele>
        <time>2021-05-03T10:33:30Z</time>
      </trkpt>
      <trkpt lat="45.25955" lon="5.14923">
        <ele>411.9</ele>
        <time>2021-05-03T10:33:31Z</time>
      </trkpt>
      <trkpt lat="45.25957" lon="5.14916">
        <ele>411.9</ele>
        <time>2021-05-03T10:33:32Z</time>
      </trkpt>
      <trkpt lat="45.2596" lon="5.14908">
        <ele>411.8</ele>
        <time>2021-05-03T10:33:33Z</time>
      </trkpt>
      <trkpt lat="45.25962" lon="5.149">
        <ele>411.8</ele>
        <time>2021-05-03T10:33:34Z</time>
      </trkpt>
      <trkpt lat="45.25964" lon="5.14893">
        <ele>411.8</ele>
        <time>2021-05-03T10:33:35Z</time>
      </trkpt>
      <trkpt lat="45.25967" lon="5.14886">
        <ele>411.7</ele>
        <time>2021-05-03T10:33:36Z</time>
      </trkpt>
      <trkpt lat="45.25969" lon="5.14878">
        <ele>411.7</ele>
        <time>2021-05-03T10:33:37Z</time>
      </trkpt>
      <trkpt lat="45.25971" lon="5.1487">
        <ele>411.7</ele>
        <time>2021-05-03T10:33:38Z</time>
      </trkpt>
      <trkpt lat="45.25974" lon="5.14863">
        <ele>411.7</ele>
        <time>2021-05-03T10:33:39Z</time>
      </trkpt>
      <trkpt lat="45.25976" lon="5.14855">
        <ele>411.7</ele>
        <time>2021-05-03T10:33:40Z</time>
      </trkpt>
      <trkpt lat="45.25979" lon="5.14848">
        <ele>411.7</ele>
        <time>2021-05-03T10:33:41Z</time>
      </trkpt>
      <trkpt lat="45.25981" lon="5.1484">
        <ele>411.7</ele>
        <time>2021-05-03T10:33:42Z</time>
      </trkpt>
      <trkpt lat="45.25984" lon="5.14833">
        <ele>411.7</ele>
        <time>2021-05-03T10:33:43Z</time>
      </trkpt>
      <trkpt lat="45.25986" lon="5.14825">
        <ele>411.8</ele>
        <time>2021-05-03T10:33:44Z</time>
      </trkpt>
      <trkpt lat="45.25988" lon="5.14818">
        <ele>411.8</ele>
        <time>2021-05-03T10:33:45Z</time>
      </trkpt>
      <trkpt lat="45.2599" lon="5.14811">
        <ele>411.9</ele>
        <time>2021-05-03T10:33:46Z</time>
      </trkpt>
      <trkpt lat="45.25991" lon="5.14804">
        <ele>411.9</ele>
        <time>2021-05-03T10:33:47Z</time>
      </trkpt>
      <trkpt lat="45.25993" lon="5.14797">
        <ele>411.9</ele>
        <time>2021-05-03T10:33:48Z</time>
      </trkpt>
      <trkpt lat="45.25994" lon="5.14791">
        <ele>411.9</ele>
        <time>2021-05-03T10:33:49Z</time>
      </trkpt>
      <trkpt lat="45.25996" lon="5.14784">
        <ele>411.9</ele>
        <time>2021-05-03T10:33:50Z</time>
      </trkpt>
      <trkpt lat="45.25997" lon="5.14778">
        <ele>411.9</ele>
        <time>2021-05-03T10:33:51Z</time>
      </trkpt>
      <trkpt lat="45.25999" lon="5.14771">
        <ele>411.9</ele>
        <time>2021-05-03T10:33:52Z</time>
      </trkpt>
      <trkpt lat="45.26001" lon="5.14764">
        <ele>411.9</ele>
        <time>2021-05-03T10:33:53Z</time>
      </trkpt>
      <trkpt lat="45.26001" lon="5.14757">
        <ele>411.9</ele>
        <time>2021-05-03T10:33:54Z</time>
      </trkpt>
      <trkpt lat="45.26002" lon="5.14749">
        <ele>411.9</ele>
        <time>2021-05-03T10:33:55Z</time>
      </trkpt>
      <trkpt lat="45.26003" lon="5.14742">
        <ele>411.9</ele>
        <time>2021-05-03T10:33:56Z</time>
      </trkpt>
      <trkpt lat="45.26004" lon="5.14735">
        <ele>411.9</ele>
        <time>2021-05-03T10:33:57Z</time>
      </trkpt>
      <trkpt lat="45.26004" lon="5.14727">
        <ele>411.9</ele>
        <time>2021-05-03T10:33:58Z</time>
      </trkpt>
      <trkpt lat="45.26004" lon="5.14719">
        <ele>411.9</ele>
        <time>2021-05-03T10:33:59Z</time>
      </trkpt>
      <trkpt lat="45.26005" lon="5.14711">
        <ele>411.9</ele>
        <time>2021-05-03T10:34:00Z</time>
      </trkpt>
      <trkpt lat="45.26005" lon="5.14704">
        <ele>411.9</ele>
        <time>2021-05-03T10:34:01Z</time>
      </trkpt>
      <trkpt lat="45.26004" lon="5.14696">
        <ele>411.9</ele>
        <time>2021-05-03T10:34:02Z</time>
      </trkpt>
      <trkpt lat="45.26004" lon="5.14689">
        <ele>411.9</ele>
        <time>2021-05-03T10:34:03Z</time>
      </trkpt>
      <trkpt lat="45.26004" lon="5.14681">
        <ele>411.9</ele>
        <time>2021-05-03T10:34:04Z</time>
      </trkpt>
      <trkpt lat="45.26004" lon="5.14673">
        <ele>411.9</ele>
        <time>2021-05-03T10:34:05Z</time>
      </trkpt>
      <trkpt lat="45.26003" lon="5.14666">
        <ele>411.9</ele>
        <time>2021-05-03T10:34:06Z</time>
      </trkpt>
      <trkpt lat="45.26003" lon="5.14659">
        <ele>411.9</ele>
        <time>2021-05-03T10:34:07Z</time>
      </trkpt>
      <trkpt lat="45.26003" lon="5.14652">
        <ele>411.9</ele>
        <time>2021-05-03T10:34:08Z</time>
      </trkpt>
      <trkpt lat="45.26003" lon="5.14645">
        <ele>411.9</ele>
        <time>2021-05-03T10:34:09Z</time>
      </trkpt>
      <trkpt lat="45.26003" lon="5.14638">
        <ele>411.9</ele>
        <time>2021-05-03T10:34:10Z</time>
      </trkpt>
      <trkpt lat="45.26003" lon="5.14632">
        <ele>411.9</ele>
        <time>2021-05-03T10:34:11Z</time>
      </trkpt>
      <trkpt lat="45.26003" lon="5.14625">
        <ele>411.9</ele>
        <time>2021-05-03T10:34:12Z</time>
      </trkpt>
      <trkpt lat="45.26003" lon="5.14619">
        <ele>411.9</ele>
        <time>2021-05-03T10:34:13Z</time>
      </trkpt>
      <trkpt lat="45.26003" lon="5.14612">
        <ele>411.9</ele>
        <time>2021-05-03T10:34:14Z</time>
      </trkpt>
      <trkpt lat="45.26003" lon="5.14606">
        <ele>411.9</ele>
        <time>2021-05-03T10:34:15Z</time>
      </trkpt>
      <trkpt lat="45.26003" lon="5.146">
        <ele>411.9</ele>
        <time>2021-05-03T10:34:16Z</time>
      </trkpt>
      <trkpt lat="45.26004" lon="5.14593">
        <ele>411.9</ele>
        <time>2021-05-03T10:34:17Z</time>
      </trkpt>
      <trkpt lat="45.26005" lon="5.14586">
        <ele>411.9</ele>
        <time>2021-05-03T10:34:18Z</time>
      </trkpt>
      <trkpt lat="45.26006" lon="5.14579">
        <ele>411.9</ele>
        <time>2021-05-03T10:34:19Z</time>
      </trkpt>
      <trkpt lat="45.26007" lon="5.14572">
        <ele>411.8</ele>
        <time>2021-05-03T10:34:20Z</time>
      </trkpt>
      <trkpt lat="45.26008" lon="5.14566">
        <ele>411.7</ele>
        <time>2021-05-03T10:34:21Z</time>
      </trkpt>
      <trkpt lat="45.26008" lon="5.14561">
        <ele>411.7</ele>
        <time>2021-05-03T10:34:22Z</time>
      </trkpt>
      <trkpt lat="45.26008" lon="5.14553">
        <ele>411.6</ele>
        <time>2021-05-03T10:34:23Z</time>
      </trkpt>
      <trkpt lat="45.26009" lon="5.14546">
        <ele>411.4</ele>
        <time>2021-05-03T10:34:24Z</time>
      </trkpt>
      <trkpt lat="45.26011" lon="5.14539">
        <ele>411.3</ele>
        <time>2021-05-03T10:34:25Z</time>
      </trkpt>
      <trkpt lat="45.26012" lon="5.14532">
        <ele>411.2</ele>
        <time>2021-05-03T10:34:26Z</time>
      </trkpt>
      <trkpt lat="45.26013" lon="5.14525">
        <ele>411.1</ele>
        <time>2021-05-03T10:34:27Z</time>
      </trkpt>
      <trkpt lat="45.26015" lon="5.14519">
        <ele>410.9</ele>
        <time>2021-05-03T10:34:28Z</time>
      </trkpt>
      <trkpt lat="45.26016" lon="5.14512">
        <ele>410.8</ele>
        <time>2021-05-03T10:34:29Z</time>
      </trkpt>
      <trkpt lat="45.26018" lon="5.14506">
        <ele>410.7</ele>
        <time>2021-05-03T10:34:30Z</time>
      </trkpt>
      <trkpt lat="45.26019" lon="5.14498">
        <ele>410.6</ele>
        <time>2021-05-03T10:34:31Z</time>
      </trkpt>
      <trkpt lat="45.26021" lon="5.14491">
        <ele>410.5</ele>
        <time>2021-05-03T10:34:32Z</time>
      </trkpt>
      <trkpt lat="45.26024" lon="5.14483">
        <ele>410.5</ele>
        <time>2021-05-03T10:34:33Z</time>
      </trkpt>
      <trkpt lat="45.26026" lon="5.14476">
        <ele>410.4</ele>
        <time>2021-05-03T10:34:34Z</time>
      </trkpt>
      <trkpt lat="45.26029" lon="5.14468">
        <ele>410.3</ele>
        <time>2021-05-03T10:34:35Z</time>
      </trkpt>
      <trkpt lat="45.26031" lon="5.14461">
        <ele>410.2</ele>
        <time>2021-05-03T10:34:36Z</time>
      </trkpt>
      <trkpt lat="45.26034" lon="5.14454">
        <ele>410.1</ele>
        <time>2021-05-03T10:34:37Z</time>
      </trkpt>
      <trkpt lat="45.26037" lon="5.14446">
        <ele>410</ele>
        <time>2021-05-03T10:34:38Z</time>
      </trkpt>
      <trkpt lat="45.26038" lon="5.14438">
        <ele>409.8</ele>
        <time>2021-05-03T10:34:39Z</time>
      </trkpt>
      <trkpt lat="45.2604" lon="5.1443">
        <ele>409.6</ele>
        <time>2021-05-03T10:34:40Z</time>
      </trkpt>
      <trkpt lat="45.26043" lon="5.14421">
        <ele>409.4</ele>
        <time>2021-05-03T10:34:41Z</time>
      </trkpt>
      <trkpt lat="45.26045" lon="5.14412">
        <ele>409.1</ele>
        <time>2021-05-03T10:34:42Z</time>
      </trkpt>
      <trkpt lat="45.26046" lon="5.14403">
        <ele>408.9</ele>
        <time>2021-05-03T10:34:43Z</time>
      </trkpt>
      <trkpt lat="45.26048" lon="5.14394">
        <ele>408.7</ele>
        <time>2021-05-03T10:34:44Z</time>
      </trkpt>
      <trkpt lat="45.2605" lon="5.14385">
        <ele>408.5</ele>
        <time>2021-05-03T10:34:45Z</time>
      </trkpt>
      <trkpt lat="45.26051" lon="5.14376">
        <ele>408.2</ele>
        <time>2021-05-03T10:34:46Z</time>
      </trkpt>
      <trkpt lat="45.26052" lon="5.14366">
        <ele>408</ele>
        <time>2021-05-03T10:34:47Z</time>
      </trkpt>
      <trkpt lat="45.26052" lon="5.14357">
        <ele>407.8</ele>
        <time>2021-05-03T10:34:48Z</time>
      </trkpt>
      <trkpt lat="45.26054" lon="5.14347">
        <ele>407.5</ele>
        <time>2021-05-03T10:34:49Z</time>
      </trkpt>
      <trkpt lat="45.26055" lon="5.14337">
        <ele>407.3</ele>
        <time>2021-05-03T10:34:50Z</time>
      </trkpt>
      <trkpt lat="45.26056" lon="5.14327">
        <ele>407.2</ele>
        <time>2021-05-03T10:34:51Z</time>
      </trkpt>
      <trkpt lat="45.26057" lon="5.14317">
        <ele>407</ele>
        <time>2021-05-03T10:34:52Z</time>
      </trkpt>
      <trkpt lat="45.26058" lon="5.14307">
        <ele>406.8</ele>
        <time>2021-05-03T10:34:53Z</time>
      </trkpt>
      <trkpt lat="45.2606" lon="5.14297">
        <ele>406.6</ele>
        <time>2021-05-03T10:34:54Z</time>
      </trkpt>
      <trkpt lat="45.26062" lon="5.14288">
        <ele>406.4</ele>
        <time>2021-05-03T10:34:55Z</time>
      </trkpt>
      <trkpt lat="45.26063" lon="5.14279">
        <ele>406.3</ele>
        <time>2021-05-03T10:34:56Z</time>
      </trkpt>
      <trkpt lat="45.26063" lon="5.1427">
        <ele>406.1</ele>
        <time>2021-05-03T10:34:57Z</time>
      </trkpt>
      <trkpt lat="45.26063" lon="5.14261">
        <ele>405.9</ele>
        <time>2021-05-03T10:34:58Z</time>
      </trkpt>
      <trkpt lat="45.26063" lon="5.14251">
        <ele>405.7</ele>
        <time>2021-05-03T10:34:59Z</time>
      </trkpt>
      <trkpt lat="45.26064" lon="5.14242">
        <ele>405.5</ele>
        <time>2021-05-03T10:35:00Z</time>
      </trkpt>
      <trkpt lat="45.26065" lon="5.14232">
        <ele>405.3</ele>
        <time>2021-05-03T10:35:01Z</time>
      </trkpt>
      <trkpt lat="45.26065" lon="5.14222">
        <ele>405.1</ele>
        <time>2021-05-03T10:35:02Z</time>
      </trkpt>
      <trkpt lat="45.26065" lon="5.14212">
        <ele>405</ele>
        <time>2021-05-03T10:35:03Z</time>
      </trkpt>
      <trkpt lat="45.26065" lon="5.14202">
        <ele>404.8</ele>
        <time>2021-05-03T10:35:04Z</time>
      </trkpt>
      <trkpt lat="45.26065" lon="5.14192">
        <ele>404.7</ele>
        <time>2021-05-03T10:35:05Z</time>
      </trkpt>
      <trkpt lat="45.26064" lon="5.14183">
        <ele>404.6</ele>
        <time>2021-05-03T10:35:06Z</time>
      </trkpt>
      <trkpt lat="45.26062" lon="5.14174">
        <ele>404.5</ele>
        <time>2021-05-03T10:35:07Z</time>
      </trkpt>
      <trkpt lat="45.2606" lon="5.14164">
        <ele>404.3</ele>
        <time>2021-05-03T10:35:08Z</time>
      </trkpt>
      <trkpt lat="45.26058" lon="5.14154">
        <ele>404.3</ele>
        <time>2021-05-03T10:35:09Z</time>
      </trkpt>
      <trkpt lat="45.26056" lon="5.14146">
        <ele>404.2</ele>
        <time>2021-05-03T10:35:10Z</time>
      </trkpt>
      <trkpt lat="45.26054" lon="5.14137">
        <ele>404.1</ele>
        <time>2021-05-03T10:35:11Z</time>
      </trkpt>
      <trkpt lat="45.26052" lon="5.14128">
        <ele>404</ele>
        <time>2021-05-03T10:35:12Z</time>
      </trkpt>
      <trkpt lat="45.2605" lon="5.1412">
        <ele>403.9</ele>
        <time>2021-05-03T10:35:13Z</time>
      </trkpt>
      <trkpt lat="45.26047" lon="5.14111">
        <ele>403.8</ele>
        <time>2021-05-03T10:35:14Z</time>
      </trkpt>
      <trkpt lat="45.26046" lon="5.14103">
        <ele>403.7</ele>
        <time>2021-05-03T10:35:15Z</time>
      </trkpt>
      <trkpt lat="45.26044" lon="5.14095">
        <ele>403.7</ele>
        <time>2021-05-03T10:35:16Z</time>
      </trkpt>
      <trkpt lat="45.26042" lon="5.14086">
        <ele>403.6</ele>
        <time>2021-05-03T10:35:17Z</time>
      </trkpt>
      <trkpt lat="45.26041" lon="5.14078">
        <ele>403.5</ele>
        <time>2021-05-03T10:35:18Z</time>
      </trkpt>
      <trkpt lat="45.2604" lon="5.1407">
        <ele>403.4</ele>
        <time>2021-05-03T10:35:19Z</time>
      </trkpt>
      <trkpt lat="45.26039" lon="5.14062">
        <ele>403.3</ele>
        <time>2021-05-03T10:35:20Z</time>
      </trkpt>
      <trkpt lat="45.26039" lon="5.14054">
        <ele>403.2</ele>
        <time>2021-05-03T10:35:21Z</time>
      </trkpt>
      <trkpt lat="45.26038" lon="5.14045">
        <ele>403.1</ele>
        <time>2021-05-03T10:35:22Z</time>
      </trkpt>
      <trkpt lat="45.26038" lon="5.14036">
        <ele>403</ele>
        <time>2021-05-03T10:35:23Z</time>
      </trkpt>
      <trkpt lat="45.26038" lon="5.14027">
        <ele>402.9</ele>
        <time>2021-05-03T10:35:24Z</time>
      </trkpt>
      <trkpt lat="45.26038" lon="5.14018">
        <ele>402.8</ele>
        <time>2021-05-03T10:35:25Z</time>
      </trkpt>
      <trkpt lat="45.26038" lon="5.14008">
        <ele>402.6</ele>
        <time>2021-05-03T10:35:26Z</time>
      </trkpt>
      <trkpt lat="45.26039" lon="5.13999">
        <ele>402.5</ele>
        <time>2021-05-03T10:35:27Z</time>
      </trkpt>
      <trkpt lat="45.26039" lon="5.1399">
        <ele>402.4</ele>
        <time>2021-05-03T10:35:28Z</time>
      </trkpt>
      <trkpt lat="45.2604" lon="5.13981">
        <ele>402.3</ele>
        <time>2021-05-03T10:35:29Z</time>
      </trkpt>
      <trkpt lat="45.26042" lon="5.13971">
        <ele>402.3</ele>
        <time>2021-05-03T10:35:30Z</time>
      </trkpt>
      <trkpt lat="45.26045" lon="5.13962">
        <ele>402.2</ele>
        <time>2021-05-03T10:35:31Z</time>
      </trkpt>
      <trkpt lat="45.26047" lon="5.13954">
        <ele>402.1</ele>
        <time>2021-05-03T10:35:32Z</time>
      </trkpt>
      <trkpt lat="45.26049" lon="5.13945">
        <ele>402.1</ele>
        <time>2021-05-03T10:35:33Z</time>
      </trkpt>
      <trkpt lat="45.26052" lon="5.13937">
        <ele>402</ele>
        <time>2021-05-03T10:35:34Z</time>
      </trkpt>
      <trkpt lat="45.26054" lon="5.13929">
        <ele>402</ele>
        <time>2021-05-03T10:35:35Z</time>
      </trkpt>
      <trkpt lat="45.26056" lon="5.13922">
        <ele>401.9</ele>
        <time>2021-05-03T10:35:36Z</time>
      </trkpt>
      <trkpt lat="45.26058" lon="5.13914">
        <ele>401.9</ele>
        <time>2021-05-03T10:35:37Z</time>
      </trkpt>
      <trkpt lat="45.2606" lon="5.13906">
        <ele>401.8</ele>
        <time>2021-05-03T10:35:38Z</time>
      </trkpt>
      <trkpt lat="45.26063" lon="5.13899">
        <ele>401.8</ele>
        <time>2021-05-03T10:35:39Z</time>
      </trkpt>
      <trkpt lat="45.26064" lon="5.13891">
        <ele>401.8</ele>
        <time>2021-05-03T10:35:40Z</time>
      </trkpt>
      <trkpt lat="45.26066" lon="5.13884">
        <ele>401.8</ele>
        <time>2021-05-03T10:35:41Z</time>
      </trkpt>
      <trkpt lat="45.26068" lon="5.13876">
        <ele>401.7</ele>
        <time>2021-05-03T10:35:42Z</time>
      </trkpt>
      <trkpt lat="45.2607" lon="5.13868">
        <ele>401.7</ele>
        <time>2021-05-03T10:35:43Z</time>
      </trkpt>
      <trkpt lat="45.2607" lon="5.13861">
        <ele>401.7</ele>
        <time>2021-05-03T10:35:44Z</time>
      </trkpt>
      <trkpt lat="45.26071" lon="5.13853">
        <ele>401.7</ele>
        <time>2021-05-03T10:35:45Z</time>
      </trkpt>
      <trkpt lat="45.26071" lon="5.13845">
        <ele>401.7</ele>
        <time>2021-05-03T10:35:46Z</time>
      </trkpt>
      <trkpt lat="45.26071" lon="5.13837">
        <ele>401.7</ele>
        <time>2021-05-03T10:35:47Z</time>
      </trkpt>
      <trkpt lat="45.26071" lon="5.1383">
        <ele>401.7</ele>
        <time>2021-05-03T10:35:48Z</time>
      </trkpt>
      <trkpt lat="45.26071" lon="5.13823">
        <ele>401.7</ele>
        <time>2021-05-03T10:35:49Z</time>
      </trkpt>
      <trkpt lat="45.26072" lon="5.13818">
        <ele>401.7</ele>
        <time>2021-05-03T10:35:50Z</time>
      </trkpt>
      <trkpt lat="45.26074" lon="5.13815">
        <ele>401.7</ele>
        <time>2021-05-03T10:35:51Z</time>
      </trkpt>
      <trkpt lat="45.26075" lon="5.13813">
        <ele>401.8</ele>
        <time>2021-05-03T10:35:52Z</time>
      </trkpt>
      <trkpt lat="45.26078" lon="5.1381">
        <ele>401.8</ele>
        <time>2021-05-03T10:35:53Z</time>
      </trkpt>
      <trkpt lat="45.26079" lon="5.13809">
        <ele>401.8</ele>
        <time>2021-05-03T10:35:54Z</time>
      </trkpt>
      <trkpt lat="45.26079" lon="5.1381">
        <ele>401.8</ele>
        <time>2021-05-03T10:35:55Z</time>
      </trkpt>
      <trkpt lat="45.2608" lon="5.1381">
        <ele>401.8</ele>
        <time>2021-05-03T10:35:56Z</time>
      </trkpt>
      <trkpt lat="45.2608" lon="5.1381">
        <ele>401.8</ele>
        <time>2021-05-03T10:35:57Z</time>
      </trkpt>
      <trkpt lat="45.2608" lon="5.1381">
        <ele>401.8</ele>
        <time>2021-05-03T10:35:58Z</time>
      </trkpt>
      <trkpt lat="45.2608" lon="5.1381">
        <ele>401.8</ele>
        <time>2021-05-03T10:35:59Z</time>
      </trkpt>
      <trkpt lat="45.2608" lon="5.1381">
        <ele>401.8</ele>
        <time>2021-05-03T10:36:00Z</time>
      </trkpt>
      <trkpt lat="45.2608" lon="5.1381">
        <ele>401.8</ele>
        <time>2021-05-03T10:36:01Z</time>
      </trkpt>
      <trkpt lat="45.2608" lon="5.1381">
        <ele>401.8</ele>
        <time>2021-05-03T10:36:02Z</time>
      </trkpt>
      <trkpt lat="45.2608" lon="5.1381">
        <ele>401.8</ele>
        <time>2021-05-03T10:36:03Z</time>
      </trkpt>
      <trkpt lat="45.2608" lon="5.1381">
        <ele>401.8</ele>
        <time>2021-05-03T10:36:04Z</time>
      </trkpt>
      <trkpt lat="45.2608" lon="5.1381">
        <ele>401.8</ele>
        <time>2021-05-03T10:36:05Z</time>
      </trkpt>
      <trkpt lat="45.2608" lon="5.1381">
        <ele>401.8</ele>
        <time>2021-05-03T10:36:06Z</time>
      </trkpt>
      <trkpt lat="45.26081" lon="5.13806">
        <ele>401.8</ele>
        <time>2021-05-03T10:37:11Z</time>
      </trkpt>
      <trkpt lat="45.26082" lon="5.13804">
        <ele>401.8</ele>
        <time>2021-05-03T10:37:12Z</time>
      </trkpt>
      <trkpt lat="45.26083" lon="5.13802">
        <ele>401.8</ele>
        <time>2021-05-03T10:37:13Z</time>
      </trkpt>
      <trkpt lat="45.26084" lon="5.138">
        <ele>401.9</ele>
        <time>2021-05-03T10:37:14Z</time>
      </trkpt>
      <trkpt lat="45.26087" lon="5.13797">
        <ele>401.9</ele>
        <time>2021-05-03T10:37:16Z</time>
      </trkpt>
      <trkpt lat="45.26089" lon="5.13793">
        <ele>402</ele>
        <time>2021-05-03T10:37:17Z</time>
      </trkpt>
      <trkpt lat="45.2609" lon="5.13791">
        <ele>402</ele>
        <time>2021-05-03T10:37:18Z</time>
      </trkpt>
      <trkpt lat="45.26094" lon="5.13786">
        <ele>402</ele>
        <time>2021-05-03T10:37:19Z</time>
      </trkpt>
      <trkpt lat="45.26096" lon="5.13781">
        <ele>402</ele>
        <time>2021-05-03T10:37:21Z</time>
      </trkpt>
      <trkpt lat="45.26097" lon="5.13776">
        <ele>402</ele>
        <time>2021-05-03T10:37:22Z</time>
      </trkpt>
      <trkpt lat="45.26099" lon="5.13771">
        <ele>402.1</ele>
        <time>2021-05-03T10:37:23Z</time>
      </trkpt>
      <trkpt lat="45.26101" lon="5.13764">
        <ele>402.1</ele>
        <time>2021-05-03T10:37:24Z</time>
      </trkpt>
      <trkpt lat="45.26102" lon="5.13751">
        <ele>402.1</ele>
        <time>2021-05-03T10:37:26Z</time>
      </trkpt>
      <trkpt lat="45.26106" lon="5.13739">
        <ele>402.2</ele>
        <time>2021-05-03T10:37:28Z</time>
      </trkpt>
      <trkpt lat="45.26108" lon="5.1373">
        <ele>402.2</ele>
        <time>2021-05-03T10:37:29Z</time>
      </trkpt>
      <trkpt lat="45.26111" lon="5.13719">
        <ele>402.4</ele>
        <time>2021-05-03T10:37:31Z</time>
      </trkpt>
      <trkpt lat="45.26113" lon="5.13713">
        <ele>402.5</ele>
        <time>2021-05-03T10:37:32Z</time>
      </trkpt>
      <trkpt lat="45.26115" lon="5.13706">
        <ele>402.6</ele>
        <time>2021-05-03T10:37:33Z</time>
      </trkpt>
      <trkpt lat="45.26117" lon="5.137">
        <ele>402.6</ele>
        <time>2021-05-03T10:37:34Z</time>
      </trkpt>
      <trkpt lat="45.26118" lon="5.13694">
        <ele>402.7</ele>
        <time>2021-05-03T10:37:35Z</time>
      </trkpt>
      <trkpt lat="45.2612" lon="5.13687">
        <ele>402.7</ele>
        <time>2021-05-03T10:37:36Z</time>
      </trkpt>
      <trkpt lat="45.26122" lon="5.13681">
        <ele>402.8</ele>
        <time>2021-05-03T10:37:37Z</time>
      </trkpt>
      <trkpt lat="45.26124" lon="5.13675">
        <ele>402.8</ele>
        <time>2021-05-03T10:37:38Z</time>
      </trkpt>
      <trkpt lat="45.26125" lon="5.13668">
        <ele>402.9</ele>
        <time>2021-05-03T10:37:39Z</time>
      </trkpt>
      <trkpt lat="45.26127" lon="5.13662">
        <ele>403</ele>
        <time>2021-05-03T10:37:40Z</time>
      </trkpt>
      <trkpt lat="45.26129" lon="5.13655">
        <ele>403.1</ele>
        <time>2021-05-03T10:37:41Z</time>
      </trkpt>
      <trkpt lat="45.2613" lon="5.13648">
        <ele>403.1</ele>
        <time>2021-05-03T10:37:42Z</time>
      </trkpt>
      <trkpt lat="45.26132" lon="5.13642">
        <ele>403.2</ele>
        <time>2021-05-03T10:37:43Z</time>
      </trkpt>
      <trkpt lat="45.26134" lon="5.13635">
        <ele>403.2</ele>
        <time>2021-05-03T10:37:44Z</time>
      </trkpt>
      <trkpt lat="45.26136" lon="5.13628">
        <ele>403.3</ele>
        <time>2021-05-03T10:37:45Z</time>
      </trkpt>
      <trkpt lat="45.26138" lon="5.13622">
        <ele>403.3</ele>
        <time>2021-05-03T10:37:46Z</time>
      </trkpt>
      <trkpt lat="45.26141" lon="5.13616">
        <ele>403.4</ele>
        <time>2021-05-03T10:37:47Z</time>
      </trkpt>
      <trkpt lat="45.26143" lon="5.13609">
        <ele>403.5</ele>
        <time>2021-05-03T10:37:48Z</time>
      </trkpt>
      <trkpt lat="45.26145" lon="5.13603">
        <ele>403.5</ele>
        <time>2021-05-03T10:37:49Z</time>
      </trkpt>
      <trkpt lat="45.26147" lon="5.13596">
        <ele>403.6</ele>
        <time>2021-05-03T10:37:50Z</time>
      </trkpt>
      <trkpt lat="45.26149" lon="5.13589">
        <ele>403.6</ele>
        <time>2021-05-03T10:37:51Z</time>
      </trkpt>
      <trkpt lat="45.2615" lon="5.13583">
        <ele>403.7</ele>
        <time>2021-05-03T10:37:52Z</time>
      </trkpt>
      <trkpt lat="45.26152" lon="5.13576">
        <ele>403.8</ele>
        <time>2021-05-03T10:37:53Z</time>
      </trkpt>
      <trkpt lat="45.26153" lon="5.1357">
        <ele>403.8</ele>
        <time>2021-05-03T10:37:54Z</time>
      </trkpt>
      <trkpt lat="45.26155" lon="5.13563">
        <ele>403.9</ele>
        <time>2021-05-03T10:37:55Z</time>
      </trkpt>
      <trkpt lat="45.26157" lon="5.13557">
        <ele>404</ele>
        <time>2021-05-03T10:37:56Z</time>
      </trkpt>
      <trkpt lat="45.26158" lon="5.13551">
        <ele>404</ele>
        <time>2021-05-03T10:37:57Z</time>
      </trkpt>
      <trkpt lat="45.2616" lon="5.13544">
        <ele>404.1</ele>
        <time>2021-05-03T10:37:58Z</time>
      </trkpt>
      <trkpt lat="45.26162" lon="5.13538">
        <ele>404.2</ele>
        <time>2021-05-03T10:37:59Z</time>
      </trkpt>
      <trkpt lat="45.26164" lon="5.13532">
        <ele>404.3</ele>
        <time>2021-05-03T10:38:00Z</time>
      </trkpt>
      <trkpt lat="45.26165" lon="5.13527">
        <ele>404.3</ele>
        <time>2021-05-03T10:38:01Z</time>
      </trkpt>
      <trkpt lat="45.26166" lon="5.13522">
        <ele>404.4</ele>
        <time>2021-05-03T10:38:02Z</time>
      </trkpt>
      <trkpt lat="45.26168" lon="5.13516">
        <ele>404.5</ele>
        <time>2021-05-03T10:38:03Z</time>
      </trkpt>
      <trkpt lat="45.26169" lon="5.13509">
        <ele>404.5</ele>
        <time>2021-05-03T10:38:04Z</time>
      </trkpt>
      <trkpt lat="45.2617" lon="5.13503">
        <ele>404.6</ele>
        <time>2021-05-03T10:38:05Z</time>
      </trkpt>
      <trkpt lat="45.26171" lon="5.13497">
        <ele>404.7</ele>
        <time>2021-05-03T10:38:06Z</time>
      </trkpt>
      <trkpt lat="45.26172" lon="5.13493">
        <ele>404.7</ele>
        <time>2021-05-03T10:38:07Z</time>
      </trkpt>
      <trkpt lat="45.26174" lon="5.13488">
        <ele>404.8</ele>
        <time>2021-05-03T10:38:08Z</time>
      </trkpt>
      <trkpt lat="45.26176" lon="5.13482">
        <ele>404.9</ele>
        <time>2021-05-03T10:38:09Z</time>
      </trkpt>
      <trkpt lat="45.26178" lon="5.13477">
        <ele>404.9</ele>
        <time>2021-05-03T10:38:10Z</time>
      </trkpt>
      <trkpt lat="45.2618" lon="5.13472">
        <ele>405</ele>
        <time>2021-05-03T10:38:11Z</time>
      </trkpt>
      <trkpt lat="45.26184" lon="5.13467">
        <ele>405.1</ele>
        <time>2021-05-03T10:38:12Z</time>
      </trkpt>
      <trkpt lat="45.26185" lon="5.13467">
        <ele>405.1</ele>
        <time>2021-05-03T10:38:13Z</time>
      </trkpt>
      <trkpt lat="45.2619" lon="5.13457">
        <ele>405.2</ele>
        <time>2021-05-03T10:38:14Z</time>
      </trkpt>
      <trkpt lat="45.26193" lon="5.1345">
        <ele>405.3</ele>
        <time>2021-05-03T10:38:15Z</time>
      </trkpt>
      <trkpt lat="45.26197" lon="5.13441">
        <ele>405.4</ele>
        <time>2021-05-03T10:38:17Z</time>
      </trkpt>
      <trkpt lat="45.26201" lon="5.13435">
        <ele>405.6</ele>
        <time>2021-05-03T10:38:18Z</time>
      </trkpt>
      <trkpt lat="45.26205" lon="5.13429">
        <ele>405.7</ele>
        <time>2021-05-03T10:38:20Z</time>
      </trkpt>
      <trkpt lat="45.26207" lon="5.13425">
        <ele>405.8</ele>
        <time>2021-05-03T10:38:21Z</time>
      </trkpt>
      <trkpt lat="45.2621" lon="5.13421">
        <ele>405.8</ele>
        <time>2021-05-03T10:38:22Z</time>
      </trkpt>
      <trkpt lat="45.26213" lon="5.13416">
        <ele>405.9</ele>
        <time>2021-05-03T10:38:23Z</time>
      </trkpt>
      <trkpt lat="45.26217" lon="5.13412">
        <ele>406</ele>
        <time>2021-05-03T10:38:25Z</time>
      </trkpt>
      <trkpt lat="45.26219" lon="5.13409">
        <ele>406.1</ele>
        <time>2021-05-03T10:38:26Z</time>
      </trkpt>
      <trkpt lat="45.26222" lon="5.13406">
        <ele>406.1</ele>
        <time>2021-05-03T10:38:27Z</time>
      </trkpt>
      <trkpt lat="45.26226" lon="5.13402">
        <ele>406.2</ele>
        <time>2021-05-03T10:38:28Z</time>
      </trkpt>
      <trkpt lat="45.2623" lon="5.13397">
        <ele>406.3</ele>
        <time>2021-05-03T10:38:29Z</time>
      </trkpt>
      <trkpt lat="45.26234" lon="5.13392">
        <ele>406.4</ele>
        <time>2021-05-03T10:38:31Z</time>
      </trkpt>
      <trkpt lat="45.26237" lon="5.13387">
        <ele>406.5</ele>
        <time>2021-05-03T10:38:32Z</time>
      </trkpt>
      <trkpt lat="45.26242" lon="5.13382">
        <ele>406.6</ele>
        <time>2021-05-03T10:38:34Z</time>
      </trkpt>
      <trkpt lat="45.26245" lon="5.13378">
        <ele>406.7</ele>
        <time>2021-05-03T10:38:35Z</time>
      </trkpt>
      <trkpt lat="45.26252" lon="5.13369">
        <ele>406.9</ele>
        <time>2021-05-03T10:38:37Z</time>
      </trkpt>
      <trkpt lat="45.26256" lon="5.13363">
        <ele>407</ele>
        <time>2021-05-03T10:38:39Z</time>
      </trkpt>
      <trkpt lat="45.26259" lon="5.13359">
        <ele>407.1</ele>
        <time>2021-05-03T10:38:40Z</time>
      </trkpt>
      <trkpt lat="45.26263" lon="5.13353">
        <ele>407.2</ele>
        <time>2021-05-03T10:38:41Z</time>
      </trkpt>
      <trkpt lat="45.26266" lon="5.13347">
        <ele>407.3</ele>
        <time>2021-05-03T10:38:43Z</time>
      </trkpt>
      <trkpt lat="45.26269" lon="5.13338">
        <ele>407.4</ele>
        <time>2021-05-03T10:38:44Z</time>
      </trkpt>
      <trkpt lat="45.26271" lon="5.13334">
        <ele>407.5</ele>
        <time>2021-05-03T10:38:46Z</time>
      </trkpt>
      <trkpt lat="45.26272" lon="5.13329">
        <ele>407.6</ele>
        <time>2021-05-03T10:38:47Z</time>
      </trkpt>
      <trkpt lat="45.26275" lon="5.13319">
        <ele>407.7</ele>
        <time>2021-05-03T10:38:49Z</time>
      </trkpt>
      <trkpt lat="45.26277" lon="5.13314">
        <ele>407.8</ele>
        <time>2021-05-03T10:38:50Z</time>
      </trkpt>
      <trkpt lat="45.26278" lon="5.13307">
        <ele>407.9</ele>
        <time>2021-05-03T10:38:51Z</time>
      </trkpt>
      <trkpt lat="45.26279" lon="5.133">
        <ele>408</ele>
        <time>2021-05-03T10:38:52Z</time>
      </trkpt>
      <trkpt lat="45.2628" lon="5.13292">
        <ele>408.1</ele>
        <time>2021-05-03T10:38:54Z</time>
      </trkpt>
      <trkpt lat="45.2628" lon="5.13286">
        <ele>408.1</ele>
        <time>2021-05-03T10:38:55Z</time>
      </trkpt>
      <trkpt lat="45.26281" lon="5.13278">
        <ele>408.2</ele>
        <time>2021-05-03T10:38:56Z</time>
      </trkpt>
      <trkpt lat="45.26281" lon="5.13273">
        <ele>408.3</ele>
        <time>2021-05-03T10:38:58Z</time>
      </trkpt>
      <trkpt lat="45.26281" lon="5.13266">
        <ele>408.4</ele>
        <time>2021-05-03T10:38:59Z</time>
      </trkpt>
      <trkpt lat="45.26281" lon="5.1326">
        <ele>408.5</ele>
        <time>2021-05-03T10:39:00Z</time>
      </trkpt>
      <trkpt lat="45.26282" lon="5.13251">
        <ele>408.6</ele>
        <time>2021-05-03T10:39:01Z</time>
      </trkpt>
      <trkpt lat="45.26283" lon="5.13243">
        <ele>408.7</ele>
        <time>2021-05-03T10:39:03Z</time>
      </trkpt>
      <trkpt lat="45.26284" lon="5.13237">
        <ele>408.8</ele>
        <time>2021-05-03T10:39:04Z</time>
      </trkpt>
      <trkpt lat="45.26286" lon="5.1323">
        <ele>408.9</ele>
        <time>2021-05-03T10:39:05Z</time>
      </trkpt>
      <trkpt lat="45.26288" lon="5.13225">
        <ele>409</ele>
        <time>2021-05-03T10:39:06Z</time>
      </trkpt>
      <trkpt lat="45.2629" lon="5.1322">
        <ele>409</ele>
        <time>2021-05-03T10:39:07Z</time>
      </trkpt>
      <trkpt lat="45.26292" lon="5.13214">
        <ele>409.1</ele>
        <time>2021-05-03T10:39:09Z</time>
      </trkpt>
      <trkpt lat="45.26294" lon="5.13208">
        <ele>409.2</ele>
        <time>2021-05-03T10:39:10Z</time>
      </trkpt>
      <trkpt lat="45.26298" lon="5.13201">
        <ele>409.3</ele>
        <time>2021-05-03T10:39:12Z</time>
      </trkpt>
      <trkpt lat="45.263" lon="5.13196">
        <ele>409.3</ele>
        <time>2021-05-03T10:39:13Z</time>
      </trkpt>
      <trkpt lat="45.26304" lon="5.1319">
        <ele>409.4</ele>
        <time>2021-05-03T10:39:14Z</time>
      </trkpt>
      <trkpt lat="45.26307" lon="5.13184">
        <ele>409.5</ele>
        <time>2021-05-03T10:39:16Z</time>
      </trkpt>
      <trkpt lat="45.26309" lon="5.13178">
        <ele>409.6</ele>
        <time>2021-05-03T10:39:17Z</time>
      </trkpt>
      <trkpt lat="45.26314" lon="5.13169">
        <ele>409.8</ele>
        <time>2021-05-03T10:39:19Z</time>
      </trkpt>
      <trkpt lat="45.26317" lon="5.13164">
        <ele>409.9</ele>
        <time>2021-05-03T10:39:20Z</time>
      </trkpt>
      <trkpt lat="45.2632" lon="5.13159">
        <ele>410</ele>
        <time>2021-05-03T10:39:21Z</time>
      </trkpt>
      <trkpt lat="45.26323" lon="5.13153">
        <ele>410.1</ele>
        <time>2021-05-03T10:39:22Z</time>
      </trkpt>
      <trkpt lat="45.26327" lon="5.13146">
        <ele>410.2</ele>
        <time>2021-05-03T10:39:24Z</time>
      </trkpt>
      <trkpt lat="45.26329" lon="5.13141">
        <ele>410.3</ele>
        <time>2021-05-03T10:39:25Z</time>
      </trkpt>
      <trkpt lat="45.26333" lon="5.13135">
        <ele>410.4</ele>
        <time>2021-05-03T10:39:26Z</time>
      </trkpt>
      <trkpt lat="45.26336" lon="5.13129">
        <ele>410.5</ele>
        <time>2021-05-03T10:39:28Z</time>
      </trkpt>
      <trkpt lat="45.2634" lon="5.13119">
        <ele>410.7</ele>
        <time>2021-05-03T10:39:30Z</time>
      </trkpt>
      <trkpt lat="45.26344" lon="5.13111">
        <ele>410.8</ele>
        <time>2021-05-03T10:39:32Z</time>
      </trkpt>
      <trkpt lat="45.26347" lon="5.13107">
        <ele>410.8</ele>
        <time>2021-05-03T10:39:33Z</time>
      </trkpt>
      <trkpt lat="45.26351" lon="5.13097">
        <ele>411</ele>
        <time>2021-05-03T10:39:35Z</time>
      </trkpt>
      <trkpt lat="45.26353" lon="5.13091">
        <ele>411</ele>
        <time>2021-05-03T10:39:36Z</time>
      </trkpt>
      <trkpt lat="45.26357" lon="5.1308">
        <ele>411.2</ele>
        <time>2021-05-03T10:39:37Z</time>
      </trkpt>
      <trkpt lat="45.2636" lon="5.13072">
        <ele>411.3</ele>
        <time>2021-05-03T10:39:39Z</time>
      </trkpt>
      <trkpt lat="45.26362" lon="5.13067">
        <ele>411.4</ele>
        <time>2021-05-03T10:39:40Z</time>
      </trkpt>
      <trkpt lat="45.26365" lon="5.13055">
        <ele>411.5</ele>
        <time>2021-05-03T10:39:42Z</time>
      </trkpt>
      <trkpt lat="45.26368" lon="5.13044">
        <ele>411.7</ele>
        <time>2021-05-03T10:39:43Z</time>
      </trkpt>
      <trkpt lat="45.26369" lon="5.13039">
        <ele>411.8</ele>
        <time>2021-05-03T10:39:44Z</time>
      </trkpt>
      <trkpt lat="45.26372" lon="5.13033">
        <ele>411.9</ele>
        <time>2021-05-03T10:39:46Z</time>
      </trkpt>
      <trkpt lat="45.26373" lon="5.13027">
        <ele>412</ele>
        <time>2021-05-03T10:39:47Z</time>
      </trkpt>
      <trkpt lat="45.26375" lon="5.13023">
        <ele>412</ele>
        <time>2021-05-03T10:39:48Z</time>
      </trkpt>
      <trkpt lat="45.26379" lon="5.13012">
        <ele>412.2</ele>
        <time>2021-05-03T10:39:50Z</time>
      </trkpt>
      <trkpt lat="45.26381" lon="5.13004">
        <ele>412.3</ele>
        <time>2021-05-03T10:39:51Z</time>
      </trkpt>
      <trkpt lat="45.26382" lon="5.12994">
        <ele>412.4</ele>
        <time>2021-05-03T10:39:53Z</time>
      </trkpt>
      <trkpt lat="45.26381" lon="5.1299">
        <ele>412.5</ele>
        <time>2021-05-03T10:39:54Z</time>
      </trkpt>
      <trkpt lat="45.26385" lon="5.12977">
        <ele>412.6</ele>
        <time>2021-05-03T10:39:56Z</time>
      </trkpt>
      <trkpt lat="45.26391" lon="5.12962">
        <ele>412.8</ele>
        <time>2021-05-03T10:39:58Z</time>
      </trkpt>
      <trkpt lat="45.26394" lon="5.12954">
        <ele>412.9</ele>
        <time>2021-05-03T10:39:59Z</time>
      </trkpt>
      <trkpt lat="45.26396" lon="5.12946">
        <ele>413</ele>
        <time>2021-05-03T10:40:01Z</time>
      </trkpt>
      <trkpt lat="45.26398" lon="5.1294">
        <ele>413.1</ele>
        <time>2021-05-03T10:40:02Z</time>
      </trkpt>
      <trkpt lat="45.264" lon="5.12934">
        <ele>413.2</ele>
        <time>2021-05-03T10:40:03Z</time>
      </trkpt>
      <trkpt lat="45.26402" lon="5.12928">
        <ele>413.3</ele>
        <time>2021-05-03T10:40:04Z</time>
      </trkpt>
      <trkpt lat="45.26403" lon="5.12922">
        <ele>413.3</ele>
        <time>2021-05-03T10:40:05Z</time>
      </trkpt>
      <trkpt lat="45.26407" lon="5.1291">
        <ele>413.5</ele>
        <time>2021-05-03T10:40:07Z</time>
      </trkpt>
      <trkpt lat="45.26409" lon="5.12904">
        <ele>413.5</ele>
        <time>2021-05-03T10:40:08Z</time>
      </trkpt>
      <trkpt lat="45.26412" lon="5.12899">
        <ele>413.6</ele>
        <time>2021-05-03T10:40:09Z</time>
      </trkpt>
      <trkpt lat="45.26414" lon="5.12893">
        <ele>413.7</ele>
        <time>2021-05-03T10:40:10Z</time>
      </trkpt>
      <trkpt lat="45.26417" lon="5.12888">
        <ele>413.7</ele>
        <time>2021-05-03T10:40:11Z</time>
      </trkpt>
      <trkpt lat="45.26419" lon="5.12882">
        <ele>413.8</ele>
        <time>2021-05-03T10:40:12Z</time>
      </trkpt>
      <trkpt lat="45.26421" lon="5.12876">
        <ele>413.9</ele>
        <time>2021-05-03T10:40:13Z</time>
      </trkpt>
      <trkpt lat="45.26424" lon="5.1287">
        <ele>413.9</ele>
        <time>2021-05-03T10:40:14Z</time>
      </trkpt>
      <trkpt lat="45.26426" lon="5.12865">
        <ele>414</ele>
        <time>2021-05-03T10:40:15Z</time>
      </trkpt>
      <trkpt lat="45.26428" lon="5.1286">
        <ele>414</ele>
        <time>2021-05-03T10:40:16Z</time>
      </trkpt>
      <trkpt lat="45.26431" lon="5.12854">
        <ele>414.1</ele>
        <time>2021-05-03T10:40:17Z</time>
      </trkpt>
      <trkpt lat="45.26433" lon="5.12848">
        <ele>414.1</ele>
        <time>2021-05-03T10:40:18Z</time>
      </trkpt>
      <trkpt lat="45.26436" lon="5.12842">
        <ele>414.2</ele>
        <time>2021-05-03T10:40:19Z</time>
      </trkpt>
      <trkpt lat="45.26438" lon="5.12836">
        <ele>414.3</ele>
        <time>2021-05-03T10:40:20Z</time>
      </trkpt>
      <trkpt lat="45.26441" lon="5.12831">
        <ele>414.3</ele>
        <time>2021-05-03T10:40:21Z</time>
      </trkpt>
      <trkpt lat="45.26443" lon="5.12825">
        <ele>414.3</ele>
        <time>2021-05-03T10:40:22Z</time>
      </trkpt>
      <trkpt lat="45.26446" lon="5.1282">
        <ele>414.4</ele>
        <time>2021-05-03T10:40:23Z</time>
      </trkpt>
      <trkpt lat="45.26447" lon="5.12816">
        <ele>414.4</ele>
        <time>2021-05-03T10:40:24Z</time>
      </trkpt>
      <trkpt lat="45.2645" lon="5.12811">
        <ele>414.5</ele>
        <time>2021-05-03T10:40:25Z</time>
      </trkpt>
      <trkpt lat="45.26452" lon="5.12805">
        <ele>414.6</ele>
        <time>2021-05-03T10:40:26Z</time>
      </trkpt>
      <trkpt lat="45.26455" lon="5.128">
        <ele>414.6</ele>
        <time>2021-05-03T10:40:27Z</time>
      </trkpt>
      <trkpt lat="45.26457" lon="5.12795">
        <ele>414.7</ele>
        <time>2021-05-03T10:40:28Z</time>
      </trkpt>
      <trkpt lat="45.2646" lon="5.1279">
        <ele>414.8</ele>
        <time>2021-05-03T10:40:29Z</time>
      </trkpt>
      <trkpt lat="45.26462" lon="5.12784">
        <ele>414.9</ele>
        <time>2021-05-03T10:40:30Z</time>
      </trkpt>
      <trkpt lat="45.26464" lon="5.12778">
        <ele>414.9</ele>
        <time>2021-05-03T10:40:31Z</time>
      </trkpt>
      <trkpt lat="45.26465" lon="5.12772">
        <ele>415</ele>
        <time>2021-05-03T10:40:32Z</time>
      </trkpt>
      <trkpt lat="45.26467" lon="5.12767">
        <ele>415.1</ele>
        <time>2021-05-03T10:40:33Z</time>
      </trkpt>
      <trkpt lat="45.26468" lon="5.12762">
        <ele>415.2</ele>
        <time>2021-05-03T10:40:34Z</time>
      </trkpt>
      <trkpt lat="45.2647" lon="5.12755">
        <ele>415.3</ele>
        <time>2021-05-03T10:40:35Z</time>
      </trkpt>
      <trkpt lat="45.26471" lon="5.1275">
        <ele>415.4</ele>
        <time>2021-05-03T10:40:36Z</time>
      </trkpt>
      <trkpt lat="45.26472" lon="5.12743">
        <ele>415.4</ele>
        <time>2021-05-03T10:40:37Z</time>
      </trkpt>
      <trkpt lat="45.26473" lon="5.12738">
        <ele>415.5</ele>
        <time>2021-05-03T10:40:38Z</time>
      </trkpt>
      <trkpt lat="45.26475" lon="5.12733">
        <ele>415.6</ele>
        <time>2021-05-03T10:40:39Z</time>
      </trkpt>
      <trkpt lat="45.26476" lon="5.12727">
        <ele>415.7</ele>
        <time>2021-05-03T10:40:40Z</time>
      </trkpt>
      <trkpt lat="45.26478" lon="5.12722">
        <ele>415.8</ele>
        <time>2021-05-03T10:40:41Z</time>
      </trkpt>
      <trkpt lat="45.2648" lon="5.12714">
        <ele>416</ele>
        <time>2021-05-03T10:40:42Z</time>
      </trkpt>
      <trkpt lat="45.26482" lon="5.12703">
        <ele>416.1</ele>
        <time>2021-05-03T10:40:44Z</time>
      </trkpt>
      <trkpt lat="45.26485" lon="5.12693">
        <ele>416.3</ele>
        <time>2021-05-03T10:40:45Z</time>
      </trkpt>
      <trkpt lat="45.26487" lon="5.12681">
        <ele>416.5</ele>
        <time>2021-05-03T10:40:47Z</time>
      </trkpt>
      <trkpt lat="45.26489" lon="5.12673">
        <ele>416.6</ele>
        <time>2021-05-03T10:40:48Z</time>
      </trkpt>
      <trkpt lat="45.26491" lon="5.12665">
        <ele>416.8</ele>
        <time>2021-05-03T10:40:50Z</time>
      </trkpt>
      <trkpt lat="45.26493" lon="5.12659">
        <ele>416.9</ele>
        <time>2021-05-03T10:40:51Z</time>
      </trkpt>
      <trkpt lat="45.26495" lon="5.12651">
        <ele>417</ele>
        <time>2021-05-03T10:40:52Z</time>
      </trkpt>
      <trkpt lat="45.26497" lon="5.12645">
        <ele>417.2</ele>
        <time>2021-05-03T10:40:53Z</time>
      </trkpt>
      <trkpt lat="45.26499" lon="5.12637">
        <ele>417.4</ele>
        <time>2021-05-03T10:40:55Z</time>
      </trkpt>
      <trkpt lat="45.26501" lon="5.12631">
        <ele>417.5</ele>
        <time>2021-05-03T10:40:56Z</time>
      </trkpt>
      <trkpt lat="45.26503" lon="5.12622">
        <ele>417.8</ele>
        <time>2021-05-03T10:40:57Z</time>
      </trkpt>
      <trkpt lat="45.26505" lon="5.12616">
        <ele>417.9</ele>
        <time>2021-05-03T10:40:58Z</time>
      </trkpt>
      <trkpt lat="45.26507" lon="5.12608">
        <ele>418.1</ele>
        <time>2021-05-03T10:41:00Z</time>
      </trkpt>
      <trkpt lat="45.2651" lon="5.12598">
        <ele>418.3</ele>
        <time>2021-05-03T10:41:02Z</time>
      </trkpt>
      <trkpt lat="45.26512" lon="5.12589">
        <ele>418.4</ele>
        <time>2021-05-03T10:41:04Z</time>
      </trkpt>
      <trkpt lat="45.26514" lon="5.12582">
        <ele>418.5</ele>
        <time>2021-05-03T10:41:05Z</time>
      </trkpt>
      <trkpt lat="45.26516" lon="5.12573">
        <ele>418.6</ele>
        <time>2021-05-03T10:41:07Z</time>
      </trkpt>
      <trkpt lat="45.26518" lon="5.12568">
        <ele>418.7</ele>
        <time>2021-05-03T10:41:08Z</time>
      </trkpt>
      <trkpt lat="45.2652" lon="5.1256">
        <ele>418.8</ele>
        <time>2021-05-03T10:41:09Z</time>
      </trkpt>
      <trkpt lat="45.26522" lon="5.12551">
        <ele>418.9</ele>
        <time>2021-05-03T10:41:11Z</time>
      </trkpt>
      <trkpt lat="45.26524" lon="5.12545">
        <ele>419</ele>
        <time>2021-05-03T10:41:12Z</time>
      </trkpt>
      <trkpt lat="45.26525" lon="5.12538">
        <ele>419.2</ele>
        <time>2021-05-03T10:41:13Z</time>
      </trkpt>
      <trkpt lat="45.26527" lon="5.1253">
        <ele>419.3</ele>
        <time>2021-05-03T10:41:14Z</time>
      </trkpt>
      <trkpt lat="45.2653" lon="5.12521">
        <ele>419.4</ele>
        <time>2021-05-03T10:41:16Z</time>
      </trkpt>
      <trkpt lat="45.26532" lon="5.1251">
        <ele>419.7</ele>
        <time>2021-05-03T10:41:18Z</time>
      </trkpt>
      <trkpt lat="45.26534" lon="5.12502">
        <ele>419.8</ele>
        <time>2021-05-03T10:41:19Z</time>
      </trkpt>
      <trkpt lat="45.26536" lon="5.12496">
        <ele>419.9</ele>
        <time>2021-05-03T10:41:20Z</time>
      </trkpt>
      <trkpt lat="45.26537" lon="5.12489">
        <ele>420.1</ele>
        <time>2021-05-03T10:41:21Z</time>
      </trkpt>
      <trkpt lat="45.2654" lon="5.12479">
        <ele>420.2</ele>
        <time>2021-05-03T10:41:23Z</time>
      </trkpt>
      <trkpt lat="45.26542" lon="5.12472">
        <ele>420.3</ele>
        <time>2021-05-03T10:41:24Z</time>
      </trkpt>
      <trkpt lat="45.26544" lon="5.12464">
        <ele>420.4</ele>
        <time>2021-05-03T10:41:26Z</time>
      </trkpt>
      <trkpt lat="45.26547" lon="5.12453">
        <ele>420.6</ele>
        <time>2021-05-03T10:41:28Z</time>
      </trkpt>
      <trkpt lat="45.2655" lon="5.12442">
        <ele>420.8</ele>
        <time>2021-05-03T10:41:30Z</time>
      </trkpt>
      <trkpt lat="45.26553" lon="5.12432">
        <ele>421</ele>
        <time>2021-05-03T10:41:32Z</time>
      </trkpt>
      <trkpt lat="45.26554" lon="5.12427">
        <ele>421.1</ele>
        <time>2021-05-03T10:41:33Z</time>
      </trkpt>
      <trkpt lat="45.26556" lon="5.1242">
        <ele>421.2</ele>
        <time>2021-05-03T10:41:34Z</time>
      </trkpt>
      <trkpt lat="45.26559" lon="5.1241">
        <ele>421.4</ele>
        <time>2021-05-03T10:41:36Z</time>
      </trkpt>
      <trkpt lat="45.26561" lon="5.12403">
        <ele>421.5</ele>
        <time>2021-05-03T10:41:37Z</time>
      </trkpt>
      <trkpt lat="45.26563" lon="5.12393">
        <ele>421.7</ele>
        <time>2021-05-03T10:41:39Z</time>
      </trkpt>
      <trkpt lat="45.26565" lon="5.12387">
        <ele>421.9</ele>
        <time>2021-05-03T10:41:40Z</time>
      </trkpt>
      <trkpt lat="45.26568" lon="5.12375">
        <ele>422.1</ele>
        <time>2021-05-03T10:41:42Z</time>
      </trkpt>
      <trkpt lat="45.26572" lon="5.12364">
        <ele>422.5</ele>
        <time>2021-05-03T10:41:44Z</time>
      </trkpt>
      <trkpt lat="45.26573" lon="5.12357">
        <ele>422.7</ele>
        <time>2021-05-03T10:41:45Z</time>
      </trkpt>
      <trkpt lat="45.26576" lon="5.12345">
        <ele>423.1</ele>
        <time>2021-05-03T10:41:47Z</time>
      </trkpt>
      <trkpt lat="45.26577" lon="5.12339">
        <ele>423.3</ele>
        <time>2021-05-03T10:41:48Z</time>
      </trkpt>
      <trkpt lat="45.2658" lon="5.12331">
        <ele>423.5</ele>
        <time>2021-05-03T10:41:50Z</time>
      </trkpt>
      <trkpt lat="45.26582" lon="5.12325">
        <ele>423.8</ele>
        <time>2021-05-03T10:41:51Z</time>
      </trkpt>
      <trkpt lat="45.26584" lon="5.12316">
        <ele>424</ele>
        <time>2021-05-03T10:41:53Z</time>
      </trkpt>
      <trkpt lat="45.26586" lon="5.12311">
        <ele>424.2</ele>
        <time>2021-05-03T10:41:54Z</time>
      </trkpt>
      <trkpt lat="45.26588" lon="5.12305">
        <ele>424.4</ele>
        <time>2021-05-03T10:41:55Z</time>
      </trkpt>
      <trkpt lat="45.2659" lon="5.12297">
        <ele>424.7</ele>
        <time>2021-05-03T10:41:57Z</time>
      </trkpt>
      <trkpt lat="45.26593" lon="5.12288">
        <ele>425</ele>
        <time>2021-05-03T10:41:59Z</time>
      </trkpt>
      <trkpt lat="45.26594" lon="5.12282">
        <ele>425.3</ele>
        <time>2021-05-03T10:42:00Z</time>
      </trkpt>
      <trkpt lat="45.26596" lon="5.12277">
        <ele>425.5</ele>
        <time>2021-05-03T10:42:01Z</time>
      </trkpt>
      <trkpt lat="45.26597" lon="5.12272">
        <ele>425.6</ele>
        <time>2021-05-03T10:42:02Z</time>
      </trkpt>
      <trkpt lat="45.26599" lon="5.12263">
        <ele>425.9</ele>
        <time>2021-05-03T10:42:04Z</time>
      </trkpt>
      <trkpt lat="45.266" lon="5.12257">
        <ele>426.1</ele>
        <time>2021-05-03T10:42:05Z</time>
      </trkpt>
      <trkpt lat="45.26602" lon="5.12249">
        <ele>426.4</ele>
        <time>2021-05-03T10:42:07Z</time>
      </trkpt>
      <trkpt lat="45.26604" lon="5.12244">
        <ele>426.5</ele>
        <time>2021-05-03T10:42:08Z</time>
      </trkpt>
      <trkpt lat="45.26605" lon="5.12236">
        <ele>426.8</ele>
        <time>2021-05-03T10:42:10Z</time>
      </trkpt>
      <trkpt lat="45.26607" lon="5.12231">
        <ele>426.9</ele>
        <time>2021-05-03T10:42:11Z</time>
      </trkpt>
      <trkpt lat="45.2661" lon="5.12223">
        <ele>427.2</ele>
        <time>2021-05-03T10:42:13Z</time>
      </trkpt>
      <trkpt lat="45.26612" lon="5.12217">
        <ele>427.4</ele>
        <time>2021-05-03T10:42:14Z</time>
      </trkpt>
      <trkpt lat="45.26613" lon="5.12209">
        <ele>427.6</ele>
        <time>2021-05-03T10:42:16Z</time>
      </trkpt>
      <trkpt lat="45.26614" lon="5.12204">
        <ele>427.8</ele>
        <time>2021-05-03T10:42:17Z</time>
      </trkpt>
      <trkpt lat="45.26616" lon="5.12198">
        <ele>428</ele>
        <time>2021-05-03T10:42:18Z</time>
      </trkpt>
      <trkpt lat="45.26619" lon="5.12189">
        <ele>428.3</ele>
        <time>2021-05-03T10:42:20Z</time>
      </trkpt>
      <trkpt lat="45.2662" lon="5.12184">
        <ele>428.5</ele>
        <time>2021-05-03T10:42:21Z</time>
      </trkpt>
      <trkpt lat="45.26622" lon="5.12178">
        <ele>428.8</ele>
        <time>2021-05-03T10:42:23Z</time>
      </trkpt>
      <trkpt lat="45.26624" lon="5.12173">
        <ele>428.9</ele>
        <time>2021-05-03T10:42:24Z</time>
      </trkpt>
      <trkpt lat="45.26625" lon="5.12169">
        <ele>429.1</ele>
        <time>2021-05-03T10:42:25Z</time>
      </trkpt>
      <trkpt lat="45.26626" lon="5.12163">
        <ele>429.3</ele>
        <time>2021-05-03T10:42:26Z</time>
      </trkpt>
      <trkpt lat="45.26627" lon="5.12157">
        <ele>429.4</ele>
        <time>2021-05-03T10:42:27Z</time>
      </trkpt>
      <trkpt lat="45.26628" lon="5.1215">
        <ele>429.6</ele>
        <time>2021-05-03T10:42:29Z</time>
      </trkpt>
      <trkpt lat="45.2663" lon="5.12144">
        <ele>429.8</ele>
        <time>2021-05-03T10:42:30Z</time>
      </trkpt>
      <trkpt lat="45.2663" lon="5.12139">
        <ele>429.9</ele>
        <time>2021-05-03T10:42:31Z</time>
      </trkpt>
      <trkpt lat="45.26631" lon="5.12132">
        <ele>430.1</ele>
        <time>2021-05-03T10:42:33Z</time>
      </trkpt>
      <trkpt lat="45.26631" lon="5.12128">
        <ele>430.2</ele>
        <time>2021-05-03T10:42:34Z</time>
      </trkpt>
      <trkpt lat="45.26633" lon="5.12121">
        <ele>430.5</ele>
        <time>2021-05-03T10:42:36Z</time>
      </trkpt>
      <trkpt lat="45.26634" lon="5.12116">
        <ele>430.6</ele>
        <time>2021-05-03T10:42:37Z</time>
      </trkpt>
      <trkpt lat="45.26635" lon="5.12111">
        <ele>430.8</ele>
        <time>2021-05-03T10:42:38Z</time>
      </trkpt>
      <trkpt lat="45.26637" lon="5.12105">
        <ele>431</ele>
        <time>2021-05-03T10:42:39Z</time>
      </trkpt>
      <trkpt lat="45.26638" lon="5.121">
        <ele>431.2</ele>
        <time>2021-05-03T10:42:41Z</time>
      </trkpt>
      <trkpt lat="45.2664" lon="5.12095">
        <ele>431.4</ele>
        <time>2021-05-03T10:42:42Z</time>
      </trkpt>
      <trkpt lat="45.26641" lon="5.1209">
        <ele>431.6</ele>
        <time>2021-05-03T10:42:43Z</time>
      </trkpt>
      <trkpt lat="45.26643" lon="5.12082">
        <ele>431.9</ele>
        <time>2021-05-03T10:42:44Z</time>
      </trkpt>
      <trkpt lat="45.26645" lon="5.12077">
        <ele>432.1</ele>
        <time>2021-05-03T10:42:46Z</time>
      </trkpt>
      <trkpt lat="45.26646" lon="5.12072">
        <ele>432.3</ele>
        <time>2021-05-03T10:42:47Z</time>
      </trkpt>
      <trkpt lat="45.26648" lon="5.12069">
        <ele>432.4</ele>
        <time>2021-05-03T10:42:48Z</time>
      </trkpt>
      <trkpt lat="45.2665" lon="5.12061">
        <ele>432.7</ele>
        <time>2021-05-03T10:42:50Z</time>
      </trkpt>
      <trkpt lat="45.26652" lon="5.12054">
        <ele>433</ele>
        <time>2021-05-03T10:42:52Z</time>
      </trkpt>
      <trkpt lat="45.26655" lon="5.12047">
        <ele>433.2</ele>
        <time>2021-05-03T10:42:54Z</time>
      </trkpt>
      <trkpt lat="45.26657" lon="5.12043">
        <ele>433.3</ele>
        <time>2021-05-03T10:42:55Z</time>
      </trkpt>
      <trkpt lat="45.2666" lon="5.12034">
        <ele>433.6</ele>
        <time>2021-05-03T10:42:57Z</time>
      </trkpt>
      <trkpt lat="45.26663" lon="5.12025">
        <ele>433.9</ele>
        <time>2021-05-03T10:42:59Z</time>
      </trkpt>
      <trkpt lat="45.26666" lon="5.12016">
        <ele>434.3</ele>
        <time>2021-05-03T10:43:01Z</time>
      </trkpt>
      <trkpt lat="45.26667" lon="5.12011">
        <ele>434.4</ele>
        <time>2021-05-03T10:43:02Z</time>
      </trkpt>
      <trkpt lat="45.2667" lon="5.12004">
        <ele>434.7</ele>
        <time>2021-05-03T10:43:04Z</time>
      </trkpt>
      <trkpt lat="45.26671" lon="5.11998">
        <ele>434.8</ele>
        <time>2021-05-03T10:43:05Z</time>
      </trkpt>
      <trkpt lat="45.26672" lon="5.11996">
        <ele>434.9</ele>
        <time>2021-05-03T10:43:06Z</time>
      </trkpt>
      <trkpt lat="45.26674" lon="5.1199">
        <ele>435.1</ele>
        <time>2021-05-03T10:43:07Z</time>
      </trkpt>
      <trkpt lat="45.26675" lon="5.11986">
        <ele>435.2</ele>
        <time>2021-05-03T10:43:08Z</time>
      </trkpt>
      <trkpt lat="45.26677" lon="5.1198">
        <ele>435.3</ele>
        <time>2021-05-03T10:43:10Z</time>
      </trkpt>
      <trkpt lat="45.26678" lon="5.11975">
        <ele>435.4</ele>
        <time>2021-05-03T10:43:11Z</time>
      </trkpt>
      <trkpt lat="45.2668" lon="5.11967">
        <ele>435.6</ele>
        <time>2021-05-03T10:43:13Z</time>
      </trkpt>
      <trkpt lat="45.26682" lon="5.11961">
        <ele>435.7</ele>
        <time>2021-05-03T10:43:14Z</time>
      </trkpt>
      <trkpt lat="45.26684" lon="5.11953">
        <ele>435.9</ele>
        <time>2021-05-03T10:43:16Z</time>
      </trkpt>
      <trkpt lat="45.26685" lon="5.11947">
        <ele>436</ele>
        <time>2021-05-03T10:43:17Z</time>
      </trkpt>
      <trkpt lat="45.26687" lon="5.1194">
        <ele>436.1</ele>
        <time>2021-05-03T10:43:18Z</time>
      </trkpt>
      <trkpt lat="45.26689" lon="5.11931">
        <ele>436.3</ele>
        <time>2021-05-03T10:43:20Z</time>
      </trkpt>
      <trkpt lat="45.2669" lon="5.11927">
        <ele>436.3</ele>
        <time>2021-05-03T10:43:21Z</time>
      </trkpt>
      <trkpt lat="45.26692" lon="5.1192">
        <ele>436.4</ele>
        <time>2021-05-03T10:43:23Z</time>
      </trkpt>
      <trkpt lat="45.26694" lon="5.11915">
        <ele>436.5</ele>
        <time>2021-05-03T10:43:24Z</time>
      </trkpt>
      <trkpt lat="45.26696" lon="5.11907">
        <ele>436.6</ele>
        <time>2021-05-03T10:43:25Z</time>
      </trkpt>
      <trkpt lat="45.26697" lon="5.11901">
        <ele>436.7</ele>
        <time>2021-05-03T10:43:27Z</time>
      </trkpt>
      <trkpt lat="45.26698" lon="5.11895">
        <ele>436.7</ele>
        <time>2021-05-03T10:43:28Z</time>
      </trkpt>
      <trkpt lat="45.267" lon="5.11886">
        <ele>436.8</ele>
        <time>2021-05-03T10:43:29Z</time>
      </trkpt>
      <trkpt lat="45.26701" lon="5.11878">
        <ele>436.9</ele>
        <time>2021-05-03T10:43:31Z</time>
      </trkpt>
      <trkpt lat="45.26703" lon="5.1187">
        <ele>436.9</ele>
        <time>2021-05-03T10:43:33Z</time>
      </trkpt>
      <trkpt lat="45.26704" lon="5.11865">
        <ele>437</ele>
        <time>2021-05-03T10:43:34Z</time>
      </trkpt>
      <trkpt lat="45.26706" lon="5.11854">
        <ele>437.1</ele>
        <time>2021-05-03T10:43:36Z</time>
      </trkpt>
      <trkpt lat="45.26708" lon="5.11844">
        <ele>437.3</ele>
        <time>2021-05-03T10:43:38Z</time>
      </trkpt>
      <trkpt lat="45.2671" lon="5.11838">
        <ele>437.4</ele>
        <time>2021-05-03T10:43:39Z</time>
      </trkpt>
      <trkpt lat="45.2671" lon="5.11828">
        <ele>437.6</ele>
        <time>2021-05-03T10:43:41Z</time>
      </trkpt>
      <trkpt lat="45.26711" lon="5.11822">
        <ele>437.7</ele>
        <time>2021-05-03T10:43:42Z</time>
      </trkpt>
      <trkpt lat="45.26712" lon="5.11816">
        <ele>437.8</ele>
        <time>2021-05-03T10:43:43Z</time>
      </trkpt>
      <trkpt lat="45.26713" lon="5.11809">
        <ele>437.9</ele>
        <time>2021-05-03T10:43:44Z</time>
      </trkpt>
      <trkpt lat="45.26714" lon="5.11801">
        <ele>438.1</ele>
        <time>2021-05-03T10:43:46Z</time>
      </trkpt>
      <trkpt lat="45.26714" lon="5.11796">
        <ele>438.2</ele>
        <time>2021-05-03T10:43:47Z</time>
      </trkpt>
      <trkpt lat="45.26714" lon="5.11791">
        <ele>438.3</ele>
        <time>2021-05-03T10:43:48Z</time>
      </trkpt>
      <trkpt lat="45.26715" lon="5.11785">
        <ele>438.4</ele>
        <time>2021-05-03T10:43:49Z</time>
      </trkpt>
      <trkpt lat="45.26716" lon="5.11775">
        <ele>438.7</ele>
        <time>2021-05-03T10:43:51Z</time>
      </trkpt>
      <trkpt lat="45.26716" lon="5.11767">
        <ele>438.9</ele>
        <time>2021-05-03T10:43:52Z</time>
      </trkpt>
      <trkpt lat="45.26716" lon="5.11761">
        <ele>439</ele>
        <time>2021-05-03T10:43:53Z</time>
      </trkpt>
      <trkpt lat="45.26716" lon="5.11756">
        <ele>439.1</ele>
        <time>2021-05-03T10:43:55Z</time>
      </trkpt>
      <trkpt lat="45.26717" lon="5.11747">
        <ele>439.4</ele>
        <time>2021-05-03T10:43:57Z</time>
      </trkpt>
      <trkpt lat="45.26717" lon="5.11741">
        <ele>439.5</ele>
        <time>2021-05-03T10:43:58Z</time>
      </trkpt>
      <trkpt lat="45.26718" lon="5.11734">
        <ele>439.7</ele>
        <time>2021-05-03T10:43:59Z</time>
      </trkpt>
      <trkpt lat="45.26718" lon="5.11727">
        <ele>439.9</ele>
        <time>2021-05-03T10:44:00Z</time>
      </trkpt>
      <trkpt lat="45.26718" lon="5.11722">
        <ele>440.1</ele>
        <time>2021-05-03T10:44:02Z</time>
      </trkpt>
      <trkpt lat="45.26719" lon="5.11716">
        <ele>440.3</ele>
        <time>2021-05-03T10:44:03Z</time>
      </trkpt>
      <trkpt lat="45.26719" lon="5.11707">
        <ele>440.5</ele>
        <time>2021-05-03T10:44:05Z</time>
      </trkpt>
      <trkpt lat="45.2672" lon="5.11703">
        <ele>440.7</ele>
        <time>2021-05-03T10:44:06Z</time>
      </trkpt>
      <trkpt lat="45.26721" lon="5.11699">
        <ele>440.8</ele>
        <time>2021-05-03T10:44:07Z</time>
      </trkpt>
      <trkpt lat="45.26722" lon="5.11695">
        <ele>440.9</ele>
        <time>2021-05-03T10:44:08Z</time>
      </trkpt>
      <trkpt lat="45.26723" lon="5.11687">
        <ele>441.2</ele>
        <time>2021-05-03T10:44:10Z</time>
      </trkpt>
      <trkpt lat="45.26724" lon="5.11682">
        <ele>441.4</ele>
        <time>2021-05-03T10:44:11Z</time>
      </trkpt>
      <trkpt lat="45.26726" lon="5.11677">
        <ele>441.5</ele>
        <time>2021-05-03T10:44:12Z</time>
      </trkpt>
      <trkpt lat="45.26727" lon="5.11669">
        <ele>441.8</ele>
        <time>2021-05-03T10:44:14Z</time>
      </trkpt>
      <trkpt lat="45.26728" lon="5.11665">
        <ele>442</ele>
        <time>2021-05-03T10:44:15Z</time>
      </trkpt>
      <trkpt lat="45.26728" lon="5.11658">
        <ele>442.2</ele>
        <time>2021-05-03T10:44:17Z</time>
      </trkpt>
      <trkpt lat="45.26728" lon="5.11653">
        <ele>442.4</ele>
        <time>2021-05-03T10:44:18Z</time>
      </trkpt>
      <trkpt lat="45.26729" lon="5.11647">
        <ele>442.6</ele>
        <time>2021-05-03T10:44:20Z</time>
      </trkpt>
      <trkpt lat="45.2673" lon="5.11642">
        <ele>442.8</ele>
        <time>2021-05-03T10:44:21Z</time>
      </trkpt>
      <trkpt lat="45.26731" lon="5.11637">
        <ele>443</ele>
        <time>2021-05-03T10:44:22Z</time>
      </trkpt>
      <trkpt lat="45.26733" lon="5.1163">
        <ele>443.3</ele>
        <time>2021-05-03T10:44:24Z</time>
      </trkpt>
      <trkpt lat="45.26733" lon="5.11624">
        <ele>443.5</ele>
        <time>2021-05-03T10:44:25Z</time>
      </trkpt>
      <trkpt lat="45.26735" lon="5.11621">
        <ele>443.7</ele>
        <time>2021-05-03T10:44:26Z</time>
      </trkpt>
      <trkpt lat="45.26736" lon="5.11616">
        <ele>443.9</ele>
        <time>2021-05-03T10:44:27Z</time>
      </trkpt>
      <trkpt lat="45.26737" lon="5.11611">
        <ele>444.1</ele>
        <time>2021-05-03T10:44:28Z</time>
      </trkpt>
      <trkpt lat="45.26737" lon="5.11608">
        <ele>444.2</ele>
        <time>2021-05-03T10:44:30Z</time>
      </trkpt>
      <trkpt lat="45.26738" lon="5.11601">
        <ele>444.5</ele>
        <time>2021-05-03T10:44:32Z</time>
      </trkpt>
      <trkpt lat="45.26738" lon="5.11595">
        <ele>444.7</ele>
        <time>2021-05-03T10:44:34Z</time>
      </trkpt>
      <trkpt lat="45.26738" lon="5.1159">
        <ele>444.9</ele>
        <time>2021-05-03T10:44:35Z</time>
      </trkpt>
      <trkpt lat="45.26738" lon="5.11588">
        <ele>445</ele>
        <time>2021-05-03T10:44:36Z</time>
      </trkpt>
      <trkpt lat="45.26738" lon="5.11583">
        <ele>445.2</ele>
        <time>2021-05-03T10:44:37Z</time>
      </trkpt>
      <trkpt lat="45.26738" lon="5.11582">
        <ele>445.2</ele>
        <time>2021-05-03T10:44:38Z</time>
      </trkpt>
      <trkpt lat="45.26738" lon="5.11576">
        <ele>445.5</ele>
        <time>2021-05-03T10:44:39Z</time>
      </trkpt>
      <trkpt lat="45.26738" lon="5.11574">
        <ele>445.5</ele>
        <time>2021-05-03T10:44:40Z</time>
      </trkpt>
      <trkpt lat="45.26738" lon="5.11567">
        <ele>445.8</ele>
        <time>2021-05-03T10:44:42Z</time>
      </trkpt>
      <trkpt lat="45.26738" lon="5.1156">
        <ele>446</ele>
        <time>2021-05-03T10:44:43Z</time>
      </trkpt>
      <trkpt lat="45.26738" lon="5.11558">
        <ele>446.1</ele>
        <time>2021-05-03T10:44:44Z</time>
      </trkpt>
      <trkpt lat="45.26739" lon="5.11549">
        <ele>446.5</ele>
        <time>2021-05-03T10:44:46Z</time>
      </trkpt>
      <trkpt lat="45.26739" lon="5.11541">
        <ele>446.8</ele>
        <time>2021-05-03T10:44:48Z</time>
      </trkpt>
      <trkpt lat="45.2674" lon="5.11535">
        <ele>447.1</ele>
        <time>2021-05-03T10:44:50Z</time>
      </trkpt>
      <trkpt lat="45.2674" lon="5.11529">
        <ele>447.3</ele>
        <time>2021-05-03T10:44:51Z</time>
      </trkpt>
      <trkpt lat="45.2674" lon="5.11527">
        <ele>447.4</ele>
        <time>2021-05-03T10:44:52Z</time>
      </trkpt>
      <trkpt lat="45.2674" lon="5.11521">
        <ele>447.7</ele>
        <time>2021-05-03T10:44:53Z</time>
      </trkpt>
      <trkpt lat="45.2674" lon="5.11518">
        <ele>447.8</ele>
        <time>2021-05-03T10:44:54Z</time>
      </trkpt>
      <trkpt lat="45.26741" lon="5.1151">
        <ele>448.1</ele>
        <time>2021-05-03T10:44:56Z</time>
      </trkpt>
      <trkpt lat="45.2674" lon="5.11506">
        <ele>448.3</ele>
        <time>2021-05-03T10:44:57Z</time>
      </trkpt>
      <trkpt lat="45.26739" lon="5.11498">
        <ele>448.7</ele>
        <time>2021-05-03T10:44:59Z</time>
      </trkpt>
      <trkpt lat="45.2674" lon="5.11492">
        <ele>448.9</ele>
        <time>2021-05-03T10:45:01Z</time>
      </trkpt>
      <trkpt lat="45.26741" lon="5.11485">
        <ele>449.2</ele>
        <time>2021-05-03T10:45:02Z</time>
      </trkpt>
      <trkpt lat="45.26741" lon="5.11482">
        <ele>449.3</ele>
        <time>2021-05-03T10:45:03Z</time>
      </trkpt>
      <trkpt lat="45.26743" lon="5.11478">
        <ele>449.5</ele>
        <time>2021-05-03T10:45:05Z</time>
      </trkpt>
      <trkpt lat="45.26743" lon="5.11473">
        <ele>449.8</ele>
        <time>2021-05-03T10:45:06Z</time>
      </trkpt>
      <trkpt lat="45.26745" lon="5.11465">
        <ele>450.1</ele>
        <time>2021-05-03T10:45:08Z</time>
      </trkpt>
      <trkpt lat="45.26747" lon="5.11459">
        <ele>450.4</ele>
        <time>2021-05-03T10:45:10Z</time>
      </trkpt>
      <trkpt lat="45.26748" lon="5.11455">
        <ele>450.5</ele>
        <time>2021-05-03T10:45:11Z</time>
      </trkpt>
      <trkpt lat="45.26749" lon="5.11448">
        <ele>450.9</ele>
        <time>2021-05-03T10:45:13Z</time>
      </trkpt>
      <trkpt lat="45.2675" lon="5.11443">
        <ele>451</ele>
        <time>2021-05-03T10:45:14Z</time>
      </trkpt>
      <trkpt lat="45.26751" lon="5.11437">
        <ele>451.3</ele>
        <time>2021-05-03T10:45:15Z</time>
      </trkpt>
      <trkpt lat="45.26752" lon="5.11431">
        <ele>451.5</ele>
        <time>2021-05-03T10:45:17Z</time>
      </trkpt>
      <trkpt lat="45.26753" lon="5.11427">
        <ele>451.7</ele>
        <time>2021-05-03T10:45:18Z</time>
      </trkpt>
      <trkpt lat="45.26755" lon="5.11418">
        <ele>451.9</ele>
        <time>2021-05-03T10:45:20Z</time>
      </trkpt>
      <trkpt lat="45.26758" lon="5.11412">
        <ele>452.1</ele>
        <time>2021-05-03T10:45:21Z</time>
      </trkpt>
      <trkpt lat="45.2676" lon="5.11407">
        <ele>452.3</ele>
        <time>2021-05-03T10:45:23Z</time>
      </trkpt>
      <trkpt lat="45.26762" lon="5.11402">
        <ele>452.4</ele>
        <time>2021-05-03T10:45:24Z</time>
      </trkpt>
      <trkpt lat="45.26764" lon="5.11394">
        <ele>452.6</ele>
        <time>2021-05-03T10:45:26Z</time>
      </trkpt>
      <trkpt lat="45.26766" lon="5.11389">
        <ele>452.7</ele>
        <time>2021-05-03T10:45:27Z</time>
      </trkpt>
      <trkpt lat="45.26768" lon="5.11384">
        <ele>452.8</ele>
        <time>2021-05-03T10:45:28Z</time>
      </trkpt>
      <trkpt lat="45.26771" lon="5.11377">
        <ele>453</ele>
        <time>2021-05-03T10:45:30Z</time>
      </trkpt>
      <trkpt lat="45.26774" lon="5.11373">
        <ele>453.1</ele>
        <time>2021-05-03T10:45:31Z</time>
      </trkpt>
      <trkpt lat="45.26777" lon="5.11364">
        <ele>453.3</ele>
        <time>2021-05-03T10:45:33Z</time>
      </trkpt>
      <trkpt lat="45.26778" lon="5.1136">
        <ele>453.4</ele>
        <time>2021-05-03T10:45:34Z</time>
      </trkpt>
      <trkpt lat="45.26779" lon="5.11354">
        <ele>453.6</ele>
        <time>2021-05-03T10:45:35Z</time>
      </trkpt>
      <trkpt lat="45.26781" lon="5.11349">
        <ele>453.7</ele>
        <time>2021-05-03T10:45:36Z</time>
      </trkpt>
      <trkpt lat="45.26784" lon="5.11342">
        <ele>453.9</ele>
        <time>2021-05-03T10:45:38Z</time>
      </trkpt>
      <trkpt lat="45.26785" lon="5.11336">
        <ele>454.1</ele>
        <time>2021-05-03T10:45:39Z</time>
      </trkpt>
      <trkpt lat="45.26786" lon="5.11332">
        <ele>454.2</ele>
        <time>2021-05-03T10:45:40Z</time>
      </trkpt>
      <trkpt lat="45.26788" lon="5.11324">
        <ele>454.4</ele>
        <time>2021-05-03T10:45:42Z</time>
      </trkpt>
      <trkpt lat="45.26789" lon="5.1132">
        <ele>454.5</ele>
        <time>2021-05-03T10:45:43Z</time>
      </trkpt>
      <trkpt lat="45.2679" lon="5.11312">
        <ele>454.7</ele>
        <time>2021-05-03T10:45:45Z</time>
      </trkpt>
      <trkpt lat="45.26791" lon="5.11307">
        <ele>454.9</ele>
        <time>2021-05-03T10:45:46Z</time>
      </trkpt>
      <trkpt lat="45.26793" lon="5.11299">
        <ele>455.2</ele>
        <time>2021-05-03T10:45:48Z</time>
      </trkpt>
      <trkpt lat="45.26794" lon="5.11294">
        <ele>455.3</ele>
        <time>2021-05-03T10:45:49Z</time>
      </trkpt>
      <trkpt lat="45.26795" lon="5.11292">
        <ele>455.4</ele>
        <time>2021-05-03T10:45:50Z</time>
      </trkpt>
      <trkpt lat="45.26796" lon="5.11288">
        <ele>455.6</ele>
        <time>2021-05-03T10:45:51Z</time>
      </trkpt>
      <trkpt lat="45.26797" lon="5.11279">
        <ele>455.8</ele>
        <time>2021-05-03T10:45:53Z</time>
      </trkpt>
      <trkpt lat="45.26799" lon="5.11272">
        <ele>456.1</ele>
        <time>2021-05-03T10:45:55Z</time>
      </trkpt>
      <trkpt lat="45.268" lon="5.11268">
        <ele>456.2</ele>
        <time>2021-05-03T10:45:56Z</time>
      </trkpt>
      <trkpt lat="45.26801" lon="5.1126">
        <ele>456.4</ele>
        <time>2021-05-03T10:45:58Z</time>
      </trkpt>
      <trkpt lat="45.26802" lon="5.11255">
        <ele>456.5</ele>
        <time>2021-05-03T10:45:59Z</time>
      </trkpt>
      <trkpt lat="45.26804" lon="5.11249">
        <ele>456.7</ele>
        <time>2021-05-03T10:46:01Z</time>
      </trkpt>
      <trkpt lat="45.26806" lon="5.11244">
        <ele>456.9</ele>
        <time>2021-05-03T10:46:02Z</time>
      </trkpt>
      <trkpt lat="45.26807" lon="5.11241">
        <ele>456.9</ele>
        <time>2021-05-03T10:46:03Z</time>
      </trkpt>
      <trkpt lat="45.26809" lon="5.11234">
        <ele>457.1</ele>
        <time>2021-05-03T10:46:05Z</time>
      </trkpt>
      <trkpt lat="45.26811" lon="5.11228">
        <ele>457.3</ele>
        <time>2021-05-03T10:46:06Z</time>
      </trkpt>
      <trkpt lat="45.26813" lon="5.11224">
        <ele>457.4</ele>
        <time>2021-05-03T10:46:08Z</time>
      </trkpt>
      <trkpt lat="45.26814" lon="5.1122">
        <ele>457.5</ele>
        <time>2021-05-03T10:46:09Z</time>
      </trkpt>
      <trkpt lat="45.26816" lon="5.11215">
        <ele>457.7</ele>
        <time>2021-05-03T10:46:10Z</time>
      </trkpt>
      <trkpt lat="45.26818" lon="5.11208">
        <ele>457.9</ele>
        <time>2021-05-03T10:46:12Z</time>
      </trkpt>
      <trkpt lat="45.2682" lon="5.11203">
        <ele>458.1</ele>
        <time>2021-05-03T10:46:13Z</time>
      </trkpt>
      <trkpt lat="45.2682" lon="5.11201">
        <ele>458.2</ele>
        <time>2021-05-03T10:46:14Z</time>
      </trkpt>
      <trkpt lat="45.26823" lon="5.11192">
        <ele>458.5</ele>
        <time>2021-05-03T10:46:16Z</time>
      </trkpt>
      <trkpt lat="45.26826" lon="5.11186">
        <ele>458.8</ele>
        <time>2021-05-03T10:46:18Z</time>
      </trkpt>
      <trkpt lat="45.26827" lon="5.11182">
        <ele>458.9</ele>
        <time>2021-05-03T10:46:19Z</time>
      </trkpt>
      <trkpt lat="45.26829" lon="5.11177">
        <ele>459.1</ele>
        <time>2021-05-03T10:46:20Z</time>
      </trkpt>
      <trkpt lat="45.2683" lon="5.11176">
        <ele>459.1</ele>
        <time>2021-05-03T10:46:21Z</time>
      </trkpt>
      <trkpt lat="45.26832" lon="5.11171">
        <ele>459.3</ele>
        <time>2021-05-03T10:46:22Z</time>
      </trkpt>
      <trkpt lat="45.26833" lon="5.11169">
        <ele>459.4</ele>
        <time>2021-05-03T10:46:23Z</time>
      </trkpt>
      <trkpt lat="45.26836" lon="5.11162">
        <ele>459.6</ele>
        <time>2021-05-03T10:46:25Z</time>
      </trkpt>
      <trkpt lat="45.26839" lon="5.11155">
        <ele>459.9</ele>
        <time>2021-05-03T10:46:27Z</time>
      </trkpt>
      <trkpt lat="45.26841" lon="5.1115">
        <ele>460</ele>
        <time>2021-05-03T10:46:28Z</time>
      </trkpt>
      <trkpt lat="45.26843" lon="5.11146">
        <ele>460.1</ele>
        <time>2021-05-03T10:46:29Z</time>
      </trkpt>
      <trkpt lat="45.26845" lon="5.11142">
        <ele>460.3</ele>
        <time>2021-05-03T10:46:30Z</time>
      </trkpt>
      <trkpt lat="45.26849" lon="5.11134">
        <ele>460.5</ele>
        <time>2021-05-03T10:46:32Z</time>
      </trkpt>
      <trkpt lat="45.26851" lon="5.11127">
        <ele>460.6</ele>
        <time>2021-05-03T10:46:34Z</time>
      </trkpt>
      <trkpt lat="45.26852" lon="5.11124">
        <ele>460.7</ele>
        <time>2021-05-03T10:46:35Z</time>
      </trkpt>
      <trkpt lat="45.26854" lon="5.1112">
        <ele>460.7</ele>
        <time>2021-05-03T10:46:36Z</time>
      </trkpt>
      <trkpt lat="45.26856" lon="5.11116">
        <ele>460.8</ele>
        <time>2021-05-03T10:46:37Z</time>
      </trkpt>
      <trkpt lat="45.2686" lon="5.11106">
        <ele>461</ele>
        <time>2021-05-03T10:46:39Z</time>
      </trkpt>
      <trkpt lat="45.26862" lon="5.11102">
        <ele>461.1</ele>
        <time>2021-05-03T10:46:40Z</time>
      </trkpt>
      <trkpt lat="45.26864" lon="5.11095">
        <ele>461.2</ele>
        <time>2021-05-03T10:46:41Z</time>
      </trkpt>
      <trkpt lat="45.26868" lon="5.11087">
        <ele>461.4</ele>
        <time>2021-05-03T10:46:43Z</time>
      </trkpt>
      <trkpt lat="45.2687" lon="5.11083">
        <ele>461.4</ele>
        <time>2021-05-03T10:46:44Z</time>
      </trkpt>
      <trkpt lat="45.26872" lon="5.1108">
        <ele>461.4</ele>
        <time>2021-05-03T10:46:45Z</time>
      </trkpt>
      <trkpt lat="45.26874" lon="5.11073">
        <ele>461.5</ele>
        <time>2021-05-03T10:46:46Z</time>
      </trkpt>
      <trkpt lat="45.26877" lon="5.11067">
        <ele>461.6</ele>
        <time>2021-05-03T10:46:47Z</time>
      </trkpt>
      <trkpt lat="45.26879" lon="5.11061">
        <ele>461.6</ele>
        <time>2021-05-03T10:46:49Z</time>
      </trkpt>
      <trkpt lat="45.26882" lon="5.11055">
        <ele>461.7</ele>
        <time>2021-05-03T10:46:50Z</time>
      </trkpt>
      <trkpt lat="45.26885" lon="5.11049">
        <ele>461.7</ele>
        <time>2021-05-03T10:46:52Z</time>
      </trkpt>
      <trkpt lat="45.26888" lon="5.11041">
        <ele>461.9</ele>
        <time>2021-05-03T10:46:53Z</time>
      </trkpt>
      <trkpt lat="45.26891" lon="5.11037">
        <ele>461.9</ele>
        <time>2021-05-03T10:46:55Z</time>
      </trkpt>
      <trkpt lat="45.26895" lon="5.11029">
        <ele>462</ele>
        <time>2021-05-03T10:46:57Z</time>
      </trkpt>
      <trkpt lat="45.26897" lon="5.11024">
        <ele>462.1</ele>
        <time>2021-05-03T10:46:58Z</time>
      </trkpt>
      <trkpt lat="45.26901" lon="5.11014">
        <ele>462.2</ele>
        <time>2021-05-03T10:47:00Z</time>
      </trkpt>
      <trkpt lat="45.26904" lon="5.11008">
        <ele>462.3</ele>
        <time>2021-05-03T10:47:01Z</time>
      </trkpt>
      <trkpt lat="45.26907" lon="5.11">
        <ele>462.3</ele>
        <time>2021-05-03T10:47:02Z</time>
      </trkpt>
      <trkpt lat="45.26909" lon="5.10994">
        <ele>462.4</ele>
        <time>2021-05-03T10:47:04Z</time>
      </trkpt>
      <trkpt lat="45.26912" lon="5.10988">
        <ele>462.4</ele>
        <time>2021-05-03T10:47:05Z</time>
      </trkpt>
      <trkpt lat="45.26915" lon="5.10982">
        <ele>462.5</ele>
        <time>2021-05-03T10:47:06Z</time>
      </trkpt>
      <trkpt lat="45.26918" lon="5.10974">
        <ele>462.5</ele>
        <time>2021-05-03T10:47:08Z</time>
      </trkpt>
      <trkpt lat="45.2692" lon="5.1097">
        <ele>462.5</ele>
        <time>2021-05-03T10:47:09Z</time>
      </trkpt>
      <trkpt lat="45.26924" lon="5.10963">
        <ele>462.5</ele>
        <time>2021-05-03T10:47:11Z</time>
      </trkpt>
      <trkpt lat="45.26928" lon="5.10956">
        <ele>462.4</ele>
        <time>2021-05-03T10:47:13Z</time>
      </trkpt>
      <trkpt lat="45.2693" lon="5.10952">
        <ele>462.3</ele>
        <time>2021-05-03T10:47:14Z</time>
      </trkpt>
      <trkpt lat="45.26932" lon="5.10949">
        <ele>462.3</ele>
        <time>2021-05-03T10:47:15Z</time>
      </trkpt>
      <trkpt lat="45.26934" lon="5.10944">
        <ele>462.2</ele>
        <time>2021-05-03T10:47:16Z</time>
      </trkpt>
      <trkpt lat="45.26936" lon="5.1094">
        <ele>462.2</ele>
        <time>2021-05-03T10:47:17Z</time>
      </trkpt>
      <trkpt lat="45.26938" lon="5.10933">
        <ele>462</ele>
        <time>2021-05-03T10:47:18Z</time>
      </trkpt>
      <trkpt lat="45.26941" lon="5.10924">
        <ele>461.9</ele>
        <time>2021-05-03T10:47:20Z</time>
      </trkpt>
      <trkpt lat="45.26943" lon="5.10916">
        <ele>461.8</ele>
        <time>2021-05-03T10:47:21Z</time>
      </trkpt>
      <trkpt lat="45.26946" lon="5.10905">
        <ele>461.7</ele>
        <time>2021-05-03T10:47:23Z</time>
      </trkpt>
      <trkpt lat="45.26948" lon="5.10899">
        <ele>461.6</ele>
        <time>2021-05-03T10:47:24Z</time>
      </trkpt>
      <trkpt lat="45.26947" lon="5.10893">
        <ele>461.5</ele>
        <time>2021-05-03T10:47:25Z</time>
      </trkpt>
      <trkpt lat="45.26946" lon="5.10888">
        <ele>461.4</ele>
        <time>2021-05-03T10:47:26Z</time>
      </trkpt>
      <trkpt lat="45.26953" lon="5.10875">
        <ele>461.2</ele>
        <time>2021-05-03T10:47:28Z</time>
      </trkpt>
      <trkpt lat="45.26954" lon="5.10867">
        <ele>460.9</ele>
        <time>2021-05-03T10:47:29Z</time>
      </trkpt>
      <trkpt lat="45.26956" lon="5.1086">
        <ele>460.7</ele>
        <time>2021-05-03T10:47:30Z</time>
      </trkpt>
      <trkpt lat="45.26957" lon="5.10852">
        <ele>460.4</ele>
        <time>2021-05-03T10:47:31Z</time>
      </trkpt>
      <trkpt lat="45.26959" lon="5.10845">
        <ele>460.2</ele>
        <time>2021-05-03T10:47:32Z</time>
      </trkpt>
      <trkpt lat="45.26961" lon="5.10838">
        <ele>460</ele>
        <time>2021-05-03T10:47:33Z</time>
      </trkpt>
      <trkpt lat="45.26962" lon="5.1083">
        <ele>459.8</ele>
        <time>2021-05-03T10:47:34Z</time>
      </trkpt>
      <trkpt lat="45.26964" lon="5.10822">
        <ele>459.6</ele>
        <time>2021-05-03T10:47:35Z</time>
      </trkpt>
      <trkpt lat="45.26965" lon="5.10815">
        <ele>459.5</ele>
        <time>2021-05-03T10:47:36Z</time>
      </trkpt>
      <trkpt lat="45.26967" lon="5.10806">
        <ele>459.2</ele>
        <time>2021-05-03T10:47:37Z</time>
      </trkpt>
      <trkpt lat="45.26969" lon="5.10798">
        <ele>459</ele>
        <time>2021-05-03T10:47:38Z</time>
      </trkpt>
      <trkpt lat="45.2697" lon="5.1079">
        <ele>458.8</ele>
        <time>2021-05-03T10:47:39Z</time>
      </trkpt>
      <trkpt lat="45.26972" lon="5.10783">
        <ele>458.5</ele>
        <time>2021-05-03T10:47:40Z</time>
      </trkpt>
      <trkpt lat="45.26973" lon="5.10776">
        <ele>458.3</ele>
        <time>2021-05-03T10:47:41Z</time>
      </trkpt>
      <trkpt lat="45.26975" lon="5.10769">
        <ele>458.2</ele>
        <time>2021-05-03T10:47:42Z</time>
      </trkpt>
      <trkpt lat="45.26977" lon="5.10761">
        <ele>458</ele>
        <time>2021-05-03T10:47:43Z</time>
      </trkpt>
      <trkpt lat="45.26978" lon="5.10752">
        <ele>457.8</ele>
        <time>2021-05-03T10:47:44Z</time>
      </trkpt>
      <trkpt lat="45.26979" lon="5.10744">
        <ele>457.7</ele>
        <time>2021-05-03T10:47:45Z</time>
      </trkpt>
      <trkpt lat="45.26981" lon="5.10735">
        <ele>457.6</ele>
        <time>2021-05-03T10:47:46Z</time>
      </trkpt>
      <trkpt lat="45.26982" lon="5.10727">
        <ele>457.5</ele>
        <time>2021-05-03T10:47:47Z</time>
      </trkpt>
      <trkpt lat="45.26983" lon="5.10719">
        <ele>457.5</ele>
        <time>2021-05-03T10:47:48Z</time>
      </trkpt>
      <trkpt lat="45.26983" lon="5.10712">
        <ele>457.5</ele>
        <time>2021-05-03T10:47:49Z</time>
      </trkpt>
      <trkpt lat="45.26984" lon="5.10706">
        <ele>457.4</ele>
        <time>2021-05-03T10:47:50Z</time>
      </trkpt>
      <trkpt lat="45.26984" lon="5.107">
        <ele>457.4</ele>
        <time>2021-05-03T10:47:51Z</time>
      </trkpt>
      <trkpt lat="45.26984" lon="5.10693">
        <ele>457.4</ele>
        <time>2021-05-03T10:47:52Z</time>
      </trkpt>
      <trkpt lat="45.26984" lon="5.10685">
        <ele>457.4</ele>
        <time>2021-05-03T10:47:53Z</time>
      </trkpt>
      <trkpt lat="45.26984" lon="5.10677">
        <ele>457.4</ele>
        <time>2021-05-03T10:47:54Z</time>
      </trkpt>
      <trkpt lat="45.26983" lon="5.10669">
        <ele>457.4</ele>
        <time>2021-05-03T10:47:55Z</time>
      </trkpt>
      <trkpt lat="45.26982" lon="5.10662">
        <ele>457.5</ele>
        <time>2021-05-03T10:47:56Z</time>
      </trkpt>
      <trkpt lat="45.26982" lon="5.10658">
        <ele>457.5</ele>
        <time>2021-05-03T10:47:57Z</time>
      </trkpt>
      <trkpt lat="45.26981" lon="5.10653">
        <ele>457.5</ele>
        <time>2021-05-03T10:47:58Z</time>
      </trkpt>
      <trkpt lat="45.26981" lon="5.10646">
        <ele>457.6</ele>
        <time>2021-05-03T10:47:59Z</time>
      </trkpt>
      <trkpt lat="45.2698" lon="5.10639">
        <ele>457.6</ele>
        <time>2021-05-03T10:48:00Z</time>
      </trkpt>
      <trkpt lat="45.2698" lon="5.10632">
        <ele>457.7</ele>
        <time>2021-05-03T10:48:01Z</time>
      </trkpt>
      <trkpt lat="45.2698" lon="5.10625">
        <ele>457.8</ele>
        <time>2021-05-03T10:48:02Z</time>
      </trkpt>
      <trkpt lat="45.26979" lon="5.10617">
        <ele>457.8</ele>
        <time>2021-05-03T10:48:03Z</time>
      </trkpt>
      <trkpt lat="45.26979" lon="5.10611">
        <ele>457.9</ele>
        <time>2021-05-03T10:48:04Z</time>
      </trkpt>
      <trkpt lat="45.26978" lon="5.10603">
        <ele>457.9</ele>
        <time>2021-05-03T10:48:05Z</time>
      </trkpt>
      <trkpt lat="45.26977" lon="5.10593">
        <ele>458</ele>
        <time>2021-05-03T10:48:07Z</time>
      </trkpt>
      <trkpt lat="45.26977" lon="5.10587">
        <ele>458</ele>
        <time>2021-05-03T10:48:08Z</time>
      </trkpt>
      <trkpt lat="45.26976" lon="5.10583">
        <ele>458</ele>
        <time>2021-05-03T10:48:10Z</time>
      </trkpt>
      <trkpt lat="45.26976" lon="5.10581">
        <ele>458</ele>
        <time>2021-05-03T10:48:11Z</time>
      </trkpt>
      <trkpt lat="45.26976" lon="5.1058">
        <ele>458</ele>
        <time>2021-05-03T10:48:13Z</time>
      </trkpt>
      <trkpt lat="45.26976" lon="5.10579">
        <ele>457.9</ele>
        <time>2021-05-03T10:48:14Z</time>
      </trkpt>
      <trkpt lat="45.26977" lon="5.1057">
        <ele>457.9</ele>
        <time>2021-05-03T10:48:16Z</time>
      </trkpt>
      <trkpt lat="45.26978" lon="5.10562">
        <ele>457.9</ele>
        <time>2021-05-03T10:48:17Z</time>
      </trkpt>
      <trkpt lat="45.26979" lon="5.10555">
        <ele>457.8</ele>
        <time>2021-05-03T10:48:19Z</time>
      </trkpt>
      <trkpt lat="45.26979" lon="5.10551">
        <ele>457.7</ele>
        <time>2021-05-03T10:48:20Z</time>
      </trkpt>
      <trkpt lat="45.2698" lon="5.10541">
        <ele>457.6</ele>
        <time>2021-05-03T10:48:22Z</time>
      </trkpt>
      <trkpt lat="45.2698" lon="5.10535">
        <ele>457.5</ele>
        <time>2021-05-03T10:48:23Z</time>
      </trkpt>
      <trkpt lat="45.26981" lon="5.10525">
        <ele>457.4</ele>
        <time>2021-05-03T10:48:25Z</time>
      </trkpt>
      <trkpt lat="45.26981" lon="5.10518">
        <ele>457.3</ele>
        <time>2021-05-03T10:48:26Z</time>
      </trkpt>
      <trkpt lat="45.26982" lon="5.10511">
        <ele>457.2</ele>
        <time>2021-05-03T10:48:27Z</time>
      </trkpt>
      <trkpt lat="45.26983" lon="5.10501">
        <ele>457</ele>
        <time>2021-05-03T10:48:29Z</time>
      </trkpt>
      <trkpt lat="45.26982" lon="5.1049">
        <ele>456.8</ele>
        <time>2021-05-03T10:48:31Z</time>
      </trkpt>
      <trkpt lat="45.26983" lon="5.1048">
        <ele>456.7</ele>
        <time>2021-05-03T10:48:32Z</time>
      </trkpt>
      <trkpt lat="45.26983" lon="5.10474">
        <ele>456.6</ele>
        <time>2021-05-03T10:48:34Z</time>
      </trkpt>
      <trkpt lat="45.26984" lon="5.10464">
        <ele>456.5</ele>
        <time>2021-05-03T10:48:36Z</time>
      </trkpt>
      <trkpt lat="45.26984" lon="5.10458">
        <ele>456.5</ele>
        <time>2021-05-03T10:48:37Z</time>
      </trkpt>
      <trkpt lat="45.26982" lon="5.10448">
        <ele>456.3</ele>
        <time>2021-05-03T10:48:39Z</time>
      </trkpt>
      <trkpt lat="45.26983" lon="5.10441">
        <ele>456.3</ele>
        <time>2021-05-03T10:48:41Z</time>
      </trkpt>
      <trkpt lat="45.26983" lon="5.10438">
        <ele>456.2</ele>
        <time>2021-05-03T10:48:42Z</time>
      </trkpt>
      <trkpt lat="45.26983" lon="5.10436">
        <ele>456.2</ele>
        <time>2021-05-03T10:48:43Z</time>
      </trkpt>
      <trkpt lat="45.26983" lon="5.10432">
        <ele>456.2</ele>
        <time>2021-05-03T10:48:44Z</time>
      </trkpt>
      <trkpt lat="45.26983" lon="5.10428">
        <ele>456.1</ele>
        <time>2021-05-03T10:48:45Z</time>
      </trkpt>
      <trkpt lat="45.26983" lon="5.10424">
        <ele>456.1</ele>
        <time>2021-05-03T10:48:46Z</time>
      </trkpt>
      <trkpt lat="45.26983" lon="5.10419">
        <ele>456</ele>
        <time>2021-05-03T10:48:47Z</time>
      </trkpt>
      <trkpt lat="45.26982" lon="5.10415">
        <ele>456</ele>
        <time>2021-05-03T10:48:48Z</time>
      </trkpt>
      <trkpt lat="45.26983" lon="5.10411">
        <ele>455.9</ele>
        <time>2021-05-03T10:48:49Z</time>
      </trkpt>
      <trkpt lat="45.26983" lon="5.10406">
        <ele>455.9</ele>
        <time>2021-05-03T10:48:50Z</time>
      </trkpt>
      <trkpt lat="45.26984" lon="5.10402">
        <ele>455.8</ele>
        <time>2021-05-03T10:48:51Z</time>
      </trkpt>
      <trkpt lat="45.26984" lon="5.10397">
        <ele>455.8</ele>
        <time>2021-05-03T10:48:52Z</time>
      </trkpt>
      <trkpt lat="45.26985" lon="5.10396">
        <ele>455.8</ele>
        <time>2021-05-03T10:48:53Z</time>
      </trkpt>
      <trkpt lat="45.26985" lon="5.10392">
        <ele>455.7</ele>
        <time>2021-05-03T10:48:54Z</time>
      </trkpt>
      <trkpt lat="45.26985" lon="5.1039">
        <ele>455.7</ele>
        <time>2021-05-03T10:48:55Z</time>
      </trkpt>
      <trkpt lat="45.26986" lon="5.10385">
        <ele>455.6</ele>
        <time>2021-05-03T10:48:56Z</time>
      </trkpt>
      <trkpt lat="45.26986" lon="5.10383">
        <ele>455.6</ele>
        <time>2021-05-03T10:48:57Z</time>
      </trkpt>
      <trkpt lat="45.26986" lon="5.10378">
        <ele>455.6</ele>
        <time>2021-05-03T10:48:58Z</time>
      </trkpt>
      <trkpt lat="45.26985" lon="5.10373">
        <ele>455.5</ele>
        <time>2021-05-03T10:48:59Z</time>
      </trkpt>
      <trkpt lat="45.26984" lon="5.10367">
        <ele>455.5</ele>
        <time>2021-05-03T10:49:00Z</time>
      </trkpt>
      <trkpt lat="45.26983" lon="5.10361">
        <ele>455.4</ele>
        <time>2021-05-03T10:49:01Z</time>
      </trkpt>
      <trkpt lat="45.26982" lon="5.10355">
        <ele>455.4</ele>
        <time>2021-05-03T10:49:02Z</time>
      </trkpt>
      <trkpt lat="45.2698" lon="5.1035">
        <ele>455.3</ele>
        <time>2021-05-03T10:49:03Z</time>
      </trkpt>
      <trkpt lat="45.26979" lon="5.10346">
        <ele>455.3</ele>
        <time>2021-05-03T10:49:04Z</time>
      </trkpt>
      <trkpt lat="45.26978" lon="5.1034">
        <ele>455.2</ele>
        <time>2021-05-03T10:49:05Z</time>
      </trkpt>
      <trkpt lat="45.26977" lon="5.10336">
        <ele>455.2</ele>
        <time>2021-05-03T10:49:06Z</time>
      </trkpt>
      <trkpt lat="45.26976" lon="5.10331">
        <ele>455.2</ele>
        <time>2021-05-03T10:49:07Z</time>
      </trkpt>
      <trkpt lat="45.26975" lon="5.10326">
        <ele>455.1</ele>
        <time>2021-05-03T10:49:08Z</time>
      </trkpt>
      <trkpt lat="45.26975" lon="5.10322">
        <ele>455.1</ele>
        <time>2021-05-03T10:49:09Z</time>
      </trkpt>
      <trkpt lat="45.26975" lon="5.10318">
        <ele>455.1</ele>
        <time>2021-05-03T10:49:10Z</time>
      </trkpt>
      <trkpt lat="45.26975" lon="5.10315">
        <ele>455</ele>
        <time>2021-05-03T10:49:11Z</time>
      </trkpt>
      <trkpt lat="45.26974" lon="5.10311">
        <ele>455</ele>
        <time>2021-05-03T10:49:12Z</time>
      </trkpt>
      <trkpt lat="45.26974" lon="5.10309">
        <ele>455</ele>
        <time>2021-05-03T10:49:13Z</time>
      </trkpt>
      <trkpt lat="45.26974" lon="5.10308">
        <ele>455</ele>
        <time>2021-05-03T10:49:14Z</time>
      </trkpt>
      <trkpt lat="45.26973" lon="5.10308">
        <ele>455</ele>
        <time>2021-05-03T10:49:15Z</time>
      </trkpt>
      <trkpt lat="45.26973" lon="5.10307">
        <ele>455</ele>
        <time>2021-05-03T10:49:16Z</time>
      </trkpt>
      <trkpt lat="45.26971" lon="5.10307">
        <ele>455</ele>
        <time>2021-05-03T10:49:17Z</time>
      </trkpt>
      <trkpt lat="45.2697" lon="5.10307">
        <ele>455</ele>
        <time>2021-05-03T10:49:18Z</time>
      </trkpt>
      <trkpt lat="45.26969" lon="5.10306">
        <ele>455</ele>
        <time>2021-05-03T10:49:19Z</time>
      </trkpt>
      <trkpt lat="45.26966" lon="5.10305">
        <ele>455</ele>
        <time>2021-05-03T10:49:20Z</time>
      </trkpt>
      <trkpt lat="45.26965" lon="5.10304">
        <ele>455</ele>
        <time>2021-05-03T10:49:21Z</time>
      </trkpt>
      <trkpt lat="45.26964" lon="5.10304">
        <ele>455</ele>
        <time>2021-05-03T10:49:22Z</time>
      </trkpt>
      <trkpt lat="45.26962" lon="5.10304">
        <ele>455</ele>
        <time>2021-05-03T10:49:23Z</time>
      </trkpt>
      <trkpt lat="45.26962" lon="5.10306">
        <ele>455</ele>
        <time>2021-05-03T10:49:24Z</time>
      </trkpt>
      <trkpt lat="45.26962" lon="5.10308">
        <ele>455</ele>
        <time>2021-05-03T10:49:25Z</time>
      </trkpt>
      <trkpt lat="45.26963" lon="5.10308">
        <ele>455</ele>
        <time>2021-05-03T10:49:26Z</time>
      </trkpt>
      <trkpt lat="45.26963" lon="5.10308">
        <ele>455</ele>
        <time>2021-05-03T10:49:27Z</time>
      </trkpt>
      <trkpt lat="45.26963" lon="5.10308">
        <ele>455</ele>
        <time>2021-05-03T10:49:28Z</time>
      </trkpt>
      <trkpt lat="45.26965" lon="5.10307">
        <ele>455</ele>
        <time>2021-05-03T10:49:29Z</time>
      </trkpt>
      <trkpt lat="45.26967" lon="5.10305">
        <ele>455</ele>
        <time>2021-05-03T10:49:30Z</time>
      </trkpt>
      <trkpt lat="45.26968" lon="5.10305">
        <ele>455</ele>
        <time>2021-05-03T10:49:31Z</time>
      </trkpt>
      <trkpt lat="45.26971" lon="5.10303">
        <ele>455</ele>
        <time>2021-05-03T10:49:32Z</time>
      </trkpt>
      <trkpt lat="45.26972" lon="5.10302">
        <ele>455</ele>
        <time>2021-05-03T10:49:33Z</time>
      </trkpt>
      <trkpt lat="45.26974" lon="5.10298">
        <ele>454.9</ele>
        <time>2021-05-03T10:49:34Z</time>
      </trkpt>
      <trkpt lat="45.26974" lon="5.10295">
        <ele>454.9</ele>
        <time>2021-05-03T10:49:35Z</time>
      </trkpt>
      <trkpt lat="45.26974" lon="5.10291">
        <ele>454.9</ele>
        <time>2021-05-03T10:49:36Z</time>
      </trkpt>
      <trkpt lat="45.26974" lon="5.10287">
        <ele>454.9</ele>
        <time>2021-05-03T10:49:37Z</time>
      </trkpt>
      <trkpt lat="45.26974" lon="5.10283">
        <ele>454.9</ele>
        <time>2021-05-03T10:49:38Z</time>
      </trkpt>
      <trkpt lat="45.26975" lon="5.10279">
        <ele>454.8</ele>
        <time>2021-05-03T10:49:39Z</time>
      </trkpt>
      <trkpt lat="45.26975" lon="5.10274">
        <ele>454.8</ele>
        <time>2021-05-03T10:49:40Z</time>
      </trkpt>
      <trkpt lat="45.26975" lon="5.10269">
        <ele>454.8</ele>
        <time>2021-05-03T10:49:41Z</time>
      </trkpt>
      <trkpt lat="45.26975" lon="5.10264">
        <ele>454.8</ele>
        <time>2021-05-03T10:49:42Z</time>
      </trkpt>
      <trkpt lat="45.26975" lon="5.10259">
        <ele>454.7</ele>
        <time>2021-05-03T10:49:43Z</time>
      </trkpt>
      <trkpt lat="45.26974" lon="5.10254">
        <ele>454.7</ele>
        <time>2021-05-03T10:49:44Z</time>
      </trkpt>
      <trkpt lat="45.26974" lon="5.1025">
        <ele>454.7</ele>
        <time>2021-05-03T10:49:45Z</time>
      </trkpt>
      <trkpt lat="45.26973" lon="5.10244">
        <ele>454.6</ele>
        <time>2021-05-03T10:49:46Z</time>
      </trkpt>
      <trkpt lat="45.26972" lon="5.10239">
        <ele>454.6</ele>
        <time>2021-05-03T10:49:47Z</time>
      </trkpt>
      <trkpt lat="45.26971" lon="5.10234">
        <ele>454.5</ele>
        <time>2021-05-03T10:49:48Z</time>
      </trkpt>
      <trkpt lat="45.2697" lon="5.10229">
        <ele>454.5</ele>
        <time>2021-05-03T10:49:49Z</time>
      </trkpt>
      <trkpt lat="45.26969" lon="5.10224">
        <ele>454.5</ele>
        <time>2021-05-03T10:49:50Z</time>
      </trkpt>
      <trkpt lat="45.26968" lon="5.10219">
        <ele>454.4</ele>
        <time>2021-05-03T10:49:51Z</time>
      </trkpt>
      <trkpt lat="45.26967" lon="5.10215">
        <ele>454.4</ele>
        <time>2021-05-03T10:49:52Z</time>
      </trkpt>
      <trkpt lat="45.26966" lon="5.1021">
        <ele>454.4</ele>
        <time>2021-05-03T10:49:53Z</time>
      </trkpt>
      <trkpt lat="45.26966" lon="5.10206">
        <ele>454.4</ele>
        <time>2021-05-03T10:49:54Z</time>
      </trkpt>
      <trkpt lat="45.26966" lon="5.10202">
        <ele>454.3</ele>
        <time>2021-05-03T10:49:55Z</time>
      </trkpt>
      <trkpt lat="45.26966" lon="5.10197">
        <ele>454.3</ele>
        <time>2021-05-03T10:49:56Z</time>
      </trkpt>
      <trkpt lat="45.26967" lon="5.10194">
        <ele>454.2</ele>
        <time>2021-05-03T10:49:57Z</time>
      </trkpt>
      <trkpt lat="45.26969" lon="5.10189">
        <ele>454.1</ele>
        <time>2021-05-03T10:49:58Z</time>
      </trkpt>
      <trkpt lat="45.26969" lon="5.10187">
        <ele>454.1</ele>
        <time>2021-05-03T10:49:59Z</time>
      </trkpt>
      <trkpt lat="45.26971" lon="5.10182">
        <ele>454</ele>
        <time>2021-05-03T10:50:00Z</time>
      </trkpt>
      <trkpt lat="45.26971" lon="5.1018">
        <ele>454</ele>
        <time>2021-05-03T10:50:01Z</time>
      </trkpt>
      <trkpt lat="45.26972" lon="5.10176">
        <ele>454</ele>
        <time>2021-05-03T10:50:02Z</time>
      </trkpt>
      <trkpt lat="45.26974" lon="5.10172">
        <ele>453.9</ele>
        <time>2021-05-03T10:50:03Z</time>
      </trkpt>
      <trkpt lat="45.26975" lon="5.1017">
        <ele>453.9</ele>
        <time>2021-05-03T10:50:04Z</time>
      </trkpt>
      <trkpt lat="45.26977" lon="5.10167">
        <ele>453.8</ele>
        <time>2021-05-03T10:50:05Z</time>
      </trkpt>
      <trkpt lat="45.26978" lon="5.10163">
        <ele>453.8</ele>
        <time>2021-05-03T10:50:06Z</time>
      </trkpt>
      <trkpt lat="45.26979" lon="5.10159">
        <ele>453.7</ele>
        <time>2021-05-03T10:50:07Z</time>
      </trkpt>
      <trkpt lat="45.2698" lon="5.10157">
        <ele>453.7</ele>
        <time>2021-05-03T10:50:08Z</time>
      </trkpt>
      <trkpt lat="45.2698" lon="5.10153">
        <ele>453.7</ele>
        <time>2021-05-03T10:50:09Z</time>
      </trkpt>
      <trkpt lat="45.26981" lon="5.10152">
        <ele>453.7</ele>
        <time>2021-05-03T10:50:10Z</time>
      </trkpt>
      <trkpt lat="45.26982" lon="5.10151">
        <ele>453.6</ele>
        <time>2021-05-03T10:50:11Z</time>
      </trkpt>
      <trkpt lat="45.26983" lon="5.10149">
        <ele>453.6</ele>
        <time>2021-05-03T10:50:12Z</time>
      </trkpt>
      <trkpt lat="45.26985" lon="5.10147">
        <ele>453.5</ele>
        <time>2021-05-03T10:50:13Z</time>
      </trkpt>
      <trkpt lat="45.26985" lon="5.10146">
        <ele>453.5</ele>
        <time>2021-05-03T10:50:14Z</time>
      </trkpt>
      <trkpt lat="45.26986" lon="5.10145">
        <ele>453.5</ele>
        <time>2021-05-03T10:50:15Z</time>
      </trkpt>
      <trkpt lat="45.26986" lon="5.10142">
        <ele>453.5</ele>
        <time>2021-05-03T10:50:16Z</time>
      </trkpt>
      <trkpt lat="45.26984" lon="5.10141">
        <ele>453.4</ele>
        <time>2021-05-03T10:50:17Z</time>
      </trkpt>
      <trkpt lat="45.26982" lon="5.1014">
        <ele>453.4</ele>
        <time>2021-05-03T10:50:18Z</time>
      </trkpt>
      <trkpt lat="45.26981" lon="5.1014">
        <ele>453.4</ele>
        <time>2021-05-03T10:50:19Z</time>
      </trkpt>
      <trkpt lat="45.26979" lon="5.10141">
        <ele>453.4</ele>
        <time>2021-05-03T10:50:20Z</time>
      </trkpt>
      <trkpt lat="45.26978" lon="5.10141">
        <ele>453.4</ele>
        <time>2021-05-03T10:50:21Z</time>
      </trkpt>
      <trkpt lat="45.26977" lon="5.10141">
        <ele>453.3</ele>
        <time>2021-05-03T10:50:22Z</time>
      </trkpt>
      <trkpt lat="45.26976" lon="5.10142">
        <ele>453.3</ele>
        <time>2021-05-03T10:50:23Z</time>
      </trkpt>
      <trkpt lat="45.26975" lon="5.10143">
        <ele>453.3</ele>
        <time>2021-05-03T10:50:24Z</time>
      </trkpt>
      <trkpt lat="45.26976" lon="5.10145">
        <ele>453.3</ele>
        <time>2021-05-03T10:50:25Z</time>
      </trkpt>
      <trkpt lat="45.26976" lon="5.10147">
        <ele>453.3</ele>
        <time>2021-05-03T10:50:26Z</time>
      </trkpt>
      <trkpt lat="45.26976" lon="5.1015">
        <ele>453.2</ele>
        <time>2021-05-03T10:50:27Z</time>
      </trkpt>
      <trkpt lat="45.26975" lon="5.10152">
        <ele>453.2</ele>
        <time>2021-05-03T10:50:28Z</time>
      </trkpt>
      <trkpt lat="45.26974" lon="5.10152">
        <ele>453.2</ele>
        <time>2021-05-03T10:50:29Z</time>
      </trkpt>
      <trkpt lat="45.26973" lon="5.10152">
        <ele>453.2</ele>
        <time>2021-05-03T10:50:30Z</time>
      </trkpt>
      <trkpt lat="45.26972" lon="5.10152">
        <ele>453.2</ele>
        <time>2021-05-03T10:50:31Z</time>
      </trkpt>
      <trkpt lat="45.26972" lon="5.10151">
        <ele>453.1</ele>
        <time>2021-05-03T10:50:32Z</time>
      </trkpt>
      <trkpt lat="45.26973" lon="5.10151">
        <ele>453.1</ele>
        <time>2021-05-03T10:50:33Z</time>
      </trkpt>
      <trkpt lat="45.26973" lon="5.1015">
        <ele>453.1</ele>
        <time>2021-05-03T10:50:34Z</time>
      </trkpt>
      <trkpt lat="45.26974" lon="5.10149">
        <ele>453.1</ele>
        <time>2021-05-03T10:50:35Z</time>
      </trkpt>
      <trkpt lat="45.26974" lon="5.10149">
        <ele>453.1</ele>
        <time>2021-05-03T10:50:36Z</time>
      </trkpt>
      <trkpt lat="45.26974" lon="5.10149">
        <ele>453.1</ele>
        <time>2021-05-03T10:50:37Z</time>
      </trkpt>
      <trkpt lat="45.26974" lon="5.1015">
        <ele>453.1</ele>
        <time>2021-05-03T10:50:38Z</time>
      </trkpt>
      <trkpt lat="45.26974" lon="5.1015">
        <ele>453.1</ele>
        <time>2021-05-03T10:50:39Z</time>
      </trkpt>
      <trkpt lat="45.26974" lon="5.1015">
        <ele>453.1</ele>
        <time>2021-05-03T10:50:40Z</time>
      </trkpt>
      <trkpt lat="45.26973" lon="5.1015">
        <ele>453.1</ele>
        <time>2021-05-03T10:50:41Z</time>
      </trkpt>
      <trkpt lat="45.26973" lon="5.1015">
        <ele>453.1</ele>
        <time>2021-05-03T10:50:42Z</time>
      </trkpt>
      <trkpt lat="45.26973" lon="5.10149">
        <ele>453.1</ele>
        <time>2021-05-03T10:50:43Z</time>
      </trkpt>
      <trkpt lat="45.26972" lon="5.10149">
        <ele>453.1</ele>
        <time>2021-05-03T10:50:44Z</time>
      </trkpt>
      <trkpt lat="45.26972" lon="5.10149">
        <ele>453.1</ele>
        <time>2021-05-03T10:50:45Z</time>
      </trkpt>
      <trkpt lat="45.26971" lon="5.10149">
        <ele>453.1</ele>
        <time>2021-05-03T10:50:46Z</time>
      </trkpt>
      <trkpt lat="45.26971" lon="5.10149">
        <ele>453.1</ele>
        <time>2021-05-03T10:50:47Z</time>
      </trkpt>
      <trkpt lat="45.26971" lon="5.10149">
        <ele>453</ele>
        <time>2021-05-03T10:50:48Z</time>
      </trkpt>
      <trkpt lat="45.26971" lon="5.10149">
        <ele>453</ele>
        <time>2021-05-03T10:50:49Z</time>
      </trkpt>
      <trkpt lat="45.2697" lon="5.10148">
        <ele>453</ele>
        <time>2021-05-03T10:50:50Z</time>
      </trkpt>
      <trkpt lat="45.2697" lon="5.10148">
        <ele>453</ele>
        <time>2021-05-03T10:50:51Z</time>
      </trkpt>
      <trkpt lat="45.2697" lon="5.10148">
        <ele>453</ele>
        <time>2021-05-03T10:50:52Z</time>
      </trkpt>
      <trkpt lat="45.26969" lon="5.10147">
        <ele>453</ele>
        <time>2021-05-03T10:50:53Z</time>
      </trkpt>
      <trkpt lat="45.26969" lon="5.10147">
        <ele>453</ele>
        <time>2021-05-03T10:50:54Z</time>
      </trkpt>
      <trkpt lat="45.26968" lon="5.10146">
        <ele>453</ele>
        <time>2021-05-03T10:50:55Z</time>
      </trkpt>
      <trkpt lat="45.26967" lon="5.10146">
        <ele>453</ele>
        <time>2021-05-03T10:50:56Z</time>
      </trkpt>
      <trkpt lat="45.26967" lon="5.10145">
        <ele>452.9</ele>
        <time>2021-05-03T10:50:57Z</time>
      </trkpt>
      <trkpt lat="45.26966" lon="5.10145">
        <ele>452.9</ele>
        <time>2021-05-03T10:50:58Z</time>
      </trkpt>
      <trkpt lat="45.26966" lon="5.10144">
        <ele>452.9</ele>
        <time>2021-05-03T10:50:59Z</time>
      </trkpt>
      <trkpt lat="45.26966" lon="5.10143">
        <ele>452.9</ele>
        <time>2021-05-03T10:51:00Z</time>
      </trkpt>
      <trkpt lat="45.26966" lon="5.10143">
        <ele>452.9</ele>
        <time>2021-05-03T10:51:01Z</time>
      </trkpt>
      <trkpt lat="45.26966" lon="5.10143">
        <ele>452.9</ele>
        <time>2021-05-03T10:51:02Z</time>
      </trkpt>
      <trkpt lat="45.26966" lon="5.10143">
        <ele>452.9</ele>
        <time>2021-05-03T10:51:03Z</time>
      </trkpt>
      <trkpt lat="45.26966" lon="5.10143">
        <ele>452.9</ele>
        <time>2021-05-03T10:51:04Z</time>
      </trkpt>
      <trkpt lat="45.26965" lon="5.10143">
        <ele>452.9</ele>
        <time>2021-05-03T10:51:05Z</time>
      </trkpt>
      <trkpt lat="45.26965" lon="5.10143">
        <ele>452.9</ele>
        <time>2021-05-03T10:51:06Z</time>
      </trkpt>
      <trkpt lat="45.26965" lon="5.10143">
        <ele>452.9</ele>
        <time>2021-05-03T10:51:07Z</time>
      </trkpt>
      <trkpt lat="45.26965" lon="5.10143">
        <ele>452.9</ele>
        <time>2021-05-03T10:51:08Z</time>
      </trkpt>
      <trkpt lat="45.26965" lon="5.10143">
        <ele>452.9</ele>
        <time>2021-05-03T10:51:09Z</time>
      </trkpt>
      <trkpt lat="45.26965" lon="5.10144">
        <ele>452.9</ele>
        <time>2021-05-03T10:51:10Z</time>
      </trkpt>
      <trkpt lat="45.26965" lon="5.10144">
        <ele>452.9</ele>
        <time>2021-05-03T10:51:11Z</time>
      </trkpt>
      <trkpt lat="45.26964" lon="5.10143">
        <ele>452.8</ele>
        <time>2021-05-03T11:01:25Z</time>
      </trkpt>
      <trkpt lat="45.26964" lon="5.10143">
        <ele>452.8</ele>
        <time>2021-05-03T11:01:26Z</time>
      </trkpt>
      <trkpt lat="45.26964" lon="5.10143">
        <ele>452.8</ele>
        <time>2021-05-03T11:01:27Z</time>
      </trkpt>
      <trkpt lat="45.26964" lon="5.10143">
        <ele>452.8</ele>
        <time>2021-05-03T11:01:28Z</time>
      </trkpt>
      <trkpt lat="45.26964" lon="5.10143">
        <ele>452.8</ele>
        <time>2021-05-03T11:01:29Z</time>
      </trkpt>
      <trkpt lat="45.26964" lon="5.10144">
        <ele>452.8</ele>
        <time>2021-05-03T11:01:30Z</time>
      </trkpt>
      <trkpt lat="45.26964" lon="5.10144">
        <ele>452.8</ele>
        <time>2021-05-03T11:01:31Z</time>
      </trkpt>
      <trkpt lat="45.26964" lon="5.10143">
        <ele>452.8</ele>
        <time>2021-05-03T11:01:32Z</time>
      </trkpt>
      <trkpt lat="45.26964" lon="5.10144">
        <ele>452.8</ele>
        <time>2021-05-03T11:01:33Z</time>
      </trkpt>
      <trkpt lat="45.26964" lon="5.10144">
        <ele>452.8</ele>
        <time>2021-05-03T11:01:34Z</time>
      </trkpt>
      <trkpt lat="45.26964" lon="5.10144">
        <ele>452.8</ele>
        <time>2021-05-03T11:01:35Z</time>
      </trkpt>
      <trkpt lat="45.26964" lon="5.10144">
        <ele>452.8</ele>
        <time>2021-05-03T11:01:36Z</time>
      </trkpt>
      <trkpt lat="45.26967" lon="5.10147">
        <ele>452.7</ele>
        <time>2021-05-03T11:09:08Z</time>
      </trkpt>
      <trkpt lat="45.26968" lon="5.10148">
        <ele>452.7</ele>
        <time>2021-05-03T11:09:10Z</time>
      </trkpt>
      <trkpt lat="45.26969" lon="5.10148">
        <ele>452.7</ele>
        <time>2021-05-03T11:09:12Z</time>
      </trkpt>
      <trkpt lat="45.26969" lon="5.10149">
        <ele>452.7</ele>
        <time>2021-05-03T11:09:13Z</time>
      </trkpt>
      <trkpt lat="45.26969" lon="5.10149">
        <ele>452.7</ele>
        <time>2021-05-03T11:09:14Z</time>
      </trkpt>
      <trkpt lat="45.2697" lon="5.10148">
        <ele>452.7</ele>
        <time>2021-05-03T11:09:15Z</time>
      </trkpt>
      <trkpt lat="45.2697" lon="5.10147">
        <ele>452.6</ele>
        <time>2021-05-03T11:09:16Z</time>
      </trkpt>
      <trkpt lat="45.26969" lon="5.10145">
        <ele>452.6</ele>
        <time>2021-05-03T11:09:18Z</time>
      </trkpt>
      <trkpt lat="45.26969" lon="5.10143">
        <ele>452.6</ele>
        <time>2021-05-03T11:09:19Z</time>
      </trkpt>
      <trkpt lat="45.26969" lon="5.10142">
        <ele>452.6</ele>
        <time>2021-05-03T11:09:20Z</time>
      </trkpt>
      <trkpt lat="45.26969" lon="5.1014">
        <ele>452.5</ele>
        <time>2021-05-03T11:09:30Z</time>
      </trkpt>
      <trkpt lat="45.26968" lon="5.10138">
        <ele>452.5</ele>
        <time>2021-05-03T11:09:32Z</time>
      </trkpt>
      <trkpt lat="45.26968" lon="5.10137">
        <ele>452.5</ele>
        <time>2021-05-03T11:09:33Z</time>
      </trkpt>
      <trkpt lat="45.26962" lon="5.10138">
        <ele>452.3</ele>
        <time>2021-05-03T11:09:35Z</time>
      </trkpt>
      <trkpt lat="45.26956" lon="5.10137">
        <ele>452.2</ele>
        <time>2021-05-03T11:09:37Z</time>
      </trkpt>
      <trkpt lat="45.26951" lon="5.10135">
        <ele>452.1</ele>
        <time>2021-05-03T11:09:38Z</time>
      </trkpt>
      <trkpt lat="45.26945" lon="5.10131">
        <ele>451.7</ele>
        <time>2021-05-03T11:09:40Z</time>
      </trkpt>
      <trkpt lat="45.26946" lon="5.10124">
        <ele>451.5</ele>
        <time>2021-05-03T11:09:42Z</time>
      </trkpt>
      <trkpt lat="45.26947" lon="5.10122">
        <ele>451.4</ele>
        <time>2021-05-03T11:09:44Z</time>
      </trkpt>
      <trkpt lat="45.26947" lon="5.10121">
        <ele>451.3</ele>
        <time>2021-05-03T11:09:45Z</time>
      </trkpt>
      <trkpt lat="45.26948" lon="5.10122">
        <ele>451.3</ele>
        <time>2021-05-03T11:09:46Z</time>
      </trkpt>
      <trkpt lat="45.26948" lon="5.10122">
        <ele>451.3</ele>
        <time>2021-05-03T11:09:47Z</time>
      </trkpt>
      <trkpt lat="45.26948" lon="5.10122">
        <ele>451.3</ele>
        <time>2021-05-03T11:09:48Z</time>
      </trkpt>
      <trkpt lat="45.26949" lon="5.10122">
        <ele>451.3</ele>
        <time>2021-05-03T11:09:49Z</time>
      </trkpt>
      <trkpt lat="45.26949" lon="5.10122">
        <ele>451.3</ele>
        <time>2021-05-03T11:09:50Z</time>
      </trkpt>
      <trkpt lat="45.26949" lon="5.10122">
        <ele>451.3</ele>
        <time>2021-05-03T11:09:51Z</time>
      </trkpt>
      <trkpt lat="45.26949" lon="5.10121">
        <ele>451.3</ele>
        <time>2021-05-03T11:09:52Z</time>
      </trkpt>
      <trkpt lat="45.26951" lon="5.10119">
        <ele>451.1</ele>
        <time>2021-05-03T11:10:00Z</time>
      </trkpt>
      <trkpt lat="45.26951" lon="5.1012">
        <ele>451.1</ele>
        <time>2021-05-03T11:10:01Z</time>
      </trkpt>
      <trkpt lat="45.26951" lon="5.1012">
        <ele>451.1</ele>
        <time>2021-05-03T11:10:02Z</time>
      </trkpt>
      <trkpt lat="45.26951" lon="5.1012">
        <ele>451.1</ele>
        <time>2021-05-03T11:10:03Z</time>
      </trkpt>
      <trkpt lat="45.26952" lon="5.1012">
        <ele>451.1</ele>
        <time>2021-05-03T11:10:04Z</time>
      </trkpt>
      <trkpt lat="45.26952" lon="5.10119">
        <ele>451.1</ele>
        <time>2021-05-03T11:10:05Z</time>
      </trkpt>
      <trkpt lat="45.26952" lon="5.10119">
        <ele>451.1</ele>
        <time>2021-05-03T11:10:06Z</time>
      </trkpt>
      <trkpt lat="45.26952" lon="5.10119">
        <ele>451.1</ele>
        <time>2021-05-03T11:10:07Z</time>
      </trkpt>
      <trkpt lat="45.26952" lon="5.10119">
        <ele>451.1</ele>
        <time>2021-05-03T11:10:08Z</time>
      </trkpt>
      <trkpt lat="45.26952" lon="5.10119">
        <ele>451.1</ele>
        <time>2021-05-03T11:10:09Z</time>
      </trkpt>
      <trkpt lat="45.26952" lon="5.10118">
        <ele>451</ele>
        <time>2021-05-03T11:10:10Z</time>
      </trkpt>
      <trkpt lat="45.26952" lon="5.10118">
        <ele>451</ele>
        <time>2021-05-03T11:10:11Z</time>
      </trkpt>
      <trkpt lat="45.26953" lon="5.10118">
        <ele>451</ele>
        <time>2021-05-03T11:10:12Z</time>
      </trkpt>
      <trkpt lat="45.26953" lon="5.10117">
        <ele>451</ele>
        <time>2021-05-03T11:10:13Z</time>
      </trkpt>
      <trkpt lat="45.26953" lon="5.10117">
        <ele>451</ele>
        <time>2021-05-03T11:10:14Z</time>
      </trkpt>
      <trkpt lat="45.26953" lon="5.10117">
        <ele>451</ele>
        <time>2021-05-03T11:10:15Z</time>
      </trkpt>
      <trkpt lat="45.26953" lon="5.10117">
        <ele>451</ele>
        <time>2021-05-03T11:10:16Z</time>
      </trkpt>
      <trkpt lat="45.26953" lon="5.10117">
        <ele>451</ele>
        <time>2021-05-03T11:10:17Z</time>
      </trkpt>
      <trkpt lat="45.26952" lon="5.10117">
        <ele>451</ele>
        <time>2021-05-03T11:10:18Z</time>
      </trkpt>
      <trkpt lat="45.26952" lon="5.10117">
        <ele>451</ele>
        <time>2021-05-03T11:10:19Z</time>
      </trkpt>
      <trkpt lat="45.26952" lon="5.10117">
        <ele>451</ele>
        <time>2021-05-03T11:10:20Z</time>
      </trkpt>
      <trkpt lat="45.26952" lon="5.10117">
        <ele>450.9</ele>
        <time>2021-05-03T11:10:21Z</time>
      </trkpt>
      <trkpt lat="45.26952" lon="5.10117">
        <ele>450.9</ele>
        <time>2021-05-03T11:10:22Z</time>
      </trkpt>
      <trkpt lat="45.26952" lon="5.10117">
        <ele>450.9</ele>
        <time>2021-05-03T11:10:23Z</time>
      </trkpt>
      <trkpt lat="45.26952" lon="5.10117">
        <ele>450.9</ele>
        <time>2021-05-03T11:10:24Z</time>
      </trkpt>
      <trkpt lat="45.26951" lon="5.10117">
        <ele>450.9</ele>
        <time>2021-05-03T11:10:25Z</time>
      </trkpt>
      <trkpt lat="45.26951" lon="5.10117">
        <ele>450.9</ele>
        <time>2021-05-03T11:10:26Z</time>
      </trkpt>
      <trkpt lat="45.26951" lon="5.10117">
        <ele>450.9</ele>
        <time>2021-05-03T11:10:27Z</time>
      </trkpt>
      <trkpt lat="45.26951" lon="5.10117">
        <ele>450.9</ele>
        <time>2021-05-03T11:10:28Z</time>
      </trkpt>
      <trkpt lat="45.26951" lon="5.10117">
        <ele>450.9</ele>
        <time>2021-05-03T11:10:29Z</time>
      </trkpt>
      <trkpt lat="45.26951" lon="5.10117">
        <ele>450.9</ele>
        <time>2021-05-03T11:10:30Z</time>
      </trkpt>
      <trkpt lat="45.26951" lon="5.10117">
        <ele>450.9</ele>
        <time>2021-05-03T11:10:31Z</time>
      </trkpt>
      <trkpt lat="45.2695" lon="5.10117">
        <ele>450.9</ele>
        <time>2021-05-03T11:10:32Z</time>
      </trkpt>
      <trkpt lat="45.2695" lon="5.10117">
        <ele>450.9</ele>
        <time>2021-05-03T11:10:33Z</time>
      </trkpt>
      <trkpt lat="45.2695" lon="5.10117">
        <ele>450.9</ele>
        <time>2021-05-03T11:10:34Z</time>
      </trkpt>
      <trkpt lat="45.2695" lon="5.10117">
        <ele>450.8</ele>
        <time>2021-05-03T11:10:35Z</time>
      </trkpt>
      <trkpt lat="45.2695" lon="5.10117">
        <ele>450.8</ele>
        <time>2021-05-03T11:10:36Z</time>
      </trkpt>
      <trkpt lat="45.2695" lon="5.10117">
        <ele>450.8</ele>
        <time>2021-05-03T11:10:37Z</time>
      </trkpt>
      <trkpt lat="45.2695" lon="5.10117">
        <ele>450.8</ele>
        <time>2021-05-03T11:10:38Z</time>
      </trkpt>
      <trkpt lat="45.26949" lon="5.10117">
        <ele>450.8</ele>
        <time>2021-05-03T11:10:39Z</time>
      </trkpt>
      <trkpt lat="45.26949" lon="5.10117">
        <ele>450.8</ele>
        <time>2021-05-03T11:10:40Z</time>
      </trkpt>
      <trkpt lat="45.26949" lon="5.10117">
        <ele>450.8</ele>
        <time>2021-05-03T11:10:41Z</time>
      </trkpt>
      <trkpt lat="45.26949" lon="5.10117">
        <ele>450.8</ele>
        <time>2021-05-03T11:10:42Z</time>
      </trkpt>
      <trkpt lat="45.26949" lon="5.10117">
        <ele>450.8</ele>
        <time>2021-05-03T11:10:43Z</time>
      </trkpt>
      <trkpt lat="45.26949" lon="5.10117">
        <ele>450.8</ele>
        <time>2021-05-03T11:10:44Z</time>
      </trkpt>
      <trkpt lat="45.26949" lon="5.10117">
        <ele>450.8</ele>
        <time>2021-05-03T11:10:45Z</time>
      </trkpt>
      <trkpt lat="45.26948" lon="5.10117">
        <ele>450.8</ele>
        <time>2021-05-03T11:10:46Z</time>
      </trkpt>
      <trkpt lat="45.26948" lon="5.10117">
        <ele>450.8</ele>
        <time>2021-05-03T11:10:47Z</time>
      </trkpt>
      <trkpt lat="45.26948" lon="5.10117">
        <ele>450.8</ele>
        <time>2021-05-03T11:10:48Z</time>
      </trkpt>
      <trkpt lat="45.26948" lon="5.10117">
        <ele>450.7</ele>
        <time>2021-05-03T11:10:49Z</time>
      </trkpt>
      <trkpt lat="45.26948" lon="5.10117">
        <ele>450.7</ele>
        <time>2021-05-03T11:10:51Z</time>
      </trkpt>
      <trkpt lat="45.26948" lon="5.10117">
        <ele>450.7</ele>
        <time>2021-05-03T11:10:52Z</time>
      </trkpt>
      <trkpt lat="45.26948" lon="5.10117">
        <ele>450.7</ele>
        <time>2021-05-03T11:10:53Z</time>
      </trkpt>
      <trkpt lat="45.26947" lon="5.10117">
        <ele>450.7</ele>
        <time>2021-05-03T11:10:54Z</time>
      </trkpt>
      <trkpt lat="45.26947" lon="5.10117">
        <ele>450.7</ele>
        <time>2021-05-03T11:10:55Z</time>
      </trkpt>
      <trkpt lat="45.26947" lon="5.10117">
        <ele>450.7</ele>
        <time>2021-05-03T11:10:57Z</time>
      </trkpt>
      <trkpt lat="45.26947" lon="5.10117">
        <ele>450.7</ele>
        <time>2021-05-03T11:10:58Z</time>
      </trkpt>
      <trkpt lat="45.26947" lon="5.10118">
        <ele>450.7</ele>
        <time>2021-05-03T11:10:59Z</time>
      </trkpt>
      <trkpt lat="45.26947" lon="5.10118">
        <ele>450.7</ele>
        <time>2021-05-03T11:11:00Z</time>
      </trkpt>
      <trkpt lat="45.26947" lon="5.10118">
        <ele>450.7</ele>
        <time>2021-05-03T11:11:01Z</time>
      </trkpt>
      <trkpt lat="45.26946" lon="5.10118">
        <ele>450.7</ele>
        <time>2021-05-03T11:11:02Z</time>
      </trkpt>
      <trkpt lat="45.26946" lon="5.10118">
        <ele>450.7</ele>
        <time>2021-05-03T11:11:03Z</time>
      </trkpt>
      <trkpt lat="45.26946" lon="5.10118">
        <ele>450.6</ele>
        <time>2021-05-03T11:11:04Z</time>
      </trkpt>
      <trkpt lat="45.26946" lon="5.10118">
        <ele>450.6</ele>
        <time>2021-05-03T11:11:05Z</time>
      </trkpt>
      <trkpt lat="45.26946" lon="5.10118">
        <ele>450.6</ele>
        <time>2021-05-03T11:11:10Z</time>
      </trkpt>
      <trkpt lat="45.26946" lon="5.10118">
        <ele>450.6</ele>
        <time>2021-05-03T11:11:11Z</time>
      </trkpt>
      <trkpt lat="45.26945" lon="5.10118">
        <ele>450.6</ele>
        <time>2021-05-03T11:11:12Z</time>
      </trkpt>
      <trkpt lat="45.26945" lon="5.10118">
        <ele>450.6</ele>
        <time>2021-05-03T11:11:13Z</time>
      </trkpt>
      <trkpt lat="45.26943" lon="5.10115">
        <ele>450.4</ele>
        <time>2021-05-03T11:11:14Z</time>
      </trkpt>
      <trkpt lat="45.26941" lon="5.10114">
        <ele>450.4</ele>
        <time>2021-05-03T11:11:15Z</time>
      </trkpt>
      <trkpt lat="45.26939" lon="5.10108">
        <ele>450.1</ele>
        <time>2021-05-03T11:11:16Z</time>
      </trkpt>
      <trkpt lat="45.26939" lon="5.10102">
        <ele>449.9</ele>
        <time>2021-05-03T11:11:18Z</time>
      </trkpt>
      <trkpt lat="45.26939" lon="5.10095">
        <ele>449.7</ele>
        <time>2021-05-03T11:11:19Z</time>
      </trkpt>
      <trkpt lat="45.26937" lon="5.10079">
        <ele>449.1</ele>
        <time>2021-05-03T11:11:21Z</time>
      </trkpt>
      <trkpt lat="45.26936" lon="5.10071">
        <ele>448.8</ele>
        <time>2021-05-03T11:11:22Z</time>
      </trkpt>
      <trkpt lat="45.26935" lon="5.10062">
        <ele>448.3</ele>
        <time>2021-05-03T11:11:23Z</time>
      </trkpt>
      <trkpt lat="45.26934" lon="5.10054">
        <ele>447.9</ele>
        <time>2021-05-03T11:11:24Z</time>
      </trkpt>
      <trkpt lat="45.26933" lon="5.10045">
        <ele>447.5</ele>
        <time>2021-05-03T11:11:25Z</time>
      </trkpt>
      <trkpt lat="45.26933" lon="5.10036">
        <ele>447</ele>
        <time>2021-05-03T11:11:26Z</time>
      </trkpt>
      <trkpt lat="45.26933" lon="5.10026">
        <ele>446.5</ele>
        <time>2021-05-03T11:11:27Z</time>
      </trkpt>
      <trkpt lat="45.26932" lon="5.10017">
        <ele>446</ele>
        <time>2021-05-03T11:11:28Z</time>
      </trkpt>
      <trkpt lat="45.26931" lon="5.10006">
        <ele>445.4</ele>
        <time>2021-05-03T11:11:29Z</time>
      </trkpt>
      <trkpt lat="45.2693" lon="5.09996">
        <ele>444.9</ele>
        <time>2021-05-03T11:11:30Z</time>
      </trkpt>
      <trkpt lat="45.26929" lon="5.09984">
        <ele>444.3</ele>
        <time>2021-05-03T11:11:31Z</time>
      </trkpt>
      <trkpt lat="45.26928" lon="5.09972">
        <ele>443.7</ele>
        <time>2021-05-03T11:11:32Z</time>
      </trkpt>
      <trkpt lat="45.26927" lon="5.0996">
        <ele>443</ele>
        <time>2021-05-03T11:11:33Z</time>
      </trkpt>
      <trkpt lat="45.26926" lon="5.09948">
        <ele>442.4</ele>
        <time>2021-05-03T11:11:34Z</time>
      </trkpt>
      <trkpt lat="45.26924" lon="5.09935">
        <ele>441.8</ele>
        <time>2021-05-03T11:11:35Z</time>
      </trkpt>
      <trkpt lat="45.26923" lon="5.09922">
        <ele>441.2</ele>
        <time>2021-05-03T11:11:36Z</time>
      </trkpt>
      <trkpt lat="45.26921" lon="5.09909">
        <ele>440.5</ele>
        <time>2021-05-03T11:11:37Z</time>
      </trkpt>
      <trkpt lat="45.2692" lon="5.09896">
        <ele>439.9</ele>
        <time>2021-05-03T11:11:38Z</time>
      </trkpt>
      <trkpt lat="45.26919" lon="5.09883">
        <ele>439.3</ele>
        <time>2021-05-03T11:11:39Z</time>
      </trkpt>
      <trkpt lat="45.26918" lon="5.0987">
        <ele>438.6</ele>
        <time>2021-05-03T11:11:40Z</time>
      </trkpt>
      <trkpt lat="45.26917" lon="5.09857">
        <ele>438</ele>
        <time>2021-05-03T11:11:41Z</time>
      </trkpt>
      <trkpt lat="45.26916" lon="5.09844">
        <ele>437.3</ele>
        <time>2021-05-03T11:11:42Z</time>
      </trkpt>
      <trkpt lat="45.26915" lon="5.0983">
        <ele>436.6</ele>
        <time>2021-05-03T11:11:43Z</time>
      </trkpt>
      <trkpt lat="45.26914" lon="5.09817">
        <ele>436</ele>
        <time>2021-05-03T11:11:44Z</time>
      </trkpt>
      <trkpt lat="45.26912" lon="5.09803">
        <ele>435.3</ele>
        <time>2021-05-03T11:11:45Z</time>
      </trkpt>
      <trkpt lat="45.2691" lon="5.09789">
        <ele>434.6</ele>
        <time>2021-05-03T11:11:46Z</time>
      </trkpt>
      <trkpt lat="45.26907" lon="5.09776">
        <ele>433.9</ele>
        <time>2021-05-03T11:11:47Z</time>
      </trkpt>
      <trkpt lat="45.26904" lon="5.09763">
        <ele>433.1</ele>
        <time>2021-05-03T11:11:48Z</time>
      </trkpt>
      <trkpt lat="45.269" lon="5.09749">
        <ele>432.3</ele>
        <time>2021-05-03T11:11:49Z</time>
      </trkpt>
      <trkpt lat="45.26896" lon="5.09735">
        <ele>431.6</ele>
        <time>2021-05-03T11:11:50Z</time>
      </trkpt>
      <trkpt lat="45.26892" lon="5.0972">
        <ele>430.8</ele>
        <time>2021-05-03T11:11:51Z</time>
      </trkpt>
      <trkpt lat="45.26888" lon="5.09705">
        <ele>430</ele>
        <time>2021-05-03T11:11:52Z</time>
      </trkpt>
      <trkpt lat="45.26884" lon="5.0969">
        <ele>429.1</ele>
        <time>2021-05-03T11:11:53Z</time>
      </trkpt>
      <trkpt lat="45.2688" lon="5.09675">
        <ele>428.3</ele>
        <time>2021-05-03T11:11:54Z</time>
      </trkpt>
      <trkpt lat="45.26877" lon="5.09659">
        <ele>427.4</ele>
        <time>2021-05-03T11:11:55Z</time>
      </trkpt>
      <trkpt lat="45.26875" lon="5.09643">
        <ele>426.6</ele>
        <time>2021-05-03T11:11:56Z</time>
      </trkpt>
      <trkpt lat="45.26873" lon="5.09627">
        <ele>425.7</ele>
        <time>2021-05-03T11:11:57Z</time>
      </trkpt>
      <trkpt lat="45.26871" lon="5.0961">
        <ele>424.8</ele>
        <time>2021-05-03T11:11:58Z</time>
      </trkpt>
      <trkpt lat="45.2687" lon="5.09593">
        <ele>423.9</ele>
        <time>2021-05-03T11:11:59Z</time>
      </trkpt>
      <trkpt lat="45.26869" lon="5.09576">
        <ele>423</ele>
        <time>2021-05-03T11:12:00Z</time>
      </trkpt>
      <trkpt lat="45.26868" lon="5.0956">
        <ele>422.1</ele>
        <time>2021-05-03T11:12:01Z</time>
      </trkpt>
      <trkpt lat="45.26866" lon="5.09544">
        <ele>421.3</ele>
        <time>2021-05-03T11:12:02Z</time>
      </trkpt>
      <trkpt lat="45.26865" lon="5.09527">
        <ele>420.5</ele>
        <time>2021-05-03T11:12:03Z</time>
      </trkpt>
      <trkpt lat="45.26864" lon="5.09511">
        <ele>419.7</ele>
        <time>2021-05-03T11:12:04Z</time>
      </trkpt>
      <trkpt lat="45.26863" lon="5.09495">
        <ele>418.8</ele>
        <time>2021-05-03T11:12:05Z</time>
      </trkpt>
      <trkpt lat="45.26862" lon="5.09479">
        <ele>418</ele>
        <time>2021-05-03T11:12:06Z</time>
      </trkpt>
      <trkpt lat="45.26861" lon="5.09463">
        <ele>417.2</ele>
        <time>2021-05-03T11:12:07Z</time>
      </trkpt>
      <trkpt lat="45.26858" lon="5.09447">
        <ele>416.5</ele>
        <time>2021-05-03T11:12:08Z</time>
      </trkpt>
      <trkpt lat="45.26855" lon="5.09431">
        <ele>415.8</ele>
        <time>2021-05-03T11:12:09Z</time>
      </trkpt>
      <trkpt lat="45.2685" lon="5.09416">
        <ele>415.1</ele>
        <time>2021-05-03T11:12:10Z</time>
      </trkpt>
      <trkpt lat="45.26846" lon="5.09402">
        <ele>416.3</ele>
        <time>2021-05-03T11:12:11Z</time>
      </trkpt>
      <trkpt lat="45.26841" lon="5.09388">
        <ele>415.3</ele>
        <time>2021-05-03T11:12:12Z</time>
      </trkpt>
      <trkpt lat="45.26835" lon="5.09373">
        <ele>414.3</ele>
        <time>2021-05-03T11:12:13Z</time>
      </trkpt>
      <trkpt lat="45.26831" lon="5.0936">
        <ele>413.2</ele>
        <time>2021-05-03T11:12:14Z</time>
      </trkpt>
      <trkpt lat="45.26826" lon="5.09346">
        <ele>412.1</ele>
        <time>2021-05-03T11:12:15Z</time>
      </trkpt>
      <trkpt lat="45.26823" lon="5.09331">
        <ele>411</ele>
        <time>2021-05-03T11:12:16Z</time>
      </trkpt>
      <trkpt lat="45.2682" lon="5.09315">
        <ele>409.9</ele>
        <time>2021-05-03T11:12:17Z</time>
      </trkpt>
      <trkpt lat="45.26817" lon="5.093">
        <ele>408.7</ele>
        <time>2021-05-03T11:12:18Z</time>
      </trkpt>
      <trkpt lat="45.26814" lon="5.09285">
        <ele>407.6</ele>
        <time>2021-05-03T11:12:19Z</time>
      </trkpt>
      <trkpt lat="45.26811" lon="5.09269">
        <ele>406.8</ele>
        <time>2021-05-03T11:12:20Z</time>
      </trkpt>
      <trkpt lat="45.26807" lon="5.09254">
        <ele>406</ele>
        <time>2021-05-03T11:12:21Z</time>
      </trkpt>
      <trkpt lat="45.26804" lon="5.09239">
        <ele>405.2</ele>
        <time>2021-05-03T11:12:22Z</time>
      </trkpt>
      <trkpt lat="45.26801" lon="5.09224">
        <ele>404.4</ele>
        <time>2021-05-03T11:12:23Z</time>
      </trkpt>
      <trkpt lat="45.26798" lon="5.09209">
        <ele>403.5</ele>
        <time>2021-05-03T11:12:24Z</time>
      </trkpt>
      <trkpt lat="45.26794" lon="5.09194">
        <ele>402.7</ele>
        <time>2021-05-03T11:12:25Z</time>
      </trkpt>
      <trkpt lat="45.2679" lon="5.09179">
        <ele>401.8</ele>
        <time>2021-05-03T11:12:26Z</time>
      </trkpt>
      <trkpt lat="45.26786" lon="5.09165">
        <ele>401</ele>
        <time>2021-05-03T11:12:27Z</time>
      </trkpt>
      <trkpt lat="45.26782" lon="5.09149">
        <ele>400.1</ele>
        <time>2021-05-03T11:12:28Z</time>
      </trkpt>
      <trkpt lat="45.26778" lon="5.09134">
        <ele>399.3</ele>
        <time>2021-05-03T11:12:29Z</time>
      </trkpt>
      <trkpt lat="45.26773" lon="5.09119">
        <ele>398.4</ele>
        <time>2021-05-03T11:12:30Z</time>
      </trkpt>
      <trkpt lat="45.26768" lon="5.09104">
        <ele>397.5</ele>
        <time>2021-05-03T11:12:31Z</time>
      </trkpt>
      <trkpt lat="45.26763" lon="5.09089">
        <ele>396.6</ele>
        <time>2021-05-03T11:12:32Z</time>
      </trkpt>
      <trkpt lat="45.26758" lon="5.09074">
        <ele>395.7</ele>
        <time>2021-05-03T11:12:33Z</time>
      </trkpt>
      <trkpt lat="45.26752" lon="5.09058">
        <ele>394.7</ele>
        <time>2021-05-03T11:12:34Z</time>
      </trkpt>
      <trkpt lat="45.26747" lon="5.09042">
        <ele>393.7</ele>
        <time>2021-05-03T11:12:35Z</time>
      </trkpt>
      <trkpt lat="45.26743" lon="5.09026">
        <ele>392.8</ele>
        <time>2021-05-03T11:12:36Z</time>
      </trkpt>
      <trkpt lat="45.26739" lon="5.0901">
        <ele>391.8</ele>
        <time>2021-05-03T11:12:37Z</time>
      </trkpt>
      <trkpt lat="45.26737" lon="5.08993">
        <ele>390.9</ele>
        <time>2021-05-03T11:12:38Z</time>
      </trkpt>
      <trkpt lat="45.26735" lon="5.08976">
        <ele>389.9</ele>
        <time>2021-05-03T11:12:39Z</time>
      </trkpt>
      <trkpt lat="45.26734" lon="5.08958">
        <ele>389</ele>
        <time>2021-05-03T11:12:40Z</time>
      </trkpt>
      <trkpt lat="45.26733" lon="5.08941">
        <ele>388.2</ele>
        <time>2021-05-03T11:12:41Z</time>
      </trkpt>
      <trkpt lat="45.26731" lon="5.08924">
        <ele>387.3</ele>
        <time>2021-05-03T11:12:42Z</time>
      </trkpt>
      <trkpt lat="45.26729" lon="5.08908">
        <ele>386.5</ele>
        <time>2021-05-03T11:12:43Z</time>
      </trkpt>
      <trkpt lat="45.26728" lon="5.08891">
        <ele>385.6</ele>
        <time>2021-05-03T11:12:44Z</time>
      </trkpt>
      <trkpt lat="45.26727" lon="5.08875">
        <ele>384.8</ele>
        <time>2021-05-03T11:12:45Z</time>
      </trkpt>
      <trkpt lat="45.26725" lon="5.08858">
        <ele>383.9</ele>
        <time>2021-05-03T11:12:46Z</time>
      </trkpt>
      <trkpt lat="45.26724" lon="5.08842">
        <ele>383.1</ele>
        <time>2021-05-03T11:12:47Z</time>
      </trkpt>
      <trkpt lat="45.26722" lon="5.08825">
        <ele>382.2</ele>
        <time>2021-05-03T11:12:48Z</time>
      </trkpt>
      <trkpt lat="45.2672" lon="5.08809">
        <ele>381.4</ele>
        <time>2021-05-03T11:12:49Z</time>
      </trkpt>
      <trkpt lat="45.26719" lon="5.08791">
        <ele>380.6</ele>
        <time>2021-05-03T11:12:50Z</time>
      </trkpt>
      <trkpt lat="45.26717" lon="5.08774">
        <ele>379.8</ele>
        <time>2021-05-03T11:12:51Z</time>
      </trkpt>
      <trkpt lat="45.26716" lon="5.08757">
        <ele>378.9</ele>
        <time>2021-05-03T11:12:52Z</time>
      </trkpt>
      <trkpt lat="45.26714" lon="5.0874">
        <ele>378</ele>
        <time>2021-05-03T11:12:53Z</time>
      </trkpt>
      <trkpt lat="45.26713" lon="5.08723">
        <ele>377.1</ele>
        <time>2021-05-03T11:12:54Z</time>
      </trkpt>
      <trkpt lat="45.26711" lon="5.08706">
        <ele>376.3</ele>
        <time>2021-05-03T11:12:55Z</time>
      </trkpt>
      <trkpt lat="45.26709" lon="5.08689">
        <ele>375.5</ele>
        <time>2021-05-03T11:12:56Z</time>
      </trkpt>
      <trkpt lat="45.26707" lon="5.08672">
        <ele>374.7</ele>
        <time>2021-05-03T11:12:57Z</time>
      </trkpt>
      <trkpt lat="45.26705" lon="5.08655">
        <ele>373.9</ele>
        <time>2021-05-03T11:12:58Z</time>
      </trkpt>
      <trkpt lat="45.26703" lon="5.08638">
        <ele>373.1</ele>
        <time>2021-05-03T11:12:59Z</time>
      </trkpt>
      <trkpt lat="45.26702" lon="5.0862">
        <ele>372.1</ele>
        <time>2021-05-03T11:13:00Z</time>
      </trkpt>
      <trkpt lat="45.26701" lon="5.08603">
        <ele>371.2</ele>
        <time>2021-05-03T11:13:01Z</time>
      </trkpt>
      <trkpt lat="45.26699" lon="5.08586">
        <ele>370.4</ele>
        <time>2021-05-03T11:13:02Z</time>
      </trkpt>
      <trkpt lat="45.26695" lon="5.0857">
        <ele>369.5</ele>
        <time>2021-05-03T11:13:03Z</time>
      </trkpt>
      <trkpt lat="45.2669" lon="5.08554">
        <ele>368.6</ele>
        <time>2021-05-03T11:13:04Z</time>
      </trkpt>
      <trkpt lat="45.26684" lon="5.08539">
        <ele>367.6</ele>
        <time>2021-05-03T11:13:05Z</time>
      </trkpt>
      <trkpt lat="45.26677" lon="5.08526">
        <ele>366.7</ele>
        <time>2021-05-03T11:13:06Z</time>
      </trkpt>
      <trkpt lat="45.26669" lon="5.08515">
        <ele>365.8</ele>
        <time>2021-05-03T11:13:07Z</time>
      </trkpt>
      <trkpt lat="45.26659" lon="5.08505">
        <ele>364.9</ele>
        <time>2021-05-03T11:13:08Z</time>
      </trkpt>
      <trkpt lat="45.26649" lon="5.08497">
        <ele>364</ele>
        <time>2021-05-03T11:13:09Z</time>
      </trkpt>
      <trkpt lat="45.26638" lon="5.08491">
        <ele>363.2</ele>
        <time>2021-05-03T11:13:10Z</time>
      </trkpt>
      <trkpt lat="45.26627" lon="5.08486">
        <ele>362.4</ele>
        <time>2021-05-03T11:13:11Z</time>
      </trkpt>
      <trkpt lat="45.26615" lon="5.08481">
        <ele>361.5</ele>
        <time>2021-05-03T11:13:12Z</time>
      </trkpt>
      <trkpt lat="45.26604" lon="5.08475">
        <ele>360.8</ele>
        <time>2021-05-03T11:13:13Z</time>
      </trkpt>
      <trkpt lat="45.26592" lon="5.0847">
        <ele>360</ele>
        <time>2021-05-03T11:13:14Z</time>
      </trkpt>
      <trkpt lat="45.26581" lon="5.08464">
        <ele>359.3</ele>
        <time>2021-05-03T11:13:15Z</time>
      </trkpt>
      <trkpt lat="45.2657" lon="5.08458">
        <ele>358.8</ele>
        <time>2021-05-03T11:13:16Z</time>
      </trkpt>
      <trkpt lat="45.26558" lon="5.08452">
        <ele>358.4</ele>
        <time>2021-05-03T11:13:17Z</time>
      </trkpt>
      <trkpt lat="45.26546" lon="5.08447">
        <ele>358.1</ele>
        <time>2021-05-03T11:13:18Z</time>
      </trkpt>
      <trkpt lat="45.26535" lon="5.08442">
        <ele>358</ele>
        <time>2021-05-03T11:13:19Z</time>
      </trkpt>
      <trkpt lat="45.26524" lon="5.08437">
        <ele>357.9</ele>
        <time>2021-05-03T11:13:20Z</time>
      </trkpt>
      <trkpt lat="45.26516" lon="5.08433">
        <ele>357.8</ele>
        <time>2021-05-03T11:13:21Z</time>
      </trkpt>
      <trkpt lat="45.26509" lon="5.0843">
        <ele>357.7</ele>
        <time>2021-05-03T11:13:22Z</time>
      </trkpt>
      <trkpt lat="45.26503" lon="5.08427">
        <ele>357.7</ele>
        <time>2021-05-03T11:13:23Z</time>
      </trkpt>
      <trkpt lat="45.26498" lon="5.08422">
        <ele>357.6</ele>
        <time>2021-05-03T11:13:24Z</time>
      </trkpt>
      <trkpt lat="45.26495" lon="5.08415">
        <ele>357.5</ele>
        <time>2021-05-03T11:13:25Z</time>
      </trkpt>
      <trkpt lat="45.26493" lon="5.08406">
        <ele>357.2</ele>
        <time>2021-05-03T11:13:26Z</time>
      </trkpt>
      <trkpt lat="45.26493" lon="5.08397">
        <ele>357.1</ele>
        <time>2021-05-03T11:13:27Z</time>
      </trkpt>
      <trkpt lat="45.26492" lon="5.08388">
        <ele>357.1</ele>
        <time>2021-05-03T11:13:28Z</time>
      </trkpt>
      <trkpt lat="45.26492" lon="5.08378">
        <ele>356.9</ele>
        <time>2021-05-03T11:13:29Z</time>
      </trkpt>
      <trkpt lat="45.26492" lon="5.08369">
        <ele>356.8</ele>
        <time>2021-05-03T11:13:30Z</time>
      </trkpt>
      <trkpt lat="45.26491" lon="5.08359">
        <ele>356.7</ele>
        <time>2021-05-03T11:13:31Z</time>
      </trkpt>
      <trkpt lat="45.2649" lon="5.08349">
        <ele>356.6</ele>
        <time>2021-05-03T11:13:32Z</time>
      </trkpt>
      <trkpt lat="45.2649" lon="5.08339">
        <ele>356.5</ele>
        <time>2021-05-03T11:13:33Z</time>
      </trkpt>
      <trkpt lat="45.2649" lon="5.08329">
        <ele>356.4</ele>
        <time>2021-05-03T11:13:34Z</time>
      </trkpt>
      <trkpt lat="45.26488" lon="5.08319">
        <ele>356.3</ele>
        <time>2021-05-03T11:13:35Z</time>
      </trkpt>
      <trkpt lat="45.26487" lon="5.08309">
        <ele>356.2</ele>
        <time>2021-05-03T11:13:36Z</time>
      </trkpt>
      <trkpt lat="45.26487" lon="5.08299">
        <ele>356.2</ele>
        <time>2021-05-03T11:13:37Z</time>
      </trkpt>
      <trkpt lat="45.26486" lon="5.08288">
        <ele>356.1</ele>
        <time>2021-05-03T11:13:38Z</time>
      </trkpt>
      <trkpt lat="45.26486" lon="5.08278">
        <ele>356</ele>
        <time>2021-05-03T11:13:39Z</time>
      </trkpt>
      <trkpt lat="45.26485" lon="5.08267">
        <ele>355.9</ele>
        <time>2021-05-03T11:13:40Z</time>
      </trkpt>
      <trkpt lat="45.26485" lon="5.08256">
        <ele>355.8</ele>
        <time>2021-05-03T11:13:41Z</time>
      </trkpt>
      <trkpt lat="45.26484" lon="5.08246">
        <ele>355.7</ele>
        <time>2021-05-03T11:13:42Z</time>
      </trkpt>
      <trkpt lat="45.26484" lon="5.08236">
        <ele>355.6</ele>
        <time>2021-05-03T11:13:43Z</time>
      </trkpt>
      <trkpt lat="45.26483" lon="5.08225">
        <ele>355.5</ele>
        <time>2021-05-03T11:13:44Z</time>
      </trkpt>
      <trkpt lat="45.26482" lon="5.08214">
        <ele>355.4</ele>
        <time>2021-05-03T11:13:45Z</time>
      </trkpt>
      <trkpt lat="45.26482" lon="5.08203">
        <ele>355.4</ele>
        <time>2021-05-03T11:13:46Z</time>
      </trkpt>
      <trkpt lat="45.26481" lon="5.08192">
        <ele>355.3</ele>
        <time>2021-05-03T11:13:47Z</time>
      </trkpt>
      <trkpt lat="45.2648" lon="5.08181">
        <ele>355.2</ele>
        <time>2021-05-03T11:13:48Z</time>
      </trkpt>
      <trkpt lat="45.2648" lon="5.08171">
        <ele>355.1</ele>
        <time>2021-05-03T11:13:49Z</time>
      </trkpt>
      <trkpt lat="45.26479" lon="5.08161">
        <ele>355.1</ele>
        <time>2021-05-03T11:13:50Z</time>
      </trkpt>
      <trkpt lat="45.26478" lon="5.08151">
        <ele>355</ele>
        <time>2021-05-03T11:13:51Z</time>
      </trkpt>
      <trkpt lat="45.26477" lon="5.0814">
        <ele>355</ele>
        <time>2021-05-03T11:13:52Z</time>
      </trkpt>
      <trkpt lat="45.26477" lon="5.08129">
        <ele>354.9</ele>
        <time>2021-05-03T11:13:53Z</time>
      </trkpt>
      <trkpt lat="45.26477" lon="5.08118">
        <ele>354.9</ele>
        <time>2021-05-03T11:13:54Z</time>
      </trkpt>
      <trkpt lat="45.26478" lon="5.08107">
        <ele>354.8</ele>
        <time>2021-05-03T11:13:55Z</time>
      </trkpt>
      <trkpt lat="45.26479" lon="5.08096">
        <ele>354.7</ele>
        <time>2021-05-03T11:13:56Z</time>
      </trkpt>
      <trkpt lat="45.2648" lon="5.08087">
        <ele>354.7</ele>
        <time>2021-05-03T11:13:57Z</time>
      </trkpt>
      <trkpt lat="45.26481" lon="5.08076">
        <ele>354.6</ele>
        <time>2021-05-03T11:13:58Z</time>
      </trkpt>
      <trkpt lat="45.26482" lon="5.08066">
        <ele>354.6</ele>
        <time>2021-05-03T11:13:59Z</time>
      </trkpt>
      <trkpt lat="45.26484" lon="5.08056">
        <ele>354.5</ele>
        <time>2021-05-03T11:14:00Z</time>
      </trkpt>
      <trkpt lat="45.26486" lon="5.08046">
        <ele>354.5</ele>
        <time>2021-05-03T11:14:01Z</time>
      </trkpt>
      <trkpt lat="45.26487" lon="5.08036">
        <ele>354.4</ele>
        <time>2021-05-03T11:14:02Z</time>
      </trkpt>
      <trkpt lat="45.26489" lon="5.08026">
        <ele>354.4</ele>
        <time>2021-05-03T11:14:03Z</time>
      </trkpt>
      <trkpt lat="45.2649" lon="5.08016">
        <ele>354.4</ele>
        <time>2021-05-03T11:14:04Z</time>
      </trkpt>
      <trkpt lat="45.26492" lon="5.08007">
        <ele>354.4</ele>
        <time>2021-05-03T11:14:05Z</time>
      </trkpt>
      <trkpt lat="45.26493" lon="5.07997">
        <ele>354.4</ele>
        <time>2021-05-03T11:14:06Z</time>
      </trkpt>
      <trkpt lat="45.26495" lon="5.07988">
        <ele>354.5</ele>
        <time>2021-05-03T11:14:07Z</time>
      </trkpt>
      <trkpt lat="45.26496" lon="5.07978">
        <ele>354.5</ele>
        <time>2021-05-03T11:14:08Z</time>
      </trkpt>
      <trkpt lat="45.26498" lon="5.07969">
        <ele>354.5</ele>
        <time>2021-05-03T11:14:09Z</time>
      </trkpt>
      <trkpt lat="45.265" lon="5.07959">
        <ele>354.4</ele>
        <time>2021-05-03T11:14:10Z</time>
      </trkpt>
      <trkpt lat="45.26502" lon="5.07949">
        <ele>354.4</ele>
        <time>2021-05-03T11:14:11Z</time>
      </trkpt>
      <trkpt lat="45.26503" lon="5.0794">
        <ele>354.4</ele>
        <time>2021-05-03T11:14:12Z</time>
      </trkpt>
      <trkpt lat="45.26505" lon="5.0793">
        <ele>354.4</ele>
        <time>2021-05-03T11:14:13Z</time>
      </trkpt>
      <trkpt lat="45.26506" lon="5.07921">
        <ele>354.4</ele>
        <time>2021-05-03T11:14:14Z</time>
      </trkpt>
      <trkpt lat="45.26507" lon="5.07911">
        <ele>354.4</ele>
        <time>2021-05-03T11:14:15Z</time>
      </trkpt>
      <trkpt lat="45.26509" lon="5.07902">
        <ele>354.4</ele>
        <time>2021-05-03T11:14:16Z</time>
      </trkpt>
      <trkpt lat="45.26511" lon="5.07893">
        <ele>354.4</ele>
        <time>2021-05-03T11:14:17Z</time>
      </trkpt>
      <trkpt lat="45.26512" lon="5.07884">
        <ele>354.4</ele>
        <time>2021-05-03T11:14:18Z</time>
      </trkpt>
      <trkpt lat="45.26513" lon="5.07875">
        <ele>354.4</ele>
        <time>2021-05-03T11:14:19Z</time>
      </trkpt>
      <trkpt lat="45.26515" lon="5.07865">
        <ele>354.4</ele>
        <time>2021-05-03T11:14:20Z</time>
      </trkpt>
      <trkpt lat="45.26516" lon="5.07856">
        <ele>354.4</ele>
        <time>2021-05-03T11:14:21Z</time>
      </trkpt>
      <trkpt lat="45.26518" lon="5.07847">
        <ele>354.4</ele>
        <time>2021-05-03T11:14:22Z</time>
      </trkpt>
      <trkpt lat="45.2652" lon="5.07839">
        <ele>354.4</ele>
        <time>2021-05-03T11:14:23Z</time>
      </trkpt>
      <trkpt lat="45.26522" lon="5.0783">
        <ele>354.4</ele>
        <time>2021-05-03T11:14:24Z</time>
      </trkpt>
      <trkpt lat="45.26523" lon="5.07821">
        <ele>354.4</ele>
        <time>2021-05-03T11:14:25Z</time>
      </trkpt>
      <trkpt lat="45.26525" lon="5.07813">
        <ele>354.4</ele>
        <time>2021-05-03T11:14:26Z</time>
      </trkpt>
      <trkpt lat="45.26526" lon="5.07803">
        <ele>354.4</ele>
        <time>2021-05-03T11:14:27Z</time>
      </trkpt>
      <trkpt lat="45.26528" lon="5.07795">
        <ele>354.4</ele>
        <time>2021-05-03T11:14:28Z</time>
      </trkpt>
      <trkpt lat="45.26529" lon="5.07786">
        <ele>354.4</ele>
        <time>2021-05-03T11:14:29Z</time>
      </trkpt>
      <trkpt lat="45.26531" lon="5.07778">
        <ele>354.4</ele>
        <time>2021-05-03T11:14:30Z</time>
      </trkpt>
      <trkpt lat="45.26533" lon="5.0777">
        <ele>354.4</ele>
        <time>2021-05-03T11:14:31Z</time>
      </trkpt>
      <trkpt lat="45.26535" lon="5.07762">
        <ele>354.4</ele>
        <time>2021-05-03T11:14:32Z</time>
      </trkpt>
      <trkpt lat="45.26536" lon="5.07753">
        <ele>354.4</ele>
        <time>2021-05-03T11:14:33Z</time>
      </trkpt>
      <trkpt lat="45.26538" lon="5.07743">
        <ele>354.4</ele>
        <time>2021-05-03T11:14:34Z</time>
      </trkpt>
      <trkpt lat="45.26539" lon="5.07734">
        <ele>354.4</ele>
        <time>2021-05-03T11:14:35Z</time>
      </trkpt>
      <trkpt lat="45.26541" lon="5.07725">
        <ele>354.3</ele>
        <time>2021-05-03T11:14:36Z</time>
      </trkpt>
      <trkpt lat="45.26542" lon="5.07716">
        <ele>354.3</ele>
        <time>2021-05-03T11:14:37Z</time>
      </trkpt>
      <trkpt lat="45.26543" lon="5.07706">
        <ele>354.3</ele>
        <time>2021-05-03T11:14:38Z</time>
      </trkpt>
      <trkpt lat="45.26545" lon="5.07697">
        <ele>354.3</ele>
        <time>2021-05-03T11:14:39Z</time>
      </trkpt>
      <trkpt lat="45.26546" lon="5.07689">
        <ele>354.4</ele>
        <time>2021-05-03T11:14:40Z</time>
      </trkpt>
      <trkpt lat="45.26547" lon="5.0768">
        <ele>354.4</ele>
        <time>2021-05-03T11:14:41Z</time>
      </trkpt>
      <trkpt lat="45.26549" lon="5.0767">
        <ele>354.4</ele>
        <time>2021-05-03T11:14:42Z</time>
      </trkpt>
      <trkpt lat="45.2655" lon="5.07661">
        <ele>354.4</ele>
        <time>2021-05-03T11:14:43Z</time>
      </trkpt>
      <trkpt lat="45.26551" lon="5.07652">
        <ele>354.4</ele>
        <time>2021-05-03T11:14:44Z</time>
      </trkpt>
      <trkpt lat="45.26553" lon="5.07643">
        <ele>354.4</ele>
        <time>2021-05-03T11:14:45Z</time>
      </trkpt>
      <trkpt lat="45.26554" lon="5.07633">
        <ele>354.4</ele>
        <time>2021-05-03T11:14:46Z</time>
      </trkpt>
      <trkpt lat="45.26555" lon="5.07624">
        <ele>354.3</ele>
        <time>2021-05-03T11:14:47Z</time>
      </trkpt>
      <trkpt lat="45.26556" lon="5.07615">
        <ele>354.2</ele>
        <time>2021-05-03T11:14:48Z</time>
      </trkpt>
      <trkpt lat="45.26557" lon="5.07606">
        <ele>354.2</ele>
        <time>2021-05-03T11:14:49Z</time>
      </trkpt>
      <trkpt lat="45.26557" lon="5.07596">
        <ele>354.1</ele>
        <time>2021-05-03T11:14:50Z</time>
      </trkpt>
      <trkpt lat="45.26557" lon="5.07586">
        <ele>354</ele>
        <time>2021-05-03T11:14:51Z</time>
      </trkpt>
      <trkpt lat="45.26557" lon="5.07576">
        <ele>353.8</ele>
        <time>2021-05-03T11:14:52Z</time>
      </trkpt>
      <trkpt lat="45.26556" lon="5.07566">
        <ele>353.7</ele>
        <time>2021-05-03T11:14:53Z</time>
      </trkpt>
      <trkpt lat="45.26556" lon="5.07556">
        <ele>353.5</ele>
        <time>2021-05-03T11:14:54Z</time>
      </trkpt>
      <trkpt lat="45.26556" lon="5.07546">
        <ele>353.4</ele>
        <time>2021-05-03T11:14:55Z</time>
      </trkpt>
      <trkpt lat="45.26556" lon="5.07536">
        <ele>353.3</ele>
        <time>2021-05-03T11:14:56Z</time>
      </trkpt>
      <trkpt lat="45.26556" lon="5.07526">
        <ele>353.1</ele>
        <time>2021-05-03T11:14:57Z</time>
      </trkpt>
      <trkpt lat="45.26556" lon="5.07516">
        <ele>352.9</ele>
        <time>2021-05-03T11:14:58Z</time>
      </trkpt>
      <trkpt lat="45.26555" lon="5.07506">
        <ele>352.7</ele>
        <time>2021-05-03T11:14:59Z</time>
      </trkpt>
      <trkpt lat="45.26555" lon="5.07494">
        <ele>352.5</ele>
        <time>2021-05-03T11:15:00Z</time>
      </trkpt>
      <trkpt lat="45.26554" lon="5.07483">
        <ele>352.3</ele>
        <time>2021-05-03T11:15:01Z</time>
      </trkpt>
      <trkpt lat="45.26554" lon="5.07472">
        <ele>352.1</ele>
        <time>2021-05-03T11:15:02Z</time>
      </trkpt>
      <trkpt lat="45.26553" lon="5.0746">
        <ele>352</ele>
        <time>2021-05-03T11:15:03Z</time>
      </trkpt>
      <trkpt lat="45.26553" lon="5.07449">
        <ele>351.8</ele>
        <time>2021-05-03T11:15:04Z</time>
      </trkpt>
      <trkpt lat="45.26553" lon="5.07437">
        <ele>351.6</ele>
        <time>2021-05-03T11:15:05Z</time>
      </trkpt>
      <trkpt lat="45.26552" lon="5.07425">
        <ele>351.4</ele>
        <time>2021-05-03T11:15:06Z</time>
      </trkpt>
      <trkpt lat="45.26552" lon="5.07413">
        <ele>351.3</ele>
        <time>2021-05-03T11:15:07Z</time>
      </trkpt>
      <trkpt lat="45.26551" lon="5.07402">
        <ele>351.1</ele>
        <time>2021-05-03T11:15:08Z</time>
      </trkpt>
      <trkpt lat="45.26551" lon="5.0739">
        <ele>350.9</ele>
        <time>2021-05-03T11:15:09Z</time>
      </trkpt>
      <trkpt lat="45.2655" lon="5.07378">
        <ele>350.7</ele>
        <time>2021-05-03T11:15:10Z</time>
      </trkpt>
      <trkpt lat="45.26549" lon="5.07355">
        <ele>350.3</ele>
        <time>2021-05-03T11:15:12Z</time>
      </trkpt>
      <trkpt lat="45.26549" lon="5.07344">
        <ele>350.1</ele>
        <time>2021-05-03T11:15:13Z</time>
      </trkpt>
      <trkpt lat="45.26548" lon="5.07332">
        <ele>349.8</ele>
        <time>2021-05-03T11:15:14Z</time>
      </trkpt>
      <trkpt lat="45.26548" lon="5.07321">
        <ele>349.6</ele>
        <time>2021-05-03T11:15:15Z</time>
      </trkpt>
      <trkpt lat="45.26547" lon="5.07309">
        <ele>349.4</ele>
        <time>2021-05-03T11:15:16Z</time>
      </trkpt>
      <trkpt lat="45.26546" lon="5.07297">
        <ele>349.2</ele>
        <time>2021-05-03T11:15:17Z</time>
      </trkpt>
      <trkpt lat="45.26546" lon="5.07285">
        <ele>349</ele>
        <time>2021-05-03T11:15:18Z</time>
      </trkpt>
      <trkpt lat="45.26545" lon="5.07272">
        <ele>348.7</ele>
        <time>2021-05-03T11:15:19Z</time>
      </trkpt>
      <trkpt lat="45.26545" lon="5.07261">
        <ele>348.5</ele>
        <time>2021-05-03T11:15:20Z</time>
      </trkpt>
      <trkpt lat="45.26544" lon="5.07249">
        <ele>348.3</ele>
        <time>2021-05-03T11:15:21Z</time>
      </trkpt>
      <trkpt lat="45.26544" lon="5.07237">
        <ele>348.1</ele>
        <time>2021-05-03T11:15:22Z</time>
      </trkpt>
      <trkpt lat="45.26543" lon="5.07226">
        <ele>347.9</ele>
        <time>2021-05-03T11:15:23Z</time>
      </trkpt>
      <trkpt lat="45.26542" lon="5.07214">
        <ele>347.7</ele>
        <time>2021-05-03T11:15:24Z</time>
      </trkpt>
      <trkpt lat="45.26542" lon="5.07202">
        <ele>347.5</ele>
        <time>2021-05-03T11:15:25Z</time>
      </trkpt>
      <trkpt lat="45.26541" lon="5.0719">
        <ele>347.3</ele>
        <time>2021-05-03T11:15:26Z</time>
      </trkpt>
      <trkpt lat="45.26541" lon="5.07178">
        <ele>347.1</ele>
        <time>2021-05-03T11:15:27Z</time>
      </trkpt>
      <trkpt lat="45.26541" lon="5.07166">
        <ele>346.9</ele>
        <time>2021-05-03T11:15:28Z</time>
      </trkpt>
      <trkpt lat="45.2654" lon="5.07154">
        <ele>346.8</ele>
        <time>2021-05-03T11:15:29Z</time>
      </trkpt>
      <trkpt lat="45.2654" lon="5.07143">
        <ele>346.6</ele>
        <time>2021-05-03T11:15:30Z</time>
      </trkpt>
      <trkpt lat="45.2654" lon="5.07131">
        <ele>346.4</ele>
        <time>2021-05-03T11:15:31Z</time>
      </trkpt>
      <trkpt lat="45.2654" lon="5.07119">
        <ele>346.1</ele>
        <time>2021-05-03T11:15:32Z</time>
      </trkpt>
      <trkpt lat="45.26539" lon="5.07108">
        <ele>345.9</ele>
        <time>2021-05-03T11:15:33Z</time>
      </trkpt>
      <trkpt lat="45.26539" lon="5.07096">
        <ele>345.6</ele>
        <time>2021-05-03T11:15:34Z</time>
      </trkpt>
      <trkpt lat="45.26539" lon="5.07085">
        <ele>345.4</ele>
        <time>2021-05-03T11:15:35Z</time>
      </trkpt>
      <trkpt lat="45.26538" lon="5.07073">
        <ele>345.1</ele>
        <time>2021-05-03T11:15:36Z</time>
      </trkpt>
      <trkpt lat="45.26537" lon="5.07062">
        <ele>344.9</ele>
        <time>2021-05-03T11:15:37Z</time>
      </trkpt>
      <trkpt lat="45.26537" lon="5.07051">
        <ele>344.7</ele>
        <time>2021-05-03T11:15:38Z</time>
      </trkpt>
      <trkpt lat="45.26537" lon="5.0704">
        <ele>344.5</ele>
        <time>2021-05-03T11:15:39Z</time>
      </trkpt>
      <trkpt lat="45.26537" lon="5.07029">
        <ele>344.4</ele>
        <time>2021-05-03T11:15:40Z</time>
      </trkpt>
      <trkpt lat="45.26537" lon="5.07018">
        <ele>344.2</ele>
        <time>2021-05-03T11:15:41Z</time>
      </trkpt>
      <trkpt lat="45.26536" lon="5.07007">
        <ele>344</ele>
        <time>2021-05-03T11:15:42Z</time>
      </trkpt>
      <trkpt lat="45.26536" lon="5.06996">
        <ele>343.8</ele>
        <time>2021-05-03T11:15:43Z</time>
      </trkpt>
      <trkpt lat="45.26536" lon="5.06985">
        <ele>343.5</ele>
        <time>2021-05-03T11:15:44Z</time>
      </trkpt>
      <trkpt lat="45.26535" lon="5.06973">
        <ele>343.3</ele>
        <time>2021-05-03T11:15:45Z</time>
      </trkpt>
      <trkpt lat="45.26535" lon="5.06961">
        <ele>343.1</ele>
        <time>2021-05-03T11:15:46Z</time>
      </trkpt>
      <trkpt lat="45.26535" lon="5.0695">
        <ele>342.8</ele>
        <time>2021-05-03T11:15:47Z</time>
      </trkpt>
      <trkpt lat="45.26534" lon="5.06938">
        <ele>342.6</ele>
        <time>2021-05-03T11:15:48Z</time>
      </trkpt>
      <trkpt lat="45.26534" lon="5.06927">
        <ele>342.2</ele>
        <time>2021-05-03T11:15:49Z</time>
      </trkpt>
      <trkpt lat="45.26534" lon="5.06916">
        <ele>342</ele>
        <time>2021-05-03T11:15:50Z</time>
      </trkpt>
      <trkpt lat="45.26534" lon="5.06904">
        <ele>341.7</ele>
        <time>2021-05-03T11:15:51Z</time>
      </trkpt>
      <trkpt lat="45.26534" lon="5.06893">
        <ele>341.5</ele>
        <time>2021-05-03T11:15:52Z</time>
      </trkpt>
      <trkpt lat="45.26534" lon="5.06882">
        <ele>341.3</ele>
        <time>2021-05-03T11:15:53Z</time>
      </trkpt>
      <trkpt lat="45.26535" lon="5.06871">
        <ele>341.2</ele>
        <time>2021-05-03T11:15:54Z</time>
      </trkpt>
      <trkpt lat="45.26534" lon="5.0686">
        <ele>341</ele>
        <time>2021-05-03T11:15:55Z</time>
      </trkpt>
      <trkpt lat="45.26534" lon="5.06849">
        <ele>340.9</ele>
        <time>2021-05-03T11:15:56Z</time>
      </trkpt>
      <trkpt lat="45.26534" lon="5.06839">
        <ele>340.8</ele>
        <time>2021-05-03T11:15:57Z</time>
      </trkpt>
      <trkpt lat="45.26534" lon="5.06828">
        <ele>340.7</ele>
        <time>2021-05-03T11:15:58Z</time>
      </trkpt>
      <trkpt lat="45.26534" lon="5.06817">
        <ele>340.7</ele>
        <time>2021-05-03T11:15:59Z</time>
      </trkpt>
      <trkpt lat="45.26535" lon="5.06807">
        <ele>340.6</ele>
        <time>2021-05-03T11:16:00Z</time>
      </trkpt>
      <trkpt lat="45.26535" lon="5.06798">
        <ele>340.6</ele>
        <time>2021-05-03T11:16:01Z</time>
      </trkpt>
      <trkpt lat="45.26535" lon="5.06788">
        <ele>340.6</ele>
        <time>2021-05-03T11:16:02Z</time>
      </trkpt>
      <trkpt lat="45.26535" lon="5.06778">
        <ele>340.7</ele>
        <time>2021-05-03T11:16:03Z</time>
      </trkpt>
      <trkpt lat="45.26535" lon="5.06769">
        <ele>340.7</ele>
        <time>2021-05-03T11:16:04Z</time>
      </trkpt>
      <trkpt lat="45.26534" lon="5.0676">
        <ele>340.7</ele>
        <time>2021-05-03T11:16:05Z</time>
      </trkpt>
      <trkpt lat="45.26534" lon="5.06751">
        <ele>340.8</ele>
        <time>2021-05-03T11:16:06Z</time>
      </trkpt>
      <trkpt lat="45.26533" lon="5.06742">
        <ele>340.8</ele>
        <time>2021-05-03T11:16:07Z</time>
      </trkpt>
      <trkpt lat="45.26533" lon="5.06734">
        <ele>340.8</ele>
        <time>2021-05-03T11:16:08Z</time>
      </trkpt>
      <trkpt lat="45.26532" lon="5.06725">
        <ele>340.9</ele>
        <time>2021-05-03T11:16:09Z</time>
      </trkpt>
      <trkpt lat="45.26532" lon="5.06717">
        <ele>340.9</ele>
        <time>2021-05-03T11:16:10Z</time>
      </trkpt>
      <trkpt lat="45.26531" lon="5.06709">
        <ele>341</ele>
        <time>2021-05-03T11:16:11Z</time>
      </trkpt>
      <trkpt lat="45.2653" lon="5.06701">
        <ele>341.1</ele>
        <time>2021-05-03T11:16:12Z</time>
      </trkpt>
      <trkpt lat="45.2653" lon="5.06693">
        <ele>341.2</ele>
        <time>2021-05-03T11:16:13Z</time>
      </trkpt>
      <trkpt lat="45.26529" lon="5.06686">
        <ele>341.3</ele>
        <time>2021-05-03T11:16:14Z</time>
      </trkpt>
      <trkpt lat="45.26529" lon="5.06679">
        <ele>341.4</ele>
        <time>2021-05-03T11:16:15Z</time>
      </trkpt>
      <trkpt lat="45.26528" lon="5.06672">
        <ele>341.5</ele>
        <time>2021-05-03T11:16:16Z</time>
      </trkpt>
      <trkpt lat="45.26528" lon="5.06665">
        <ele>341.6</ele>
        <time>2021-05-03T11:16:17Z</time>
      </trkpt>
      <trkpt lat="45.26528" lon="5.0666">
        <ele>341.6</ele>
        <time>2021-05-03T11:16:18Z</time>
      </trkpt>
      <trkpt lat="45.26528" lon="5.06656">
        <ele>341.7</ele>
        <time>2021-05-03T11:16:19Z</time>
      </trkpt>
      <trkpt lat="45.26527" lon="5.0665">
        <ele>341.8</ele>
        <time>2021-05-03T11:16:20Z</time>
      </trkpt>
      <trkpt lat="45.26528" lon="5.06645">
        <ele>341.8</ele>
        <time>2021-05-03T11:16:21Z</time>
      </trkpt>
      <trkpt lat="45.26528" lon="5.06638">
        <ele>341.9</ele>
        <time>2021-05-03T11:16:22Z</time>
      </trkpt>
      <trkpt lat="45.26528" lon="5.06632">
        <ele>341.9</ele>
        <time>2021-05-03T11:16:23Z</time>
      </trkpt>
      <trkpt lat="45.26528" lon="5.06623">
        <ele>342</ele>
        <time>2021-05-03T11:16:24Z</time>
      </trkpt>
      <trkpt lat="45.26528" lon="5.06612">
        <ele>342.2</ele>
        <time>2021-05-03T11:16:26Z</time>
      </trkpt>
      <trkpt lat="45.26528" lon="5.06606">
        <ele>342.3</ele>
        <time>2021-05-03T11:16:27Z</time>
      </trkpt>
      <trkpt lat="45.26528" lon="5.06601">
        <ele>342.3</ele>
        <time>2021-05-03T11:16:28Z</time>
      </trkpt>
      <trkpt lat="45.26527" lon="5.06596">
        <ele>342.4</ele>
        <time>2021-05-03T11:16:29Z</time>
      </trkpt>
      <trkpt lat="45.26527" lon="5.06589">
        <ele>342.5</ele>
        <time>2021-05-03T11:16:30Z</time>
      </trkpt>
      <trkpt lat="45.26529" lon="5.06583">
        <ele>342.6</ele>
        <time>2021-05-03T11:16:31Z</time>
      </trkpt>
      <trkpt lat="45.26529" lon="5.06576">
        <ele>342.7</ele>
        <time>2021-05-03T11:16:32Z</time>
      </trkpt>
      <trkpt lat="45.2653" lon="5.0657">
        <ele>342.7</ele>
        <time>2021-05-03T11:16:33Z</time>
      </trkpt>
      <trkpt lat="45.26531" lon="5.06562">
        <ele>342.8</ele>
        <time>2021-05-03T11:16:34Z</time>
      </trkpt>
      <trkpt lat="45.26532" lon="5.06555">
        <ele>342.8</ele>
        <time>2021-05-03T11:16:35Z</time>
      </trkpt>
      <trkpt lat="45.26533" lon="5.06548">
        <ele>342.9</ele>
        <time>2021-05-03T11:16:36Z</time>
      </trkpt>
      <trkpt lat="45.26533" lon="5.06541">
        <ele>342.9</ele>
        <time>2021-05-03T11:16:37Z</time>
      </trkpt>
      <trkpt lat="45.26535" lon="5.06534">
        <ele>343</ele>
        <time>2021-05-03T11:16:38Z</time>
      </trkpt>
      <trkpt lat="45.26536" lon="5.06527">
        <ele>343.1</ele>
        <time>2021-05-03T11:16:39Z</time>
      </trkpt>
      <trkpt lat="45.26537" lon="5.0652">
        <ele>343.1</ele>
        <time>2021-05-03T11:16:40Z</time>
      </trkpt>
      <trkpt lat="45.26538" lon="5.06512">
        <ele>343.2</ele>
        <time>2021-05-03T11:16:41Z</time>
      </trkpt>
      <trkpt lat="45.26539" lon="5.06505">
        <ele>343.2</ele>
        <time>2021-05-03T11:16:42Z</time>
      </trkpt>
      <trkpt lat="45.2654" lon="5.06498">
        <ele>343.3</ele>
        <time>2021-05-03T11:16:43Z</time>
      </trkpt>
      <trkpt lat="45.26541" lon="5.0649">
        <ele>343.3</ele>
        <time>2021-05-03T11:16:44Z</time>
      </trkpt>
      <trkpt lat="45.26542" lon="5.06483">
        <ele>343.3</ele>
        <time>2021-05-03T11:16:45Z</time>
      </trkpt>
      <trkpt lat="45.26543" lon="5.06475">
        <ele>343.3</ele>
        <time>2021-05-03T11:16:46Z</time>
      </trkpt>
      <trkpt lat="45.26544" lon="5.06468">
        <ele>343.3</ele>
        <time>2021-05-03T11:16:47Z</time>
      </trkpt>
      <trkpt lat="45.26546" lon="5.0646">
        <ele>343.4</ele>
        <time>2021-05-03T11:16:48Z</time>
      </trkpt>
      <trkpt lat="45.26547" lon="5.06454">
        <ele>343.4</ele>
        <time>2021-05-03T11:16:49Z</time>
      </trkpt>
      <trkpt lat="45.26549" lon="5.06446">
        <ele>343.4</ele>
        <time>2021-05-03T11:16:50Z</time>
      </trkpt>
      <trkpt lat="45.26551" lon="5.0644">
        <ele>343.4</ele>
        <time>2021-05-03T11:16:51Z</time>
      </trkpt>
      <trkpt lat="45.26552" lon="5.06432">
        <ele>343.4</ele>
        <time>2021-05-03T11:16:52Z</time>
      </trkpt>
      <trkpt lat="45.26553" lon="5.06424">
        <ele>343.4</ele>
        <time>2021-05-03T11:16:53Z</time>
      </trkpt>
      <trkpt lat="45.26554" lon="5.06417">
        <ele>343.4</ele>
        <time>2021-05-03T11:16:54Z</time>
      </trkpt>
      <trkpt lat="45.26555" lon="5.0641">
        <ele>343.4</ele>
        <time>2021-05-03T11:16:55Z</time>
      </trkpt>
      <trkpt lat="45.26557" lon="5.06403">
        <ele>343.4</ele>
        <time>2021-05-03T11:16:56Z</time>
      </trkpt>
      <trkpt lat="45.26559" lon="5.06395">
        <ele>343.5</ele>
        <time>2021-05-03T11:16:57Z</time>
      </trkpt>
      <trkpt lat="45.2656" lon="5.06388">
        <ele>343.5</ele>
        <time>2021-05-03T11:16:58Z</time>
      </trkpt>
      <trkpt lat="45.26563" lon="5.06381">
        <ele>343.6</ele>
        <time>2021-05-03T11:16:59Z</time>
      </trkpt>
      <trkpt lat="45.26565" lon="5.06374">
        <ele>343.6</ele>
        <time>2021-05-03T11:17:00Z</time>
      </trkpt>
      <trkpt lat="45.26567" lon="5.06367">
        <ele>343.6</ele>
        <time>2021-05-03T11:17:01Z</time>
      </trkpt>
      <trkpt lat="45.26569" lon="5.06361">
        <ele>343.6</ele>
        <time>2021-05-03T11:17:02Z</time>
      </trkpt>
      <trkpt lat="45.26571" lon="5.06353">
        <ele>343.6</ele>
        <time>2021-05-03T11:17:03Z</time>
      </trkpt>
      <trkpt lat="45.26573" lon="5.06346">
        <ele>343.6</ele>
        <time>2021-05-03T11:17:04Z</time>
      </trkpt>
      <trkpt lat="45.26574" lon="5.06339">
        <ele>343.6</ele>
        <time>2021-05-03T11:17:05Z</time>
      </trkpt>
      <trkpt lat="45.26576" lon="5.06331">
        <ele>343.6</ele>
        <time>2021-05-03T11:17:06Z</time>
      </trkpt>
      <trkpt lat="45.26577" lon="5.06323">
        <ele>343.5</ele>
        <time>2021-05-03T11:17:07Z</time>
      </trkpt>
      <trkpt lat="45.26577" lon="5.06315">
        <ele>343.4</ele>
        <time>2021-05-03T11:17:08Z</time>
      </trkpt>
      <trkpt lat="45.26578" lon="5.06307">
        <ele>343.4</ele>
        <time>2021-05-03T11:17:09Z</time>
      </trkpt>
      <trkpt lat="45.26578" lon="5.06298">
        <ele>343.3</ele>
        <time>2021-05-03T11:17:10Z</time>
      </trkpt>
      <trkpt lat="45.26579" lon="5.0629">
        <ele>343.3</ele>
        <time>2021-05-03T11:17:11Z</time>
      </trkpt>
      <trkpt lat="45.26579" lon="5.06281">
        <ele>343.1</ele>
        <time>2021-05-03T11:17:12Z</time>
      </trkpt>
      <trkpt lat="45.26579" lon="5.06273">
        <ele>342.9</ele>
        <time>2021-05-03T11:17:13Z</time>
      </trkpt>
      <trkpt lat="45.26578" lon="5.06264">
        <ele>342.8</ele>
        <time>2021-05-03T11:17:14Z</time>
      </trkpt>
      <trkpt lat="45.26578" lon="5.06254">
        <ele>342.6</ele>
        <time>2021-05-03T11:17:15Z</time>
      </trkpt>
      <trkpt lat="45.26577" lon="5.06245">
        <ele>342.4</ele>
        <time>2021-05-03T11:17:16Z</time>
      </trkpt>
      <trkpt lat="45.26575" lon="5.06235">
        <ele>342.2</ele>
        <time>2021-05-03T11:17:17Z</time>
      </trkpt>
      <trkpt lat="45.26573" lon="5.06225">
        <ele>342</ele>
        <time>2021-05-03T11:17:18Z</time>
      </trkpt>
      <trkpt lat="45.2657" lon="5.06215">
        <ele>341.7</ele>
        <time>2021-05-03T11:17:19Z</time>
      </trkpt>
      <trkpt lat="45.26567" lon="5.06205">
        <ele>341.5</ele>
        <time>2021-05-03T11:17:20Z</time>
      </trkpt>
      <trkpt lat="45.26565" lon="5.06196">
        <ele>341.2</ele>
        <time>2021-05-03T11:17:21Z</time>
      </trkpt>
      <trkpt lat="45.26562" lon="5.06186">
        <ele>341</ele>
        <time>2021-05-03T11:17:22Z</time>
      </trkpt>
      <trkpt lat="45.26561" lon="5.06175">
        <ele>340.7</ele>
        <time>2021-05-03T11:17:23Z</time>
      </trkpt>
      <trkpt lat="45.26559" lon="5.06165">
        <ele>340.4</ele>
        <time>2021-05-03T11:17:24Z</time>
      </trkpt>
      <trkpt lat="45.26558" lon="5.06154">
        <ele>340.2</ele>
        <time>2021-05-03T11:17:25Z</time>
      </trkpt>
      <trkpt lat="45.26557" lon="5.06143">
        <ele>339.9</ele>
        <time>2021-05-03T11:17:26Z</time>
      </trkpt>
      <trkpt lat="45.26555" lon="5.06132">
        <ele>339.7</ele>
        <time>2021-05-03T11:17:27Z</time>
      </trkpt>
      <trkpt lat="45.26553" lon="5.0612">
        <ele>339.4</ele>
        <time>2021-05-03T11:17:28Z</time>
      </trkpt>
      <trkpt lat="45.26551" lon="5.06109">
        <ele>339.1</ele>
        <time>2021-05-03T11:17:29Z</time>
      </trkpt>
      <trkpt lat="45.26549" lon="5.06097">
        <ele>338.9</ele>
        <time>2021-05-03T11:17:30Z</time>
      </trkpt>
      <trkpt lat="45.26547" lon="5.06086">
        <ele>338.6</ele>
        <time>2021-05-03T11:17:31Z</time>
      </trkpt>
      <trkpt lat="45.26545" lon="5.06075">
        <ele>338.3</ele>
        <time>2021-05-03T11:17:32Z</time>
      </trkpt>
      <trkpt lat="45.26544" lon="5.06064">
        <ele>338.1</ele>
        <time>2021-05-03T11:17:33Z</time>
      </trkpt>
      <trkpt lat="45.26543" lon="5.06053">
        <ele>337.8</ele>
        <time>2021-05-03T11:17:34Z</time>
      </trkpt>
      <trkpt lat="45.26541" lon="5.06042">
        <ele>337.6</ele>
        <time>2021-05-03T11:17:35Z</time>
      </trkpt>
      <trkpt lat="45.2654" lon="5.06032">
        <ele>337.4</ele>
        <time>2021-05-03T11:17:36Z</time>
      </trkpt>
      <trkpt lat="45.26539" lon="5.06021">
        <ele>337.1</ele>
        <time>2021-05-03T11:17:37Z</time>
      </trkpt>
      <trkpt lat="45.26538" lon="5.06011">
        <ele>336.9</ele>
        <time>2021-05-03T11:17:38Z</time>
      </trkpt>
      <trkpt lat="45.26536" lon="5.06">
        <ele>336.7</ele>
        <time>2021-05-03T11:17:39Z</time>
      </trkpt>
      <trkpt lat="45.26534" lon="5.0599">
        <ele>336.5</ele>
        <time>2021-05-03T11:17:40Z</time>
      </trkpt>
      <trkpt lat="45.26533" lon="5.05979">
        <ele>336.4</ele>
        <time>2021-05-03T11:17:41Z</time>
      </trkpt>
      <trkpt lat="45.26531" lon="5.05969">
        <ele>336.2</ele>
        <time>2021-05-03T11:17:42Z</time>
      </trkpt>
      <trkpt lat="45.26529" lon="5.05958">
        <ele>336</ele>
        <time>2021-05-03T11:17:43Z</time>
      </trkpt>
      <trkpt lat="45.26528" lon="5.05947">
        <ele>335.8</ele>
        <time>2021-05-03T11:17:44Z</time>
      </trkpt>
      <trkpt lat="45.26526" lon="5.05936">
        <ele>335.6</ele>
        <time>2021-05-03T11:17:45Z</time>
      </trkpt>
      <trkpt lat="45.26524" lon="5.05925">
        <ele>335.5</ele>
        <time>2021-05-03T11:17:46Z</time>
      </trkpt>
      <trkpt lat="45.26522" lon="5.05914">
        <ele>335.3</ele>
        <time>2021-05-03T11:17:47Z</time>
      </trkpt>
      <trkpt lat="45.26521" lon="5.05903">
        <ele>335.2</ele>
        <time>2021-05-03T11:17:48Z</time>
      </trkpt>
      <trkpt lat="45.26519" lon="5.05892">
        <ele>335.1</ele>
        <time>2021-05-03T11:17:49Z</time>
      </trkpt>
      <trkpt lat="45.26518" lon="5.05881">
        <ele>335</ele>
        <time>2021-05-03T11:17:50Z</time>
      </trkpt>
      <trkpt lat="45.26516" lon="5.05871">
        <ele>334.9</ele>
        <time>2021-05-03T11:17:51Z</time>
      </trkpt>
      <trkpt lat="45.26514" lon="5.05861">
        <ele>334.8</ele>
        <time>2021-05-03T11:17:52Z</time>
      </trkpt>
      <trkpt lat="45.26513" lon="5.0585">
        <ele>334.8</ele>
        <time>2021-05-03T11:17:53Z</time>
      </trkpt>
      <trkpt lat="45.26512" lon="5.0584">
        <ele>334.8</ele>
        <time>2021-05-03T11:17:54Z</time>
      </trkpt>
      <trkpt lat="45.2651" lon="5.0583">
        <ele>334.7</ele>
        <time>2021-05-03T11:17:55Z</time>
      </trkpt>
      <trkpt lat="45.26509" lon="5.05821">
        <ele>334.7</ele>
        <time>2021-05-03T11:17:56Z</time>
      </trkpt>
      <trkpt lat="45.26508" lon="5.05811">
        <ele>334.7</ele>
        <time>2021-05-03T11:17:57Z</time>
      </trkpt>
      <trkpt lat="45.26506" lon="5.05801">
        <ele>334.6</ele>
        <time>2021-05-03T11:17:58Z</time>
      </trkpt>
      <trkpt lat="45.26505" lon="5.05792">
        <ele>334.6</ele>
        <time>2021-05-03T11:17:59Z</time>
      </trkpt>
      <trkpt lat="45.26504" lon="5.05782">
        <ele>334.5</ele>
        <time>2021-05-03T11:18:00Z</time>
      </trkpt>
      <trkpt lat="45.26502" lon="5.05773">
        <ele>334.5</ele>
        <time>2021-05-03T11:18:01Z</time>
      </trkpt>
      <trkpt lat="45.26501" lon="5.05763">
        <ele>334.4</ele>
        <time>2021-05-03T11:18:02Z</time>
      </trkpt>
      <trkpt lat="45.265" lon="5.05753">
        <ele>334.4</ele>
        <time>2021-05-03T11:18:03Z</time>
      </trkpt>
      <trkpt lat="45.26499" lon="5.05744">
        <ele>334.4</ele>
        <time>2021-05-03T11:18:04Z</time>
      </trkpt>
      <trkpt lat="45.26498" lon="5.05734">
        <ele>334.4</ele>
        <time>2021-05-03T11:18:05Z</time>
      </trkpt>
      <trkpt lat="45.26496" lon="5.05724">
        <ele>334.4</ele>
        <time>2021-05-03T11:18:06Z</time>
      </trkpt>
      <trkpt lat="45.26495" lon="5.05715">
        <ele>334.4</ele>
        <time>2021-05-03T11:18:07Z</time>
      </trkpt>
      <trkpt lat="45.26495" lon="5.05705">
        <ele>334.4</ele>
        <time>2021-05-03T11:18:08Z</time>
      </trkpt>
      <trkpt lat="45.26495" lon="5.05696">
        <ele>334.4</ele>
        <time>2021-05-03T11:18:09Z</time>
      </trkpt>
      <trkpt lat="45.26494" lon="5.05686">
        <ele>334.5</ele>
        <time>2021-05-03T11:18:10Z</time>
      </trkpt>
      <trkpt lat="45.26495" lon="5.05677">
        <ele>334.5</ele>
        <time>2021-05-03T11:18:11Z</time>
      </trkpt>
      <trkpt lat="45.26495" lon="5.05668">
        <ele>334.5</ele>
        <time>2021-05-03T11:18:12Z</time>
      </trkpt>
      <trkpt lat="45.26495" lon="5.05659">
        <ele>334.6</ele>
        <time>2021-05-03T11:18:13Z</time>
      </trkpt>
      <trkpt lat="45.26496" lon="5.05649">
        <ele>334.6</ele>
        <time>2021-05-03T11:18:14Z</time>
      </trkpt>
      <trkpt lat="45.26496" lon="5.0564">
        <ele>334.7</ele>
        <time>2021-05-03T11:18:15Z</time>
      </trkpt>
      <trkpt lat="45.26496" lon="5.05631">
        <ele>334.7</ele>
        <time>2021-05-03T11:18:16Z</time>
      </trkpt>
      <trkpt lat="45.26496" lon="5.05622">
        <ele>334.8</ele>
        <time>2021-05-03T11:18:17Z</time>
      </trkpt>
      <trkpt lat="45.26497" lon="5.05613">
        <ele>334.7</ele>
        <time>2021-05-03T11:18:18Z</time>
      </trkpt>
      <trkpt lat="45.26497" lon="5.05605">
        <ele>334.6</ele>
        <time>2021-05-03T11:18:19Z</time>
      </trkpt>
      <trkpt lat="45.26497" lon="5.05596">
        <ele>334.5</ele>
        <time>2021-05-03T11:18:20Z</time>
      </trkpt>
      <trkpt lat="45.26497" lon="5.05587">
        <ele>334.3</ele>
        <time>2021-05-03T11:18:21Z</time>
      </trkpt>
      <trkpt lat="45.26497" lon="5.05579">
        <ele>334.2</ele>
        <time>2021-05-03T11:18:22Z</time>
      </trkpt>
      <trkpt lat="45.26497" lon="5.05569">
        <ele>334</ele>
        <time>2021-05-03T11:18:23Z</time>
      </trkpt>
      <trkpt lat="45.26497" lon="5.0556">
        <ele>333.9</ele>
        <time>2021-05-03T11:18:24Z</time>
      </trkpt>
      <trkpt lat="45.26497" lon="5.0555">
        <ele>333.7</ele>
        <time>2021-05-03T11:18:25Z</time>
      </trkpt>
      <trkpt lat="45.26497" lon="5.0554">
        <ele>333.5</ele>
        <time>2021-05-03T11:18:26Z</time>
      </trkpt>
      <trkpt lat="45.26497" lon="5.05529">
        <ele>333.3</ele>
        <time>2021-05-03T11:18:27Z</time>
      </trkpt>
      <trkpt lat="45.26497" lon="5.05518">
        <ele>333.1</ele>
        <time>2021-05-03T11:18:28Z</time>
      </trkpt>
      <trkpt lat="45.26497" lon="5.05507">
        <ele>332.9</ele>
        <time>2021-05-03T11:18:29Z</time>
      </trkpt>
      <trkpt lat="45.26497" lon="5.05496">
        <ele>332.6</ele>
        <time>2021-05-03T11:18:30Z</time>
      </trkpt>
      <trkpt lat="45.26496" lon="5.05484">
        <ele>332.4</ele>
        <time>2021-05-03T11:18:31Z</time>
      </trkpt>
      <trkpt lat="45.26494" lon="5.05473">
        <ele>332.1</ele>
        <time>2021-05-03T11:18:32Z</time>
      </trkpt>
      <trkpt lat="45.26492" lon="5.05461">
        <ele>331.9</ele>
        <time>2021-05-03T11:18:33Z</time>
      </trkpt>
      <trkpt lat="45.26491" lon="5.0545">
        <ele>331.7</ele>
        <time>2021-05-03T11:18:34Z</time>
      </trkpt>
      <trkpt lat="45.26489" lon="5.05438">
        <ele>331.4</ele>
        <time>2021-05-03T11:18:35Z</time>
      </trkpt>
      <trkpt lat="45.26487" lon="5.05426">
        <ele>331.2</ele>
        <time>2021-05-03T11:18:36Z</time>
      </trkpt>
      <trkpt lat="45.26486" lon="5.05414">
        <ele>331</ele>
        <time>2021-05-03T11:18:37Z</time>
      </trkpt>
      <trkpt lat="45.26484" lon="5.05402">
        <ele>330.8</ele>
        <time>2021-05-03T11:18:38Z</time>
      </trkpt>
      <trkpt lat="45.26482" lon="5.0539">
        <ele>330.6</ele>
        <time>2021-05-03T11:18:39Z</time>
      </trkpt>
      <trkpt lat="45.2648" lon="5.05379">
        <ele>330.5</ele>
        <time>2021-05-03T11:18:40Z</time>
      </trkpt>
      <trkpt lat="45.26478" lon="5.05367">
        <ele>330.3</ele>
        <time>2021-05-03T11:18:41Z</time>
      </trkpt>
      <trkpt lat="45.26477" lon="5.05355">
        <ele>330.2</ele>
        <time>2021-05-03T11:18:42Z</time>
      </trkpt>
      <trkpt lat="45.26476" lon="5.05343">
        <ele>330</ele>
        <time>2021-05-03T11:18:43Z</time>
      </trkpt>
      <trkpt lat="45.26474" lon="5.05331">
        <ele>329.8</ele>
        <time>2021-05-03T11:18:44Z</time>
      </trkpt>
      <trkpt lat="45.26472" lon="5.05319">
        <ele>329.6</ele>
        <time>2021-05-03T11:18:45Z</time>
      </trkpt>
      <trkpt lat="45.26471" lon="5.05308">
        <ele>329.4</ele>
        <time>2021-05-03T11:18:46Z</time>
      </trkpt>
      <trkpt lat="45.26469" lon="5.05296">
        <ele>329.2</ele>
        <time>2021-05-03T11:18:47Z</time>
      </trkpt>
      <trkpt lat="45.26467" lon="5.05284">
        <ele>329</ele>
        <time>2021-05-03T11:18:48Z</time>
      </trkpt>
      <trkpt lat="45.26465" lon="5.05272">
        <ele>328.9</ele>
        <time>2021-05-03T11:18:49Z</time>
      </trkpt>
      <trkpt lat="45.26463" lon="5.0526">
        <ele>328.7</ele>
        <time>2021-05-03T11:18:50Z</time>
      </trkpt>
      <trkpt lat="45.26462" lon="5.05248">
        <ele>328.6</ele>
        <time>2021-05-03T11:18:51Z</time>
      </trkpt>
      <trkpt lat="45.2646" lon="5.05237">
        <ele>328.4</ele>
        <time>2021-05-03T11:18:52Z</time>
      </trkpt>
      <trkpt lat="45.26458" lon="5.05225">
        <ele>328.3</ele>
        <time>2021-05-03T11:18:53Z</time>
      </trkpt>
      <trkpt lat="45.26457" lon="5.05214">
        <ele>328.2</ele>
        <time>2021-05-03T11:18:54Z</time>
      </trkpt>
      <trkpt lat="45.26455" lon="5.05203">
        <ele>328.1</ele>
        <time>2021-05-03T11:18:55Z</time>
      </trkpt>
      <trkpt lat="45.26454" lon="5.05192">
        <ele>328</ele>
        <time>2021-05-03T11:18:56Z</time>
      </trkpt>
      <trkpt lat="45.26452" lon="5.0518">
        <ele>327.9</ele>
        <time>2021-05-03T11:18:57Z</time>
      </trkpt>
      <trkpt lat="45.2645" lon="5.05169">
        <ele>327.8</ele>
        <time>2021-05-03T11:18:58Z</time>
      </trkpt>
      <trkpt lat="45.26448" lon="5.05157">
        <ele>327.7</ele>
        <time>2021-05-03T11:18:59Z</time>
      </trkpt>
      <trkpt lat="45.26446" lon="5.05146">
        <ele>327.6</ele>
        <time>2021-05-03T11:19:00Z</time>
      </trkpt>
      <trkpt lat="45.26444" lon="5.05135">
        <ele>327.5</ele>
        <time>2021-05-03T11:19:01Z</time>
      </trkpt>
      <trkpt lat="45.26443" lon="5.05124">
        <ele>327.4</ele>
        <time>2021-05-03T11:19:02Z</time>
      </trkpt>
      <trkpt lat="45.26441" lon="5.05113">
        <ele>327.3</ele>
        <time>2021-05-03T11:19:03Z</time>
      </trkpt>
      <trkpt lat="45.2644" lon="5.05102">
        <ele>327.2</ele>
        <time>2021-05-03T11:19:04Z</time>
      </trkpt>
      <trkpt lat="45.26438" lon="5.05092">
        <ele>327.2</ele>
        <time>2021-05-03T11:19:05Z</time>
      </trkpt>
      <trkpt lat="45.26437" lon="5.05081">
        <ele>327.1</ele>
        <time>2021-05-03T11:19:06Z</time>
      </trkpt>
      <trkpt lat="45.26436" lon="5.05071">
        <ele>327</ele>
        <time>2021-05-03T11:19:07Z</time>
      </trkpt>
      <trkpt lat="45.26434" lon="5.05061">
        <ele>327</ele>
        <time>2021-05-03T11:19:08Z</time>
      </trkpt>
      <trkpt lat="45.26431" lon="5.05051">
        <ele>326.9</ele>
        <time>2021-05-03T11:19:09Z</time>
      </trkpt>
      <trkpt lat="45.26429" lon="5.05041">
        <ele>326.8</ele>
        <time>2021-05-03T11:19:10Z</time>
      </trkpt>
      <trkpt lat="45.26427" lon="5.05031">
        <ele>326.7</ele>
        <time>2021-05-03T11:19:11Z</time>
      </trkpt>
      <trkpt lat="45.26424" lon="5.0502">
        <ele>326.7</ele>
        <time>2021-05-03T11:19:12Z</time>
      </trkpt>
      <trkpt lat="45.26422" lon="5.0501">
        <ele>326.6</ele>
        <time>2021-05-03T11:19:13Z</time>
      </trkpt>
      <trkpt lat="45.2642" lon="5.05001">
        <ele>326.6</ele>
        <time>2021-05-03T11:19:14Z</time>
      </trkpt>
      <trkpt lat="45.26418" lon="5.04992">
        <ele>326.5</ele>
        <time>2021-05-03T11:19:15Z</time>
      </trkpt>
      <trkpt lat="45.26416" lon="5.04982">
        <ele>326.4</ele>
        <time>2021-05-03T11:19:16Z</time>
      </trkpt>
      <trkpt lat="45.26414" lon="5.04973">
        <ele>326.3</ele>
        <time>2021-05-03T11:19:17Z</time>
      </trkpt>
      <trkpt lat="45.26412" lon="5.04964">
        <ele>326.3</ele>
        <time>2021-05-03T11:19:18Z</time>
      </trkpt>
      <trkpt lat="45.26409" lon="5.04954">
        <ele>326.1</ele>
        <time>2021-05-03T11:19:19Z</time>
      </trkpt>
      <trkpt lat="45.26407" lon="5.04944">
        <ele>325.9</ele>
        <time>2021-05-03T11:19:20Z</time>
      </trkpt>
      <trkpt lat="45.26404" lon="5.04934">
        <ele>325.7</ele>
        <time>2021-05-03T11:19:21Z</time>
      </trkpt>
      <trkpt lat="45.26402" lon="5.04924">
        <ele>325.5</ele>
        <time>2021-05-03T11:19:22Z</time>
      </trkpt>
      <trkpt lat="45.26399" lon="5.04913">
        <ele>325.2</ele>
        <time>2021-05-03T11:19:23Z</time>
      </trkpt>
      <trkpt lat="45.26396" lon="5.04903">
        <ele>325</ele>
        <time>2021-05-03T11:19:24Z</time>
      </trkpt>
      <trkpt lat="45.26394" lon="5.04892">
        <ele>324.7</ele>
        <time>2021-05-03T11:19:25Z</time>
      </trkpt>
      <trkpt lat="45.26391" lon="5.0488">
        <ele>324.5</ele>
        <time>2021-05-03T11:19:26Z</time>
      </trkpt>
      <trkpt lat="45.26388" lon="5.04869">
        <ele>324.2</ele>
        <time>2021-05-03T11:19:27Z</time>
      </trkpt>
      <trkpt lat="45.26385" lon="5.04858">
        <ele>324</ele>
        <time>2021-05-03T11:19:28Z</time>
      </trkpt>
      <trkpt lat="45.26383" lon="5.04847">
        <ele>323.7</ele>
        <time>2021-05-03T11:19:29Z</time>
      </trkpt>
      <trkpt lat="45.26379" lon="5.04837">
        <ele>323.5</ele>
        <time>2021-05-03T11:19:30Z</time>
      </trkpt>
      <trkpt lat="45.26377" lon="5.04826">
        <ele>323.2</ele>
        <time>2021-05-03T11:19:31Z</time>
      </trkpt>
      <trkpt lat="45.26374" lon="5.04815">
        <ele>323</ele>
        <time>2021-05-03T11:19:32Z</time>
      </trkpt>
      <trkpt lat="45.26371" lon="5.04804">
        <ele>322.8</ele>
        <time>2021-05-03T11:19:33Z</time>
      </trkpt>
      <trkpt lat="45.26368" lon="5.04793">
        <ele>322.7</ele>
        <time>2021-05-03T11:19:34Z</time>
      </trkpt>
      <trkpt lat="45.26365" lon="5.04782">
        <ele>322.5</ele>
        <time>2021-05-03T11:19:35Z</time>
      </trkpt>
      <trkpt lat="45.26362" lon="5.04771">
        <ele>322.3</ele>
        <time>2021-05-03T11:19:36Z</time>
      </trkpt>
      <trkpt lat="45.2636" lon="5.0476">
        <ele>322.1</ele>
        <time>2021-05-03T11:19:37Z</time>
      </trkpt>
      <trkpt lat="45.26358" lon="5.04749">
        <ele>322</ele>
        <time>2021-05-03T11:19:38Z</time>
      </trkpt>
      <trkpt lat="45.26357" lon="5.04738">
        <ele>321.9</ele>
        <time>2021-05-03T11:19:39Z</time>
      </trkpt>
      <trkpt lat="45.26355" lon="5.04727">
        <ele>321.7</ele>
        <time>2021-05-03T11:19:40Z</time>
      </trkpt>
      <trkpt lat="45.26354" lon="5.04717">
        <ele>321.6</ele>
        <time>2021-05-03T11:19:41Z</time>
      </trkpt>
      <trkpt lat="45.26352" lon="5.04706">
        <ele>321.6</ele>
        <time>2021-05-03T11:19:42Z</time>
      </trkpt>
      <trkpt lat="45.26351" lon="5.04695">
        <ele>321.5</ele>
        <time>2021-05-03T11:19:43Z</time>
      </trkpt>
      <trkpt lat="45.26349" lon="5.04685">
        <ele>321.4</ele>
        <time>2021-05-03T11:19:44Z</time>
      </trkpt>
      <trkpt lat="45.26348" lon="5.04674">
        <ele>321.3</ele>
        <time>2021-05-03T11:19:45Z</time>
      </trkpt>
      <trkpt lat="45.26346" lon="5.04664">
        <ele>321.3</ele>
        <time>2021-05-03T11:19:46Z</time>
      </trkpt>
      <trkpt lat="45.26344" lon="5.04654">
        <ele>321.2</ele>
        <time>2021-05-03T11:19:47Z</time>
      </trkpt>
      <trkpt lat="45.26342" lon="5.04643">
        <ele>321.2</ele>
        <time>2021-05-03T11:19:48Z</time>
      </trkpt>
      <trkpt lat="45.2634" lon="5.04633">
        <ele>321.1</ele>
        <time>2021-05-03T11:19:49Z</time>
      </trkpt>
      <trkpt lat="45.26338" lon="5.04623">
        <ele>321.1</ele>
        <time>2021-05-03T11:19:50Z</time>
      </trkpt>
      <trkpt lat="45.26335" lon="5.04613">
        <ele>321</ele>
        <time>2021-05-03T11:19:51Z</time>
      </trkpt>
      <trkpt lat="45.26333" lon="5.04604">
        <ele>321</ele>
        <time>2021-05-03T11:19:52Z</time>
      </trkpt>
      <trkpt lat="45.26331" lon="5.04595">
        <ele>320.9</ele>
        <time>2021-05-03T11:19:53Z</time>
      </trkpt>
      <trkpt lat="45.26329" lon="5.04586">
        <ele>320.9</ele>
        <time>2021-05-03T11:19:54Z</time>
      </trkpt>
      <trkpt lat="45.26328" lon="5.04577">
        <ele>320.9</ele>
        <time>2021-05-03T11:19:55Z</time>
      </trkpt>
      <trkpt lat="45.26326" lon="5.04568">
        <ele>320.9</ele>
        <time>2021-05-03T11:19:56Z</time>
      </trkpt>
      <trkpt lat="45.26325" lon="5.04558">
        <ele>320.9</ele>
        <time>2021-05-03T11:19:57Z</time>
      </trkpt>
      <trkpt lat="45.26322" lon="5.04549">
        <ele>320.9</ele>
        <time>2021-05-03T11:19:58Z</time>
      </trkpt>
      <trkpt lat="45.2632" lon="5.0454">
        <ele>320.9</ele>
        <time>2021-05-03T11:19:59Z</time>
      </trkpt>
      <trkpt lat="45.26318" lon="5.04531">
        <ele>320.9</ele>
        <time>2021-05-03T11:20:00Z</time>
      </trkpt>
      <trkpt lat="45.26315" lon="5.04522">
        <ele>320.9</ele>
        <time>2021-05-03T11:20:01Z</time>
      </trkpt>
      <trkpt lat="45.26313" lon="5.04513">
        <ele>320.9</ele>
        <time>2021-05-03T11:20:02Z</time>
      </trkpt>
      <trkpt lat="45.2631" lon="5.04504">
        <ele>320.9</ele>
        <time>2021-05-03T11:20:03Z</time>
      </trkpt>
      <trkpt lat="45.26308" lon="5.04496">
        <ele>320.9</ele>
        <time>2021-05-03T11:20:04Z</time>
      </trkpt>
      <trkpt lat="45.26306" lon="5.04489">
        <ele>320.9</ele>
        <time>2021-05-03T11:20:05Z</time>
      </trkpt>
      <trkpt lat="45.26303" lon="5.04481">
        <ele>320.8</ele>
        <time>2021-05-03T11:20:06Z</time>
      </trkpt>
      <trkpt lat="45.26301" lon="5.04473">
        <ele>320.7</ele>
        <time>2021-05-03T11:20:07Z</time>
      </trkpt>
      <trkpt lat="45.26298" lon="5.04464">
        <ele>320.7</ele>
        <time>2021-05-03T11:20:08Z</time>
      </trkpt>
      <trkpt lat="45.26295" lon="5.04454">
        <ele>320.6</ele>
        <time>2021-05-03T11:20:09Z</time>
      </trkpt>
      <trkpt lat="45.2629" lon="5.04444">
        <ele>320.5</ele>
        <time>2021-05-03T11:20:10Z</time>
      </trkpt>
      <trkpt lat="45.26287" lon="5.04435">
        <ele>320.4</ele>
        <time>2021-05-03T11:20:11Z</time>
      </trkpt>
      <trkpt lat="45.26285" lon="5.04425">
        <ele>320.4</ele>
        <time>2021-05-03T11:20:12Z</time>
      </trkpt>
      <trkpt lat="45.26282" lon="5.04415">
        <ele>320.3</ele>
        <time>2021-05-03T11:20:13Z</time>
      </trkpt>
      <trkpt lat="45.26279" lon="5.04406">
        <ele>320.3</ele>
        <time>2021-05-03T11:20:14Z</time>
      </trkpt>
      <trkpt lat="45.26277" lon="5.04397">
        <ele>320.2</ele>
        <time>2021-05-03T11:20:15Z</time>
      </trkpt>
      <trkpt lat="45.26275" lon="5.04387">
        <ele>320.2</ele>
        <time>2021-05-03T11:20:16Z</time>
      </trkpt>
      <trkpt lat="45.26273" lon="5.04378">
        <ele>320.2</ele>
        <time>2021-05-03T11:20:17Z</time>
      </trkpt>
      <trkpt lat="45.26271" lon="5.04368">
        <ele>320.1</ele>
        <time>2021-05-03T11:20:18Z</time>
      </trkpt>
      <trkpt lat="45.2627" lon="5.04359">
        <ele>320.1</ele>
        <time>2021-05-03T11:20:19Z</time>
      </trkpt>
      <trkpt lat="45.26268" lon="5.0435">
        <ele>320.1</ele>
        <time>2021-05-03T11:20:20Z</time>
      </trkpt>
      <trkpt lat="45.26266" lon="5.0434">
        <ele>320.1</ele>
        <time>2021-05-03T11:20:21Z</time>
      </trkpt>
      <trkpt lat="45.26264" lon="5.04331">
        <ele>320</ele>
        <time>2021-05-03T11:20:22Z</time>
      </trkpt>
      <trkpt lat="45.26262" lon="5.04322">
        <ele>320</ele>
        <time>2021-05-03T11:20:23Z</time>
      </trkpt>
      <trkpt lat="45.26261" lon="5.04313">
        <ele>320</ele>
        <time>2021-05-03T11:20:24Z</time>
      </trkpt>
      <trkpt lat="45.26259" lon="5.04304">
        <ele>319.9</ele>
        <time>2021-05-03T11:20:25Z</time>
      </trkpt>
      <trkpt lat="45.26257" lon="5.04295">
        <ele>319.9</ele>
        <time>2021-05-03T11:20:26Z</time>
      </trkpt>
      <trkpt lat="45.26255" lon="5.04287">
        <ele>319.9</ele>
        <time>2021-05-03T11:20:27Z</time>
      </trkpt>
      <trkpt lat="45.26253" lon="5.04279">
        <ele>319.9</ele>
        <time>2021-05-03T11:20:28Z</time>
      </trkpt>
      <trkpt lat="45.26252" lon="5.0427">
        <ele>319.8</ele>
        <time>2021-05-03T11:20:29Z</time>
      </trkpt>
      <trkpt lat="45.2625" lon="5.04262">
        <ele>319.8</ele>
        <time>2021-05-03T11:20:30Z</time>
      </trkpt>
      <trkpt lat="45.26248" lon="5.04253">
        <ele>319.7</ele>
        <time>2021-05-03T11:20:31Z</time>
      </trkpt>
      <trkpt lat="45.26246" lon="5.04244">
        <ele>319.7</ele>
        <time>2021-05-03T11:20:32Z</time>
      </trkpt>
      <trkpt lat="45.26244" lon="5.04235">
        <ele>319.6</ele>
        <time>2021-05-03T11:20:33Z</time>
      </trkpt>
      <trkpt lat="45.26243" lon="5.04226">
        <ele>319.6</ele>
        <time>2021-05-03T11:20:34Z</time>
      </trkpt>
      <trkpt lat="45.26241" lon="5.04217">
        <ele>319.5</ele>
        <time>2021-05-03T11:20:35Z</time>
      </trkpt>
      <trkpt lat="45.26239" lon="5.04208">
        <ele>319.4</ele>
        <time>2021-05-03T11:20:36Z</time>
      </trkpt>
      <trkpt lat="45.26236" lon="5.04198">
        <ele>319.3</ele>
        <time>2021-05-03T11:20:37Z</time>
      </trkpt>
      <trkpt lat="45.26234" lon="5.04189">
        <ele>319.3</ele>
        <time>2021-05-03T11:20:38Z</time>
      </trkpt>
      <trkpt lat="45.26231" lon="5.0418">
        <ele>319.1</ele>
        <time>2021-05-03T11:20:39Z</time>
      </trkpt>
      <trkpt lat="45.26229" lon="5.04171">
        <ele>319</ele>
        <time>2021-05-03T11:20:40Z</time>
      </trkpt>
      <trkpt lat="45.26228" lon="5.04162">
        <ele>318.9</ele>
        <time>2021-05-03T11:20:41Z</time>
      </trkpt>
      <trkpt lat="45.26226" lon="5.04153">
        <ele>318.8</ele>
        <time>2021-05-03T11:20:42Z</time>
      </trkpt>
      <trkpt lat="45.26224" lon="5.04143">
        <ele>318.6</ele>
        <time>2021-05-03T11:20:43Z</time>
      </trkpt>
      <trkpt lat="45.26222" lon="5.04133">
        <ele>318.4</ele>
        <time>2021-05-03T11:20:44Z</time>
      </trkpt>
      <trkpt lat="45.2622" lon="5.04123">
        <ele>318.3</ele>
        <time>2021-05-03T11:20:45Z</time>
      </trkpt>
      <trkpt lat="45.26217" lon="5.04113">
        <ele>318.1</ele>
        <time>2021-05-03T11:20:46Z</time>
      </trkpt>
      <trkpt lat="45.26215" lon="5.04103">
        <ele>317.9</ele>
        <time>2021-05-03T11:20:47Z</time>
      </trkpt>
      <trkpt lat="45.26213" lon="5.04092">
        <ele>317.8</ele>
        <time>2021-05-03T11:20:48Z</time>
      </trkpt>
      <trkpt lat="45.2621" lon="5.04081">
        <ele>317.6</ele>
        <time>2021-05-03T11:20:49Z</time>
      </trkpt>
      <trkpt lat="45.26207" lon="5.04072">
        <ele>317.5</ele>
        <time>2021-05-03T11:20:50Z</time>
      </trkpt>
      <trkpt lat="45.26204" lon="5.04061">
        <ele>317.3</ele>
        <time>2021-05-03T11:20:51Z</time>
      </trkpt>
      <trkpt lat="45.26201" lon="5.04051">
        <ele>317.1</ele>
        <time>2021-05-03T11:20:52Z</time>
      </trkpt>
      <trkpt lat="45.26198" lon="5.04041">
        <ele>316.9</ele>
        <time>2021-05-03T11:20:53Z</time>
      </trkpt>
      <trkpt lat="45.26195" lon="5.0403">
        <ele>316.8</ele>
        <time>2021-05-03T11:20:54Z</time>
      </trkpt>
      <trkpt lat="45.26191" lon="5.0402">
        <ele>316.6</ele>
        <time>2021-05-03T11:20:55Z</time>
      </trkpt>
      <trkpt lat="45.26186" lon="5.04011">
        <ele>316.5</ele>
        <time>2021-05-03T11:20:56Z</time>
      </trkpt>
      <trkpt lat="45.26181" lon="5.04002">
        <ele>316.5</ele>
        <time>2021-05-03T11:20:57Z</time>
      </trkpt>
      <trkpt lat="45.26177" lon="5.03992">
        <ele>316.4</ele>
        <time>2021-05-03T11:20:58Z</time>
      </trkpt>
      <trkpt lat="45.26172" lon="5.03982">
        <ele>316.2</ele>
        <time>2021-05-03T11:20:59Z</time>
      </trkpt>
      <trkpt lat="45.26168" lon="5.03971">
        <ele>316</ele>
        <time>2021-05-03T11:21:00Z</time>
      </trkpt>
      <trkpt lat="45.26165" lon="5.03959">
        <ele>315.8</ele>
        <time>2021-05-03T11:21:01Z</time>
      </trkpt>
      <trkpt lat="45.26162" lon="5.03947">
        <ele>315.5</ele>
        <time>2021-05-03T11:21:02Z</time>
      </trkpt>
      <trkpt lat="45.26159" lon="5.03936">
        <ele>315.3</ele>
        <time>2021-05-03T11:21:03Z</time>
      </trkpt>
      <trkpt lat="45.26157" lon="5.03924">
        <ele>315.1</ele>
        <time>2021-05-03T11:21:04Z</time>
      </trkpt>
      <trkpt lat="45.26154" lon="5.03911">
        <ele>314.9</ele>
        <time>2021-05-03T11:21:05Z</time>
      </trkpt>
      <trkpt lat="45.26151" lon="5.03898">
        <ele>314.8</ele>
        <time>2021-05-03T11:21:06Z</time>
      </trkpt>
      <trkpt lat="45.26147" lon="5.03886">
        <ele>314.6</ele>
        <time>2021-05-03T11:21:07Z</time>
      </trkpt>
      <trkpt lat="45.26145" lon="5.03874">
        <ele>314.5</ele>
        <time>2021-05-03T11:21:08Z</time>
      </trkpt>
      <trkpt lat="45.26142" lon="5.03862">
        <ele>314.4</ele>
        <time>2021-05-03T11:21:09Z</time>
      </trkpt>
      <trkpt lat="45.2614" lon="5.0385">
        <ele>314.3</ele>
        <time>2021-05-03T11:21:10Z</time>
      </trkpt>
      <trkpt lat="45.26138" lon="5.03839">
        <ele>314.2</ele>
        <time>2021-05-03T11:21:11Z</time>
      </trkpt>
      <trkpt lat="45.26135" lon="5.03828">
        <ele>314</ele>
        <time>2021-05-03T11:21:12Z</time>
      </trkpt>
      <trkpt lat="45.26132" lon="5.03818">
        <ele>313.9</ele>
        <time>2021-05-03T11:21:13Z</time>
      </trkpt>
      <trkpt lat="45.26129" lon="5.03807">
        <ele>313.8</ele>
        <time>2021-05-03T11:21:14Z</time>
      </trkpt>
      <trkpt lat="45.26125" lon="5.03795">
        <ele>313.8</ele>
        <time>2021-05-03T11:21:15Z</time>
      </trkpt>
      <trkpt lat="45.26122" lon="5.03785">
        <ele>313.7</ele>
        <time>2021-05-03T11:21:16Z</time>
      </trkpt>
      <trkpt lat="45.26118" lon="5.03775">
        <ele>313.6</ele>
        <time>2021-05-03T11:21:17Z</time>
      </trkpt>
      <trkpt lat="45.26115" lon="5.03764">
        <ele>313.6</ele>
        <time>2021-05-03T11:21:18Z</time>
      </trkpt>
      <trkpt lat="45.26112" lon="5.03754">
        <ele>313.6</ele>
        <time>2021-05-03T11:21:19Z</time>
      </trkpt>
      <trkpt lat="45.26108" lon="5.03745">
        <ele>313.6</ele>
        <time>2021-05-03T11:21:20Z</time>
      </trkpt>
      <trkpt lat="45.26105" lon="5.03735">
        <ele>313.5</ele>
        <time>2021-05-03T11:21:21Z</time>
      </trkpt>
      <trkpt lat="45.26102" lon="5.03726">
        <ele>313.5</ele>
        <time>2021-05-03T11:21:22Z</time>
      </trkpt>
      <trkpt lat="45.26098" lon="5.03716">
        <ele>313.5</ele>
        <time>2021-05-03T11:21:23Z</time>
      </trkpt>
      <trkpt lat="45.26095" lon="5.03707">
        <ele>313.5</ele>
        <time>2021-05-03T11:21:24Z</time>
      </trkpt>
      <trkpt lat="45.26092" lon="5.03697">
        <ele>313.5</ele>
        <time>2021-05-03T11:21:25Z</time>
      </trkpt>
      <trkpt lat="45.26089" lon="5.03687">
        <ele>313.4</ele>
        <time>2021-05-03T11:21:26Z</time>
      </trkpt>
      <trkpt lat="45.26086" lon="5.03678">
        <ele>313.4</ele>
        <time>2021-05-03T11:21:27Z</time>
      </trkpt>
      <trkpt lat="45.26084" lon="5.03669">
        <ele>313.4</ele>
        <time>2021-05-03T11:21:28Z</time>
      </trkpt>
      <trkpt lat="45.26081" lon="5.0366">
        <ele>313.4</ele>
        <time>2021-05-03T11:21:29Z</time>
      </trkpt>
      <trkpt lat="45.26078" lon="5.03652">
        <ele>313.4</ele>
        <time>2021-05-03T11:21:30Z</time>
      </trkpt>
      <trkpt lat="45.26075" lon="5.03643">
        <ele>313.4</ele>
        <time>2021-05-03T11:21:31Z</time>
      </trkpt>
      <trkpt lat="45.26072" lon="5.03635">
        <ele>313.3</ele>
        <time>2021-05-03T11:21:32Z</time>
      </trkpt>
      <trkpt lat="45.26069" lon="5.03626">
        <ele>313.2</ele>
        <time>2021-05-03T11:21:33Z</time>
      </trkpt>
      <trkpt lat="45.26067" lon="5.03619">
        <ele>313.1</ele>
        <time>2021-05-03T11:21:34Z</time>
      </trkpt>
      <trkpt lat="45.26064" lon="5.03611">
        <ele>313</ele>
        <time>2021-05-03T11:21:35Z</time>
      </trkpt>
      <trkpt lat="45.26061" lon="5.03603">
        <ele>312.8</ele>
        <time>2021-05-03T11:21:36Z</time>
      </trkpt>
      <trkpt lat="45.26058" lon="5.03595">
        <ele>312.7</ele>
        <time>2021-05-03T11:21:37Z</time>
      </trkpt>
      <trkpt lat="45.26056" lon="5.03587">
        <ele>312.6</ele>
        <time>2021-05-03T11:21:38Z</time>
      </trkpt>
      <trkpt lat="45.26053" lon="5.03578">
        <ele>312.5</ele>
        <time>2021-05-03T11:21:39Z</time>
      </trkpt>
      <trkpt lat="45.2605" lon="5.03569">
        <ele>312.3</ele>
        <time>2021-05-03T11:21:40Z</time>
      </trkpt>
      <trkpt lat="45.26047" lon="5.0356">
        <ele>312.2</ele>
        <time>2021-05-03T11:21:41Z</time>
      </trkpt>
      <trkpt lat="45.26044" lon="5.03551">
        <ele>312.1</ele>
        <time>2021-05-03T11:21:42Z</time>
      </trkpt>
      <trkpt lat="45.26041" lon="5.03542">
        <ele>311.9</ele>
        <time>2021-05-03T11:21:43Z</time>
      </trkpt>
      <trkpt lat="45.26038" lon="5.03533">
        <ele>311.8</ele>
        <time>2021-05-03T11:21:44Z</time>
      </trkpt>
      <trkpt lat="45.26035" lon="5.03524">
        <ele>311.7</ele>
        <time>2021-05-03T11:21:45Z</time>
      </trkpt>
      <trkpt lat="45.26032" lon="5.03516">
        <ele>311.5</ele>
        <time>2021-05-03T11:21:46Z</time>
      </trkpt>
      <trkpt lat="45.26029" lon="5.03507">
        <ele>311.4</ele>
        <time>2021-05-03T11:21:47Z</time>
      </trkpt>
      <trkpt lat="45.26025" lon="5.03498">
        <ele>311.2</ele>
        <time>2021-05-03T11:21:48Z</time>
      </trkpt>
      <trkpt lat="45.26022" lon="5.03489">
        <ele>311.1</ele>
        <time>2021-05-03T11:21:49Z</time>
      </trkpt>
      <trkpt lat="45.26018" lon="5.03481">
        <ele>311</ele>
        <time>2021-05-03T11:21:50Z</time>
      </trkpt>
      <trkpt lat="45.26015" lon="5.03472">
        <ele>310.9</ele>
        <time>2021-05-03T11:21:51Z</time>
      </trkpt>
      <trkpt lat="45.26013" lon="5.03464">
        <ele>310.7</ele>
        <time>2021-05-03T11:21:52Z</time>
      </trkpt>
      <trkpt lat="45.2601" lon="5.03455">
        <ele>310.6</ele>
        <time>2021-05-03T11:21:53Z</time>
      </trkpt>
      <trkpt lat="45.26007" lon="5.03447">
        <ele>310.5</ele>
        <time>2021-05-03T11:21:54Z</time>
      </trkpt>
      <trkpt lat="45.26003" lon="5.03437">
        <ele>310.4</ele>
        <time>2021-05-03T11:21:55Z</time>
      </trkpt>
      <trkpt lat="45.26" lon="5.03427">
        <ele>310.3</ele>
        <time>2021-05-03T11:21:56Z</time>
      </trkpt>
      <trkpt lat="45.25997" lon="5.03418">
        <ele>310.2</ele>
        <time>2021-05-03T11:21:57Z</time>
      </trkpt>
      <trkpt lat="45.25994" lon="5.0341">
        <ele>310.1</ele>
        <time>2021-05-03T11:21:58Z</time>
      </trkpt>
      <trkpt lat="45.25991" lon="5.03403">
        <ele>310</ele>
        <time>2021-05-03T11:21:59Z</time>
      </trkpt>
      <trkpt lat="45.25987" lon="5.03395">
        <ele>310</ele>
        <time>2021-05-03T11:22:00Z</time>
      </trkpt>
      <trkpt lat="45.25984" lon="5.03386">
        <ele>309.9</ele>
        <time>2021-05-03T11:22:01Z</time>
      </trkpt>
      <trkpt lat="45.2598" lon="5.03378">
        <ele>309.9</ele>
        <time>2021-05-03T11:22:02Z</time>
      </trkpt>
      <trkpt lat="45.25977" lon="5.03368">
        <ele>309.9</ele>
        <time>2021-05-03T11:22:03Z</time>
      </trkpt>
      <trkpt lat="45.25974" lon="5.0336">
        <ele>309.9</ele>
        <time>2021-05-03T11:22:04Z</time>
      </trkpt>
      <trkpt lat="45.25971" lon="5.0335">
        <ele>309.9</ele>
        <time>2021-05-03T11:22:05Z</time>
      </trkpt>
      <trkpt lat="45.25968" lon="5.03341">
        <ele>309.9</ele>
        <time>2021-05-03T11:22:06Z</time>
      </trkpt>
      <trkpt lat="45.25965" lon="5.03332">
        <ele>309.9</ele>
        <time>2021-05-03T11:22:07Z</time>
      </trkpt>
      <trkpt lat="45.25961" lon="5.03324">
        <ele>309.9</ele>
        <time>2021-05-03T11:22:08Z</time>
      </trkpt>
      <trkpt lat="45.25958" lon="5.03317">
        <ele>310</ele>
        <time>2021-05-03T11:22:09Z</time>
      </trkpt>
      <trkpt lat="45.25954" lon="5.0331">
        <ele>310</ele>
        <time>2021-05-03T11:22:10Z</time>
      </trkpt>
      <trkpt lat="45.25951" lon="5.03302">
        <ele>310</ele>
        <time>2021-05-03T11:22:11Z</time>
      </trkpt>
      <trkpt lat="45.25948" lon="5.03294">
        <ele>310</ele>
        <time>2021-05-03T11:22:12Z</time>
      </trkpt>
      <trkpt lat="45.25944" lon="5.03287">
        <ele>310</ele>
        <time>2021-05-03T11:22:13Z</time>
      </trkpt>
      <trkpt lat="45.25941" lon="5.0328">
        <ele>310</ele>
        <time>2021-05-03T11:22:14Z</time>
      </trkpt>
      <trkpt lat="45.25938" lon="5.03272">
        <ele>310</ele>
        <time>2021-05-03T11:22:15Z</time>
      </trkpt>
      <trkpt lat="45.25935" lon="5.03264">
        <ele>310</ele>
        <time>2021-05-03T11:22:16Z</time>
      </trkpt>
      <trkpt lat="45.25933" lon="5.03256">
        <ele>310</ele>
        <time>2021-05-03T11:22:17Z</time>
      </trkpt>
      <trkpt lat="45.2593" lon="5.0325">
        <ele>310</ele>
        <time>2021-05-03T11:22:18Z</time>
      </trkpt>
      <trkpt lat="45.25927" lon="5.03244">
        <ele>310</ele>
        <time>2021-05-03T11:22:19Z</time>
      </trkpt>
      <trkpt lat="45.25924" lon="5.03237">
        <ele>310</ele>
        <time>2021-05-03T11:22:20Z</time>
      </trkpt>
      <trkpt lat="45.25921" lon="5.0323">
        <ele>310</ele>
        <time>2021-05-03T11:22:21Z</time>
      </trkpt>
      <trkpt lat="45.25918" lon="5.03223">
        <ele>310.1</ele>
        <time>2021-05-03T11:22:22Z</time>
      </trkpt>
      <trkpt lat="45.25915" lon="5.03216">
        <ele>310.1</ele>
        <time>2021-05-03T11:22:23Z</time>
      </trkpt>
      <trkpt lat="45.25912" lon="5.03209">
        <ele>310.1</ele>
        <time>2021-05-03T11:22:24Z</time>
      </trkpt>
      <trkpt lat="45.25909" lon="5.03202">
        <ele>310.2</ele>
        <time>2021-05-03T11:22:25Z</time>
      </trkpt>
      <trkpt lat="45.25905" lon="5.03195">
        <ele>310.2</ele>
        <time>2021-05-03T11:22:26Z</time>
      </trkpt>
      <trkpt lat="45.25902" lon="5.03187">
        <ele>310.2</ele>
        <time>2021-05-03T11:22:27Z</time>
      </trkpt>
      <trkpt lat="45.25899" lon="5.0318">
        <ele>310.2</ele>
        <time>2021-05-03T11:22:28Z</time>
      </trkpt>
      <trkpt lat="45.25895" lon="5.03173">
        <ele>310.3</ele>
        <time>2021-05-03T11:22:29Z</time>
      </trkpt>
      <trkpt lat="45.25892" lon="5.03165">
        <ele>310.3</ele>
        <time>2021-05-03T11:22:30Z</time>
      </trkpt>
      <trkpt lat="45.25889" lon="5.03157">
        <ele>310.3</ele>
        <time>2021-05-03T11:22:31Z</time>
      </trkpt>
      <trkpt lat="45.25885" lon="5.03149">
        <ele>310.3</ele>
        <time>2021-05-03T11:22:32Z</time>
      </trkpt>
      <trkpt lat="45.25881" lon="5.03142">
        <ele>310.3</ele>
        <time>2021-05-03T11:22:33Z</time>
      </trkpt>
      <trkpt lat="45.25878" lon="5.03133">
        <ele>310.3</ele>
        <time>2021-05-03T11:22:34Z</time>
      </trkpt>
      <trkpt lat="45.25875" lon="5.03126">
        <ele>310.3</ele>
        <time>2021-05-03T11:22:35Z</time>
      </trkpt>
      <trkpt lat="45.25872" lon="5.03118">
        <ele>310.2</ele>
        <time>2021-05-03T11:22:36Z</time>
      </trkpt>
      <trkpt lat="45.25869" lon="5.0311">
        <ele>310.2</ele>
        <time>2021-05-03T11:22:37Z</time>
      </trkpt>
      <trkpt lat="45.25865" lon="5.03102">
        <ele>310.1</ele>
        <time>2021-05-03T11:22:38Z</time>
      </trkpt>
      <trkpt lat="45.25861" lon="5.03092">
        <ele>310.1</ele>
        <time>2021-05-03T11:22:39Z</time>
      </trkpt>
      <trkpt lat="45.25856" lon="5.03083">
        <ele>310</ele>
        <time>2021-05-03T11:22:40Z</time>
      </trkpt>
      <trkpt lat="45.25852" lon="5.03075">
        <ele>309.9</ele>
        <time>2021-05-03T11:22:41Z</time>
      </trkpt>
      <trkpt lat="45.25848" lon="5.03067">
        <ele>309.8</ele>
        <time>2021-05-03T11:22:42Z</time>
      </trkpt>
      <trkpt lat="45.25843" lon="5.0306">
        <ele>309.7</ele>
        <time>2021-05-03T11:22:43Z</time>
      </trkpt>
      <trkpt lat="45.25839" lon="5.03052">
        <ele>309.6</ele>
        <time>2021-05-03T11:22:44Z</time>
      </trkpt>
      <trkpt lat="45.25835" lon="5.03044">
        <ele>309.5</ele>
        <time>2021-05-03T11:22:45Z</time>
      </trkpt>
      <trkpt lat="45.2583" lon="5.03037">
        <ele>309.4</ele>
        <time>2021-05-03T11:22:46Z</time>
      </trkpt>
      <trkpt lat="45.25826" lon="5.03028">
        <ele>309.3</ele>
        <time>2021-05-03T11:22:47Z</time>
      </trkpt>
      <trkpt lat="45.25822" lon="5.03019">
        <ele>309.3</ele>
        <time>2021-05-03T11:22:48Z</time>
      </trkpt>
      <trkpt lat="45.25817" lon="5.03012">
        <ele>309.2</ele>
        <time>2021-05-03T11:22:49Z</time>
      </trkpt>
      <trkpt lat="45.25812" lon="5.03006">
        <ele>309.1</ele>
        <time>2021-05-03T11:22:50Z</time>
      </trkpt>
      <trkpt lat="45.25808" lon="5.02998">
        <ele>309.1</ele>
        <time>2021-05-03T11:22:51Z</time>
      </trkpt>
      <trkpt lat="45.25804" lon="5.02989">
        <ele>309</ele>
        <time>2021-05-03T11:22:52Z</time>
      </trkpt>
      <trkpt lat="45.258" lon="5.02981">
        <ele>309</ele>
        <time>2021-05-03T11:22:53Z</time>
      </trkpt>
      <trkpt lat="45.25795" lon="5.02973">
        <ele>309</ele>
        <time>2021-05-03T11:22:54Z</time>
      </trkpt>
      <trkpt lat="45.25791" lon="5.02964">
        <ele>309</ele>
        <time>2021-05-03T11:22:55Z</time>
      </trkpt>
      <trkpt lat="45.25787" lon="5.02956">
        <ele>309</ele>
        <time>2021-05-03T11:22:56Z</time>
      </trkpt>
      <trkpt lat="45.25782" lon="5.02948">
        <ele>309</ele>
        <time>2021-05-03T11:22:57Z</time>
      </trkpt>
      <trkpt lat="45.25778" lon="5.0294">
        <ele>309</ele>
        <time>2021-05-03T11:22:58Z</time>
      </trkpt>
      <trkpt lat="45.25774" lon="5.02933">
        <ele>309</ele>
        <time>2021-05-03T11:22:59Z</time>
      </trkpt>
      <trkpt lat="45.25769" lon="5.02926">
        <ele>309</ele>
        <time>2021-05-03T11:23:00Z</time>
      </trkpt>
      <trkpt lat="45.25766" lon="5.02918">
        <ele>309</ele>
        <time>2021-05-03T11:23:01Z</time>
      </trkpt>
      <trkpt lat="45.25762" lon="5.0291">
        <ele>309</ele>
        <time>2021-05-03T11:23:02Z</time>
      </trkpt>
      <trkpt lat="45.25759" lon="5.02902">
        <ele>309</ele>
        <time>2021-05-03T11:23:03Z</time>
      </trkpt>
      <trkpt lat="45.25755" lon="5.02894">
        <ele>309</ele>
        <time>2021-05-03T11:23:04Z</time>
      </trkpt>
      <trkpt lat="45.25751" lon="5.02886">
        <ele>309</ele>
        <time>2021-05-03T11:23:05Z</time>
      </trkpt>
      <trkpt lat="45.25747" lon="5.02879">
        <ele>309.1</ele>
        <time>2021-05-03T11:23:06Z</time>
      </trkpt>
      <trkpt lat="45.25744" lon="5.02871">
        <ele>309.2</ele>
        <time>2021-05-03T11:23:07Z</time>
      </trkpt>
      <trkpt lat="45.25741" lon="5.02863">
        <ele>309.2</ele>
        <time>2021-05-03T11:23:08Z</time>
      </trkpt>
      <trkpt lat="45.25737" lon="5.02857">
        <ele>309.4</ele>
        <time>2021-05-03T11:23:09Z</time>
      </trkpt>
      <trkpt lat="45.25734" lon="5.0285">
        <ele>309.5</ele>
        <time>2021-05-03T11:23:10Z</time>
      </trkpt>
      <trkpt lat="45.2573" lon="5.02844">
        <ele>309.6</ele>
        <time>2021-05-03T11:23:11Z</time>
      </trkpt>
      <trkpt lat="45.25727" lon="5.02838">
        <ele>309.8</ele>
        <time>2021-05-03T11:23:12Z</time>
      </trkpt>
      <trkpt lat="45.25724" lon="5.02833">
        <ele>309.9</ele>
        <time>2021-05-03T11:23:13Z</time>
      </trkpt>
      <trkpt lat="45.25722" lon="5.02828">
        <ele>310</ele>
        <time>2021-05-03T11:23:14Z</time>
      </trkpt>
      <trkpt lat="45.25721" lon="5.02825">
        <ele>310.1</ele>
        <time>2021-05-03T11:23:15Z</time>
      </trkpt>
      <trkpt lat="45.25721" lon="5.02819">
        <ele>310.1</ele>
        <time>2021-05-03T11:23:16Z</time>
      </trkpt>
      <trkpt lat="45.25722" lon="5.02814">
        <ele>310.2</ele>
        <time>2021-05-03T11:23:17Z</time>
      </trkpt>
      <trkpt lat="45.25723" lon="5.0281">
        <ele>310.3</ele>
        <time>2021-05-03T11:23:18Z</time>
      </trkpt>
      <trkpt lat="45.25724" lon="5.02804">
        <ele>310.8</ele>
        <time>2021-05-03T11:23:19Z</time>
      </trkpt>
      <trkpt lat="45.25723" lon="5.02799">
        <ele>310.8</ele>
        <time>2021-05-03T11:23:20Z</time>
      </trkpt>
      <trkpt lat="45.25723" lon="5.02795">
        <ele>310.8</ele>
        <time>2021-05-03T11:23:21Z</time>
      </trkpt>
      <trkpt lat="45.25725" lon="5.02798">
        <ele>310.8</ele>
        <time>2021-05-03T11:23:22Z</time>
      </trkpt>
      <trkpt lat="45.25715" lon="5.02793">
        <ele>310.8</ele>
        <time>2021-05-03T11:23:24Z</time>
      </trkpt>
      <trkpt lat="45.2571" lon="5.0279">
        <ele>310.4</ele>
        <time>2021-05-03T11:23:25Z</time>
      </trkpt>
      <trkpt lat="45.257" lon="5.02783">
        <ele>310</ele>
        <time>2021-05-03T11:23:26Z</time>
      </trkpt>
      <trkpt lat="45.25696" lon="5.02787">
        <ele>309.9</ele>
        <time>2021-05-03T11:23:27Z</time>
      </trkpt>
      <trkpt lat="45.25693" lon="5.02784">
        <ele>309.7</ele>
        <time>2021-05-03T11:23:28Z</time>
      </trkpt>
      <trkpt lat="45.2569" lon="5.02778">
        <ele>309.5</ele>
        <time>2021-05-03T11:23:30Z</time>
      </trkpt>
      <trkpt lat="45.25688" lon="5.02773">
        <ele>309.3</ele>
        <time>2021-05-03T11:23:32Z</time>
      </trkpt>
      <trkpt lat="45.2569" lon="5.02773">
        <ele>309.2</ele>
        <time>2021-05-03T11:23:33Z</time>
      </trkpt>
      <trkpt lat="45.25692" lon="5.02774">
        <ele>309.1</ele>
        <time>2021-05-03T11:23:34Z</time>
      </trkpt>
      <trkpt lat="45.25692" lon="5.02774">
        <ele>309.1</ele>
        <time>2021-05-03T11:23:35Z</time>
      </trkpt>
      <trkpt lat="45.25692" lon="5.02775">
        <ele>309.1</ele>
        <time>2021-05-03T11:23:36Z</time>
      </trkpt>
      <trkpt lat="45.25692" lon="5.02775">
        <ele>309.1</ele>
        <time>2021-05-03T11:23:37Z</time>
      </trkpt>
      <trkpt lat="45.25692" lon="5.02776">
        <ele>309.1</ele>
        <time>2021-05-03T11:23:38Z</time>
      </trkpt>
      <trkpt lat="45.25692" lon="5.02776">
        <ele>309</ele>
        <time>2021-05-03T11:23:39Z</time>
      </trkpt>
      <trkpt lat="45.25692" lon="5.02776">
        <ele>309</ele>
        <time>2021-05-03T11:23:40Z</time>
      </trkpt>
      <trkpt lat="45.25689" lon="5.0277">
        <ele>308.8</ele>
        <time>2021-05-03T11:25:06Z</time>
      </trkpt>
      <trkpt lat="45.25684" lon="5.02766">
        <ele>308.5</ele>
        <time>2021-05-03T11:25:08Z</time>
      </trkpt>
      <trkpt lat="45.25681" lon="5.02763">
        <ele>308.3</ele>
        <time>2021-05-03T11:25:09Z</time>
      </trkpt>
      <trkpt lat="45.25676" lon="5.0276">
        <ele>308</ele>
        <time>2021-05-03T11:25:10Z</time>
      </trkpt>
      <trkpt lat="45.25663" lon="5.02753">
        <ele>307.3</ele>
        <time>2021-05-03T11:25:12Z</time>
      </trkpt>
      <trkpt lat="45.25658" lon="5.02748">
        <ele>307</ele>
        <time>2021-05-03T11:25:13Z</time>
      </trkpt>
      <trkpt lat="45.25653" lon="5.02744">
        <ele>306.6</ele>
        <time>2021-05-03T11:25:14Z</time>
      </trkpt>
      <trkpt lat="45.25647" lon="5.02739">
        <ele>306.3</ele>
        <time>2021-05-03T11:25:15Z</time>
      </trkpt>
      <trkpt lat="45.25641" lon="5.02733">
        <ele>305.9</ele>
        <time>2021-05-03T11:25:16Z</time>
      </trkpt>
      <trkpt lat="45.25635" lon="5.02728">
        <ele>305.5</ele>
        <time>2021-05-03T11:25:17Z</time>
      </trkpt>
      <trkpt lat="45.25629" lon="5.02722">
        <ele>305.1</ele>
        <time>2021-05-03T11:25:18Z</time>
      </trkpt>
      <trkpt lat="45.25623" lon="5.02716">
        <ele>304.7</ele>
        <time>2021-05-03T11:25:19Z</time>
      </trkpt>
      <trkpt lat="45.25617" lon="5.0271">
        <ele>304.3</ele>
        <time>2021-05-03T11:25:20Z</time>
      </trkpt>
      <trkpt lat="45.25612" lon="5.02705">
        <ele>304</ele>
        <time>2021-05-03T11:25:21Z</time>
      </trkpt>
      <trkpt lat="45.25607" lon="5.027">
        <ele>303.7</ele>
        <time>2021-05-03T11:25:22Z</time>
      </trkpt>
      <trkpt lat="45.25602" lon="5.02695">
        <ele>303.4</ele>
        <time>2021-05-03T11:25:23Z</time>
      </trkpt>
      <trkpt lat="45.25597" lon="5.02688">
        <ele>303</ele>
        <time>2021-05-03T11:25:24Z</time>
      </trkpt>
      <trkpt lat="45.25592" lon="5.02681">
        <ele>302.7</ele>
        <time>2021-05-03T11:25:25Z</time>
      </trkpt>
      <trkpt lat="45.25589" lon="5.02674">
        <ele>302.3</ele>
        <time>2021-05-03T11:25:26Z</time>
      </trkpt>
      <trkpt lat="45.25587" lon="5.02668">
        <ele>302.1</ele>
        <time>2021-05-03T11:25:27Z</time>
      </trkpt>
      <trkpt lat="45.25586" lon="5.02663">
        <ele>301.9</ele>
        <time>2021-05-03T11:25:28Z</time>
      </trkpt>
      <trkpt lat="45.25585" lon="5.02661">
        <ele>301.8</ele>
        <time>2021-05-03T11:25:29Z</time>
      </trkpt>
      <trkpt lat="45.25582" lon="5.02655">
        <ele>301.6</ele>
        <time>2021-05-03T11:25:30Z</time>
      </trkpt>
      <trkpt lat="45.2558" lon="5.0265">
        <ele>301.4</ele>
        <time>2021-05-03T11:25:31Z</time>
      </trkpt>
      <trkpt lat="45.25578" lon="5.02646">
        <ele>301.2</ele>
        <time>2021-05-03T11:25:32Z</time>
      </trkpt>
      <trkpt lat="45.25577" lon="5.02644">
        <ele>301.1</ele>
        <time>2021-05-03T11:25:33Z</time>
      </trkpt>
      <trkpt lat="45.25574" lon="5.02641">
        <ele>301</ele>
        <time>2021-05-03T11:25:34Z</time>
      </trkpt>
      <trkpt lat="45.25573" lon="5.0264">
        <ele>301</ele>
        <time>2021-05-03T11:25:35Z</time>
      </trkpt>
      <trkpt lat="45.25571" lon="5.02637">
        <ele>300.9</ele>
        <time>2021-05-03T11:25:36Z</time>
      </trkpt>
      <trkpt lat="45.25571" lon="5.02636">
        <ele>300.8</ele>
        <time>2021-05-03T11:25:37Z</time>
      </trkpt>
      <trkpt lat="45.2557" lon="5.02634">
        <ele>300.8</ele>
        <time>2021-05-03T11:25:38Z</time>
      </trkpt>
      <trkpt lat="45.2557" lon="5.02632">
        <ele>300.7</ele>
        <time>2021-05-03T11:25:39Z</time>
      </trkpt>
      <trkpt lat="45.25568" lon="5.0263">
        <ele>300.7</ele>
        <time>2021-05-03T11:25:41Z</time>
      </trkpt>
      <trkpt lat="45.25567" lon="5.02626">
        <ele>300.6</ele>
        <time>2021-05-03T11:25:42Z</time>
      </trkpt>
      <trkpt lat="45.25567" lon="5.02624">
        <ele>300.5</ele>
        <time>2021-05-03T11:25:43Z</time>
      </trkpt>
      <trkpt lat="45.25565" lon="5.02621">
        <ele>300.4</ele>
        <time>2021-05-03T11:25:45Z</time>
      </trkpt>
      <trkpt lat="45.25564" lon="5.02619">
        <ele>300.4</ele>
        <time>2021-05-03T11:25:46Z</time>
      </trkpt>
      <trkpt lat="45.25563" lon="5.02614">
        <ele>300.3</ele>
        <time>2021-05-03T11:25:47Z</time>
      </trkpt>
      <trkpt lat="45.25562" lon="5.02612">
        <ele>300.2</ele>
        <time>2021-05-03T11:25:48Z</time>
      </trkpt>
      <trkpt lat="45.2556" lon="5.02607">
        <ele>300.1</ele>
        <time>2021-05-03T11:25:49Z</time>
      </trkpt>
      <trkpt lat="45.25557" lon="5.02597">
        <ele>299.9</ele>
        <time>2021-05-03T11:25:51Z</time>
      </trkpt>
      <trkpt lat="45.25555" lon="5.02589">
        <ele>299.8</ele>
        <time>2021-05-03T11:25:52Z</time>
      </trkpt>
      <trkpt lat="45.25543" lon="5.02571">
        <ele>299.5</ele>
        <time>2021-05-03T11:25:54Z</time>
      </trkpt>
      <trkpt lat="45.25539" lon="5.02564">
        <ele>299.4</ele>
        <time>2021-05-03T11:25:55Z</time>
      </trkpt>
      <trkpt lat="45.25535" lon="5.02557">
        <ele>299.3</ele>
        <time>2021-05-03T11:25:56Z</time>
      </trkpt>
      <trkpt lat="45.25531" lon="5.02549">
        <ele>299.2</ele>
        <time>2021-05-03T11:25:57Z</time>
      </trkpt>
      <trkpt lat="45.25527" lon="5.02541">
        <ele>299.1</ele>
        <time>2021-05-03T11:25:58Z</time>
      </trkpt>
      <trkpt lat="45.25523" lon="5.02533">
        <ele>299.1</ele>
        <time>2021-05-03T11:25:59Z</time>
      </trkpt>
      <trkpt lat="45.25519" lon="5.02526">
        <ele>299</ele>
        <time>2021-05-03T11:26:00Z</time>
      </trkpt>
      <trkpt lat="45.25515" lon="5.02518">
        <ele>299</ele>
        <time>2021-05-03T11:26:01Z</time>
      </trkpt>
      <trkpt lat="45.25512" lon="5.02511">
        <ele>298.9</ele>
        <time>2021-05-03T11:26:02Z</time>
      </trkpt>
      <trkpt lat="45.2551" lon="5.02503">
        <ele>298.9</ele>
        <time>2021-05-03T11:26:03Z</time>
      </trkpt>
      <trkpt lat="45.25509" lon="5.02496">
        <ele>298.9</ele>
        <time>2021-05-03T11:26:04Z</time>
      </trkpt>
      <trkpt lat="45.25508" lon="5.02491">
        <ele>298.9</ele>
        <time>2021-05-03T11:26:05Z</time>
      </trkpt>
      <trkpt lat="45.25506" lon="5.02486">
        <ele>298.9</ele>
        <time>2021-05-03T11:26:06Z</time>
      </trkpt>
      <trkpt lat="45.25503" lon="5.02482">
        <ele>298.9</ele>
        <time>2021-05-03T11:26:07Z</time>
      </trkpt>
      <trkpt lat="45.25506" lon="5.02477">
        <ele>298.9</ele>
        <time>2021-05-03T11:26:09Z</time>
      </trkpt>
      <trkpt lat="45.25495" lon="5.0246">
        <ele>298.9</ele>
        <time>2021-05-03T11:26:11Z</time>
      </trkpt>
      <trkpt lat="45.25491" lon="5.02452">
        <ele>299</ele>
        <time>2021-05-03T11:26:12Z</time>
      </trkpt>
      <trkpt lat="45.25487" lon="5.02446">
        <ele>299.1</ele>
        <time>2021-05-03T11:26:13Z</time>
      </trkpt>
      <trkpt lat="45.25483" lon="5.02441">
        <ele>299.2</ele>
        <time>2021-05-03T11:26:14Z</time>
      </trkpt>
      <trkpt lat="45.2548" lon="5.0244">
        <ele>299.2</ele>
        <time>2021-05-03T11:26:15Z</time>
      </trkpt>
      <trkpt lat="45.25475" lon="5.02442">
        <ele>299.4</ele>
        <time>2021-05-03T11:26:16Z</time>
      </trkpt>
      <trkpt lat="45.2546" lon="5.02439">
        <ele>299.5</ele>
        <time>2021-05-03T11:26:18Z</time>
      </trkpt>
      <trkpt lat="45.25456" lon="5.02442">
        <ele>299.4</ele>
        <time>2021-05-03T11:26:19Z</time>
      </trkpt>
      <trkpt lat="45.2545" lon="5.02447">
        <ele>299.4</ele>
        <time>2021-05-03T11:26:20Z</time>
      </trkpt>
      <trkpt lat="45.25444" lon="5.02453">
        <ele>299.3</ele>
        <time>2021-05-03T11:26:22Z</time>
      </trkpt>
      <trkpt lat="45.25442" lon="5.02455">
        <ele>299.3</ele>
        <time>2021-05-03T11:26:23Z</time>
      </trkpt>
      <trkpt lat="45.2544" lon="5.02457">
        <ele>299.2</ele>
        <time>2021-05-03T11:26:24Z</time>
      </trkpt>
      <trkpt lat="45.25439" lon="5.02461">
        <ele>299.2</ele>
        <time>2021-05-03T11:26:26Z</time>
      </trkpt>
      <trkpt lat="45.25443" lon="5.02461">
        <ele>299.2</ele>
        <time>2021-05-03T11:26:27Z</time>
      </trkpt>
      <trkpt lat="45.25447" lon="5.02458">
        <ele>299.2</ele>
        <time>2021-05-03T11:26:29Z</time>
      </trkpt>
      <trkpt lat="45.25449" lon="5.02458">
        <ele>299.2</ele>
        <time>2021-05-03T11:26:30Z</time>
      </trkpt>
      <trkpt lat="45.2545" lon="5.02459">
        <ele>299.2</ele>
        <time>2021-05-03T11:26:31Z</time>
      </trkpt>
      <trkpt lat="45.25451" lon="5.02459">
        <ele>299.2</ele>
        <time>2021-05-03T11:26:32Z</time>
      </trkpt>
      <trkpt lat="45.25451" lon="5.02458">
        <ele>299.2</ele>
        <time>2021-05-03T11:26:33Z</time>
      </trkpt>
      <trkpt lat="45.25451" lon="5.02458">
        <ele>299.2</ele>
        <time>2021-05-03T11:26:34Z</time>
      </trkpt>
      <trkpt lat="45.2545" lon="5.02458">
        <ele>299.2</ele>
        <time>2021-05-03T11:26:35Z</time>
      </trkpt>
      <trkpt lat="45.2545" lon="5.02458">
        <ele>299.2</ele>
        <time>2021-05-03T11:26:36Z</time>
      </trkpt>
      <trkpt lat="45.2545" lon="5.02458">
        <ele>299.2</ele>
        <time>2021-05-03T11:26:37Z</time>
      </trkpt>
      <trkpt lat="45.2545" lon="5.02457">
        <ele>299.2</ele>
        <time>2021-05-03T11:26:38Z</time>
      </trkpt>
      <trkpt lat="45.25449" lon="5.02457">
        <ele>299.2</ele>
        <time>2021-05-03T11:26:39Z</time>
      </trkpt>
      <trkpt lat="45.25449" lon="5.02458">
        <ele>299.2</ele>
        <time>2021-05-03T11:26:41Z</time>
      </trkpt>
      <trkpt lat="45.25449" lon="5.02458">
        <ele>299.2</ele>
        <time>2021-05-03T11:26:42Z</time>
      </trkpt>
      <trkpt lat="45.25449" lon="5.02459">
        <ele>299.2</ele>
        <time>2021-05-03T11:26:43Z</time>
      </trkpt>
      <trkpt lat="45.25449" lon="5.02461">
        <ele>299.2</ele>
        <time>2021-05-03T11:26:45Z</time>
      </trkpt>
      <trkpt lat="45.2545" lon="5.02461">
        <ele>299.2</ele>
        <time>2021-05-03T11:26:46Z</time>
      </trkpt>
      <trkpt lat="45.25449" lon="5.0246">
        <ele>299.2</ele>
        <time>2021-05-03T11:26:47Z</time>
      </trkpt>
      <trkpt lat="45.25448" lon="5.0246">
        <ele>299.2</ele>
        <time>2021-05-03T11:26:49Z</time>
      </trkpt>
      <trkpt lat="45.25448" lon="5.0246">
        <ele>299.2</ele>
        <time>2021-05-03T11:26:50Z</time>
      </trkpt>
      <trkpt lat="45.25448" lon="5.0246">
        <ele>299.2</ele>
        <time>2021-05-03T11:26:51Z</time>
      </trkpt>
      <trkpt lat="45.25448" lon="5.0246">
        <ele>299.2</ele>
        <time>2021-05-03T11:26:52Z</time>
      </trkpt>
      <trkpt lat="45.25448" lon="5.0246">
        <ele>299.2</ele>
        <time>2021-05-03T11:26:53Z</time>
      </trkpt>
      <trkpt lat="45.25448" lon="5.02461">
        <ele>299.2</ele>
        <time>2021-05-03T11:26:54Z</time>
      </trkpt>
      <trkpt lat="45.25448" lon="5.02461">
        <ele>299.2</ele>
        <time>2021-05-03T11:26:55Z</time>
      </trkpt>
      <trkpt lat="45.25449" lon="5.02461">
        <ele>299.2</ele>
        <time>2021-05-03T11:26:56Z</time>
      </trkpt>
      <trkpt lat="45.25449" lon="5.02461">
        <ele>299.2</ele>
        <time>2021-05-03T11:26:57Z</time>
      </trkpt>
      <trkpt lat="45.25446" lon="5.02463">
        <ele>299.2</ele>
        <time>2021-05-03T11:31:09Z</time>
      </trkpt>
      <trkpt lat="45.25446" lon="5.02463">
        <ele>299.2</ele>
        <time>2021-05-03T11:31:10Z</time>
      </trkpt>
      <trkpt lat="45.25446" lon="5.02463">
        <ele>299.2</ele>
        <time>2021-05-03T11:31:11Z</time>
      </trkpt>
      <trkpt lat="45.25446" lon="5.02463">
        <ele>299.2</ele>
        <time>2021-05-03T11:31:12Z</time>
      </trkpt>
      <trkpt lat="45.25446" lon="5.02463">
        <ele>299.2</ele>
        <time>2021-05-03T11:31:13Z</time>
      </trkpt>
      <trkpt lat="45.25446" lon="5.02463">
        <ele>299.2</ele>
        <time>2021-05-03T11:31:14Z</time>
      </trkpt>
      <trkpt lat="45.25446" lon="5.02463">
        <ele>299.2</ele>
        <time>2021-05-03T11:31:15Z</time>
      </trkpt>
      <trkpt lat="45.25446" lon="5.02463">
        <ele>299.2</ele>
        <time>2021-05-03T11:31:16Z</time>
      </trkpt>
      <trkpt lat="45.25446" lon="5.02463">
        <ele>299.2</ele>
        <time>2021-05-03T11:31:17Z</time>
      </trkpt>
      <trkpt lat="45.25446" lon="5.02463">
        <ele>299.2</ele>
        <time>2021-05-03T11:31:18Z</time>
      </trkpt>
      <trkpt lat="45.25446" lon="5.02463">
        <ele>299.2</ele>
        <time>2021-05-03T11:31:19Z</time>
      </trkpt>
      <trkpt lat="45.25446" lon="5.02463">
        <ele>299.2</ele>
        <time>2021-05-03T11:31:20Z</time>
      </trkpt>
      <trkpt lat="45.25446" lon="5.02463">
        <ele>299.2</ele>
        <time>2021-05-03T11:31:21Z</time>
      </trkpt>
      <trkpt lat="45.25446" lon="5.02463">
        <ele>299.2</ele>
        <time>2021-05-03T11:31:22Z</time>
      </trkpt>
      <trkpt lat="45.25446" lon="5.02463">
        <ele>299.2</ele>
        <time>2021-05-03T11:31:23Z</time>
      </trkpt>
      <trkpt lat="45.25446" lon="5.02463">
        <ele>299.2</ele>
        <time>2021-05-03T11:31:24Z</time>
      </trkpt>
      <trkpt lat="45.25446" lon="5.02463">
        <ele>299.2</ele>
        <time>2021-05-03T11:31:25Z</time>
      </trkpt>
      <trkpt lat="45.25446" lon="5.02463">
        <ele>299.2</ele>
        <time>2021-05-03T11:31:26Z</time>
      </trkpt>
      <trkpt lat="45.25446" lon="5.02463">
        <ele>299.2</ele>
        <time>2021-05-03T11:31:27Z</time>
      </trkpt>
      <trkpt lat="45.25446" lon="5.02463">
        <ele>299.2</ele>
        <time>2021-05-03T11:31:28Z</time>
      </trkpt>
      <trkpt lat="45.25446" lon="5.02462">
        <ele>299.2</ele>
        <time>2021-05-03T11:31:29Z</time>
      </trkpt>
      <trkpt lat="45.25446" lon="5.02462">
        <ele>299.2</ele>
        <time>2021-05-03T11:31:30Z</time>
      </trkpt>
      <trkpt lat="45.25446" lon="5.02462">
        <ele>299.2</ele>
        <time>2021-05-03T11:31:31Z</time>
      </trkpt>
      <trkpt lat="45.25446" lon="5.02462">
        <ele>299.2</ele>
        <time>2021-05-03T11:31:32Z</time>
      </trkpt>
      <trkpt lat="45.25446" lon="5.02463">
        <ele>299.2</ele>
        <time>2021-05-03T11:31:33Z</time>
      </trkpt>
      <trkpt lat="45.25446" lon="5.02463">
        <ele>299.2</ele>
        <time>2021-05-03T11:31:34Z</time>
      </trkpt>
      <trkpt lat="45.25446" lon="5.02463">
        <ele>299.2</ele>
        <time>2021-05-03T11:31:35Z</time>
      </trkpt>
      <trkpt lat="45.25446" lon="5.02463">
        <ele>299.2</ele>
        <time>2021-05-03T11:31:36Z</time>
      </trkpt>
      <trkpt lat="45.25446" lon="5.02463">
        <ele>299.2</ele>
        <time>2021-05-03T11:31:37Z</time>
      </trkpt>
      <trkpt lat="45.25446" lon="5.02463">
        <ele>299.2</ele>
        <time>2021-05-03T11:31:38Z</time>
      </trkpt>
      <trkpt lat="45.25446" lon="5.02463">
        <ele>299.2</ele>
        <time>2021-05-03T11:31:39Z</time>
      </trkpt>
      <trkpt lat="45.25446" lon="5.02463">
        <ele>299.2</ele>
        <time>2021-05-03T11:31:40Z</time>
      </trkpt>
      <trkpt lat="45.25446" lon="5.02463">
        <ele>299.2</ele>
        <time>2021-05-03T11:31:41Z</time>
      </trkpt>
      <trkpt lat="45.25446" lon="5.02463">
        <ele>299.2</ele>
        <time>2021-05-03T11:31:42Z</time>
      </trkpt>
      <trkpt lat="45.25446" lon="5.02463">
        <ele>299.2</ele>
        <time>2021-05-03T11:31:43Z</time>
      </trkpt>
      <trkpt lat="45.25446" lon="5.02463">
        <ele>299.2</ele>
        <time>2021-05-03T11:31:44Z</time>
      </trkpt>
      <trkpt lat="45.25446" lon="5.02463">
        <ele>299.2</ele>
        <time>2021-05-03T11:31:45Z</time>
      </trkpt>
      <trkpt lat="45.25446" lon="5.02463">
        <ele>299.2</ele>
        <time>2021-05-03T11:31:46Z</time>
      </trkpt>
      <trkpt lat="45.25446" lon="5.02463">
        <ele>299.2</ele>
        <time>2021-05-03T11:31:47Z</time>
      </trkpt>
      <trkpt lat="45.25446" lon="5.02463">
        <ele>299.2</ele>
        <time>2021-05-03T11:31:48Z</time>
      </trkpt>
      <trkpt lat="45.25446" lon="5.02463">
        <ele>299.2</ele>
        <time>2021-05-03T11:31:49Z</time>
      </trkpt>
      <trkpt lat="45.25446" lon="5.02463">
        <ele>299.2</ele>
        <time>2021-05-03T11:31:50Z</time>
      </trkpt>
      <trkpt lat="45.25446" lon="5.02463">
        <ele>299.2</ele>
        <time>2021-05-03T11:31:51Z</time>
      </trkpt>
      <trkpt lat="45.25446" lon="5.02463">
        <ele>299.2</ele>
        <time>2021-05-03T11:31:52Z</time>
      </trkpt>
      <trkpt lat="45.25446" lon="5.02464">
        <ele>299.2</ele>
        <time>2021-05-03T11:31:53Z</time>
      </trkpt>
      <trkpt lat="45.25447" lon="5.02465">
        <ele>299.2</ele>
        <time>2021-05-03T11:31:54Z</time>
      </trkpt>
      <trkpt lat="45.25447" lon="5.02467">
        <ele>299.2</ele>
        <time>2021-05-03T11:31:55Z</time>
      </trkpt>
      <trkpt lat="45.25447" lon="5.02468">
        <ele>299.2</ele>
        <time>2021-05-03T11:31:56Z</time>
      </trkpt>
      <trkpt lat="45.25446" lon="5.02469">
        <ele>299.2</ele>
        <time>2021-05-03T11:31:57Z</time>
      </trkpt>
      <trkpt lat="45.25446" lon="5.02469">
        <ele>299.2</ele>
        <time>2021-05-03T11:31:58Z</time>
      </trkpt>
      <trkpt lat="45.25446" lon="5.0247">
        <ele>299.2</ele>
        <time>2021-05-03T11:31:59Z</time>
      </trkpt>
      <trkpt lat="45.25446" lon="5.0247">
        <ele>299.2</ele>
        <time>2021-05-03T11:32:00Z</time>
      </trkpt>
      <trkpt lat="45.25446" lon="5.0247">
        <ele>299.2</ele>
        <time>2021-05-03T11:32:01Z</time>
      </trkpt>
      <trkpt lat="45.25446" lon="5.02469">
        <ele>299.2</ele>
        <time>2021-05-03T11:32:02Z</time>
      </trkpt>
      <trkpt lat="45.25446" lon="5.02469">
        <ele>299.2</ele>
        <time>2021-05-03T11:32:03Z</time>
      </trkpt>
      <trkpt lat="45.25446" lon="5.02469">
        <ele>299.2</ele>
        <time>2021-05-03T11:32:04Z</time>
      </trkpt>
      <trkpt lat="45.25446" lon="5.02469">
        <ele>299.2</ele>
        <time>2021-05-03T11:32:05Z</time>
      </trkpt>
      <trkpt lat="45.25446" lon="5.02468">
        <ele>299.2</ele>
        <time>2021-05-03T11:32:06Z</time>
      </trkpt>
      <trkpt lat="45.25446" lon="5.02468">
        <ele>299.2</ele>
        <time>2021-05-03T11:32:07Z</time>
      </trkpt>
      <trkpt lat="45.25446" lon="5.02468">
        <ele>299.2</ele>
        <time>2021-05-03T11:32:08Z</time>
      </trkpt>
      <trkpt lat="45.25446" lon="5.02468">
        <ele>299.2</ele>
        <time>2021-05-03T11:32:09Z</time>
      </trkpt>
      <trkpt lat="45.25443" lon="5.02462">
        <ele>299.2</ele>
        <time>2021-05-03T11:37:35Z</time>
      </trkpt>
      <trkpt lat="45.25443" lon="5.02462">
        <ele>299.2</ele>
        <time>2021-05-03T11:37:36Z</time>
      </trkpt>
      <trkpt lat="45.25442" lon="5.02461">
        <ele>299.2</ele>
        <time>2021-05-03T11:37:37Z</time>
      </trkpt>
      <trkpt lat="45.25441" lon="5.0246">
        <ele>299.2</ele>
        <time>2021-05-03T11:37:38Z</time>
      </trkpt>
      <trkpt lat="45.25441" lon="5.02459">
        <ele>299.2</ele>
        <time>2021-05-03T11:37:39Z</time>
      </trkpt>
      <trkpt lat="45.25441" lon="5.02458">
        <ele>299.2</ele>
        <time>2021-05-03T11:37:40Z</time>
      </trkpt>
      <trkpt lat="45.2544" lon="5.02456">
        <ele>299.1</ele>
        <time>2021-05-03T11:37:41Z</time>
      </trkpt>
      <trkpt lat="45.25439" lon="5.02455">
        <ele>299.1</ele>
        <time>2021-05-03T11:37:42Z</time>
      </trkpt>
      <trkpt lat="45.25438" lon="5.02454">
        <ele>299.1</ele>
        <time>2021-05-03T11:37:43Z</time>
      </trkpt>
      <trkpt lat="45.25434" lon="5.02451">
        <ele>299.1</ele>
        <time>2021-05-03T11:37:45Z</time>
      </trkpt>
      <trkpt lat="45.25433" lon="5.02451">
        <ele>299.1</ele>
        <time>2021-05-03T11:37:46Z</time>
      </trkpt>
      <trkpt lat="45.25431" lon="5.02451">
        <ele>299.1</ele>
        <time>2021-05-03T11:37:47Z</time>
      </trkpt>
      <trkpt lat="45.25428" lon="5.02453">
        <ele>299.1</ele>
        <time>2021-05-03T11:37:48Z</time>
      </trkpt>
      <trkpt lat="45.25427" lon="5.02454">
        <ele>299.1</ele>
        <time>2021-05-03T11:37:49Z</time>
      </trkpt>
      <trkpt lat="45.25425" lon="5.02457">
        <ele>299.1</ele>
        <time>2021-05-03T11:37:50Z</time>
      </trkpt>
      <trkpt lat="45.25422" lon="5.02461">
        <ele>299.1</ele>
        <time>2021-05-03T11:37:51Z</time>
      </trkpt>
      <trkpt lat="45.2542" lon="5.02462">
        <ele>299.1</ele>
        <time>2021-05-03T11:37:52Z</time>
      </trkpt>
      <trkpt lat="45.25416" lon="5.02468">
        <ele>299.1</ele>
        <time>2021-05-03T11:37:53Z</time>
      </trkpt>
      <trkpt lat="45.25413" lon="5.02472">
        <ele>299.1</ele>
        <time>2021-05-03T11:37:55Z</time>
      </trkpt>
      <trkpt lat="45.25408" lon="5.02479">
        <ele>299.2</ele>
        <time>2021-05-03T11:37:56Z</time>
      </trkpt>
      <trkpt lat="45.25403" lon="5.02485">
        <ele>299.2</ele>
        <time>2021-05-03T11:37:58Z</time>
      </trkpt>
      <trkpt lat="45.25397" lon="5.02491">
        <ele>299.2</ele>
        <time>2021-05-03T11:38:00Z</time>
      </trkpt>
      <trkpt lat="45.25394" lon="5.02495">
        <ele>299.2</ele>
        <time>2021-05-03T11:38:01Z</time>
      </trkpt>
      <trkpt lat="45.2539" lon="5.025">
        <ele>299.3</ele>
        <time>2021-05-03T11:38:02Z</time>
      </trkpt>
      <trkpt lat="45.25384" lon="5.02506">
        <ele>299.3</ele>
        <time>2021-05-03T11:38:04Z</time>
      </trkpt>
      <trkpt lat="45.2538" lon="5.0251">
        <ele>299.3</ele>
        <time>2021-05-03T11:38:05Z</time>
      </trkpt>
      <trkpt lat="45.25375" lon="5.02516">
        <ele>299.4</ele>
        <time>2021-05-03T11:38:07Z</time>
      </trkpt>
      <trkpt lat="45.25372" lon="5.0252">
        <ele>299.4</ele>
        <time>2021-05-03T11:38:08Z</time>
      </trkpt>
      <trkpt lat="45.25369" lon="5.02524">
        <ele>299.5</ele>
        <time>2021-05-03T11:38:09Z</time>
      </trkpt>
      <trkpt lat="45.25366" lon="5.02528">
        <ele>299.5</ele>
        <time>2021-05-03T11:38:10Z</time>
      </trkpt>
      <trkpt lat="45.25363" lon="5.02532">
        <ele>299.5</ele>
        <time>2021-05-03T11:38:11Z</time>
      </trkpt>
      <trkpt lat="45.25359" lon="5.02536">
        <ele>299.5</ele>
        <time>2021-05-03T11:38:12Z</time>
      </trkpt>
      <trkpt lat="45.25353" lon="5.02543">
        <ele>299.5</ele>
        <time>2021-05-03T11:38:14Z</time>
      </trkpt>
      <trkpt lat="45.25347" lon="5.02549">
        <ele>299.5</ele>
        <time>2021-05-03T11:38:16Z</time>
      </trkpt>
      <trkpt lat="45.25345" lon="5.02551">
        <ele>299.5</ele>
        <time>2021-05-03T11:38:17Z</time>
      </trkpt>
      <trkpt lat="45.25342" lon="5.02554">
        <ele>299.5</ele>
        <time>2021-05-03T11:38:18Z</time>
      </trkpt>
      <trkpt lat="45.25338" lon="5.02558">
        <ele>299.5</ele>
        <time>2021-05-03T11:38:19Z</time>
      </trkpt>
      <trkpt lat="45.25334" lon="5.02562">
        <ele>299.5</ele>
        <time>2021-05-03T11:38:20Z</time>
      </trkpt>
      <trkpt lat="45.25327" lon="5.02569">
        <ele>299.4</ele>
        <time>2021-05-03T11:38:22Z</time>
      </trkpt>
      <trkpt lat="45.25323" lon="5.02573">
        <ele>299.4</ele>
        <time>2021-05-03T11:38:23Z</time>
      </trkpt>
      <trkpt lat="45.25319" lon="5.02577">
        <ele>299.4</ele>
        <time>2021-05-03T11:38:24Z</time>
      </trkpt>
      <trkpt lat="45.25315" lon="5.02582">
        <ele>299.3</ele>
        <time>2021-05-03T11:38:25Z</time>
      </trkpt>
      <trkpt lat="45.25311" lon="5.02586">
        <ele>299.3</ele>
        <time>2021-05-03T11:38:26Z</time>
      </trkpt>
      <trkpt lat="45.25307" lon="5.0259">
        <ele>299.3</ele>
        <time>2021-05-03T11:38:27Z</time>
      </trkpt>
      <trkpt lat="45.25303" lon="5.02594">
        <ele>299.3</ele>
        <time>2021-05-03T11:38:28Z</time>
      </trkpt>
      <trkpt lat="45.25298" lon="5.02599">
        <ele>299.3</ele>
        <time>2021-05-03T11:38:29Z</time>
      </trkpt>
      <trkpt lat="45.25294" lon="5.02603">
        <ele>299.3</ele>
        <time>2021-05-03T11:38:30Z</time>
      </trkpt>
      <trkpt lat="45.25291" lon="5.02608">
        <ele>299.3</ele>
        <time>2021-05-03T11:38:31Z</time>
      </trkpt>
      <trkpt lat="45.25288" lon="5.02612">
        <ele>299.3</ele>
        <time>2021-05-03T11:38:32Z</time>
      </trkpt>
      <trkpt lat="45.25284" lon="5.02616">
        <ele>299.3</ele>
        <time>2021-05-03T11:38:33Z</time>
      </trkpt>
      <trkpt lat="45.2528" lon="5.0262">
        <ele>299.3</ele>
        <time>2021-05-03T11:38:34Z</time>
      </trkpt>
      <trkpt lat="45.25277" lon="5.02624">
        <ele>299.3</ele>
        <time>2021-05-03T11:38:35Z</time>
      </trkpt>
      <trkpt lat="45.25275" lon="5.02626">
        <ele>299.3</ele>
        <time>2021-05-03T11:38:36Z</time>
      </trkpt>
      <trkpt lat="45.2527" lon="5.0263">
        <ele>299.3</ele>
        <time>2021-05-03T11:38:37Z</time>
      </trkpt>
      <trkpt lat="45.25266" lon="5.02635">
        <ele>299.4</ele>
        <time>2021-05-03T11:38:38Z</time>
      </trkpt>
      <trkpt lat="45.25262" lon="5.0264">
        <ele>299.4</ele>
        <time>2021-05-03T11:38:39Z</time>
      </trkpt>
      <trkpt lat="45.25259" lon="5.02644">
        <ele>299.4</ele>
        <time>2021-05-03T11:38:40Z</time>
      </trkpt>
      <trkpt lat="45.25256" lon="5.02649">
        <ele>299.4</ele>
        <time>2021-05-03T11:38:41Z</time>
      </trkpt>
      <trkpt lat="45.25252" lon="5.02654">
        <ele>299.4</ele>
        <time>2021-05-03T11:38:42Z</time>
      </trkpt>
      <trkpt lat="45.2525" lon="5.02657">
        <ele>299.4</ele>
        <time>2021-05-03T11:38:43Z</time>
      </trkpt>
      <trkpt lat="45.25246" lon="5.02662">
        <ele>299.4</ele>
        <time>2021-05-03T11:38:44Z</time>
      </trkpt>
      <trkpt lat="45.25238" lon="5.02671">
        <ele>299.5</ele>
        <time>2021-05-03T11:38:46Z</time>
      </trkpt>
      <trkpt lat="45.25235" lon="5.02675">
        <ele>299.5</ele>
        <time>2021-05-03T11:38:47Z</time>
      </trkpt>
      <trkpt lat="45.25232" lon="5.02679">
        <ele>299.5</ele>
        <time>2021-05-03T11:38:48Z</time>
      </trkpt>
      <trkpt lat="45.25228" lon="5.02685">
        <ele>299.5</ele>
        <time>2021-05-03T11:38:49Z</time>
      </trkpt>
      <trkpt lat="45.25222" lon="5.02691">
        <ele>299.5</ele>
        <time>2021-05-03T11:38:50Z</time>
      </trkpt>
      <trkpt lat="45.25223" lon="5.02692">
        <ele>299.5</ele>
        <time>2021-05-03T11:38:51Z</time>
      </trkpt>
      <trkpt lat="45.25218" lon="5.02697">
        <ele>299.6</ele>
        <time>2021-05-03T11:38:53Z</time>
      </trkpt>
      <trkpt lat="45.25207" lon="5.02706">
        <ele>299.7</ele>
        <time>2021-05-03T11:38:55Z</time>
      </trkpt>
      <trkpt lat="45.25203" lon="5.02707">
        <ele>299.7</ele>
        <time>2021-05-03T11:38:56Z</time>
      </trkpt>
      <trkpt lat="45.25196" lon="5.0271">
        <ele>299.8</ele>
        <time>2021-05-03T11:38:58Z</time>
      </trkpt>
      <trkpt lat="45.25187" lon="5.02724">
        <ele>299.9</ele>
        <time>2021-05-03T11:39:00Z</time>
      </trkpt>
      <trkpt lat="45.25183" lon="5.02729">
        <ele>299.9</ele>
        <time>2021-05-03T11:39:01Z</time>
      </trkpt>
      <trkpt lat="45.25179" lon="5.02733">
        <ele>300</ele>
        <time>2021-05-03T11:39:02Z</time>
      </trkpt>
      <trkpt lat="45.25176" lon="5.02738">
        <ele>300</ele>
        <time>2021-05-03T11:39:03Z</time>
      </trkpt>
      <trkpt lat="45.25172" lon="5.02743">
        <ele>300</ele>
        <time>2021-05-03T11:39:04Z</time>
      </trkpt>
      <trkpt lat="45.25169" lon="5.02747">
        <ele>300.1</ele>
        <time>2021-05-03T11:39:05Z</time>
      </trkpt>
      <trkpt lat="45.25166" lon="5.02752">
        <ele>300.1</ele>
        <time>2021-05-03T11:39:06Z</time>
      </trkpt>
      <trkpt lat="45.25164" lon="5.02754">
        <ele>300.1</ele>
        <time>2021-05-03T11:39:07Z</time>
      </trkpt>
      <trkpt lat="45.2516" lon="5.02759">
        <ele>300.1</ele>
        <time>2021-05-03T11:39:08Z</time>
      </trkpt>
      <trkpt lat="45.25156" lon="5.02763">
        <ele>300.1</ele>
        <time>2021-05-03T11:39:09Z</time>
      </trkpt>
      <trkpt lat="45.25152" lon="5.02768">
        <ele>300.1</ele>
        <time>2021-05-03T11:39:10Z</time>
      </trkpt>
      <trkpt lat="45.25148" lon="5.02772">
        <ele>300.1</ele>
        <time>2021-05-03T11:39:11Z</time>
      </trkpt>
      <trkpt lat="45.25144" lon="5.02777">
        <ele>300.1</ele>
        <time>2021-05-03T11:39:12Z</time>
      </trkpt>
      <trkpt lat="45.2514" lon="5.02781">
        <ele>300.1</ele>
        <time>2021-05-03T11:39:13Z</time>
      </trkpt>
      <trkpt lat="45.25136" lon="5.02785">
        <ele>300.1</ele>
        <time>2021-05-03T11:39:14Z</time>
      </trkpt>
      <trkpt lat="45.25131" lon="5.02789">
        <ele>300.1</ele>
        <time>2021-05-03T11:39:15Z</time>
      </trkpt>
      <trkpt lat="45.25127" lon="5.02793">
        <ele>300.2</ele>
        <time>2021-05-03T11:39:16Z</time>
      </trkpt>
      <trkpt lat="45.25123" lon="5.02796">
        <ele>300.2</ele>
        <time>2021-05-03T11:39:17Z</time>
      </trkpt>
      <trkpt lat="45.25118" lon="5.028">
        <ele>300.2</ele>
        <time>2021-05-03T11:39:18Z</time>
      </trkpt>
      <trkpt lat="45.25114" lon="5.02803">
        <ele>300.2</ele>
        <time>2021-05-03T11:39:19Z</time>
      </trkpt>
      <trkpt lat="45.25109" lon="5.02806">
        <ele>300.2</ele>
        <time>2021-05-03T11:39:20Z</time>
      </trkpt>
      <trkpt lat="45.25103" lon="5.02807">
        <ele>300.3</ele>
        <time>2021-05-03T11:39:21Z</time>
      </trkpt>
      <trkpt lat="45.25098" lon="5.02808">
        <ele>300.3</ele>
        <time>2021-05-03T11:39:22Z</time>
      </trkpt>
      <trkpt lat="45.25092" lon="5.02809">
        <ele>300.3</ele>
        <time>2021-05-03T11:39:23Z</time>
      </trkpt>
      <trkpt lat="45.25087" lon="5.02808">
        <ele>300.4</ele>
        <time>2021-05-03T11:39:24Z</time>
      </trkpt>
      <trkpt lat="45.25082" lon="5.02808">
        <ele>300.4</ele>
        <time>2021-05-03T11:39:25Z</time>
      </trkpt>
      <trkpt lat="45.25077" lon="5.02807">
        <ele>300.4</ele>
        <time>2021-05-03T11:39:26Z</time>
      </trkpt>
      <trkpt lat="45.25073" lon="5.02805">
        <ele>300.5</ele>
        <time>2021-05-03T11:39:27Z</time>
      </trkpt>
      <trkpt lat="45.25068" lon="5.02802">
        <ele>300.6</ele>
        <time>2021-05-03T11:39:28Z</time>
      </trkpt>
      <trkpt lat="45.25064" lon="5.02799">
        <ele>300.6</ele>
        <time>2021-05-03T11:39:29Z</time>
      </trkpt>
      <trkpt lat="45.25059" lon="5.02795">
        <ele>300.7</ele>
        <time>2021-05-03T11:39:30Z</time>
      </trkpt>
      <trkpt lat="45.25055" lon="5.02791">
        <ele>300.8</ele>
        <time>2021-05-03T11:39:31Z</time>
      </trkpt>
      <trkpt lat="45.25051" lon="5.02787">
        <ele>300.9</ele>
        <time>2021-05-03T11:39:32Z</time>
      </trkpt>
      <trkpt lat="45.25047" lon="5.02784">
        <ele>300.9</ele>
        <time>2021-05-03T11:39:33Z</time>
      </trkpt>
      <trkpt lat="45.25044" lon="5.0278">
        <ele>301</ele>
        <time>2021-05-03T11:39:34Z</time>
      </trkpt>
      <trkpt lat="45.2504" lon="5.02776">
        <ele>301.1</ele>
        <time>2021-05-03T11:39:35Z</time>
      </trkpt>
      <trkpt lat="45.25036" lon="5.02772">
        <ele>301.2</ele>
        <time>2021-05-03T11:39:36Z</time>
      </trkpt>
      <trkpt lat="45.25033" lon="5.02768">
        <ele>301.3</ele>
        <time>2021-05-03T11:39:37Z</time>
      </trkpt>
      <trkpt lat="45.25029" lon="5.02764">
        <ele>301.4</ele>
        <time>2021-05-03T11:39:38Z</time>
      </trkpt>
      <trkpt lat="45.25025" lon="5.02761">
        <ele>301.5</ele>
        <time>2021-05-03T11:39:39Z</time>
      </trkpt>
      <trkpt lat="45.25021" lon="5.02757">
        <ele>301.6</ele>
        <time>2021-05-03T11:39:40Z</time>
      </trkpt>
      <trkpt lat="45.25018" lon="5.02754">
        <ele>301.7</ele>
        <time>2021-05-03T11:39:41Z</time>
      </trkpt>
      <trkpt lat="45.25014" lon="5.0275">
        <ele>301.8</ele>
        <time>2021-05-03T11:39:42Z</time>
      </trkpt>
      <trkpt lat="45.2501" lon="5.02746">
        <ele>301.9</ele>
        <time>2021-05-03T11:39:43Z</time>
      </trkpt>
      <trkpt lat="45.25007" lon="5.02743">
        <ele>302</ele>
        <time>2021-05-03T11:39:44Z</time>
      </trkpt>
      <trkpt lat="45.25004" lon="5.02739">
        <ele>302.2</ele>
        <time>2021-05-03T11:39:45Z</time>
      </trkpt>
      <trkpt lat="45.25001" lon="5.02735">
        <ele>302.3</ele>
        <time>2021-05-03T11:39:46Z</time>
      </trkpt>
      <trkpt lat="45.24997" lon="5.02731">
        <ele>302.4</ele>
        <time>2021-05-03T11:39:47Z</time>
      </trkpt>
      <trkpt lat="45.24993" lon="5.02727">
        <ele>302.6</ele>
        <time>2021-05-03T11:39:48Z</time>
      </trkpt>
      <trkpt lat="45.2499" lon="5.02723">
        <ele>302.8</ele>
        <time>2021-05-03T11:39:49Z</time>
      </trkpt>
      <trkpt lat="45.24987" lon="5.02721">
        <ele>302.9</ele>
        <time>2021-05-03T11:39:50Z</time>
      </trkpt>
      <trkpt lat="45.24984" lon="5.02721">
        <ele>303</ele>
        <time>2021-05-03T11:39:51Z</time>
      </trkpt>
      <trkpt lat="45.24977" lon="5.0271">
        <ele>303.4</ele>
        <time>2021-05-03T11:39:53Z</time>
      </trkpt>
      <trkpt lat="45.24971" lon="5.02701">
        <ele>303.7</ele>
        <time>2021-05-03T11:39:55Z</time>
      </trkpt>
      <trkpt lat="45.24968" lon="5.02696">
        <ele>303.9</ele>
        <time>2021-05-03T11:39:56Z</time>
      </trkpt>
      <trkpt lat="45.24965" lon="5.0269">
        <ele>304.1</ele>
        <time>2021-05-03T11:39:57Z</time>
      </trkpt>
      <trkpt lat="45.24963" lon="5.02686">
        <ele>304.3</ele>
        <time>2021-05-03T11:39:58Z</time>
      </trkpt>
      <trkpt lat="45.24958" lon="5.02679">
        <ele>304.6</ele>
        <time>2021-05-03T11:40:00Z</time>
      </trkpt>
      <trkpt lat="45.24954" lon="5.0267">
        <ele>304.9</ele>
        <time>2021-05-03T11:40:02Z</time>
      </trkpt>
      <trkpt lat="45.24952" lon="5.02663">
        <ele>305.1</ele>
        <time>2021-05-03T11:40:03Z</time>
      </trkpt>
      <trkpt lat="45.2495" lon="5.02657">
        <ele>305.3</ele>
        <time>2021-05-03T11:40:05Z</time>
      </trkpt>
      <trkpt lat="45.24947" lon="5.02649">
        <ele>305.5</ele>
        <time>2021-05-03T11:40:06Z</time>
      </trkpt>
      <trkpt lat="45.24944" lon="5.02643">
        <ele>305.8</ele>
        <time>2021-05-03T11:40:08Z</time>
      </trkpt>
      <trkpt lat="45.24942" lon="5.02635">
        <ele>306</ele>
        <time>2021-05-03T11:40:10Z</time>
      </trkpt>
      <trkpt lat="45.2494" lon="5.02629">
        <ele>306.2</ele>
        <time>2021-05-03T11:40:11Z</time>
      </trkpt>
      <trkpt lat="45.24938" lon="5.02618">
        <ele>306.5</ele>
        <time>2021-05-03T11:40:13Z</time>
      </trkpt>
      <trkpt lat="45.24937" lon="5.02613">
        <ele>306.7</ele>
        <time>2021-05-03T11:40:14Z</time>
      </trkpt>
      <trkpt lat="45.24934" lon="5.02605">
        <ele>306.9</ele>
        <time>2021-05-03T11:40:16Z</time>
      </trkpt>
      <trkpt lat="45.24933" lon="5.026">
        <ele>307.1</ele>
        <time>2021-05-03T11:40:17Z</time>
      </trkpt>
      <trkpt lat="45.24932" lon="5.02592">
        <ele>307.3</ele>
        <time>2021-05-03T11:40:19Z</time>
      </trkpt>
      <trkpt lat="45.2493" lon="5.02585">
        <ele>307.5</ele>
        <time>2021-05-03T11:40:20Z</time>
      </trkpt>
      <trkpt lat="45.24929" lon="5.02577">
        <ele>307.8</ele>
        <time>2021-05-03T11:40:22Z</time>
      </trkpt>
      <trkpt lat="45.24928" lon="5.02571">
        <ele>308</ele>
        <time>2021-05-03T11:40:23Z</time>
      </trkpt>
      <trkpt lat="45.24926" lon="5.02563">
        <ele>308.2</ele>
        <time>2021-05-03T11:40:25Z</time>
      </trkpt>
      <trkpt lat="45.24924" lon="5.02558">
        <ele>308.4</ele>
        <time>2021-05-03T11:40:26Z</time>
      </trkpt>
      <trkpt lat="45.24919" lon="5.02548">
        <ele>308.7</ele>
        <time>2021-05-03T11:40:28Z</time>
      </trkpt>
      <trkpt lat="45.24916" lon="5.02541">
        <ele>309</ele>
        <time>2021-05-03T11:40:30Z</time>
      </trkpt>
      <trkpt lat="45.24913" lon="5.02538">
        <ele>309.1</ele>
        <time>2021-05-03T11:40:31Z</time>
      </trkpt>
      <trkpt lat="45.24911" lon="5.02535">
        <ele>309.2</ele>
        <time>2021-05-03T11:40:32Z</time>
      </trkpt>
      <trkpt lat="45.24907" lon="5.02531">
        <ele>309.4</ele>
        <time>2021-05-03T11:40:33Z</time>
      </trkpt>
      <trkpt lat="45.249" lon="5.02527">
        <ele>309.8</ele>
        <time>2021-05-03T11:40:35Z</time>
      </trkpt>
      <trkpt lat="45.24895" lon="5.02525">
        <ele>310</ele>
        <time>2021-05-03T11:40:37Z</time>
      </trkpt>
      <trkpt lat="45.24891" lon="5.02524">
        <ele>310.2</ele>
        <time>2021-05-03T11:40:38Z</time>
      </trkpt>
      <trkpt lat="45.24884" lon="5.02524">
        <ele>310.5</ele>
        <time>2021-05-03T11:40:40Z</time>
      </trkpt>
      <trkpt lat="45.24876" lon="5.02525">
        <ele>310.9</ele>
        <time>2021-05-03T11:40:42Z</time>
      </trkpt>
      <trkpt lat="45.24869" lon="5.02529">
        <ele>311.2</ele>
        <time>2021-05-03T11:40:44Z</time>
      </trkpt>
      <trkpt lat="45.24863" lon="5.02534">
        <ele>311.6</ele>
        <time>2021-05-03T11:40:46Z</time>
      </trkpt>
      <trkpt lat="45.24858" lon="5.02538">
        <ele>311.9</ele>
        <time>2021-05-03T11:40:48Z</time>
      </trkpt>
      <trkpt lat="45.24854" lon="5.02544">
        <ele>312.2</ele>
        <time>2021-05-03T11:40:50Z</time>
      </trkpt>
      <trkpt lat="45.24852" lon="5.02547">
        <ele>312.3</ele>
        <time>2021-05-03T11:40:51Z</time>
      </trkpt>
      <trkpt lat="45.24851" lon="5.02548">
        <ele>312.4</ele>
        <time>2021-05-03T11:40:52Z</time>
      </trkpt>
      <trkpt lat="45.24849" lon="5.0255">
        <ele>312.5</ele>
        <time>2021-05-03T11:40:53Z</time>
      </trkpt>
      <trkpt lat="45.24847" lon="5.02557">
        <ele>312.8</ele>
        <time>2021-05-03T11:40:55Z</time>
      </trkpt>
      <trkpt lat="45.24847" lon="5.02562">
        <ele>313</ele>
        <time>2021-05-03T11:40:56Z</time>
      </trkpt>
      <trkpt lat="45.24846" lon="5.02564">
        <ele>313.1</ele>
        <time>2021-05-03T11:40:57Z</time>
      </trkpt>
      <trkpt lat="45.24845" lon="5.02568">
        <ele>313.3</ele>
        <time>2021-05-03T11:40:59Z</time>
      </trkpt>
      <trkpt lat="45.24845" lon="5.02572">
        <ele>313.5</ele>
        <time>2021-05-03T11:41:00Z</time>
      </trkpt>
      <trkpt lat="45.24845" lon="5.02574">
        <ele>313.5</ele>
        <time>2021-05-03T11:41:01Z</time>
      </trkpt>
      <trkpt lat="45.24844" lon="5.02579">
        <ele>313.8</ele>
        <time>2021-05-03T11:41:02Z</time>
      </trkpt>
      <trkpt lat="45.24843" lon="5.02582">
        <ele>314</ele>
        <time>2021-05-03T11:41:03Z</time>
      </trkpt>
      <trkpt lat="45.24843" lon="5.02586">
        <ele>314.2</ele>
        <time>2021-05-03T11:41:05Z</time>
      </trkpt>
      <trkpt lat="45.24844" lon="5.02589">
        <ele>314.3</ele>
        <time>2021-05-03T11:41:06Z</time>
      </trkpt>
      <trkpt lat="45.24844" lon="5.02596">
        <ele>314.6</ele>
        <time>2021-05-03T11:41:08Z</time>
      </trkpt>
      <trkpt lat="45.24845" lon="5.02602">
        <ele>314.9</ele>
        <time>2021-05-03T11:41:09Z</time>
      </trkpt>
      <trkpt lat="45.24845" lon="5.02603">
        <ele>314.9</ele>
        <time>2021-05-03T11:41:10Z</time>
      </trkpt>
      <trkpt lat="45.24845" lon="5.02609">
        <ele>315.2</ele>
        <time>2021-05-03T11:41:11Z</time>
      </trkpt>
      <trkpt lat="45.24846" lon="5.02616">
        <ele>315.5</ele>
        <time>2021-05-03T11:41:13Z</time>
      </trkpt>
      <trkpt lat="45.24847" lon="5.02623">
        <ele>315.8</ele>
        <time>2021-05-03T11:41:15Z</time>
      </trkpt>
      <trkpt lat="45.24848" lon="5.02628">
        <ele>316</ele>
        <time>2021-05-03T11:41:16Z</time>
      </trkpt>
      <trkpt lat="45.24849" lon="5.0263">
        <ele>316.1</ele>
        <time>2021-05-03T11:41:17Z</time>
      </trkpt>
      <trkpt lat="45.24849" lon="5.02635">
        <ele>316.3</ele>
        <time>2021-05-03T11:41:18Z</time>
      </trkpt>
      <trkpt lat="45.24849" lon="5.02637">
        <ele>316.4</ele>
        <time>2021-05-03T11:41:19Z</time>
      </trkpt>
      <trkpt lat="45.2485" lon="5.02643">
        <ele>316.6</ele>
        <time>2021-05-03T11:41:20Z</time>
      </trkpt>
      <trkpt lat="45.24851" lon="5.02645">
        <ele>316.7</ele>
        <time>2021-05-03T11:41:21Z</time>
      </trkpt>
      <trkpt lat="45.24851" lon="5.0265">
        <ele>316.9</ele>
        <time>2021-05-03T11:41:22Z</time>
      </trkpt>
      <trkpt lat="45.24852" lon="5.02652">
        <ele>317</ele>
        <time>2021-05-03T11:41:23Z</time>
      </trkpt>
      <trkpt lat="45.24852" lon="5.02656">
        <ele>317.1</ele>
        <time>2021-05-03T11:41:24Z</time>
      </trkpt>
      <trkpt lat="45.24852" lon="5.0266">
        <ele>317.3</ele>
        <time>2021-05-03T11:41:25Z</time>
      </trkpt>
      <trkpt lat="45.24853" lon="5.02664">
        <ele>317.5</ele>
        <time>2021-05-03T11:41:26Z</time>
      </trkpt>
      <trkpt lat="45.24853" lon="5.02668">
        <ele>317.6</ele>
        <time>2021-05-03T11:41:27Z</time>
      </trkpt>
      <trkpt lat="45.24853" lon="5.02672">
        <ele>317.8</ele>
        <time>2021-05-03T11:41:28Z</time>
      </trkpt>
      <trkpt lat="45.24853" lon="5.02676">
        <ele>318</ele>
        <time>2021-05-03T11:41:29Z</time>
      </trkpt>
      <trkpt lat="45.24853" lon="5.0268">
        <ele>318.1</ele>
        <time>2021-05-03T11:41:30Z</time>
      </trkpt>
      <trkpt lat="45.24854" lon="5.02688">
        <ele>318.5</ele>
        <time>2021-05-03T11:41:32Z</time>
      </trkpt>
      <trkpt lat="45.24854" lon="5.02693">
        <ele>318.7</ele>
        <time>2021-05-03T11:41:33Z</time>
      </trkpt>
      <trkpt lat="45.24854" lon="5.02695">
        <ele>318.8</ele>
        <time>2021-05-03T11:41:34Z</time>
      </trkpt>
      <trkpt lat="45.24855" lon="5.02699">
        <ele>319</ele>
        <time>2021-05-03T11:41:35Z</time>
      </trkpt>
      <trkpt lat="45.24854" lon="5.02703">
        <ele>319.2</ele>
        <time>2021-05-03T11:41:36Z</time>
      </trkpt>
      <trkpt lat="45.24854" lon="5.02707">
        <ele>319.3</ele>
        <time>2021-05-03T11:41:37Z</time>
      </trkpt>
      <trkpt lat="45.24854" lon="5.02712">
        <ele>319.6</ele>
        <time>2021-05-03T11:41:38Z</time>
      </trkpt>
      <trkpt lat="45.24854" lon="5.02714">
        <ele>319.6</ele>
        <time>2021-05-03T11:41:39Z</time>
      </trkpt>
      <trkpt lat="45.24855" lon="5.02718">
        <ele>319.8</ele>
        <time>2021-05-03T11:41:40Z</time>
      </trkpt>
      <trkpt lat="45.24855" lon="5.02722">
        <ele>320</ele>
        <time>2021-05-03T11:41:41Z</time>
      </trkpt>
      <trkpt lat="45.24856" lon="5.02727">
        <ele>320.2</ele>
        <time>2021-05-03T11:41:42Z</time>
      </trkpt>
      <trkpt lat="45.24856" lon="5.02729">
        <ele>320.3</ele>
        <time>2021-05-03T11:41:43Z</time>
      </trkpt>
      <trkpt lat="45.24857" lon="5.02734">
        <ele>320.6</ele>
        <time>2021-05-03T11:41:44Z</time>
      </trkpt>
      <trkpt lat="45.24858" lon="5.02741">
        <ele>321</ele>
        <time>2021-05-03T11:41:46Z</time>
      </trkpt>
      <trkpt lat="45.24859" lon="5.02746">
        <ele>321.2</ele>
        <time>2021-05-03T11:41:47Z</time>
      </trkpt>
      <trkpt lat="45.24859" lon="5.02748">
        <ele>321.3</ele>
        <time>2021-05-03T11:41:48Z</time>
      </trkpt>
      <trkpt lat="45.24859" lon="5.02752">
        <ele>321.5</ele>
        <time>2021-05-03T11:41:49Z</time>
      </trkpt>
      <trkpt lat="45.24859" lon="5.02759">
        <ele>321.9</ele>
        <time>2021-05-03T11:41:51Z</time>
      </trkpt>
      <trkpt lat="45.24858" lon="5.02765">
        <ele>322.2</ele>
        <time>2021-05-03T11:41:53Z</time>
      </trkpt>
      <trkpt lat="45.24858" lon="5.0277">
        <ele>322.4</ele>
        <time>2021-05-03T11:41:54Z</time>
      </trkpt>
      <trkpt lat="45.24857" lon="5.02772">
        <ele>322.5</ele>
        <time>2021-05-03T11:41:55Z</time>
      </trkpt>
      <trkpt lat="45.24856" lon="5.02777">
        <ele>322.8</ele>
        <time>2021-05-03T11:41:56Z</time>
      </trkpt>
      <trkpt lat="45.24855" lon="5.02783">
        <ele>323.1</ele>
        <time>2021-05-03T11:41:58Z</time>
      </trkpt>
      <trkpt lat="45.24855" lon="5.02785">
        <ele>323.3</ele>
        <time>2021-05-03T11:41:59Z</time>
      </trkpt>
      <trkpt lat="45.24854" lon="5.02787">
        <ele>323.4</ele>
        <time>2021-05-03T11:42:00Z</time>
      </trkpt>
      <trkpt lat="45.24853" lon="5.02792">
        <ele>323.7</ele>
        <time>2021-05-03T11:42:01Z</time>
      </trkpt>
      <trkpt lat="45.24853" lon="5.02794">
        <ele>323.8</ele>
        <time>2021-05-03T11:42:02Z</time>
      </trkpt>
      <trkpt lat="45.24851" lon="5.02799">
        <ele>324.1</ele>
        <time>2021-05-03T11:42:03Z</time>
      </trkpt>
      <trkpt lat="45.24851" lon="5.02803">
        <ele>324.3</ele>
        <time>2021-05-03T11:42:05Z</time>
      </trkpt>
      <trkpt lat="45.2485" lon="5.02806">
        <ele>324.5</ele>
        <time>2021-05-03T11:42:06Z</time>
      </trkpt>
      <trkpt lat="45.24848" lon="5.02814">
        <ele>325</ele>
        <time>2021-05-03T11:42:08Z</time>
      </trkpt>
      <trkpt lat="45.24846" lon="5.02819">
        <ele>325.3</ele>
        <time>2021-05-03T11:42:10Z</time>
      </trkpt>
      <trkpt lat="45.24844" lon="5.02823">
        <ele>325.6</ele>
        <time>2021-05-03T11:42:11Z</time>
      </trkpt>
      <trkpt lat="45.24844" lon="5.02824">
        <ele>325.7</ele>
        <time>2021-05-03T11:42:12Z</time>
      </trkpt>
      <trkpt lat="45.24842" lon="5.02829">
        <ele>326</ele>
        <time>2021-05-03T11:42:13Z</time>
      </trkpt>
      <trkpt lat="45.24841" lon="5.0283">
        <ele>326.1</ele>
        <time>2021-05-03T11:42:14Z</time>
      </trkpt>
      <trkpt lat="45.2484" lon="5.02835">
        <ele>326.4</ele>
        <time>2021-05-03T11:42:15Z</time>
      </trkpt>
      <trkpt lat="45.2484" lon="5.02836">
        <ele>326.4</ele>
        <time>2021-05-03T11:42:16Z</time>
      </trkpt>
      <trkpt lat="45.24838" lon="5.02841">
        <ele>326.8</ele>
        <time>2021-05-03T11:42:17Z</time>
      </trkpt>
      <trkpt lat="45.24837" lon="5.02843">
        <ele>326.9</ele>
        <time>2021-05-03T11:42:18Z</time>
      </trkpt>
      <trkpt lat="45.24835" lon="5.02848">
        <ele>327.2</ele>
        <time>2021-05-03T11:42:20Z</time>
      </trkpt>
      <trkpt lat="45.24833" lon="5.02855">
        <ele>327.6</ele>
        <time>2021-05-03T11:42:22Z</time>
      </trkpt>
      <trkpt lat="45.24831" lon="5.02859">
        <ele>327.9</ele>
        <time>2021-05-03T11:42:23Z</time>
      </trkpt>
      <trkpt lat="45.24831" lon="5.0286">
        <ele>328</ele>
        <time>2021-05-03T11:42:24Z</time>
      </trkpt>
      <trkpt lat="45.24828" lon="5.02863">
        <ele>328.2</ele>
        <time>2021-05-03T11:42:25Z</time>
      </trkpt>
      <trkpt lat="45.24828" lon="5.02865">
        <ele>328.3</ele>
        <time>2021-05-03T11:42:26Z</time>
      </trkpt>
      <trkpt lat="45.24826" lon="5.02869">
        <ele>328.6</ele>
        <time>2021-05-03T11:42:27Z</time>
      </trkpt>
      <trkpt lat="45.24825" lon="5.0287">
        <ele>328.7</ele>
        <time>2021-05-03T11:42:28Z</time>
      </trkpt>
      <trkpt lat="45.24822" lon="5.02875">
        <ele>329.1</ele>
        <time>2021-05-03T11:42:30Z</time>
      </trkpt>
      <trkpt lat="45.2482" lon="5.02878">
        <ele>329.3</ele>
        <time>2021-05-03T11:42:31Z</time>
      </trkpt>
      <trkpt lat="45.24818" lon="5.02883">
        <ele>329.7</ele>
        <time>2021-05-03T11:42:33Z</time>
      </trkpt>
      <trkpt lat="45.24816" lon="5.02886">
        <ele>329.9</ele>
        <time>2021-05-03T11:42:34Z</time>
      </trkpt>
      <trkpt lat="45.24814" lon="5.02891">
        <ele>330.2</ele>
        <time>2021-05-03T11:42:35Z</time>
      </trkpt>
      <trkpt lat="45.2481" lon="5.02896">
        <ele>330.6</ele>
        <time>2021-05-03T11:42:37Z</time>
      </trkpt>
      <trkpt lat="45.24808" lon="5.029">
        <ele>330.9</ele>
        <time>2021-05-03T11:42:38Z</time>
      </trkpt>
      <trkpt lat="45.24804" lon="5.02905">
        <ele>331.3</ele>
        <time>2021-05-03T11:42:40Z</time>
      </trkpt>
      <trkpt lat="45.24801" lon="5.02911">
        <ele>331.7</ele>
        <time>2021-05-03T11:42:42Z</time>
      </trkpt>
      <trkpt lat="45.24798" lon="5.02915">
        <ele>332</ele>
        <time>2021-05-03T11:42:44Z</time>
      </trkpt>
      <trkpt lat="45.24795" lon="5.02917">
        <ele>332.3</ele>
        <time>2021-05-03T11:42:45Z</time>
      </trkpt>
      <trkpt lat="45.24792" lon="5.0292">
        <ele>332.6</ele>
        <time>2021-05-03T11:42:47Z</time>
      </trkpt>
      <trkpt lat="45.24788" lon="5.02921">
        <ele>332.9</ele>
        <time>2021-05-03T11:42:48Z</time>
      </trkpt>
      <trkpt lat="45.24787" lon="5.02922">
        <ele>333</ele>
        <time>2021-05-03T11:42:49Z</time>
      </trkpt>
      <trkpt lat="45.24785" lon="5.02925">
        <ele>333.3</ele>
        <time>2021-05-03T11:42:50Z</time>
      </trkpt>
      <trkpt lat="45.24784" lon="5.02925">
        <ele>333.4</ele>
        <time>2021-05-03T11:42:51Z</time>
      </trkpt>
      <trkpt lat="45.24781" lon="5.02927">
        <ele>333.6</ele>
        <time>2021-05-03T11:42:52Z</time>
      </trkpt>
      <trkpt lat="45.2478" lon="5.02928">
        <ele>333.7</ele>
        <time>2021-05-03T11:42:53Z</time>
      </trkpt>
      <trkpt lat="45.24777" lon="5.02929">
        <ele>334</ele>
        <time>2021-05-03T11:42:54Z</time>
      </trkpt>
      <trkpt lat="45.24776" lon="5.0293">
        <ele>334.1</ele>
        <time>2021-05-03T11:42:55Z</time>
      </trkpt>
      <trkpt lat="45.24773" lon="5.02931">
        <ele>334.3</ele>
        <time>2021-05-03T11:42:56Z</time>
      </trkpt>
      <trkpt lat="45.24772" lon="5.02932">
        <ele>334.4</ele>
        <time>2021-05-03T11:42:57Z</time>
      </trkpt>
      <trkpt lat="45.24769" lon="5.02933">
        <ele>334.7</ele>
        <time>2021-05-03T11:42:58Z</time>
      </trkpt>
      <trkpt lat="45.24768" lon="5.02934">
        <ele>334.8</ele>
        <time>2021-05-03T11:42:59Z</time>
      </trkpt>
      <trkpt lat="45.24765" lon="5.02936">
        <ele>335</ele>
        <time>2021-05-03T11:43:00Z</time>
      </trkpt>
      <trkpt lat="45.24764" lon="5.02936">
        <ele>335.1</ele>
        <time>2021-05-03T11:43:01Z</time>
      </trkpt>
      <trkpt lat="45.24761" lon="5.02938">
        <ele>335.4</ele>
        <time>2021-05-03T11:43:02Z</time>
      </trkpt>
      <trkpt lat="45.2476" lon="5.02938">
        <ele>335.4</ele>
        <time>2021-05-03T11:43:03Z</time>
      </trkpt>
      <trkpt lat="45.24757" lon="5.0294">
        <ele>335.7</ele>
        <time>2021-05-03T11:43:04Z</time>
      </trkpt>
      <trkpt lat="45.24756" lon="5.0294">
        <ele>335.8</ele>
        <time>2021-05-03T11:43:05Z</time>
      </trkpt>
      <trkpt lat="45.24754" lon="5.02942">
        <ele>336</ele>
        <time>2021-05-03T11:43:06Z</time>
      </trkpt>
      <trkpt lat="45.24753" lon="5.02943">
        <ele>336.1</ele>
        <time>2021-05-03T11:43:07Z</time>
      </trkpt>
      <trkpt lat="45.24751" lon="5.02945">
        <ele>336.4</ele>
        <time>2021-05-03T11:43:08Z</time>
      </trkpt>
      <trkpt lat="45.2475" lon="5.02945">
        <ele>336.4</ele>
        <time>2021-05-03T11:43:09Z</time>
      </trkpt>
      <trkpt lat="45.24747" lon="5.02947">
        <ele>336.7</ele>
        <time>2021-05-03T11:43:10Z</time>
      </trkpt>
      <trkpt lat="45.24746" lon="5.02947">
        <ele>336.8</ele>
        <time>2021-05-03T11:43:11Z</time>
      </trkpt>
      <trkpt lat="45.24742" lon="5.02948">
        <ele>337.1</ele>
        <time>2021-05-03T11:43:12Z</time>
      </trkpt>
      <trkpt lat="45.2474" lon="5.02949">
        <ele>337.3</ele>
        <time>2021-05-03T11:43:13Z</time>
      </trkpt>
      <trkpt lat="45.24736" lon="5.0295">
        <ele>337.6</ele>
        <time>2021-05-03T11:43:15Z</time>
      </trkpt>
      <trkpt lat="45.24733" lon="5.02951">
        <ele>337.9</ele>
        <time>2021-05-03T11:43:16Z</time>
      </trkpt>
      <trkpt lat="45.24732" lon="5.02952">
        <ele>338</ele>
        <time>2021-05-03T11:43:17Z</time>
      </trkpt>
      <trkpt lat="45.24729" lon="5.02954">
        <ele>338.3</ele>
        <time>2021-05-03T11:43:18Z</time>
      </trkpt>
      <trkpt lat="45.24727" lon="5.02954">
        <ele>338.4</ele>
        <time>2021-05-03T11:43:19Z</time>
      </trkpt>
      <trkpt lat="45.24724" lon="5.02956">
        <ele>338.7</ele>
        <time>2021-05-03T11:43:20Z</time>
      </trkpt>
      <trkpt lat="45.24723" lon="5.02956">
        <ele>338.7</ele>
        <time>2021-05-03T11:43:21Z</time>
      </trkpt>
      <trkpt lat="45.24719" lon="5.02958">
        <ele>339.1</ele>
        <time>2021-05-03T11:43:22Z</time>
      </trkpt>
      <trkpt lat="45.24717" lon="5.02959">
        <ele>339.2</ele>
        <time>2021-05-03T11:43:23Z</time>
      </trkpt>
      <trkpt lat="45.24713" lon="5.02961">
        <ele>339.6</ele>
        <time>2021-05-03T11:43:25Z</time>
      </trkpt>
      <trkpt lat="45.2471" lon="5.02963">
        <ele>339.8</ele>
        <time>2021-05-03T11:43:26Z</time>
      </trkpt>
      <trkpt lat="45.24709" lon="5.02963">
        <ele>339.9</ele>
        <time>2021-05-03T11:43:27Z</time>
      </trkpt>
      <trkpt lat="45.24705" lon="5.02964">
        <ele>340.2</ele>
        <time>2021-05-03T11:43:28Z</time>
      </trkpt>
      <trkpt lat="45.24704" lon="5.02964">
        <ele>340.3</ele>
        <time>2021-05-03T11:43:29Z</time>
      </trkpt>
      <trkpt lat="45.24702" lon="5.02965">
        <ele>340.5</ele>
        <time>2021-05-03T11:43:30Z</time>
      </trkpt>
      <trkpt lat="45.24698" lon="5.02968">
        <ele>340.9</ele>
        <time>2021-05-03T11:43:32Z</time>
      </trkpt>
      <trkpt lat="45.24695" lon="5.0297">
        <ele>341.1</ele>
        <time>2021-05-03T11:43:33Z</time>
      </trkpt>
      <trkpt lat="45.24694" lon="5.02971">
        <ele>341.2</ele>
        <time>2021-05-03T11:43:34Z</time>
      </trkpt>
      <trkpt lat="45.2469" lon="5.02973">
        <ele>341.6</ele>
        <time>2021-05-03T11:43:35Z</time>
      </trkpt>
      <trkpt lat="45.24688" lon="5.02973">
        <ele>341.7</ele>
        <time>2021-05-03T11:43:36Z</time>
      </trkpt>
      <trkpt lat="45.24682" lon="5.02976">
        <ele>342.3</ele>
        <time>2021-05-03T11:43:38Z</time>
      </trkpt>
      <trkpt lat="45.24678" lon="5.02979">
        <ele>342.7</ele>
        <time>2021-05-03T11:43:39Z</time>
      </trkpt>
      <trkpt lat="45.24673" lon="5.02982">
        <ele>343.1</ele>
        <time>2021-05-03T11:43:41Z</time>
      </trkpt>
      <trkpt lat="45.24671" lon="5.02984">
        <ele>343.3</ele>
        <time>2021-05-03T11:43:42Z</time>
      </trkpt>
      <trkpt lat="45.24668" lon="5.02988">
        <ele>343.7</ele>
        <time>2021-05-03T11:43:44Z</time>
      </trkpt>
      <trkpt lat="45.24665" lon="5.02991">
        <ele>344</ele>
        <time>2021-05-03T11:43:45Z</time>
      </trkpt>
      <trkpt lat="45.24664" lon="5.02993">
        <ele>344.1</ele>
        <time>2021-05-03T11:43:46Z</time>
      </trkpt>
      <trkpt lat="45.2466" lon="5.02997">
        <ele>344.5</ele>
        <time>2021-05-03T11:43:48Z</time>
      </trkpt>
      <trkpt lat="45.24658" lon="5.03001">
        <ele>344.8</ele>
        <time>2021-05-03T11:43:49Z</time>
      </trkpt>
      <trkpt lat="45.24657" lon="5.03002">
        <ele>344.8</ele>
        <time>2021-05-03T11:43:50Z</time>
      </trkpt>
      <trkpt lat="45.24655" lon="5.03006">
        <ele>345.1</ele>
        <time>2021-05-03T11:43:51Z</time>
      </trkpt>
      <trkpt lat="45.24654" lon="5.03007">
        <ele>345.2</ele>
        <time>2021-05-03T11:43:52Z</time>
      </trkpt>
      <trkpt lat="45.24651" lon="5.0301">
        <ele>345.5</ele>
        <time>2021-05-03T11:43:53Z</time>
      </trkpt>
      <trkpt lat="45.24648" lon="5.03016">
        <ele>345.9</ele>
        <time>2021-05-03T11:43:55Z</time>
      </trkpt>
      <trkpt lat="45.24646" lon="5.03021">
        <ele>346.2</ele>
        <time>2021-05-03T11:43:56Z</time>
      </trkpt>
      <trkpt lat="45.24645" lon="5.03022">
        <ele>346.3</ele>
        <time>2021-05-03T11:43:57Z</time>
      </trkpt>
      <trkpt lat="45.24643" lon="5.03027">
        <ele>346.6</ele>
        <time>2021-05-03T11:43:59Z</time>
      </trkpt>
      <trkpt lat="45.24641" lon="5.03031">
        <ele>346.8</ele>
        <time>2021-05-03T11:44:00Z</time>
      </trkpt>
      <trkpt lat="45.2464" lon="5.03033">
        <ele>346.9</ele>
        <time>2021-05-03T11:44:01Z</time>
      </trkpt>
      <trkpt lat="45.24638" lon="5.03037">
        <ele>347.2</ele>
        <time>2021-05-03T11:44:02Z</time>
      </trkpt>
      <trkpt lat="45.24637" lon="5.03038">
        <ele>347.2</ele>
        <time>2021-05-03T11:44:03Z</time>
      </trkpt>
      <trkpt lat="45.24635" lon="5.03042">
        <ele>347.5</ele>
        <time>2021-05-03T11:44:04Z</time>
      </trkpt>
      <trkpt lat="45.24634" lon="5.03043">
        <ele>347.5</ele>
        <time>2021-05-03T11:44:05Z</time>
      </trkpt>
      <trkpt lat="45.24632" lon="5.03046">
        <ele>347.8</ele>
        <time>2021-05-03T11:44:06Z</time>
      </trkpt>
      <trkpt lat="45.24631" lon="5.03047">
        <ele>347.8</ele>
        <time>2021-05-03T11:44:07Z</time>
      </trkpt>
      <trkpt lat="45.2463" lon="5.03051">
        <ele>348</ele>
        <time>2021-05-03T11:44:08Z</time>
      </trkpt>
      <trkpt lat="45.24628" lon="5.03054">
        <ele>348.2</ele>
        <time>2021-05-03T11:44:09Z</time>
      </trkpt>
      <trkpt lat="45.24625" lon="5.03059">
        <ele>348.5</ele>
        <time>2021-05-03T11:44:11Z</time>
      </trkpt>
      <trkpt lat="45.24623" lon="5.03061">
        <ele>348.7</ele>
        <time>2021-05-03T11:44:12Z</time>
      </trkpt>
      <trkpt lat="45.2462" lon="5.03066">
        <ele>349.1</ele>
        <time>2021-05-03T11:44:14Z</time>
      </trkpt>
      <trkpt lat="45.24618" lon="5.03069">
        <ele>349.3</ele>
        <time>2021-05-03T11:44:15Z</time>
      </trkpt>
      <trkpt lat="45.24615" lon="5.03074">
        <ele>349.6</ele>
        <time>2021-05-03T11:44:17Z</time>
      </trkpt>
      <trkpt lat="45.24612" lon="5.03077">
        <ele>349.8</ele>
        <time>2021-05-03T11:44:18Z</time>
      </trkpt>
      <trkpt lat="45.24611" lon="5.03079">
        <ele>349.9</ele>
        <time>2021-05-03T11:44:19Z</time>
      </trkpt>
      <trkpt lat="45.24609" lon="5.03083">
        <ele>350.1</ele>
        <time>2021-05-03T11:44:20Z</time>
      </trkpt>
      <trkpt lat="45.24608" lon="5.03084">
        <ele>350.2</ele>
        <time>2021-05-03T11:44:21Z</time>
      </trkpt>
      <trkpt lat="45.24605" lon="5.03088">
        <ele>350.4</ele>
        <time>2021-05-03T11:44:22Z</time>
      </trkpt>
      <trkpt lat="45.24605" lon="5.03089">
        <ele>350.4</ele>
        <time>2021-05-03T11:44:23Z</time>
      </trkpt>
      <trkpt lat="45.24602" lon="5.03093">
        <ele>350.7</ele>
        <time>2021-05-03T11:44:24Z</time>
      </trkpt>
      <trkpt lat="45.24601" lon="5.03094">
        <ele>350.7</ele>
        <time>2021-05-03T11:44:25Z</time>
      </trkpt>
      <trkpt lat="45.246" lon="5.03097">
        <ele>350.9</ele>
        <time>2021-05-03T11:44:26Z</time>
      </trkpt>
      <trkpt lat="45.24596" lon="5.03102">
        <ele>351.2</ele>
        <time>2021-05-03T11:44:28Z</time>
      </trkpt>
      <trkpt lat="45.24593" lon="5.03106">
        <ele>351.4</ele>
        <time>2021-05-03T11:44:29Z</time>
      </trkpt>
      <trkpt lat="45.24592" lon="5.03107">
        <ele>351.4</ele>
        <time>2021-05-03T11:44:30Z</time>
      </trkpt>
      <trkpt lat="45.2459" lon="5.0311">
        <ele>351.6</ele>
        <time>2021-05-03T11:44:31Z</time>
      </trkpt>
      <trkpt lat="45.24588" lon="5.03113">
        <ele>351.8</ele>
        <time>2021-05-03T11:44:32Z</time>
      </trkpt>
      <trkpt lat="45.24585" lon="5.03115">
        <ele>351.9</ele>
        <time>2021-05-03T11:44:33Z</time>
      </trkpt>
      <trkpt lat="45.24583" lon="5.03118">
        <ele>352.1</ele>
        <time>2021-05-03T11:44:34Z</time>
      </trkpt>
      <trkpt lat="45.24581" lon="5.03121">
        <ele>352.3</ele>
        <time>2021-05-03T11:44:35Z</time>
      </trkpt>
      <trkpt lat="45.24579" lon="5.03122">
        <ele>352.4</ele>
        <time>2021-05-03T11:44:36Z</time>
      </trkpt>
      <trkpt lat="45.24577" lon="5.03124">
        <ele>352.5</ele>
        <time>2021-05-03T11:44:37Z</time>
      </trkpt>
      <trkpt lat="45.24574" lon="5.03127">
        <ele>352.7</ele>
        <time>2021-05-03T11:44:38Z</time>
      </trkpt>
      <trkpt lat="45.24573" lon="5.03128">
        <ele>352.8</ele>
        <time>2021-05-03T11:44:39Z</time>
      </trkpt>
      <trkpt lat="45.24571" lon="5.0313">
        <ele>352.9</ele>
        <time>2021-05-03T11:44:40Z</time>
      </trkpt>
      <trkpt lat="45.24566" lon="5.03134">
        <ele>353.2</ele>
        <time>2021-05-03T11:44:42Z</time>
      </trkpt>
      <trkpt lat="45.24564" lon="5.03136">
        <ele>353.4</ele>
        <time>2021-05-03T11:44:43Z</time>
      </trkpt>
      <trkpt lat="45.24561" lon="5.03138">
        <ele>353.5</ele>
        <time>2021-05-03T11:44:44Z</time>
      </trkpt>
      <trkpt lat="45.24558" lon="5.0314">
        <ele>353.7</ele>
        <time>2021-05-03T11:44:45Z</time>
      </trkpt>
      <trkpt lat="45.24556" lon="5.03141">
        <ele>353.8</ele>
        <time>2021-05-03T11:44:46Z</time>
      </trkpt>
      <trkpt lat="45.24554" lon="5.03143">
        <ele>354</ele>
        <time>2021-05-03T11:44:47Z</time>
      </trkpt>
      <trkpt lat="45.24551" lon="5.03144">
        <ele>354.1</ele>
        <time>2021-05-03T11:44:48Z</time>
      </trkpt>
      <trkpt lat="45.24547" lon="5.03146">
        <ele>354.4</ele>
        <time>2021-05-03T11:44:49Z</time>
      </trkpt>
      <trkpt lat="45.24546" lon="5.03147">
        <ele>354.5</ele>
        <time>2021-05-03T11:44:50Z</time>
      </trkpt>
      <trkpt lat="45.24543" lon="5.03149">
        <ele>354.6</ele>
        <time>2021-05-03T11:44:51Z</time>
      </trkpt>
      <trkpt lat="45.24541" lon="5.0315">
        <ele>354.8</ele>
        <time>2021-05-03T11:44:52Z</time>
      </trkpt>
      <trkpt lat="45.24537" lon="5.03152">
        <ele>355</ele>
        <time>2021-05-03T11:44:53Z</time>
      </trkpt>
      <trkpt lat="45.24536" lon="5.03152">
        <ele>355</ele>
        <time>2021-05-03T11:44:54Z</time>
      </trkpt>
      <trkpt lat="45.24534" lon="5.03154">
        <ele>355.2</ele>
        <time>2021-05-03T11:44:55Z</time>
      </trkpt>
      <trkpt lat="45.24531" lon="5.03156">
        <ele>355.4</ele>
        <time>2021-05-03T11:44:56Z</time>
      </trkpt>
      <trkpt lat="45.24526" lon="5.03157">
        <ele>355.7</ele>
        <time>2021-05-03T11:44:58Z</time>
      </trkpt>
      <trkpt lat="45.24522" lon="5.03159">
        <ele>356</ele>
        <time>2021-05-03T11:44:59Z</time>
      </trkpt>
      <trkpt lat="45.24521" lon="5.03159">
        <ele>356</ele>
        <time>2021-05-03T11:45:00Z</time>
      </trkpt>
      <trkpt lat="45.24518" lon="5.03161">
        <ele>356.3</ele>
        <time>2021-05-03T11:45:01Z</time>
      </trkpt>
      <trkpt lat="45.24516" lon="5.03161">
        <ele>356.4</ele>
        <time>2021-05-03T11:45:02Z</time>
      </trkpt>
      <trkpt lat="45.24513" lon="5.03162">
        <ele>356.6</ele>
        <time>2021-05-03T11:45:03Z</time>
      </trkpt>
      <trkpt lat="45.24507" lon="5.03164">
        <ele>357</ele>
        <time>2021-05-03T11:45:05Z</time>
      </trkpt>
      <trkpt lat="45.24502" lon="5.03166">
        <ele>357.3</ele>
        <time>2021-05-03T11:45:07Z</time>
      </trkpt>
      <trkpt lat="45.24499" lon="5.03167">
        <ele>357.5</ele>
        <time>2021-05-03T11:45:08Z</time>
      </trkpt>
      <trkpt lat="45.24494" lon="5.03169">
        <ele>357.8</ele>
        <time>2021-05-03T11:45:10Z</time>
      </trkpt>
      <trkpt lat="45.24491" lon="5.03171">
        <ele>358</ele>
        <time>2021-05-03T11:45:11Z</time>
      </trkpt>
      <trkpt lat="45.24485" lon="5.03172">
        <ele>358.3</ele>
        <time>2021-05-03T11:45:13Z</time>
      </trkpt>
      <trkpt lat="45.24482" lon="5.03173">
        <ele>358.5</ele>
        <time>2021-05-03T11:45:14Z</time>
      </trkpt>
      <trkpt lat="45.24477" lon="5.03174">
        <ele>358.8</ele>
        <time>2021-05-03T11:45:16Z</time>
      </trkpt>
      <trkpt lat="45.24475" lon="5.03175">
        <ele>359</ele>
        <time>2021-05-03T11:45:17Z</time>
      </trkpt>
      <trkpt lat="45.24469" lon="5.03177">
        <ele>359.3</ele>
        <time>2021-05-03T11:45:19Z</time>
      </trkpt>
      <trkpt lat="45.24466" lon="5.03178">
        <ele>359.5</ele>
        <time>2021-05-03T11:45:20Z</time>
      </trkpt>
      <trkpt lat="45.24464" lon="5.03178">
        <ele>359.6</ele>
        <time>2021-05-03T11:45:21Z</time>
      </trkpt>
      <trkpt lat="45.24461" lon="5.03178">
        <ele>359.7</ele>
        <time>2021-05-03T11:45:22Z</time>
      </trkpt>
      <trkpt lat="45.24458" lon="5.03177">
        <ele>359.9</ele>
        <time>2021-05-03T11:45:23Z</time>
      </trkpt>
      <trkpt lat="45.24455" lon="5.03177">
        <ele>360.1</ele>
        <time>2021-05-03T11:45:24Z</time>
      </trkpt>
      <trkpt lat="45.24451" lon="5.03177">
        <ele>360.3</ele>
        <time>2021-05-03T11:45:25Z</time>
      </trkpt>
      <trkpt lat="45.2445" lon="5.03177">
        <ele>360.4</ele>
        <time>2021-05-03T11:45:26Z</time>
      </trkpt>
      <trkpt lat="45.24447" lon="5.03177">
        <ele>360.5</ele>
        <time>2021-05-03T11:45:27Z</time>
      </trkpt>
      <trkpt lat="45.24444" lon="5.03176">
        <ele>360.7</ele>
        <time>2021-05-03T11:45:28Z</time>
      </trkpt>
      <trkpt lat="45.24441" lon="5.03177">
        <ele>360.8</ele>
        <time>2021-05-03T11:45:29Z</time>
      </trkpt>
      <trkpt lat="45.24438" lon="5.03179">
        <ele>361</ele>
        <time>2021-05-03T11:45:30Z</time>
      </trkpt>
      <trkpt lat="45.24435" lon="5.0318">
        <ele>361.2</ele>
        <time>2021-05-03T11:45:31Z</time>
      </trkpt>
      <trkpt lat="45.24431" lon="5.03181">
        <ele>361.4</ele>
        <time>2021-05-03T11:45:32Z</time>
      </trkpt>
      <trkpt lat="45.24425" lon="5.03183">
        <ele>361.7</ele>
        <time>2021-05-03T11:45:34Z</time>
      </trkpt>
      <trkpt lat="45.24422" lon="5.03184">
        <ele>361.9</ele>
        <time>2021-05-03T11:45:35Z</time>
      </trkpt>
      <trkpt lat="45.24416" lon="5.03187">
        <ele>362.2</ele>
        <time>2021-05-03T11:45:37Z</time>
      </trkpt>
      <trkpt lat="45.24411" lon="5.03189">
        <ele>362.5</ele>
        <time>2021-05-03T11:45:39Z</time>
      </trkpt>
      <trkpt lat="45.24408" lon="5.0319">
        <ele>362.6</ele>
        <time>2021-05-03T11:45:40Z</time>
      </trkpt>
      <trkpt lat="45.24405" lon="5.03191">
        <ele>362.8</ele>
        <time>2021-05-03T11:45:41Z</time>
      </trkpt>
      <trkpt lat="45.24402" lon="5.03192">
        <ele>363</ele>
        <time>2021-05-03T11:45:42Z</time>
      </trkpt>
      <trkpt lat="45.24399" lon="5.03193">
        <ele>363.2</ele>
        <time>2021-05-03T11:45:43Z</time>
      </trkpt>
      <trkpt lat="45.24395" lon="5.03194">
        <ele>363.4</ele>
        <time>2021-05-03T11:45:44Z</time>
      </trkpt>
      <trkpt lat="45.24389" lon="5.03198">
        <ele>363.8</ele>
        <time>2021-05-03T11:45:46Z</time>
      </trkpt>
      <trkpt lat="45.24384" lon="5.032">
        <ele>364.1</ele>
        <time>2021-05-03T11:45:48Z</time>
      </trkpt>
      <trkpt lat="45.24381" lon="5.03201">
        <ele>364.3</ele>
        <time>2021-05-03T11:45:49Z</time>
      </trkpt>
      <trkpt lat="45.24378" lon="5.03203">
        <ele>364.5</ele>
        <time>2021-05-03T11:45:50Z</time>
      </trkpt>
      <trkpt lat="45.24375" lon="5.03205">
        <ele>364.7</ele>
        <time>2021-05-03T11:45:51Z</time>
      </trkpt>
      <trkpt lat="45.24371" lon="5.03207">
        <ele>364.9</ele>
        <time>2021-05-03T11:45:53Z</time>
      </trkpt>
      <trkpt lat="45.24367" lon="5.03209">
        <ele>365.2</ele>
        <time>2021-05-03T11:45:54Z</time>
      </trkpt>
      <trkpt lat="45.24365" lon="5.0321">
        <ele>365.3</ele>
        <time>2021-05-03T11:45:55Z</time>
      </trkpt>
      <trkpt lat="45.2436" lon="5.03214">
        <ele>365.6</ele>
        <time>2021-05-03T11:45:57Z</time>
      </trkpt>
      <trkpt lat="45.24356" lon="5.03218">
        <ele>365.9</ele>
        <time>2021-05-03T11:45:58Z</time>
      </trkpt>
      <trkpt lat="45.24352" lon="5.03222">
        <ele>366.1</ele>
        <time>2021-05-03T11:46:00Z</time>
      </trkpt>
      <trkpt lat="45.24348" lon="5.03228">
        <ele>366.4</ele>
        <time>2021-05-03T11:46:02Z</time>
      </trkpt>
      <trkpt lat="45.24343" lon="5.03235">
        <ele>366.8</ele>
        <time>2021-05-03T11:46:04Z</time>
      </trkpt>
      <trkpt lat="45.24339" lon="5.03242">
        <ele>367.1</ele>
        <time>2021-05-03T11:46:06Z</time>
      </trkpt>
      <trkpt lat="45.24336" lon="5.03246">
        <ele>367.3</ele>
        <time>2021-05-03T11:46:07Z</time>
      </trkpt>
      <trkpt lat="45.24335" lon="5.03248">
        <ele>367.3</ele>
        <time>2021-05-03T11:46:08Z</time>
      </trkpt>
      <trkpt lat="45.24333" lon="5.03251">
        <ele>367.5</ele>
        <time>2021-05-03T11:46:09Z</time>
      </trkpt>
      <trkpt lat="45.2433" lon="5.03254">
        <ele>367.6</ele>
        <time>2021-05-03T11:46:10Z</time>
      </trkpt>
      <trkpt lat="45.24328" lon="5.03257">
        <ele>367.8</ele>
        <time>2021-05-03T11:46:11Z</time>
      </trkpt>
      <trkpt lat="45.24326" lon="5.0326">
        <ele>367.9</ele>
        <time>2021-05-03T11:46:12Z</time>
      </trkpt>
      <trkpt lat="45.24322" lon="5.03264">
        <ele>368.2</ele>
        <time>2021-05-03T11:46:13Z</time>
      </trkpt>
      <trkpt lat="45.24319" lon="5.03267">
        <ele>368.3</ele>
        <time>2021-05-03T11:46:15Z</time>
      </trkpt>
      <trkpt lat="45.24314" lon="5.03271">
        <ele>368.6</ele>
        <time>2021-05-03T11:46:16Z</time>
      </trkpt>
      <trkpt lat="45.2431" lon="5.03275">
        <ele>368.8</ele>
        <time>2021-05-03T11:46:18Z</time>
      </trkpt>
      <trkpt lat="45.24305" lon="5.0328">
        <ele>369.2</ele>
        <time>2021-05-03T11:46:20Z</time>
      </trkpt>
      <trkpt lat="45.24301" lon="5.03282">
        <ele>369.4</ele>
        <time>2021-05-03T11:46:21Z</time>
      </trkpt>
      <trkpt lat="45.24296" lon="5.03285">
        <ele>369.7</ele>
        <time>2021-05-03T11:46:23Z</time>
      </trkpt>
      <trkpt lat="45.2429" lon="5.03288">
        <ele>370</ele>
        <time>2021-05-03T11:46:25Z</time>
      </trkpt>
      <trkpt lat="45.24287" lon="5.03289">
        <ele>370.1</ele>
        <time>2021-05-03T11:46:26Z</time>
      </trkpt>
      <trkpt lat="45.24283" lon="5.03291">
        <ele>370.3</ele>
        <time>2021-05-03T11:46:27Z</time>
      </trkpt>
      <trkpt lat="45.24282" lon="5.03291">
        <ele>370.4</ele>
        <time>2021-05-03T11:46:28Z</time>
      </trkpt>
      <trkpt lat="45.24276" lon="5.03293">
        <ele>370.7</ele>
        <time>2021-05-03T11:46:30Z</time>
      </trkpt>
      <trkpt lat="45.24272" lon="5.03295">
        <ele>371</ele>
        <time>2021-05-03T11:46:31Z</time>
      </trkpt>
      <trkpt lat="45.2427" lon="5.03296">
        <ele>371.1</ele>
        <time>2021-05-03T11:46:32Z</time>
      </trkpt>
      <trkpt lat="45.24265" lon="5.03296">
        <ele>371.4</ele>
        <time>2021-05-03T11:46:34Z</time>
      </trkpt>
      <trkpt lat="45.24259" lon="5.03294">
        <ele>371.8</ele>
        <time>2021-05-03T11:46:36Z</time>
      </trkpt>
      <trkpt lat="45.24254" lon="5.03295">
        <ele>372.1</ele>
        <time>2021-05-03T11:46:38Z</time>
      </trkpt>
      <trkpt lat="45.2425" lon="5.03295">
        <ele>372.3</ele>
        <time>2021-05-03T11:46:39Z</time>
      </trkpt>
      <trkpt lat="45.24245" lon="5.03296">
        <ele>372.6</ele>
        <time>2021-05-03T11:46:41Z</time>
      </trkpt>
      <trkpt lat="45.24243" lon="5.03296">
        <ele>372.8</ele>
        <time>2021-05-03T11:46:42Z</time>
      </trkpt>
      <trkpt lat="45.24239" lon="5.03297">
        <ele>373.1</ele>
        <time>2021-05-03T11:46:43Z</time>
      </trkpt>
      <trkpt lat="45.24237" lon="5.03297">
        <ele>373.2</ele>
        <time>2021-05-03T11:46:44Z</time>
      </trkpt>
      <trkpt lat="45.24231" lon="5.03298">
        <ele>373.6</ele>
        <time>2021-05-03T11:46:46Z</time>
      </trkpt>
      <trkpt lat="45.24228" lon="5.03298">
        <ele>373.8</ele>
        <time>2021-05-03T11:46:47Z</time>
      </trkpt>
      <trkpt lat="45.24224" lon="5.03298">
        <ele>374</ele>
        <time>2021-05-03T11:46:48Z</time>
      </trkpt>
      <trkpt lat="45.24219" lon="5.03298">
        <ele>374.3</ele>
        <time>2021-05-03T11:46:50Z</time>
      </trkpt>
      <trkpt lat="45.24215" lon="5.03298">
        <ele>374.5</ele>
        <time>2021-05-03T11:46:51Z</time>
      </trkpt>
      <trkpt lat="45.2421" lon="5.03297">
        <ele>374.9</ele>
        <time>2021-05-03T11:46:53Z</time>
      </trkpt>
      <trkpt lat="45.24207" lon="5.03298">
        <ele>375</ele>
        <time>2021-05-03T11:46:54Z</time>
      </trkpt>
      <trkpt lat="45.24202" lon="5.03299">
        <ele>375.3</ele>
        <time>2021-05-03T11:46:56Z</time>
      </trkpt>
      <trkpt lat="45.24199" lon="5.03298">
        <ele>375.4</ele>
        <time>2021-05-03T11:46:57Z</time>
      </trkpt>
      <trkpt lat="45.24196" lon="5.03298">
        <ele>375.7</ele>
        <time>2021-05-03T11:46:58Z</time>
      </trkpt>
      <trkpt lat="45.2419" lon="5.03299">
        <ele>376</ele>
        <time>2021-05-03T11:47:00Z</time>
      </trkpt>
      <trkpt lat="45.24187" lon="5.033">
        <ele>376.1</ele>
        <time>2021-05-03T11:47:01Z</time>
      </trkpt>
      <trkpt lat="45.2418" lon="5.033">
        <ele>376.5</ele>
        <time>2021-05-03T11:47:03Z</time>
      </trkpt>
      <trkpt lat="45.24175" lon="5.03301">
        <ele>376.8</ele>
        <time>2021-05-03T11:47:05Z</time>
      </trkpt>
      <trkpt lat="45.24172" lon="5.03302">
        <ele>376.9</ele>
        <time>2021-05-03T11:47:06Z</time>
      </trkpt>
      <trkpt lat="45.2417" lon="5.03303">
        <ele>377</ele>
        <time>2021-05-03T11:47:07Z</time>
      </trkpt>
      <trkpt lat="45.24166" lon="5.03304">
        <ele>377.2</ele>
        <time>2021-05-03T11:47:08Z</time>
      </trkpt>
      <trkpt lat="45.2416" lon="5.03305">
        <ele>377.5</ele>
        <time>2021-05-03T11:47:10Z</time>
      </trkpt>
      <trkpt lat="45.24155" lon="5.03306">
        <ele>377.7</ele>
        <time>2021-05-03T11:47:12Z</time>
      </trkpt>
      <trkpt lat="45.24152" lon="5.03306">
        <ele>377.8</ele>
        <time>2021-05-03T11:47:13Z</time>
      </trkpt>
      <trkpt lat="45.24146" lon="5.03306">
        <ele>378</ele>
        <time>2021-05-03T11:47:15Z</time>
      </trkpt>
      <trkpt lat="45.24143" lon="5.03306">
        <ele>378.1</ele>
        <time>2021-05-03T11:47:16Z</time>
      </trkpt>
      <trkpt lat="45.2414" lon="5.03306">
        <ele>378.2</ele>
        <time>2021-05-03T11:47:18Z</time>
      </trkpt>
      <trkpt lat="45.2414" lon="5.03306">
        <ele>378.2</ele>
        <time>2021-05-03T11:47:19Z</time>
      </trkpt>
      <trkpt lat="45.24142" lon="5.03305">
        <ele>378.3</ele>
        <time>2021-05-03T11:47:20Z</time>
      </trkpt>
      <trkpt lat="45.24143" lon="5.03305">
        <ele>378.3</ele>
        <time>2021-05-03T11:47:21Z</time>
      </trkpt>
      <trkpt lat="45.24143" lon="5.03305">
        <ele>378.3</ele>
        <time>2021-05-03T11:47:22Z</time>
      </trkpt>
      <trkpt lat="45.24142" lon="5.03305">
        <ele>378.3</ele>
        <time>2021-05-03T11:47:23Z</time>
      </trkpt>
      <trkpt lat="45.24141" lon="5.03305">
        <ele>378.4</ele>
        <time>2021-05-03T11:47:24Z</time>
      </trkpt>
      <trkpt lat="45.2414" lon="5.03306">
        <ele>378.4</ele>
        <time>2021-05-03T11:47:25Z</time>
      </trkpt>
      <trkpt lat="45.2414" lon="5.03306">
        <ele>378.4</ele>
        <time>2021-05-03T11:47:26Z</time>
      </trkpt>
      <trkpt lat="45.24139" lon="5.03306">
        <ele>378.4</ele>
        <time>2021-05-03T11:47:27Z</time>
      </trkpt>
      <trkpt lat="45.24138" lon="5.03306">
        <ele>378.5</ele>
        <time>2021-05-03T11:47:28Z</time>
      </trkpt>
      <trkpt lat="45.24137" lon="5.03306">
        <ele>378.5</ele>
        <time>2021-05-03T11:47:47Z</time>
      </trkpt>
      <trkpt lat="45.24136" lon="5.03306">
        <ele>378.5</ele>
        <time>2021-05-03T11:47:48Z</time>
      </trkpt>
      <trkpt lat="45.24136" lon="5.03306">
        <ele>378.5</ele>
        <time>2021-05-03T11:47:49Z</time>
      </trkpt>
      <trkpt lat="45.24132" lon="5.03306">
        <ele>378.6</ele>
        <time>2021-05-03T11:47:50Z</time>
      </trkpt>
      <trkpt lat="45.24129" lon="5.03306">
        <ele>378.7</ele>
        <time>2021-05-03T11:47:51Z</time>
      </trkpt>
      <trkpt lat="45.24126" lon="5.03306">
        <ele>378.7</ele>
        <time>2021-05-03T11:47:52Z</time>
      </trkpt>
      <trkpt lat="45.2412" lon="5.03305">
        <ele>378.8</ele>
        <time>2021-05-03T11:47:54Z</time>
      </trkpt>
      <trkpt lat="45.24116" lon="5.03305">
        <ele>378.9</ele>
        <time>2021-05-03T11:47:55Z</time>
      </trkpt>
      <trkpt lat="45.24113" lon="5.03306">
        <ele>379</ele>
        <time>2021-05-03T11:47:56Z</time>
      </trkpt>
      <trkpt lat="45.24107" lon="5.03307">
        <ele>379.1</ele>
        <time>2021-05-03T11:47:57Z</time>
      </trkpt>
      <trkpt lat="45.24099" lon="5.03309">
        <ele>379.3</ele>
        <time>2021-05-03T11:47:59Z</time>
      </trkpt>
      <trkpt lat="45.24095" lon="5.03309">
        <ele>379.3</ele>
        <time>2021-05-03T11:48:00Z</time>
      </trkpt>
      <trkpt lat="45.24088" lon="5.0331">
        <ele>379.4</ele>
        <time>2021-05-03T11:48:01Z</time>
      </trkpt>
      <trkpt lat="45.24084" lon="5.03311">
        <ele>379.5</ele>
        <time>2021-05-03T11:48:03Z</time>
      </trkpt>
      <trkpt lat="45.24079" lon="5.03312">
        <ele>379.6</ele>
        <time>2021-05-03T11:48:04Z</time>
      </trkpt>
      <trkpt lat="45.24073" lon="5.03313">
        <ele>379.6</ele>
        <time>2021-05-03T11:48:05Z</time>
      </trkpt>
      <trkpt lat="45.24066" lon="5.03313">
        <ele>379.7</ele>
        <time>2021-05-03T11:48:07Z</time>
      </trkpt>
      <trkpt lat="45.2406" lon="5.03314">
        <ele>379.8</ele>
        <time>2021-05-03T11:48:08Z</time>
      </trkpt>
      <trkpt lat="45.24052" lon="5.03315">
        <ele>379.9</ele>
        <time>2021-05-03T11:48:10Z</time>
      </trkpt>
      <trkpt lat="45.24047" lon="5.03315">
        <ele>380</ele>
        <time>2021-05-03T11:48:11Z</time>
      </trkpt>
      <trkpt lat="45.24039" lon="5.03315">
        <ele>380</ele>
        <time>2021-05-03T11:48:13Z</time>
      </trkpt>
      <trkpt lat="45.24032" lon="5.03316">
        <ele>380.1</ele>
        <time>2021-05-03T11:48:15Z</time>
      </trkpt>
      <trkpt lat="45.24027" lon="5.03316">
        <ele>380.1</ele>
        <time>2021-05-03T11:48:16Z</time>
      </trkpt>
      <trkpt lat="45.24022" lon="5.03316">
        <ele>380.1</ele>
        <time>2021-05-03T11:48:17Z</time>
      </trkpt>
      <trkpt lat="45.24017" lon="5.03317">
        <ele>380.1</ele>
        <time>2021-05-03T11:48:18Z</time>
      </trkpt>
      <trkpt lat="45.24011" lon="5.03317">
        <ele>380.1</ele>
        <time>2021-05-03T11:48:19Z</time>
      </trkpt>
      <trkpt lat="45.24006" lon="5.03316">
        <ele>380.1</ele>
        <time>2021-05-03T11:48:20Z</time>
      </trkpt>
      <trkpt lat="45.24001" lon="5.03316">
        <ele>380.2</ele>
        <time>2021-05-03T11:48:21Z</time>
      </trkpt>
      <trkpt lat="45.23995" lon="5.03315">
        <ele>380.2</ele>
        <time>2021-05-03T11:48:22Z</time>
      </trkpt>
      <trkpt lat="45.2399" lon="5.03313">
        <ele>380.2</ele>
        <time>2021-05-03T11:48:23Z</time>
      </trkpt>
      <trkpt lat="45.23985" lon="5.0331">
        <ele>380.3</ele>
        <time>2021-05-03T11:48:24Z</time>
      </trkpt>
      <trkpt lat="45.2398" lon="5.03308">
        <ele>380.3</ele>
        <time>2021-05-03T11:48:25Z</time>
      </trkpt>
      <trkpt lat="45.23975" lon="5.03304">
        <ele>380.4</ele>
        <time>2021-05-03T11:48:26Z</time>
      </trkpt>
      <trkpt lat="45.23971" lon="5.03301">
        <ele>380.4</ele>
        <time>2021-05-03T11:48:27Z</time>
      </trkpt>
      <trkpt lat="45.23966" lon="5.03297">
        <ele>380.5</ele>
        <time>2021-05-03T11:48:28Z</time>
      </trkpt>
      <trkpt lat="45.23962" lon="5.03294">
        <ele>380.6</ele>
        <time>2021-05-03T11:48:29Z</time>
      </trkpt>
      <trkpt lat="45.23958" lon="5.03291">
        <ele>380.7</ele>
        <time>2021-05-03T11:48:30Z</time>
      </trkpt>
      <trkpt lat="45.23953" lon="5.03288">
        <ele>380.8</ele>
        <time>2021-05-03T11:48:31Z</time>
      </trkpt>
      <trkpt lat="45.23949" lon="5.03285">
        <ele>380.9</ele>
        <time>2021-05-03T11:48:32Z</time>
      </trkpt>
      <trkpt lat="45.23945" lon="5.03283">
        <ele>381</ele>
        <time>2021-05-03T11:48:33Z</time>
      </trkpt>
      <trkpt lat="45.23941" lon="5.03281">
        <ele>381.1</ele>
        <time>2021-05-03T11:48:34Z</time>
      </trkpt>
      <trkpt lat="45.23936" lon="5.03279">
        <ele>381.2</ele>
        <time>2021-05-03T11:48:35Z</time>
      </trkpt>
      <trkpt lat="45.23933" lon="5.03278">
        <ele>381.3</ele>
        <time>2021-05-03T11:48:36Z</time>
      </trkpt>
      <trkpt lat="45.23929" lon="5.03277">
        <ele>381.4</ele>
        <time>2021-05-03T11:48:37Z</time>
      </trkpt>
      <trkpt lat="45.23925" lon="5.03276">
        <ele>381.5</ele>
        <time>2021-05-03T11:48:38Z</time>
      </trkpt>
      <trkpt lat="45.2392" lon="5.03275">
        <ele>381.6</ele>
        <time>2021-05-03T11:48:39Z</time>
      </trkpt>
      <trkpt lat="45.23917" lon="5.03275">
        <ele>381.7</ele>
        <time>2021-05-03T11:48:40Z</time>
      </trkpt>
      <trkpt lat="45.23912" lon="5.03274">
        <ele>381.9</ele>
        <time>2021-05-03T11:48:41Z</time>
      </trkpt>
      <trkpt lat="45.23912" lon="5.03279">
        <ele>382</ele>
        <time>2021-05-03T11:48:42Z</time>
      </trkpt>
      <trkpt lat="45.23902" lon="5.03278">
        <ele>382.2</ele>
        <time>2021-05-03T11:48:43Z</time>
      </trkpt>
      <trkpt lat="45.23893" lon="5.03276">
        <ele>382.4</ele>
        <time>2021-05-03T11:48:45Z</time>
      </trkpt>
      <trkpt lat="45.23888" lon="5.03276">
        <ele>382.5</ele>
        <time>2021-05-03T11:48:46Z</time>
      </trkpt>
      <trkpt lat="45.23883" lon="5.03277">
        <ele>382.6</ele>
        <time>2021-05-03T11:48:47Z</time>
      </trkpt>
      <trkpt lat="45.23878" lon="5.03278">
        <ele>382.7</ele>
        <time>2021-05-03T11:48:48Z</time>
      </trkpt>
      <trkpt lat="45.23873" lon="5.03278">
        <ele>382.8</ele>
        <time>2021-05-03T11:48:49Z</time>
      </trkpt>
      <trkpt lat="45.23868" lon="5.03278">
        <ele>382.8</ele>
        <time>2021-05-03T11:48:50Z</time>
      </trkpt>
      <trkpt lat="45.23863" lon="5.03279">
        <ele>382.9</ele>
        <time>2021-05-03T11:48:51Z</time>
      </trkpt>
      <trkpt lat="45.23858" lon="5.03279">
        <ele>383</ele>
        <time>2021-05-03T11:48:52Z</time>
      </trkpt>
      <trkpt lat="45.23852" lon="5.03278">
        <ele>383.1</ele>
        <time>2021-05-03T11:48:53Z</time>
      </trkpt>
      <trkpt lat="45.23847" lon="5.03278">
        <ele>383.2</ele>
        <time>2021-05-03T11:48:54Z</time>
      </trkpt>
      <trkpt lat="45.23841" lon="5.03277">
        <ele>383.4</ele>
        <time>2021-05-03T11:48:55Z</time>
      </trkpt>
      <trkpt lat="45.23837" lon="5.03277">
        <ele>383.6</ele>
        <time>2021-05-03T11:48:56Z</time>
      </trkpt>
      <trkpt lat="45.23832" lon="5.03276">
        <ele>383.7</ele>
        <time>2021-05-03T11:48:57Z</time>
      </trkpt>
      <trkpt lat="45.23827" lon="5.03274">
        <ele>383.9</ele>
        <time>2021-05-03T11:48:58Z</time>
      </trkpt>
      <trkpt lat="45.23824" lon="5.03273">
        <ele>384</ele>
        <time>2021-05-03T11:48:59Z</time>
      </trkpt>
      <trkpt lat="45.23821" lon="5.03272">
        <ele>384.2</ele>
        <time>2021-05-03T11:49:00Z</time>
      </trkpt>
      <trkpt lat="45.23817" lon="5.0327">
        <ele>384.4</ele>
        <time>2021-05-03T11:49:01Z</time>
      </trkpt>
      <trkpt lat="45.23813" lon="5.03268">
        <ele>384.5</ele>
        <time>2021-05-03T11:49:02Z</time>
      </trkpt>
      <trkpt lat="45.23809" lon="5.03266">
        <ele>384.7</ele>
        <time>2021-05-03T11:49:03Z</time>
      </trkpt>
      <trkpt lat="45.23803" lon="5.03265">
        <ele>385</ele>
        <time>2021-05-03T11:49:04Z</time>
      </trkpt>
      <trkpt lat="45.23801" lon="5.03266">
        <ele>385.1</ele>
        <time>2021-05-03T11:49:05Z</time>
      </trkpt>
      <trkpt lat="45.23795" lon="5.0326">
        <ele>385.5</ele>
        <time>2021-05-03T11:49:07Z</time>
      </trkpt>
      <trkpt lat="45.23789" lon="5.03255">
        <ele>385.8</ele>
        <time>2021-05-03T11:49:09Z</time>
      </trkpt>
      <trkpt lat="45.23786" lon="5.03252">
        <ele>386</ele>
        <time>2021-05-03T11:49:10Z</time>
      </trkpt>
      <trkpt lat="45.23783" lon="5.03249">
        <ele>386.2</ele>
        <time>2021-05-03T11:49:11Z</time>
      </trkpt>
      <trkpt lat="45.23779" lon="5.03246">
        <ele>386.5</ele>
        <time>2021-05-03T11:49:13Z</time>
      </trkpt>
      <trkpt lat="45.23777" lon="5.03243">
        <ele>386.7</ele>
        <time>2021-05-03T11:49:14Z</time>
      </trkpt>
      <trkpt lat="45.23775" lon="5.0324">
        <ele>386.9</ele>
        <time>2021-05-03T11:49:15Z</time>
      </trkpt>
      <trkpt lat="45.23772" lon="5.03238">
        <ele>387.1</ele>
        <time>2021-05-03T11:49:16Z</time>
      </trkpt>
      <trkpt lat="45.2377" lon="5.03235">
        <ele>387.3</ele>
        <time>2021-05-03T11:49:17Z</time>
      </trkpt>
      <trkpt lat="45.23767" lon="5.03232">
        <ele>387.5</ele>
        <time>2021-05-03T11:49:18Z</time>
      </trkpt>
      <trkpt lat="45.23764" lon="5.03227">
        <ele>387.8</ele>
        <time>2021-05-03T11:49:19Z</time>
      </trkpt>
      <trkpt lat="45.23761" lon="5.03223">
        <ele>388</ele>
        <time>2021-05-03T11:49:21Z</time>
      </trkpt>
      <trkpt lat="45.23758" lon="5.03218">
        <ele>388.3</ele>
        <time>2021-05-03T11:49:22Z</time>
      </trkpt>
      <trkpt lat="45.23756" lon="5.03216">
        <ele>388.5</ele>
        <time>2021-05-03T11:49:23Z</time>
      </trkpt>
      <trkpt lat="45.23754" lon="5.0321">
        <ele>388.7</ele>
        <time>2021-05-03T11:49:25Z</time>
      </trkpt>
      <trkpt lat="45.23751" lon="5.03206">
        <ele>389</ele>
        <time>2021-05-03T11:49:26Z</time>
      </trkpt>
      <trkpt lat="45.23748" lon="5.03201">
        <ele>389.2</ele>
        <time>2021-05-03T11:49:28Z</time>
      </trkpt>
      <trkpt lat="45.23746" lon="5.03196">
        <ele>389.5</ele>
        <time>2021-05-03T11:49:29Z</time>
      </trkpt>
      <trkpt lat="45.23743" lon="5.0319">
        <ele>389.8</ele>
        <time>2021-05-03T11:49:31Z</time>
      </trkpt>
      <trkpt lat="45.23742" lon="5.03188">
        <ele>389.9</ele>
        <time>2021-05-03T11:49:32Z</time>
      </trkpt>
      <trkpt lat="45.23741" lon="5.03186">
        <ele>390</ele>
        <time>2021-05-03T11:49:33Z</time>
      </trkpt>
      <trkpt lat="45.23739" lon="5.03183">
        <ele>390.2</ele>
        <time>2021-05-03T11:49:34Z</time>
      </trkpt>
      <trkpt lat="45.23737" lon="5.03178">
        <ele>390.4</ele>
        <time>2021-05-03T11:49:35Z</time>
      </trkpt>
      <trkpt lat="45.23734" lon="5.03173">
        <ele>390.7</ele>
        <time>2021-05-03T11:49:36Z</time>
      </trkpt>
      <trkpt lat="45.23732" lon="5.03169">
        <ele>390.9</ele>
        <time>2021-05-03T11:49:38Z</time>
      </trkpt>
      <trkpt lat="45.23731" lon="5.03165">
        <ele>391.1</ele>
        <time>2021-05-03T11:49:39Z</time>
      </trkpt>
      <trkpt lat="45.23728" lon="5.0316">
        <ele>391.3</ele>
        <time>2021-05-03T11:49:40Z</time>
      </trkpt>
      <trkpt lat="45.23726" lon="5.03157">
        <ele>391.5</ele>
        <time>2021-05-03T11:49:42Z</time>
      </trkpt>
      <trkpt lat="45.23723" lon="5.03154">
        <ele>391.8</ele>
        <time>2021-05-03T11:49:43Z</time>
      </trkpt>
      <trkpt lat="45.23721" lon="5.03151">
        <ele>392</ele>
        <time>2021-05-03T11:49:44Z</time>
      </trkpt>
      <trkpt lat="45.23717" lon="5.03147">
        <ele>392.2</ele>
        <time>2021-05-03T11:49:46Z</time>
      </trkpt>
      <trkpt lat="45.23714" lon="5.03144">
        <ele>392.4</ele>
        <time>2021-05-03T11:49:47Z</time>
      </trkpt>
      <trkpt lat="45.23711" lon="5.03141">
        <ele>392.7</ele>
        <time>2021-05-03T11:49:48Z</time>
      </trkpt>
      <trkpt lat="45.23707" lon="5.03138">
        <ele>393</ele>
        <time>2021-05-03T11:49:50Z</time>
      </trkpt>
      <trkpt lat="45.23704" lon="5.03136">
        <ele>393.2</ele>
        <time>2021-05-03T11:49:51Z</time>
      </trkpt>
      <trkpt lat="45.23702" lon="5.03133">
        <ele>393.3</ele>
        <time>2021-05-03T11:49:52Z</time>
      </trkpt>
      <trkpt lat="45.23698" lon="5.0313">
        <ele>393.6</ele>
        <time>2021-05-03T11:49:54Z</time>
      </trkpt>
      <trkpt lat="45.23695" lon="5.03127">
        <ele>393.8</ele>
        <time>2021-05-03T11:49:55Z</time>
      </trkpt>
      <trkpt lat="45.23694" lon="5.03126">
        <ele>393.9</ele>
        <time>2021-05-03T11:49:56Z</time>
      </trkpt>
      <trkpt lat="45.23691" lon="5.03124">
        <ele>394.1</ele>
        <time>2021-05-03T11:49:57Z</time>
      </trkpt>
      <trkpt lat="45.23689" lon="5.03121">
        <ele>394.3</ele>
        <time>2021-05-03T11:49:58Z</time>
      </trkpt>
      <trkpt lat="45.23687" lon="5.03117">
        <ele>394.5</ele>
        <time>2021-05-03T11:49:59Z</time>
      </trkpt>
      <trkpt lat="45.23682" lon="5.03111">
        <ele>394.8</ele>
        <time>2021-05-03T11:50:01Z</time>
      </trkpt>
      <trkpt lat="45.23678" lon="5.03107">
        <ele>395</ele>
        <time>2021-05-03T11:50:03Z</time>
      </trkpt>
      <trkpt lat="45.23674" lon="5.03104">
        <ele>395.3</ele>
        <time>2021-05-03T11:50:05Z</time>
      </trkpt>
      <trkpt lat="45.23672" lon="5.03101">
        <ele>395.4</ele>
        <time>2021-05-03T11:50:06Z</time>
      </trkpt>
      <trkpt lat="45.23668" lon="5.03099">
        <ele>395.7</ele>
        <time>2021-05-03T11:50:08Z</time>
      </trkpt>
      <trkpt lat="45.23662" lon="5.03095">
        <ele>396</ele>
        <time>2021-05-03T11:50:10Z</time>
      </trkpt>
      <trkpt lat="45.23658" lon="5.03092">
        <ele>396.2</ele>
        <time>2021-05-03T11:50:11Z</time>
      </trkpt>
      <trkpt lat="45.23655" lon="5.0309">
        <ele>396.4</ele>
        <time>2021-05-03T11:50:13Z</time>
      </trkpt>
      <trkpt lat="45.23653" lon="5.03087">
        <ele>396.6</ele>
        <time>2021-05-03T11:50:14Z</time>
      </trkpt>
      <trkpt lat="45.23649" lon="5.03083">
        <ele>396.8</ele>
        <time>2021-05-03T11:50:16Z</time>
      </trkpt>
      <trkpt lat="45.23648" lon="5.03082">
        <ele>396.9</ele>
        <time>2021-05-03T11:50:17Z</time>
      </trkpt>
      <trkpt lat="45.23647" lon="5.03081">
        <ele>397</ele>
        <time>2021-05-03T11:50:18Z</time>
      </trkpt>
      <trkpt lat="45.23643" lon="5.03078">
        <ele>397.2</ele>
        <time>2021-05-03T11:50:19Z</time>
      </trkpt>
      <trkpt lat="45.23642" lon="5.03077">
        <ele>397.3</ele>
        <time>2021-05-03T11:50:20Z</time>
      </trkpt>
      <trkpt lat="45.23639" lon="5.03075">
        <ele>397.5</ele>
        <time>2021-05-03T11:50:21Z</time>
      </trkpt>
      <trkpt lat="45.23637" lon="5.03074">
        <ele>397.6</ele>
        <time>2021-05-03T11:50:22Z</time>
      </trkpt>
      <trkpt lat="45.23635" lon="5.03071">
        <ele>397.7</ele>
        <time>2021-05-03T11:50:23Z</time>
      </trkpt>
      <trkpt lat="45.23632" lon="5.03069">
        <ele>397.9</ele>
        <time>2021-05-03T11:50:24Z</time>
      </trkpt>
      <trkpt lat="45.23631" lon="5.03068">
        <ele>398</ele>
        <time>2021-05-03T11:50:25Z</time>
      </trkpt>
      <trkpt lat="45.23628" lon="5.03067">
        <ele>398.1</ele>
        <time>2021-05-03T11:50:26Z</time>
      </trkpt>
      <trkpt lat="45.23626" lon="5.03065">
        <ele>398.3</ele>
        <time>2021-05-03T11:50:27Z</time>
      </trkpt>
      <trkpt lat="45.23622" lon="5.03062">
        <ele>398.5</ele>
        <time>2021-05-03T11:50:28Z</time>
      </trkpt>
      <trkpt lat="45.23621" lon="5.03061">
        <ele>398.6</ele>
        <time>2021-05-03T11:50:29Z</time>
      </trkpt>
      <trkpt lat="45.23619" lon="5.03058">
        <ele>398.7</ele>
        <time>2021-05-03T11:50:30Z</time>
      </trkpt>
      <trkpt lat="45.23617" lon="5.03056">
        <ele>398.9</ele>
        <time>2021-05-03T11:50:31Z</time>
      </trkpt>
      <trkpt lat="45.23613" lon="5.03053">
        <ele>399.1</ele>
        <time>2021-05-03T11:50:32Z</time>
      </trkpt>
      <trkpt lat="45.23612" lon="5.03052">
        <ele>399.2</ele>
        <time>2021-05-03T11:50:33Z</time>
      </trkpt>
      <trkpt lat="45.23608" lon="5.03049">
        <ele>399.4</ele>
        <time>2021-05-03T11:50:34Z</time>
      </trkpt>
      <trkpt lat="45.23607" lon="5.03048">
        <ele>399.5</ele>
        <time>2021-05-03T11:50:35Z</time>
      </trkpt>
      <trkpt lat="45.23605" lon="5.03046">
        <ele>399.7</ele>
        <time>2021-05-03T11:50:36Z</time>
      </trkpt>
      <trkpt lat="45.23601" lon="5.03043">
        <ele>399.9</ele>
        <time>2021-05-03T11:50:37Z</time>
      </trkpt>
      <trkpt lat="45.236" lon="5.03042">
        <ele>400</ele>
        <time>2021-05-03T11:50:38Z</time>
      </trkpt>
      <trkpt lat="45.23597" lon="5.03041">
        <ele>400.1</ele>
        <time>2021-05-03T11:50:39Z</time>
      </trkpt>
      <trkpt lat="45.23594" lon="5.03038">
        <ele>400.3</ele>
        <time>2021-05-03T11:50:40Z</time>
      </trkpt>
      <trkpt lat="45.23593" lon="5.03037">
        <ele>400.4</ele>
        <time>2021-05-03T11:50:41Z</time>
      </trkpt>
      <trkpt lat="45.2359" lon="5.03034">
        <ele>400.6</ele>
        <time>2021-05-03T11:50:42Z</time>
      </trkpt>
      <trkpt lat="45.23588" lon="5.03033">
        <ele>400.7</ele>
        <time>2021-05-03T11:50:43Z</time>
      </trkpt>
      <trkpt lat="45.23586" lon="5.0303">
        <ele>400.9</ele>
        <time>2021-05-03T11:50:44Z</time>
      </trkpt>
      <trkpt lat="45.23583" lon="5.03027">
        <ele>401.1</ele>
        <time>2021-05-03T11:50:45Z</time>
      </trkpt>
      <trkpt lat="45.23581" lon="5.03026">
        <ele>401.2</ele>
        <time>2021-05-03T11:50:46Z</time>
      </trkpt>
      <trkpt lat="45.23579" lon="5.03023">
        <ele>401.4</ele>
        <time>2021-05-03T11:50:47Z</time>
      </trkpt>
      <trkpt lat="45.23575" lon="5.0302">
        <ele>401.6</ele>
        <time>2021-05-03T11:50:49Z</time>
      </trkpt>
      <trkpt lat="45.23572" lon="5.03017">
        <ele>401.8</ele>
        <time>2021-05-03T11:50:50Z</time>
      </trkpt>
      <trkpt lat="45.23568" lon="5.03014">
        <ele>402.1</ele>
        <time>2021-05-03T11:50:52Z</time>
      </trkpt>
      <trkpt lat="45.23565" lon="5.03011">
        <ele>402.3</ele>
        <time>2021-05-03T11:50:53Z</time>
      </trkpt>
      <trkpt lat="45.23563" lon="5.03008">
        <ele>402.5</ele>
        <time>2021-05-03T11:50:54Z</time>
      </trkpt>
      <trkpt lat="45.2356" lon="5.03004">
        <ele>402.7</ele>
        <time>2021-05-03T11:50:56Z</time>
      </trkpt>
      <trkpt lat="45.23558" lon="5.03002">
        <ele>402.9</ele>
        <time>2021-05-03T11:50:57Z</time>
      </trkpt>
      <trkpt lat="45.23555" lon="5.02998">
        <ele>403.1</ele>
        <time>2021-05-03T11:50:58Z</time>
      </trkpt>
      <trkpt lat="45.23552" lon="5.02995">
        <ele>403.3</ele>
        <time>2021-05-03T11:51:00Z</time>
      </trkpt>
      <trkpt lat="45.23549" lon="5.02991">
        <ele>403.6</ele>
        <time>2021-05-03T11:51:01Z</time>
      </trkpt>
      <trkpt lat="45.23547" lon="5.02988">
        <ele>403.7</ele>
        <time>2021-05-03T11:51:02Z</time>
      </trkpt>
      <trkpt lat="45.23544" lon="5.02984">
        <ele>404</ele>
        <time>2021-05-03T11:51:04Z</time>
      </trkpt>
      <trkpt lat="45.23541" lon="5.02979">
        <ele>404.3</ele>
        <time>2021-05-03T11:51:06Z</time>
      </trkpt>
      <trkpt lat="45.23539" lon="5.02977">
        <ele>404.4</ele>
        <time>2021-05-03T11:51:07Z</time>
      </trkpt>
      <trkpt lat="45.23536" lon="5.02973">
        <ele>404.6</ele>
        <time>2021-05-03T11:51:08Z</time>
      </trkpt>
      <trkpt lat="45.23533" lon="5.02968">
        <ele>404.9</ele>
        <time>2021-05-03T11:51:10Z</time>
      </trkpt>
      <trkpt lat="45.23531" lon="5.02965">
        <ele>405</ele>
        <time>2021-05-03T11:51:11Z</time>
      </trkpt>
      <trkpt lat="45.23528" lon="5.0296">
        <ele>405.3</ele>
        <time>2021-05-03T11:51:13Z</time>
      </trkpt>
      <trkpt lat="45.23526" lon="5.02957">
        <ele>405.4</ele>
        <time>2021-05-03T11:51:14Z</time>
      </trkpt>
      <trkpt lat="45.23522" lon="5.02953">
        <ele>405.7</ele>
        <time>2021-05-03T11:51:16Z</time>
      </trkpt>
      <trkpt lat="45.2352" lon="5.0295">
        <ele>405.9</ele>
        <time>2021-05-03T11:51:17Z</time>
      </trkpt>
      <trkpt lat="45.23519" lon="5.02949">
        <ele>405.9</ele>
        <time>2021-05-03T11:51:18Z</time>
      </trkpt>
      <trkpt lat="45.23517" lon="5.02945">
        <ele>406.1</ele>
        <time>2021-05-03T11:51:19Z</time>
      </trkpt>
      <trkpt lat="45.23513" lon="5.0294">
        <ele>406.4</ele>
        <time>2021-05-03T11:51:21Z</time>
      </trkpt>
      <trkpt lat="45.23511" lon="5.02937">
        <ele>406.5</ele>
        <time>2021-05-03T11:51:22Z</time>
      </trkpt>
      <trkpt lat="45.23508" lon="5.02933">
        <ele>406.8</ele>
        <time>2021-05-03T11:51:24Z</time>
      </trkpt>
      <trkpt lat="45.23505" lon="5.02931">
        <ele>406.9</ele>
        <time>2021-05-03T11:51:25Z</time>
      </trkpt>
      <trkpt lat="45.23501" lon="5.02927">
        <ele>407.2</ele>
        <time>2021-05-03T11:51:27Z</time>
      </trkpt>
      <trkpt lat="45.23499" lon="5.02924">
        <ele>407.3</ele>
        <time>2021-05-03T11:51:28Z</time>
      </trkpt>
      <trkpt lat="45.23495" lon="5.02919">
        <ele>407.7</ele>
        <time>2021-05-03T11:51:30Z</time>
      </trkpt>
      <trkpt lat="45.23491" lon="5.02914">
        <ele>408</ele>
        <time>2021-05-03T11:51:32Z</time>
      </trkpt>
      <trkpt lat="45.23488" lon="5.02911">
        <ele>408.2</ele>
        <time>2021-05-03T11:51:33Z</time>
      </trkpt>
      <trkpt lat="45.23483" lon="5.02906">
        <ele>408.6</ele>
        <time>2021-05-03T11:51:35Z</time>
      </trkpt>
      <trkpt lat="45.23479" lon="5.02903">
        <ele>408.8</ele>
        <time>2021-05-03T11:51:37Z</time>
      </trkpt>
      <trkpt lat="45.23476" lon="5.02901">
        <ele>409</ele>
        <time>2021-05-03T11:51:38Z</time>
      </trkpt>
      <trkpt lat="45.23472" lon="5.02898">
        <ele>409.2</ele>
        <time>2021-05-03T11:51:39Z</time>
      </trkpt>
      <trkpt lat="45.23467" lon="5.02895">
        <ele>409.5</ele>
        <time>2021-05-03T11:51:41Z</time>
      </trkpt>
      <trkpt lat="45.23463" lon="5.02893">
        <ele>409.8</ele>
        <time>2021-05-03T11:51:43Z</time>
      </trkpt>
      <trkpt lat="45.2346" lon="5.02891">
        <ele>410</ele>
        <time>2021-05-03T11:51:44Z</time>
      </trkpt>
      <trkpt lat="45.23455" lon="5.02889">
        <ele>410.2</ele>
        <time>2021-05-03T11:51:45Z</time>
      </trkpt>
      <trkpt lat="45.23452" lon="5.02887">
        <ele>410.4</ele>
        <time>2021-05-03T11:51:47Z</time>
      </trkpt>
      <trkpt lat="45.23449" lon="5.02885">
        <ele>410.5</ele>
        <time>2021-05-03T11:51:48Z</time>
      </trkpt>
      <trkpt lat="45.23446" lon="5.02883">
        <ele>410.7</ele>
        <time>2021-05-03T11:51:49Z</time>
      </trkpt>
      <trkpt lat="45.23441" lon="5.0288">
        <ele>410.9</ele>
        <time>2021-05-03T11:51:50Z</time>
      </trkpt>
      <trkpt lat="45.23438" lon="5.02877">
        <ele>411.1</ele>
        <time>2021-05-03T11:51:52Z</time>
      </trkpt>
      <trkpt lat="45.23435" lon="5.02876">
        <ele>411.3</ele>
        <time>2021-05-03T11:51:53Z</time>
      </trkpt>
      <trkpt lat="45.23431" lon="5.02874">
        <ele>411.5</ele>
        <time>2021-05-03T11:51:54Z</time>
      </trkpt>
      <trkpt lat="45.23428" lon="5.02872">
        <ele>411.7</ele>
        <time>2021-05-03T11:51:56Z</time>
      </trkpt>
      <trkpt lat="45.23423" lon="5.02869">
        <ele>412</ele>
        <time>2021-05-03T11:51:58Z</time>
      </trkpt>
      <trkpt lat="45.23418" lon="5.02867">
        <ele>412.3</ele>
        <time>2021-05-03T11:52:00Z</time>
      </trkpt>
      <trkpt lat="45.23412" lon="5.02865">
        <ele>412.5</ele>
        <time>2021-05-03T11:52:02Z</time>
      </trkpt>
      <trkpt lat="45.23409" lon="5.02864">
        <ele>412.7</ele>
        <time>2021-05-03T11:52:03Z</time>
      </trkpt>
      <trkpt lat="45.23405" lon="5.02863">
        <ele>412.9</ele>
        <time>2021-05-03T11:52:04Z</time>
      </trkpt>
      <trkpt lat="45.23402" lon="5.02863">
        <ele>413</ele>
        <time>2021-05-03T11:52:05Z</time>
      </trkpt>
      <trkpt lat="45.23397" lon="5.02861">
        <ele>413.2</ele>
        <time>2021-05-03T11:52:07Z</time>
      </trkpt>
      <trkpt lat="45.23392" lon="5.02858">
        <ele>413.5</ele>
        <time>2021-05-03T11:52:09Z</time>
      </trkpt>
      <trkpt lat="45.23389" lon="5.02857">
        <ele>413.7</ele>
        <time>2021-05-03T11:52:10Z</time>
      </trkpt>
      <trkpt lat="45.23386" lon="5.02855">
        <ele>413.8</ele>
        <time>2021-05-03T11:52:11Z</time>
      </trkpt>
      <trkpt lat="45.23383" lon="5.02853">
        <ele>414</ele>
        <time>2021-05-03T11:52:12Z</time>
      </trkpt>
      <trkpt lat="45.23379" lon="5.02852">
        <ele>414.2</ele>
        <time>2021-05-03T11:52:13Z</time>
      </trkpt>
      <trkpt lat="45.23376" lon="5.02851">
        <ele>414.4</ele>
        <time>2021-05-03T11:52:15Z</time>
      </trkpt>
      <trkpt lat="45.23372" lon="5.02851">
        <ele>414.5</ele>
        <time>2021-05-03T11:52:16Z</time>
      </trkpt>
      <trkpt lat="45.23368" lon="5.02851">
        <ele>414.7</ele>
        <time>2021-05-03T11:52:17Z</time>
      </trkpt>
      <trkpt lat="45.23364" lon="5.0285">
        <ele>414.9</ele>
        <time>2021-05-03T11:52:19Z</time>
      </trkpt>
      <trkpt lat="45.23361" lon="5.02849">
        <ele>415</ele>
        <time>2021-05-03T11:52:20Z</time>
      </trkpt>
      <trkpt lat="45.23356" lon="5.02847">
        <ele>415.3</ele>
        <time>2021-05-03T11:52:21Z</time>
      </trkpt>
      <trkpt lat="45.23352" lon="5.02846">
        <ele>415.4</ele>
        <time>2021-05-03T11:52:23Z</time>
      </trkpt>
      <trkpt lat="45.23348" lon="5.02846">
        <ele>415.6</ele>
        <time>2021-05-03T11:52:24Z</time>
      </trkpt>
      <trkpt lat="45.23344" lon="5.02845">
        <ele>415.8</ele>
        <time>2021-05-03T11:52:25Z</time>
      </trkpt>
      <trkpt lat="45.2334" lon="5.02844">
        <ele>416</ele>
        <time>2021-05-03T11:52:27Z</time>
      </trkpt>
      <trkpt lat="45.23335" lon="5.02842">
        <ele>416.2</ele>
        <time>2021-05-03T11:52:28Z</time>
      </trkpt>
      <trkpt lat="45.23332" lon="5.02841">
        <ele>416.4</ele>
        <time>2021-05-03T11:52:29Z</time>
      </trkpt>
      <trkpt lat="45.23327" lon="5.02839">
        <ele>416.7</ele>
        <time>2021-05-03T11:52:31Z</time>
      </trkpt>
      <trkpt lat="45.23323" lon="5.02839">
        <ele>416.9</ele>
        <time>2021-05-03T11:52:32Z</time>
      </trkpt>
      <trkpt lat="45.23317" lon="5.02838">
        <ele>417.3</ele>
        <time>2021-05-03T11:52:34Z</time>
      </trkpt>
      <trkpt lat="45.2331" lon="5.02837">
        <ele>417.7</ele>
        <time>2021-05-03T11:52:36Z</time>
      </trkpt>
      <trkpt lat="45.23307" lon="5.02836">
        <ele>417.9</ele>
        <time>2021-05-03T11:52:37Z</time>
      </trkpt>
      <trkpt lat="45.23302" lon="5.02834">
        <ele>418.2</ele>
        <time>2021-05-03T11:52:39Z</time>
      </trkpt>
      <trkpt lat="45.23299" lon="5.02833">
        <ele>418.4</ele>
        <time>2021-05-03T11:52:40Z</time>
      </trkpt>
      <trkpt lat="45.23294" lon="5.02831">
        <ele>418.7</ele>
        <time>2021-05-03T11:52:41Z</time>
      </trkpt>
      <trkpt lat="45.23291" lon="5.02831">
        <ele>418.8</ele>
        <time>2021-05-03T11:52:42Z</time>
      </trkpt>
      <trkpt lat="45.23288" lon="5.0283">
        <ele>419</ele>
        <time>2021-05-03T11:52:44Z</time>
      </trkpt>
      <trkpt lat="45.23283" lon="5.02829">
        <ele>419.2</ele>
        <time>2021-05-03T11:52:45Z</time>
      </trkpt>
      <trkpt lat="45.23279" lon="5.02828">
        <ele>419.4</ele>
        <time>2021-05-03T11:52:47Z</time>
      </trkpt>
      <trkpt lat="45.23276" lon="5.02826">
        <ele>419.6</ele>
        <time>2021-05-03T11:52:48Z</time>
      </trkpt>
      <trkpt lat="45.23273" lon="5.02825">
        <ele>419.8</ele>
        <time>2021-05-03T11:52:49Z</time>
      </trkpt>
      <trkpt lat="45.23268" lon="5.02822">
        <ele>420</ele>
        <time>2021-05-03T11:52:50Z</time>
      </trkpt>
      <trkpt lat="45.23264" lon="5.02821">
        <ele>420.3</ele>
        <time>2021-05-03T11:52:52Z</time>
      </trkpt>
      <trkpt lat="45.23262" lon="5.0282">
        <ele>420.4</ele>
        <time>2021-05-03T11:52:53Z</time>
      </trkpt>
      <trkpt lat="45.23258" lon="5.02818">
        <ele>420.5</ele>
        <time>2021-05-03T11:52:54Z</time>
      </trkpt>
      <trkpt lat="45.23251" lon="5.02816">
        <ele>420.9</ele>
        <time>2021-05-03T11:52:56Z</time>
      </trkpt>
      <trkpt lat="45.23247" lon="5.02814">
        <ele>421.1</ele>
        <time>2021-05-03T11:52:57Z</time>
      </trkpt>
      <trkpt lat="45.23244" lon="5.02812">
        <ele>421.2</ele>
        <time>2021-05-03T11:52:59Z</time>
      </trkpt>
      <trkpt lat="45.23241" lon="5.02811">
        <ele>421.3</ele>
        <time>2021-05-03T11:53:00Z</time>
      </trkpt>
      <trkpt lat="45.23237" lon="5.02809">
        <ele>421.5</ele>
        <time>2021-05-03T11:53:01Z</time>
      </trkpt>
      <trkpt lat="45.23236" lon="5.02808">
        <ele>421.7</ele>
        <time>2021-05-03T11:53:02Z</time>
      </trkpt>
      <trkpt lat="45.23231" lon="5.02806">
        <ele>421.9</ele>
        <time>2021-05-03T11:53:03Z</time>
      </trkpt>
      <trkpt lat="45.23228" lon="5.02805">
        <ele>422</ele>
        <time>2021-05-03T11:53:04Z</time>
      </trkpt>
      <trkpt lat="45.23225" lon="5.02803">
        <ele>422.2</ele>
        <time>2021-05-03T11:53:06Z</time>
      </trkpt>
      <trkpt lat="45.23221" lon="5.02802">
        <ele>422.4</ele>
        <time>2021-05-03T11:53:07Z</time>
      </trkpt>
      <trkpt lat="45.23215" lon="5.028">
        <ele>422.8</ele>
        <time>2021-05-03T11:53:09Z</time>
      </trkpt>
      <trkpt lat="45.23212" lon="5.02798">
        <ele>423</ele>
        <time>2021-05-03T11:53:10Z</time>
      </trkpt>
      <trkpt lat="45.23208" lon="5.02797">
        <ele>423.2</ele>
        <time>2021-05-03T11:53:11Z</time>
      </trkpt>
      <trkpt lat="45.23203" lon="5.02794">
        <ele>423.5</ele>
        <time>2021-05-03T11:53:13Z</time>
      </trkpt>
      <trkpt lat="45.232" lon="5.02793">
        <ele>423.7</ele>
        <time>2021-05-03T11:53:14Z</time>
      </trkpt>
      <trkpt lat="45.23193" lon="5.0279">
        <ele>424</ele>
        <time>2021-05-03T11:53:16Z</time>
      </trkpt>
      <trkpt lat="45.23188" lon="5.02788">
        <ele>424.3</ele>
        <time>2021-05-03T11:53:18Z</time>
      </trkpt>
      <trkpt lat="45.23185" lon="5.02786">
        <ele>424.5</ele>
        <time>2021-05-03T11:53:19Z</time>
      </trkpt>
      <trkpt lat="45.23181" lon="5.02785">
        <ele>424.7</ele>
        <time>2021-05-03T11:53:20Z</time>
      </trkpt>
      <trkpt lat="45.23176" lon="5.02782">
        <ele>425</ele>
        <time>2021-05-03T11:53:22Z</time>
      </trkpt>
      <trkpt lat="45.23174" lon="5.0278">
        <ele>425.2</ele>
        <time>2021-05-03T11:53:23Z</time>
      </trkpt>
      <trkpt lat="45.23168" lon="5.02776">
        <ele>425.5</ele>
        <time>2021-05-03T11:53:25Z</time>
      </trkpt>
      <trkpt lat="45.23164" lon="5.02774">
        <ele>425.8</ele>
        <time>2021-05-03T11:53:27Z</time>
      </trkpt>
      <trkpt lat="45.2316" lon="5.02771">
        <ele>426</ele>
        <time>2021-05-03T11:53:29Z</time>
      </trkpt>
      <trkpt lat="45.23156" lon="5.02766">
        <ele>426.3</ele>
        <time>2021-05-03T11:53:31Z</time>
      </trkpt>
      <trkpt lat="45.23153" lon="5.02764">
        <ele>426.5</ele>
        <time>2021-05-03T11:53:32Z</time>
      </trkpt>
      <trkpt lat="45.23149" lon="5.0276">
        <ele>426.8</ele>
        <time>2021-05-03T11:53:34Z</time>
      </trkpt>
      <trkpt lat="45.23146" lon="5.02757">
        <ele>427</ele>
        <time>2021-05-03T11:53:35Z</time>
      </trkpt>
      <trkpt lat="45.23145" lon="5.02755">
        <ele>427.1</ele>
        <time>2021-05-03T11:53:36Z</time>
      </trkpt>
      <trkpt lat="45.2314" lon="5.02751">
        <ele>427.4</ele>
        <time>2021-05-03T11:53:38Z</time>
      </trkpt>
      <trkpt lat="45.23137" lon="5.02746">
        <ele>427.6</ele>
        <time>2021-05-03T11:53:40Z</time>
      </trkpt>
      <trkpt lat="45.23134" lon="5.02742">
        <ele>427.8</ele>
        <time>2021-05-03T11:53:41Z</time>
      </trkpt>
      <trkpt lat="45.23131" lon="5.02737">
        <ele>428.1</ele>
        <time>2021-05-03T11:53:42Z</time>
      </trkpt>
      <trkpt lat="45.2313" lon="5.02735">
        <ele>428.2</ele>
        <time>2021-05-03T11:53:43Z</time>
      </trkpt>
      <trkpt lat="45.23128" lon="5.02731">
        <ele>428.4</ele>
        <time>2021-05-03T11:53:45Z</time>
      </trkpt>
      <trkpt lat="45.23124" lon="5.02725">
        <ele>428.7</ele>
        <time>2021-05-03T11:53:47Z</time>
      </trkpt>
      <trkpt lat="45.23122" lon="5.02722">
        <ele>428.9</ele>
        <time>2021-05-03T11:53:48Z</time>
      </trkpt>
      <trkpt lat="45.23119" lon="5.02716">
        <ele>429.2</ele>
        <time>2021-05-03T11:53:49Z</time>
      </trkpt>
      <trkpt lat="45.23117" lon="5.02712">
        <ele>429.4</ele>
        <time>2021-05-03T11:53:51Z</time>
      </trkpt>
      <trkpt lat="45.23113" lon="5.02706">
        <ele>429.6</ele>
        <time>2021-05-03T11:53:53Z</time>
      </trkpt>
      <trkpt lat="45.23112" lon="5.02702">
        <ele>429.8</ele>
        <time>2021-05-03T11:53:54Z</time>
      </trkpt>
      <trkpt lat="45.2311" lon="5.02696">
        <ele>430.1</ele>
        <time>2021-05-03T11:53:56Z</time>
      </trkpt>
      <trkpt lat="45.23107" lon="5.02692">
        <ele>430.3</ele>
        <time>2021-05-03T11:53:57Z</time>
      </trkpt>
      <trkpt lat="45.23106" lon="5.02688">
        <ele>430.5</ele>
        <time>2021-05-03T11:53:59Z</time>
      </trkpt>
      <trkpt lat="45.23105" lon="5.02689">
        <ele>430.5</ele>
        <time>2021-05-03T11:54:00Z</time>
      </trkpt>
      <trkpt lat="45.23106" lon="5.02691">
        <ele>430.6</ele>
        <time>2021-05-03T11:54:01Z</time>
      </trkpt>
      <trkpt lat="45.23107" lon="5.02693">
        <ele>430.7</ele>
        <time>2021-05-03T11:54:02Z</time>
      </trkpt>
      <trkpt lat="45.23106" lon="5.02692">
        <ele>430.7</ele>
        <time>2021-05-03T11:54:03Z</time>
      </trkpt>
      <trkpt lat="45.23106" lon="5.02691">
        <ele>430.7</ele>
        <time>2021-05-03T11:54:04Z</time>
      </trkpt>
      <trkpt lat="45.23105" lon="5.0269">
        <ele>430.8</ele>
        <time>2021-05-03T11:54:05Z</time>
      </trkpt>
      <trkpt lat="45.23105" lon="5.02689">
        <ele>430.8</ele>
        <time>2021-05-03T11:54:06Z</time>
      </trkpt>
      <trkpt lat="45.23104" lon="5.02688">
        <ele>430.9</ele>
        <time>2021-05-03T11:54:07Z</time>
      </trkpt>
      <trkpt lat="45.23104" lon="5.02687">
        <ele>430.9</ele>
        <time>2021-05-03T11:54:08Z</time>
      </trkpt>
      <trkpt lat="45.23103" lon="5.02686">
        <ele>431</ele>
        <time>2021-05-03T11:54:09Z</time>
      </trkpt>
      <trkpt lat="45.23103" lon="5.02685">
        <ele>431</ele>
        <time>2021-05-03T11:55:35Z</time>
      </trkpt>
      <trkpt lat="45.23102" lon="5.02684">
        <ele>431.1</ele>
        <time>2021-05-03T11:55:36Z</time>
      </trkpt>
      <trkpt lat="45.23102" lon="5.02683">
        <ele>431.1</ele>
        <time>2021-05-03T11:55:37Z</time>
      </trkpt>
      <trkpt lat="45.231" lon="5.0268">
        <ele>431.3</ele>
        <time>2021-05-03T11:55:38Z</time>
      </trkpt>
      <trkpt lat="45.23098" lon="5.02685">
        <ele>431.5</ele>
        <time>2021-05-03T11:55:40Z</time>
      </trkpt>
      <trkpt lat="45.23095" lon="5.02674">
        <ele>432</ele>
        <time>2021-05-03T11:55:42Z</time>
      </trkpt>
      <trkpt lat="45.23093" lon="5.0267">
        <ele>432.2</ele>
        <time>2021-05-03T11:55:43Z</time>
      </trkpt>
      <trkpt lat="45.23092" lon="5.02665">
        <ele>432.4</ele>
        <time>2021-05-03T11:55:44Z</time>
      </trkpt>
      <trkpt lat="45.23088" lon="5.0266">
        <ele>432.7</ele>
        <time>2021-05-03T11:55:46Z</time>
      </trkpt>
      <trkpt lat="45.23085" lon="5.02653">
        <ele>433</ele>
        <time>2021-05-03T11:55:47Z</time>
      </trkpt>
      <trkpt lat="45.23082" lon="5.02649">
        <ele>433.2</ele>
        <time>2021-05-03T11:55:48Z</time>
      </trkpt>
      <trkpt lat="45.23079" lon="5.02645">
        <ele>433.5</ele>
        <time>2021-05-03T11:55:50Z</time>
      </trkpt>
      <trkpt lat="45.23075" lon="5.02641">
        <ele>433.7</ele>
        <time>2021-05-03T11:55:51Z</time>
      </trkpt>
      <trkpt lat="45.23071" lon="5.02638">
        <ele>434</ele>
        <time>2021-05-03T11:55:53Z</time>
      </trkpt>
      <trkpt lat="45.23068" lon="5.02635">
        <ele>434.2</ele>
        <time>2021-05-03T11:55:54Z</time>
      </trkpt>
      <trkpt lat="45.23063" lon="5.02631">
        <ele>434.4</ele>
        <time>2021-05-03T11:55:55Z</time>
      </trkpt>
      <trkpt lat="45.2306" lon="5.02628">
        <ele>434.6</ele>
        <time>2021-05-03T11:55:57Z</time>
      </trkpt>
      <trkpt lat="45.23055" lon="5.02623">
        <ele>434.9</ele>
        <time>2021-05-03T11:55:59Z</time>
      </trkpt>
      <trkpt lat="45.23052" lon="5.02621">
        <ele>435.1</ele>
        <time>2021-05-03T11:56:00Z</time>
      </trkpt>
      <trkpt lat="45.23049" lon="5.02619">
        <ele>435.2</ele>
        <time>2021-05-03T11:56:01Z</time>
      </trkpt>
      <trkpt lat="45.23047" lon="5.02618">
        <ele>435.4</ele>
        <time>2021-05-03T11:56:02Z</time>
      </trkpt>
      <trkpt lat="45.23044" lon="5.02616">
        <ele>435.5</ele>
        <time>2021-05-03T11:56:03Z</time>
      </trkpt>
      <trkpt lat="45.23041" lon="5.02614">
        <ele>435.7</ele>
        <time>2021-05-03T11:56:04Z</time>
      </trkpt>
      <trkpt lat="45.23039" lon="5.02612">
        <ele>435.8</ele>
        <time>2021-05-03T11:56:05Z</time>
      </trkpt>
      <trkpt lat="45.23035" lon="5.02609">
        <ele>436</ele>
        <time>2021-05-03T11:56:06Z</time>
      </trkpt>
      <trkpt lat="45.2303" lon="5.02606">
        <ele>436.3</ele>
        <time>2021-05-03T11:56:08Z</time>
      </trkpt>
      <trkpt lat="45.23026" lon="5.02604">
        <ele>436.5</ele>
        <time>2021-05-03T11:56:09Z</time>
      </trkpt>
      <trkpt lat="45.23024" lon="5.02603">
        <ele>436.6</ele>
        <time>2021-05-03T11:56:10Z</time>
      </trkpt>
      <trkpt lat="45.2302" lon="5.026">
        <ele>436.9</ele>
        <time>2021-05-03T11:56:12Z</time>
      </trkpt>
      <trkpt lat="45.23016" lon="5.02596">
        <ele>437.1</ele>
        <time>2021-05-03T11:56:13Z</time>
      </trkpt>
      <trkpt lat="45.23015" lon="5.02594">
        <ele>437.2</ele>
        <time>2021-05-03T11:56:14Z</time>
      </trkpt>
      <trkpt lat="45.2301" lon="5.0259">
        <ele>437.6</ele>
        <time>2021-05-03T11:56:16Z</time>
      </trkpt>
      <trkpt lat="45.23008" lon="5.02588">
        <ele>437.7</ele>
        <time>2021-05-03T11:56:17Z</time>
      </trkpt>
      <trkpt lat="45.23003" lon="5.02584">
        <ele>438</ele>
        <time>2021-05-03T11:56:19Z</time>
      </trkpt>
      <trkpt lat="45.23" lon="5.02581">
        <ele>438.2</ele>
        <time>2021-05-03T11:56:20Z</time>
      </trkpt>
      <trkpt lat="45.22997" lon="5.02579">
        <ele>438.4</ele>
        <time>2021-05-03T11:56:21Z</time>
      </trkpt>
      <trkpt lat="45.22994" lon="5.02576">
        <ele>438.6</ele>
        <time>2021-05-03T11:56:22Z</time>
      </trkpt>
      <trkpt lat="45.22992" lon="5.02575">
        <ele>438.7</ele>
        <time>2021-05-03T11:56:23Z</time>
      </trkpt>
      <trkpt lat="45.22989" lon="5.02573">
        <ele>438.9</ele>
        <time>2021-05-03T11:56:24Z</time>
      </trkpt>
      <trkpt lat="45.22984" lon="5.02569">
        <ele>439.2</ele>
        <time>2021-05-03T11:56:26Z</time>
      </trkpt>
      <trkpt lat="45.2298" lon="5.02567">
        <ele>439.5</ele>
        <time>2021-05-03T11:56:28Z</time>
      </trkpt>
      <trkpt lat="45.22976" lon="5.02565">
        <ele>439.7</ele>
        <time>2021-05-03T11:56:29Z</time>
      </trkpt>
      <trkpt lat="45.22972" lon="5.02561">
        <ele>440</ele>
        <time>2021-05-03T11:56:31Z</time>
      </trkpt>
      <trkpt lat="45.22968" lon="5.02558">
        <ele>440.2</ele>
        <time>2021-05-03T11:56:32Z</time>
      </trkpt>
      <trkpt lat="45.22967" lon="5.02557">
        <ele>440.3</ele>
        <time>2021-05-03T11:56:33Z</time>
      </trkpt>
      <trkpt lat="45.22964" lon="5.02555">
        <ele>440.4</ele>
        <time>2021-05-03T11:56:34Z</time>
      </trkpt>
      <trkpt lat="45.22959" lon="5.02551">
        <ele>440.7</ele>
        <time>2021-05-03T11:56:36Z</time>
      </trkpt>
      <trkpt lat="45.22957" lon="5.0255">
        <ele>440.9</ele>
        <time>2021-05-03T11:56:37Z</time>
      </trkpt>
      <trkpt lat="45.22951" lon="5.02547">
        <ele>441.2</ele>
        <time>2021-05-03T11:56:39Z</time>
      </trkpt>
      <trkpt lat="45.22947" lon="5.02545">
        <ele>441.4</ele>
        <time>2021-05-03T11:56:40Z</time>
      </trkpt>
      <trkpt lat="45.22943" lon="5.02543">
        <ele>441.6</ele>
        <time>2021-05-03T11:56:41Z</time>
      </trkpt>
      <trkpt lat="45.22939" lon="5.02541">
        <ele>441.8</ele>
        <time>2021-05-03T11:56:43Z</time>
      </trkpt>
      <trkpt lat="45.22935" lon="5.02539">
        <ele>442</ele>
        <time>2021-05-03T11:56:44Z</time>
      </trkpt>
      <trkpt lat="45.22931" lon="5.02537">
        <ele>442.2</ele>
        <time>2021-05-03T11:56:46Z</time>
      </trkpt>
      <trkpt lat="45.22927" lon="5.02536">
        <ele>442.4</ele>
        <time>2021-05-03T11:56:47Z</time>
      </trkpt>
      <trkpt lat="45.22921" lon="5.02533">
        <ele>442.7</ele>
        <time>2021-05-03T11:56:49Z</time>
      </trkpt>
      <trkpt lat="45.22915" lon="5.02531">
        <ele>443</ele>
        <time>2021-05-03T11:56:51Z</time>
      </trkpt>
      <trkpt lat="45.22912" lon="5.0253">
        <ele>443.1</ele>
        <time>2021-05-03T11:56:52Z</time>
      </trkpt>
      <trkpt lat="45.22908" lon="5.02529">
        <ele>443.3</ele>
        <time>2021-05-03T11:56:53Z</time>
      </trkpt>
      <trkpt lat="45.22903" lon="5.02529">
        <ele>443.6</ele>
        <time>2021-05-03T11:56:54Z</time>
      </trkpt>
      <trkpt lat="45.229" lon="5.02529">
        <ele>443.7</ele>
        <time>2021-05-03T11:56:55Z</time>
      </trkpt>
      <trkpt lat="45.22896" lon="5.02529">
        <ele>443.9</ele>
        <time>2021-05-03T11:56:57Z</time>
      </trkpt>
      <trkpt lat="45.22891" lon="5.0253">
        <ele>444.2</ele>
        <time>2021-05-03T11:56:59Z</time>
      </trkpt>
      <trkpt lat="45.22888" lon="5.0253">
        <ele>444.3</ele>
        <time>2021-05-03T11:57:00Z</time>
      </trkpt>
      <trkpt lat="45.22882" lon="5.02531">
        <ele>444.7</ele>
        <time>2021-05-03T11:57:02Z</time>
      </trkpt>
      <trkpt lat="45.22876" lon="5.0253">
        <ele>445</ele>
        <time>2021-05-03T11:57:04Z</time>
      </trkpt>
      <trkpt lat="45.22873" lon="5.0253">
        <ele>445.2</ele>
        <time>2021-05-03T11:57:05Z</time>
      </trkpt>
      <trkpt lat="45.22867" lon="5.0253">
        <ele>445.5</ele>
        <time>2021-05-03T11:57:07Z</time>
      </trkpt>
      <trkpt lat="45.22863" lon="5.02532">
        <ele>445.7</ele>
        <time>2021-05-03T11:57:08Z</time>
      </trkpt>
      <trkpt lat="45.22861" lon="5.02533">
        <ele>445.8</ele>
        <time>2021-05-03T11:57:09Z</time>
      </trkpt>
      <trkpt lat="45.22856" lon="5.02533">
        <ele>446</ele>
        <time>2021-05-03T11:57:11Z</time>
      </trkpt>
      <trkpt lat="45.22853" lon="5.02534">
        <ele>446.2</ele>
        <time>2021-05-03T11:57:12Z</time>
      </trkpt>
      <trkpt lat="45.22848" lon="5.02534">
        <ele>446.5</ele>
        <time>2021-05-03T11:57:13Z</time>
      </trkpt>
      <trkpt lat="45.22844" lon="5.02535">
        <ele>446.7</ele>
        <time>2021-05-03T11:57:15Z</time>
      </trkpt>
      <trkpt lat="45.22841" lon="5.02536">
        <ele>446.9</ele>
        <time>2021-05-03T11:57:16Z</time>
      </trkpt>
      <trkpt lat="45.22836" lon="5.02538">
        <ele>447.1</ele>
        <time>2021-05-03T11:57:18Z</time>
      </trkpt>
      <trkpt lat="45.22832" lon="5.02539">
        <ele>447.4</ele>
        <time>2021-05-03T11:57:19Z</time>
      </trkpt>
      <trkpt lat="45.2283" lon="5.02539">
        <ele>447.5</ele>
        <time>2021-05-03T11:57:20Z</time>
      </trkpt>
      <trkpt lat="45.22824" lon="5.02542">
        <ele>447.8</ele>
        <time>2021-05-03T11:57:22Z</time>
      </trkpt>
      <trkpt lat="45.22818" lon="5.02543">
        <ele>448.1</ele>
        <time>2021-05-03T11:57:24Z</time>
      </trkpt>
      <trkpt lat="45.22814" lon="5.02544">
        <ele>448.3</ele>
        <time>2021-05-03T11:57:25Z</time>
      </trkpt>
      <trkpt lat="45.2281" lon="5.02546">
        <ele>448.6</ele>
        <time>2021-05-03T11:57:27Z</time>
      </trkpt>
      <trkpt lat="45.22805" lon="5.02547">
        <ele>448.9</ele>
        <time>2021-05-03T11:57:28Z</time>
      </trkpt>
      <trkpt lat="45.22802" lon="5.02548">
        <ele>449.1</ele>
        <time>2021-05-03T11:57:29Z</time>
      </trkpt>
      <trkpt lat="45.22798" lon="5.02549">
        <ele>449.3</ele>
        <time>2021-05-03T11:57:31Z</time>
      </trkpt>
      <trkpt lat="45.22795" lon="5.02551">
        <ele>449.5</ele>
        <time>2021-05-03T11:57:32Z</time>
      </trkpt>
      <trkpt lat="45.22792" lon="5.02552">
        <ele>449.7</ele>
        <time>2021-05-03T11:57:33Z</time>
      </trkpt>
      <trkpt lat="45.22789" lon="5.02554">
        <ele>449.8</ele>
        <time>2021-05-03T11:57:34Z</time>
      </trkpt>
      <trkpt lat="45.22786" lon="5.02555">
        <ele>450</ele>
        <time>2021-05-03T11:57:35Z</time>
      </trkpt>
      <trkpt lat="45.22779" lon="5.02557">
        <ele>450.4</ele>
        <time>2021-05-03T11:57:37Z</time>
      </trkpt>
      <trkpt lat="45.22773" lon="5.02559">
        <ele>450.7</ele>
        <time>2021-05-03T11:57:38Z</time>
      </trkpt>
      <trkpt lat="45.2277" lon="5.0256">
        <ele>450.9</ele>
        <time>2021-05-03T11:57:40Z</time>
      </trkpt>
      <trkpt lat="45.22763" lon="5.02561">
        <ele>451.3</ele>
        <time>2021-05-03T11:57:42Z</time>
      </trkpt>
      <trkpt lat="45.2276" lon="5.02562">
        <ele>451.4</ele>
        <time>2021-05-03T11:57:43Z</time>
      </trkpt>
      <trkpt lat="45.22755" lon="5.02563">
        <ele>451.7</ele>
        <time>2021-05-03T11:57:45Z</time>
      </trkpt>
      <trkpt lat="45.22751" lon="5.02563">
        <ele>451.9</ele>
        <time>2021-05-03T11:57:46Z</time>
      </trkpt>
      <trkpt lat="45.22745" lon="5.02564">
        <ele>452.2</ele>
        <time>2021-05-03T11:57:48Z</time>
      </trkpt>
      <trkpt lat="45.22741" lon="5.02564">
        <ele>452.4</ele>
        <time>2021-05-03T11:57:49Z</time>
      </trkpt>
      <trkpt lat="45.22739" lon="5.02565">
        <ele>452.5</ele>
        <time>2021-05-03T11:57:50Z</time>
      </trkpt>
      <trkpt lat="45.22735" lon="5.02566">
        <ele>452.7</ele>
        <time>2021-05-03T11:57:52Z</time>
      </trkpt>
      <trkpt lat="45.22732" lon="5.02566">
        <ele>452.8</ele>
        <time>2021-05-03T11:57:53Z</time>
      </trkpt>
      <trkpt lat="45.22727" lon="5.02568">
        <ele>453.1</ele>
        <time>2021-05-03T11:57:55Z</time>
      </trkpt>
      <trkpt lat="45.22722" lon="5.02569">
        <ele>453.3</ele>
        <time>2021-05-03T11:57:56Z</time>
      </trkpt>
      <trkpt lat="45.22718" lon="5.0257">
        <ele>453.5</ele>
        <time>2021-05-03T11:57:58Z</time>
      </trkpt>
      <trkpt lat="45.22714" lon="5.02571">
        <ele>453.7</ele>
        <time>2021-05-03T11:57:59Z</time>
      </trkpt>
      <trkpt lat="45.2271" lon="5.02571">
        <ele>453.8</ele>
        <time>2021-05-03T11:58:00Z</time>
      </trkpt>
      <trkpt lat="45.22705" lon="5.02573">
        <ele>454.1</ele>
        <time>2021-05-03T11:58:02Z</time>
      </trkpt>
      <trkpt lat="45.22699" lon="5.02574">
        <ele>454.3</ele>
        <time>2021-05-03T11:58:03Z</time>
      </trkpt>
      <trkpt lat="45.22697" lon="5.02575">
        <ele>454.5</ele>
        <time>2021-05-03T11:58:04Z</time>
      </trkpt>
      <trkpt lat="45.22692" lon="5.02576">
        <ele>454.7</ele>
        <time>2021-05-03T11:58:06Z</time>
      </trkpt>
      <trkpt lat="45.22687" lon="5.02576">
        <ele>454.9</ele>
        <time>2021-05-03T11:58:08Z</time>
      </trkpt>
      <trkpt lat="45.22681" lon="5.02577">
        <ele>455.2</ele>
        <time>2021-05-03T11:58:10Z</time>
      </trkpt>
      <trkpt lat="45.22674" lon="5.02577">
        <ele>455.5</ele>
        <time>2021-05-03T11:58:12Z</time>
      </trkpt>
      <trkpt lat="45.22671" lon="5.02578">
        <ele>455.7</ele>
        <time>2021-05-03T11:58:13Z</time>
      </trkpt>
      <trkpt lat="45.22664" lon="5.02579">
        <ele>456</ele>
        <time>2021-05-03T11:58:15Z</time>
      </trkpt>
      <trkpt lat="45.22661" lon="5.02579">
        <ele>456.2</ele>
        <time>2021-05-03T11:58:16Z</time>
      </trkpt>
      <trkpt lat="45.22656" lon="5.02579">
        <ele>456.5</ele>
        <time>2021-05-03T11:58:18Z</time>
      </trkpt>
      <trkpt lat="45.22653" lon="5.0258">
        <ele>456.6</ele>
        <time>2021-05-03T11:58:19Z</time>
      </trkpt>
      <trkpt lat="45.2265" lon="5.02581">
        <ele>456.8</ele>
        <time>2021-05-03T11:58:20Z</time>
      </trkpt>
      <trkpt lat="45.22646" lon="5.02581">
        <ele>457</ele>
        <time>2021-05-03T11:58:22Z</time>
      </trkpt>
      <trkpt lat="45.22643" lon="5.02581">
        <ele>457.1</ele>
        <time>2021-05-03T11:58:23Z</time>
      </trkpt>
      <trkpt lat="45.22639" lon="5.02583">
        <ele>457.4</ele>
        <time>2021-05-03T11:58:25Z</time>
      </trkpt>
      <trkpt lat="45.22635" lon="5.02583">
        <ele>457.6</ele>
        <time>2021-05-03T11:58:26Z</time>
      </trkpt>
      <trkpt lat="45.22633" lon="5.02583">
        <ele>457.7</ele>
        <time>2021-05-03T11:58:27Z</time>
      </trkpt>
      <trkpt lat="45.22628" lon="5.02584">
        <ele>458</ele>
        <time>2021-05-03T11:58:29Z</time>
      </trkpt>
      <trkpt lat="45.22625" lon="5.02584">
        <ele>458.1</ele>
        <time>2021-05-03T11:58:30Z</time>
      </trkpt>
      <trkpt lat="45.22622" lon="5.02584">
        <ele>458.3</ele>
        <time>2021-05-03T11:58:31Z</time>
      </trkpt>
      <trkpt lat="45.22617" lon="5.02585">
        <ele>458.5</ele>
        <time>2021-05-03T11:58:32Z</time>
      </trkpt>
      <trkpt lat="45.22613" lon="5.02587">
        <ele>458.7</ele>
        <time>2021-05-03T11:58:34Z</time>
      </trkpt>
      <trkpt lat="45.2261" lon="5.02589">
        <ele>458.9</ele>
        <time>2021-05-03T11:58:35Z</time>
      </trkpt>
      <trkpt lat="45.22605" lon="5.02592">
        <ele>459.2</ele>
        <time>2021-05-03T11:58:37Z</time>
      </trkpt>
      <trkpt lat="45.22603" lon="5.02594">
        <ele>459.3</ele>
        <time>2021-05-03T11:58:38Z</time>
      </trkpt>
      <trkpt lat="45.22599" lon="5.02597">
        <ele>459.5</ele>
        <time>2021-05-03T11:58:39Z</time>
      </trkpt>
      <trkpt lat="45.22595" lon="5.026">
        <ele>459.8</ele>
        <time>2021-05-03T11:58:40Z</time>
      </trkpt>
      <trkpt lat="45.22591" lon="5.02604">
        <ele>460</ele>
        <time>2021-05-03T11:58:42Z</time>
      </trkpt>
      <trkpt lat="45.22587" lon="5.02606">
        <ele>460.2</ele>
        <time>2021-05-03T11:58:43Z</time>
      </trkpt>
      <trkpt lat="45.22584" lon="5.02609">
        <ele>460.4</ele>
        <time>2021-05-03T11:58:45Z</time>
      </trkpt>
      <trkpt lat="45.22583" lon="5.0261">
        <ele>460.5</ele>
        <time>2021-05-03T11:58:46Z</time>
      </trkpt>
      <trkpt lat="45.2258" lon="5.02612">
        <ele>460.6</ele>
        <time>2021-05-03T11:58:47Z</time>
      </trkpt>
      <trkpt lat="45.22578" lon="5.02615">
        <ele>460.8</ele>
        <time>2021-05-03T11:58:48Z</time>
      </trkpt>
      <trkpt lat="45.22576" lon="5.02618">
        <ele>460.9</ele>
        <time>2021-05-03T11:58:49Z</time>
      </trkpt>
      <trkpt lat="45.22573" lon="5.02622">
        <ele>461.1</ele>
        <time>2021-05-03T11:58:51Z</time>
      </trkpt>
      <trkpt lat="45.2257" lon="5.02624">
        <ele>461.3</ele>
        <time>2021-05-03T11:58:52Z</time>
      </trkpt>
      <trkpt lat="45.22567" lon="5.02628">
        <ele>461.5</ele>
        <time>2021-05-03T11:58:53Z</time>
      </trkpt>
      <trkpt lat="45.22564" lon="5.02633">
        <ele>461.7</ele>
        <time>2021-05-03T11:58:55Z</time>
      </trkpt>
      <trkpt lat="45.22561" lon="5.02637">
        <ele>461.9</ele>
        <time>2021-05-03T11:58:56Z</time>
      </trkpt>
      <trkpt lat="45.22558" lon="5.02642">
        <ele>462.1</ele>
        <time>2021-05-03T11:58:58Z</time>
      </trkpt>
      <trkpt lat="45.22555" lon="5.02648">
        <ele>462.3</ele>
        <time>2021-05-03T11:58:59Z</time>
      </trkpt>
      <trkpt lat="45.22552" lon="5.02654">
        <ele>462.6</ele>
        <time>2021-05-03T11:59:01Z</time>
      </trkpt>
      <trkpt lat="45.22547" lon="5.02662">
        <ele>462.9</ele>
        <time>2021-05-03T11:59:03Z</time>
      </trkpt>
      <trkpt lat="45.22543" lon="5.02669">
        <ele>463.2</ele>
        <time>2021-05-03T11:59:05Z</time>
      </trkpt>
      <trkpt lat="45.22542" lon="5.02673">
        <ele>463.4</ele>
        <time>2021-05-03T11:59:06Z</time>
      </trkpt>
      <trkpt lat="45.2254" lon="5.02678">
        <ele>463.6</ele>
        <time>2021-05-03T11:59:07Z</time>
      </trkpt>
      <trkpt lat="45.22536" lon="5.02687">
        <ele>464</ele>
        <time>2021-05-03T11:59:09Z</time>
      </trkpt>
      <trkpt lat="45.22532" lon="5.02694">
        <ele>464.2</ele>
        <time>2021-05-03T11:59:11Z</time>
      </trkpt>
      <trkpt lat="45.2253" lon="5.02698">
        <ele>464.4</ele>
        <time>2021-05-03T11:59:12Z</time>
      </trkpt>
      <trkpt lat="45.22528" lon="5.02702">
        <ele>464.6</ele>
        <time>2021-05-03T11:59:13Z</time>
      </trkpt>
      <trkpt lat="45.22526" lon="5.02707">
        <ele>464.8</ele>
        <time>2021-05-03T11:59:14Z</time>
      </trkpt>
      <trkpt lat="45.22522" lon="5.02714">
        <ele>465.1</ele>
        <time>2021-05-03T11:59:16Z</time>
      </trkpt>
      <trkpt lat="45.2252" lon="5.02719">
        <ele>465.3</ele>
        <time>2021-05-03T11:59:17Z</time>
      </trkpt>
      <trkpt lat="45.22517" lon="5.02725">
        <ele>465.6</ele>
        <time>2021-05-03T11:59:19Z</time>
      </trkpt>
      <trkpt lat="45.22513" lon="5.02734">
        <ele>465.9</ele>
        <time>2021-05-03T11:59:21Z</time>
      </trkpt>
      <trkpt lat="45.2251" lon="5.02738">
        <ele>466.1</ele>
        <time>2021-05-03T11:59:22Z</time>
      </trkpt>
      <trkpt lat="45.22508" lon="5.02743">
        <ele>466.2</ele>
        <time>2021-05-03T11:59:23Z</time>
      </trkpt>
      <trkpt lat="45.22505" lon="5.0275">
        <ele>466.5</ele>
        <time>2021-05-03T11:59:25Z</time>
      </trkpt>
      <trkpt lat="45.22503" lon="5.02754">
        <ele>466.6</ele>
        <time>2021-05-03T11:59:26Z</time>
      </trkpt>
      <trkpt lat="45.225" lon="5.02762">
        <ele>466.9</ele>
        <time>2021-05-03T11:59:28Z</time>
      </trkpt>
      <trkpt lat="45.22496" lon="5.02766">
        <ele>467.1</ele>
        <time>2021-05-03T11:59:29Z</time>
      </trkpt>
      <trkpt lat="45.22494" lon="5.0277">
        <ele>467.2</ele>
        <time>2021-05-03T11:59:31Z</time>
      </trkpt>
      <trkpt lat="45.22491" lon="5.02773">
        <ele>467.3</ele>
        <time>2021-05-03T11:59:32Z</time>
      </trkpt>
      <trkpt lat="45.22487" lon="5.02779">
        <ele>467.6</ele>
        <time>2021-05-03T11:59:34Z</time>
      </trkpt>
      <trkpt lat="45.22484" lon="5.02784">
        <ele>467.7</ele>
        <time>2021-05-03T11:59:35Z</time>
      </trkpt>
      <trkpt lat="45.2248" lon="5.02788">
        <ele>467.9</ele>
        <time>2021-05-03T11:59:36Z</time>
      </trkpt>
      <trkpt lat="45.22476" lon="5.02791">
        <ele>468.1</ele>
        <time>2021-05-03T11:59:38Z</time>
      </trkpt>
      <trkpt lat="45.22473" lon="5.02794">
        <ele>468.2</ele>
        <time>2021-05-03T11:59:39Z</time>
      </trkpt>
      <trkpt lat="45.22469" lon="5.02797">
        <ele>468.4</ele>
        <time>2021-05-03T11:59:40Z</time>
      </trkpt>
      <trkpt lat="45.22465" lon="5.02801">
        <ele>468.6</ele>
        <time>2021-05-03T11:59:41Z</time>
      </trkpt>
      <trkpt lat="45.22459" lon="5.02805">
        <ele>468.8</ele>
        <time>2021-05-03T11:59:43Z</time>
      </trkpt>
      <trkpt lat="45.22454" lon="5.02808">
        <ele>469</ele>
        <time>2021-05-03T11:59:44Z</time>
      </trkpt>
      <trkpt lat="45.22451" lon="5.02809">
        <ele>469.1</ele>
        <time>2021-05-03T11:59:46Z</time>
      </trkpt>
      <trkpt lat="45.22448" lon="5.02811">
        <ele>469.2</ele>
        <time>2021-05-03T11:59:47Z</time>
      </trkpt>
      <trkpt lat="45.22444" lon="5.02812">
        <ele>469.4</ele>
        <time>2021-05-03T11:59:48Z</time>
      </trkpt>
      <trkpt lat="45.22439" lon="5.02814">
        <ele>469.6</ele>
        <time>2021-05-03T11:59:50Z</time>
      </trkpt>
      <trkpt lat="45.22436" lon="5.02815">
        <ele>469.7</ele>
        <time>2021-05-03T11:59:51Z</time>
      </trkpt>
      <trkpt lat="45.22432" lon="5.02816">
        <ele>469.8</ele>
        <time>2021-05-03T11:59:52Z</time>
      </trkpt>
      <trkpt lat="45.22429" lon="5.02817">
        <ele>469.9</ele>
        <time>2021-05-03T11:59:53Z</time>
      </trkpt>
      <trkpt lat="45.22425" lon="5.02818">
        <ele>470</ele>
        <time>2021-05-03T11:59:54Z</time>
      </trkpt>
      <trkpt lat="45.22421" lon="5.02818">
        <ele>470.1</ele>
        <time>2021-05-03T11:59:55Z</time>
      </trkpt>
      <trkpt lat="45.22418" lon="5.02819">
        <ele>470.2</ele>
        <time>2021-05-03T11:59:56Z</time>
      </trkpt>
      <trkpt lat="45.22415" lon="5.0282">
        <ele>470.3</ele>
        <time>2021-05-03T11:59:57Z</time>
      </trkpt>
      <trkpt lat="45.22411" lon="5.0282">
        <ele>470.4</ele>
        <time>2021-05-03T11:59:58Z</time>
      </trkpt>
      <trkpt lat="45.22408" lon="5.02821">
        <ele>470.5</ele>
        <time>2021-05-03T11:59:59Z</time>
      </trkpt>
      <trkpt lat="45.22404" lon="5.02821">
        <ele>470.6</ele>
        <time>2021-05-03T12:00:00Z</time>
      </trkpt>
      <trkpt lat="45.22401" lon="5.02821">
        <ele>470.7</ele>
        <time>2021-05-03T12:00:01Z</time>
      </trkpt>
      <trkpt lat="45.22397" lon="5.02821">
        <ele>470.8</ele>
        <time>2021-05-03T12:00:02Z</time>
      </trkpt>
      <trkpt lat="45.22394" lon="5.02821">
        <ele>470.9</ele>
        <time>2021-05-03T12:00:03Z</time>
      </trkpt>
      <trkpt lat="45.2239" lon="5.02822">
        <ele>471</ele>
        <time>2021-05-03T12:00:04Z</time>
      </trkpt>
      <trkpt lat="45.22386" lon="5.02822">
        <ele>471.1</ele>
        <time>2021-05-03T12:00:05Z</time>
      </trkpt>
      <trkpt lat="45.22383" lon="5.02823">
        <ele>471.2</ele>
        <time>2021-05-03T12:00:06Z</time>
      </trkpt>
      <trkpt lat="45.22379" lon="5.02824">
        <ele>471.2</ele>
        <time>2021-05-03T12:00:07Z</time>
      </trkpt>
      <trkpt lat="45.22376" lon="5.02824">
        <ele>471.3</ele>
        <time>2021-05-03T12:00:08Z</time>
      </trkpt>
      <trkpt lat="45.22372" lon="5.02825">
        <ele>471.4</ele>
        <time>2021-05-03T12:00:09Z</time>
      </trkpt>
      <trkpt lat="45.22368" lon="5.02826">
        <ele>471.5</ele>
        <time>2021-05-03T12:00:10Z</time>
      </trkpt>
      <trkpt lat="45.22364" lon="5.02827">
        <ele>471.5</ele>
        <time>2021-05-03T12:00:11Z</time>
      </trkpt>
      <trkpt lat="45.2236" lon="5.02828">
        <ele>471.6</ele>
        <time>2021-05-03T12:00:12Z</time>
      </trkpt>
      <trkpt lat="45.22356" lon="5.02828">
        <ele>471.7</ele>
        <time>2021-05-03T12:00:13Z</time>
      </trkpt>
      <trkpt lat="45.22352" lon="5.02829">
        <ele>471.7</ele>
        <time>2021-05-03T12:00:14Z</time>
      </trkpt>
      <trkpt lat="45.22348" lon="5.0283">
        <ele>471.8</ele>
        <time>2021-05-03T12:00:15Z</time>
      </trkpt>
      <trkpt lat="45.22344" lon="5.0283">
        <ele>471.8</ele>
        <time>2021-05-03T12:00:16Z</time>
      </trkpt>
      <trkpt lat="45.22339" lon="5.02831">
        <ele>471.9</ele>
        <time>2021-05-03T12:00:17Z</time>
      </trkpt>
      <trkpt lat="45.22334" lon="5.02832">
        <ele>471.9</ele>
        <time>2021-05-03T12:00:18Z</time>
      </trkpt>
      <trkpt lat="45.22328" lon="5.02833">
        <ele>471.9</ele>
        <time>2021-05-03T12:00:19Z</time>
      </trkpt>
      <trkpt lat="45.22319" lon="5.02835">
        <ele>472</ele>
        <time>2021-05-03T12:00:21Z</time>
      </trkpt>
      <trkpt lat="45.22314" lon="5.02835">
        <ele>472</ele>
        <time>2021-05-03T12:00:22Z</time>
      </trkpt>
      <trkpt lat="45.22309" lon="5.02836">
        <ele>472.1</ele>
        <time>2021-05-03T12:00:23Z</time>
      </trkpt>
      <trkpt lat="45.22305" lon="5.0283">
        <ele>472.1</ele>
        <time>2021-05-03T12:00:24Z</time>
      </trkpt>
      <trkpt lat="45.22298" lon="5.02832">
        <ele>472.2</ele>
        <time>2021-05-03T12:00:26Z</time>
      </trkpt>
      <trkpt lat="45.22292" lon="5.02834">
        <ele>472.2</ele>
        <time>2021-05-03T12:00:27Z</time>
      </trkpt>
      <trkpt lat="45.22284" lon="5.02838">
        <ele>472.3</ele>
        <time>2021-05-03T12:00:29Z</time>
      </trkpt>
      <trkpt lat="45.22279" lon="5.02839">
        <ele>472.3</ele>
        <time>2021-05-03T12:00:30Z</time>
      </trkpt>
      <trkpt lat="45.22275" lon="5.0284">
        <ele>472.4</ele>
        <time>2021-05-03T12:00:31Z</time>
      </trkpt>
      <trkpt lat="45.2227" lon="5.02841">
        <ele>472.4</ele>
        <time>2021-05-03T12:00:32Z</time>
      </trkpt>
      <trkpt lat="45.22265" lon="5.02841">
        <ele>472.5</ele>
        <time>2021-05-03T12:00:33Z</time>
      </trkpt>
      <trkpt lat="45.2226" lon="5.02842">
        <ele>472.6</ele>
        <time>2021-05-03T12:00:34Z</time>
      </trkpt>
      <trkpt lat="45.22256" lon="5.02843">
        <ele>472.6</ele>
        <time>2021-05-03T12:00:35Z</time>
      </trkpt>
      <trkpt lat="45.22251" lon="5.02844">
        <ele>472.7</ele>
        <time>2021-05-03T12:00:36Z</time>
      </trkpt>
      <trkpt lat="45.22246" lon="5.02845">
        <ele>472.8</ele>
        <time>2021-05-03T12:00:37Z</time>
      </trkpt>
      <trkpt lat="45.22241" lon="5.02846">
        <ele>472.9</ele>
        <time>2021-05-03T12:00:38Z</time>
      </trkpt>
      <trkpt lat="45.22236" lon="5.02847">
        <ele>473</ele>
        <time>2021-05-03T12:00:39Z</time>
      </trkpt>
      <trkpt lat="45.22231" lon="5.02849">
        <ele>473.1</ele>
        <time>2021-05-03T12:00:40Z</time>
      </trkpt>
      <trkpt lat="45.22226" lon="5.0285">
        <ele>473.2</ele>
        <time>2021-05-03T12:00:41Z</time>
      </trkpt>
      <trkpt lat="45.22222" lon="5.02852">
        <ele>473.3</ele>
        <time>2021-05-03T12:00:42Z</time>
      </trkpt>
      <trkpt lat="45.22217" lon="5.02853">
        <ele>473.4</ele>
        <time>2021-05-03T12:00:43Z</time>
      </trkpt>
      <trkpt lat="45.22212" lon="5.02854">
        <ele>473.5</ele>
        <time>2021-05-03T12:00:44Z</time>
      </trkpt>
      <trkpt lat="45.22207" lon="5.02856">
        <ele>473.6</ele>
        <time>2021-05-03T12:00:45Z</time>
      </trkpt>
      <trkpt lat="45.22203" lon="5.02857">
        <ele>473.7</ele>
        <time>2021-05-03T12:00:46Z</time>
      </trkpt>
      <trkpt lat="45.22198" lon="5.02859">
        <ele>473.8</ele>
        <time>2021-05-03T12:00:47Z</time>
      </trkpt>
      <trkpt lat="45.22194" lon="5.02861">
        <ele>473.9</ele>
        <time>2021-05-03T12:00:48Z</time>
      </trkpt>
      <trkpt lat="45.22189" lon="5.02862">
        <ele>474</ele>
        <time>2021-05-03T12:00:49Z</time>
      </trkpt>
      <trkpt lat="45.22185" lon="5.02863">
        <ele>474</ele>
        <time>2021-05-03T12:00:50Z</time>
      </trkpt>
      <trkpt lat="45.2218" lon="5.02865">
        <ele>474.1</ele>
        <time>2021-05-03T12:00:51Z</time>
      </trkpt>
      <trkpt lat="45.22176" lon="5.02867">
        <ele>474.1</ele>
        <time>2021-05-03T12:00:52Z</time>
      </trkpt>
      <trkpt lat="45.22172" lon="5.0287">
        <ele>474.1</ele>
        <time>2021-05-03T12:00:53Z</time>
      </trkpt>
      <trkpt lat="45.22168" lon="5.02873">
        <ele>474.1</ele>
        <time>2021-05-03T12:00:54Z</time>
      </trkpt>
      <trkpt lat="45.22163" lon="5.02875">
        <ele>474.2</ele>
        <time>2021-05-03T12:00:55Z</time>
      </trkpt>
      <trkpt lat="45.22158" lon="5.02878">
        <ele>474.2</ele>
        <time>2021-05-03T12:00:56Z</time>
      </trkpt>
      <trkpt lat="45.22153" lon="5.02882">
        <ele>474.2</ele>
        <time>2021-05-03T12:00:57Z</time>
      </trkpt>
      <trkpt lat="45.22148" lon="5.02885">
        <ele>474.3</ele>
        <time>2021-05-03T12:00:58Z</time>
      </trkpt>
      <trkpt lat="45.22144" lon="5.02889">
        <ele>474.3</ele>
        <time>2021-05-03T12:00:59Z</time>
      </trkpt>
      <trkpt lat="45.22139" lon="5.02892">
        <ele>474.3</ele>
        <time>2021-05-03T12:01:00Z</time>
      </trkpt>
      <trkpt lat="45.22135" lon="5.02896">
        <ele>474.4</ele>
        <time>2021-05-03T12:01:01Z</time>
      </trkpt>
      <trkpt lat="45.2213" lon="5.02899">
        <ele>474.5</ele>
        <time>2021-05-03T12:01:02Z</time>
      </trkpt>
      <trkpt lat="45.22126" lon="5.02903">
        <ele>474.5</ele>
        <time>2021-05-03T12:01:03Z</time>
      </trkpt>
      <trkpt lat="45.22122" lon="5.02906">
        <ele>474.6</ele>
        <time>2021-05-03T12:01:04Z</time>
      </trkpt>
      <trkpt lat="45.22117" lon="5.0291">
        <ele>474.7</ele>
        <time>2021-05-03T12:01:05Z</time>
      </trkpt>
      <trkpt lat="45.22113" lon="5.02914">
        <ele>474.7</ele>
        <time>2021-05-03T12:01:06Z</time>
      </trkpt>
      <trkpt lat="45.22109" lon="5.02918">
        <ele>474.8</ele>
        <time>2021-05-03T12:01:07Z</time>
      </trkpt>
      <trkpt lat="45.22104" lon="5.02922">
        <ele>474.9</ele>
        <time>2021-05-03T12:01:08Z</time>
      </trkpt>
      <trkpt lat="45.221" lon="5.02926">
        <ele>475</ele>
        <time>2021-05-03T12:01:09Z</time>
      </trkpt>
      <trkpt lat="45.22096" lon="5.0293">
        <ele>475</ele>
        <time>2021-05-03T12:01:10Z</time>
      </trkpt>
      <trkpt lat="45.22092" lon="5.02934">
        <ele>475.1</ele>
        <time>2021-05-03T12:01:11Z</time>
      </trkpt>
      <trkpt lat="45.22088" lon="5.02937">
        <ele>475.2</ele>
        <time>2021-05-03T12:01:12Z</time>
      </trkpt>
      <trkpt lat="45.22084" lon="5.02941">
        <ele>475.2</ele>
        <time>2021-05-03T12:01:13Z</time>
      </trkpt>
      <trkpt lat="45.2208" lon="5.02945">
        <ele>475.3</ele>
        <time>2021-05-03T12:01:14Z</time>
      </trkpt>
      <trkpt lat="45.22076" lon="5.02949">
        <ele>475.4</ele>
        <time>2021-05-03T12:01:15Z</time>
      </trkpt>
      <trkpt lat="45.22072" lon="5.02953">
        <ele>475.5</ele>
        <time>2021-05-03T12:01:16Z</time>
      </trkpt>
      <trkpt lat="45.22069" lon="5.02957">
        <ele>475.5</ele>
        <time>2021-05-03T12:01:17Z</time>
      </trkpt>
      <trkpt lat="45.22065" lon="5.02961">
        <ele>475.6</ele>
        <time>2021-05-03T12:01:18Z</time>
      </trkpt>
      <trkpt lat="45.2206" lon="5.02965">
        <ele>475.7</ele>
        <time>2021-05-03T12:01:19Z</time>
      </trkpt>
      <trkpt lat="45.22057" lon="5.02968">
        <ele>475.8</ele>
        <time>2021-05-03T12:01:20Z</time>
      </trkpt>
      <trkpt lat="45.22052" lon="5.02972">
        <ele>475.9</ele>
        <time>2021-05-03T12:01:21Z</time>
      </trkpt>
      <trkpt lat="45.22048" lon="5.02976">
        <ele>476</ele>
        <time>2021-05-03T12:01:22Z</time>
      </trkpt>
      <trkpt lat="45.22044" lon="5.0298">
        <ele>476.1</ele>
        <time>2021-05-03T12:01:23Z</time>
      </trkpt>
      <trkpt lat="45.2204" lon="5.02984">
        <ele>476.2</ele>
        <time>2021-05-03T12:01:24Z</time>
      </trkpt>
      <trkpt lat="45.22036" lon="5.02987">
        <ele>476.3</ele>
        <time>2021-05-03T12:01:25Z</time>
      </trkpt>
      <trkpt lat="45.22032" lon="5.02991">
        <ele>476.3</ele>
        <time>2021-05-03T12:01:26Z</time>
      </trkpt>
      <trkpt lat="45.22028" lon="5.02994">
        <ele>476.4</ele>
        <time>2021-05-03T12:01:27Z</time>
      </trkpt>
      <trkpt lat="45.22024" lon="5.02997">
        <ele>476.5</ele>
        <time>2021-05-03T12:01:28Z</time>
      </trkpt>
      <trkpt lat="45.22022" lon="5.02999">
        <ele>476.5</ele>
        <time>2021-05-03T12:01:29Z</time>
      </trkpt>
      <trkpt lat="45.22018" lon="5.03003">
        <ele>476.6</ele>
        <time>2021-05-03T12:01:30Z</time>
      </trkpt>
      <trkpt lat="45.22014" lon="5.03007">
        <ele>476.7</ele>
        <time>2021-05-03T12:01:31Z</time>
      </trkpt>
      <trkpt lat="45.2201" lon="5.03011">
        <ele>476.7</ele>
        <time>2021-05-03T12:01:32Z</time>
      </trkpt>
      <trkpt lat="45.22006" lon="5.03015">
        <ele>476.7</ele>
        <time>2021-05-03T12:01:33Z</time>
      </trkpt>
      <trkpt lat="45.22002" lon="5.03019">
        <ele>476.8</ele>
        <time>2021-05-03T12:01:34Z</time>
      </trkpt>
      <trkpt lat="45.21998" lon="5.03023">
        <ele>476.8</ele>
        <time>2021-05-03T12:01:35Z</time>
      </trkpt>
      <trkpt lat="45.21993" lon="5.03027">
        <ele>476.8</ele>
        <time>2021-05-03T12:01:36Z</time>
      </trkpt>
      <trkpt lat="45.21989" lon="5.03032">
        <ele>476.8</ele>
        <time>2021-05-03T12:01:37Z</time>
      </trkpt>
      <trkpt lat="45.21985" lon="5.03036">
        <ele>476.8</ele>
        <time>2021-05-03T12:01:38Z</time>
      </trkpt>
      <trkpt lat="45.21981" lon="5.0304">
        <ele>476.9</ele>
        <time>2021-05-03T12:01:39Z</time>
      </trkpt>
      <trkpt lat="45.21976" lon="5.03044">
        <ele>476.9</ele>
        <time>2021-05-03T12:01:40Z</time>
      </trkpt>
      <trkpt lat="45.21971" lon="5.03048">
        <ele>476.9</ele>
        <time>2021-05-03T12:01:41Z</time>
      </trkpt>
      <trkpt lat="45.21967" lon="5.03052">
        <ele>476.9</ele>
        <time>2021-05-03T12:01:42Z</time>
      </trkpt>
      <trkpt lat="45.21961" lon="5.03057">
        <ele>476.9</ele>
        <time>2021-05-03T12:01:43Z</time>
      </trkpt>
      <trkpt lat="45.21955" lon="5.03061">
        <ele>476.9</ele>
        <time>2021-05-03T12:01:44Z</time>
      </trkpt>
      <trkpt lat="45.2195" lon="5.03065">
        <ele>476.8</ele>
        <time>2021-05-03T12:01:45Z</time>
      </trkpt>
      <trkpt lat="45.21945" lon="5.03068">
        <ele>476.8</ele>
        <time>2021-05-03T12:01:46Z</time>
      </trkpt>
      <trkpt lat="45.2194" lon="5.03072">
        <ele>476.8</ele>
        <time>2021-05-03T12:01:47Z</time>
      </trkpt>
      <trkpt lat="45.21935" lon="5.03075">
        <ele>476.8</ele>
        <time>2021-05-03T12:01:48Z</time>
      </trkpt>
      <trkpt lat="45.21929" lon="5.03079">
        <ele>476.8</ele>
        <time>2021-05-03T12:01:49Z</time>
      </trkpt>
      <trkpt lat="45.21924" lon="5.03083">
        <ele>476.8</ele>
        <time>2021-05-03T12:01:50Z</time>
      </trkpt>
      <trkpt lat="45.21918" lon="5.03086">
        <ele>476.8</ele>
        <time>2021-05-03T12:01:51Z</time>
      </trkpt>
      <trkpt lat="45.21913" lon="5.03089">
        <ele>476.8</ele>
        <time>2021-05-03T12:01:52Z</time>
      </trkpt>
      <trkpt lat="45.21907" lon="5.03092">
        <ele>476.8</ele>
        <time>2021-05-03T12:01:53Z</time>
      </trkpt>
      <trkpt lat="45.21901" lon="5.03094">
        <ele>476.8</ele>
        <time>2021-05-03T12:01:54Z</time>
      </trkpt>
      <trkpt lat="45.21895" lon="5.03096">
        <ele>476.8</ele>
        <time>2021-05-03T12:01:55Z</time>
      </trkpt>
      <trkpt lat="45.2189" lon="5.03098">
        <ele>476.7</ele>
        <time>2021-05-03T12:01:56Z</time>
      </trkpt>
      <trkpt lat="45.21884" lon="5.031">
        <ele>476.7</ele>
        <time>2021-05-03T12:01:57Z</time>
      </trkpt>
      <trkpt lat="45.21878" lon="5.03102">
        <ele>476.7</ele>
        <time>2021-05-03T12:01:58Z</time>
      </trkpt>
      <trkpt lat="45.21873" lon="5.03104">
        <ele>476.7</ele>
        <time>2021-05-03T12:01:59Z</time>
      </trkpt>
      <trkpt lat="45.21867" lon="5.03105">
        <ele>476.7</ele>
        <time>2021-05-03T12:02:00Z</time>
      </trkpt>
      <trkpt lat="45.21861" lon="5.03107">
        <ele>476.7</ele>
        <time>2021-05-03T12:02:01Z</time>
      </trkpt>
      <trkpt lat="45.21855" lon="5.03108">
        <ele>476.7</ele>
        <time>2021-05-03T12:02:02Z</time>
      </trkpt>
      <trkpt lat="45.21849" lon="5.03109">
        <ele>476.7</ele>
        <time>2021-05-03T12:02:03Z</time>
      </trkpt>
      <trkpt lat="45.21842" lon="5.03111">
        <ele>476.7</ele>
        <time>2021-05-03T12:02:04Z</time>
      </trkpt>
      <trkpt lat="45.21836" lon="5.03113">
        <ele>476.7</ele>
        <time>2021-05-03T12:02:05Z</time>
      </trkpt>
      <trkpt lat="45.2183" lon="5.03115">
        <ele>476.7</ele>
        <time>2021-05-03T12:02:06Z</time>
      </trkpt>
      <trkpt lat="45.21824" lon="5.03116">
        <ele>476.7</ele>
        <time>2021-05-03T12:02:07Z</time>
      </trkpt>
      <trkpt lat="45.21817" lon="5.03117">
        <ele>476.7</ele>
        <time>2021-05-03T12:02:08Z</time>
      </trkpt>
      <trkpt lat="45.21811" lon="5.03118">
        <ele>476.6</ele>
        <time>2021-05-03T12:02:09Z</time>
      </trkpt>
      <trkpt lat="45.21805" lon="5.03119">
        <ele>476.6</ele>
        <time>2021-05-03T12:02:10Z</time>
      </trkpt>
      <trkpt lat="45.21798" lon="5.0312">
        <ele>476.6</ele>
        <time>2021-05-03T12:02:11Z</time>
      </trkpt>
      <trkpt lat="45.21792" lon="5.03121">
        <ele>476.6</ele>
        <time>2021-05-03T12:02:12Z</time>
      </trkpt>
      <trkpt lat="45.21785" lon="5.03123">
        <ele>476.5</ele>
        <time>2021-05-03T12:02:13Z</time>
      </trkpt>
      <trkpt lat="45.21778" lon="5.03124">
        <ele>476.5</ele>
        <time>2021-05-03T12:02:14Z</time>
      </trkpt>
      <trkpt lat="45.21772" lon="5.03126">
        <ele>476.5</ele>
        <time>2021-05-03T12:02:15Z</time>
      </trkpt>
      <trkpt lat="45.21765" lon="5.03127">
        <ele>476.5</ele>
        <time>2021-05-03T12:02:16Z</time>
      </trkpt>
      <trkpt lat="45.21759" lon="5.03128">
        <ele>476.5</ele>
        <time>2021-05-03T12:02:17Z</time>
      </trkpt>
      <trkpt lat="45.21753" lon="5.03129">
        <ele>476.5</ele>
        <time>2021-05-03T12:02:18Z</time>
      </trkpt>
      <trkpt lat="45.21747" lon="5.0313">
        <ele>476.5</ele>
        <time>2021-05-03T12:02:19Z</time>
      </trkpt>
      <trkpt lat="45.2174" lon="5.03131">
        <ele>476.6</ele>
        <time>2021-05-03T12:02:20Z</time>
      </trkpt>
      <trkpt lat="45.21733" lon="5.03133">
        <ele>476.5</ele>
        <time>2021-05-03T12:02:21Z</time>
      </trkpt>
      <trkpt lat="45.21727" lon="5.03135">
        <ele>476.5</ele>
        <time>2021-05-03T12:02:22Z</time>
      </trkpt>
      <trkpt lat="45.2172" lon="5.03137">
        <ele>476.4</ele>
        <time>2021-05-03T12:02:23Z</time>
      </trkpt>
      <trkpt lat="45.21713" lon="5.03139">
        <ele>476.4</ele>
        <time>2021-05-03T12:02:24Z</time>
      </trkpt>
      <trkpt lat="45.21706" lon="5.03141">
        <ele>476.3</ele>
        <time>2021-05-03T12:02:25Z</time>
      </trkpt>
      <trkpt lat="45.21699" lon="5.03143">
        <ele>476.3</ele>
        <time>2021-05-03T12:02:26Z</time>
      </trkpt>
      <trkpt lat="45.21693" lon="5.03145">
        <ele>476.3</ele>
        <time>2021-05-03T12:02:27Z</time>
      </trkpt>
      <trkpt lat="45.21686" lon="5.03146">
        <ele>476.3</ele>
        <time>2021-05-03T12:02:28Z</time>
      </trkpt>
      <trkpt lat="45.21679" lon="5.03147">
        <ele>476.3</ele>
        <time>2021-05-03T12:02:29Z</time>
      </trkpt>
      <trkpt lat="45.21672" lon="5.03147">
        <ele>476.3</ele>
        <time>2021-05-03T12:02:30Z</time>
      </trkpt>
      <trkpt lat="45.21666" lon="5.03148">
        <ele>476.3</ele>
        <time>2021-05-03T12:02:31Z</time>
      </trkpt>
      <trkpt lat="45.21659" lon="5.03149">
        <ele>476.3</ele>
        <time>2021-05-03T12:02:32Z</time>
      </trkpt>
      <trkpt lat="45.21653" lon="5.0315">
        <ele>476.3</ele>
        <time>2021-05-03T12:02:33Z</time>
      </trkpt>
      <trkpt lat="45.21646" lon="5.0315">
        <ele>476.3</ele>
        <time>2021-05-03T12:02:34Z</time>
      </trkpt>
      <trkpt lat="45.2164" lon="5.03149">
        <ele>476.3</ele>
        <time>2021-05-03T12:02:35Z</time>
      </trkpt>
      <trkpt lat="45.21634" lon="5.03148">
        <ele>476.2</ele>
        <time>2021-05-03T12:02:36Z</time>
      </trkpt>
      <trkpt lat="45.21627" lon="5.03146">
        <ele>476.2</ele>
        <time>2021-05-03T12:02:37Z</time>
      </trkpt>
      <trkpt lat="45.21621" lon="5.03144">
        <ele>476.2</ele>
        <time>2021-05-03T12:02:38Z</time>
      </trkpt>
      <trkpt lat="45.21615" lon="5.03142">
        <ele>476.2</ele>
        <time>2021-05-03T12:02:39Z</time>
      </trkpt>
      <trkpt lat="45.21609" lon="5.0314">
        <ele>476.2</ele>
        <time>2021-05-03T12:02:40Z</time>
      </trkpt>
      <trkpt lat="45.21603" lon="5.03137">
        <ele>476.2</ele>
        <time>2021-05-03T12:02:41Z</time>
      </trkpt>
      <trkpt lat="45.21596" lon="5.03134">
        <ele>476.2</ele>
        <time>2021-05-03T12:02:42Z</time>
      </trkpt>
      <trkpt lat="45.2159" lon="5.03132">
        <ele>476.2</ele>
        <time>2021-05-03T12:02:43Z</time>
      </trkpt>
      <trkpt lat="45.21584" lon="5.0313">
        <ele>476.2</ele>
        <time>2021-05-03T12:02:44Z</time>
      </trkpt>
      <trkpt lat="45.21579" lon="5.03127">
        <ele>476.2</ele>
        <time>2021-05-03T12:02:45Z</time>
      </trkpt>
      <trkpt lat="45.21572" lon="5.03125">
        <ele>476.1</ele>
        <time>2021-05-03T12:02:46Z</time>
      </trkpt>
      <trkpt lat="45.21566" lon="5.03124">
        <ele>476.1</ele>
        <time>2021-05-03T12:02:47Z</time>
      </trkpt>
      <trkpt lat="45.2156" lon="5.03123">
        <ele>476.1</ele>
        <time>2021-05-03T12:02:48Z</time>
      </trkpt>
      <trkpt lat="45.21555" lon="5.03122">
        <ele>476</ele>
        <time>2021-05-03T12:02:49Z</time>
      </trkpt>
      <trkpt lat="45.21549" lon="5.0312">
        <ele>476</ele>
        <time>2021-05-03T12:02:50Z</time>
      </trkpt>
      <trkpt lat="45.21543" lon="5.03118">
        <ele>475.9</ele>
        <time>2021-05-03T12:02:51Z</time>
      </trkpt>
      <trkpt lat="45.21536" lon="5.03116">
        <ele>475.9</ele>
        <time>2021-05-03T12:02:52Z</time>
      </trkpt>
      <trkpt lat="45.2153" lon="5.03114">
        <ele>475.9</ele>
        <time>2021-05-03T12:02:53Z</time>
      </trkpt>
      <trkpt lat="45.21524" lon="5.03112">
        <ele>475.8</ele>
        <time>2021-05-03T12:02:54Z</time>
      </trkpt>
      <trkpt lat="45.21518" lon="5.03111">
        <ele>475.8</ele>
        <time>2021-05-03T12:02:55Z</time>
      </trkpt>
      <trkpt lat="45.21512" lon="5.0311">
        <ele>475.8</ele>
        <time>2021-05-03T12:02:56Z</time>
      </trkpt>
      <trkpt lat="45.21506" lon="5.03109">
        <ele>475.7</ele>
        <time>2021-05-03T12:02:57Z</time>
      </trkpt>
      <trkpt lat="45.215" lon="5.03108">
        <ele>475.6</ele>
        <time>2021-05-03T12:02:58Z</time>
      </trkpt>
      <trkpt lat="45.21494" lon="5.03107">
        <ele>475.5</ele>
        <time>2021-05-03T12:02:59Z</time>
      </trkpt>
      <trkpt lat="45.21487" lon="5.03107">
        <ele>475.4</ele>
        <time>2021-05-03T12:03:00Z</time>
      </trkpt>
      <trkpt lat="45.21481" lon="5.03106">
        <ele>475.3</ele>
        <time>2021-05-03T12:03:01Z</time>
      </trkpt>
      <trkpt lat="45.21474" lon="5.03107">
        <ele>475.2</ele>
        <time>2021-05-03T12:03:02Z</time>
      </trkpt>
      <trkpt lat="45.21467" lon="5.03108">
        <ele>475</ele>
        <time>2021-05-03T12:03:03Z</time>
      </trkpt>
      <trkpt lat="45.2146" lon="5.03109">
        <ele>474.9</ele>
        <time>2021-05-03T12:03:04Z</time>
      </trkpt>
      <trkpt lat="45.21453" lon="5.03111">
        <ele>474.7</ele>
        <time>2021-05-03T12:03:05Z</time>
      </trkpt>
      <trkpt lat="45.21445" lon="5.03114">
        <ele>474.6</ele>
        <time>2021-05-03T12:03:06Z</time>
      </trkpt>
      <trkpt lat="45.21438" lon="5.03117">
        <ele>474.4</ele>
        <time>2021-05-03T12:03:07Z</time>
      </trkpt>
      <trkpt lat="45.21431" lon="5.0312">
        <ele>474.1</ele>
        <time>2021-05-03T12:03:08Z</time>
      </trkpt>
      <trkpt lat="45.21424" lon="5.03122">
        <ele>473.8</ele>
        <time>2021-05-03T12:03:09Z</time>
      </trkpt>
      <trkpt lat="45.21416" lon="5.03125">
        <ele>473.5</ele>
        <time>2021-05-03T12:03:10Z</time>
      </trkpt>
      <trkpt lat="45.21408" lon="5.03127">
        <ele>473.1</ele>
        <time>2021-05-03T12:03:11Z</time>
      </trkpt>
      <trkpt lat="45.21399" lon="5.03129">
        <ele>472.6</ele>
        <time>2021-05-03T12:03:12Z</time>
      </trkpt>
      <trkpt lat="45.21391" lon="5.03132">
        <ele>472.2</ele>
        <time>2021-05-03T12:03:13Z</time>
      </trkpt>
      <trkpt lat="45.21382" lon="5.03135">
        <ele>471.7</ele>
        <time>2021-05-03T12:03:14Z</time>
      </trkpt>
      <trkpt lat="45.21373" lon="5.03138">
        <ele>471.2</ele>
        <time>2021-05-03T12:03:15Z</time>
      </trkpt>
      <trkpt lat="45.21364" lon="5.03142">
        <ele>470.6</ele>
        <time>2021-05-03T12:03:16Z</time>
      </trkpt>
      <trkpt lat="45.21355" lon="5.03145">
        <ele>470.1</ele>
        <time>2021-05-03T12:03:17Z</time>
      </trkpt>
      <trkpt lat="45.21346" lon="5.03149">
        <ele>469.5</ele>
        <time>2021-05-03T12:03:18Z</time>
      </trkpt>
      <trkpt lat="45.21336" lon="5.03153">
        <ele>468.9</ele>
        <time>2021-05-03T12:03:19Z</time>
      </trkpt>
      <trkpt lat="45.21327" lon="5.03156">
        <ele>468.3</ele>
        <time>2021-05-03T12:03:20Z</time>
      </trkpt>
      <trkpt lat="45.21317" lon="5.03159">
        <ele>467.7</ele>
        <time>2021-05-03T12:03:21Z</time>
      </trkpt>
      <trkpt lat="45.21307" lon="5.03161">
        <ele>467.2</ele>
        <time>2021-05-03T12:03:22Z</time>
      </trkpt>
      <trkpt lat="45.21297" lon="5.03162">
        <ele>466.5</ele>
        <time>2021-05-03T12:03:23Z</time>
      </trkpt>
      <trkpt lat="45.21287" lon="5.03162">
        <ele>465.9</ele>
        <time>2021-05-03T12:03:24Z</time>
      </trkpt>
      <trkpt lat="45.21277" lon="5.03161">
        <ele>465.4</ele>
        <time>2021-05-03T12:03:25Z</time>
      </trkpt>
      <trkpt lat="45.21267" lon="5.03158">
        <ele>464.8</ele>
        <time>2021-05-03T12:03:26Z</time>
      </trkpt>
      <trkpt lat="45.21256" lon="5.03154">
        <ele>464.2</ele>
        <time>2021-05-03T12:03:27Z</time>
      </trkpt>
      <trkpt lat="45.21246" lon="5.03149">
        <ele>463.6</ele>
        <time>2021-05-03T12:03:28Z</time>
      </trkpt>
      <trkpt lat="45.21235" lon="5.03145">
        <ele>462.9</ele>
        <time>2021-05-03T12:03:29Z</time>
      </trkpt>
      <trkpt lat="45.21224" lon="5.03141">
        <ele>462.2</ele>
        <time>2021-05-03T12:03:30Z</time>
      </trkpt>
      <trkpt lat="45.21213" lon="5.03137">
        <ele>461.6</ele>
        <time>2021-05-03T12:03:31Z</time>
      </trkpt>
      <trkpt lat="45.21201" lon="5.03132">
        <ele>460.9</ele>
        <time>2021-05-03T12:03:32Z</time>
      </trkpt>
      <trkpt lat="45.2119" lon="5.03127">
        <ele>460.2</ele>
        <time>2021-05-03T12:03:33Z</time>
      </trkpt>
      <trkpt lat="45.21179" lon="5.03122">
        <ele>459.5</ele>
        <time>2021-05-03T12:03:34Z</time>
      </trkpt>
      <trkpt lat="45.21168" lon="5.03117">
        <ele>458.9</ele>
        <time>2021-05-03T12:03:35Z</time>
      </trkpt>
      <trkpt lat="45.21157" lon="5.03112">
        <ele>458.2</ele>
        <time>2021-05-03T12:03:36Z</time>
      </trkpt>
      <trkpt lat="45.21146" lon="5.03106">
        <ele>457.5</ele>
        <time>2021-05-03T12:03:37Z</time>
      </trkpt>
      <trkpt lat="45.21135" lon="5.03101">
        <ele>456.9</ele>
        <time>2021-05-03T12:03:38Z</time>
      </trkpt>
      <trkpt lat="45.21124" lon="5.03096">
        <ele>456.3</ele>
        <time>2021-05-03T12:03:39Z</time>
      </trkpt>
      <trkpt lat="45.21113" lon="5.03091">
        <ele>455.6</ele>
        <time>2021-05-03T12:03:40Z</time>
      </trkpt>
      <trkpt lat="45.21102" lon="5.03087">
        <ele>455</ele>
        <time>2021-05-03T12:03:41Z</time>
      </trkpt>
      <trkpt lat="45.2109" lon="5.03084">
        <ele>454.4</ele>
        <time>2021-05-03T12:03:42Z</time>
      </trkpt>
      <trkpt lat="45.21079" lon="5.03084">
        <ele>453.9</ele>
        <time>2021-05-03T12:03:43Z</time>
      </trkpt>
      <trkpt lat="45.21068" lon="5.03084">
        <ele>453.3</ele>
        <time>2021-05-03T12:03:44Z</time>
      </trkpt>
      <trkpt lat="45.21057" lon="5.03087">
        <ele>452.6</ele>
        <time>2021-05-03T12:03:45Z</time>
      </trkpt>
      <trkpt lat="45.21047" lon="5.03092">
        <ele>452.1</ele>
        <time>2021-05-03T12:03:46Z</time>
      </trkpt>
      <trkpt lat="45.21036" lon="5.03096">
        <ele>451.4</ele>
        <time>2021-05-03T12:03:47Z</time>
      </trkpt>
      <trkpt lat="45.21026" lon="5.03101">
        <ele>450.8</ele>
        <time>2021-05-03T12:03:48Z</time>
      </trkpt>
      <trkpt lat="45.21015" lon="5.03105">
        <ele>450.2</ele>
        <time>2021-05-03T12:03:49Z</time>
      </trkpt>
      <trkpt lat="45.21005" lon="5.03109">
        <ele>449.6</ele>
        <time>2021-05-03T12:03:50Z</time>
      </trkpt>
      <trkpt lat="45.20995" lon="5.03113">
        <ele>449.1</ele>
        <time>2021-05-03T12:03:51Z</time>
      </trkpt>
      <trkpt lat="45.20984" lon="5.03118">
        <ele>448.5</ele>
        <time>2021-05-03T12:03:52Z</time>
      </trkpt>
      <trkpt lat="45.20974" lon="5.03122">
        <ele>448</ele>
        <time>2021-05-03T12:03:53Z</time>
      </trkpt>
      <trkpt lat="45.20964" lon="5.03127">
        <ele>447.5</ele>
        <time>2021-05-03T12:03:54Z</time>
      </trkpt>
      <trkpt lat="45.20953" lon="5.03131">
        <ele>447</ele>
        <time>2021-05-03T12:03:55Z</time>
      </trkpt>
      <trkpt lat="45.20942" lon="5.03136">
        <ele>446.4</ele>
        <time>2021-05-03T12:03:56Z</time>
      </trkpt>
      <trkpt lat="45.20932" lon="5.0314">
        <ele>445.8</ele>
        <time>2021-05-03T12:03:57Z</time>
      </trkpt>
      <trkpt lat="45.20921" lon="5.03144">
        <ele>445.2</ele>
        <time>2021-05-03T12:03:58Z</time>
      </trkpt>
      <trkpt lat="45.20911" lon="5.03149">
        <ele>444.6</ele>
        <time>2021-05-03T12:03:59Z</time>
      </trkpt>
      <trkpt lat="45.20902" lon="5.03156">
        <ele>444</ele>
        <time>2021-05-03T12:04:00Z</time>
      </trkpt>
      <trkpt lat="45.20893" lon="5.03164">
        <ele>443.4</ele>
        <time>2021-05-03T12:04:01Z</time>
      </trkpt>
      <trkpt lat="45.20884" lon="5.03174">
        <ele>442.7</ele>
        <time>2021-05-03T12:04:02Z</time>
      </trkpt>
      <trkpt lat="45.20878" lon="5.03187">
        <ele>442</ele>
        <time>2021-05-03T12:04:03Z</time>
      </trkpt>
      <trkpt lat="45.20872" lon="5.03201">
        <ele>441.3</ele>
        <time>2021-05-03T12:04:04Z</time>
      </trkpt>
      <trkpt lat="45.20868" lon="5.03216">
        <ele>440.6</ele>
        <time>2021-05-03T12:04:05Z</time>
      </trkpt>
      <trkpt lat="45.20866" lon="5.03231">
        <ele>440.1</ele>
        <time>2021-05-03T12:04:06Z</time>
      </trkpt>
      <trkpt lat="45.20863" lon="5.03247">
        <ele>439.8</ele>
        <time>2021-05-03T12:04:07Z</time>
      </trkpt>
      <trkpt lat="45.20861" lon="5.03262">
        <ele>439.5</ele>
        <time>2021-05-03T12:04:08Z</time>
      </trkpt>
      <trkpt lat="45.20858" lon="5.03276">
        <ele>439.3</ele>
        <time>2021-05-03T12:04:09Z</time>
      </trkpt>
      <trkpt lat="45.20856" lon="5.0329">
        <ele>439.2</ele>
        <time>2021-05-03T12:04:10Z</time>
      </trkpt>
      <trkpt lat="45.20855" lon="5.03305">
        <ele>439.1</ele>
        <time>2021-05-03T12:04:11Z</time>
      </trkpt>
      <trkpt lat="45.20855" lon="5.03318">
        <ele>439.1</ele>
        <time>2021-05-03T12:04:12Z</time>
      </trkpt>
      <trkpt lat="45.20856" lon="5.03331">
        <ele>439</ele>
        <time>2021-05-03T12:04:13Z</time>
      </trkpt>
      <trkpt lat="45.20859" lon="5.03344">
        <ele>439</ele>
        <time>2021-05-03T12:04:14Z</time>
      </trkpt>
      <trkpt lat="45.20863" lon="5.03355">
        <ele>439</ele>
        <time>2021-05-03T12:04:15Z</time>
      </trkpt>
      <trkpt lat="45.20868" lon="5.03366">
        <ele>439.1</ele>
        <time>2021-05-03T12:04:16Z</time>
      </trkpt>
      <trkpt lat="45.20873" lon="5.03377">
        <ele>439.2</ele>
        <time>2021-05-03T12:04:17Z</time>
      </trkpt>
      <trkpt lat="45.20877" lon="5.03388">
        <ele>439.2</ele>
        <time>2021-05-03T12:04:18Z</time>
      </trkpt>
      <trkpt lat="45.2088" lon="5.034">
        <ele>439.3</ele>
        <time>2021-05-03T12:04:19Z</time>
      </trkpt>
      <trkpt lat="45.20883" lon="5.03411">
        <ele>439.3</ele>
        <time>2021-05-03T12:04:20Z</time>
      </trkpt>
      <trkpt lat="45.20884" lon="5.03423">
        <ele>439.3</ele>
        <time>2021-05-03T12:04:21Z</time>
      </trkpt>
      <trkpt lat="45.20883" lon="5.03434">
        <ele>439.3</ele>
        <time>2021-05-03T12:04:22Z</time>
      </trkpt>
      <trkpt lat="45.20881" lon="5.03446">
        <ele>439.3</ele>
        <time>2021-05-03T12:04:23Z</time>
      </trkpt>
      <trkpt lat="45.20878" lon="5.03457">
        <ele>439.1</ele>
        <time>2021-05-03T12:04:24Z</time>
      </trkpt>
      <trkpt lat="45.20873" lon="5.03467">
        <ele>438.9</ele>
        <time>2021-05-03T12:04:25Z</time>
      </trkpt>
      <trkpt lat="45.20868" lon="5.03477">
        <ele>438.7</ele>
        <time>2021-05-03T12:04:26Z</time>
      </trkpt>
      <trkpt lat="45.2086" lon="5.03485">
        <ele>438.4</ele>
        <time>2021-05-03T12:04:27Z</time>
      </trkpt>
      <trkpt lat="45.20853" lon="5.03492">
        <ele>438.1</ele>
        <time>2021-05-03T12:04:28Z</time>
      </trkpt>
      <trkpt lat="45.20845" lon="5.03497">
        <ele>437.8</ele>
        <time>2021-05-03T12:04:29Z</time>
      </trkpt>
      <trkpt lat="45.20836" lon="5.03502">
        <ele>437.5</ele>
        <time>2021-05-03T12:04:30Z</time>
      </trkpt>
      <trkpt lat="45.20827" lon="5.03506">
        <ele>437.2</ele>
        <time>2021-05-03T12:04:31Z</time>
      </trkpt>
      <trkpt lat="45.20818" lon="5.03509">
        <ele>436.9</ele>
        <time>2021-05-03T12:04:32Z</time>
      </trkpt>
      <trkpt lat="45.2081" lon="5.03513">
        <ele>436.6</ele>
        <time>2021-05-03T12:04:33Z</time>
      </trkpt>
      <trkpt lat="45.20801" lon="5.03518">
        <ele>436.4</ele>
        <time>2021-05-03T12:04:34Z</time>
      </trkpt>
      <trkpt lat="45.20792" lon="5.03523">
        <ele>436.1</ele>
        <time>2021-05-03T12:04:35Z</time>
      </trkpt>
      <trkpt lat="45.20783" lon="5.03527">
        <ele>435.7</ele>
        <time>2021-05-03T12:04:36Z</time>
      </trkpt>
      <trkpt lat="45.20774" lon="5.03532">
        <ele>435.4</ele>
        <time>2021-05-03T12:04:37Z</time>
      </trkpt>
      <trkpt lat="45.20766" lon="5.03536">
        <ele>435.1</ele>
        <time>2021-05-03T12:04:38Z</time>
      </trkpt>
      <trkpt lat="45.20757" lon="5.0354">
        <ele>434.7</ele>
        <time>2021-05-03T12:04:39Z</time>
      </trkpt>
      <trkpt lat="45.20748" lon="5.03545">
        <ele>434.3</ele>
        <time>2021-05-03T12:04:40Z</time>
      </trkpt>
      <trkpt lat="45.20739" lon="5.03549">
        <ele>433.9</ele>
        <time>2021-05-03T12:04:41Z</time>
      </trkpt>
      <trkpt lat="45.2073" lon="5.03554">
        <ele>433.5</ele>
        <time>2021-05-03T12:04:42Z</time>
      </trkpt>
      <trkpt lat="45.2072" lon="5.03559">
        <ele>433.2</ele>
        <time>2021-05-03T12:04:43Z</time>
      </trkpt>
      <trkpt lat="45.20711" lon="5.03564">
        <ele>432.7</ele>
        <time>2021-05-03T12:04:44Z</time>
      </trkpt>
      <trkpt lat="45.20702" lon="5.03569">
        <ele>432.3</ele>
        <time>2021-05-03T12:04:45Z</time>
      </trkpt>
      <trkpt lat="45.20693" lon="5.03573">
        <ele>431.8</ele>
        <time>2021-05-03T12:04:46Z</time>
      </trkpt>
      <trkpt lat="45.20683" lon="5.03578">
        <ele>431.5</ele>
        <time>2021-05-03T12:04:47Z</time>
      </trkpt>
      <trkpt lat="45.20674" lon="5.03582">
        <ele>431.1</ele>
        <time>2021-05-03T12:04:48Z</time>
      </trkpt>
      <trkpt lat="45.20665" lon="5.03587">
        <ele>430.6</ele>
        <time>2021-05-03T12:04:49Z</time>
      </trkpt>
      <trkpt lat="45.20656" lon="5.03591">
        <ele>430.2</ele>
        <time>2021-05-03T12:04:50Z</time>
      </trkpt>
      <trkpt lat="45.20646" lon="5.03596">
        <ele>429.7</ele>
        <time>2021-05-03T12:04:51Z</time>
      </trkpt>
      <trkpt lat="45.20637" lon="5.03602">
        <ele>429.2</ele>
        <time>2021-05-03T12:04:52Z</time>
      </trkpt>
      <trkpt lat="45.20628" lon="5.03607">
        <ele>428.8</ele>
        <time>2021-05-03T12:04:53Z</time>
      </trkpt>
      <trkpt lat="45.20618" lon="5.03611">
        <ele>428.2</ele>
        <time>2021-05-03T12:04:54Z</time>
      </trkpt>
      <trkpt lat="45.20608" lon="5.03614">
        <ele>427.7</ele>
        <time>2021-05-03T12:04:55Z</time>
      </trkpt>
      <trkpt lat="45.20598" lon="5.03616">
        <ele>427.2</ele>
        <time>2021-05-03T12:04:56Z</time>
      </trkpt>
      <trkpt lat="45.20588" lon="5.03618">
        <ele>426.6</ele>
        <time>2021-05-03T12:04:57Z</time>
      </trkpt>
      <trkpt lat="45.20577" lon="5.03619">
        <ele>426.1</ele>
        <time>2021-05-03T12:04:58Z</time>
      </trkpt>
      <trkpt lat="45.20567" lon="5.03618">
        <ele>425.6</ele>
        <time>2021-05-03T12:04:59Z</time>
      </trkpt>
      <trkpt lat="45.20557" lon="5.03616">
        <ele>425.1</ele>
        <time>2021-05-03T12:05:00Z</time>
      </trkpt>
      <trkpt lat="45.20546" lon="5.03614">
        <ele>424.7</ele>
        <time>2021-05-03T12:05:01Z</time>
      </trkpt>
      <trkpt lat="45.20536" lon="5.03612">
        <ele>424.2</ele>
        <time>2021-05-03T12:05:02Z</time>
      </trkpt>
      <trkpt lat="45.20526" lon="5.03609">
        <ele>423.8</ele>
        <time>2021-05-03T12:05:03Z</time>
      </trkpt>
      <trkpt lat="45.20515" lon="5.03607">
        <ele>423.3</ele>
        <time>2021-05-03T12:05:04Z</time>
      </trkpt>
      <trkpt lat="45.20505" lon="5.03605">
        <ele>422.8</ele>
        <time>2021-05-03T12:05:05Z</time>
      </trkpt>
      <trkpt lat="45.20494" lon="5.03603">
        <ele>422.3</ele>
        <time>2021-05-03T12:05:06Z</time>
      </trkpt>
      <trkpt lat="45.20484" lon="5.036">
        <ele>421.8</ele>
        <time>2021-05-03T12:05:07Z</time>
      </trkpt>
      <trkpt lat="45.20474" lon="5.03598">
        <ele>421.3</ele>
        <time>2021-05-03T12:05:08Z</time>
      </trkpt>
      <trkpt lat="45.20463" lon="5.03595">
        <ele>420.8</ele>
        <time>2021-05-03T12:05:09Z</time>
      </trkpt>
      <trkpt lat="45.20452" lon="5.03593">
        <ele>420.4</ele>
        <time>2021-05-03T12:05:10Z</time>
      </trkpt>
      <trkpt lat="45.20442" lon="5.03591">
        <ele>420</ele>
        <time>2021-05-03T12:05:11Z</time>
      </trkpt>
      <trkpt lat="45.20431" lon="5.03591">
        <ele>419.6</ele>
        <time>2021-05-03T12:05:12Z</time>
      </trkpt>
      <trkpt lat="45.2042" lon="5.03591">
        <ele>419.2</ele>
        <time>2021-05-03T12:05:13Z</time>
      </trkpt>
      <trkpt lat="45.2041" lon="5.03593">
        <ele>418.9</ele>
        <time>2021-05-03T12:05:14Z</time>
      </trkpt>
      <trkpt lat="45.20399" lon="5.03596">
        <ele>418.6</ele>
        <time>2021-05-03T12:05:15Z</time>
      </trkpt>
      <trkpt lat="45.20389" lon="5.03601">
        <ele>418.3</ele>
        <time>2021-05-03T12:05:16Z</time>
      </trkpt>
      <trkpt lat="45.2038" lon="5.03608">
        <ele>418</ele>
        <time>2021-05-03T12:05:17Z</time>
      </trkpt>
      <trkpt lat="45.20372" lon="5.03617">
        <ele>417.7</ele>
        <time>2021-05-03T12:05:18Z</time>
      </trkpt>
      <trkpt lat="45.20364" lon="5.03626">
        <ele>417.4</ele>
        <time>2021-05-03T12:05:19Z</time>
      </trkpt>
      <trkpt lat="45.20355" lon="5.03635">
        <ele>417.1</ele>
        <time>2021-05-03T12:05:20Z</time>
      </trkpt>
      <trkpt lat="45.20347" lon="5.03643">
        <ele>416.7</ele>
        <time>2021-05-03T12:05:21Z</time>
      </trkpt>
      <trkpt lat="45.20339" lon="5.03651">
        <ele>416.4</ele>
        <time>2021-05-03T12:05:22Z</time>
      </trkpt>
      <trkpt lat="45.2033" lon="5.03658">
        <ele>416.2</ele>
        <time>2021-05-03T12:05:23Z</time>
      </trkpt>
      <trkpt lat="45.20322" lon="5.03666">
        <ele>415.9</ele>
        <time>2021-05-03T12:05:24Z</time>
      </trkpt>
      <trkpt lat="45.20314" lon="5.03674">
        <ele>415.6</ele>
        <time>2021-05-03T12:05:25Z</time>
      </trkpt>
      <trkpt lat="45.20305" lon="5.03682">
        <ele>415.3</ele>
        <time>2021-05-03T12:05:26Z</time>
      </trkpt>
      <trkpt lat="45.20297" lon="5.0369">
        <ele>415</ele>
        <time>2021-05-03T12:05:27Z</time>
      </trkpt>
      <trkpt lat="45.20289" lon="5.03698">
        <ele>414.8</ele>
        <time>2021-05-03T12:05:28Z</time>
      </trkpt>
      <trkpt lat="45.20281" lon="5.03706">
        <ele>414.6</ele>
        <time>2021-05-03T12:05:29Z</time>
      </trkpt>
      <trkpt lat="45.20273" lon="5.03714">
        <ele>414.4</ele>
        <time>2021-05-03T12:05:30Z</time>
      </trkpt>
      <trkpt lat="45.20265" lon="5.03721">
        <ele>414.1</ele>
        <time>2021-05-03T12:05:31Z</time>
      </trkpt>
      <trkpt lat="45.20257" lon="5.03729">
        <ele>413.9</ele>
        <time>2021-05-03T12:05:32Z</time>
      </trkpt>
      <trkpt lat="45.20249" lon="5.03737">
        <ele>413.6</ele>
        <time>2021-05-03T12:05:33Z</time>
      </trkpt>
      <trkpt lat="45.20241" lon="5.03745">
        <ele>413.3</ele>
        <time>2021-05-03T12:05:34Z</time>
      </trkpt>
      <trkpt lat="45.20233" lon="5.03752">
        <ele>413.1</ele>
        <time>2021-05-03T12:05:35Z</time>
      </trkpt>
      <trkpt lat="45.20226" lon="5.0376">
        <ele>412.8</ele>
        <time>2021-05-03T12:05:36Z</time>
      </trkpt>
      <trkpt lat="45.20218" lon="5.03768">
        <ele>412.4</ele>
        <time>2021-05-03T12:05:37Z</time>
      </trkpt>
      <trkpt lat="45.2021" lon="5.03777">
        <ele>412.1</ele>
        <time>2021-05-03T12:05:38Z</time>
      </trkpt>
      <trkpt lat="45.20201" lon="5.03785">
        <ele>411.8</ele>
        <time>2021-05-03T12:05:39Z</time>
      </trkpt>
      <trkpt lat="45.20193" lon="5.03793">
        <ele>411.5</ele>
        <time>2021-05-03T12:05:40Z</time>
      </trkpt>
      <trkpt lat="45.20185" lon="5.03801">
        <ele>411.1</ele>
        <time>2021-05-03T12:05:41Z</time>
      </trkpt>
      <trkpt lat="45.20176" lon="5.03809">
        <ele>410.6</ele>
        <time>2021-05-03T12:05:42Z</time>
      </trkpt>
      <trkpt lat="45.20168" lon="5.03817">
        <ele>410.1</ele>
        <time>2021-05-03T12:05:43Z</time>
      </trkpt>
      <trkpt lat="45.2016" lon="5.03825">
        <ele>409.7</ele>
        <time>2021-05-03T12:05:44Z</time>
      </trkpt>
      <trkpt lat="45.20152" lon="5.03833">
        <ele>409.2</ele>
        <time>2021-05-03T12:05:45Z</time>
      </trkpt>
      <trkpt lat="45.20143" lon="5.03841">
        <ele>408.6</ele>
        <time>2021-05-03T12:05:46Z</time>
      </trkpt>
      <trkpt lat="45.20135" lon="5.03849">
        <ele>408.1</ele>
        <time>2021-05-03T12:05:47Z</time>
      </trkpt>
      <trkpt lat="45.20127" lon="5.03858">
        <ele>407.6</ele>
        <time>2021-05-03T12:05:48Z</time>
      </trkpt>
      <trkpt lat="45.20118" lon="5.03866">
        <ele>407.1</ele>
        <time>2021-05-03T12:05:49Z</time>
      </trkpt>
      <trkpt lat="45.2011" lon="5.03875">
        <ele>406.7</ele>
        <time>2021-05-03T12:05:50Z</time>
      </trkpt>
      <trkpt lat="45.20102" lon="5.03884">
        <ele>406.3</ele>
        <time>2021-05-03T12:05:51Z</time>
      </trkpt>
      <trkpt lat="45.20093" lon="5.03892">
        <ele>405.8</ele>
        <time>2021-05-03T12:05:52Z</time>
      </trkpt>
      <trkpt lat="45.20085" lon="5.039">
        <ele>405.4</ele>
        <time>2021-05-03T12:05:53Z</time>
      </trkpt>
      <trkpt lat="45.20077" lon="5.03908">
        <ele>404.9</ele>
        <time>2021-05-03T12:05:54Z</time>
      </trkpt>
      <trkpt lat="45.20068" lon="5.03916">
        <ele>404.4</ele>
        <time>2021-05-03T12:05:55Z</time>
      </trkpt>
      <trkpt lat="45.2006" lon="5.03924">
        <ele>403.9</ele>
        <time>2021-05-03T12:05:56Z</time>
      </trkpt>
      <trkpt lat="45.20052" lon="5.03933">
        <ele>403.3</ele>
        <time>2021-05-03T12:05:57Z</time>
      </trkpt>
      <trkpt lat="45.20043" lon="5.03941">
        <ele>402.8</ele>
        <time>2021-05-03T12:05:58Z</time>
      </trkpt>
      <trkpt lat="45.20035" lon="5.03949">
        <ele>402.2</ele>
        <time>2021-05-03T12:05:59Z</time>
      </trkpt>
      <trkpt lat="45.20026" lon="5.03958">
        <ele>401.6</ele>
        <time>2021-05-03T12:06:00Z</time>
      </trkpt>
      <trkpt lat="45.20018" lon="5.03967">
        <ele>401.1</ele>
        <time>2021-05-03T12:06:01Z</time>
      </trkpt>
      <trkpt lat="45.20012" lon="5.03977">
        <ele>400.6</ele>
        <time>2021-05-03T12:06:02Z</time>
      </trkpt>
      <trkpt lat="45.20006" lon="5.03989">
        <ele>400.1</ele>
        <time>2021-05-03T12:06:03Z</time>
      </trkpt>
      <trkpt lat="45.20003" lon="5.04002">
        <ele>399.7</ele>
        <time>2021-05-03T12:06:04Z</time>
      </trkpt>
      <trkpt lat="45.2" lon="5.04015">
        <ele>399.3</ele>
        <time>2021-05-03T12:06:05Z</time>
      </trkpt>
      <trkpt lat="45.2" lon="5.04029">
        <ele>398.9</ele>
        <time>2021-05-03T12:06:06Z</time>
      </trkpt>
      <trkpt lat="45.20001" lon="5.04043">
        <ele>398.6</ele>
        <time>2021-05-03T12:06:07Z</time>
      </trkpt>
      <trkpt lat="45.20004" lon="5.04056">
        <ele>398.2</ele>
        <time>2021-05-03T12:06:08Z</time>
      </trkpt>
      <trkpt lat="45.20007" lon="5.04069">
        <ele>397.9</ele>
        <time>2021-05-03T12:06:09Z</time>
      </trkpt>
      <trkpt lat="45.20013" lon="5.04081">
        <ele>397.6</ele>
        <time>2021-05-03T12:06:10Z</time>
      </trkpt>
      <trkpt lat="45.20019" lon="5.04091">
        <ele>397.3</ele>
        <time>2021-05-03T12:06:11Z</time>
      </trkpt>
      <trkpt lat="45.20026" lon="5.041">
        <ele>397</ele>
        <time>2021-05-03T12:06:12Z</time>
      </trkpt>
      <trkpt lat="45.20033" lon="5.04109">
        <ele>396.7</ele>
        <time>2021-05-03T12:06:13Z</time>
      </trkpt>
      <trkpt lat="45.2004" lon="5.04118">
        <ele>396.4</ele>
        <time>2021-05-03T12:06:14Z</time>
      </trkpt>
      <trkpt lat="45.20045" lon="5.04127">
        <ele>396</ele>
        <time>2021-05-03T12:06:15Z</time>
      </trkpt>
      <trkpt lat="45.2005" lon="5.04138">
        <ele>395.6</ele>
        <time>2021-05-03T12:06:16Z</time>
      </trkpt>
      <trkpt lat="45.20053" lon="5.0415">
        <ele>395.2</ele>
        <time>2021-05-03T12:06:17Z</time>
      </trkpt>
      <trkpt lat="45.20054" lon="5.04163">
        <ele>394.7</ele>
        <time>2021-05-03T12:06:18Z</time>
      </trkpt>
      <trkpt lat="45.20053" lon="5.04176">
        <ele>394.1</ele>
        <time>2021-05-03T12:06:19Z</time>
      </trkpt>
      <trkpt lat="45.2005" lon="5.04188">
        <ele>393.5</ele>
        <time>2021-05-03T12:06:20Z</time>
      </trkpt>
      <trkpt lat="45.20046" lon="5.04201">
        <ele>392.7</ele>
        <time>2021-05-03T12:06:21Z</time>
      </trkpt>
      <trkpt lat="45.2004" lon="5.04213">
        <ele>392</ele>
        <time>2021-05-03T12:06:22Z</time>
      </trkpt>
      <trkpt lat="45.20033" lon="5.04224">
        <ele>391.3</ele>
        <time>2021-05-03T12:06:23Z</time>
      </trkpt>
      <trkpt lat="45.20024" lon="5.04232">
        <ele>390.5</ele>
        <time>2021-05-03T12:06:24Z</time>
      </trkpt>
      <trkpt lat="45.20014" lon="5.04237">
        <ele>389.8</ele>
        <time>2021-05-03T12:06:25Z</time>
      </trkpt>
      <trkpt lat="45.20003" lon="5.0424">
        <ele>389.1</ele>
        <time>2021-05-03T12:06:26Z</time>
      </trkpt>
      <trkpt lat="45.19993" lon="5.0424">
        <ele>388.3</ele>
        <time>2021-05-03T12:06:27Z</time>
      </trkpt>
      <trkpt lat="45.19982" lon="5.04237">
        <ele>387.5</ele>
        <time>2021-05-03T12:06:28Z</time>
      </trkpt>
      <trkpt lat="45.19972" lon="5.04231">
        <ele>386.7</ele>
        <time>2021-05-03T12:06:29Z</time>
      </trkpt>
      <trkpt lat="45.19963" lon="5.04222">
        <ele>385.8</ele>
        <time>2021-05-03T12:06:30Z</time>
      </trkpt>
      <trkpt lat="45.19954" lon="5.04211">
        <ele>384.9</ele>
        <time>2021-05-03T12:06:31Z</time>
      </trkpt>
      <trkpt lat="45.19946" lon="5.04201">
        <ele>384.1</ele>
        <time>2021-05-03T12:06:32Z</time>
      </trkpt>
      <trkpt lat="45.19937" lon="5.0419">
        <ele>383.4</ele>
        <time>2021-05-03T12:06:33Z</time>
      </trkpt>
      <trkpt lat="45.19928" lon="5.04179">
        <ele>382.6</ele>
        <time>2021-05-03T12:06:34Z</time>
      </trkpt>
      <trkpt lat="45.1992" lon="5.04169">
        <ele>381.9</ele>
        <time>2021-05-03T12:06:35Z</time>
      </trkpt>
      <trkpt lat="45.19911" lon="5.0416">
        <ele>381.2</ele>
        <time>2021-05-03T12:06:36Z</time>
      </trkpt>
      <trkpt lat="45.19902" lon="5.0415">
        <ele>380.5</ele>
        <time>2021-05-03T12:06:37Z</time>
      </trkpt>
      <trkpt lat="45.19893" lon="5.0414">
        <ele>379.8</ele>
        <time>2021-05-03T12:06:38Z</time>
      </trkpt>
      <trkpt lat="45.19884" lon="5.04129">
        <ele>379</ele>
        <time>2021-05-03T12:06:39Z</time>
      </trkpt>
      <trkpt lat="45.19876" lon="5.04119">
        <ele>378.3</ele>
        <time>2021-05-03T12:06:40Z</time>
      </trkpt>
      <trkpt lat="45.19867" lon="5.04109">
        <ele>377.5</ele>
        <time>2021-05-03T12:06:41Z</time>
      </trkpt>
      <trkpt lat="45.19858" lon="5.04099">
        <ele>376.8</ele>
        <time>2021-05-03T12:06:42Z</time>
      </trkpt>
      <trkpt lat="45.19849" lon="5.04088">
        <ele>376</ele>
        <time>2021-05-03T12:06:43Z</time>
      </trkpt>
      <trkpt lat="45.1984" lon="5.04078">
        <ele>375.3</ele>
        <time>2021-05-03T12:06:44Z</time>
      </trkpt>
      <trkpt lat="45.19831" lon="5.04069">
        <ele>374.6</ele>
        <time>2021-05-03T12:06:45Z</time>
      </trkpt>
      <trkpt lat="45.19821" lon="5.04061">
        <ele>373.9</ele>
        <time>2021-05-03T12:06:46Z</time>
      </trkpt>
      <trkpt lat="45.19811" lon="5.04054">
        <ele>373.2</ele>
        <time>2021-05-03T12:06:47Z</time>
      </trkpt>
      <trkpt lat="45.19799" lon="5.0405">
        <ele>372.5</ele>
        <time>2021-05-03T12:06:48Z</time>
      </trkpt>
      <trkpt lat="45.19788" lon="5.04047">
        <ele>371.8</ele>
        <time>2021-05-03T12:06:49Z</time>
      </trkpt>
      <trkpt lat="45.19776" lon="5.04045">
        <ele>371</ele>
        <time>2021-05-03T12:06:50Z</time>
      </trkpt>
      <trkpt lat="45.19764" lon="5.04044">
        <ele>370.2</ele>
        <time>2021-05-03T12:06:51Z</time>
      </trkpt>
      <trkpt lat="45.19752" lon="5.04043">
        <ele>369.4</ele>
        <time>2021-05-03T12:06:52Z</time>
      </trkpt>
      <trkpt lat="45.1974" lon="5.04043">
        <ele>368.5</ele>
        <time>2021-05-03T12:06:53Z</time>
      </trkpt>
      <trkpt lat="45.19728" lon="5.04043">
        <ele>367.7</ele>
        <time>2021-05-03T12:06:54Z</time>
      </trkpt>
      <trkpt lat="45.19716" lon="5.04042">
        <ele>366.9</ele>
        <time>2021-05-03T12:06:55Z</time>
      </trkpt>
      <trkpt lat="45.19705" lon="5.04041">
        <ele>366.1</ele>
        <time>2021-05-03T12:06:56Z</time>
      </trkpt>
      <trkpt lat="45.19692" lon="5.0404">
        <ele>365.3</ele>
        <time>2021-05-03T12:06:57Z</time>
      </trkpt>
      <trkpt lat="45.1968" lon="5.04039">
        <ele>364.6</ele>
        <time>2021-05-03T12:06:58Z</time>
      </trkpt>
      <trkpt lat="45.19668" lon="5.0404">
        <ele>363.8</ele>
        <time>2021-05-03T12:06:59Z</time>
      </trkpt>
      <trkpt lat="45.19656" lon="5.04042">
        <ele>363.2</ele>
        <time>2021-05-03T12:07:00Z</time>
      </trkpt>
      <trkpt lat="45.19644" lon="5.04046">
        <ele>362.7</ele>
        <time>2021-05-03T12:07:01Z</time>
      </trkpt>
      <trkpt lat="45.19633" lon="5.04051">
        <ele>362.1</ele>
        <time>2021-05-03T12:07:02Z</time>
      </trkpt>
      <trkpt lat="45.19623" lon="5.04059">
        <ele>361.6</ele>
        <time>2021-05-03T12:07:03Z</time>
      </trkpt>
      <trkpt lat="45.19613" lon="5.04068">
        <ele>361</ele>
        <time>2021-05-03T12:07:04Z</time>
      </trkpt>
      <trkpt lat="45.19604" lon="5.04078">
        <ele>360.3</ele>
        <time>2021-05-03T12:07:05Z</time>
      </trkpt>
      <trkpt lat="45.19596" lon="5.0409">
        <ele>359.7</ele>
        <time>2021-05-03T12:07:06Z</time>
      </trkpt>
      <trkpt lat="45.1959" lon="5.04103">
        <ele>359</ele>
        <time>2021-05-03T12:07:07Z</time>
      </trkpt>
      <trkpt lat="45.19584" lon="5.04116">
        <ele>358.4</ele>
        <time>2021-05-03T12:07:08Z</time>
      </trkpt>
      <trkpt lat="45.1958" lon="5.04131">
        <ele>357.8</ele>
        <time>2021-05-03T12:07:09Z</time>
      </trkpt>
      <trkpt lat="45.19578" lon="5.04146">
        <ele>357.2</ele>
        <time>2021-05-03T12:07:10Z</time>
      </trkpt>
      <trkpt lat="45.19577" lon="5.0416">
        <ele>356.6</ele>
        <time>2021-05-03T12:07:11Z</time>
      </trkpt>
      <trkpt lat="45.19577" lon="5.04175">
        <ele>356.1</ele>
        <time>2021-05-03T12:07:12Z</time>
      </trkpt>
      <trkpt lat="45.19577" lon="5.04189">
        <ele>355.5</ele>
        <time>2021-05-03T12:07:13Z</time>
      </trkpt>
      <trkpt lat="45.19578" lon="5.04203">
        <ele>355</ele>
        <time>2021-05-03T12:07:14Z</time>
      </trkpt>
      <trkpt lat="45.19578" lon="5.04217">
        <ele>354.5</ele>
        <time>2021-05-03T12:07:15Z</time>
      </trkpt>
      <trkpt lat="45.19578" lon="5.04231">
        <ele>354</ele>
        <time>2021-05-03T12:07:16Z</time>
      </trkpt>
      <trkpt lat="45.19578" lon="5.04245">
        <ele>353.4</ele>
        <time>2021-05-03T12:07:17Z</time>
      </trkpt>
      <trkpt lat="45.19578" lon="5.04258">
        <ele>353</ele>
        <time>2021-05-03T12:07:18Z</time>
      </trkpt>
      <trkpt lat="45.19579" lon="5.04272">
        <ele>352.4</ele>
        <time>2021-05-03T12:07:19Z</time>
      </trkpt>
      <trkpt lat="45.19579" lon="5.04286">
        <ele>351.9</ele>
        <time>2021-05-03T12:07:20Z</time>
      </trkpt>
      <trkpt lat="45.19579" lon="5.043">
        <ele>351.4</ele>
        <time>2021-05-03T12:07:21Z</time>
      </trkpt>
      <trkpt lat="45.19579" lon="5.04314">
        <ele>350.8</ele>
        <time>2021-05-03T12:07:22Z</time>
      </trkpt>
      <trkpt lat="45.19579" lon="5.04328">
        <ele>350.3</ele>
        <time>2021-05-03T12:07:23Z</time>
      </trkpt>
      <trkpt lat="45.19579" lon="5.04341">
        <ele>349.8</ele>
        <time>2021-05-03T12:07:24Z</time>
      </trkpt>
      <trkpt lat="45.1958" lon="5.04355">
        <ele>349.2</ele>
        <time>2021-05-03T12:07:25Z</time>
      </trkpt>
      <trkpt lat="45.1958" lon="5.04369">
        <ele>348.7</ele>
        <time>2021-05-03T12:07:26Z</time>
      </trkpt>
      <trkpt lat="45.1958" lon="5.04383">
        <ele>348.2</ele>
        <time>2021-05-03T12:07:27Z</time>
      </trkpt>
      <trkpt lat="45.19579" lon="5.04397">
        <ele>347.7</ele>
        <time>2021-05-03T12:07:28Z</time>
      </trkpt>
      <trkpt lat="45.1958" lon="5.04411">
        <ele>347.2</ele>
        <time>2021-05-03T12:07:29Z</time>
      </trkpt>
      <trkpt lat="45.19581" lon="5.04426">
        <ele>346.7</ele>
        <time>2021-05-03T12:07:30Z</time>
      </trkpt>
      <trkpt lat="45.1958" lon="5.0444">
        <ele>346.2</ele>
        <time>2021-05-03T12:07:31Z</time>
      </trkpt>
      <trkpt lat="45.19579" lon="5.04454">
        <ele>345.7</ele>
        <time>2021-05-03T12:07:32Z</time>
      </trkpt>
      <trkpt lat="45.19575" lon="5.04468">
        <ele>345.1</ele>
        <time>2021-05-03T12:07:33Z</time>
      </trkpt>
      <trkpt lat="45.19568" lon="5.04479">
        <ele>344.5</ele>
        <time>2021-05-03T12:07:34Z</time>
      </trkpt>
      <trkpt lat="45.19558" lon="5.04488">
        <ele>343.8</ele>
        <time>2021-05-03T12:07:35Z</time>
      </trkpt>
      <trkpt lat="45.19547" lon="5.04491">
        <ele>343.1</ele>
        <time>2021-05-03T12:07:36Z</time>
      </trkpt>
      <trkpt lat="45.19536" lon="5.04491">
        <ele>342.4</ele>
        <time>2021-05-03T12:07:37Z</time>
      </trkpt>
      <trkpt lat="45.19525" lon="5.04487">
        <ele>341.8</ele>
        <time>2021-05-03T12:07:38Z</time>
      </trkpt>
      <trkpt lat="45.19515" lon="5.04482">
        <ele>341.2</ele>
        <time>2021-05-03T12:07:39Z</time>
      </trkpt>
      <trkpt lat="45.19504" lon="5.04478">
        <ele>340.6</ele>
        <time>2021-05-03T12:07:40Z</time>
      </trkpt>
      <trkpt lat="45.19494" lon="5.04473">
        <ele>340</ele>
        <time>2021-05-03T12:07:41Z</time>
      </trkpt>
      <trkpt lat="45.19483" lon="5.04468">
        <ele>339.4</ele>
        <time>2021-05-03T12:07:42Z</time>
      </trkpt>
      <trkpt lat="45.19473" lon="5.04464">
        <ele>338.9</ele>
        <time>2021-05-03T12:07:43Z</time>
      </trkpt>
      <trkpt lat="45.19463" lon="5.04459">
        <ele>338.4</ele>
        <time>2021-05-03T12:07:44Z</time>
      </trkpt>
      <trkpt lat="45.19452" lon="5.04455">
        <ele>338</ele>
        <time>2021-05-03T12:07:45Z</time>
      </trkpt>
      <trkpt lat="45.19442" lon="5.0445">
        <ele>337.5</ele>
        <time>2021-05-03T12:07:46Z</time>
      </trkpt>
      <trkpt lat="45.19432" lon="5.04446">
        <ele>337</ele>
        <time>2021-05-03T12:07:47Z</time>
      </trkpt>
      <trkpt lat="45.19421" lon="5.04443">
        <ele>336.5</ele>
        <time>2021-05-03T12:07:48Z</time>
      </trkpt>
      <trkpt lat="45.1941" lon="5.04443">
        <ele>336</ele>
        <time>2021-05-03T12:07:49Z</time>
      </trkpt>
      <trkpt lat="45.194" lon="5.04445">
        <ele>335.5</ele>
        <time>2021-05-03T12:07:50Z</time>
      </trkpt>
      <trkpt lat="45.19391" lon="5.04449">
        <ele>335.1</ele>
        <time>2021-05-03T12:07:51Z</time>
      </trkpt>
      <trkpt lat="45.19382" lon="5.04456">
        <ele>334.7</ele>
        <time>2021-05-03T12:07:52Z</time>
      </trkpt>
      <trkpt lat="45.19375" lon="5.04465">
        <ele>334.4</ele>
        <time>2021-05-03T12:07:53Z</time>
      </trkpt>
      <trkpt lat="45.19368" lon="5.04475">
        <ele>334</ele>
        <time>2021-05-03T12:07:54Z</time>
      </trkpt>
      <trkpt lat="45.19362" lon="5.04486">
        <ele>333.7</ele>
        <time>2021-05-03T12:07:55Z</time>
      </trkpt>
      <trkpt lat="45.19357" lon="5.04498">
        <ele>333.3</ele>
        <time>2021-05-03T12:07:56Z</time>
      </trkpt>
      <trkpt lat="45.19352" lon="5.04509">
        <ele>332.9</ele>
        <time>2021-05-03T12:07:57Z</time>
      </trkpt>
      <trkpt lat="45.19346" lon="5.04521">
        <ele>332.6</ele>
        <time>2021-05-03T12:07:58Z</time>
      </trkpt>
      <trkpt lat="45.19341" lon="5.04532">
        <ele>332.2</ele>
        <time>2021-05-03T12:07:59Z</time>
      </trkpt>
      <trkpt lat="45.19336" lon="5.04543">
        <ele>331.9</ele>
        <time>2021-05-03T12:08:00Z</time>
      </trkpt>
      <trkpt lat="45.1933" lon="5.04554">
        <ele>331.6</ele>
        <time>2021-05-03T12:08:01Z</time>
      </trkpt>
      <trkpt lat="45.19325" lon="5.04565">
        <ele>331.2</ele>
        <time>2021-05-03T12:08:02Z</time>
      </trkpt>
      <trkpt lat="45.19319" lon="5.04576">
        <ele>330.9</ele>
        <time>2021-05-03T12:08:03Z</time>
      </trkpt>
      <trkpt lat="45.19314" lon="5.04587">
        <ele>330.6</ele>
        <time>2021-05-03T12:08:04Z</time>
      </trkpt>
      <trkpt lat="45.19308" lon="5.04598">
        <ele>330.2</ele>
        <time>2021-05-03T12:08:05Z</time>
      </trkpt>
      <trkpt lat="45.19303" lon="5.04609">
        <ele>329.9</ele>
        <time>2021-05-03T12:08:06Z</time>
      </trkpt>
      <trkpt lat="45.19298" lon="5.0462">
        <ele>329.5</ele>
        <time>2021-05-03T12:08:07Z</time>
      </trkpt>
      <trkpt lat="45.19292" lon="5.0463">
        <ele>329.2</ele>
        <time>2021-05-03T12:08:08Z</time>
      </trkpt>
      <trkpt lat="45.19287" lon="5.04641">
        <ele>328.8</ele>
        <time>2021-05-03T12:08:09Z</time>
      </trkpt>
      <trkpt lat="45.19283" lon="5.04652">
        <ele>328.5</ele>
        <time>2021-05-03T12:08:10Z</time>
      </trkpt>
      <trkpt lat="45.19278" lon="5.04663">
        <ele>328.2</ele>
        <time>2021-05-03T12:08:11Z</time>
      </trkpt>
      <trkpt lat="45.19273" lon="5.04673">
        <ele>327.9</ele>
        <time>2021-05-03T12:08:12Z</time>
      </trkpt>
      <trkpt lat="45.19267" lon="5.04684">
        <ele>327.6</ele>
        <time>2021-05-03T12:08:13Z</time>
      </trkpt>
      <trkpt lat="45.19262" lon="5.04696">
        <ele>327.3</ele>
        <time>2021-05-03T12:08:14Z</time>
      </trkpt>
      <trkpt lat="45.19256" lon="5.04707">
        <ele>326.9</ele>
        <time>2021-05-03T12:08:15Z</time>
      </trkpt>
      <trkpt lat="45.19251" lon="5.04718">
        <ele>326.6</ele>
        <time>2021-05-03T12:08:16Z</time>
      </trkpt>
      <trkpt lat="45.19246" lon="5.04729">
        <ele>326.3</ele>
        <time>2021-05-03T12:08:17Z</time>
      </trkpt>
      <trkpt lat="45.1924" lon="5.0474">
        <ele>325.9</ele>
        <time>2021-05-03T12:08:18Z</time>
      </trkpt>
      <trkpt lat="45.19235" lon="5.04751">
        <ele>325.6</ele>
        <time>2021-05-03T12:08:19Z</time>
      </trkpt>
      <trkpt lat="45.19231" lon="5.04761">
        <ele>325.3</ele>
        <time>2021-05-03T12:08:20Z</time>
      </trkpt>
      <trkpt lat="45.19226" lon="5.04772">
        <ele>324.9</ele>
        <time>2021-05-03T12:08:21Z</time>
      </trkpt>
      <trkpt lat="45.19221" lon="5.04782">
        <ele>324.6</ele>
        <time>2021-05-03T12:08:22Z</time>
      </trkpt>
      <trkpt lat="45.19215" lon="5.04792">
        <ele>324.2</ele>
        <time>2021-05-03T12:08:23Z</time>
      </trkpt>
      <trkpt lat="45.19209" lon="5.04802">
        <ele>323.7</ele>
        <time>2021-05-03T12:08:24Z</time>
      </trkpt>
      <trkpt lat="45.19203" lon="5.04813">
        <ele>323.3</ele>
        <time>2021-05-03T12:08:25Z</time>
      </trkpt>
      <trkpt lat="45.19196" lon="5.04822">
        <ele>322.8</ele>
        <time>2021-05-03T12:08:26Z</time>
      </trkpt>
      <trkpt lat="45.19188" lon="5.0483">
        <ele>322.3</ele>
        <time>2021-05-03T12:08:27Z</time>
      </trkpt>
      <trkpt lat="45.19178" lon="5.04837">
        <ele>321.8</ele>
        <time>2021-05-03T12:08:28Z</time>
      </trkpt>
      <trkpt lat="45.19169" lon="5.04842">
        <ele>321.3</ele>
        <time>2021-05-03T12:08:29Z</time>
      </trkpt>
      <trkpt lat="45.19159" lon="5.04845">
        <ele>320.8</ele>
        <time>2021-05-03T12:08:30Z</time>
      </trkpt>
      <trkpt lat="45.19149" lon="5.04845">
        <ele>320.3</ele>
        <time>2021-05-03T12:08:31Z</time>
      </trkpt>
      <trkpt lat="45.19139" lon="5.04844">
        <ele>319.8</ele>
        <time>2021-05-03T12:08:32Z</time>
      </trkpt>
      <trkpt lat="45.19128" lon="5.04841">
        <ele>319.3</ele>
        <time>2021-05-03T12:08:33Z</time>
      </trkpt>
      <trkpt lat="45.19119" lon="5.04836">
        <ele>318.7</ele>
        <time>2021-05-03T12:08:34Z</time>
      </trkpt>
      <trkpt lat="45.19109" lon="5.0483">
        <ele>318.2</ele>
        <time>2021-05-03T12:08:35Z</time>
      </trkpt>
      <trkpt lat="45.191" lon="5.04823">
        <ele>317.6</ele>
        <time>2021-05-03T12:08:36Z</time>
      </trkpt>
      <trkpt lat="45.19092" lon="5.04814">
        <ele>317</ele>
        <time>2021-05-03T12:08:37Z</time>
      </trkpt>
      <trkpt lat="45.19084" lon="5.04803">
        <ele>316.4</ele>
        <time>2021-05-03T12:08:38Z</time>
      </trkpt>
      <trkpt lat="45.19078" lon="5.04791">
        <ele>315.8</ele>
        <time>2021-05-03T12:08:39Z</time>
      </trkpt>
      <trkpt lat="45.19073" lon="5.04777">
        <ele>315.2</ele>
        <time>2021-05-03T12:08:40Z</time>
      </trkpt>
      <trkpt lat="45.19068" lon="5.04764">
        <ele>314.6</ele>
        <time>2021-05-03T12:08:41Z</time>
      </trkpt>
      <trkpt lat="45.19063" lon="5.0475">
        <ele>314.1</ele>
        <time>2021-05-03T12:08:42Z</time>
      </trkpt>
      <trkpt lat="45.19059" lon="5.04737">
        <ele>313.6</ele>
        <time>2021-05-03T12:08:43Z</time>
      </trkpt>
      <trkpt lat="45.19054" lon="5.04723">
        <ele>313.2</ele>
        <time>2021-05-03T12:08:44Z</time>
      </trkpt>
      <trkpt lat="45.1905" lon="5.04709">
        <ele>312.9</ele>
        <time>2021-05-03T12:08:45Z</time>
      </trkpt>
      <trkpt lat="45.19045" lon="5.04695">
        <ele>312.5</ele>
        <time>2021-05-03T12:08:46Z</time>
      </trkpt>
      <trkpt lat="45.1904" lon="5.04681">
        <ele>312</ele>
        <time>2021-05-03T12:08:47Z</time>
      </trkpt>
      <trkpt lat="45.19036" lon="5.04668">
        <ele>311.5</ele>
        <time>2021-05-03T12:08:48Z</time>
      </trkpt>
      <trkpt lat="45.1903" lon="5.04655">
        <ele>311</ele>
        <time>2021-05-03T12:08:49Z</time>
      </trkpt>
      <trkpt lat="45.19022" lon="5.04644">
        <ele>310.5</ele>
        <time>2021-05-03T12:08:50Z</time>
      </trkpt>
      <trkpt lat="45.19014" lon="5.04635">
        <ele>310</ele>
        <time>2021-05-03T12:08:51Z</time>
      </trkpt>
      <trkpt lat="45.19005" lon="5.04628">
        <ele>309.6</ele>
        <time>2021-05-03T12:08:52Z</time>
      </trkpt>
      <trkpt lat="45.18996" lon="5.04621">
        <ele>309.2</ele>
        <time>2021-05-03T12:08:53Z</time>
      </trkpt>
      <trkpt lat="45.18986" lon="5.04617">
        <ele>308.8</ele>
        <time>2021-05-03T12:08:54Z</time>
      </trkpt>
      <trkpt lat="45.18975" lon="5.04615">
        <ele>308.4</ele>
        <time>2021-05-03T12:08:55Z</time>
      </trkpt>
      <trkpt lat="45.18965" lon="5.04616">
        <ele>308</ele>
        <time>2021-05-03T12:08:56Z</time>
      </trkpt>
      <trkpt lat="45.18955" lon="5.04619">
        <ele>307.7</ele>
        <time>2021-05-03T12:08:57Z</time>
      </trkpt>
      <trkpt lat="45.18946" lon="5.04622">
        <ele>307.4</ele>
        <time>2021-05-03T12:08:58Z</time>
      </trkpt>
      <trkpt lat="45.18937" lon="5.04625">
        <ele>307.1</ele>
        <time>2021-05-03T12:08:59Z</time>
      </trkpt>
      <trkpt lat="45.18927" lon="5.04627">
        <ele>306.8</ele>
        <time>2021-05-03T12:09:00Z</time>
      </trkpt>
      <trkpt lat="45.18918" lon="5.0463">
        <ele>306.5</ele>
        <time>2021-05-03T12:09:01Z</time>
      </trkpt>
      <trkpt lat="45.18909" lon="5.04633">
        <ele>306.2</ele>
        <time>2021-05-03T12:09:02Z</time>
      </trkpt>
      <trkpt lat="45.189" lon="5.04635">
        <ele>306</ele>
        <time>2021-05-03T12:09:03Z</time>
      </trkpt>
      <trkpt lat="45.18891" lon="5.04638">
        <ele>305.8</ele>
        <time>2021-05-03T12:09:04Z</time>
      </trkpt>
      <trkpt lat="45.18882" lon="5.0464">
        <ele>305.5</ele>
        <time>2021-05-03T12:09:05Z</time>
      </trkpt>
      <trkpt lat="45.18873" lon="5.04643">
        <ele>305.3</ele>
        <time>2021-05-03T12:09:06Z</time>
      </trkpt>
      <trkpt lat="45.18864" lon="5.04644">
        <ele>305</ele>
        <time>2021-05-03T12:09:07Z</time>
      </trkpt>
      <trkpt lat="45.18855" lon="5.04646">
        <ele>304.8</ele>
        <time>2021-05-03T12:09:08Z</time>
      </trkpt>
      <trkpt lat="45.18846" lon="5.04647">
        <ele>304.6</ele>
        <time>2021-05-03T12:09:09Z</time>
      </trkpt>
      <trkpt lat="45.18838" lon="5.04648">
        <ele>304.5</ele>
        <time>2021-05-03T12:09:10Z</time>
      </trkpt>
      <trkpt lat="45.18829" lon="5.04649">
        <ele>304.3</ele>
        <time>2021-05-03T12:09:11Z</time>
      </trkpt>
      <trkpt lat="45.18819" lon="5.04649">
        <ele>304.2</ele>
        <time>2021-05-03T12:09:12Z</time>
      </trkpt>
      <trkpt lat="45.18811" lon="5.04648">
        <ele>304</ele>
        <time>2021-05-03T12:09:13Z</time>
      </trkpt>
      <trkpt lat="45.18802" lon="5.04647">
        <ele>303.9</ele>
        <time>2021-05-03T12:09:14Z</time>
      </trkpt>
      <trkpt lat="45.18794" lon="5.04646">
        <ele>303.8</ele>
        <time>2021-05-03T12:09:15Z</time>
      </trkpt>
      <trkpt lat="45.18786" lon="5.04645">
        <ele>303.7</ele>
        <time>2021-05-03T12:09:16Z</time>
      </trkpt>
      <trkpt lat="45.18778" lon="5.04643">
        <ele>303.6</ele>
        <time>2021-05-03T12:09:17Z</time>
      </trkpt>
      <trkpt lat="45.18771" lon="5.04642">
        <ele>303.5</ele>
        <time>2021-05-03T12:09:18Z</time>
      </trkpt>
      <trkpt lat="45.18765" lon="5.04642">
        <ele>303.5</ele>
        <time>2021-05-03T12:09:19Z</time>
      </trkpt>
      <trkpt lat="45.1876" lon="5.04641">
        <ele>303.4</ele>
        <time>2021-05-03T12:09:20Z</time>
      </trkpt>
      <trkpt lat="45.18759" lon="5.0464">
        <ele>303.4</ele>
        <time>2021-05-03T12:09:21Z</time>
      </trkpt>
      <trkpt lat="45.18758" lon="5.0464">
        <ele>303.3</ele>
        <time>2021-05-03T12:09:22Z</time>
      </trkpt>
      <trkpt lat="45.18758" lon="5.0464">
        <ele>303.3</ele>
        <time>2021-05-03T12:09:23Z</time>
      </trkpt>
      <trkpt lat="45.18757" lon="5.0464">
        <ele>303.3</ele>
        <time>2021-05-03T12:09:24Z</time>
      </trkpt>
      <trkpt lat="45.18757" lon="5.0464">
        <ele>303.3</ele>
        <time>2021-05-03T12:09:25Z</time>
      </trkpt>
      <trkpt lat="45.18756" lon="5.0464">
        <ele>303.3</ele>
        <time>2021-05-03T12:09:26Z</time>
      </trkpt>
      <trkpt lat="45.18756" lon="5.0464">
        <ele>303.3</ele>
        <time>2021-05-03T12:09:27Z</time>
      </trkpt>
      <trkpt lat="45.18756" lon="5.0464">
        <ele>303.3</ele>
        <time>2021-05-03T12:09:28Z</time>
      </trkpt>
      <trkpt lat="45.18755" lon="5.04639">
        <ele>303.3</ele>
        <time>2021-05-03T12:09:29Z</time>
      </trkpt>
      <trkpt lat="45.18755" lon="5.04639">
        <ele>303.3</ele>
        <time>2021-05-03T12:09:30Z</time>
      </trkpt>
      <trkpt lat="45.18754" lon="5.04639">
        <ele>303.3</ele>
        <time>2021-05-03T12:09:31Z</time>
      </trkpt>
      <trkpt lat="45.18754" lon="5.04639">
        <ele>303.3</ele>
        <time>2021-05-03T12:09:32Z</time>
      </trkpt>
      <trkpt lat="45.18754" lon="5.04639">
        <ele>303.3</ele>
        <time>2021-05-03T12:09:33Z</time>
      </trkpt>
      <trkpt lat="45.18753" lon="5.04639">
        <ele>303.3</ele>
        <time>2021-05-03T12:09:34Z</time>
      </trkpt>
      <trkpt lat="45.18753" lon="5.04639">
        <ele>303.3</ele>
        <time>2021-05-03T12:09:35Z</time>
      </trkpt>
      <trkpt lat="45.18752" lon="5.04639">
        <ele>303.3</ele>
        <time>2021-05-03T12:09:36Z</time>
      </trkpt>
      <trkpt lat="45.18752" lon="5.04639">
        <ele>303.3</ele>
        <time>2021-05-03T12:12:42Z</time>
      </trkpt>
      <trkpt lat="45.18751" lon="5.04639">
        <ele>303.3</ele>
        <time>2021-05-03T12:12:43Z</time>
      </trkpt>
      <trkpt lat="45.18751" lon="5.04639">
        <ele>303.3</ele>
        <time>2021-05-03T12:12:44Z</time>
      </trkpt>
      <trkpt lat="45.18748" lon="5.04639">
        <ele>303.2</ele>
        <time>2021-05-03T12:12:45Z</time>
      </trkpt>
      <trkpt lat="45.18745" lon="5.04638">
        <ele>303.2</ele>
        <time>2021-05-03T12:12:46Z</time>
      </trkpt>
      <trkpt lat="45.18741" lon="5.04638">
        <ele>303.1</ele>
        <time>2021-05-03T12:12:47Z</time>
      </trkpt>
      <trkpt lat="45.18737" lon="5.04637">
        <ele>303</ele>
        <time>2021-05-03T12:12:48Z</time>
      </trkpt>
      <trkpt lat="45.18732" lon="5.04635">
        <ele>302.9</ele>
        <time>2021-05-03T12:12:49Z</time>
      </trkpt>
      <trkpt lat="45.18727" lon="5.04633">
        <ele>302.9</ele>
        <time>2021-05-03T12:12:50Z</time>
      </trkpt>
      <trkpt lat="45.18721" lon="5.04632">
        <ele>302.8</ele>
        <time>2021-05-03T12:12:51Z</time>
      </trkpt>
      <trkpt lat="45.18716" lon="5.0463">
        <ele>302.8</ele>
        <time>2021-05-03T12:12:52Z</time>
      </trkpt>
      <trkpt lat="45.18711" lon="5.04628">
        <ele>302.7</ele>
        <time>2021-05-03T12:12:53Z</time>
      </trkpt>
      <trkpt lat="45.18705" lon="5.04625">
        <ele>302.6</ele>
        <time>2021-05-03T12:12:54Z</time>
      </trkpt>
      <trkpt lat="45.187" lon="5.04623">
        <ele>302.6</ele>
        <time>2021-05-03T12:12:55Z</time>
      </trkpt>
      <trkpt lat="45.18694" lon="5.04621">
        <ele>302.5</ele>
        <time>2021-05-03T12:12:56Z</time>
      </trkpt>
      <trkpt lat="45.18689" lon="5.04618">
        <ele>302.4</ele>
        <time>2021-05-03T12:12:57Z</time>
      </trkpt>
      <trkpt lat="45.18683" lon="5.04615">
        <ele>302.3</ele>
        <time>2021-05-03T12:12:58Z</time>
      </trkpt>
      <trkpt lat="45.18677" lon="5.04613">
        <ele>302.2</ele>
        <time>2021-05-03T12:12:59Z</time>
      </trkpt>
      <trkpt lat="45.18671" lon="5.0461">
        <ele>302.1</ele>
        <time>2021-05-03T12:13:00Z</time>
      </trkpt>
      <trkpt lat="45.18665" lon="5.04607">
        <ele>301.9</ele>
        <time>2021-05-03T12:13:01Z</time>
      </trkpt>
      <trkpt lat="45.18659" lon="5.04603">
        <ele>301.8</ele>
        <time>2021-05-03T12:13:02Z</time>
      </trkpt>
      <trkpt lat="45.18653" lon="5.046">
        <ele>301.7</ele>
        <time>2021-05-03T12:13:03Z</time>
      </trkpt>
      <trkpt lat="45.18646" lon="5.04598">
        <ele>301.6</ele>
        <time>2021-05-03T12:13:04Z</time>
      </trkpt>
      <trkpt lat="45.1864" lon="5.04595">
        <ele>301.5</ele>
        <time>2021-05-03T12:13:05Z</time>
      </trkpt>
      <trkpt lat="45.18633" lon="5.04592">
        <ele>301.4</ele>
        <time>2021-05-03T12:13:06Z</time>
      </trkpt>
      <trkpt lat="45.18627" lon="5.0459">
        <ele>301.3</ele>
        <time>2021-05-03T12:13:07Z</time>
      </trkpt>
      <trkpt lat="45.18621" lon="5.04587">
        <ele>301.3</ele>
        <time>2021-05-03T12:13:08Z</time>
      </trkpt>
      <trkpt lat="45.18614" lon="5.04583">
        <ele>301.2</ele>
        <time>2021-05-03T12:13:09Z</time>
      </trkpt>
      <trkpt lat="45.18608" lon="5.0458">
        <ele>301.1</ele>
        <time>2021-05-03T12:13:10Z</time>
      </trkpt>
      <trkpt lat="45.18602" lon="5.04577">
        <ele>301</ele>
        <time>2021-05-03T12:13:11Z</time>
      </trkpt>
      <trkpt lat="45.18595" lon="5.04573">
        <ele>300.9</ele>
        <time>2021-05-03T12:13:12Z</time>
      </trkpt>
      <trkpt lat="45.18588" lon="5.04569">
        <ele>300.7</ele>
        <time>2021-05-03T12:13:13Z</time>
      </trkpt>
      <trkpt lat="45.18581" lon="5.04565">
        <ele>300.6</ele>
        <time>2021-05-03T12:13:14Z</time>
      </trkpt>
      <trkpt lat="45.18574" lon="5.04562">
        <ele>300.5</ele>
        <time>2021-05-03T12:13:15Z</time>
      </trkpt>
      <trkpt lat="45.18567" lon="5.04559">
        <ele>300.4</ele>
        <time>2021-05-03T12:13:16Z</time>
      </trkpt>
      <trkpt lat="45.1856" lon="5.04555">
        <ele>300.3</ele>
        <time>2021-05-03T12:13:17Z</time>
      </trkpt>
      <trkpt lat="45.18553" lon="5.04552">
        <ele>300.1</ele>
        <time>2021-05-03T12:13:18Z</time>
      </trkpt>
      <trkpt lat="45.18546" lon="5.04549">
        <ele>300</ele>
        <time>2021-05-03T12:13:19Z</time>
      </trkpt>
      <trkpt lat="45.18539" lon="5.04545">
        <ele>299.9</ele>
        <time>2021-05-03T12:13:20Z</time>
      </trkpt>
      <trkpt lat="45.18532" lon="5.04542">
        <ele>299.8</ele>
        <time>2021-05-03T12:13:21Z</time>
      </trkpt>
      <trkpt lat="45.18525" lon="5.04538">
        <ele>299.7</ele>
        <time>2021-05-03T12:13:22Z</time>
      </trkpt>
      <trkpt lat="45.18518" lon="5.04535">
        <ele>299.6</ele>
        <time>2021-05-03T12:13:23Z</time>
      </trkpt>
      <trkpt lat="45.18511" lon="5.04531">
        <ele>299.4</ele>
        <time>2021-05-03T12:13:24Z</time>
      </trkpt>
      <trkpt lat="45.18504" lon="5.04528">
        <ele>299.3</ele>
        <time>2021-05-03T12:13:25Z</time>
      </trkpt>
      <trkpt lat="45.18497" lon="5.04524">
        <ele>299.2</ele>
        <time>2021-05-03T12:13:26Z</time>
      </trkpt>
      <trkpt lat="45.1849" lon="5.04521">
        <ele>299.1</ele>
        <time>2021-05-03T12:13:27Z</time>
      </trkpt>
      <trkpt lat="45.18483" lon="5.04518">
        <ele>299</ele>
        <time>2021-05-03T12:13:28Z</time>
      </trkpt>
      <trkpt lat="45.18476" lon="5.04514">
        <ele>298.9</ele>
        <time>2021-05-03T12:13:29Z</time>
      </trkpt>
      <trkpt lat="45.1847" lon="5.04511">
        <ele>298.8</ele>
        <time>2021-05-03T12:13:30Z</time>
      </trkpt>
      <trkpt lat="45.18463" lon="5.04508">
        <ele>298.6</ele>
        <time>2021-05-03T12:13:31Z</time>
      </trkpt>
      <trkpt lat="45.18456" lon="5.04505">
        <ele>298.5</ele>
        <time>2021-05-03T12:13:32Z</time>
      </trkpt>
      <trkpt lat="45.18449" lon="5.04501">
        <ele>298.4</ele>
        <time>2021-05-03T12:13:33Z</time>
      </trkpt>
      <trkpt lat="45.18441" lon="5.04499">
        <ele>298.3</ele>
        <time>2021-05-03T12:13:34Z</time>
      </trkpt>
      <trkpt lat="45.18435" lon="5.04496">
        <ele>298.2</ele>
        <time>2021-05-03T12:13:35Z</time>
      </trkpt>
      <trkpt lat="45.18428" lon="5.04492">
        <ele>298.2</ele>
        <time>2021-05-03T12:13:36Z</time>
      </trkpt>
      <trkpt lat="45.18422" lon="5.04489">
        <ele>298.1</ele>
        <time>2021-05-03T12:13:37Z</time>
      </trkpt>
      <trkpt lat="45.18415" lon="5.04485">
        <ele>298</ele>
        <time>2021-05-03T12:13:38Z</time>
      </trkpt>
      <trkpt lat="45.18408" lon="5.04482">
        <ele>297.9</ele>
        <time>2021-05-03T12:13:39Z</time>
      </trkpt>
      <trkpt lat="45.18401" lon="5.04478">
        <ele>297.8</ele>
        <time>2021-05-03T12:13:40Z</time>
      </trkpt>
      <trkpt lat="45.18394" lon="5.04475">
        <ele>297.7</ele>
        <time>2021-05-03T12:13:41Z</time>
      </trkpt>
      <trkpt lat="45.18388" lon="5.04472">
        <ele>297.7</ele>
        <time>2021-05-03T12:13:42Z</time>
      </trkpt>
      <trkpt lat="45.18382" lon="5.04469">
        <ele>297.6</ele>
        <time>2021-05-03T12:13:43Z</time>
      </trkpt>
      <trkpt lat="45.18375" lon="5.04466">
        <ele>297.5</ele>
        <time>2021-05-03T12:13:44Z</time>
      </trkpt>
      <trkpt lat="45.18368" lon="5.04462">
        <ele>297.5</ele>
        <time>2021-05-03T12:13:45Z</time>
      </trkpt>
      <trkpt lat="45.18362" lon="5.04457">
        <ele>297.4</ele>
        <time>2021-05-03T12:13:46Z</time>
      </trkpt>
      <trkpt lat="45.18355" lon="5.04454">
        <ele>297.3</ele>
        <time>2021-05-03T12:13:47Z</time>
      </trkpt>
      <trkpt lat="45.18348" lon="5.0445">
        <ele>297.2</ele>
        <time>2021-05-03T12:13:48Z</time>
      </trkpt>
      <trkpt lat="45.18342" lon="5.04447">
        <ele>297.1</ele>
        <time>2021-05-03T12:13:49Z</time>
      </trkpt>
      <trkpt lat="45.18335" lon="5.04444">
        <ele>297.1</ele>
        <time>2021-05-03T12:13:50Z</time>
      </trkpt>
      <trkpt lat="45.18329" lon="5.04441">
        <ele>297</ele>
        <time>2021-05-03T12:13:51Z</time>
      </trkpt>
      <trkpt lat="45.18322" lon="5.04437">
        <ele>296.9</ele>
        <time>2021-05-03T12:13:52Z</time>
      </trkpt>
      <trkpt lat="45.18316" lon="5.04434">
        <ele>296.8</ele>
        <time>2021-05-03T12:13:53Z</time>
      </trkpt>
      <trkpt lat="45.1831" lon="5.04431">
        <ele>296.7</ele>
        <time>2021-05-03T12:13:54Z</time>
      </trkpt>
      <trkpt lat="45.18304" lon="5.04428">
        <ele>296.7</ele>
        <time>2021-05-03T12:13:55Z</time>
      </trkpt>
      <trkpt lat="45.18298" lon="5.04425">
        <ele>296.6</ele>
        <time>2021-05-03T12:13:56Z</time>
      </trkpt>
      <trkpt lat="45.18292" lon="5.04422">
        <ele>296.5</ele>
        <time>2021-05-03T12:13:57Z</time>
      </trkpt>
      <trkpt lat="45.18285" lon="5.04419">
        <ele>296.4</ele>
        <time>2021-05-03T12:13:58Z</time>
      </trkpt>
      <trkpt lat="45.18279" lon="5.04416">
        <ele>296.3</ele>
        <time>2021-05-03T12:13:59Z</time>
      </trkpt>
      <trkpt lat="45.18272" lon="5.04413">
        <ele>296.2</ele>
        <time>2021-05-03T12:14:00Z</time>
      </trkpt>
      <trkpt lat="45.18266" lon="5.04409">
        <ele>296.1</ele>
        <time>2021-05-03T12:14:01Z</time>
      </trkpt>
      <trkpt lat="45.18259" lon="5.04406">
        <ele>295.9</ele>
        <time>2021-05-03T12:14:02Z</time>
      </trkpt>
      <trkpt lat="45.18252" lon="5.04402">
        <ele>295.8</ele>
        <time>2021-05-03T12:14:03Z</time>
      </trkpt>
      <trkpt lat="45.18245" lon="5.04399">
        <ele>295.7</ele>
        <time>2021-05-03T12:14:04Z</time>
      </trkpt>
      <trkpt lat="45.18238" lon="5.04395">
        <ele>295.6</ele>
        <time>2021-05-03T12:14:05Z</time>
      </trkpt>
      <trkpt lat="45.18231" lon="5.04392">
        <ele>295.5</ele>
        <time>2021-05-03T12:14:06Z</time>
      </trkpt>
      <trkpt lat="45.18225" lon="5.04388">
        <ele>295.4</ele>
        <time>2021-05-03T12:14:07Z</time>
      </trkpt>
      <trkpt lat="45.18218" lon="5.04385">
        <ele>295.3</ele>
        <time>2021-05-03T12:14:08Z</time>
      </trkpt>
      <trkpt lat="45.18212" lon="5.04381">
        <ele>295.1</ele>
        <time>2021-05-03T12:14:09Z</time>
      </trkpt>
      <trkpt lat="45.18205" lon="5.04378">
        <ele>295</ele>
        <time>2021-05-03T12:14:10Z</time>
      </trkpt>
      <trkpt lat="45.18199" lon="5.04374">
        <ele>294.9</ele>
        <time>2021-05-03T12:14:11Z</time>
      </trkpt>
      <trkpt lat="45.18192" lon="5.0437">
        <ele>294.9</ele>
        <time>2021-05-03T12:14:12Z</time>
      </trkpt>
      <trkpt lat="45.18186" lon="5.04367">
        <ele>294.8</ele>
        <time>2021-05-03T12:14:13Z</time>
      </trkpt>
      <trkpt lat="45.18179" lon="5.04363">
        <ele>294.7</ele>
        <time>2021-05-03T12:14:14Z</time>
      </trkpt>
      <trkpt lat="45.18173" lon="5.0436">
        <ele>294.7</ele>
        <time>2021-05-03T12:14:15Z</time>
      </trkpt>
      <trkpt lat="45.18166" lon="5.04356">
        <ele>294.6</ele>
        <time>2021-05-03T12:14:16Z</time>
      </trkpt>
      <trkpt lat="45.18159" lon="5.04353">
        <ele>294.5</ele>
        <time>2021-05-03T12:14:17Z</time>
      </trkpt>
      <trkpt lat="45.18152" lon="5.0435">
        <ele>294.4</ele>
        <time>2021-05-03T12:14:18Z</time>
      </trkpt>
      <trkpt lat="45.18146" lon="5.04347">
        <ele>294.4</ele>
        <time>2021-05-03T12:14:19Z</time>
      </trkpt>
      <trkpt lat="45.18139" lon="5.04344">
        <ele>294.3</ele>
        <time>2021-05-03T12:14:20Z</time>
      </trkpt>
      <trkpt lat="45.18132" lon="5.04341">
        <ele>294.2</ele>
        <time>2021-05-03T12:14:21Z</time>
      </trkpt>
      <trkpt lat="45.18125" lon="5.04338">
        <ele>294.2</ele>
        <time>2021-05-03T12:14:22Z</time>
      </trkpt>
      <trkpt lat="45.18118" lon="5.04335">
        <ele>294.1</ele>
        <time>2021-05-03T12:14:23Z</time>
      </trkpt>
      <trkpt lat="45.18111" lon="5.04333">
        <ele>294</ele>
        <time>2021-05-03T12:14:24Z</time>
      </trkpt>
      <trkpt lat="45.18104" lon="5.04332">
        <ele>294</ele>
        <time>2021-05-03T12:14:25Z</time>
      </trkpt>
      <trkpt lat="45.18096" lon="5.04332">
        <ele>293.9</ele>
        <time>2021-05-03T12:14:26Z</time>
      </trkpt>
      <trkpt lat="45.18089" lon="5.04332">
        <ele>293.9</ele>
        <time>2021-05-03T12:14:27Z</time>
      </trkpt>
      <trkpt lat="45.18082" lon="5.04332">
        <ele>293.8</ele>
        <time>2021-05-03T12:14:28Z</time>
      </trkpt>
      <trkpt lat="45.18075" lon="5.04333">
        <ele>293.7</ele>
        <time>2021-05-03T12:14:29Z</time>
      </trkpt>
      <trkpt lat="45.18068" lon="5.04334">
        <ele>293.5</ele>
        <time>2021-05-03T12:14:30Z</time>
      </trkpt>
      <trkpt lat="45.18061" lon="5.04335">
        <ele>293.4</ele>
        <time>2021-05-03T12:14:31Z</time>
      </trkpt>
      <trkpt lat="45.18054" lon="5.04336">
        <ele>293.3</ele>
        <time>2021-05-03T12:14:32Z</time>
      </trkpt>
      <trkpt lat="45.18046" lon="5.04337">
        <ele>293.2</ele>
        <time>2021-05-03T12:14:33Z</time>
      </trkpt>
      <trkpt lat="45.18039" lon="5.04337">
        <ele>293.1</ele>
        <time>2021-05-03T12:14:34Z</time>
      </trkpt>
      <trkpt lat="45.18031" lon="5.04337">
        <ele>293</ele>
        <time>2021-05-03T12:14:35Z</time>
      </trkpt>
      <trkpt lat="45.18023" lon="5.04336">
        <ele>292.9</ele>
        <time>2021-05-03T12:14:36Z</time>
      </trkpt>
      <trkpt lat="45.18016" lon="5.04335">
        <ele>292.8</ele>
        <time>2021-05-03T12:14:37Z</time>
      </trkpt>
      <trkpt lat="45.18009" lon="5.04333">
        <ele>292.7</ele>
        <time>2021-05-03T12:14:38Z</time>
      </trkpt>
      <trkpt lat="45.18002" lon="5.04331">
        <ele>292.6</ele>
        <time>2021-05-03T12:14:39Z</time>
      </trkpt>
      <trkpt lat="45.17994" lon="5.04329">
        <ele>292.4</ele>
        <time>2021-05-03T12:14:40Z</time>
      </trkpt>
      <trkpt lat="45.17987" lon="5.04327">
        <ele>292.3</ele>
        <time>2021-05-03T12:14:41Z</time>
      </trkpt>
      <trkpt lat="45.1798" lon="5.04325">
        <ele>292.2</ele>
        <time>2021-05-03T12:14:42Z</time>
      </trkpt>
      <trkpt lat="45.17973" lon="5.04323">
        <ele>292.1</ele>
        <time>2021-05-03T12:14:43Z</time>
      </trkpt>
      <trkpt lat="45.17966" lon="5.04321">
        <ele>292</ele>
        <time>2021-05-03T12:14:44Z</time>
      </trkpt>
      <trkpt lat="45.17959" lon="5.04319">
        <ele>291.9</ele>
        <time>2021-05-03T12:14:45Z</time>
      </trkpt>
      <trkpt lat="45.17951" lon="5.04317">
        <ele>291.7</ele>
        <time>2021-05-03T12:14:46Z</time>
      </trkpt>
      <trkpt lat="45.17944" lon="5.04315">
        <ele>291.6</ele>
        <time>2021-05-03T12:14:47Z</time>
      </trkpt>
      <trkpt lat="45.17936" lon="5.04313">
        <ele>291.5</ele>
        <time>2021-05-03T12:14:48Z</time>
      </trkpt>
      <trkpt lat="45.17929" lon="5.04311">
        <ele>291.3</ele>
        <time>2021-05-03T12:14:49Z</time>
      </trkpt>
      <trkpt lat="45.17922" lon="5.04308">
        <ele>291.2</ele>
        <time>2021-05-03T12:14:50Z</time>
      </trkpt>
      <trkpt lat="45.17915" lon="5.04306">
        <ele>291.1</ele>
        <time>2021-05-03T12:14:51Z</time>
      </trkpt>
      <trkpt lat="45.17907" lon="5.04302">
        <ele>291</ele>
        <time>2021-05-03T12:14:52Z</time>
      </trkpt>
      <trkpt lat="45.17899" lon="5.04299">
        <ele>290.9</ele>
        <time>2021-05-03T12:14:53Z</time>
      </trkpt>
      <trkpt lat="45.17892" lon="5.04296">
        <ele>290.8</ele>
        <time>2021-05-03T12:14:54Z</time>
      </trkpt>
      <trkpt lat="45.17884" lon="5.04294">
        <ele>290.6</ele>
        <time>2021-05-03T12:14:55Z</time>
      </trkpt>
      <trkpt lat="45.17877" lon="5.04291">
        <ele>290.5</ele>
        <time>2021-05-03T12:14:56Z</time>
      </trkpt>
      <trkpt lat="45.17869" lon="5.04289">
        <ele>290.4</ele>
        <time>2021-05-03T12:14:57Z</time>
      </trkpt>
      <trkpt lat="45.17862" lon="5.04287">
        <ele>290.3</ele>
        <time>2021-05-03T12:14:58Z</time>
      </trkpt>
      <trkpt lat="45.17855" lon="5.04284">
        <ele>290.2</ele>
        <time>2021-05-03T12:14:59Z</time>
      </trkpt>
      <trkpt lat="45.17847" lon="5.04282">
        <ele>290</ele>
        <time>2021-05-03T12:15:00Z</time>
      </trkpt>
      <trkpt lat="45.1784" lon="5.0428">
        <ele>289.9</ele>
        <time>2021-05-03T12:15:01Z</time>
      </trkpt>
      <trkpt lat="45.17832" lon="5.04278">
        <ele>289.8</ele>
        <time>2021-05-03T12:15:02Z</time>
      </trkpt>
      <trkpt lat="45.17825" lon="5.04275">
        <ele>289.7</ele>
        <time>2021-05-03T12:15:03Z</time>
      </trkpt>
      <trkpt lat="45.17817" lon="5.04273">
        <ele>289.6</ele>
        <time>2021-05-03T12:15:04Z</time>
      </trkpt>
      <trkpt lat="45.1781" lon="5.04271">
        <ele>289.5</ele>
        <time>2021-05-03T12:15:05Z</time>
      </trkpt>
      <trkpt lat="45.17802" lon="5.04268">
        <ele>289.4</ele>
        <time>2021-05-03T12:15:06Z</time>
      </trkpt>
      <trkpt lat="45.17794" lon="5.04266">
        <ele>289.3</ele>
        <time>2021-05-03T12:15:07Z</time>
      </trkpt>
      <trkpt lat="45.17786" lon="5.04263">
        <ele>289.2</ele>
        <time>2021-05-03T12:15:08Z</time>
      </trkpt>
      <trkpt lat="45.17778" lon="5.04261">
        <ele>289.1</ele>
        <time>2021-05-03T12:15:09Z</time>
      </trkpt>
      <trkpt lat="45.1777" lon="5.04258">
        <ele>289</ele>
        <time>2021-05-03T12:15:10Z</time>
      </trkpt>
      <trkpt lat="45.17762" lon="5.04256">
        <ele>288.9</ele>
        <time>2021-05-03T12:15:11Z</time>
      </trkpt>
      <trkpt lat="45.17754" lon="5.04253">
        <ele>288.8</ele>
        <time>2021-05-03T12:15:12Z</time>
      </trkpt>
      <trkpt lat="45.17746" lon="5.04251">
        <ele>288.7</ele>
        <time>2021-05-03T12:15:13Z</time>
      </trkpt>
      <trkpt lat="45.17738" lon="5.04248">
        <ele>288.6</ele>
        <time>2021-05-03T12:15:14Z</time>
      </trkpt>
      <trkpt lat="45.1773" lon="5.04245">
        <ele>288.5</ele>
        <time>2021-05-03T12:15:15Z</time>
      </trkpt>
      <trkpt lat="45.17722" lon="5.04242">
        <ele>288.4</ele>
        <time>2021-05-03T12:15:16Z</time>
      </trkpt>
      <trkpt lat="45.17714" lon="5.04239">
        <ele>288.3</ele>
        <time>2021-05-03T12:15:17Z</time>
      </trkpt>
      <trkpt lat="45.17706" lon="5.04236">
        <ele>288.2</ele>
        <time>2021-05-03T12:15:18Z</time>
      </trkpt>
      <trkpt lat="45.17698" lon="5.04234">
        <ele>288.1</ele>
        <time>2021-05-03T12:15:19Z</time>
      </trkpt>
      <trkpt lat="45.17689" lon="5.04231">
        <ele>288</ele>
        <time>2021-05-03T12:15:20Z</time>
      </trkpt>
      <trkpt lat="45.17681" lon="5.04227">
        <ele>287.8</ele>
        <time>2021-05-03T12:15:21Z</time>
      </trkpt>
      <trkpt lat="45.17673" lon="5.04222">
        <ele>287.7</ele>
        <time>2021-05-03T12:15:22Z</time>
      </trkpt>
      <trkpt lat="45.17666" lon="5.04217">
        <ele>287.5</ele>
        <time>2021-05-03T12:15:23Z</time>
      </trkpt>
      <trkpt lat="45.17658" lon="5.04211">
        <ele>287.4</ele>
        <time>2021-05-03T12:15:24Z</time>
      </trkpt>
      <trkpt lat="45.17652" lon="5.04204">
        <ele>287.2</ele>
        <time>2021-05-03T12:15:25Z</time>
      </trkpt>
      <trkpt lat="45.17645" lon="5.04197">
        <ele>287.1</ele>
        <time>2021-05-03T12:15:26Z</time>
      </trkpt>
      <trkpt lat="45.17638" lon="5.04191">
        <ele>286.9</ele>
        <time>2021-05-03T12:15:27Z</time>
      </trkpt>
      <trkpt lat="45.17631" lon="5.04185">
        <ele>286.8</ele>
        <time>2021-05-03T12:15:28Z</time>
      </trkpt>
      <trkpt lat="45.17624" lon="5.04179">
        <ele>286.6</ele>
        <time>2021-05-03T12:15:29Z</time>
      </trkpt>
      <trkpt lat="45.17617" lon="5.04175">
        <ele>286.5</ele>
        <time>2021-05-03T12:15:30Z</time>
      </trkpt>
      <trkpt lat="45.17609" lon="5.04171">
        <ele>286.4</ele>
        <time>2021-05-03T12:15:31Z</time>
      </trkpt>
      <trkpt lat="45.17602" lon="5.04166">
        <ele>286.3</ele>
        <time>2021-05-03T12:15:32Z</time>
      </trkpt>
      <trkpt lat="45.17594" lon="5.04163">
        <ele>286.2</ele>
        <time>2021-05-03T12:15:33Z</time>
      </trkpt>
      <trkpt lat="45.17587" lon="5.0416">
        <ele>286.1</ele>
        <time>2021-05-03T12:15:34Z</time>
      </trkpt>
      <trkpt lat="45.17579" lon="5.04158">
        <ele>286</ele>
        <time>2021-05-03T12:15:35Z</time>
      </trkpt>
      <trkpt lat="45.17571" lon="5.04156">
        <ele>285.9</ele>
        <time>2021-05-03T12:15:36Z</time>
      </trkpt>
      <trkpt lat="45.17563" lon="5.04154">
        <ele>285.7</ele>
        <time>2021-05-03T12:15:37Z</time>
      </trkpt>
      <trkpt lat="45.17555" lon="5.04152">
        <ele>285.6</ele>
        <time>2021-05-03T12:15:38Z</time>
      </trkpt>
      <trkpt lat="45.17548" lon="5.04149">
        <ele>285.4</ele>
        <time>2021-05-03T12:15:39Z</time>
      </trkpt>
      <trkpt lat="45.1754" lon="5.04146">
        <ele>285.3</ele>
        <time>2021-05-03T12:15:40Z</time>
      </trkpt>
      <trkpt lat="45.17532" lon="5.04143">
        <ele>285.2</ele>
        <time>2021-05-03T12:15:41Z</time>
      </trkpt>
      <trkpt lat="45.17524" lon="5.04139">
        <ele>285</ele>
        <time>2021-05-03T12:15:42Z</time>
      </trkpt>
      <trkpt lat="45.17516" lon="5.04135">
        <ele>284.9</ele>
        <time>2021-05-03T12:15:43Z</time>
      </trkpt>
      <trkpt lat="45.17508" lon="5.04132">
        <ele>284.7</ele>
        <time>2021-05-03T12:15:44Z</time>
      </trkpt>
      <trkpt lat="45.175" lon="5.04129">
        <ele>284.6</ele>
        <time>2021-05-03T12:15:45Z</time>
      </trkpt>
      <trkpt lat="45.17492" lon="5.04126">
        <ele>284.5</ele>
        <time>2021-05-03T12:15:46Z</time>
      </trkpt>
      <trkpt lat="45.17483" lon="5.04123">
        <ele>284.4</ele>
        <time>2021-05-03T12:15:47Z</time>
      </trkpt>
      <trkpt lat="45.17476" lon="5.0412">
        <ele>284.3</ele>
        <time>2021-05-03T12:15:48Z</time>
      </trkpt>
      <trkpt lat="45.17468" lon="5.04117">
        <ele>284.1</ele>
        <time>2021-05-03T12:15:49Z</time>
      </trkpt>
      <trkpt lat="45.1746" lon="5.04114">
        <ele>284</ele>
        <time>2021-05-03T12:15:50Z</time>
      </trkpt>
      <trkpt lat="45.17452" lon="5.0411">
        <ele>283.9</ele>
        <time>2021-05-03T12:15:51Z</time>
      </trkpt>
      <trkpt lat="45.17444" lon="5.04107">
        <ele>283.7</ele>
        <time>2021-05-03T12:15:52Z</time>
      </trkpt>
      <trkpt lat="45.17436" lon="5.04104">
        <ele>283.6</ele>
        <time>2021-05-03T12:15:53Z</time>
      </trkpt>
      <trkpt lat="45.17427" lon="5.04101">
        <ele>283.4</ele>
        <time>2021-05-03T12:15:54Z</time>
      </trkpt>
      <trkpt lat="45.17419" lon="5.04099">
        <ele>283.3</ele>
        <time>2021-05-03T12:15:55Z</time>
      </trkpt>
      <trkpt lat="45.17411" lon="5.04096">
        <ele>283.2</ele>
        <time>2021-05-03T12:15:56Z</time>
      </trkpt>
      <trkpt lat="45.17403" lon="5.04092">
        <ele>283.1</ele>
        <time>2021-05-03T12:15:57Z</time>
      </trkpt>
      <trkpt lat="45.17395" lon="5.04089">
        <ele>283</ele>
        <time>2021-05-03T12:15:58Z</time>
      </trkpt>
      <trkpt lat="45.17387" lon="5.04086">
        <ele>283</ele>
        <time>2021-05-03T12:15:59Z</time>
      </trkpt>
      <trkpt lat="45.17379" lon="5.04083">
        <ele>282.9</ele>
        <time>2021-05-03T12:16:00Z</time>
      </trkpt>
      <trkpt lat="45.17371" lon="5.0408">
        <ele>282.7</ele>
        <time>2021-05-03T12:16:01Z</time>
      </trkpt>
      <trkpt lat="45.17363" lon="5.04077">
        <ele>282.6</ele>
        <time>2021-05-03T12:16:02Z</time>
      </trkpt>
      <trkpt lat="45.17355" lon="5.04074">
        <ele>282.5</ele>
        <time>2021-05-03T12:16:03Z</time>
      </trkpt>
      <trkpt lat="45.17347" lon="5.0407">
        <ele>282.4</ele>
        <time>2021-05-03T12:16:04Z</time>
      </trkpt>
      <trkpt lat="45.17339" lon="5.04067">
        <ele>282.3</ele>
        <time>2021-05-03T12:16:05Z</time>
      </trkpt>
      <trkpt lat="45.17331" lon="5.04064">
        <ele>282.2</ele>
        <time>2021-05-03T12:16:06Z</time>
      </trkpt>
      <trkpt lat="45.17323" lon="5.04061">
        <ele>282.1</ele>
        <time>2021-05-03T12:16:07Z</time>
      </trkpt>
      <trkpt lat="45.17315" lon="5.04058">
        <ele>282</ele>
        <time>2021-05-03T12:16:08Z</time>
      </trkpt>
      <trkpt lat="45.17307" lon="5.04055">
        <ele>282</ele>
        <time>2021-05-03T12:16:09Z</time>
      </trkpt>
      <trkpt lat="45.17299" lon="5.04051">
        <ele>281.9</ele>
        <time>2021-05-03T12:16:10Z</time>
      </trkpt>
      <trkpt lat="45.17292" lon="5.04048">
        <ele>281.8</ele>
        <time>2021-05-03T12:16:11Z</time>
      </trkpt>
      <trkpt lat="45.17284" lon="5.04045">
        <ele>281.7</ele>
        <time>2021-05-03T12:16:12Z</time>
      </trkpt>
      <trkpt lat="45.17276" lon="5.04042">
        <ele>281.6</ele>
        <time>2021-05-03T12:16:13Z</time>
      </trkpt>
      <trkpt lat="45.17269" lon="5.04039">
        <ele>281.6</ele>
        <time>2021-05-03T12:16:14Z</time>
      </trkpt>
      <trkpt lat="45.17261" lon="5.04036">
        <ele>281.5</ele>
        <time>2021-05-03T12:16:15Z</time>
      </trkpt>
      <trkpt lat="45.17254" lon="5.04033">
        <ele>281.4</ele>
        <time>2021-05-03T12:16:16Z</time>
      </trkpt>
      <trkpt lat="45.17247" lon="5.0403">
        <ele>281.3</ele>
        <time>2021-05-03T12:16:17Z</time>
      </trkpt>
      <trkpt lat="45.17239" lon="5.04028">
        <ele>281.3</ele>
        <time>2021-05-03T12:16:18Z</time>
      </trkpt>
      <trkpt lat="45.17232" lon="5.04025">
        <ele>281.2</ele>
        <time>2021-05-03T12:16:19Z</time>
      </trkpt>
      <trkpt lat="45.17224" lon="5.04022">
        <ele>281.2</ele>
        <time>2021-05-03T12:16:20Z</time>
      </trkpt>
      <trkpt lat="45.17217" lon="5.04019">
        <ele>281.1</ele>
        <time>2021-05-03T12:16:21Z</time>
      </trkpt>
      <trkpt lat="45.1721" lon="5.04016">
        <ele>281</ele>
        <time>2021-05-03T12:16:22Z</time>
      </trkpt>
      <trkpt lat="45.17202" lon="5.04013">
        <ele>280.9</ele>
        <time>2021-05-03T12:16:23Z</time>
      </trkpt>
      <trkpt lat="45.17195" lon="5.0401">
        <ele>280.9</ele>
        <time>2021-05-03T12:16:24Z</time>
      </trkpt>
      <trkpt lat="45.17188" lon="5.04007">
        <ele>280.8</ele>
        <time>2021-05-03T12:16:25Z</time>
      </trkpt>
      <trkpt lat="45.1718" lon="5.04004">
        <ele>280.7</ele>
        <time>2021-05-03T12:16:26Z</time>
      </trkpt>
      <trkpt lat="45.17173" lon="5.04001">
        <ele>280.6</ele>
        <time>2021-05-03T12:16:27Z</time>
      </trkpt>
      <trkpt lat="45.17165" lon="5.03998">
        <ele>280.5</ele>
        <time>2021-05-03T12:16:28Z</time>
      </trkpt>
      <trkpt lat="45.17157" lon="5.03995">
        <ele>280.5</ele>
        <time>2021-05-03T12:16:29Z</time>
      </trkpt>
      <trkpt lat="45.17149" lon="5.03991">
        <ele>280.4</ele>
        <time>2021-05-03T12:16:30Z</time>
      </trkpt>
      <trkpt lat="45.17142" lon="5.03989">
        <ele>280.3</ele>
        <time>2021-05-03T12:16:31Z</time>
      </trkpt>
      <trkpt lat="45.17134" lon="5.03986">
        <ele>280.2</ele>
        <time>2021-05-03T12:16:32Z</time>
      </trkpt>
      <trkpt lat="45.17126" lon="5.03982">
        <ele>280.1</ele>
        <time>2021-05-03T12:16:33Z</time>
      </trkpt>
      <trkpt lat="45.17118" lon="5.03979">
        <ele>280</ele>
        <time>2021-05-03T12:16:34Z</time>
      </trkpt>
      <trkpt lat="45.1711" lon="5.03976">
        <ele>279.9</ele>
        <time>2021-05-03T12:16:35Z</time>
      </trkpt>
      <trkpt lat="45.17102" lon="5.03972">
        <ele>279.8</ele>
        <time>2021-05-03T12:16:36Z</time>
      </trkpt>
      <trkpt lat="45.17094" lon="5.03969">
        <ele>279.7</ele>
        <time>2021-05-03T12:16:37Z</time>
      </trkpt>
      <trkpt lat="45.17086" lon="5.03966">
        <ele>279.6</ele>
        <time>2021-05-03T12:16:38Z</time>
      </trkpt>
      <trkpt lat="45.17078" lon="5.03963">
        <ele>279.5</ele>
        <time>2021-05-03T12:16:39Z</time>
      </trkpt>
      <trkpt lat="45.1707" lon="5.0396">
        <ele>279.4</ele>
        <time>2021-05-03T12:16:40Z</time>
      </trkpt>
      <trkpt lat="45.17062" lon="5.03957">
        <ele>279.4</ele>
        <time>2021-05-03T12:16:41Z</time>
      </trkpt>
      <trkpt lat="45.17054" lon="5.03953">
        <ele>279.3</ele>
        <time>2021-05-03T12:16:42Z</time>
      </trkpt>
      <trkpt lat="45.17046" lon="5.0395">
        <ele>279.2</ele>
        <time>2021-05-03T12:16:43Z</time>
      </trkpt>
      <trkpt lat="45.17039" lon="5.03947">
        <ele>279.2</ele>
        <time>2021-05-03T12:16:44Z</time>
      </trkpt>
      <trkpt lat="45.17031" lon="5.03944">
        <ele>279.1</ele>
        <time>2021-05-03T12:16:45Z</time>
      </trkpt>
      <trkpt lat="45.17024" lon="5.03941">
        <ele>279.1</ele>
        <time>2021-05-03T12:16:46Z</time>
      </trkpt>
      <trkpt lat="45.17016" lon="5.03938">
        <ele>279.1</ele>
        <time>2021-05-03T12:16:47Z</time>
      </trkpt>
      <trkpt lat="45.17009" lon="5.03935">
        <ele>279.1</ele>
        <time>2021-05-03T12:16:48Z</time>
      </trkpt>
      <trkpt lat="45.17001" lon="5.03932">
        <ele>279</ele>
        <time>2021-05-03T12:16:49Z</time>
      </trkpt>
      <trkpt lat="45.16992" lon="5.03929">
        <ele>279</ele>
        <time>2021-05-03T12:16:50Z</time>
      </trkpt>
      <trkpt lat="45.16984" lon="5.03926">
        <ele>279</ele>
        <time>2021-05-03T12:16:51Z</time>
      </trkpt>
      <trkpt lat="45.16977" lon="5.03923">
        <ele>279</ele>
        <time>2021-05-03T12:16:52Z</time>
      </trkpt>
      <trkpt lat="45.16969" lon="5.0392">
        <ele>278.9</ele>
        <time>2021-05-03T12:16:53Z</time>
      </trkpt>
      <trkpt lat="45.16962" lon="5.03917">
        <ele>278.9</ele>
        <time>2021-05-03T12:16:54Z</time>
      </trkpt>
      <trkpt lat="45.16954" lon="5.03914">
        <ele>278.9</ele>
        <time>2021-05-03T12:16:55Z</time>
      </trkpt>
      <trkpt lat="45.16946" lon="5.0391">
        <ele>278.9</ele>
        <time>2021-05-03T12:16:56Z</time>
      </trkpt>
      <trkpt lat="45.16938" lon="5.03907">
        <ele>278.9</ele>
        <time>2021-05-03T12:16:57Z</time>
      </trkpt>
      <trkpt lat="45.16931" lon="5.03904">
        <ele>278.9</ele>
        <time>2021-05-03T12:16:58Z</time>
      </trkpt>
      <trkpt lat="45.16923" lon="5.03901">
        <ele>278.9</ele>
        <time>2021-05-03T12:16:59Z</time>
      </trkpt>
      <trkpt lat="45.16916" lon="5.03899">
        <ele>278.9</ele>
        <time>2021-05-03T12:17:00Z</time>
      </trkpt>
      <trkpt lat="45.16909" lon="5.03896">
        <ele>278.9</ele>
        <time>2021-05-03T12:17:01Z</time>
      </trkpt>
      <trkpt lat="45.16901" lon="5.03893">
        <ele>278.8</ele>
        <time>2021-05-03T12:17:02Z</time>
      </trkpt>
      <trkpt lat="45.16894" lon="5.0389">
        <ele>278.8</ele>
        <time>2021-05-03T12:17:03Z</time>
      </trkpt>
      <trkpt lat="45.16887" lon="5.03887">
        <ele>278.8</ele>
        <time>2021-05-03T12:17:04Z</time>
      </trkpt>
      <trkpt lat="45.1688" lon="5.03884">
        <ele>278.8</ele>
        <time>2021-05-03T12:17:05Z</time>
      </trkpt>
      <trkpt lat="45.16873" lon="5.03881">
        <ele>278.8</ele>
        <time>2021-05-03T12:17:06Z</time>
      </trkpt>
      <trkpt lat="45.16865" lon="5.03879">
        <ele>278.7</ele>
        <time>2021-05-03T12:17:07Z</time>
      </trkpt>
      <trkpt lat="45.16858" lon="5.03876">
        <ele>278.7</ele>
        <time>2021-05-03T12:17:08Z</time>
      </trkpt>
      <trkpt lat="45.16851" lon="5.03873">
        <ele>278.7</ele>
        <time>2021-05-03T12:17:09Z</time>
      </trkpt>
      <trkpt lat="45.16845" lon="5.0387">
        <ele>278.7</ele>
        <time>2021-05-03T12:17:10Z</time>
      </trkpt>
      <trkpt lat="45.16838" lon="5.03868">
        <ele>278.7</ele>
        <time>2021-05-03T12:17:11Z</time>
      </trkpt>
      <trkpt lat="45.16831" lon="5.03865">
        <ele>278.6</ele>
        <time>2021-05-03T12:17:12Z</time>
      </trkpt>
      <trkpt lat="45.16824" lon="5.03862">
        <ele>278.6</ele>
        <time>2021-05-03T12:17:13Z</time>
      </trkpt>
      <trkpt lat="45.16817" lon="5.0386">
        <ele>278.5</ele>
        <time>2021-05-03T12:17:14Z</time>
      </trkpt>
      <trkpt lat="45.1681" lon="5.03857">
        <ele>278.5</ele>
        <time>2021-05-03T12:17:15Z</time>
      </trkpt>
      <trkpt lat="45.16803" lon="5.03854">
        <ele>278.4</ele>
        <time>2021-05-03T12:17:16Z</time>
      </trkpt>
      <trkpt lat="45.16796" lon="5.03852">
        <ele>278.4</ele>
        <time>2021-05-03T12:17:17Z</time>
      </trkpt>
      <trkpt lat="45.16789" lon="5.03849">
        <ele>278.3</ele>
        <time>2021-05-03T12:17:18Z</time>
      </trkpt>
      <trkpt lat="45.16782" lon="5.03847">
        <ele>278.3</ele>
        <time>2021-05-03T12:17:19Z</time>
      </trkpt>
      <trkpt lat="45.16775" lon="5.03844">
        <ele>278.2</ele>
        <time>2021-05-03T12:17:20Z</time>
      </trkpt>
      <trkpt lat="45.16768" lon="5.03842">
        <ele>278.2</ele>
        <time>2021-05-03T12:17:21Z</time>
      </trkpt>
      <trkpt lat="45.16761" lon="5.03839">
        <ele>278.1</ele>
        <time>2021-05-03T12:17:22Z</time>
      </trkpt>
      <trkpt lat="45.16754" lon="5.03837">
        <ele>278.1</ele>
        <time>2021-05-03T12:17:23Z</time>
      </trkpt>
      <trkpt lat="45.16748" lon="5.03834">
        <ele>278</ele>
        <time>2021-05-03T12:17:24Z</time>
      </trkpt>
      <trkpt lat="45.1674" lon="5.03831">
        <ele>278</ele>
        <time>2021-05-03T12:17:25Z</time>
      </trkpt>
      <trkpt lat="45.16733" lon="5.03828">
        <ele>277.9</ele>
        <time>2021-05-03T12:17:26Z</time>
      </trkpt>
      <trkpt lat="45.16726" lon="5.03824">
        <ele>277.8</ele>
        <time>2021-05-03T12:17:27Z</time>
      </trkpt>
      <trkpt lat="45.16719" lon="5.03821">
        <ele>277.6</ele>
        <time>2021-05-03T12:17:28Z</time>
      </trkpt>
      <trkpt lat="45.16712" lon="5.03818">
        <ele>277.5</ele>
        <time>2021-05-03T12:17:29Z</time>
      </trkpt>
      <trkpt lat="45.16704" lon="5.03815">
        <ele>277.3</ele>
        <time>2021-05-03T12:17:30Z</time>
      </trkpt>
      <trkpt lat="45.16697" lon="5.03812">
        <ele>277.2</ele>
        <time>2021-05-03T12:17:31Z</time>
      </trkpt>
      <trkpt lat="45.16689" lon="5.03808">
        <ele>277</ele>
        <time>2021-05-03T12:17:32Z</time>
      </trkpt>
      <trkpt lat="45.16682" lon="5.03805">
        <ele>276.8</ele>
        <time>2021-05-03T12:17:33Z</time>
      </trkpt>
      <trkpt lat="45.16674" lon="5.03802">
        <ele>276.6</ele>
        <time>2021-05-03T12:17:34Z</time>
      </trkpt>
      <trkpt lat="45.16666" lon="5.03799">
        <ele>276.4</ele>
        <time>2021-05-03T12:17:35Z</time>
      </trkpt>
      <trkpt lat="45.16658" lon="5.03796">
        <ele>276.1</ele>
        <time>2021-05-03T12:17:36Z</time>
      </trkpt>
      <trkpt lat="45.1665" lon="5.03793">
        <ele>275.9</ele>
        <time>2021-05-03T12:17:37Z</time>
      </trkpt>
      <trkpt lat="45.16642" lon="5.0379">
        <ele>275.6</ele>
        <time>2021-05-03T12:17:38Z</time>
      </trkpt>
      <trkpt lat="45.16634" lon="5.03787">
        <ele>275.3</ele>
        <time>2021-05-03T12:17:39Z</time>
      </trkpt>
      <trkpt lat="45.16626" lon="5.03783">
        <ele>275</ele>
        <time>2021-05-03T12:17:40Z</time>
      </trkpt>
      <trkpt lat="45.16617" lon="5.0378">
        <ele>274.7</ele>
        <time>2021-05-03T12:17:41Z</time>
      </trkpt>
      <trkpt lat="45.16609" lon="5.03776">
        <ele>274.3</ele>
        <time>2021-05-03T12:17:42Z</time>
      </trkpt>
      <trkpt lat="45.16601" lon="5.03773">
        <ele>274</ele>
        <time>2021-05-03T12:17:43Z</time>
      </trkpt>
      <trkpt lat="45.16592" lon="5.03769">
        <ele>273.7</ele>
        <time>2021-05-03T12:17:44Z</time>
      </trkpt>
      <trkpt lat="45.16583" lon="5.03766">
        <ele>273.4</ele>
        <time>2021-05-03T12:17:45Z</time>
      </trkpt>
      <trkpt lat="45.16575" lon="5.03763">
        <ele>273.1</ele>
        <time>2021-05-03T12:17:46Z</time>
      </trkpt>
      <trkpt lat="45.16566" lon="5.0376">
        <ele>272.8</ele>
        <time>2021-05-03T12:17:47Z</time>
      </trkpt>
      <trkpt lat="45.16557" lon="5.03758">
        <ele>272.6</ele>
        <time>2021-05-03T12:17:48Z</time>
      </trkpt>
      <trkpt lat="45.16548" lon="5.03757">
        <ele>272.3</ele>
        <time>2021-05-03T12:17:49Z</time>
      </trkpt>
      <trkpt lat="45.16539" lon="5.03756">
        <ele>272.1</ele>
        <time>2021-05-03T12:17:50Z</time>
      </trkpt>
      <trkpt lat="45.16531" lon="5.03756">
        <ele>271.8</ele>
        <time>2021-05-03T12:17:51Z</time>
      </trkpt>
      <trkpt lat="45.16522" lon="5.03756">
        <ele>271.6</ele>
        <time>2021-05-03T12:17:52Z</time>
      </trkpt>
      <trkpt lat="45.16513" lon="5.03757">
        <ele>271.5</ele>
        <time>2021-05-03T12:17:53Z</time>
      </trkpt>
      <trkpt lat="45.16504" lon="5.03758">
        <ele>271.3</ele>
        <time>2021-05-03T12:17:54Z</time>
      </trkpt>
      <trkpt lat="45.16494" lon="5.03759">
        <ele>271.1</ele>
        <time>2021-05-03T12:17:55Z</time>
      </trkpt>
      <trkpt lat="45.16486" lon="5.0376">
        <ele>271</ele>
        <time>2021-05-03T12:17:56Z</time>
      </trkpt>
      <trkpt lat="45.16477" lon="5.03761">
        <ele>270.8</ele>
        <time>2021-05-03T12:17:57Z</time>
      </trkpt>
      <trkpt lat="45.16468" lon="5.03762">
        <ele>270.7</ele>
        <time>2021-05-03T12:17:58Z</time>
      </trkpt>
      <trkpt lat="45.16459" lon="5.03763">
        <ele>270.5</ele>
        <time>2021-05-03T12:17:59Z</time>
      </trkpt>
      <trkpt lat="45.1645" lon="5.03764">
        <ele>270.3</ele>
        <time>2021-05-03T12:18:00Z</time>
      </trkpt>
      <trkpt lat="45.16441" lon="5.03765">
        <ele>270.1</ele>
        <time>2021-05-03T12:18:01Z</time>
      </trkpt>
      <trkpt lat="45.16433" lon="5.03766">
        <ele>269.9</ele>
        <time>2021-05-03T12:18:02Z</time>
      </trkpt>
      <trkpt lat="45.16424" lon="5.03766">
        <ele>269.6</ele>
        <time>2021-05-03T12:18:03Z</time>
      </trkpt>
      <trkpt lat="45.16415" lon="5.03767">
        <ele>269.4</ele>
        <time>2021-05-03T12:18:04Z</time>
      </trkpt>
      <trkpt lat="45.16405" lon="5.03767">
        <ele>269.1</ele>
        <time>2021-05-03T12:18:05Z</time>
      </trkpt>
      <trkpt lat="45.16396" lon="5.03768">
        <ele>268.9</ele>
        <time>2021-05-03T12:18:06Z</time>
      </trkpt>
      <trkpt lat="45.16387" lon="5.03769">
        <ele>268.7</ele>
        <time>2021-05-03T12:18:07Z</time>
      </trkpt>
      <trkpt lat="45.16378" lon="5.0377">
        <ele>268.5</ele>
        <time>2021-05-03T12:18:08Z</time>
      </trkpt>
      <trkpt lat="45.16369" lon="5.03771">
        <ele>268.3</ele>
        <time>2021-05-03T12:18:09Z</time>
      </trkpt>
      <trkpt lat="45.1636" lon="5.03772">
        <ele>268.1</ele>
        <time>2021-05-03T12:18:10Z</time>
      </trkpt>
      <trkpt lat="45.16351" lon="5.03772">
        <ele>268</ele>
        <time>2021-05-03T12:18:11Z</time>
      </trkpt>
      <trkpt lat="45.16342" lon="5.03772">
        <ele>267.8</ele>
        <time>2021-05-03T12:18:12Z</time>
      </trkpt>
      <trkpt lat="45.16333" lon="5.03773">
        <ele>267.6</ele>
        <time>2021-05-03T12:18:13Z</time>
      </trkpt>
      <trkpt lat="45.16324" lon="5.03773">
        <ele>267.5</ele>
        <time>2021-05-03T12:18:14Z</time>
      </trkpt>
      <trkpt lat="45.16315" lon="5.03774">
        <ele>267.4</ele>
        <time>2021-05-03T12:18:15Z</time>
      </trkpt>
      <trkpt lat="45.16306" lon="5.03775">
        <ele>267.2</ele>
        <time>2021-05-03T12:18:16Z</time>
      </trkpt>
      <trkpt lat="45.16298" lon="5.03777">
        <ele>267.1</ele>
        <time>2021-05-03T12:18:17Z</time>
      </trkpt>
      <trkpt lat="45.16289" lon="5.03778">
        <ele>267</ele>
        <time>2021-05-03T12:18:18Z</time>
      </trkpt>
      <trkpt lat="45.1628" lon="5.0378">
        <ele>266.8</ele>
        <time>2021-05-03T12:18:19Z</time>
      </trkpt>
      <trkpt lat="45.16272" lon="5.03782">
        <ele>266.7</ele>
        <time>2021-05-03T12:18:20Z</time>
      </trkpt>
      <trkpt lat="45.16263" lon="5.03786">
        <ele>266.6</ele>
        <time>2021-05-03T12:18:21Z</time>
      </trkpt>
      <trkpt lat="45.16255" lon="5.03791">
        <ele>266.6</ele>
        <time>2021-05-03T12:18:22Z</time>
      </trkpt>
      <trkpt lat="45.16247" lon="5.03796">
        <ele>266.5</ele>
        <time>2021-05-03T12:18:23Z</time>
      </trkpt>
      <trkpt lat="45.16239" lon="5.03802">
        <ele>266.4</ele>
        <time>2021-05-03T12:18:24Z</time>
      </trkpt>
      <trkpt lat="45.16232" lon="5.03809">
        <ele>266.4</ele>
        <time>2021-05-03T12:18:25Z</time>
      </trkpt>
      <trkpt lat="45.16225" lon="5.03816">
        <ele>266.4</ele>
        <time>2021-05-03T12:18:26Z</time>
      </trkpt>
      <trkpt lat="45.16219" lon="5.03822">
        <ele>266.4</ele>
        <time>2021-05-03T12:18:27Z</time>
      </trkpt>
      <trkpt lat="45.16213" lon="5.03829">
        <ele>266.5</ele>
        <time>2021-05-03T12:18:28Z</time>
      </trkpt>
      <trkpt lat="45.16207" lon="5.03837">
        <ele>266.5</ele>
        <time>2021-05-03T12:18:29Z</time>
      </trkpt>
      <trkpt lat="45.16202" lon="5.03844">
        <ele>266.6</ele>
        <time>2021-05-03T12:18:30Z</time>
      </trkpt>
      <trkpt lat="45.16197" lon="5.03851">
        <ele>266.6</ele>
        <time>2021-05-03T12:18:31Z</time>
      </trkpt>
      <trkpt lat="45.16192" lon="5.03858">
        <ele>266.6</ele>
        <time>2021-05-03T12:18:32Z</time>
      </trkpt>
      <trkpt lat="45.16187" lon="5.03866">
        <ele>266.6</ele>
        <time>2021-05-03T12:18:33Z</time>
      </trkpt>
      <trkpt lat="45.16182" lon="5.03873">
        <ele>266.6</ele>
        <time>2021-05-03T12:18:34Z</time>
      </trkpt>
      <trkpt lat="45.16177" lon="5.0388">
        <ele>266.5</ele>
        <time>2021-05-03T12:18:35Z</time>
      </trkpt>
      <trkpt lat="45.16171" lon="5.03886">
        <ele>266.5</ele>
        <time>2021-05-03T12:18:36Z</time>
      </trkpt>
      <trkpt lat="45.16166" lon="5.03893">
        <ele>266.5</ele>
        <time>2021-05-03T12:18:37Z</time>
      </trkpt>
      <trkpt lat="45.16161" lon="5.039">
        <ele>266.4</ele>
        <time>2021-05-03T12:18:38Z</time>
      </trkpt>
      <trkpt lat="45.16155" lon="5.03907">
        <ele>266.4</ele>
        <time>2021-05-03T12:18:39Z</time>
      </trkpt>
      <trkpt lat="45.1615" lon="5.03913">
        <ele>266.3</ele>
        <time>2021-05-03T12:18:40Z</time>
      </trkpt>
      <trkpt lat="45.16145" lon="5.0392">
        <ele>266.2</ele>
        <time>2021-05-03T12:18:41Z</time>
      </trkpt>
      <trkpt lat="45.1614" lon="5.03926">
        <ele>266.1</ele>
        <time>2021-05-03T12:18:42Z</time>
      </trkpt>
      <trkpt lat="45.16135" lon="5.03932">
        <ele>265.9</ele>
        <time>2021-05-03T12:18:43Z</time>
      </trkpt>
      <trkpt lat="45.16128" lon="5.03936">
        <ele>265.7</ele>
        <time>2021-05-03T12:18:44Z</time>
      </trkpt>
      <trkpt lat="45.16121" lon="5.03937">
        <ele>265.5</ele>
        <time>2021-05-03T12:18:45Z</time>
      </trkpt>
      <trkpt lat="45.16114" lon="5.03938">
        <ele>265.3</ele>
        <time>2021-05-03T12:18:46Z</time>
      </trkpt>
      <trkpt lat="45.16107" lon="5.03943">
        <ele>265.1</ele>
        <time>2021-05-03T12:18:47Z</time>
      </trkpt>
      <trkpt lat="45.16103" lon="5.03951">
        <ele>264.9</ele>
        <time>2021-05-03T12:18:48Z</time>
      </trkpt>
      <trkpt lat="45.16101" lon="5.03961">
        <ele>264.8</ele>
        <time>2021-05-03T12:18:49Z</time>
      </trkpt>
      <trkpt lat="45.16103" lon="5.03971">
        <ele>264.6</ele>
        <time>2021-05-03T12:18:50Z</time>
      </trkpt>
      <trkpt lat="45.16107" lon="5.03979">
        <ele>264.6</ele>
        <time>2021-05-03T12:18:51Z</time>
      </trkpt>
      <trkpt lat="45.16112" lon="5.03985">
        <ele>264.6</ele>
        <time>2021-05-03T12:18:52Z</time>
      </trkpt>
      <trkpt lat="45.16117" lon="5.03991">
        <ele>264.7</ele>
        <time>2021-05-03T12:18:53Z</time>
      </trkpt>
      <trkpt lat="45.16122" lon="5.03998">
        <ele>264.8</ele>
        <time>2021-05-03T12:18:54Z</time>
      </trkpt>
      <trkpt lat="45.16125" lon="5.04005">
        <ele>264.9</ele>
        <time>2021-05-03T12:18:55Z</time>
      </trkpt>
      <trkpt lat="45.16128" lon="5.04012">
        <ele>264.9</ele>
        <time>2021-05-03T12:18:56Z</time>
      </trkpt>
      <trkpt lat="45.16131" lon="5.04019">
        <ele>264.9</ele>
        <time>2021-05-03T12:18:57Z</time>
      </trkpt>
      <trkpt lat="45.16135" lon="5.04026">
        <ele>265</ele>
        <time>2021-05-03T12:18:58Z</time>
      </trkpt>
      <trkpt lat="45.16138" lon="5.04033">
        <ele>265</ele>
        <time>2021-05-03T12:18:59Z</time>
      </trkpt>
      <trkpt lat="45.16142" lon="5.04039">
        <ele>265.1</ele>
        <time>2021-05-03T12:19:00Z</time>
      </trkpt>
      <trkpt lat="45.16145" lon="5.04045">
        <ele>265.1</ele>
        <time>2021-05-03T12:19:01Z</time>
      </trkpt>
      <trkpt lat="45.16149" lon="5.0405">
        <ele>265.1</ele>
        <time>2021-05-03T12:19:02Z</time>
      </trkpt>
      <trkpt lat="45.16153" lon="5.04055">
        <ele>265.2</ele>
        <time>2021-05-03T12:19:03Z</time>
      </trkpt>
      <trkpt lat="45.16157" lon="5.0406">
        <ele>265.2</ele>
        <time>2021-05-03T12:19:04Z</time>
      </trkpt>
      <trkpt lat="45.16161" lon="5.04064">
        <ele>265.2</ele>
        <time>2021-05-03T12:19:05Z</time>
      </trkpt>
      <trkpt lat="45.16165" lon="5.04068">
        <ele>265.2</ele>
        <time>2021-05-03T12:19:06Z</time>
      </trkpt>
      <trkpt lat="45.16169" lon="5.04072">
        <ele>265.3</ele>
        <time>2021-05-03T12:19:07Z</time>
      </trkpt>
      <trkpt lat="45.16173" lon="5.04076">
        <ele>265.3</ele>
        <time>2021-05-03T12:19:08Z</time>
      </trkpt>
      <trkpt lat="45.16177" lon="5.04081">
        <ele>265.3</ele>
        <time>2021-05-03T12:19:09Z</time>
      </trkpt>
      <trkpt lat="45.16181" lon="5.04086">
        <ele>265.3</ele>
        <time>2021-05-03T12:19:10Z</time>
      </trkpt>
      <trkpt lat="45.16184" lon="5.04091">
        <ele>265.4</ele>
        <time>2021-05-03T12:19:11Z</time>
      </trkpt>
      <trkpt lat="45.16187" lon="5.04096">
        <ele>265.4</ele>
        <time>2021-05-03T12:19:12Z</time>
      </trkpt>
      <trkpt lat="45.1619" lon="5.04102">
        <ele>265.4</ele>
        <time>2021-05-03T12:19:13Z</time>
      </trkpt>
      <trkpt lat="45.16193" lon="5.04107">
        <ele>265.5</ele>
        <time>2021-05-03T12:19:14Z</time>
      </trkpt>
      <trkpt lat="45.16197" lon="5.04112">
        <ele>265.5</ele>
        <time>2021-05-03T12:19:15Z</time>
      </trkpt>
      <trkpt lat="45.162" lon="5.04118">
        <ele>265.5</ele>
        <time>2021-05-03T12:19:16Z</time>
      </trkpt>
      <trkpt lat="45.16202" lon="5.04123">
        <ele>265.5</ele>
        <time>2021-05-03T12:19:17Z</time>
      </trkpt>
      <trkpt lat="45.16205" lon="5.04129">
        <ele>265.5</ele>
        <time>2021-05-03T12:19:18Z</time>
      </trkpt>
      <trkpt lat="45.16207" lon="5.04136">
        <ele>265.5</ele>
        <time>2021-05-03T12:19:19Z</time>
      </trkpt>
      <trkpt lat="45.1621" lon="5.04142">
        <ele>265.5</ele>
        <time>2021-05-03T12:19:20Z</time>
      </trkpt>
      <trkpt lat="45.16212" lon="5.04148">
        <ele>265.5</ele>
        <time>2021-05-03T12:19:21Z</time>
      </trkpt>
      <trkpt lat="45.16214" lon="5.04154">
        <ele>265.5</ele>
        <time>2021-05-03T12:19:22Z</time>
      </trkpt>
      <trkpt lat="45.16215" lon="5.0416">
        <ele>265.6</ele>
        <time>2021-05-03T12:19:23Z</time>
      </trkpt>
      <trkpt lat="45.16217" lon="5.04167">
        <ele>265.6</ele>
        <time>2021-05-03T12:19:24Z</time>
      </trkpt>
      <trkpt lat="45.16218" lon="5.04173">
        <ele>265.6</ele>
        <time>2021-05-03T12:19:25Z</time>
      </trkpt>
      <trkpt lat="45.16219" lon="5.04179">
        <ele>265.6</ele>
        <time>2021-05-03T12:19:26Z</time>
      </trkpt>
      <trkpt lat="45.1622" lon="5.04186">
        <ele>265.6</ele>
        <time>2021-05-03T12:19:27Z</time>
      </trkpt>
      <trkpt lat="45.16221" lon="5.04192">
        <ele>265.6</ele>
        <time>2021-05-03T12:19:28Z</time>
      </trkpt>
      <trkpt lat="45.16222" lon="5.04198">
        <ele>265.7</ele>
        <time>2021-05-03T12:19:29Z</time>
      </trkpt>
      <trkpt lat="45.16224" lon="5.04204">
        <ele>265.7</ele>
        <time>2021-05-03T12:19:30Z</time>
      </trkpt>
      <trkpt lat="45.16225" lon="5.04211">
        <ele>265.8</ele>
        <time>2021-05-03T12:19:31Z</time>
      </trkpt>
      <trkpt lat="45.16226" lon="5.04217">
        <ele>265.8</ele>
        <time>2021-05-03T12:19:32Z</time>
      </trkpt>
      <trkpt lat="45.16227" lon="5.04223">
        <ele>265.8</ele>
        <time>2021-05-03T12:19:33Z</time>
      </trkpt>
      <trkpt lat="45.16229" lon="5.04229">
        <ele>265.9</ele>
        <time>2021-05-03T12:19:34Z</time>
      </trkpt>
      <trkpt lat="45.1623" lon="5.04235">
        <ele>265.9</ele>
        <time>2021-05-03T12:19:35Z</time>
      </trkpt>
      <trkpt lat="45.16231" lon="5.04239">
        <ele>265.9</ele>
        <time>2021-05-03T12:19:36Z</time>
      </trkpt>
      <trkpt lat="45.16232" lon="5.04246">
        <ele>266</ele>
        <time>2021-05-03T12:19:37Z</time>
      </trkpt>
      <trkpt lat="45.16233" lon="5.04252">
        <ele>266</ele>
        <time>2021-05-03T12:19:38Z</time>
      </trkpt>
      <trkpt lat="45.16234" lon="5.04257">
        <ele>266</ele>
        <time>2021-05-03T12:19:39Z</time>
      </trkpt>
      <trkpt lat="45.16234" lon="5.04265">
        <ele>266.1</ele>
        <time>2021-05-03T12:19:40Z</time>
      </trkpt>
      <trkpt lat="45.16234" lon="5.04272">
        <ele>266.1</ele>
        <time>2021-05-03T12:19:41Z</time>
      </trkpt>
      <trkpt lat="45.16234" lon="5.0428">
        <ele>266.2</ele>
        <time>2021-05-03T12:19:42Z</time>
      </trkpt>
      <trkpt lat="45.16234" lon="5.04287">
        <ele>266.2</ele>
        <time>2021-05-03T12:19:43Z</time>
      </trkpt>
      <trkpt lat="45.16232" lon="5.04294">
        <ele>266.3</ele>
        <time>2021-05-03T12:19:44Z</time>
      </trkpt>
      <trkpt lat="45.16232" lon="5.04301">
        <ele>266.4</ele>
        <time>2021-05-03T12:19:45Z</time>
      </trkpt>
      <trkpt lat="45.16231" lon="5.04307">
        <ele>266.4</ele>
        <time>2021-05-03T12:19:46Z</time>
      </trkpt>
      <trkpt lat="45.1623" lon="5.04314">
        <ele>266.5</ele>
        <time>2021-05-03T12:19:47Z</time>
      </trkpt>
      <trkpt lat="45.16229" lon="5.04321">
        <ele>266.5</ele>
        <time>2021-05-03T12:19:48Z</time>
      </trkpt>
      <trkpt lat="45.16227" lon="5.04327">
        <ele>266.6</ele>
        <time>2021-05-03T12:19:49Z</time>
      </trkpt>
      <trkpt lat="45.16225" lon="5.04334">
        <ele>266.6</ele>
        <time>2021-05-03T12:19:50Z</time>
      </trkpt>
      <trkpt lat="45.16224" lon="5.0434">
        <ele>266.7</ele>
        <time>2021-05-03T12:19:51Z</time>
      </trkpt>
      <trkpt lat="45.16222" lon="5.04346">
        <ele>266.7</ele>
        <time>2021-05-03T12:19:52Z</time>
      </trkpt>
      <trkpt lat="45.16221" lon="5.04352">
        <ele>266.7</ele>
        <time>2021-05-03T12:19:53Z</time>
      </trkpt>
      <trkpt lat="45.16219" lon="5.04359">
        <ele>266.8</ele>
        <time>2021-05-03T12:19:54Z</time>
      </trkpt>
      <trkpt lat="45.16218" lon="5.04366">
        <ele>266.8</ele>
        <time>2021-05-03T12:19:55Z</time>
      </trkpt>
      <trkpt lat="45.16216" lon="5.04372">
        <ele>266.8</ele>
        <time>2021-05-03T12:19:56Z</time>
      </trkpt>
      <trkpt lat="45.16214" lon="5.04378">
        <ele>266.9</ele>
        <time>2021-05-03T12:19:57Z</time>
      </trkpt>
      <trkpt lat="45.16212" lon="5.04385">
        <ele>266.9</ele>
        <time>2021-05-03T12:19:58Z</time>
      </trkpt>
      <trkpt lat="45.16211" lon="5.04391">
        <ele>266.9</ele>
        <time>2021-05-03T12:19:59Z</time>
      </trkpt>
      <trkpt lat="45.16209" lon="5.04397">
        <ele>267</ele>
        <time>2021-05-03T12:20:00Z</time>
      </trkpt>
      <trkpt lat="45.16207" lon="5.04404">
        <ele>267</ele>
        <time>2021-05-03T12:20:01Z</time>
      </trkpt>
      <trkpt lat="45.16206" lon="5.0441">
        <ele>267.1</ele>
        <time>2021-05-03T12:20:02Z</time>
      </trkpt>
      <trkpt lat="45.16204" lon="5.04416">
        <ele>267.1</ele>
        <time>2021-05-03T12:20:03Z</time>
      </trkpt>
      <trkpt lat="45.16202" lon="5.04423">
        <ele>267.2</ele>
        <time>2021-05-03T12:20:04Z</time>
      </trkpt>
      <trkpt lat="45.162" lon="5.04429">
        <ele>267.2</ele>
        <time>2021-05-03T12:20:05Z</time>
      </trkpt>
      <trkpt lat="45.16199" lon="5.04436">
        <ele>267.3</ele>
        <time>2021-05-03T12:20:06Z</time>
      </trkpt>
      <trkpt lat="45.16197" lon="5.04442">
        <ele>267.3</ele>
        <time>2021-05-03T12:20:07Z</time>
      </trkpt>
      <trkpt lat="45.16195" lon="5.04449">
        <ele>267.4</ele>
        <time>2021-05-03T12:20:08Z</time>
      </trkpt>
      <trkpt lat="45.16194" lon="5.04455">
        <ele>267.4</ele>
        <time>2021-05-03T12:20:09Z</time>
      </trkpt>
      <trkpt lat="45.16192" lon="5.04462">
        <ele>267.5</ele>
        <time>2021-05-03T12:20:10Z</time>
      </trkpt>
      <trkpt lat="45.1619" lon="5.04469">
        <ele>267.5</ele>
        <time>2021-05-03T12:20:11Z</time>
      </trkpt>
      <trkpt lat="45.16189" lon="5.04475">
        <ele>267.5</ele>
        <time>2021-05-03T12:20:12Z</time>
      </trkpt>
      <trkpt lat="45.16188" lon="5.04481">
        <ele>267.6</ele>
        <time>2021-05-03T12:20:13Z</time>
      </trkpt>
      <trkpt lat="45.16186" lon="5.04487">
        <ele>267.6</ele>
        <time>2021-05-03T12:20:14Z</time>
      </trkpt>
      <trkpt lat="45.16184" lon="5.04494">
        <ele>267.7</ele>
        <time>2021-05-03T12:20:15Z</time>
      </trkpt>
      <trkpt lat="45.16182" lon="5.04501">
        <ele>267.7</ele>
        <time>2021-05-03T12:20:16Z</time>
      </trkpt>
      <trkpt lat="45.16181" lon="5.04507">
        <ele>267.8</ele>
        <time>2021-05-03T12:20:17Z</time>
      </trkpt>
      <trkpt lat="45.16179" lon="5.04514">
        <ele>267.8</ele>
        <time>2021-05-03T12:20:18Z</time>
      </trkpt>
      <trkpt lat="45.16177" lon="5.04521">
        <ele>267.8</ele>
        <time>2021-05-03T12:20:19Z</time>
      </trkpt>
      <trkpt lat="45.16175" lon="5.04528">
        <ele>267.9</ele>
        <time>2021-05-03T12:20:20Z</time>
      </trkpt>
      <trkpt lat="45.16173" lon="5.04534">
        <ele>267.9</ele>
        <time>2021-05-03T12:20:21Z</time>
      </trkpt>
      <trkpt lat="45.16172" lon="5.04541">
        <ele>267.9</ele>
        <time>2021-05-03T12:20:22Z</time>
      </trkpt>
      <trkpt lat="45.1617" lon="5.04548">
        <ele>268</ele>
        <time>2021-05-03T12:20:23Z</time>
      </trkpt>
      <trkpt lat="45.16169" lon="5.04555">
        <ele>268</ele>
        <time>2021-05-03T12:20:24Z</time>
      </trkpt>
      <trkpt lat="45.16168" lon="5.04562">
        <ele>268.1</ele>
        <time>2021-05-03T12:20:25Z</time>
      </trkpt>
      <trkpt lat="45.16167" lon="5.0457">
        <ele>268.1</ele>
        <time>2021-05-03T12:20:26Z</time>
      </trkpt>
      <trkpt lat="45.16166" lon="5.04577">
        <ele>268.1</ele>
        <time>2021-05-03T12:20:27Z</time>
      </trkpt>
      <trkpt lat="45.16165" lon="5.04584">
        <ele>268.2</ele>
        <time>2021-05-03T12:20:28Z</time>
      </trkpt>
      <trkpt lat="45.16164" lon="5.04592">
        <ele>268.2</ele>
        <time>2021-05-03T12:20:29Z</time>
      </trkpt>
      <trkpt lat="45.16164" lon="5.046">
        <ele>268.3</ele>
        <time>2021-05-03T12:20:30Z</time>
      </trkpt>
      <trkpt lat="45.16163" lon="5.04608">
        <ele>268.3</ele>
        <time>2021-05-03T12:20:31Z</time>
      </trkpt>
      <trkpt lat="45.16162" lon="5.04616">
        <ele>268.3</ele>
        <time>2021-05-03T12:20:32Z</time>
      </trkpt>
      <trkpt lat="45.16162" lon="5.04625">
        <ele>268.3</ele>
        <time>2021-05-03T12:20:33Z</time>
      </trkpt>
      <trkpt lat="45.16162" lon="5.04633">
        <ele>268.4</ele>
        <time>2021-05-03T12:20:34Z</time>
      </trkpt>
      <trkpt lat="45.16162" lon="5.0464">
        <ele>268.4</ele>
        <time>2021-05-03T12:20:35Z</time>
      </trkpt>
      <trkpt lat="45.16162" lon="5.04648">
        <ele>268.4</ele>
        <time>2021-05-03T12:20:36Z</time>
      </trkpt>
      <trkpt lat="45.16162" lon="5.04656">
        <ele>268.4</ele>
        <time>2021-05-03T12:20:37Z</time>
      </trkpt>
      <trkpt lat="45.16161" lon="5.04664">
        <ele>268.5</ele>
        <time>2021-05-03T12:20:38Z</time>
      </trkpt>
      <trkpt lat="45.16161" lon="5.04672">
        <ele>268.5</ele>
        <time>2021-05-03T12:20:39Z</time>
      </trkpt>
      <trkpt lat="45.16161" lon="5.0468">
        <ele>268.5</ele>
        <time>2021-05-03T12:20:40Z</time>
      </trkpt>
      <trkpt lat="45.16161" lon="5.04688">
        <ele>268.6</ele>
        <time>2021-05-03T12:20:41Z</time>
      </trkpt>
      <trkpt lat="45.16161" lon="5.04695">
        <ele>268.6</ele>
        <time>2021-05-03T12:20:42Z</time>
      </trkpt>
      <trkpt lat="45.16161" lon="5.04703">
        <ele>268.7</ele>
        <time>2021-05-03T12:20:43Z</time>
      </trkpt>
      <trkpt lat="45.16161" lon="5.04711">
        <ele>268.7</ele>
        <time>2021-05-03T12:20:44Z</time>
      </trkpt>
      <trkpt lat="45.16161" lon="5.04719">
        <ele>268.8</ele>
        <time>2021-05-03T12:20:45Z</time>
      </trkpt>
      <trkpt lat="45.1616" lon="5.04726">
        <ele>268.9</ele>
        <time>2021-05-03T12:20:46Z</time>
      </trkpt>
      <trkpt lat="45.1616" lon="5.04734">
        <ele>268.9</ele>
        <time>2021-05-03T12:20:47Z</time>
      </trkpt>
      <trkpt lat="45.1616" lon="5.04742">
        <ele>269</ele>
        <time>2021-05-03T12:20:48Z</time>
      </trkpt>
      <trkpt lat="45.1616" lon="5.04749">
        <ele>269</ele>
        <time>2021-05-03T12:20:49Z</time>
      </trkpt>
      <trkpt lat="45.1616" lon="5.04756">
        <ele>269</ele>
        <time>2021-05-03T12:20:50Z</time>
      </trkpt>
      <trkpt lat="45.1616" lon="5.04763">
        <ele>269.1</ele>
        <time>2021-05-03T12:20:51Z</time>
      </trkpt>
      <trkpt lat="45.1616" lon="5.04771">
        <ele>269.1</ele>
        <time>2021-05-03T12:20:52Z</time>
      </trkpt>
      <trkpt lat="45.1616" lon="5.04778">
        <ele>269.2</ele>
        <time>2021-05-03T12:20:53Z</time>
      </trkpt>
      <trkpt lat="45.1616" lon="5.04785">
        <ele>269.3</ele>
        <time>2021-05-03T12:20:54Z</time>
      </trkpt>
      <trkpt lat="45.1616" lon="5.04793">
        <ele>269.3</ele>
        <time>2021-05-03T12:20:55Z</time>
      </trkpt>
      <trkpt lat="45.1616" lon="5.048">
        <ele>269.4</ele>
        <time>2021-05-03T12:20:56Z</time>
      </trkpt>
      <trkpt lat="45.1616" lon="5.04808">
        <ele>269.5</ele>
        <time>2021-05-03T12:20:57Z</time>
      </trkpt>
      <trkpt lat="45.16159" lon="5.04815">
        <ele>269.5</ele>
        <time>2021-05-03T12:20:58Z</time>
      </trkpt>
      <trkpt lat="45.16159" lon="5.04823">
        <ele>269.6</ele>
        <time>2021-05-03T12:20:59Z</time>
      </trkpt>
      <trkpt lat="45.1616" lon="5.0483">
        <ele>269.6</ele>
        <time>2021-05-03T12:21:00Z</time>
      </trkpt>
      <trkpt lat="45.1616" lon="5.04837">
        <ele>269.7</ele>
        <time>2021-05-03T12:21:01Z</time>
      </trkpt>
      <trkpt lat="45.1616" lon="5.04844">
        <ele>269.8</ele>
        <time>2021-05-03T12:21:02Z</time>
      </trkpt>
      <trkpt lat="45.1616" lon="5.04851">
        <ele>269.8</ele>
        <time>2021-05-03T12:21:03Z</time>
      </trkpt>
      <trkpt lat="45.16161" lon="5.04858">
        <ele>269.9</ele>
        <time>2021-05-03T12:21:04Z</time>
      </trkpt>
      <trkpt lat="45.16161" lon="5.04866">
        <ele>270</ele>
        <time>2021-05-03T12:21:05Z</time>
      </trkpt>
      <trkpt lat="45.16162" lon="5.04873">
        <ele>270.1</ele>
        <time>2021-05-03T12:21:06Z</time>
      </trkpt>
      <trkpt lat="45.16163" lon="5.04879">
        <ele>270.1</ele>
        <time>2021-05-03T12:21:07Z</time>
      </trkpt>
      <trkpt lat="45.16164" lon="5.04886">
        <ele>270.2</ele>
        <time>2021-05-03T12:21:08Z</time>
      </trkpt>
      <trkpt lat="45.16164" lon="5.04893">
        <ele>270.3</ele>
        <time>2021-05-03T12:21:09Z</time>
      </trkpt>
      <trkpt lat="45.16165" lon="5.04899">
        <ele>270.4</ele>
        <time>2021-05-03T12:21:10Z</time>
      </trkpt>
      <trkpt lat="45.16166" lon="5.04906">
        <ele>270.5</ele>
        <time>2021-05-03T12:21:11Z</time>
      </trkpt>
      <trkpt lat="45.16168" lon="5.04913">
        <ele>270.6</ele>
        <time>2021-05-03T12:21:12Z</time>
      </trkpt>
      <trkpt lat="45.1617" lon="5.0492">
        <ele>270.7</ele>
        <time>2021-05-03T12:21:13Z</time>
      </trkpt>
      <trkpt lat="45.16172" lon="5.04926">
        <ele>270.7</ele>
        <time>2021-05-03T12:21:14Z</time>
      </trkpt>
      <trkpt lat="45.16173" lon="5.04933">
        <ele>270.8</ele>
        <time>2021-05-03T12:21:15Z</time>
      </trkpt>
      <trkpt lat="45.16176" lon="5.04939">
        <ele>270.9</ele>
        <time>2021-05-03T12:21:16Z</time>
      </trkpt>
      <trkpt lat="45.16178" lon="5.04946">
        <ele>271</ele>
        <time>2021-05-03T12:21:17Z</time>
      </trkpt>
      <trkpt lat="45.16179" lon="5.04951">
        <ele>271</ele>
        <time>2021-05-03T12:21:18Z</time>
      </trkpt>
      <trkpt lat="45.16181" lon="5.04955">
        <ele>271</ele>
        <time>2021-05-03T12:21:19Z</time>
      </trkpt>
      <trkpt lat="45.16182" lon="5.04959">
        <ele>271.1</ele>
        <time>2021-05-03T12:21:20Z</time>
      </trkpt>
      <trkpt lat="45.16184" lon="5.04964">
        <ele>271.1</ele>
        <time>2021-05-03T12:21:21Z</time>
      </trkpt>
      <trkpt lat="45.16185" lon="5.04969">
        <ele>271.2</ele>
        <time>2021-05-03T12:21:22Z</time>
      </trkpt>
      <trkpt lat="45.16186" lon="5.04974">
        <ele>271.2</ele>
        <time>2021-05-03T12:21:23Z</time>
      </trkpt>
      <trkpt lat="45.16188" lon="5.04976">
        <ele>271.3</ele>
        <time>2021-05-03T12:21:24Z</time>
      </trkpt>
      <trkpt lat="45.1619" lon="5.04975">
        <ele>271.2</ele>
        <time>2021-05-03T12:21:25Z</time>
      </trkpt>
      <trkpt lat="45.16191" lon="5.0497">
        <ele>271.2</ele>
        <time>2021-05-03T12:21:27Z</time>
      </trkpt>
      <trkpt lat="45.16185" lon="5.04962">
        <ele>271.1</ele>
        <time>2021-05-03T12:21:29Z</time>
      </trkpt>
      <trkpt lat="45.16183" lon="5.04955">
        <ele>271</ele>
        <time>2021-05-03T12:21:30Z</time>
      </trkpt>
      <trkpt lat="45.16179" lon="5.0494">
        <ele>270.9</ele>
        <time>2021-05-03T12:21:32Z</time>
      </trkpt>
      <trkpt lat="45.16177" lon="5.04933">
        <ele>270.8</ele>
        <time>2021-05-03T12:21:33Z</time>
      </trkpt>
      <trkpt lat="45.16175" lon="5.04926">
        <ele>270.8</ele>
        <time>2021-05-03T12:21:34Z</time>
      </trkpt>
      <trkpt lat="45.16173" lon="5.04919">
        <ele>270.7</ele>
        <time>2021-05-03T12:21:35Z</time>
      </trkpt>
      <trkpt lat="45.16171" lon="5.04912">
        <ele>270.6</ele>
        <time>2021-05-03T12:21:36Z</time>
      </trkpt>
      <trkpt lat="45.1617" lon="5.04904">
        <ele>270.5</ele>
        <time>2021-05-03T12:21:37Z</time>
      </trkpt>
      <trkpt lat="45.16168" lon="5.04895">
        <ele>270.4</ele>
        <time>2021-05-03T12:21:38Z</time>
      </trkpt>
      <trkpt lat="45.16164" lon="5.04885">
        <ele>270.3</ele>
        <time>2021-05-03T12:21:39Z</time>
      </trkpt>
      <trkpt lat="45.16162" lon="5.04878">
        <ele>270.2</ele>
        <time>2021-05-03T12:21:40Z</time>
      </trkpt>
      <trkpt lat="45.16161" lon="5.0487">
        <ele>270.1</ele>
        <time>2021-05-03T12:21:41Z</time>
      </trkpt>
      <trkpt lat="45.1616" lon="5.04863">
        <ele>270.1</ele>
        <time>2021-05-03T12:21:42Z</time>
      </trkpt>
      <trkpt lat="45.1616" lon="5.04855">
        <ele>270</ele>
        <time>2021-05-03T12:21:43Z</time>
      </trkpt>
      <trkpt lat="45.16159" lon="5.04847">
        <ele>269.9</ele>
        <time>2021-05-03T12:21:44Z</time>
      </trkpt>
      <trkpt lat="45.16159" lon="5.04838">
        <ele>269.8</ele>
        <time>2021-05-03T12:21:45Z</time>
      </trkpt>
      <trkpt lat="45.16159" lon="5.04829">
        <ele>269.7</ele>
        <time>2021-05-03T12:21:46Z</time>
      </trkpt>
      <trkpt lat="45.16159" lon="5.0482">
        <ele>269.7</ele>
        <time>2021-05-03T12:21:47Z</time>
      </trkpt>
      <trkpt lat="45.1616" lon="5.04812">
        <ele>269.6</ele>
        <time>2021-05-03T12:21:48Z</time>
      </trkpt>
      <trkpt lat="45.16161" lon="5.04804">
        <ele>269.6</ele>
        <time>2021-05-03T12:21:49Z</time>
      </trkpt>
      <trkpt lat="45.16162" lon="5.04795">
        <ele>269.5</ele>
        <time>2021-05-03T12:21:50Z</time>
      </trkpt>
      <trkpt lat="45.16163" lon="5.04786">
        <ele>269.4</ele>
        <time>2021-05-03T12:21:51Z</time>
      </trkpt>
      <trkpt lat="45.16163" lon="5.04777">
        <ele>269.4</ele>
        <time>2021-05-03T12:21:52Z</time>
      </trkpt>
      <trkpt lat="45.16163" lon="5.04768">
        <ele>269.3</ele>
        <time>2021-05-03T12:21:53Z</time>
      </trkpt>
      <trkpt lat="45.16163" lon="5.0476">
        <ele>269.2</ele>
        <time>2021-05-03T12:21:54Z</time>
      </trkpt>
      <trkpt lat="45.16164" lon="5.04751">
        <ele>269.1</ele>
        <time>2021-05-03T12:21:55Z</time>
      </trkpt>
      <trkpt lat="45.16164" lon="5.04743">
        <ele>269.1</ele>
        <time>2021-05-03T12:21:56Z</time>
      </trkpt>
      <trkpt lat="45.16165" lon="5.04734">
        <ele>269</ele>
        <time>2021-05-03T12:21:57Z</time>
      </trkpt>
      <trkpt lat="45.16165" lon="5.04725">
        <ele>269</ele>
        <time>2021-05-03T12:21:58Z</time>
      </trkpt>
      <trkpt lat="45.16165" lon="5.04716">
        <ele>269</ele>
        <time>2021-05-03T12:21:59Z</time>
      </trkpt>
      <trkpt lat="45.16165" lon="5.04708">
        <ele>268.9</ele>
        <time>2021-05-03T12:22:00Z</time>
      </trkpt>
      <trkpt lat="45.16165" lon="5.04699">
        <ele>268.9</ele>
        <time>2021-05-03T12:22:01Z</time>
      </trkpt>
      <trkpt lat="45.16165" lon="5.04691">
        <ele>268.8</ele>
        <time>2021-05-03T12:22:02Z</time>
      </trkpt>
      <trkpt lat="45.16166" lon="5.04682">
        <ele>268.7</ele>
        <time>2021-05-03T12:22:03Z</time>
      </trkpt>
      <trkpt lat="45.16166" lon="5.04673">
        <ele>268.7</ele>
        <time>2021-05-03T12:22:04Z</time>
      </trkpt>
      <trkpt lat="45.16166" lon="5.04664">
        <ele>268.6</ele>
        <time>2021-05-03T12:22:05Z</time>
      </trkpt>
      <trkpt lat="45.16166" lon="5.04655">
        <ele>268.6</ele>
        <time>2021-05-03T12:22:06Z</time>
      </trkpt>
      <trkpt lat="45.16166" lon="5.04647">
        <ele>268.5</ele>
        <time>2021-05-03T12:22:07Z</time>
      </trkpt>
      <trkpt lat="45.16167" lon="5.04639">
        <ele>268.5</ele>
        <time>2021-05-03T12:22:08Z</time>
      </trkpt>
      <trkpt lat="45.16167" lon="5.04631">
        <ele>268.5</ele>
        <time>2021-05-03T12:22:09Z</time>
      </trkpt>
      <trkpt lat="45.16166" lon="5.04622">
        <ele>268.4</ele>
        <time>2021-05-03T12:22:10Z</time>
      </trkpt>
      <trkpt lat="45.16166" lon="5.04615">
        <ele>268.4</ele>
        <time>2021-05-03T12:22:11Z</time>
      </trkpt>
      <trkpt lat="45.16166" lon="5.04608">
        <ele>268.4</ele>
        <time>2021-05-03T12:22:12Z</time>
      </trkpt>
      <trkpt lat="45.16166" lon="5.04601">
        <ele>268.4</ele>
        <time>2021-05-03T12:22:13Z</time>
      </trkpt>
      <trkpt lat="45.16165" lon="5.04595">
        <ele>268.4</ele>
        <time>2021-05-03T12:22:14Z</time>
      </trkpt>
      <trkpt lat="45.16163" lon="5.0459">
        <ele>268.3</ele>
        <time>2021-05-03T12:22:15Z</time>
      </trkpt>
      <trkpt lat="45.16159" lon="5.04588">
        <ele>268.3</ele>
        <time>2021-05-03T12:22:16Z</time>
      </trkpt>
      <trkpt lat="45.16158" lon="5.04587">
        <ele>268.3</ele>
        <time>2021-05-03T12:22:17Z</time>
      </trkpt>
      <trkpt lat="45.16153" lon="5.04588">
        <ele>268.3</ele>
        <time>2021-05-03T12:22:18Z</time>
      </trkpt>
      <trkpt lat="45.16149" lon="5.0459">
        <ele>268.3</ele>
        <time>2021-05-03T12:22:19Z</time>
      </trkpt>
      <trkpt lat="45.16146" lon="5.04591">
        <ele>268.3</ele>
        <time>2021-05-03T12:22:20Z</time>
      </trkpt>
      <trkpt lat="45.16146" lon="5.04591">
        <ele>268.3</ele>
        <time>2021-05-03T12:22:21Z</time>
      </trkpt>
      <trkpt lat="45.16145" lon="5.04592">
        <ele>268.3</ele>
        <time>2021-05-03T12:22:22Z</time>
      </trkpt>
      <trkpt lat="45.16145" lon="5.04591">
        <ele>268.3</ele>
        <time>2021-05-03T12:22:23Z</time>
      </trkpt>
      <trkpt lat="45.16145" lon="5.04591">
        <ele>268.3</ele>
        <time>2021-05-03T12:22:24Z</time>
      </trkpt>
      <trkpt lat="45.16146" lon="5.04591">
        <ele>268.3</ele>
        <time>2021-05-03T12:22:25Z</time>
      </trkpt>
      <trkpt lat="45.16146" lon="5.04591">
        <ele>268.3</ele>
        <time>2021-05-03T12:22:26Z</time>
      </trkpt>
      <trkpt lat="45.16146" lon="5.04591">
        <ele>268.3</ele>
        <time>2021-05-03T12:22:27Z</time>
      </trkpt>
      <trkpt lat="45.16146" lon="5.04591">
        <ele>268.3</ele>
        <time>2021-05-03T12:22:28Z</time>
      </trkpt>
      <trkpt lat="45.16146" lon="5.04591">
        <ele>268.3</ele>
        <time>2021-05-03T12:22:29Z</time>
      </trkpt>
      <trkpt lat="45.16146" lon="5.04591">
        <ele>268.3</ele>
        <time>2021-05-03T12:22:30Z</time>
      </trkpt>
      <trkpt lat="45.16146" lon="5.04591">
        <ele>268.3</ele>
        <time>2021-05-03T12:22:31Z</time>
      </trkpt>
      <trkpt lat="45.16147" lon="5.04586">
        <ele>268.2</ele>
        <time>2021-05-03T12:23:13Z</time>
      </trkpt>
      <trkpt lat="45.1615" lon="5.04585">
        <ele>268.2</ele>
        <time>2021-05-03T12:23:15Z</time>
      </trkpt>
      <trkpt lat="45.16156" lon="5.04584">
        <ele>268.2</ele>
        <time>2021-05-03T12:23:17Z</time>
      </trkpt>
      <trkpt lat="45.16159" lon="5.04584">
        <ele>268.2</ele>
        <time>2021-05-03T12:23:18Z</time>
      </trkpt>
      <trkpt lat="45.16164" lon="5.04583">
        <ele>268.2</ele>
        <time>2021-05-03T12:23:20Z</time>
      </trkpt>
      <trkpt lat="45.16167" lon="5.04581">
        <ele>268.1</ele>
        <time>2021-05-03T12:23:21Z</time>
      </trkpt>
      <trkpt lat="45.16169" lon="5.04578">
        <ele>268.1</ele>
        <time>2021-05-03T12:23:22Z</time>
      </trkpt>
      <trkpt lat="45.16173" lon="5.04569">
        <ele>268.1</ele>
        <time>2021-05-03T12:23:24Z</time>
      </trkpt>
      <trkpt lat="45.16174" lon="5.04562">
        <ele>268</ele>
        <time>2021-05-03T12:23:25Z</time>
      </trkpt>
      <trkpt lat="45.16175" lon="5.04551">
        <ele>268</ele>
        <time>2021-05-03T12:23:26Z</time>
      </trkpt>
      <trkpt lat="45.16177" lon="5.0454">
        <ele>267.9</ele>
        <time>2021-05-03T12:23:28Z</time>
      </trkpt>
      <trkpt lat="45.16179" lon="5.0453">
        <ele>267.9</ele>
        <time>2021-05-03T12:23:30Z</time>
      </trkpt>
      <trkpt lat="45.1618" lon="5.04524">
        <ele>267.8</ele>
        <time>2021-05-03T12:23:31Z</time>
      </trkpt>
      <trkpt lat="45.16182" lon="5.04518">
        <ele>267.8</ele>
        <time>2021-05-03T12:23:32Z</time>
      </trkpt>
      <trkpt lat="45.16184" lon="5.04512">
        <ele>267.8</ele>
        <time>2021-05-03T12:23:33Z</time>
      </trkpt>
      <trkpt lat="45.16185" lon="5.04505">
        <ele>267.8</ele>
        <time>2021-05-03T12:23:34Z</time>
      </trkpt>
      <trkpt lat="45.16187" lon="5.04499">
        <ele>267.7</ele>
        <time>2021-05-03T12:23:35Z</time>
      </trkpt>
      <trkpt lat="45.1619" lon="5.04494">
        <ele>267.7</ele>
        <time>2021-05-03T12:23:36Z</time>
      </trkpt>
      <trkpt lat="45.16192" lon="5.04489">
        <ele>267.8</ele>
        <time>2021-05-03T12:23:37Z</time>
      </trkpt>
      <trkpt lat="45.16193" lon="5.04483">
        <ele>267.8</ele>
        <time>2021-05-03T12:23:38Z</time>
      </trkpt>
      <trkpt lat="45.16187" lon="5.04487">
        <ele>267.8</ele>
        <time>2021-05-03T12:23:40Z</time>
      </trkpt>
      <trkpt lat="45.16186" lon="5.04492">
        <ele>267.8</ele>
        <time>2021-05-03T12:23:41Z</time>
      </trkpt>
      <trkpt lat="45.16186" lon="5.04496">
        <ele>267.8</ele>
        <time>2021-05-03T12:23:42Z</time>
      </trkpt>
      <trkpt lat="45.16185" lon="5.045">
        <ele>267.9</ele>
        <time>2021-05-03T12:23:43Z</time>
      </trkpt>
      <trkpt lat="45.16184" lon="5.04505">
        <ele>267.9</ele>
        <time>2021-05-03T12:23:44Z</time>
      </trkpt>
      <trkpt lat="45.16182" lon="5.04511">
        <ele>267.9</ele>
        <time>2021-05-03T12:23:45Z</time>
      </trkpt>
      <trkpt lat="45.16178" lon="5.04521">
        <ele>267.9</ele>
        <time>2021-05-03T12:23:47Z</time>
      </trkpt>
      <trkpt lat="45.16176" lon="5.04531">
        <ele>268</ele>
        <time>2021-05-03T12:23:49Z</time>
      </trkpt>
      <trkpt lat="45.16171" lon="5.04545">
        <ele>268</ele>
        <time>2021-05-03T12:23:51Z</time>
      </trkpt>
      <trkpt lat="45.16169" lon="5.04556">
        <ele>268.1</ele>
        <time>2021-05-03T12:23:53Z</time>
      </trkpt>
      <trkpt lat="45.16167" lon="5.0457">
        <ele>268.1</ele>
        <time>2021-05-03T12:23:55Z</time>
      </trkpt>
      <trkpt lat="45.16166" lon="5.04577">
        <ele>268.2</ele>
        <time>2021-05-03T12:23:56Z</time>
      </trkpt>
      <trkpt lat="45.16165" lon="5.04583">
        <ele>268.2</ele>
        <time>2021-05-03T12:23:57Z</time>
      </trkpt>
      <trkpt lat="45.16164" lon="5.0459">
        <ele>268.2</ele>
        <time>2021-05-03T12:23:58Z</time>
      </trkpt>
      <trkpt lat="45.16164" lon="5.04597">
        <ele>268.2</ele>
        <time>2021-05-03T12:23:59Z</time>
      </trkpt>
      <trkpt lat="45.16164" lon="5.04605">
        <ele>268.3</ele>
        <time>2021-05-03T12:24:00Z</time>
      </trkpt>
      <trkpt lat="45.16164" lon="5.04612">
        <ele>268.3</ele>
        <time>2021-05-03T12:24:01Z</time>
      </trkpt>
      <trkpt lat="45.16163" lon="5.04619">
        <ele>268.3</ele>
        <time>2021-05-03T12:24:02Z</time>
      </trkpt>
      <trkpt lat="45.16163" lon="5.04626">
        <ele>268.3</ele>
        <time>2021-05-03T12:24:03Z</time>
      </trkpt>
      <trkpt lat="45.16163" lon="5.04634">
        <ele>268.4</ele>
        <time>2021-05-03T12:24:04Z</time>
      </trkpt>
      <trkpt lat="45.16163" lon="5.04642">
        <ele>268.4</ele>
        <time>2021-05-03T12:24:05Z</time>
      </trkpt>
      <trkpt lat="45.16162" lon="5.0465">
        <ele>268.4</ele>
        <time>2021-05-03T12:24:06Z</time>
      </trkpt>
      <trkpt lat="45.16162" lon="5.04658">
        <ele>268.4</ele>
        <time>2021-05-03T12:24:07Z</time>
      </trkpt>
      <trkpt lat="45.16162" lon="5.04666">
        <ele>268.5</ele>
        <time>2021-05-03T12:24:08Z</time>
      </trkpt>
      <trkpt lat="45.16162" lon="5.04674">
        <ele>268.5</ele>
        <time>2021-05-03T12:24:09Z</time>
      </trkpt>
      <trkpt lat="45.16161" lon="5.04681">
        <ele>268.5</ele>
        <time>2021-05-03T12:24:10Z</time>
      </trkpt>
      <trkpt lat="45.16161" lon="5.04689">
        <ele>268.6</ele>
        <time>2021-05-03T12:24:11Z</time>
      </trkpt>
      <trkpt lat="45.16161" lon="5.04696">
        <ele>268.6</ele>
        <time>2021-05-03T12:24:12Z</time>
      </trkpt>
      <trkpt lat="45.16161" lon="5.04704">
        <ele>268.7</ele>
        <time>2021-05-03T12:24:13Z</time>
      </trkpt>
      <trkpt lat="45.16161" lon="5.04711">
        <ele>268.7</ele>
        <time>2021-05-03T12:24:14Z</time>
      </trkpt>
      <trkpt lat="45.16161" lon="5.04718">
        <ele>268.8</ele>
        <time>2021-05-03T12:24:15Z</time>
      </trkpt>
      <trkpt lat="45.16161" lon="5.04726">
        <ele>268.9</ele>
        <time>2021-05-03T12:24:16Z</time>
      </trkpt>
      <trkpt lat="45.16161" lon="5.04733">
        <ele>268.9</ele>
        <time>2021-05-03T12:24:17Z</time>
      </trkpt>
      <trkpt lat="45.16161" lon="5.0474">
        <ele>268.9</ele>
        <time>2021-05-03T12:24:18Z</time>
      </trkpt>
      <trkpt lat="45.16161" lon="5.04747">
        <ele>269</ele>
        <time>2021-05-03T12:24:19Z</time>
      </trkpt>
      <trkpt lat="45.1616" lon="5.04754">
        <ele>269</ele>
        <time>2021-05-03T12:24:20Z</time>
      </trkpt>
      <trkpt lat="45.1616" lon="5.04761">
        <ele>269.1</ele>
        <time>2021-05-03T12:24:21Z</time>
      </trkpt>
      <trkpt lat="45.1616" lon="5.04769">
        <ele>269.1</ele>
        <time>2021-05-03T12:24:22Z</time>
      </trkpt>
      <trkpt lat="45.1616" lon="5.04776">
        <ele>269.2</ele>
        <time>2021-05-03T12:24:23Z</time>
      </trkpt>
      <trkpt lat="45.1616" lon="5.04783">
        <ele>269.2</ele>
        <time>2021-05-03T12:24:24Z</time>
      </trkpt>
      <trkpt lat="45.1616" lon="5.0479">
        <ele>269.3</ele>
        <time>2021-05-03T12:24:25Z</time>
      </trkpt>
      <trkpt lat="45.16159" lon="5.04797">
        <ele>269.4</ele>
        <time>2021-05-03T12:24:26Z</time>
      </trkpt>
      <trkpt lat="45.16159" lon="5.04805">
        <ele>269.4</ele>
        <time>2021-05-03T12:24:27Z</time>
      </trkpt>
      <trkpt lat="45.16159" lon="5.04812">
        <ele>269.5</ele>
        <time>2021-05-03T12:24:28Z</time>
      </trkpt>
      <trkpt lat="45.16159" lon="5.04819">
        <ele>269.6</ele>
        <time>2021-05-03T12:24:29Z</time>
      </trkpt>
      <trkpt lat="45.16159" lon="5.04827">
        <ele>269.6</ele>
        <time>2021-05-03T12:24:30Z</time>
      </trkpt>
      <trkpt lat="45.16159" lon="5.04834">
        <ele>269.7</ele>
        <time>2021-05-03T12:24:31Z</time>
      </trkpt>
      <trkpt lat="45.1616" lon="5.04841">
        <ele>269.7</ele>
        <time>2021-05-03T12:24:32Z</time>
      </trkpt>
      <trkpt lat="45.1616" lon="5.04849">
        <ele>269.8</ele>
        <time>2021-05-03T12:24:33Z</time>
      </trkpt>
      <trkpt lat="45.1616" lon="5.04856">
        <ele>269.9</ele>
        <time>2021-05-03T12:24:34Z</time>
      </trkpt>
      <trkpt lat="45.16161" lon="5.04863">
        <ele>269.9</ele>
        <time>2021-05-03T12:24:35Z</time>
      </trkpt>
      <trkpt lat="45.16161" lon="5.0487">
        <ele>270</ele>
        <time>2021-05-03T12:24:36Z</time>
      </trkpt>
      <trkpt lat="45.16162" lon="5.04877">
        <ele>270.1</ele>
        <time>2021-05-03T12:24:37Z</time>
      </trkpt>
      <trkpt lat="45.16163" lon="5.04884">
        <ele>270.2</ele>
        <time>2021-05-03T12:24:38Z</time>
      </trkpt>
      <trkpt lat="45.16164" lon="5.04891">
        <ele>270.3</ele>
        <time>2021-05-03T12:24:39Z</time>
      </trkpt>
      <trkpt lat="45.16166" lon="5.04897">
        <ele>270.4</ele>
        <time>2021-05-03T12:24:40Z</time>
      </trkpt>
      <trkpt lat="45.16168" lon="5.04903">
        <ele>270.5</ele>
        <time>2021-05-03T12:24:41Z</time>
      </trkpt>
      <trkpt lat="45.16169" lon="5.0491">
        <ele>270.6</ele>
        <time>2021-05-03T12:24:42Z</time>
      </trkpt>
      <trkpt lat="45.16171" lon="5.04916">
        <ele>270.6</ele>
        <time>2021-05-03T12:24:43Z</time>
      </trkpt>
      <trkpt lat="45.16173" lon="5.04922">
        <ele>270.7</ele>
        <time>2021-05-03T12:24:44Z</time>
      </trkpt>
      <trkpt lat="45.16174" lon="5.04929">
        <ele>270.8</ele>
        <time>2021-05-03T12:24:45Z</time>
      </trkpt>
      <trkpt lat="45.16176" lon="5.04935">
        <ele>270.9</ele>
        <time>2021-05-03T12:24:46Z</time>
      </trkpt>
      <trkpt lat="45.16177" lon="5.04942">
        <ele>270.9</ele>
        <time>2021-05-03T12:24:47Z</time>
      </trkpt>
      <trkpt lat="45.16179" lon="5.04949">
        <ele>271</ele>
        <time>2021-05-03T12:24:48Z</time>
      </trkpt>
      <trkpt lat="45.16181" lon="5.04956">
        <ele>271.1</ele>
        <time>2021-05-03T12:24:49Z</time>
      </trkpt>
      <trkpt lat="45.16182" lon="5.04962">
        <ele>271.1</ele>
        <time>2021-05-03T12:24:50Z</time>
      </trkpt>
      <trkpt lat="45.16184" lon="5.04968">
        <ele>271.2</ele>
        <time>2021-05-03T12:24:51Z</time>
      </trkpt>
      <trkpt lat="45.16187" lon="5.04976">
        <ele>271.3</ele>
        <time>2021-05-03T12:24:52Z</time>
      </trkpt>
      <trkpt lat="45.16189" lon="5.04983">
        <ele>271.3</ele>
        <time>2021-05-03T12:24:53Z</time>
      </trkpt>
      <trkpt lat="45.16191" lon="5.0499">
        <ele>271.4</ele>
        <time>2021-05-03T12:24:54Z</time>
      </trkpt>
      <trkpt lat="45.16193" lon="5.04997">
        <ele>271.5</ele>
        <time>2021-05-03T12:24:55Z</time>
      </trkpt>
      <trkpt lat="45.16195" lon="5.05003">
        <ele>271.6</ele>
        <time>2021-05-03T12:24:56Z</time>
      </trkpt>
      <trkpt lat="45.16196" lon="5.0501">
        <ele>271.7</ele>
        <time>2021-05-03T12:24:57Z</time>
      </trkpt>
      <trkpt lat="45.16198" lon="5.05016">
        <ele>271.8</ele>
        <time>2021-05-03T12:24:58Z</time>
      </trkpt>
      <trkpt lat="45.162" lon="5.05022">
        <ele>271.9</ele>
        <time>2021-05-03T12:24:59Z</time>
      </trkpt>
      <trkpt lat="45.16202" lon="5.05028">
        <ele>271.9</ele>
        <time>2021-05-03T12:25:00Z</time>
      </trkpt>
      <trkpt lat="45.16204" lon="5.05034">
        <ele>272</ele>
        <time>2021-05-03T12:25:01Z</time>
      </trkpt>
      <trkpt lat="45.16206" lon="5.05041">
        <ele>272.1</ele>
        <time>2021-05-03T12:25:02Z</time>
      </trkpt>
      <trkpt lat="45.16208" lon="5.05047">
        <ele>272.2</ele>
        <time>2021-05-03T12:25:03Z</time>
      </trkpt>
      <trkpt lat="45.16209" lon="5.05054">
        <ele>272.3</ele>
        <time>2021-05-03T12:25:04Z</time>
      </trkpt>
      <trkpt lat="45.16211" lon="5.0506">
        <ele>272.4</ele>
        <time>2021-05-03T12:25:05Z</time>
      </trkpt>
      <trkpt lat="45.16213" lon="5.05066">
        <ele>272.5</ele>
        <time>2021-05-03T12:25:06Z</time>
      </trkpt>
      <trkpt lat="45.16215" lon="5.05073">
        <ele>272.5</ele>
        <time>2021-05-03T12:25:07Z</time>
      </trkpt>
      <trkpt lat="45.16218" lon="5.05079">
        <ele>272.6</ele>
        <time>2021-05-03T12:25:08Z</time>
      </trkpt>
      <trkpt lat="45.1622" lon="5.05085">
        <ele>272.7</ele>
        <time>2021-05-03T12:25:09Z</time>
      </trkpt>
      <trkpt lat="45.16222" lon="5.05092">
        <ele>272.8</ele>
        <time>2021-05-03T12:25:10Z</time>
      </trkpt>
      <trkpt lat="45.16224" lon="5.05098">
        <ele>272.8</ele>
        <time>2021-05-03T12:25:11Z</time>
      </trkpt>
      <trkpt lat="45.16225" lon="5.05104">
        <ele>272.9</ele>
        <time>2021-05-03T12:25:12Z</time>
      </trkpt>
      <trkpt lat="45.16227" lon="5.05109">
        <ele>273</ele>
        <time>2021-05-03T12:25:13Z</time>
      </trkpt>
      <trkpt lat="45.16229" lon="5.05115">
        <ele>273.1</ele>
        <time>2021-05-03T12:25:14Z</time>
      </trkpt>
      <trkpt lat="45.16231" lon="5.05121">
        <ele>273.1</ele>
        <time>2021-05-03T12:25:15Z</time>
      </trkpt>
      <trkpt lat="45.16233" lon="5.05127">
        <ele>273.2</ele>
        <time>2021-05-03T12:25:16Z</time>
      </trkpt>
      <trkpt lat="45.16235" lon="5.05133">
        <ele>273.3</ele>
        <time>2021-05-03T12:25:17Z</time>
      </trkpt>
      <trkpt lat="45.16237" lon="5.05138">
        <ele>273.4</ele>
        <time>2021-05-03T12:25:18Z</time>
      </trkpt>
      <trkpt lat="45.16239" lon="5.05144">
        <ele>273.5</ele>
        <time>2021-05-03T12:25:19Z</time>
      </trkpt>
      <trkpt lat="45.16241" lon="5.0515">
        <ele>273.6</ele>
        <time>2021-05-03T12:25:20Z</time>
      </trkpt>
      <trkpt lat="45.16243" lon="5.05155">
        <ele>273.7</ele>
        <time>2021-05-03T12:25:21Z</time>
      </trkpt>
      <trkpt lat="45.16246" lon="5.05161">
        <ele>273.8</ele>
        <time>2021-05-03T12:25:22Z</time>
      </trkpt>
      <trkpt lat="45.16247" lon="5.05164">
        <ele>273.8</ele>
        <time>2021-05-03T12:25:23Z</time>
      </trkpt>
      <trkpt lat="45.16249" lon="5.05169">
        <ele>273.9</ele>
        <time>2021-05-03T12:25:24Z</time>
      </trkpt>
      <trkpt lat="45.16252" lon="5.05175">
        <ele>274</ele>
        <time>2021-05-03T12:25:25Z</time>
      </trkpt>
      <trkpt lat="45.16254" lon="5.0518">
        <ele>274.1</ele>
        <time>2021-05-03T12:25:26Z</time>
      </trkpt>
      <trkpt lat="45.16256" lon="5.05185">
        <ele>274.2</ele>
        <time>2021-05-03T12:25:27Z</time>
      </trkpt>
      <trkpt lat="45.16259" lon="5.05191">
        <ele>274.2</ele>
        <time>2021-05-03T12:25:28Z</time>
      </trkpt>
      <trkpt lat="45.16261" lon="5.05195">
        <ele>274.3</ele>
        <time>2021-05-03T12:25:29Z</time>
      </trkpt>
      <trkpt lat="45.16266" lon="5.05207">
        <ele>274.5</ele>
        <time>2021-05-03T12:25:30Z</time>
      </trkpt>
      <trkpt lat="45.16269" lon="5.05213">
        <ele>274.6</ele>
        <time>2021-05-03T12:25:32Z</time>
      </trkpt>
      <trkpt lat="45.16272" lon="5.05219">
        <ele>274.8</ele>
        <time>2021-05-03T12:25:33Z</time>
      </trkpt>
      <trkpt lat="45.16275" lon="5.05225">
        <ele>274.9</ele>
        <time>2021-05-03T12:25:34Z</time>
      </trkpt>
      <trkpt lat="45.16278" lon="5.0523">
        <ele>275</ele>
        <time>2021-05-03T12:25:35Z</time>
      </trkpt>
      <trkpt lat="45.16281" lon="5.05235">
        <ele>275.1</ele>
        <time>2021-05-03T12:25:36Z</time>
      </trkpt>
      <trkpt lat="45.16284" lon="5.0524">
        <ele>275.2</ele>
        <time>2021-05-03T12:25:37Z</time>
      </trkpt>
      <trkpt lat="45.16287" lon="5.05246">
        <ele>275.3</ele>
        <time>2021-05-03T12:25:38Z</time>
      </trkpt>
      <trkpt lat="45.1629" lon="5.05251">
        <ele>275.4</ele>
        <time>2021-05-03T12:25:39Z</time>
      </trkpt>
      <trkpt lat="45.16294" lon="5.05256">
        <ele>275.5</ele>
        <time>2021-05-03T12:25:40Z</time>
      </trkpt>
      <trkpt lat="45.16297" lon="5.05261">
        <ele>275.6</ele>
        <time>2021-05-03T12:25:41Z</time>
      </trkpt>
      <trkpt lat="45.163" lon="5.05266">
        <ele>275.7</ele>
        <time>2021-05-03T12:25:42Z</time>
      </trkpt>
      <trkpt lat="45.16303" lon="5.05271">
        <ele>275.8</ele>
        <time>2021-05-03T12:25:43Z</time>
      </trkpt>
      <trkpt lat="45.16306" lon="5.05276">
        <ele>275.9</ele>
        <time>2021-05-03T12:25:44Z</time>
      </trkpt>
      <trkpt lat="45.16309" lon="5.0528">
        <ele>275.9</ele>
        <time>2021-05-03T12:25:45Z</time>
      </trkpt>
      <trkpt lat="45.16312" lon="5.05285">
        <ele>276</ele>
        <time>2021-05-03T12:25:46Z</time>
      </trkpt>
      <trkpt lat="45.16315" lon="5.0529">
        <ele>276.1</ele>
        <time>2021-05-03T12:25:47Z</time>
      </trkpt>
      <trkpt lat="45.16318" lon="5.05295">
        <ele>276.2</ele>
        <time>2021-05-03T12:25:48Z</time>
      </trkpt>
      <trkpt lat="45.1632" lon="5.05298">
        <ele>276.3</ele>
        <time>2021-05-03T12:25:49Z</time>
      </trkpt>
      <trkpt lat="45.16323" lon="5.05302">
        <ele>276.4</ele>
        <time>2021-05-03T12:25:50Z</time>
      </trkpt>
      <trkpt lat="45.16326" lon="5.05306">
        <ele>276.5</ele>
        <time>2021-05-03T12:25:51Z</time>
      </trkpt>
      <trkpt lat="45.16328" lon="5.05311">
        <ele>276.6</ele>
        <time>2021-05-03T12:25:52Z</time>
      </trkpt>
      <trkpt lat="45.16331" lon="5.05316">
        <ele>276.7</ele>
        <time>2021-05-03T12:25:53Z</time>
      </trkpt>
      <trkpt lat="45.16337" lon="5.05319">
        <ele>276.9</ele>
        <time>2021-05-03T12:25:54Z</time>
      </trkpt>
      <trkpt lat="45.16339" lon="5.05319">
        <ele>276.9</ele>
        <time>2021-05-03T12:25:55Z</time>
      </trkpt>
      <trkpt lat="45.16343" lon="5.05328">
        <ele>277.1</ele>
        <time>2021-05-03T12:25:56Z</time>
      </trkpt>
      <trkpt lat="45.16346" lon="5.05335">
        <ele>277.3</ele>
        <time>2021-05-03T12:25:57Z</time>
      </trkpt>
      <trkpt lat="45.16349" lon="5.05343">
        <ele>277.4</ele>
        <time>2021-05-03T12:25:59Z</time>
      </trkpt>
      <trkpt lat="45.16351" lon="5.05349">
        <ele>277.6</ele>
        <time>2021-05-03T12:26:00Z</time>
      </trkpt>
      <trkpt lat="45.16354" lon="5.05354">
        <ele>277.7</ele>
        <time>2021-05-03T12:26:01Z</time>
      </trkpt>
      <trkpt lat="45.16357" lon="5.0536">
        <ele>277.8</ele>
        <time>2021-05-03T12:26:02Z</time>
      </trkpt>
      <trkpt lat="45.1636" lon="5.05366">
        <ele>277.9</ele>
        <time>2021-05-03T12:26:03Z</time>
      </trkpt>
      <trkpt lat="45.16364" lon="5.05373">
        <ele>278.1</ele>
        <time>2021-05-03T12:26:04Z</time>
      </trkpt>
      <trkpt lat="45.16369" lon="5.0538">
        <ele>278.3</ele>
        <time>2021-05-03T12:26:06Z</time>
      </trkpt>
      <trkpt lat="45.16372" lon="5.05385">
        <ele>278.5</ele>
        <time>2021-05-03T12:26:07Z</time>
      </trkpt>
      <trkpt lat="45.16375" lon="5.05393">
        <ele>278.6</ele>
        <time>2021-05-03T12:26:09Z</time>
      </trkpt>
      <trkpt lat="45.16378" lon="5.05399">
        <ele>278.8</ele>
        <time>2021-05-03T12:26:10Z</time>
      </trkpt>
      <trkpt lat="45.16382" lon="5.05408">
        <ele>279</ele>
        <time>2021-05-03T12:26:12Z</time>
      </trkpt>
      <trkpt lat="45.16387" lon="5.05416">
        <ele>279.2</ele>
        <time>2021-05-03T12:26:14Z</time>
      </trkpt>
      <trkpt lat="45.16391" lon="5.05423">
        <ele>279.4</ele>
        <time>2021-05-03T12:26:15Z</time>
      </trkpt>
      <trkpt lat="45.16395" lon="5.05432">
        <ele>279.6</ele>
        <time>2021-05-03T12:26:17Z</time>
      </trkpt>
      <trkpt lat="45.164" lon="5.0544">
        <ele>279.9</ele>
        <time>2021-05-03T12:26:19Z</time>
      </trkpt>
      <trkpt lat="45.16403" lon="5.05447">
        <ele>280</ele>
        <time>2021-05-03T12:26:20Z</time>
      </trkpt>
      <trkpt lat="45.16406" lon="5.05454">
        <ele>280.2</ele>
        <time>2021-05-03T12:26:21Z</time>
      </trkpt>
      <trkpt lat="45.1641" lon="5.0546">
        <ele>280.3</ele>
        <time>2021-05-03T12:26:23Z</time>
      </trkpt>
      <trkpt lat="45.16413" lon="5.05466">
        <ele>280.5</ele>
        <time>2021-05-03T12:26:24Z</time>
      </trkpt>
      <trkpt lat="45.16417" lon="5.05474">
        <ele>280.7</ele>
        <time>2021-05-03T12:26:25Z</time>
      </trkpt>
      <trkpt lat="45.16419" lon="5.05478">
        <ele>280.8</ele>
        <time>2021-05-03T12:26:27Z</time>
      </trkpt>
      <trkpt lat="45.16421" lon="5.05482">
        <ele>280.9</ele>
        <time>2021-05-03T12:26:28Z</time>
      </trkpt>
      <trkpt lat="45.16424" lon="5.05487">
        <ele>281</ele>
        <time>2021-05-03T12:26:29Z</time>
      </trkpt>
      <trkpt lat="45.1643" lon="5.05498">
        <ele>281.3</ele>
        <time>2021-05-03T12:26:31Z</time>
      </trkpt>
      <trkpt lat="45.16435" lon="5.05508">
        <ele>281.6</ele>
        <time>2021-05-03T12:26:33Z</time>
      </trkpt>
      <trkpt lat="45.1644" lon="5.05516">
        <ele>281.8</ele>
        <time>2021-05-03T12:26:35Z</time>
      </trkpt>
      <trkpt lat="45.16444" lon="5.05525">
        <ele>282</ele>
        <time>2021-05-03T12:26:37Z</time>
      </trkpt>
      <trkpt lat="45.1645" lon="5.05535">
        <ele>282.3</ele>
        <time>2021-05-03T12:26:39Z</time>
      </trkpt>
      <trkpt lat="45.16452" lon="5.05539">
        <ele>282.4</ele>
        <time>2021-05-03T12:26:40Z</time>
      </trkpt>
      <trkpt lat="45.16457" lon="5.05548">
        <ele>282.6</ele>
        <time>2021-05-03T12:26:42Z</time>
      </trkpt>
      <trkpt lat="45.16461" lon="5.05554">
        <ele>282.7</ele>
        <time>2021-05-03T12:26:43Z</time>
      </trkpt>
      <trkpt lat="45.16465" lon="5.05563">
        <ele>282.9</ele>
        <time>2021-05-03T12:26:45Z</time>
      </trkpt>
      <trkpt lat="45.16468" lon="5.05567">
        <ele>282.9</ele>
        <time>2021-05-03T12:26:46Z</time>
      </trkpt>
      <trkpt lat="45.1647" lon="5.05573">
        <ele>283</ele>
        <time>2021-05-03T12:26:47Z</time>
      </trkpt>
      <trkpt lat="45.16474" lon="5.0558">
        <ele>283.2</ele>
        <time>2021-05-03T12:26:48Z</time>
      </trkpt>
      <trkpt lat="45.16478" lon="5.05587">
        <ele>283.3</ele>
        <time>2021-05-03T12:26:50Z</time>
      </trkpt>
      <trkpt lat="45.16482" lon="5.05592">
        <ele>283.4</ele>
        <time>2021-05-03T12:26:51Z</time>
      </trkpt>
      <trkpt lat="45.16487" lon="5.05601">
        <ele>283.5</ele>
        <time>2021-05-03T12:26:53Z</time>
      </trkpt>
      <trkpt lat="45.16489" lon="5.05606">
        <ele>283.6</ele>
        <time>2021-05-03T12:26:54Z</time>
      </trkpt>
      <trkpt lat="45.16492" lon="5.05611">
        <ele>283.7</ele>
        <time>2021-05-03T12:26:55Z</time>
      </trkpt>
      <trkpt lat="45.16494" lon="5.05616">
        <ele>283.7</ele>
        <time>2021-05-03T12:26:56Z</time>
      </trkpt>
      <trkpt lat="45.16496" lon="5.05621">
        <ele>283.8</ele>
        <time>2021-05-03T12:26:57Z</time>
      </trkpt>
      <trkpt lat="45.16499" lon="5.05626">
        <ele>283.9</ele>
        <time>2021-05-03T12:26:58Z</time>
      </trkpt>
      <trkpt lat="45.16501" lon="5.05631">
        <ele>283.9</ele>
        <time>2021-05-03T12:26:59Z</time>
      </trkpt>
      <trkpt lat="45.16504" lon="5.05637">
        <ele>284</ele>
        <time>2021-05-03T12:27:00Z</time>
      </trkpt>
      <trkpt lat="45.16506" lon="5.05642">
        <ele>284.1</ele>
        <time>2021-05-03T12:27:01Z</time>
      </trkpt>
      <trkpt lat="45.16509" lon="5.05647">
        <ele>284.2</ele>
        <time>2021-05-03T12:27:02Z</time>
      </trkpt>
      <trkpt lat="45.1651" lon="5.05652">
        <ele>284.3</ele>
        <time>2021-05-03T12:27:03Z</time>
      </trkpt>
      <trkpt lat="45.16514" lon="5.05664">
        <ele>284.5</ele>
        <time>2021-05-03T12:27:05Z</time>
      </trkpt>
      <trkpt lat="45.16518" lon="5.0567">
        <ele>284.6</ele>
        <time>2021-05-03T12:27:06Z</time>
      </trkpt>
      <trkpt lat="45.16523" lon="5.05679">
        <ele>284.8</ele>
        <time>2021-05-03T12:27:08Z</time>
      </trkpt>
      <trkpt lat="45.16526" lon="5.05684">
        <ele>284.9</ele>
        <time>2021-05-03T12:27:09Z</time>
      </trkpt>
      <trkpt lat="45.16529" lon="5.0569">
        <ele>285.1</ele>
        <time>2021-05-03T12:27:10Z</time>
      </trkpt>
      <trkpt lat="45.16534" lon="5.05702">
        <ele>285.3</ele>
        <time>2021-05-03T12:27:12Z</time>
      </trkpt>
      <trkpt lat="45.16538" lon="5.05712">
        <ele>285.5</ele>
        <time>2021-05-03T12:27:14Z</time>
      </trkpt>
      <trkpt lat="45.16541" lon="5.05721">
        <ele>285.7</ele>
        <time>2021-05-03T12:27:16Z</time>
      </trkpt>
      <trkpt lat="45.16543" lon="5.05726">
        <ele>285.8</ele>
        <time>2021-05-03T12:27:17Z</time>
      </trkpt>
      <trkpt lat="45.16547" lon="5.05736">
        <ele>286</ele>
        <time>2021-05-03T12:27:19Z</time>
      </trkpt>
      <trkpt lat="45.1655" lon="5.05742">
        <ele>286.2</ele>
        <time>2021-05-03T12:27:20Z</time>
      </trkpt>
      <trkpt lat="45.16554" lon="5.05754">
        <ele>286.4</ele>
        <time>2021-05-03T12:27:22Z</time>
      </trkpt>
      <trkpt lat="45.16557" lon="5.05763">
        <ele>286.6</ele>
        <time>2021-05-03T12:27:24Z</time>
      </trkpt>
      <trkpt lat="45.16559" lon="5.05769">
        <ele>286.8</ele>
        <time>2021-05-03T12:27:25Z</time>
      </trkpt>
      <trkpt lat="45.16563" lon="5.05778">
        <ele>287</ele>
        <time>2021-05-03T12:27:27Z</time>
      </trkpt>
      <trkpt lat="45.16565" lon="5.05784">
        <ele>287.1</ele>
        <time>2021-05-03T12:27:28Z</time>
      </trkpt>
      <trkpt lat="45.16569" lon="5.05794">
        <ele>287.3</ele>
        <time>2021-05-03T12:27:30Z</time>
      </trkpt>
      <trkpt lat="45.16571" lon="5.05799">
        <ele>287.4</ele>
        <time>2021-05-03T12:27:31Z</time>
      </trkpt>
      <trkpt lat="45.16574" lon="5.05807">
        <ele>287.6</ele>
        <time>2021-05-03T12:27:32Z</time>
      </trkpt>
      <trkpt lat="45.16576" lon="5.05812">
        <ele>287.8</ele>
        <time>2021-05-03T12:27:34Z</time>
      </trkpt>
      <trkpt lat="45.16578" lon="5.05818">
        <ele>287.9</ele>
        <time>2021-05-03T12:27:35Z</time>
      </trkpt>
      <trkpt lat="45.16581" lon="5.05825">
        <ele>288.1</ele>
        <time>2021-05-03T12:27:36Z</time>
      </trkpt>
      <trkpt lat="45.16584" lon="5.05835">
        <ele>288.3</ele>
        <time>2021-05-03T12:27:37Z</time>
      </trkpt>
      <trkpt lat="45.16585" lon="5.0584">
        <ele>288.5</ele>
        <time>2021-05-03T12:27:39Z</time>
      </trkpt>
      <trkpt lat="45.16588" lon="5.05846">
        <ele>288.6</ele>
        <time>2021-05-03T12:27:40Z</time>
      </trkpt>
      <trkpt lat="45.16592" lon="5.05856">
        <ele>288.9</ele>
        <time>2021-05-03T12:27:42Z</time>
      </trkpt>
      <trkpt lat="45.16596" lon="5.05866">
        <ele>289.2</ele>
        <time>2021-05-03T12:27:44Z</time>
      </trkpt>
      <trkpt lat="45.16599" lon="5.05874">
        <ele>289.4</ele>
        <time>2021-05-03T12:27:46Z</time>
      </trkpt>
      <trkpt lat="45.16601" lon="5.05878">
        <ele>289.5</ele>
        <time>2021-05-03T12:27:47Z</time>
      </trkpt>
      <trkpt lat="45.16603" lon="5.05885">
        <ele>289.6</ele>
        <time>2021-05-03T12:27:48Z</time>
      </trkpt>
      <trkpt lat="45.16606" lon="5.05894">
        <ele>289.9</ele>
        <time>2021-05-03T12:27:50Z</time>
      </trkpt>
      <trkpt lat="45.16607" lon="5.05898">
        <ele>290</ele>
        <time>2021-05-03T12:27:51Z</time>
      </trkpt>
      <trkpt lat="45.1661" lon="5.05904">
        <ele>290.1</ele>
        <time>2021-05-03T12:27:52Z</time>
      </trkpt>
      <trkpt lat="45.16612" lon="5.0591">
        <ele>290.3</ele>
        <time>2021-05-03T12:27:53Z</time>
      </trkpt>
      <trkpt lat="45.16614" lon="5.05917">
        <ele>290.4</ele>
        <time>2021-05-03T12:27:55Z</time>
      </trkpt>
      <trkpt lat="45.16617" lon="5.05926">
        <ele>290.7</ele>
        <time>2021-05-03T12:27:57Z</time>
      </trkpt>
      <trkpt lat="45.16619" lon="5.05931">
        <ele>290.8</ele>
        <time>2021-05-03T12:27:58Z</time>
      </trkpt>
      <trkpt lat="45.16622" lon="5.05939">
        <ele>291</ele>
        <time>2021-05-03T12:27:59Z</time>
      </trkpt>
      <trkpt lat="45.16624" lon="5.05945">
        <ele>291.1</ele>
        <time>2021-05-03T12:28:01Z</time>
      </trkpt>
      <trkpt lat="45.16626" lon="5.0595">
        <ele>291.2</ele>
        <time>2021-05-03T12:28:02Z</time>
      </trkpt>
      <trkpt lat="45.16628" lon="5.05955">
        <ele>291.3</ele>
        <time>2021-05-03T12:28:03Z</time>
      </trkpt>
      <trkpt lat="45.16631" lon="5.05962">
        <ele>291.3</ele>
        <time>2021-05-03T12:28:04Z</time>
      </trkpt>
      <trkpt lat="45.16633" lon="5.05967">
        <ele>291.4</ele>
        <time>2021-05-03T12:28:06Z</time>
      </trkpt>
      <trkpt lat="45.16637" lon="5.05977">
        <ele>291.5</ele>
        <time>2021-05-03T12:28:08Z</time>
      </trkpt>
      <trkpt lat="45.16641" lon="5.05986">
        <ele>291.6</ele>
        <time>2021-05-03T12:28:09Z</time>
      </trkpt>
      <trkpt lat="45.16643" lon="5.05992">
        <ele>291.6</ele>
        <time>2021-05-03T12:28:11Z</time>
      </trkpt>
      <trkpt lat="45.16645" lon="5.06001">
        <ele>291.7</ele>
        <time>2021-05-03T12:28:12Z</time>
      </trkpt>
      <trkpt lat="45.16648" lon="5.06007">
        <ele>291.8</ele>
        <time>2021-05-03T12:28:14Z</time>
      </trkpt>
      <trkpt lat="45.1665" lon="5.06013">
        <ele>291.8</ele>
        <time>2021-05-03T12:28:15Z</time>
      </trkpt>
      <trkpt lat="45.16654" lon="5.06022">
        <ele>291.9</ele>
        <time>2021-05-03T12:28:17Z</time>
      </trkpt>
      <trkpt lat="45.16657" lon="5.06032">
        <ele>292</ele>
        <time>2021-05-03T12:28:19Z</time>
      </trkpt>
      <trkpt lat="45.16658" lon="5.06039">
        <ele>292.1</ele>
        <time>2021-05-03T12:28:20Z</time>
      </trkpt>
      <trkpt lat="45.1666" lon="5.06048">
        <ele>292.1</ele>
        <time>2021-05-03T12:28:21Z</time>
      </trkpt>
      <trkpt lat="45.16663" lon="5.06056">
        <ele>292.1</ele>
        <time>2021-05-03T12:28:23Z</time>
      </trkpt>
      <trkpt lat="45.16664" lon="5.06063">
        <ele>292</ele>
        <time>2021-05-03T12:28:24Z</time>
      </trkpt>
      <trkpt lat="45.16665" lon="5.06069">
        <ele>291.9</ele>
        <time>2021-05-03T12:28:25Z</time>
      </trkpt>
      <trkpt lat="45.16667" lon="5.06076">
        <ele>291.8</ele>
        <time>2021-05-03T12:28:26Z</time>
      </trkpt>
      <trkpt lat="45.16669" lon="5.06084">
        <ele>291.7</ele>
        <time>2021-05-03T12:28:27Z</time>
      </trkpt>
      <trkpt lat="45.16671" lon="5.06092">
        <ele>291.6</ele>
        <time>2021-05-03T12:28:28Z</time>
      </trkpt>
      <trkpt lat="45.16672" lon="5.06099">
        <ele>291.4</ele>
        <time>2021-05-03T12:28:29Z</time>
      </trkpt>
      <trkpt lat="45.16674" lon="5.06107">
        <ele>291.3</ele>
        <time>2021-05-03T12:28:30Z</time>
      </trkpt>
      <trkpt lat="45.16676" lon="5.06115">
        <ele>291.1</ele>
        <time>2021-05-03T12:28:31Z</time>
      </trkpt>
      <trkpt lat="45.16677" lon="5.06123">
        <ele>291</ele>
        <time>2021-05-03T12:28:32Z</time>
      </trkpt>
      <trkpt lat="45.16679" lon="5.06131">
        <ele>290.8</ele>
        <time>2021-05-03T12:28:33Z</time>
      </trkpt>
      <trkpt lat="45.1668" lon="5.06139">
        <ele>290.7</ele>
        <time>2021-05-03T12:28:34Z</time>
      </trkpt>
      <trkpt lat="45.16682" lon="5.06147">
        <ele>290.6</ele>
        <time>2021-05-03T12:28:35Z</time>
      </trkpt>
      <trkpt lat="45.16683" lon="5.06156">
        <ele>290.4</ele>
        <time>2021-05-03T12:28:36Z</time>
      </trkpt>
      <trkpt lat="45.16685" lon="5.06165">
        <ele>290.3</ele>
        <time>2021-05-03T12:28:37Z</time>
      </trkpt>
      <trkpt lat="45.16686" lon="5.06174">
        <ele>290.1</ele>
        <time>2021-05-03T12:28:38Z</time>
      </trkpt>
      <trkpt lat="45.16688" lon="5.06182">
        <ele>290</ele>
        <time>2021-05-03T12:28:39Z</time>
      </trkpt>
      <trkpt lat="45.1669" lon="5.06191">
        <ele>289.8</ele>
        <time>2021-05-03T12:28:40Z</time>
      </trkpt>
      <trkpt lat="45.16692" lon="5.062">
        <ele>289.7</ele>
        <time>2021-05-03T12:28:41Z</time>
      </trkpt>
      <trkpt lat="45.16693" lon="5.06209">
        <ele>289.5</ele>
        <time>2021-05-03T12:28:42Z</time>
      </trkpt>
      <trkpt lat="45.16695" lon="5.06217">
        <ele>289.4</ele>
        <time>2021-05-03T12:28:43Z</time>
      </trkpt>
      <trkpt lat="45.16697" lon="5.06227">
        <ele>289.2</ele>
        <time>2021-05-03T12:28:44Z</time>
      </trkpt>
      <trkpt lat="45.167" lon="5.06236">
        <ele>289.1</ele>
        <time>2021-05-03T12:28:45Z</time>
      </trkpt>
      <trkpt lat="45.16701" lon="5.06245">
        <ele>288.9</ele>
        <time>2021-05-03T12:28:46Z</time>
      </trkpt>
      <trkpt lat="45.16703" lon="5.06254">
        <ele>288.7</ele>
        <time>2021-05-03T12:28:47Z</time>
      </trkpt>
      <trkpt lat="45.16705" lon="5.06263">
        <ele>288.6</ele>
        <time>2021-05-03T12:28:48Z</time>
      </trkpt>
      <trkpt lat="45.16706" lon="5.06272">
        <ele>288.5</ele>
        <time>2021-05-03T12:28:49Z</time>
      </trkpt>
      <trkpt lat="45.16708" lon="5.06281">
        <ele>288.4</ele>
        <time>2021-05-03T12:28:50Z</time>
      </trkpt>
      <trkpt lat="45.1671" lon="5.0629">
        <ele>288.3</ele>
        <time>2021-05-03T12:28:51Z</time>
      </trkpt>
      <trkpt lat="45.16712" lon="5.06299">
        <ele>288.2</ele>
        <time>2021-05-03T12:28:52Z</time>
      </trkpt>
      <trkpt lat="45.16714" lon="5.06308">
        <ele>288</ele>
        <time>2021-05-03T12:28:53Z</time>
      </trkpt>
      <trkpt lat="45.16716" lon="5.06318">
        <ele>288</ele>
        <time>2021-05-03T12:28:54Z</time>
      </trkpt>
      <trkpt lat="45.16718" lon="5.06327">
        <ele>287.9</ele>
        <time>2021-05-03T12:28:55Z</time>
      </trkpt>
      <trkpt lat="45.1672" lon="5.06335">
        <ele>287.8</ele>
        <time>2021-05-03T12:28:56Z</time>
      </trkpt>
      <trkpt lat="45.16722" lon="5.06344">
        <ele>287.7</ele>
        <time>2021-05-03T12:28:57Z</time>
      </trkpt>
      <trkpt lat="45.16724" lon="5.06354">
        <ele>287.6</ele>
        <time>2021-05-03T12:28:58Z</time>
      </trkpt>
      <trkpt lat="45.16726" lon="5.06363">
        <ele>287.6</ele>
        <time>2021-05-03T12:28:59Z</time>
      </trkpt>
      <trkpt lat="45.16728" lon="5.06372">
        <ele>287.5</ele>
        <time>2021-05-03T12:29:00Z</time>
      </trkpt>
      <trkpt lat="45.1673" lon="5.0638">
        <ele>287.4</ele>
        <time>2021-05-03T12:29:01Z</time>
      </trkpt>
      <trkpt lat="45.16732" lon="5.06389">
        <ele>287.4</ele>
        <time>2021-05-03T12:29:02Z</time>
      </trkpt>
      <trkpt lat="45.16733" lon="5.06397">
        <ele>287.4</ele>
        <time>2021-05-03T12:29:03Z</time>
      </trkpt>
      <trkpt lat="45.16735" lon="5.06406">
        <ele>287.3</ele>
        <time>2021-05-03T12:29:04Z</time>
      </trkpt>
      <trkpt lat="45.16736" lon="5.06414">
        <ele>287.3</ele>
        <time>2021-05-03T12:29:05Z</time>
      </trkpt>
      <trkpt lat="45.16738" lon="5.06423">
        <ele>287.3</ele>
        <time>2021-05-03T12:29:06Z</time>
      </trkpt>
      <trkpt lat="45.16739" lon="5.06431">
        <ele>287.2</ele>
        <time>2021-05-03T12:29:07Z</time>
      </trkpt>
      <trkpt lat="45.16741" lon="5.06439">
        <ele>287.2</ele>
        <time>2021-05-03T12:29:08Z</time>
      </trkpt>
      <trkpt lat="45.16743" lon="5.06447">
        <ele>287.1</ele>
        <time>2021-05-03T12:29:09Z</time>
      </trkpt>
      <trkpt lat="45.16744" lon="5.06454">
        <ele>287.1</ele>
        <time>2021-05-03T12:29:10Z</time>
      </trkpt>
      <trkpt lat="45.16746" lon="5.06462">
        <ele>287</ele>
        <time>2021-05-03T12:29:11Z</time>
      </trkpt>
      <trkpt lat="45.16748" lon="5.06469">
        <ele>287</ele>
        <time>2021-05-03T12:29:12Z</time>
      </trkpt>
      <trkpt lat="45.16751" lon="5.06475">
        <ele>286.9</ele>
        <time>2021-05-03T12:29:13Z</time>
      </trkpt>
      <trkpt lat="45.16753" lon="5.06482">
        <ele>286.9</ele>
        <time>2021-05-03T12:29:14Z</time>
      </trkpt>
      <trkpt lat="45.16756" lon="5.06488">
        <ele>286.9</ele>
        <time>2021-05-03T12:29:15Z</time>
      </trkpt>
      <trkpt lat="45.16759" lon="5.06495">
        <ele>286.9</ele>
        <time>2021-05-03T12:29:16Z</time>
      </trkpt>
      <trkpt lat="45.16761" lon="5.06501">
        <ele>286.9</ele>
        <time>2021-05-03T12:29:17Z</time>
      </trkpt>
      <trkpt lat="45.16764" lon="5.06507">
        <ele>286.9</ele>
        <time>2021-05-03T12:29:18Z</time>
      </trkpt>
      <trkpt lat="45.16768" lon="5.06513">
        <ele>286.9</ele>
        <time>2021-05-03T12:29:19Z</time>
      </trkpt>
      <trkpt lat="45.16771" lon="5.06518">
        <ele>286.9</ele>
        <time>2021-05-03T12:29:20Z</time>
      </trkpt>
      <trkpt lat="45.16774" lon="5.06523">
        <ele>286.9</ele>
        <time>2021-05-03T12:29:21Z</time>
      </trkpt>
      <trkpt lat="45.16777" lon="5.06528">
        <ele>286.9</ele>
        <time>2021-05-03T12:29:22Z</time>
      </trkpt>
      <trkpt lat="45.16779" lon="5.06532">
        <ele>287</ele>
        <time>2021-05-03T12:29:23Z</time>
      </trkpt>
      <trkpt lat="45.16779" lon="5.06532">
        <ele>287</ele>
        <time>2021-05-03T12:29:24Z</time>
      </trkpt>
      <trkpt lat="45.16779" lon="5.06534">
        <ele>287</ele>
        <time>2021-05-03T12:29:25Z</time>
      </trkpt>
      <trkpt lat="45.16779" lon="5.06534">
        <ele>287</ele>
        <time>2021-05-03T12:29:26Z</time>
      </trkpt>
      <trkpt lat="45.1678" lon="5.06535">
        <ele>287</ele>
        <time>2021-05-03T12:29:27Z</time>
      </trkpt>
      <trkpt lat="45.1678" lon="5.06535">
        <ele>287</ele>
        <time>2021-05-03T12:29:28Z</time>
      </trkpt>
      <trkpt lat="45.16781" lon="5.06536">
        <ele>287</ele>
        <time>2021-05-03T12:29:29Z</time>
      </trkpt>
      <trkpt lat="45.16781" lon="5.06536">
        <ele>287</ele>
        <time>2021-05-03T12:29:30Z</time>
      </trkpt>
      <trkpt lat="45.16781" lon="5.06537">
        <ele>287</ele>
        <time>2021-05-03T12:29:32Z</time>
      </trkpt>
      <trkpt lat="45.16782" lon="5.06537">
        <ele>287</ele>
        <time>2021-05-03T12:29:33Z</time>
      </trkpt>
      <trkpt lat="45.16782" lon="5.06538">
        <ele>287</ele>
        <time>2021-05-03T12:29:34Z</time>
      </trkpt>
      <trkpt lat="45.16783" lon="5.06538">
        <ele>287</ele>
        <time>2021-05-03T12:29:35Z</time>
      </trkpt>
      <trkpt lat="45.16783" lon="5.06539">
        <ele>287</ele>
        <time>2021-05-03T12:29:36Z</time>
      </trkpt>
      <trkpt lat="45.16783" lon="5.06539">
        <ele>287</ele>
        <time>2021-05-03T12:29:37Z</time>
      </trkpt>
      <trkpt lat="45.16784" lon="5.0654">
        <ele>287</ele>
        <time>2021-05-03T12:29:38Z</time>
      </trkpt>
      <trkpt lat="45.16784" lon="5.0654">
        <ele>287</ele>
        <time>2021-05-03T12:29:40Z</time>
      </trkpt>
      <trkpt lat="45.16785" lon="5.06541">
        <ele>287</ele>
        <time>2021-05-03T12:30:58Z</time>
      </trkpt>
      <trkpt lat="45.16785" lon="5.06541">
        <ele>287</ele>
        <time>2021-05-03T12:30:59Z</time>
      </trkpt>
      <trkpt lat="45.16789" lon="5.06542">
        <ele>287</ele>
        <time>2021-05-03T12:31:00Z</time>
      </trkpt>
      <trkpt lat="45.16794" lon="5.06545">
        <ele>287</ele>
        <time>2021-05-03T12:31:02Z</time>
      </trkpt>
      <trkpt lat="45.16797" lon="5.06548">
        <ele>287</ele>
        <time>2021-05-03T12:31:03Z</time>
      </trkpt>
      <trkpt lat="45.16801" lon="5.06553">
        <ele>287</ele>
        <time>2021-05-03T12:31:04Z</time>
      </trkpt>
      <trkpt lat="45.16806" lon="5.0656">
        <ele>287</ele>
        <time>2021-05-03T12:31:06Z</time>
      </trkpt>
      <trkpt lat="45.1681" lon="5.06564">
        <ele>287</ele>
        <time>2021-05-03T12:31:07Z</time>
      </trkpt>
      <trkpt lat="45.16816" lon="5.0657">
        <ele>287</ele>
        <time>2021-05-03T12:31:09Z</time>
      </trkpt>
      <trkpt lat="45.1682" lon="5.06576">
        <ele>287</ele>
        <time>2021-05-03T12:31:10Z</time>
      </trkpt>
      <trkpt lat="45.16827" lon="5.06583">
        <ele>287</ele>
        <time>2021-05-03T12:31:12Z</time>
      </trkpt>
      <trkpt lat="45.1683" lon="5.06587">
        <ele>287</ele>
        <time>2021-05-03T12:31:13Z</time>
      </trkpt>
      <trkpt lat="45.16834" lon="5.06591">
        <ele>287</ele>
        <time>2021-05-03T12:31:14Z</time>
      </trkpt>
      <trkpt lat="45.16838" lon="5.06595">
        <ele>287</ele>
        <time>2021-05-03T12:31:15Z</time>
      </trkpt>
      <trkpt lat="45.16842" lon="5.06598">
        <ele>287.1</ele>
        <time>2021-05-03T12:31:16Z</time>
      </trkpt>
      <trkpt lat="45.16846" lon="5.06603">
        <ele>287.1</ele>
        <time>2021-05-03T12:31:17Z</time>
      </trkpt>
      <trkpt lat="45.1685" lon="5.06606">
        <ele>287.1</ele>
        <time>2021-05-03T12:31:18Z</time>
      </trkpt>
      <trkpt lat="45.16854" lon="5.0661">
        <ele>287.1</ele>
        <time>2021-05-03T12:31:19Z</time>
      </trkpt>
      <trkpt lat="45.16858" lon="5.06614">
        <ele>287.1</ele>
        <time>2021-05-03T12:31:20Z</time>
      </trkpt>
      <trkpt lat="45.16862" lon="5.06618">
        <ele>287.1</ele>
        <time>2021-05-03T12:31:21Z</time>
      </trkpt>
      <trkpt lat="45.16866" lon="5.06622">
        <ele>287.1</ele>
        <time>2021-05-03T12:31:22Z</time>
      </trkpt>
      <trkpt lat="45.1687" lon="5.06627">
        <ele>287.2</ele>
        <time>2021-05-03T12:31:23Z</time>
      </trkpt>
      <trkpt lat="45.16874" lon="5.0663">
        <ele>287.2</ele>
        <time>2021-05-03T12:31:24Z</time>
      </trkpt>
      <trkpt lat="45.16877" lon="5.06634">
        <ele>287.2</ele>
        <time>2021-05-03T12:31:25Z</time>
      </trkpt>
      <trkpt lat="45.16881" lon="5.06638">
        <ele>287.2</ele>
        <time>2021-05-03T12:31:26Z</time>
      </trkpt>
      <trkpt lat="45.16885" lon="5.06642">
        <ele>287.2</ele>
        <time>2021-05-03T12:31:27Z</time>
      </trkpt>
      <trkpt lat="45.16889" lon="5.06646">
        <ele>287.2</ele>
        <time>2021-05-03T12:31:28Z</time>
      </trkpt>
      <trkpt lat="45.16893" lon="5.06651">
        <ele>287.2</ele>
        <time>2021-05-03T12:31:29Z</time>
      </trkpt>
      <trkpt lat="45.16896" lon="5.06654">
        <ele>287.3</ele>
        <time>2021-05-03T12:31:30Z</time>
      </trkpt>
      <trkpt lat="45.169" lon="5.06658">
        <ele>287.3</ele>
        <time>2021-05-03T12:31:31Z</time>
      </trkpt>
      <trkpt lat="45.16904" lon="5.06662">
        <ele>287.3</ele>
        <time>2021-05-03T12:31:32Z</time>
      </trkpt>
      <trkpt lat="45.16908" lon="5.06666">
        <ele>287.3</ele>
        <time>2021-05-03T12:31:33Z</time>
      </trkpt>
      <trkpt lat="45.16912" lon="5.0667">
        <ele>287.3</ele>
        <time>2021-05-03T12:31:34Z</time>
      </trkpt>
      <trkpt lat="45.16916" lon="5.06674">
        <ele>287.4</ele>
        <time>2021-05-03T12:31:35Z</time>
      </trkpt>
      <trkpt lat="45.1692" lon="5.06679">
        <ele>287.4</ele>
        <time>2021-05-03T12:31:36Z</time>
      </trkpt>
      <trkpt lat="45.16924" lon="5.06682">
        <ele>287.4</ele>
        <time>2021-05-03T12:31:37Z</time>
      </trkpt>
      <trkpt lat="45.16929" lon="5.06686">
        <ele>287.5</ele>
        <time>2021-05-03T12:31:38Z</time>
      </trkpt>
      <trkpt lat="45.16933" lon="5.0669">
        <ele>287.5</ele>
        <time>2021-05-03T12:31:39Z</time>
      </trkpt>
      <trkpt lat="45.16936" lon="5.06694">
        <ele>287.5</ele>
        <time>2021-05-03T12:31:40Z</time>
      </trkpt>
      <trkpt lat="45.1694" lon="5.06698">
        <ele>287.6</ele>
        <time>2021-05-03T12:31:41Z</time>
      </trkpt>
      <trkpt lat="45.16944" lon="5.06702">
        <ele>287.6</ele>
        <time>2021-05-03T12:31:42Z</time>
      </trkpt>
      <trkpt lat="45.16947" lon="5.06706">
        <ele>287.6</ele>
        <time>2021-05-03T12:31:43Z</time>
      </trkpt>
      <trkpt lat="45.16951" lon="5.0671">
        <ele>287.7</ele>
        <time>2021-05-03T12:31:44Z</time>
      </trkpt>
      <trkpt lat="45.16955" lon="5.06715">
        <ele>287.7</ele>
        <time>2021-05-03T12:31:45Z</time>
      </trkpt>
      <trkpt lat="45.16959" lon="5.06719">
        <ele>287.8</ele>
        <time>2021-05-03T12:31:46Z</time>
      </trkpt>
      <trkpt lat="45.16963" lon="5.06723">
        <ele>287.8</ele>
        <time>2021-05-03T12:31:47Z</time>
      </trkpt>
      <trkpt lat="45.16967" lon="5.06727">
        <ele>287.9</ele>
        <time>2021-05-03T12:31:48Z</time>
      </trkpt>
      <trkpt lat="45.16971" lon="5.06731">
        <ele>287.9</ele>
        <time>2021-05-03T12:31:49Z</time>
      </trkpt>
      <trkpt lat="45.16975" lon="5.06735">
        <ele>288</ele>
        <time>2021-05-03T12:31:50Z</time>
      </trkpt>
      <trkpt lat="45.16979" lon="5.06739">
        <ele>288</ele>
        <time>2021-05-03T12:31:51Z</time>
      </trkpt>
      <trkpt lat="45.16983" lon="5.06743">
        <ele>288.1</ele>
        <time>2021-05-03T12:31:52Z</time>
      </trkpt>
      <trkpt lat="45.16987" lon="5.06747">
        <ele>288.1</ele>
        <time>2021-05-03T12:31:53Z</time>
      </trkpt>
      <trkpt lat="45.16992" lon="5.06751">
        <ele>288.2</ele>
        <time>2021-05-03T12:31:54Z</time>
      </trkpt>
      <trkpt lat="45.16996" lon="5.06755">
        <ele>288.2</ele>
        <time>2021-05-03T12:31:55Z</time>
      </trkpt>
      <trkpt lat="45.16999" lon="5.06759">
        <ele>288.3</ele>
        <time>2021-05-03T12:31:56Z</time>
      </trkpt>
      <trkpt lat="45.17003" lon="5.06762">
        <ele>288.3</ele>
        <time>2021-05-03T12:31:57Z</time>
      </trkpt>
      <trkpt lat="45.17007" lon="5.06766">
        <ele>288.4</ele>
        <time>2021-05-03T12:31:58Z</time>
      </trkpt>
      <trkpt lat="45.17011" lon="5.0677">
        <ele>288.5</ele>
        <time>2021-05-03T12:31:59Z</time>
      </trkpt>
      <trkpt lat="45.17015" lon="5.06773">
        <ele>288.5</ele>
        <time>2021-05-03T12:32:00Z</time>
      </trkpt>
      <trkpt lat="45.17018" lon="5.06776">
        <ele>288.6</ele>
        <time>2021-05-03T12:32:01Z</time>
      </trkpt>
      <trkpt lat="45.17022" lon="5.0678">
        <ele>288.7</ele>
        <time>2021-05-03T12:32:02Z</time>
      </trkpt>
      <trkpt lat="45.17026" lon="5.06784">
        <ele>288.7</ele>
        <time>2021-05-03T12:32:03Z</time>
      </trkpt>
      <trkpt lat="45.1703" lon="5.06788">
        <ele>288.8</ele>
        <time>2021-05-03T12:32:04Z</time>
      </trkpt>
      <trkpt lat="45.17033" lon="5.06792">
        <ele>288.9</ele>
        <time>2021-05-03T12:32:05Z</time>
      </trkpt>
      <trkpt lat="45.17037" lon="5.06795">
        <ele>288.9</ele>
        <time>2021-05-03T12:32:06Z</time>
      </trkpt>
      <trkpt lat="45.17041" lon="5.06799">
        <ele>289</ele>
        <time>2021-05-03T12:32:07Z</time>
      </trkpt>
      <trkpt lat="45.17045" lon="5.06804">
        <ele>289.1</ele>
        <time>2021-05-03T12:32:08Z</time>
      </trkpt>
      <trkpt lat="45.17049" lon="5.06808">
        <ele>289.1</ele>
        <time>2021-05-03T12:32:09Z</time>
      </trkpt>
      <trkpt lat="45.17052" lon="5.0681">
        <ele>289.2</ele>
        <time>2021-05-03T12:32:10Z</time>
      </trkpt>
      <trkpt lat="45.17056" lon="5.06815">
        <ele>289.2</ele>
        <time>2021-05-03T12:32:11Z</time>
      </trkpt>
      <trkpt lat="45.17061" lon="5.06819">
        <ele>289.3</ele>
        <time>2021-05-03T12:32:12Z</time>
      </trkpt>
      <trkpt lat="45.17065" lon="5.06824">
        <ele>289.4</ele>
        <time>2021-05-03T12:32:13Z</time>
      </trkpt>
      <trkpt lat="45.17069" lon="5.06827">
        <ele>289.4</ele>
        <time>2021-05-03T12:32:14Z</time>
      </trkpt>
      <trkpt lat="45.17072" lon="5.06831">
        <ele>289.5</ele>
        <time>2021-05-03T12:32:15Z</time>
      </trkpt>
      <trkpt lat="45.17076" lon="5.06835">
        <ele>289.5</ele>
        <time>2021-05-03T12:32:16Z</time>
      </trkpt>
      <trkpt lat="45.1708" lon="5.06839">
        <ele>289.6</ele>
        <time>2021-05-03T12:32:17Z</time>
      </trkpt>
      <trkpt lat="45.17084" lon="5.06843">
        <ele>289.6</ele>
        <time>2021-05-03T12:32:18Z</time>
      </trkpt>
      <trkpt lat="45.17088" lon="5.06847">
        <ele>289.7</ele>
        <time>2021-05-03T12:32:19Z</time>
      </trkpt>
      <trkpt lat="45.17092" lon="5.06851">
        <ele>289.8</ele>
        <time>2021-05-03T12:32:20Z</time>
      </trkpt>
      <trkpt lat="45.17096" lon="5.06855">
        <ele>289.8</ele>
        <time>2021-05-03T12:32:21Z</time>
      </trkpt>
      <trkpt lat="45.171" lon="5.06859">
        <ele>289.9</ele>
        <time>2021-05-03T12:32:22Z</time>
      </trkpt>
      <trkpt lat="45.17104" lon="5.06863">
        <ele>290</ele>
        <time>2021-05-03T12:32:23Z</time>
      </trkpt>
      <trkpt lat="45.17108" lon="5.06867">
        <ele>290.1</ele>
        <time>2021-05-03T12:32:24Z</time>
      </trkpt>
      <trkpt lat="45.17112" lon="5.0687">
        <ele>290.1</ele>
        <time>2021-05-03T12:32:25Z</time>
      </trkpt>
      <trkpt lat="45.17116" lon="5.06873">
        <ele>290.2</ele>
        <time>2021-05-03T12:32:26Z</time>
      </trkpt>
      <trkpt lat="45.1712" lon="5.06877">
        <ele>290.3</ele>
        <time>2021-05-03T12:32:27Z</time>
      </trkpt>
      <trkpt lat="45.17123" lon="5.06881">
        <ele>290.4</ele>
        <time>2021-05-03T12:32:28Z</time>
      </trkpt>
      <trkpt lat="45.17127" lon="5.06885">
        <ele>290.4</ele>
        <time>2021-05-03T12:32:29Z</time>
      </trkpt>
      <trkpt lat="45.1713" lon="5.06889">
        <ele>290.5</ele>
        <time>2021-05-03T12:32:30Z</time>
      </trkpt>
      <trkpt lat="45.17134" lon="5.06893">
        <ele>290.5</ele>
        <time>2021-05-03T12:32:31Z</time>
      </trkpt>
      <trkpt lat="45.17138" lon="5.06896">
        <ele>290.6</ele>
        <time>2021-05-03T12:32:32Z</time>
      </trkpt>
      <trkpt lat="45.17142" lon="5.069">
        <ele>290.7</ele>
        <time>2021-05-03T12:32:33Z</time>
      </trkpt>
      <trkpt lat="45.17146" lon="5.06904">
        <ele>290.7</ele>
        <time>2021-05-03T12:32:34Z</time>
      </trkpt>
      <trkpt lat="45.1715" lon="5.06909">
        <ele>290.8</ele>
        <time>2021-05-03T12:32:35Z</time>
      </trkpt>
      <trkpt lat="45.17154" lon="5.06913">
        <ele>290.9</ele>
        <time>2021-05-03T12:32:36Z</time>
      </trkpt>
      <trkpt lat="45.17158" lon="5.06917">
        <ele>291</ele>
        <time>2021-05-03T12:32:37Z</time>
      </trkpt>
      <trkpt lat="45.17162" lon="5.0692">
        <ele>291</ele>
        <time>2021-05-03T12:32:38Z</time>
      </trkpt>
      <trkpt lat="45.17166" lon="5.06925">
        <ele>291.1</ele>
        <time>2021-05-03T12:32:39Z</time>
      </trkpt>
      <trkpt lat="45.1717" lon="5.06928">
        <ele>291.2</ele>
        <time>2021-05-03T12:32:40Z</time>
      </trkpt>
      <trkpt lat="45.17174" lon="5.06931">
        <ele>291.2</ele>
        <time>2021-05-03T12:32:41Z</time>
      </trkpt>
      <trkpt lat="45.17179" lon="5.06934">
        <ele>291.3</ele>
        <time>2021-05-03T12:32:42Z</time>
      </trkpt>
      <trkpt lat="45.17183" lon="5.06937">
        <ele>291.4</ele>
        <time>2021-05-03T12:32:43Z</time>
      </trkpt>
      <trkpt lat="45.17187" lon="5.0694">
        <ele>291.4</ele>
        <time>2021-05-03T12:32:44Z</time>
      </trkpt>
      <trkpt lat="45.17191" lon="5.06942">
        <ele>291.5</ele>
        <time>2021-05-03T12:32:45Z</time>
      </trkpt>
      <trkpt lat="45.17196" lon="5.06943">
        <ele>291.6</ele>
        <time>2021-05-03T12:32:46Z</time>
      </trkpt>
      <trkpt lat="45.172" lon="5.06944">
        <ele>291.7</ele>
        <time>2021-05-03T12:32:47Z</time>
      </trkpt>
      <trkpt lat="45.17204" lon="5.06945">
        <ele>291.8</ele>
        <time>2021-05-03T12:32:48Z</time>
      </trkpt>
      <trkpt lat="45.17206" lon="5.06946">
        <ele>291.8</ele>
        <time>2021-05-03T12:32:49Z</time>
      </trkpt>
      <trkpt lat="45.17211" lon="5.06947">
        <ele>291.9</ele>
        <time>2021-05-03T12:32:50Z</time>
      </trkpt>
      <trkpt lat="45.17215" lon="5.06947">
        <ele>292</ele>
        <time>2021-05-03T12:32:51Z</time>
      </trkpt>
      <trkpt lat="45.17219" lon="5.06948">
        <ele>292.1</ele>
        <time>2021-05-03T12:32:52Z</time>
      </trkpt>
      <trkpt lat="45.17223" lon="5.06949">
        <ele>292.3</ele>
        <time>2021-05-03T12:32:53Z</time>
      </trkpt>
      <trkpt lat="45.1723" lon="5.0695">
        <ele>292.4</ele>
        <time>2021-05-03T12:32:55Z</time>
      </trkpt>
      <trkpt lat="45.17235" lon="5.06951">
        <ele>292.6</ele>
        <time>2021-05-03T12:32:56Z</time>
      </trkpt>
      <trkpt lat="45.1724" lon="5.06951">
        <ele>292.7</ele>
        <time>2021-05-03T12:32:58Z</time>
      </trkpt>
      <trkpt lat="45.17246" lon="5.06953">
        <ele>292.9</ele>
        <time>2021-05-03T12:32:59Z</time>
      </trkpt>
      <trkpt lat="45.17252" lon="5.06957">
        <ele>293</ele>
        <time>2021-05-03T12:33:00Z</time>
      </trkpt>
      <trkpt lat="45.17256" lon="5.0696">
        <ele>293.1</ele>
        <time>2021-05-03T12:33:02Z</time>
      </trkpt>
      <trkpt lat="45.17261" lon="5.06962">
        <ele>293.3</ele>
        <time>2021-05-03T12:33:03Z</time>
      </trkpt>
      <trkpt lat="45.17268" lon="5.06967">
        <ele>293.4</ele>
        <time>2021-05-03T12:33:04Z</time>
      </trkpt>
      <trkpt lat="45.17273" lon="5.06971">
        <ele>293.6</ele>
        <time>2021-05-03T12:33:06Z</time>
      </trkpt>
      <trkpt lat="45.1728" lon="5.06977">
        <ele>293.8</ele>
        <time>2021-05-03T12:33:08Z</time>
      </trkpt>
      <trkpt lat="45.17283" lon="5.06979">
        <ele>293.8</ele>
        <time>2021-05-03T12:33:09Z</time>
      </trkpt>
      <trkpt lat="45.17289" lon="5.06982">
        <ele>294</ele>
        <time>2021-05-03T12:33:11Z</time>
      </trkpt>
      <trkpt lat="45.17293" lon="5.06984">
        <ele>294.1</ele>
        <time>2021-05-03T12:33:12Z</time>
      </trkpt>
      <trkpt lat="45.17298" lon="5.06986">
        <ele>294.2</ele>
        <time>2021-05-03T12:33:13Z</time>
      </trkpt>
      <trkpt lat="45.17301" lon="5.06988">
        <ele>294.2</ele>
        <time>2021-05-03T12:33:14Z</time>
      </trkpt>
      <trkpt lat="45.17305" lon="5.06989">
        <ele>294.3</ele>
        <time>2021-05-03T12:33:16Z</time>
      </trkpt>
      <trkpt lat="45.17309" lon="5.06992">
        <ele>294.4</ele>
        <time>2021-05-03T12:33:17Z</time>
      </trkpt>
      <trkpt lat="45.17314" lon="5.06996">
        <ele>294.4</ele>
        <time>2021-05-03T12:33:18Z</time>
      </trkpt>
      <trkpt lat="45.17318" lon="5.06999">
        <ele>294.5</ele>
        <time>2021-05-03T12:33:19Z</time>
      </trkpt>
      <trkpt lat="45.17323" lon="5.07001">
        <ele>294.5</ele>
        <time>2021-05-03T12:33:21Z</time>
      </trkpt>
      <trkpt lat="45.17331" lon="5.07003">
        <ele>294.5</ele>
        <time>2021-05-03T12:33:23Z</time>
      </trkpt>
      <trkpt lat="45.17338" lon="5.07005">
        <ele>294.4</ele>
        <time>2021-05-03T12:33:25Z</time>
      </trkpt>
      <trkpt lat="45.17347" lon="5.07007">
        <ele>294.5</ele>
        <time>2021-05-03T12:33:27Z</time>
      </trkpt>
      <trkpt lat="45.17356" lon="5.0701">
        <ele>294.5</ele>
        <time>2021-05-03T12:33:29Z</time>
      </trkpt>
      <trkpt lat="45.1736" lon="5.07011">
        <ele>294.6</ele>
        <time>2021-05-03T12:33:30Z</time>
      </trkpt>
      <trkpt lat="45.17362" lon="5.07011">
        <ele>294.6</ele>
        <time>2021-05-03T12:33:31Z</time>
      </trkpt>
      <trkpt lat="45.17367" lon="5.07012">
        <ele>294.6</ele>
        <time>2021-05-03T12:33:32Z</time>
      </trkpt>
      <trkpt lat="45.17376" lon="5.07014">
        <ele>294.8</ele>
        <time>2021-05-03T12:33:34Z</time>
      </trkpt>
      <trkpt lat="45.17381" lon="5.07014">
        <ele>294.9</ele>
        <time>2021-05-03T12:33:35Z</time>
      </trkpt>
      <trkpt lat="45.17387" lon="5.07017">
        <ele>295</ele>
        <time>2021-05-03T12:33:36Z</time>
      </trkpt>
      <trkpt lat="45.17391" lon="5.07022">
        <ele>295.2</ele>
        <time>2021-05-03T12:33:37Z</time>
      </trkpt>
      <trkpt lat="45.17395" lon="5.07024">
        <ele>295.3</ele>
        <time>2021-05-03T12:33:38Z</time>
      </trkpt>
      <trkpt lat="45.17399" lon="5.07027">
        <ele>295.4</ele>
        <time>2021-05-03T12:33:40Z</time>
      </trkpt>
      <trkpt lat="45.17402" lon="5.07029">
        <ele>295.4</ele>
        <time>2021-05-03T12:33:41Z</time>
      </trkpt>
      <trkpt lat="45.17409" lon="5.07034">
        <ele>295.6</ele>
        <time>2021-05-03T12:33:43Z</time>
      </trkpt>
      <trkpt lat="45.17412" lon="5.07037">
        <ele>295.7</ele>
        <time>2021-05-03T12:33:44Z</time>
      </trkpt>
      <trkpt lat="45.17416" lon="5.07041">
        <ele>295.8</ele>
        <time>2021-05-03T12:33:45Z</time>
      </trkpt>
      <trkpt lat="45.1742" lon="5.07044">
        <ele>295.9</ele>
        <time>2021-05-03T12:33:46Z</time>
      </trkpt>
      <trkpt lat="45.17427" lon="5.07049">
        <ele>296</ele>
        <time>2021-05-03T12:33:48Z</time>
      </trkpt>
      <trkpt lat="45.17431" lon="5.0705">
        <ele>296.1</ele>
        <time>2021-05-03T12:33:49Z</time>
      </trkpt>
      <trkpt lat="45.17436" lon="5.07052">
        <ele>296.2</ele>
        <time>2021-05-03T12:33:50Z</time>
      </trkpt>
      <trkpt lat="45.17442" lon="5.07055">
        <ele>296.4</ele>
        <time>2021-05-03T12:33:51Z</time>
      </trkpt>
      <trkpt lat="45.17445" lon="5.07057">
        <ele>296.5</ele>
        <time>2021-05-03T12:33:52Z</time>
      </trkpt>
      <trkpt lat="45.17449" lon="5.07059">
        <ele>296.5</ele>
        <time>2021-05-03T12:33:54Z</time>
      </trkpt>
      <trkpt lat="45.17452" lon="5.07061">
        <ele>296.6</ele>
        <time>2021-05-03T12:33:55Z</time>
      </trkpt>
      <trkpt lat="45.17457" lon="5.07064">
        <ele>296.6</ele>
        <time>2021-05-03T12:33:56Z</time>
      </trkpt>
      <trkpt lat="45.17463" lon="5.07067">
        <ele>296.7</ele>
        <time>2021-05-03T12:33:57Z</time>
      </trkpt>
      <trkpt lat="45.17467" lon="5.0707">
        <ele>296.7</ele>
        <time>2021-05-03T12:33:59Z</time>
      </trkpt>
      <trkpt lat="45.17472" lon="5.07074">
        <ele>296.8</ele>
        <time>2021-05-03T12:34:01Z</time>
      </trkpt>
      <trkpt lat="45.17476" lon="5.07079">
        <ele>296.9</ele>
        <time>2021-05-03T12:34:02Z</time>
      </trkpt>
      <trkpt lat="45.1748" lon="5.07085">
        <ele>296.9</ele>
        <time>2021-05-03T12:34:03Z</time>
      </trkpt>
      <trkpt lat="45.17483" lon="5.0709">
        <ele>296.9</ele>
        <time>2021-05-03T12:34:04Z</time>
      </trkpt>
      <trkpt lat="45.17485" lon="5.07095">
        <ele>297</ele>
        <time>2021-05-03T12:34:06Z</time>
      </trkpt>
      <trkpt lat="45.17491" lon="5.07104">
        <ele>297</ele>
        <time>2021-05-03T12:34:07Z</time>
      </trkpt>
      <trkpt lat="45.17493" lon="5.07108">
        <ele>297</ele>
        <time>2021-05-03T12:34:08Z</time>
      </trkpt>
      <trkpt lat="45.17498" lon="5.07114">
        <ele>297.1</ele>
        <time>2021-05-03T12:34:10Z</time>
      </trkpt>
      <trkpt lat="45.175" lon="5.07117">
        <ele>297.1</ele>
        <time>2021-05-03T12:34:11Z</time>
      </trkpt>
      <trkpt lat="45.17504" lon="5.07123">
        <ele>297.1</ele>
        <time>2021-05-03T12:34:12Z</time>
      </trkpt>
      <trkpt lat="45.17509" lon="5.07128">
        <ele>297.2</ele>
        <time>2021-05-03T12:34:13Z</time>
      </trkpt>
      <trkpt lat="45.17515" lon="5.07135">
        <ele>297.2</ele>
        <time>2021-05-03T12:34:15Z</time>
      </trkpt>
      <trkpt lat="45.17521" lon="5.07141">
        <ele>297.3</ele>
        <time>2021-05-03T12:34:17Z</time>
      </trkpt>
      <trkpt lat="45.17524" lon="5.07145">
        <ele>297.3</ele>
        <time>2021-05-03T12:34:18Z</time>
      </trkpt>
      <trkpt lat="45.17526" lon="5.0715">
        <ele>297.3</ele>
        <time>2021-05-03T12:34:19Z</time>
      </trkpt>
      <trkpt lat="45.17528" lon="5.07156">
        <ele>297.3</ele>
        <time>2021-05-03T12:34:20Z</time>
      </trkpt>
      <trkpt lat="45.17532" lon="5.07162">
        <ele>297.3</ele>
        <time>2021-05-03T12:34:21Z</time>
      </trkpt>
      <trkpt lat="45.17537" lon="5.07169">
        <ele>297.4</ele>
        <time>2021-05-03T12:34:23Z</time>
      </trkpt>
      <trkpt lat="45.17543" lon="5.07176">
        <ele>297.4</ele>
        <time>2021-05-03T12:34:24Z</time>
      </trkpt>
      <trkpt lat="45.17547" lon="5.07182">
        <ele>297.5</ele>
        <time>2021-05-03T12:34:26Z</time>
      </trkpt>
      <trkpt lat="45.1755" lon="5.07188">
        <ele>297.5</ele>
        <time>2021-05-03T12:34:27Z</time>
      </trkpt>
      <trkpt lat="45.17551" lon="5.07195">
        <ele>297.5</ele>
        <time>2021-05-03T12:34:28Z</time>
      </trkpt>
      <trkpt lat="45.17557" lon="5.07202">
        <ele>297.6</ele>
        <time>2021-05-03T12:34:30Z</time>
      </trkpt>
      <trkpt lat="45.17562" lon="5.07207">
        <ele>297.6</ele>
        <time>2021-05-03T12:34:31Z</time>
      </trkpt>
      <trkpt lat="45.17567" lon="5.07213">
        <ele>297.7</ele>
        <time>2021-05-03T12:34:32Z</time>
      </trkpt>
      <trkpt lat="45.17572" lon="5.0722">
        <ele>297.7</ele>
        <time>2021-05-03T12:34:34Z</time>
      </trkpt>
      <trkpt lat="45.17575" lon="5.07225">
        <ele>297.7</ele>
        <time>2021-05-03T12:34:35Z</time>
      </trkpt>
      <trkpt lat="45.17578" lon="5.0723">
        <ele>297.7</ele>
        <time>2021-05-03T12:34:36Z</time>
      </trkpt>
      <trkpt lat="45.17581" lon="5.07234">
        <ele>297.7</ele>
        <time>2021-05-03T12:34:37Z</time>
      </trkpt>
      <trkpt lat="45.17585" lon="5.07239">
        <ele>297.6</ele>
        <time>2021-05-03T12:34:38Z</time>
      </trkpt>
      <trkpt lat="45.17588" lon="5.07244">
        <ele>297.6</ele>
        <time>2021-05-03T12:34:39Z</time>
      </trkpt>
      <trkpt lat="45.17591" lon="5.07248">
        <ele>297.6</ele>
        <time>2021-05-03T12:34:40Z</time>
      </trkpt>
      <trkpt lat="45.17594" lon="5.07253">
        <ele>297.6</ele>
        <time>2021-05-03T12:34:41Z</time>
      </trkpt>
      <trkpt lat="45.17597" lon="5.07258">
        <ele>297.7</ele>
        <time>2021-05-03T12:34:42Z</time>
      </trkpt>
      <trkpt lat="45.17601" lon="5.07263">
        <ele>297.7</ele>
        <time>2021-05-03T12:34:43Z</time>
      </trkpt>
      <trkpt lat="45.17604" lon="5.07268">
        <ele>297.7</ele>
        <time>2021-05-03T12:34:44Z</time>
      </trkpt>
      <trkpt lat="45.17608" lon="5.07272">
        <ele>297.7</ele>
        <time>2021-05-03T12:34:45Z</time>
      </trkpt>
      <trkpt lat="45.17611" lon="5.07276">
        <ele>297.8</ele>
        <time>2021-05-03T12:34:46Z</time>
      </trkpt>
      <trkpt lat="45.17615" lon="5.07281">
        <ele>297.8</ele>
        <time>2021-05-03T12:34:47Z</time>
      </trkpt>
      <trkpt lat="45.17618" lon="5.07286">
        <ele>297.8</ele>
        <time>2021-05-03T12:34:48Z</time>
      </trkpt>
      <trkpt lat="45.17622" lon="5.07291">
        <ele>297.9</ele>
        <time>2021-05-03T12:34:49Z</time>
      </trkpt>
      <trkpt lat="45.17625" lon="5.07295">
        <ele>297.9</ele>
        <time>2021-05-03T12:34:50Z</time>
      </trkpt>
      <trkpt lat="45.17629" lon="5.073">
        <ele>297.9</ele>
        <time>2021-05-03T12:34:51Z</time>
      </trkpt>
      <trkpt lat="45.17632" lon="5.07305">
        <ele>297.9</ele>
        <time>2021-05-03T12:34:52Z</time>
      </trkpt>
      <trkpt lat="45.17635" lon="5.0731">
        <ele>298</ele>
        <time>2021-05-03T12:34:53Z</time>
      </trkpt>
      <trkpt lat="45.17639" lon="5.07315">
        <ele>298</ele>
        <time>2021-05-03T12:34:54Z</time>
      </trkpt>
      <trkpt lat="45.17642" lon="5.0732">
        <ele>298</ele>
        <time>2021-05-03T12:34:55Z</time>
      </trkpt>
      <trkpt lat="45.17645" lon="5.07325">
        <ele>298</ele>
        <time>2021-05-03T12:34:56Z</time>
      </trkpt>
      <trkpt lat="45.17648" lon="5.0733">
        <ele>298</ele>
        <time>2021-05-03T12:34:57Z</time>
      </trkpt>
      <trkpt lat="45.17652" lon="5.07335">
        <ele>298</ele>
        <time>2021-05-03T12:34:58Z</time>
      </trkpt>
      <trkpt lat="45.17655" lon="5.0734">
        <ele>298</ele>
        <time>2021-05-03T12:34:59Z</time>
      </trkpt>
      <trkpt lat="45.17659" lon="5.07345">
        <ele>298</ele>
        <time>2021-05-03T12:35:00Z</time>
      </trkpt>
      <trkpt lat="45.17662" lon="5.07349">
        <ele>298.1</ele>
        <time>2021-05-03T12:35:01Z</time>
      </trkpt>
      <trkpt lat="45.17666" lon="5.07354">
        <ele>298.1</ele>
        <time>2021-05-03T12:35:02Z</time>
      </trkpt>
      <trkpt lat="45.17669" lon="5.07359">
        <ele>298.1</ele>
        <time>2021-05-03T12:35:03Z</time>
      </trkpt>
      <trkpt lat="45.17672" lon="5.07364">
        <ele>298.2</ele>
        <time>2021-05-03T12:35:04Z</time>
      </trkpt>
      <trkpt lat="45.17676" lon="5.07369">
        <ele>298.2</ele>
        <time>2021-05-03T12:35:05Z</time>
      </trkpt>
      <trkpt lat="45.17678" lon="5.07374">
        <ele>298.2</ele>
        <time>2021-05-03T12:35:06Z</time>
      </trkpt>
      <trkpt lat="45.17681" lon="5.07379">
        <ele>298.3</ele>
        <time>2021-05-03T12:35:07Z</time>
      </trkpt>
      <trkpt lat="45.17685" lon="5.07383">
        <ele>298.3</ele>
        <time>2021-05-03T12:35:08Z</time>
      </trkpt>
      <trkpt lat="45.17688" lon="5.07388">
        <ele>298.4</ele>
        <time>2021-05-03T12:35:09Z</time>
      </trkpt>
      <trkpt lat="45.17691" lon="5.07392">
        <ele>298.4</ele>
        <time>2021-05-03T12:35:10Z</time>
      </trkpt>
      <trkpt lat="45.17695" lon="5.07397">
        <ele>298.4</ele>
        <time>2021-05-03T12:35:11Z</time>
      </trkpt>
      <trkpt lat="45.17698" lon="5.07402">
        <ele>298.5</ele>
        <time>2021-05-03T12:35:12Z</time>
      </trkpt>
      <trkpt lat="45.17701" lon="5.07406">
        <ele>298.5</ele>
        <time>2021-05-03T12:35:13Z</time>
      </trkpt>
      <trkpt lat="45.17705" lon="5.07411">
        <ele>298.5</ele>
        <time>2021-05-03T12:35:14Z</time>
      </trkpt>
      <trkpt lat="45.17709" lon="5.07416">
        <ele>298.6</ele>
        <time>2021-05-03T12:35:15Z</time>
      </trkpt>
      <trkpt lat="45.17712" lon="5.0742">
        <ele>298.6</ele>
        <time>2021-05-03T12:35:16Z</time>
      </trkpt>
      <trkpt lat="45.17716" lon="5.07425">
        <ele>298.7</ele>
        <time>2021-05-03T12:35:17Z</time>
      </trkpt>
      <trkpt lat="45.17719" lon="5.0743">
        <ele>298.7</ele>
        <time>2021-05-03T12:35:18Z</time>
      </trkpt>
      <trkpt lat="45.17723" lon="5.07435">
        <ele>298.7</ele>
        <time>2021-05-03T12:35:19Z</time>
      </trkpt>
      <trkpt lat="45.17726" lon="5.07439">
        <ele>298.8</ele>
        <time>2021-05-03T12:35:20Z</time>
      </trkpt>
      <trkpt lat="45.17729" lon="5.07444">
        <ele>298.8</ele>
        <time>2021-05-03T12:35:21Z</time>
      </trkpt>
      <trkpt lat="45.17733" lon="5.0745">
        <ele>298.9</ele>
        <time>2021-05-03T12:35:22Z</time>
      </trkpt>
      <trkpt lat="45.17737" lon="5.07454">
        <ele>299</ele>
        <time>2021-05-03T12:35:23Z</time>
      </trkpt>
      <trkpt lat="45.1774" lon="5.07459">
        <ele>299</ele>
        <time>2021-05-03T12:35:24Z</time>
      </trkpt>
      <trkpt lat="45.17744" lon="5.07464">
        <ele>299.1</ele>
        <time>2021-05-03T12:35:25Z</time>
      </trkpt>
      <trkpt lat="45.17747" lon="5.07468">
        <ele>299.1</ele>
        <time>2021-05-03T12:35:26Z</time>
      </trkpt>
      <trkpt lat="45.1775" lon="5.07472">
        <ele>299.2</ele>
        <time>2021-05-03T12:35:27Z</time>
      </trkpt>
      <trkpt lat="45.17754" lon="5.07477">
        <ele>299.2</ele>
        <time>2021-05-03T12:35:28Z</time>
      </trkpt>
      <trkpt lat="45.17757" lon="5.07482">
        <ele>299.3</ele>
        <time>2021-05-03T12:35:29Z</time>
      </trkpt>
      <trkpt lat="45.17761" lon="5.07487">
        <ele>299.3</ele>
        <time>2021-05-03T12:35:30Z</time>
      </trkpt>
      <trkpt lat="45.17764" lon="5.07491">
        <ele>299.4</ele>
        <time>2021-05-03T12:35:31Z</time>
      </trkpt>
      <trkpt lat="45.17767" lon="5.07496">
        <ele>299.4</ele>
        <time>2021-05-03T12:35:32Z</time>
      </trkpt>
      <trkpt lat="45.1777" lon="5.075">
        <ele>299.5</ele>
        <time>2021-05-03T12:35:33Z</time>
      </trkpt>
      <trkpt lat="45.17774" lon="5.07505">
        <ele>299.5</ele>
        <time>2021-05-03T12:35:34Z</time>
      </trkpt>
      <trkpt lat="45.17777" lon="5.07509">
        <ele>299.6</ele>
        <time>2021-05-03T12:35:35Z</time>
      </trkpt>
      <trkpt lat="45.1778" lon="5.07513">
        <ele>299.6</ele>
        <time>2021-05-03T12:35:36Z</time>
      </trkpt>
      <trkpt lat="45.17782" lon="5.07516">
        <ele>299.6</ele>
        <time>2021-05-03T12:35:37Z</time>
      </trkpt>
      <trkpt lat="45.17786" lon="5.07521">
        <ele>299.7</ele>
        <time>2021-05-03T12:35:38Z</time>
      </trkpt>
      <trkpt lat="45.1779" lon="5.07525">
        <ele>299.8</ele>
        <time>2021-05-03T12:35:39Z</time>
      </trkpt>
      <trkpt lat="45.17792" lon="5.07529">
        <ele>299.8</ele>
        <time>2021-05-03T12:35:40Z</time>
      </trkpt>
      <trkpt lat="45.17795" lon="5.07533">
        <ele>299.8</ele>
        <time>2021-05-03T12:35:41Z</time>
      </trkpt>
      <trkpt lat="45.17798" lon="5.07538">
        <ele>299.9</ele>
        <time>2021-05-03T12:35:42Z</time>
      </trkpt>
      <trkpt lat="45.17801" lon="5.07543">
        <ele>299.9</ele>
        <time>2021-05-03T12:35:43Z</time>
      </trkpt>
      <trkpt lat="45.17804" lon="5.07547">
        <ele>300</ele>
        <time>2021-05-03T12:35:44Z</time>
      </trkpt>
      <trkpt lat="45.17808" lon="5.07553">
        <ele>300.1</ele>
        <time>2021-05-03T12:35:45Z</time>
      </trkpt>
      <trkpt lat="45.17805" lon="5.07558">
        <ele>300.1</ele>
        <time>2021-05-03T12:35:46Z</time>
      </trkpt>
      <trkpt lat="45.17814" lon="5.07567">
        <ele>300.3</ele>
        <time>2021-05-03T12:35:48Z</time>
      </trkpt>
      <trkpt lat="45.17818" lon="5.07572">
        <ele>300.3</ele>
        <time>2021-05-03T12:35:49Z</time>
      </trkpt>
      <trkpt lat="45.17824" lon="5.07579">
        <ele>300.4</ele>
        <time>2021-05-03T12:35:51Z</time>
      </trkpt>
      <trkpt lat="45.17826" lon="5.07583">
        <ele>300.4</ele>
        <time>2021-05-03T12:35:52Z</time>
      </trkpt>
      <trkpt lat="45.17829" lon="5.07587">
        <ele>300.4</ele>
        <time>2021-05-03T12:35:53Z</time>
      </trkpt>
      <trkpt lat="45.17833" lon="5.07592">
        <ele>300.5</ele>
        <time>2021-05-03T12:35:54Z</time>
      </trkpt>
      <trkpt lat="45.17838" lon="5.07599">
        <ele>300.6</ele>
        <time>2021-05-03T12:35:55Z</time>
      </trkpt>
      <trkpt lat="45.17842" lon="5.07604">
        <ele>300.6</ele>
        <time>2021-05-03T12:35:57Z</time>
      </trkpt>
      <trkpt lat="45.17845" lon="5.07607">
        <ele>300.7</ele>
        <time>2021-05-03T12:35:58Z</time>
      </trkpt>
      <trkpt lat="45.17848" lon="5.07612">
        <ele>300.8</ele>
        <time>2021-05-03T12:35:59Z</time>
      </trkpt>
      <trkpt lat="45.17853" lon="5.07618">
        <ele>300.9</ele>
        <time>2021-05-03T12:36:00Z</time>
      </trkpt>
      <trkpt lat="45.17856" lon="5.07622">
        <ele>300.9</ele>
        <time>2021-05-03T12:36:02Z</time>
      </trkpt>
      <trkpt lat="45.17859" lon="5.07626">
        <ele>301</ele>
        <time>2021-05-03T12:36:03Z</time>
      </trkpt>
      <trkpt lat="45.17862" lon="5.0763">
        <ele>301</ele>
        <time>2021-05-03T12:36:04Z</time>
      </trkpt>
      <trkpt lat="45.17866" lon="5.07635">
        <ele>301</ele>
        <time>2021-05-03T12:36:05Z</time>
      </trkpt>
      <trkpt lat="45.1787" lon="5.07641">
        <ele>301.1</ele>
        <time>2021-05-03T12:36:07Z</time>
      </trkpt>
      <trkpt lat="45.17876" lon="5.07648">
        <ele>301.2</ele>
        <time>2021-05-03T12:36:09Z</time>
      </trkpt>
      <trkpt lat="45.1788" lon="5.07654">
        <ele>301.2</ele>
        <time>2021-05-03T12:36:10Z</time>
      </trkpt>
      <trkpt lat="45.17885" lon="5.07662">
        <ele>301.3</ele>
        <time>2021-05-03T12:36:12Z</time>
      </trkpt>
      <trkpt lat="45.17888" lon="5.07667">
        <ele>301.3</ele>
        <time>2021-05-03T12:36:13Z</time>
      </trkpt>
      <trkpt lat="45.17892" lon="5.07672">
        <ele>301.4</ele>
        <time>2021-05-03T12:36:14Z</time>
      </trkpt>
      <trkpt lat="45.17897" lon="5.07679">
        <ele>301.4</ele>
        <time>2021-05-03T12:36:15Z</time>
      </trkpt>
      <trkpt lat="45.17901" lon="5.07685">
        <ele>301.5</ele>
        <time>2021-05-03T12:36:17Z</time>
      </trkpt>
      <trkpt lat="45.17906" lon="5.07692">
        <ele>301.6</ele>
        <time>2021-05-03T12:36:18Z</time>
      </trkpt>
      <trkpt lat="45.1791" lon="5.07697">
        <ele>301.6</ele>
        <time>2021-05-03T12:36:20Z</time>
      </trkpt>
      <trkpt lat="45.17915" lon="5.07704">
        <ele>301.7</ele>
        <time>2021-05-03T12:36:21Z</time>
      </trkpt>
      <trkpt lat="45.17919" lon="5.07709">
        <ele>301.7</ele>
        <time>2021-05-03T12:36:23Z</time>
      </trkpt>
      <trkpt lat="45.17925" lon="5.07718">
        <ele>301.8</ele>
        <time>2021-05-03T12:36:25Z</time>
      </trkpt>
      <trkpt lat="45.17929" lon="5.07723">
        <ele>301.9</ele>
        <time>2021-05-03T12:36:26Z</time>
      </trkpt>
      <trkpt lat="45.17933" lon="5.0773">
        <ele>301.9</ele>
        <time>2021-05-03T12:36:28Z</time>
      </trkpt>
      <trkpt lat="45.17937" lon="5.07734">
        <ele>302</ele>
        <time>2021-05-03T12:36:29Z</time>
      </trkpt>
      <trkpt lat="45.17941" lon="5.07739">
        <ele>302</ele>
        <time>2021-05-03T12:36:30Z</time>
      </trkpt>
      <trkpt lat="45.17946" lon="5.07748">
        <ele>302.1</ele>
        <time>2021-05-03T12:36:32Z</time>
      </trkpt>
      <trkpt lat="45.17952" lon="5.07756">
        <ele>302.2</ele>
        <time>2021-05-03T12:36:34Z</time>
      </trkpt>
      <trkpt lat="45.17955" lon="5.07762">
        <ele>302.3</ele>
        <time>2021-05-03T12:36:35Z</time>
      </trkpt>
      <trkpt lat="45.1796" lon="5.07769">
        <ele>302.4</ele>
        <time>2021-05-03T12:36:37Z</time>
      </trkpt>
      <trkpt lat="45.17963" lon="5.07774">
        <ele>302.4</ele>
        <time>2021-05-03T12:36:38Z</time>
      </trkpt>
      <trkpt lat="45.17966" lon="5.07779">
        <ele>302.5</ele>
        <time>2021-05-03T12:36:39Z</time>
      </trkpt>
      <trkpt lat="45.17969" lon="5.07783">
        <ele>302.6</ele>
        <time>2021-05-03T12:36:40Z</time>
      </trkpt>
      <trkpt lat="45.17973" lon="5.07788">
        <ele>302.6</ele>
        <time>2021-05-03T12:36:41Z</time>
      </trkpt>
      <trkpt lat="45.17976" lon="5.07793">
        <ele>302.7</ele>
        <time>2021-05-03T12:36:42Z</time>
      </trkpt>
      <trkpt lat="45.17979" lon="5.07798">
        <ele>302.8</ele>
        <time>2021-05-03T12:36:43Z</time>
      </trkpt>
      <trkpt lat="45.17982" lon="5.07803">
        <ele>302.8</ele>
        <time>2021-05-03T12:36:44Z</time>
      </trkpt>
      <trkpt lat="45.17985" lon="5.07808">
        <ele>302.9</ele>
        <time>2021-05-03T12:36:45Z</time>
      </trkpt>
      <trkpt lat="45.17989" lon="5.07813">
        <ele>302.9</ele>
        <time>2021-05-03T12:36:46Z</time>
      </trkpt>
      <trkpt lat="45.17992" lon="5.07817">
        <ele>303</ele>
        <time>2021-05-03T12:36:47Z</time>
      </trkpt>
      <trkpt lat="45.17996" lon="5.07821">
        <ele>303.1</ele>
        <time>2021-05-03T12:36:48Z</time>
      </trkpt>
      <trkpt lat="45.17999" lon="5.07825">
        <ele>303.1</ele>
        <time>2021-05-03T12:36:49Z</time>
      </trkpt>
      <trkpt lat="45.18002" lon="5.07829">
        <ele>303.2</ele>
        <time>2021-05-03T12:36:50Z</time>
      </trkpt>
      <trkpt lat="45.18006" lon="5.07834">
        <ele>303.3</ele>
        <time>2021-05-03T12:36:51Z</time>
      </trkpt>
      <trkpt lat="45.1801" lon="5.07838">
        <ele>303.3</ele>
        <time>2021-05-03T12:36:52Z</time>
      </trkpt>
      <trkpt lat="45.18013" lon="5.07843">
        <ele>303.4</ele>
        <time>2021-05-03T12:36:53Z</time>
      </trkpt>
      <trkpt lat="45.18017" lon="5.07848">
        <ele>303.5</ele>
        <time>2021-05-03T12:36:54Z</time>
      </trkpt>
      <trkpt lat="45.1802" lon="5.07854">
        <ele>303.6</ele>
        <time>2021-05-03T12:36:55Z</time>
      </trkpt>
      <trkpt lat="45.18024" lon="5.07858">
        <ele>303.7</ele>
        <time>2021-05-03T12:36:56Z</time>
      </trkpt>
      <trkpt lat="45.18028" lon="5.07863">
        <ele>303.8</ele>
        <time>2021-05-03T12:36:57Z</time>
      </trkpt>
      <trkpt lat="45.18032" lon="5.07867">
        <ele>303.9</ele>
        <time>2021-05-03T12:36:58Z</time>
      </trkpt>
      <trkpt lat="45.18035" lon="5.07872">
        <ele>303.9</ele>
        <time>2021-05-03T12:36:59Z</time>
      </trkpt>
      <trkpt lat="45.18038" lon="5.07877">
        <ele>304</ele>
        <time>2021-05-03T12:37:00Z</time>
      </trkpt>
      <trkpt lat="45.1804" lon="5.0788">
        <ele>304.1</ele>
        <time>2021-05-03T12:37:01Z</time>
      </trkpt>
      <trkpt lat="45.18043" lon="5.07884">
        <ele>304.2</ele>
        <time>2021-05-03T12:37:02Z</time>
      </trkpt>
      <trkpt lat="45.18046" lon="5.07888">
        <ele>304.2</ele>
        <time>2021-05-03T12:37:03Z</time>
      </trkpt>
      <trkpt lat="45.18049" lon="5.07892">
        <ele>304.3</ele>
        <time>2021-05-03T12:37:04Z</time>
      </trkpt>
      <trkpt lat="45.18053" lon="5.07897">
        <ele>304.4</ele>
        <time>2021-05-03T12:37:05Z</time>
      </trkpt>
      <trkpt lat="45.18056" lon="5.07901">
        <ele>304.4</ele>
        <time>2021-05-03T12:37:06Z</time>
      </trkpt>
      <trkpt lat="45.1806" lon="5.07906">
        <ele>304.5</ele>
        <time>2021-05-03T12:37:07Z</time>
      </trkpt>
      <trkpt lat="45.18066" lon="5.07915">
        <ele>304.5</ele>
        <time>2021-05-03T12:37:09Z</time>
      </trkpt>
      <trkpt lat="45.1807" lon="5.0792">
        <ele>304.6</ele>
        <time>2021-05-03T12:37:10Z</time>
      </trkpt>
      <trkpt lat="45.18073" lon="5.07925">
        <ele>304.6</ele>
        <time>2021-05-03T12:37:11Z</time>
      </trkpt>
      <trkpt lat="45.18076" lon="5.07929">
        <ele>304.6</ele>
        <time>2021-05-03T12:37:12Z</time>
      </trkpt>
      <trkpt lat="45.18079" lon="5.07934">
        <ele>304.7</ele>
        <time>2021-05-03T12:37:13Z</time>
      </trkpt>
      <trkpt lat="45.18082" lon="5.07939">
        <ele>304.7</ele>
        <time>2021-05-03T12:37:14Z</time>
      </trkpt>
      <trkpt lat="45.18086" lon="5.07944">
        <ele>304.8</ele>
        <time>2021-05-03T12:37:15Z</time>
      </trkpt>
      <trkpt lat="45.18089" lon="5.07949">
        <ele>304.8</ele>
        <time>2021-05-03T12:37:16Z</time>
      </trkpt>
      <trkpt lat="45.18092" lon="5.07953">
        <ele>304.9</ele>
        <time>2021-05-03T12:37:17Z</time>
      </trkpt>
      <trkpt lat="45.18096" lon="5.07958">
        <ele>304.9</ele>
        <time>2021-05-03T12:37:18Z</time>
      </trkpt>
      <trkpt lat="45.181" lon="5.07963">
        <ele>305</ele>
        <time>2021-05-03T12:37:19Z</time>
      </trkpt>
      <trkpt lat="45.18103" lon="5.07967">
        <ele>305</ele>
        <time>2021-05-03T12:37:20Z</time>
      </trkpt>
      <trkpt lat="45.18106" lon="5.07972">
        <ele>305.1</ele>
        <time>2021-05-03T12:37:21Z</time>
      </trkpt>
      <trkpt lat="45.18109" lon="5.07977">
        <ele>305.1</ele>
        <time>2021-05-03T12:37:22Z</time>
      </trkpt>
      <trkpt lat="45.18112" lon="5.07981">
        <ele>305.2</ele>
        <time>2021-05-03T12:37:23Z</time>
      </trkpt>
      <trkpt lat="45.18115" lon="5.07986">
        <ele>305.3</ele>
        <time>2021-05-03T12:37:24Z</time>
      </trkpt>
      <trkpt lat="45.18118" lon="5.07991">
        <ele>305.3</ele>
        <time>2021-05-03T12:37:25Z</time>
      </trkpt>
      <trkpt lat="45.18122" lon="5.07996">
        <ele>305.4</ele>
        <time>2021-05-03T12:37:26Z</time>
      </trkpt>
      <trkpt lat="45.18125" lon="5.08">
        <ele>305.5</ele>
        <time>2021-05-03T12:37:27Z</time>
      </trkpt>
      <trkpt lat="45.18127" lon="5.08003">
        <ele>305.6</ele>
        <time>2021-05-03T12:37:28Z</time>
      </trkpt>
      <trkpt lat="45.18131" lon="5.08008">
        <ele>305.7</ele>
        <time>2021-05-03T12:37:29Z</time>
      </trkpt>
      <trkpt lat="45.18134" lon="5.08012">
        <ele>305.7</ele>
        <time>2021-05-03T12:37:30Z</time>
      </trkpt>
      <trkpt lat="45.18137" lon="5.08016">
        <ele>305.8</ele>
        <time>2021-05-03T12:37:31Z</time>
      </trkpt>
      <trkpt lat="45.1814" lon="5.0802">
        <ele>305.9</ele>
        <time>2021-05-03T12:37:32Z</time>
      </trkpt>
      <trkpt lat="45.18143" lon="5.08026">
        <ele>306</ele>
        <time>2021-05-03T12:37:33Z</time>
      </trkpt>
      <trkpt lat="45.18147" lon="5.08031">
        <ele>306.1</ele>
        <time>2021-05-03T12:37:34Z</time>
      </trkpt>
      <trkpt lat="45.18153" lon="5.08039">
        <ele>306.3</ele>
        <time>2021-05-03T12:37:36Z</time>
      </trkpt>
      <trkpt lat="45.18157" lon="5.08044">
        <ele>306.4</ele>
        <time>2021-05-03T12:37:37Z</time>
      </trkpt>
      <trkpt lat="45.18163" lon="5.08053">
        <ele>306.6</ele>
        <time>2021-05-03T12:37:39Z</time>
      </trkpt>
      <trkpt lat="45.18166" lon="5.08057">
        <ele>306.7</ele>
        <time>2021-05-03T12:37:40Z</time>
      </trkpt>
      <trkpt lat="45.18169" lon="5.08061">
        <ele>306.7</ele>
        <time>2021-05-03T12:37:41Z</time>
      </trkpt>
      <trkpt lat="45.18171" lon="5.08065">
        <ele>306.8</ele>
        <time>2021-05-03T12:37:42Z</time>
      </trkpt>
      <trkpt lat="45.18175" lon="5.0807">
        <ele>306.9</ele>
        <time>2021-05-03T12:37:43Z</time>
      </trkpt>
      <trkpt lat="45.18179" lon="5.08075">
        <ele>307</ele>
        <time>2021-05-03T12:37:45Z</time>
      </trkpt>
      <trkpt lat="45.18182" lon="5.0808">
        <ele>307.1</ele>
        <time>2021-05-03T12:37:46Z</time>
      </trkpt>
      <trkpt lat="45.18185" lon="5.08084">
        <ele>307.2</ele>
        <time>2021-05-03T12:37:47Z</time>
      </trkpt>
      <trkpt lat="45.18189" lon="5.08089">
        <ele>307.3</ele>
        <time>2021-05-03T12:37:48Z</time>
      </trkpt>
      <trkpt lat="45.18193" lon="5.08094">
        <ele>307.5</ele>
        <time>2021-05-03T12:37:49Z</time>
      </trkpt>
      <trkpt lat="45.18197" lon="5.08099">
        <ele>307.6</ele>
        <time>2021-05-03T12:37:50Z</time>
      </trkpt>
      <trkpt lat="45.182" lon="5.08104">
        <ele>307.7</ele>
        <time>2021-05-03T12:37:52Z</time>
      </trkpt>
      <trkpt lat="45.18202" lon="5.08109">
        <ele>307.8</ele>
        <time>2021-05-03T12:37:53Z</time>
      </trkpt>
      <trkpt lat="45.18207" lon="5.08115">
        <ele>307.9</ele>
        <time>2021-05-03T12:37:54Z</time>
      </trkpt>
      <trkpt lat="45.18212" lon="5.08122">
        <ele>308.1</ele>
        <time>2021-05-03T12:37:56Z</time>
      </trkpt>
      <trkpt lat="45.18215" lon="5.08126">
        <ele>308.2</ele>
        <time>2021-05-03T12:37:57Z</time>
      </trkpt>
      <trkpt lat="45.18218" lon="5.0813">
        <ele>308.3</ele>
        <time>2021-05-03T12:37:58Z</time>
      </trkpt>
      <trkpt lat="45.18223" lon="5.08139">
        <ele>308.5</ele>
        <time>2021-05-03T12:38:00Z</time>
      </trkpt>
      <trkpt lat="45.18226" lon="5.08143">
        <ele>308.6</ele>
        <time>2021-05-03T12:38:01Z</time>
      </trkpt>
      <trkpt lat="45.1823" lon="5.0815">
        <ele>308.7</ele>
        <time>2021-05-03T12:38:02Z</time>
      </trkpt>
      <trkpt lat="45.18234" lon="5.08154">
        <ele>308.8</ele>
        <time>2021-05-03T12:38:04Z</time>
      </trkpt>
      <trkpt lat="45.18237" lon="5.08159">
        <ele>308.9</ele>
        <time>2021-05-03T12:38:05Z</time>
      </trkpt>
      <trkpt lat="45.18239" lon="5.08163">
        <ele>309</ele>
        <time>2021-05-03T12:38:06Z</time>
      </trkpt>
      <trkpt lat="45.18243" lon="5.08168">
        <ele>309</ele>
        <time>2021-05-03T12:38:07Z</time>
      </trkpt>
      <trkpt lat="45.18247" lon="5.08174">
        <ele>309.1</ele>
        <time>2021-05-03T12:38:08Z</time>
      </trkpt>
      <trkpt lat="45.18251" lon="5.0818">
        <ele>309.2</ele>
        <time>2021-05-03T12:38:10Z</time>
      </trkpt>
      <trkpt lat="45.18255" lon="5.08185">
        <ele>309.4</ele>
        <time>2021-05-03T12:38:11Z</time>
      </trkpt>
      <trkpt lat="45.18258" lon="5.08189">
        <ele>309.5</ele>
        <time>2021-05-03T12:38:12Z</time>
      </trkpt>
      <trkpt lat="45.18261" lon="5.08195">
        <ele>309.6</ele>
        <time>2021-05-03T12:38:13Z</time>
      </trkpt>
      <trkpt lat="45.18266" lon="5.08201">
        <ele>309.7</ele>
        <time>2021-05-03T12:38:15Z</time>
      </trkpt>
      <trkpt lat="45.18272" lon="5.08209">
        <ele>309.9</ele>
        <time>2021-05-03T12:38:17Z</time>
      </trkpt>
      <trkpt lat="45.18275" lon="5.08213">
        <ele>310</ele>
        <time>2021-05-03T12:38:18Z</time>
      </trkpt>
      <trkpt lat="45.18279" lon="5.08218">
        <ele>310.1</ele>
        <time>2021-05-03T12:38:19Z</time>
      </trkpt>
      <trkpt lat="45.18284" lon="5.08225">
        <ele>310.3</ele>
        <time>2021-05-03T12:38:21Z</time>
      </trkpt>
      <trkpt lat="45.18287" lon="5.0823">
        <ele>310.4</ele>
        <time>2021-05-03T12:38:22Z</time>
      </trkpt>
      <trkpt lat="45.18293" lon="5.08237">
        <ele>310.6</ele>
        <time>2021-05-03T12:38:24Z</time>
      </trkpt>
      <trkpt lat="45.18298" lon="5.08245">
        <ele>310.8</ele>
        <time>2021-05-03T12:38:26Z</time>
      </trkpt>
      <trkpt lat="45.18301" lon="5.0825">
        <ele>310.8</ele>
        <time>2021-05-03T12:38:27Z</time>
      </trkpt>
      <trkpt lat="45.18306" lon="5.08257">
        <ele>311</ele>
        <time>2021-05-03T12:38:29Z</time>
      </trkpt>
      <trkpt lat="45.18309" lon="5.08262">
        <ele>311.1</ele>
        <time>2021-05-03T12:38:30Z</time>
      </trkpt>
      <trkpt lat="45.18312" lon="5.08265">
        <ele>311.1</ele>
        <time>2021-05-03T12:38:31Z</time>
      </trkpt>
      <trkpt lat="45.18318" lon="5.08274">
        <ele>311.3</ele>
        <time>2021-05-03T12:38:33Z</time>
      </trkpt>
      <trkpt lat="45.18321" lon="5.08279">
        <ele>311.4</ele>
        <time>2021-05-03T12:38:34Z</time>
      </trkpt>
      <trkpt lat="45.18326" lon="5.08284">
        <ele>311.6</ele>
        <time>2021-05-03T12:38:36Z</time>
      </trkpt>
      <trkpt lat="45.18328" lon="5.08288">
        <ele>311.6</ele>
        <time>2021-05-03T12:38:37Z</time>
      </trkpt>
      <trkpt lat="45.1833" lon="5.08291">
        <ele>311.7</ele>
        <time>2021-05-03T12:38:38Z</time>
      </trkpt>
      <trkpt lat="45.18333" lon="5.08295">
        <ele>311.8</ele>
        <time>2021-05-03T12:38:39Z</time>
      </trkpt>
      <trkpt lat="45.18337" lon="5.083">
        <ele>311.9</ele>
        <time>2021-05-03T12:38:40Z</time>
      </trkpt>
      <trkpt lat="45.18342" lon="5.08306">
        <ele>312</ele>
        <time>2021-05-03T12:38:42Z</time>
      </trkpt>
      <trkpt lat="45.18345" lon="5.08312">
        <ele>312.1</ele>
        <time>2021-05-03T12:38:43Z</time>
      </trkpt>
      <trkpt lat="45.18349" lon="5.08317">
        <ele>312.2</ele>
        <time>2021-05-03T12:38:44Z</time>
      </trkpt>
      <trkpt lat="45.18352" lon="5.08322">
        <ele>312.3</ele>
        <time>2021-05-03T12:38:46Z</time>
      </trkpt>
      <trkpt lat="45.18355" lon="5.08327">
        <ele>312.4</ele>
        <time>2021-05-03T12:38:47Z</time>
      </trkpt>
      <trkpt lat="45.1836" lon="5.08333">
        <ele>312.6</ele>
        <time>2021-05-03T12:38:48Z</time>
      </trkpt>
      <trkpt lat="45.18363" lon="5.08337">
        <ele>312.7</ele>
        <time>2021-05-03T12:38:49Z</time>
      </trkpt>
      <trkpt lat="45.18366" lon="5.08342">
        <ele>312.8</ele>
        <time>2021-05-03T12:38:50Z</time>
      </trkpt>
      <trkpt lat="45.1837" lon="5.08347">
        <ele>312.9</ele>
        <time>2021-05-03T12:38:52Z</time>
      </trkpt>
      <trkpt lat="45.18374" lon="5.08353">
        <ele>313</ele>
        <time>2021-05-03T12:38:53Z</time>
      </trkpt>
      <trkpt lat="45.18377" lon="5.08357">
        <ele>313.1</ele>
        <time>2021-05-03T12:38:55Z</time>
      </trkpt>
      <trkpt lat="45.18384" lon="5.08366">
        <ele>313.4</ele>
        <time>2021-05-03T12:38:57Z</time>
      </trkpt>
      <trkpt lat="45.1839" lon="5.08374">
        <ele>313.5</ele>
        <time>2021-05-03T12:38:59Z</time>
      </trkpt>
      <trkpt lat="45.18394" lon="5.08378">
        <ele>313.6</ele>
        <time>2021-05-03T12:39:00Z</time>
      </trkpt>
      <trkpt lat="45.18399" lon="5.08386">
        <ele>313.8</ele>
        <time>2021-05-03T12:39:02Z</time>
      </trkpt>
      <trkpt lat="45.18402" lon="5.08391">
        <ele>313.9</ele>
        <time>2021-05-03T12:39:03Z</time>
      </trkpt>
      <trkpt lat="45.18407" lon="5.08398">
        <ele>314.1</ele>
        <time>2021-05-03T12:39:05Z</time>
      </trkpt>
      <trkpt lat="45.1841" lon="5.08402">
        <ele>314.2</ele>
        <time>2021-05-03T12:39:06Z</time>
      </trkpt>
      <trkpt lat="45.18413" lon="5.08407">
        <ele>314.3</ele>
        <time>2021-05-03T12:39:07Z</time>
      </trkpt>
      <trkpt lat="45.18419" lon="5.08415">
        <ele>314.5</ele>
        <time>2021-05-03T12:39:09Z</time>
      </trkpt>
      <trkpt lat="45.18425" lon="5.08423">
        <ele>314.7</ele>
        <time>2021-05-03T12:39:11Z</time>
      </trkpt>
      <trkpt lat="45.18431" lon="5.08432">
        <ele>314.9</ele>
        <time>2021-05-03T12:39:13Z</time>
      </trkpt>
      <trkpt lat="45.18435" lon="5.08438">
        <ele>315</ele>
        <time>2021-05-03T12:39:15Z</time>
      </trkpt>
      <trkpt lat="45.18438" lon="5.08442">
        <ele>315.1</ele>
        <time>2021-05-03T12:39:16Z</time>
      </trkpt>
      <trkpt lat="45.18444" lon="5.08451">
        <ele>315.4</ele>
        <time>2021-05-03T12:39:18Z</time>
      </trkpt>
      <trkpt lat="45.1845" lon="5.08459">
        <ele>315.6</ele>
        <time>2021-05-03T12:39:20Z</time>
      </trkpt>
      <trkpt lat="45.18455" lon="5.08467">
        <ele>315.8</ele>
        <time>2021-05-03T12:39:22Z</time>
      </trkpt>
      <trkpt lat="45.18458" lon="5.08472">
        <ele>315.9</ele>
        <time>2021-05-03T12:39:23Z</time>
      </trkpt>
      <trkpt lat="45.18463" lon="5.08479">
        <ele>316</ele>
        <time>2021-05-03T12:39:25Z</time>
      </trkpt>
      <trkpt lat="45.18468" lon="5.08485">
        <ele>316.1</ele>
        <time>2021-05-03T12:39:27Z</time>
      </trkpt>
      <trkpt lat="45.18471" lon="5.08489">
        <ele>316.2</ele>
        <time>2021-05-03T12:39:28Z</time>
      </trkpt>
      <trkpt lat="45.18474" lon="5.08493">
        <ele>316.3</ele>
        <time>2021-05-03T12:39:29Z</time>
      </trkpt>
      <trkpt lat="45.1848" lon="5.08501">
        <ele>316.5</ele>
        <time>2021-05-03T12:39:31Z</time>
      </trkpt>
      <trkpt lat="45.18486" lon="5.08509">
        <ele>316.6</ele>
        <time>2021-05-03T12:39:33Z</time>
      </trkpt>
      <trkpt lat="45.18491" lon="5.08516">
        <ele>316.8</ele>
        <time>2021-05-03T12:39:35Z</time>
      </trkpt>
      <trkpt lat="45.18494" lon="5.0852">
        <ele>316.9</ele>
        <time>2021-05-03T12:39:36Z</time>
      </trkpt>
      <trkpt lat="45.18496" lon="5.08524">
        <ele>316.9</ele>
        <time>2021-05-03T12:39:37Z</time>
      </trkpt>
      <trkpt lat="45.18499" lon="5.08529">
        <ele>317</ele>
        <time>2021-05-03T12:39:38Z</time>
      </trkpt>
      <trkpt lat="45.18502" lon="5.08532">
        <ele>317.1</ele>
        <time>2021-05-03T12:39:39Z</time>
      </trkpt>
      <trkpt lat="45.18507" lon="5.08539">
        <ele>317.2</ele>
        <time>2021-05-03T12:39:41Z</time>
      </trkpt>
      <trkpt lat="45.18509" lon="5.08542">
        <ele>317.2</ele>
        <time>2021-05-03T12:39:42Z</time>
      </trkpt>
      <trkpt lat="45.18512" lon="5.08546">
        <ele>317.3</ele>
        <time>2021-05-03T12:39:43Z</time>
      </trkpt>
      <trkpt lat="45.18515" lon="5.08549">
        <ele>317.3</ele>
        <time>2021-05-03T12:39:45Z</time>
      </trkpt>
      <trkpt lat="45.18518" lon="5.08552">
        <ele>317.3</ele>
        <time>2021-05-03T12:39:46Z</time>
      </trkpt>
      <trkpt lat="45.18521" lon="5.08557">
        <ele>317.4</ele>
        <time>2021-05-03T12:39:47Z</time>
      </trkpt>
      <trkpt lat="45.18524" lon="5.08562">
        <ele>317.4</ele>
        <time>2021-05-03T12:39:49Z</time>
      </trkpt>
      <trkpt lat="45.18527" lon="5.08566">
        <ele>317.5</ele>
        <time>2021-05-03T12:39:50Z</time>
      </trkpt>
      <trkpt lat="45.18531" lon="5.08571">
        <ele>317.6</ele>
        <time>2021-05-03T12:39:52Z</time>
      </trkpt>
      <trkpt lat="45.18534" lon="5.08576">
        <ele>317.6</ele>
        <time>2021-05-03T12:39:53Z</time>
      </trkpt>
      <trkpt lat="45.1854" lon="5.08583">
        <ele>317.7</ele>
        <time>2021-05-03T12:39:55Z</time>
      </trkpt>
      <trkpt lat="45.18543" lon="5.08587">
        <ele>317.8</ele>
        <time>2021-05-03T12:39:56Z</time>
      </trkpt>
      <trkpt lat="45.18546" lon="5.08591">
        <ele>317.8</ele>
        <time>2021-05-03T12:39:57Z</time>
      </trkpt>
      <trkpt lat="45.18549" lon="5.08596">
        <ele>317.9</ele>
        <time>2021-05-03T12:39:58Z</time>
      </trkpt>
      <trkpt lat="45.18552" lon="5.08601">
        <ele>317.9</ele>
        <time>2021-05-03T12:39:59Z</time>
      </trkpt>
      <trkpt lat="45.18556" lon="5.08607">
        <ele>318</ele>
        <time>2021-05-03T12:40:00Z</time>
      </trkpt>
      <trkpt lat="45.18558" lon="5.0861">
        <ele>318</ele>
        <time>2021-05-03T12:40:02Z</time>
      </trkpt>
      <trkpt lat="45.18561" lon="5.08615">
        <ele>318.1</ele>
        <time>2021-05-03T12:40:03Z</time>
      </trkpt>
      <trkpt lat="45.18566" lon="5.08621">
        <ele>318.1</ele>
        <time>2021-05-03T12:40:05Z</time>
      </trkpt>
      <trkpt lat="45.18569" lon="5.08626">
        <ele>318.2</ele>
        <time>2021-05-03T12:40:06Z</time>
      </trkpt>
      <trkpt lat="45.18572" lon="5.0863">
        <ele>318.2</ele>
        <time>2021-05-03T12:40:07Z</time>
      </trkpt>
      <trkpt lat="45.18577" lon="5.08638">
        <ele>318.3</ele>
        <time>2021-05-03T12:40:09Z</time>
      </trkpt>
      <trkpt lat="45.18582" lon="5.08645">
        <ele>318.3</ele>
        <time>2021-05-03T12:40:11Z</time>
      </trkpt>
      <trkpt lat="45.18588" lon="5.08652">
        <ele>318.4</ele>
        <time>2021-05-03T12:40:13Z</time>
      </trkpt>
      <trkpt lat="45.18592" lon="5.08658">
        <ele>318.4</ele>
        <time>2021-05-03T12:40:14Z</time>
      </trkpt>
      <trkpt lat="45.18595" lon="5.08663">
        <ele>318.5</ele>
        <time>2021-05-03T12:40:15Z</time>
      </trkpt>
      <trkpt lat="45.186" lon="5.08671">
        <ele>318.6</ele>
        <time>2021-05-03T12:40:17Z</time>
      </trkpt>
      <trkpt lat="45.18603" lon="5.08676">
        <ele>318.6</ele>
        <time>2021-05-03T12:40:18Z</time>
      </trkpt>
      <trkpt lat="45.18606" lon="5.08681">
        <ele>318.6</ele>
        <time>2021-05-03T12:40:19Z</time>
      </trkpt>
      <trkpt lat="45.18611" lon="5.08691">
        <ele>318.7</ele>
        <time>2021-05-03T12:40:21Z</time>
      </trkpt>
      <trkpt lat="45.18614" lon="5.08696">
        <ele>318.7</ele>
        <time>2021-05-03T12:40:22Z</time>
      </trkpt>
      <trkpt lat="45.18617" lon="5.08701">
        <ele>318.7</ele>
        <time>2021-05-03T12:40:23Z</time>
      </trkpt>
      <trkpt lat="45.18619" lon="5.08706">
        <ele>318.8</ele>
        <time>2021-05-03T12:40:24Z</time>
      </trkpt>
      <trkpt lat="45.18622" lon="5.08711">
        <ele>318.8</ele>
        <time>2021-05-03T12:40:25Z</time>
      </trkpt>
      <trkpt lat="45.18625" lon="5.08717">
        <ele>318.9</ele>
        <time>2021-05-03T12:40:26Z</time>
      </trkpt>
      <trkpt lat="45.18628" lon="5.0872">
        <ele>318.9</ele>
        <time>2021-05-03T12:40:27Z</time>
      </trkpt>
      <trkpt lat="45.18631" lon="5.08732">
        <ele>319</ele>
        <time>2021-05-03T12:40:29Z</time>
      </trkpt>
      <trkpt lat="45.18633" lon="5.08741">
        <ele>319.1</ele>
        <time>2021-05-03T12:40:30Z</time>
      </trkpt>
      <trkpt lat="45.18635" lon="5.08751">
        <ele>319.3</ele>
        <time>2021-05-03T12:40:32Z</time>
      </trkpt>
      <trkpt lat="45.18637" lon="5.08759">
        <ele>319.3</ele>
        <time>2021-05-03T12:40:33Z</time>
      </trkpt>
      <trkpt lat="45.18639" lon="5.08764">
        <ele>319.4</ele>
        <time>2021-05-03T12:40:34Z</time>
      </trkpt>
      <trkpt lat="45.18642" lon="5.08773">
        <ele>319.5</ele>
        <time>2021-05-03T12:40:35Z</time>
      </trkpt>
      <trkpt lat="45.18644" lon="5.0878">
        <ele>319.6</ele>
        <time>2021-05-03T12:40:37Z</time>
      </trkpt>
      <trkpt lat="45.18646" lon="5.08788">
        <ele>319.7</ele>
        <time>2021-05-03T12:40:38Z</time>
      </trkpt>
      <trkpt lat="45.1865" lon="5.08798">
        <ele>319.8</ele>
        <time>2021-05-03T12:40:40Z</time>
      </trkpt>
      <trkpt lat="45.18652" lon="5.08806">
        <ele>319.9</ele>
        <time>2021-05-03T12:40:41Z</time>
      </trkpt>
      <trkpt lat="45.18655" lon="5.08813">
        <ele>320</ele>
        <time>2021-05-03T12:40:43Z</time>
      </trkpt>
      <trkpt lat="45.18657" lon="5.08821">
        <ele>320.1</ele>
        <time>2021-05-03T12:40:44Z</time>
      </trkpt>
      <trkpt lat="45.1866" lon="5.08829">
        <ele>320.2</ele>
        <time>2021-05-03T12:40:46Z</time>
      </trkpt>
      <trkpt lat="45.18662" lon="5.08835">
        <ele>320.3</ele>
        <time>2021-05-03T12:40:47Z</time>
      </trkpt>
      <trkpt lat="45.18664" lon="5.08841">
        <ele>320.4</ele>
        <time>2021-05-03T12:40:48Z</time>
      </trkpt>
      <trkpt lat="45.18665" lon="5.08847">
        <ele>320.5</ele>
        <time>2021-05-03T12:40:49Z</time>
      </trkpt>
      <trkpt lat="45.18668" lon="5.08855">
        <ele>320.6</ele>
        <time>2021-05-03T12:40:51Z</time>
      </trkpt>
      <trkpt lat="45.1867" lon="5.08861">
        <ele>320.7</ele>
        <time>2021-05-03T12:40:52Z</time>
      </trkpt>
      <trkpt lat="45.18673" lon="5.0887">
        <ele>320.8</ele>
        <time>2021-05-03T12:40:54Z</time>
      </trkpt>
      <trkpt lat="45.18675" lon="5.08875">
        <ele>320.9</ele>
        <time>2021-05-03T12:40:55Z</time>
      </trkpt>
      <trkpt lat="45.18679" lon="5.08886">
        <ele>321</ele>
        <time>2021-05-03T12:40:57Z</time>
      </trkpt>
      <trkpt lat="45.18682" lon="5.08895">
        <ele>321.2</ele>
        <time>2021-05-03T12:40:58Z</time>
      </trkpt>
      <trkpt lat="45.18684" lon="5.08901">
        <ele>321.3</ele>
        <time>2021-05-03T12:41:00Z</time>
      </trkpt>
      <trkpt lat="45.18686" lon="5.08907">
        <ele>321.4</ele>
        <time>2021-05-03T12:41:01Z</time>
      </trkpt>
      <trkpt lat="45.1869" lon="5.08917">
        <ele>321.5</ele>
        <time>2021-05-03T12:41:03Z</time>
      </trkpt>
      <trkpt lat="45.18691" lon="5.08923">
        <ele>321.6</ele>
        <time>2021-05-03T12:41:04Z</time>
      </trkpt>
      <trkpt lat="45.18693" lon="5.08929">
        <ele>321.7</ele>
        <time>2021-05-03T12:41:05Z</time>
      </trkpt>
      <trkpt lat="45.18696" lon="5.08936">
        <ele>321.8</ele>
        <time>2021-05-03T12:41:06Z</time>
      </trkpt>
      <trkpt lat="45.18698" lon="5.08943">
        <ele>321.9</ele>
        <time>2021-05-03T12:41:08Z</time>
      </trkpt>
      <trkpt lat="45.18701" lon="5.08949">
        <ele>322</ele>
        <time>2021-05-03T12:41:09Z</time>
      </trkpt>
      <trkpt lat="45.18703" lon="5.08956">
        <ele>322.2</ele>
        <time>2021-05-03T12:41:10Z</time>
      </trkpt>
      <trkpt lat="45.18705" lon="5.08963">
        <ele>322.3</ele>
        <time>2021-05-03T12:41:11Z</time>
      </trkpt>
      <trkpt lat="45.18708" lon="5.08969">
        <ele>322.4</ele>
        <time>2021-05-03T12:41:13Z</time>
      </trkpt>
      <trkpt lat="45.18709" lon="5.08974">
        <ele>322.4</ele>
        <time>2021-05-03T12:41:14Z</time>
      </trkpt>
      <trkpt lat="45.18711" lon="5.08981">
        <ele>322.5</ele>
        <time>2021-05-03T12:41:15Z</time>
      </trkpt>
      <trkpt lat="45.18714" lon="5.08988">
        <ele>322.6</ele>
        <time>2021-05-03T12:41:16Z</time>
      </trkpt>
      <trkpt lat="45.18716" lon="5.08995">
        <ele>322.6</ele>
        <time>2021-05-03T12:41:18Z</time>
      </trkpt>
      <trkpt lat="45.18718" lon="5.09001">
        <ele>322.7</ele>
        <time>2021-05-03T12:41:19Z</time>
      </trkpt>
      <trkpt lat="45.1872" lon="5.09008">
        <ele>322.7</ele>
        <time>2021-05-03T12:41:20Z</time>
      </trkpt>
      <trkpt lat="45.18722" lon="5.09014">
        <ele>322.8</ele>
        <time>2021-05-03T12:41:21Z</time>
      </trkpt>
      <trkpt lat="45.18724" lon="5.09021">
        <ele>322.9</ele>
        <time>2021-05-03T12:41:23Z</time>
      </trkpt>
      <trkpt lat="45.18726" lon="5.09027">
        <ele>322.9</ele>
        <time>2021-05-03T12:41:24Z</time>
      </trkpt>
      <trkpt lat="45.18728" lon="5.09034">
        <ele>323</ele>
        <time>2021-05-03T12:41:25Z</time>
      </trkpt>
      <trkpt lat="45.1873" lon="5.0904">
        <ele>323.1</ele>
        <time>2021-05-03T12:41:26Z</time>
      </trkpt>
      <trkpt lat="45.18732" lon="5.09047">
        <ele>323.2</ele>
        <time>2021-05-03T12:41:28Z</time>
      </trkpt>
      <trkpt lat="45.18734" lon="5.09051">
        <ele>323.3</ele>
        <time>2021-05-03T12:41:29Z</time>
      </trkpt>
      <trkpt lat="45.18737" lon="5.0906">
        <ele>323.4</ele>
        <time>2021-05-03T12:41:31Z</time>
      </trkpt>
      <trkpt lat="45.18739" lon="5.09067">
        <ele>323.6</ele>
        <time>2021-05-03T12:41:32Z</time>
      </trkpt>
      <trkpt lat="45.18741" lon="5.09072">
        <ele>323.6</ele>
        <time>2021-05-03T12:41:33Z</time>
      </trkpt>
      <trkpt lat="45.18743" lon="5.09078">
        <ele>323.7</ele>
        <time>2021-05-03T12:41:34Z</time>
      </trkpt>
      <trkpt lat="45.18746" lon="5.09088">
        <ele>323.9</ele>
        <time>2021-05-03T12:41:36Z</time>
      </trkpt>
      <trkpt lat="45.18749" lon="5.09095">
        <ele>324</ele>
        <time>2021-05-03T12:41:37Z</time>
      </trkpt>
      <trkpt lat="45.18752" lon="5.09104">
        <ele>324.2</ele>
        <time>2021-05-03T12:41:39Z</time>
      </trkpt>
      <trkpt lat="45.18754" lon="5.09111">
        <ele>324.3</ele>
        <time>2021-05-03T12:41:40Z</time>
      </trkpt>
      <trkpt lat="45.18756" lon="5.09118">
        <ele>324.3</ele>
        <time>2021-05-03T12:41:41Z</time>
      </trkpt>
      <trkpt lat="45.18758" lon="5.09126">
        <ele>324.4</ele>
        <time>2021-05-03T12:41:42Z</time>
      </trkpt>
      <trkpt lat="45.18761" lon="5.09132">
        <ele>324.5</ele>
        <time>2021-05-03T12:41:44Z</time>
      </trkpt>
      <trkpt lat="45.18762" lon="5.09137">
        <ele>324.6</ele>
        <time>2021-05-03T12:41:45Z</time>
      </trkpt>
      <trkpt lat="45.18766" lon="5.09148">
        <ele>324.8</ele>
        <time>2021-05-03T12:41:47Z</time>
      </trkpt>
      <trkpt lat="45.18769" lon="5.09155">
        <ele>324.9</ele>
        <time>2021-05-03T12:41:48Z</time>
      </trkpt>
      <trkpt lat="45.1877" lon="5.09161">
        <ele>325</ele>
        <time>2021-05-03T12:41:49Z</time>
      </trkpt>
      <trkpt lat="45.18773" lon="5.09171">
        <ele>325.1</ele>
        <time>2021-05-03T12:41:50Z</time>
      </trkpt>
      <trkpt lat="45.18775" lon="5.09177">
        <ele>325.2</ele>
        <time>2021-05-03T12:41:52Z</time>
      </trkpt>
      <trkpt lat="45.18777" lon="5.09182">
        <ele>325.2</ele>
        <time>2021-05-03T12:41:53Z</time>
      </trkpt>
      <trkpt lat="45.1878" lon="5.09191">
        <ele>325.3</ele>
        <time>2021-05-03T12:41:54Z</time>
      </trkpt>
      <trkpt lat="45.18783" lon="5.09197">
        <ele>325.4</ele>
        <time>2021-05-03T12:41:56Z</time>
      </trkpt>
      <trkpt lat="45.18784" lon="5.09203">
        <ele>325.5</ele>
        <time>2021-05-03T12:41:57Z</time>
      </trkpt>
      <trkpt lat="45.18788" lon="5.09215">
        <ele>325.6</ele>
        <time>2021-05-03T12:41:59Z</time>
      </trkpt>
      <trkpt lat="45.18791" lon="5.09224">
        <ele>325.7</ele>
        <time>2021-05-03T12:42:00Z</time>
      </trkpt>
      <trkpt lat="45.18788" lon="5.09228">
        <ele>325.7</ele>
        <time>2021-05-03T12:42:01Z</time>
      </trkpt>
      <trkpt lat="45.18791" lon="5.09235">
        <ele>325.8</ele>
        <time>2021-05-03T12:42:02Z</time>
      </trkpt>
      <trkpt lat="45.18795" lon="5.09242">
        <ele>325.9</ele>
        <time>2021-05-03T12:42:03Z</time>
      </trkpt>
      <trkpt lat="45.18799" lon="5.0925">
        <ele>325.9</ele>
        <time>2021-05-03T12:42:05Z</time>
      </trkpt>
      <trkpt lat="45.18801" lon="5.09256">
        <ele>326</ele>
        <time>2021-05-03T12:42:06Z</time>
      </trkpt>
      <trkpt lat="45.18803" lon="5.09263">
        <ele>326.1</ele>
        <time>2021-05-03T12:42:07Z</time>
      </trkpt>
      <trkpt lat="45.18806" lon="5.0927">
        <ele>326.2</ele>
        <time>2021-05-03T12:42:08Z</time>
      </trkpt>
      <trkpt lat="45.18808" lon="5.09277">
        <ele>326.2</ele>
        <time>2021-05-03T12:42:10Z</time>
      </trkpt>
      <trkpt lat="45.18809" lon="5.09281">
        <ele>326.3</ele>
        <time>2021-05-03T12:42:11Z</time>
      </trkpt>
      <trkpt lat="45.18812" lon="5.09288">
        <ele>326.4</ele>
        <time>2021-05-03T12:42:12Z</time>
      </trkpt>
      <trkpt lat="45.18815" lon="5.09299">
        <ele>326.5</ele>
        <time>2021-05-03T12:42:14Z</time>
      </trkpt>
      <trkpt lat="45.18818" lon="5.09305">
        <ele>326.5</ele>
        <time>2021-05-03T12:42:15Z</time>
      </trkpt>
      <trkpt lat="45.18821" lon="5.09314">
        <ele>326.6</ele>
        <time>2021-05-03T12:42:17Z</time>
      </trkpt>
      <trkpt lat="45.18823" lon="5.09321">
        <ele>326.7</ele>
        <time>2021-05-03T12:42:18Z</time>
      </trkpt>
      <trkpt lat="45.18826" lon="5.09332">
        <ele>326.8</ele>
        <time>2021-05-03T12:42:20Z</time>
      </trkpt>
      <trkpt lat="45.18828" lon="5.09338">
        <ele>326.9</ele>
        <time>2021-05-03T12:42:21Z</time>
      </trkpt>
      <trkpt lat="45.18832" lon="5.09349">
        <ele>327</ele>
        <time>2021-05-03T12:42:22Z</time>
      </trkpt>
      <trkpt lat="45.18834" lon="5.09355">
        <ele>327.1</ele>
        <time>2021-05-03T12:42:24Z</time>
      </trkpt>
      <trkpt lat="45.18835" lon="5.0936">
        <ele>327.2</ele>
        <time>2021-05-03T12:42:25Z</time>
      </trkpt>
      <trkpt lat="45.18838" lon="5.0937">
        <ele>327.3</ele>
        <time>2021-05-03T12:42:27Z</time>
      </trkpt>
      <trkpt lat="45.18841" lon="5.09377">
        <ele>327.4</ele>
        <time>2021-05-03T12:42:28Z</time>
      </trkpt>
      <trkpt lat="45.18844" lon="5.09386">
        <ele>327.5</ele>
        <time>2021-05-03T12:42:30Z</time>
      </trkpt>
      <trkpt lat="45.18848" lon="5.09398">
        <ele>327.6</ele>
        <time>2021-05-03T12:42:32Z</time>
      </trkpt>
      <trkpt lat="45.1885" lon="5.09404">
        <ele>327.6</ele>
        <time>2021-05-03T12:42:33Z</time>
      </trkpt>
      <trkpt lat="45.18852" lon="5.09411">
        <ele>327.7</ele>
        <time>2021-05-03T12:42:34Z</time>
      </trkpt>
      <trkpt lat="45.18854" lon="5.09416">
        <ele>327.7</ele>
        <time>2021-05-03T12:42:35Z</time>
      </trkpt>
      <trkpt lat="45.18857" lon="5.09424">
        <ele>327.7</ele>
        <time>2021-05-03T12:42:37Z</time>
      </trkpt>
      <trkpt lat="45.18859" lon="5.09429">
        <ele>327.7</ele>
        <time>2021-05-03T12:42:38Z</time>
      </trkpt>
      <trkpt lat="45.18863" lon="5.09439">
        <ele>327.8</ele>
        <time>2021-05-03T12:42:40Z</time>
      </trkpt>
      <trkpt lat="45.18865" lon="5.09447">
        <ele>327.8</ele>
        <time>2021-05-03T12:42:41Z</time>
      </trkpt>
      <trkpt lat="45.18867" lon="5.09453">
        <ele>327.8</ele>
        <time>2021-05-03T12:42:42Z</time>
      </trkpt>
      <trkpt lat="45.1887" lon="5.09462">
        <ele>327.9</ele>
        <time>2021-05-03T12:42:44Z</time>
      </trkpt>
      <trkpt lat="45.18872" lon="5.09468">
        <ele>327.9</ele>
        <time>2021-05-03T12:42:45Z</time>
      </trkpt>
      <trkpt lat="45.18874" lon="5.09474">
        <ele>327.9</ele>
        <time>2021-05-03T12:42:46Z</time>
      </trkpt>
      <trkpt lat="45.18876" lon="5.0948">
        <ele>327.9</ele>
        <time>2021-05-03T12:42:47Z</time>
      </trkpt>
      <trkpt lat="45.18878" lon="5.09486">
        <ele>328</ele>
        <time>2021-05-03T12:42:48Z</time>
      </trkpt>
      <trkpt lat="45.1888" lon="5.09493">
        <ele>328</ele>
        <time>2021-05-03T12:42:49Z</time>
      </trkpt>
      <trkpt lat="45.18883" lon="5.09498">
        <ele>328</ele>
        <time>2021-05-03T12:42:50Z</time>
      </trkpt>
      <trkpt lat="45.18885" lon="5.09504">
        <ele>328.1</ele>
        <time>2021-05-03T12:42:51Z</time>
      </trkpt>
      <trkpt lat="45.18886" lon="5.09511">
        <ele>328.1</ele>
        <time>2021-05-03T12:42:52Z</time>
      </trkpt>
      <trkpt lat="45.18891" lon="5.09521">
        <ele>328.1</ele>
        <time>2021-05-03T12:42:54Z</time>
      </trkpt>
      <trkpt lat="45.18892" lon="5.09527">
        <ele>328.1</ele>
        <time>2021-05-03T12:42:55Z</time>
      </trkpt>
      <trkpt lat="45.18895" lon="5.09533">
        <ele>328.1</ele>
        <time>2021-05-03T12:42:56Z</time>
      </trkpt>
      <trkpt lat="45.18899" lon="5.09538">
        <ele>328.1</ele>
        <time>2021-05-03T12:42:57Z</time>
      </trkpt>
      <trkpt lat="45.189" lon="5.09545">
        <ele>328.2</ele>
        <time>2021-05-03T12:42:58Z</time>
      </trkpt>
      <trkpt lat="45.18902" lon="5.09556">
        <ele>328.2</ele>
        <time>2021-05-03T12:43:00Z</time>
      </trkpt>
      <trkpt lat="45.18903" lon="5.09563">
        <ele>328.2</ele>
        <time>2021-05-03T12:43:01Z</time>
      </trkpt>
      <trkpt lat="45.18905" lon="5.09569">
        <ele>328.2</ele>
        <time>2021-05-03T12:43:02Z</time>
      </trkpt>
      <trkpt lat="45.18907" lon="5.09574">
        <ele>328.3</ele>
        <time>2021-05-03T12:43:03Z</time>
      </trkpt>
      <trkpt lat="45.18909" lon="5.0958">
        <ele>328.3</ele>
        <time>2021-05-03T12:43:04Z</time>
      </trkpt>
      <trkpt lat="45.18912" lon="5.09586">
        <ele>328.3</ele>
        <time>2021-05-03T12:43:05Z</time>
      </trkpt>
      <trkpt lat="45.18914" lon="5.09592">
        <ele>328.3</ele>
        <time>2021-05-03T12:43:06Z</time>
      </trkpt>
      <trkpt lat="45.18916" lon="5.09598">
        <ele>328.4</ele>
        <time>2021-05-03T12:43:07Z</time>
      </trkpt>
      <trkpt lat="45.18918" lon="5.09604">
        <ele>328.4</ele>
        <time>2021-05-03T12:43:08Z</time>
      </trkpt>
      <trkpt lat="45.1892" lon="5.09611">
        <ele>328.4</ele>
        <time>2021-05-03T12:43:09Z</time>
      </trkpt>
      <trkpt lat="45.18922" lon="5.09617">
        <ele>328.5</ele>
        <time>2021-05-03T12:43:10Z</time>
      </trkpt>
      <trkpt lat="45.18924" lon="5.09623">
        <ele>328.5</ele>
        <time>2021-05-03T12:43:11Z</time>
      </trkpt>
      <trkpt lat="45.18927" lon="5.09629">
        <ele>328.5</ele>
        <time>2021-05-03T12:43:12Z</time>
      </trkpt>
      <trkpt lat="45.18929" lon="5.09635">
        <ele>328.5</ele>
        <time>2021-05-03T12:43:13Z</time>
      </trkpt>
      <trkpt lat="45.18931" lon="5.09642">
        <ele>328.5</ele>
        <time>2021-05-03T12:43:14Z</time>
      </trkpt>
      <trkpt lat="45.18933" lon="5.09647">
        <ele>328.6</ele>
        <time>2021-05-03T12:43:15Z</time>
      </trkpt>
      <trkpt lat="45.18936" lon="5.09653">
        <ele>328.6</ele>
        <time>2021-05-03T12:43:16Z</time>
      </trkpt>
      <trkpt lat="45.18938" lon="5.0966">
        <ele>328.6</ele>
        <time>2021-05-03T12:43:17Z</time>
      </trkpt>
      <trkpt lat="45.1894" lon="5.09666">
        <ele>328.7</ele>
        <time>2021-05-03T12:43:18Z</time>
      </trkpt>
      <trkpt lat="45.18942" lon="5.09673">
        <ele>328.7</ele>
        <time>2021-05-03T12:43:19Z</time>
      </trkpt>
      <trkpt lat="45.18945" lon="5.09679">
        <ele>328.8</ele>
        <time>2021-05-03T12:43:20Z</time>
      </trkpt>
      <trkpt lat="45.18947" lon="5.09685">
        <ele>328.8</ele>
        <time>2021-05-03T12:43:21Z</time>
      </trkpt>
      <trkpt lat="45.18949" lon="5.09691">
        <ele>328.9</ele>
        <time>2021-05-03T12:43:22Z</time>
      </trkpt>
      <trkpt lat="45.18951" lon="5.09697">
        <ele>329</ele>
        <time>2021-05-03T12:43:23Z</time>
      </trkpt>
      <trkpt lat="45.18952" lon="5.09704">
        <ele>329.1</ele>
        <time>2021-05-03T12:43:24Z</time>
      </trkpt>
      <trkpt lat="45.18954" lon="5.0971">
        <ele>329.1</ele>
        <time>2021-05-03T12:43:25Z</time>
      </trkpt>
      <trkpt lat="45.18956" lon="5.09716">
        <ele>329.2</ele>
        <time>2021-05-03T12:43:26Z</time>
      </trkpt>
      <trkpt lat="45.18958" lon="5.09722">
        <ele>329.3</ele>
        <time>2021-05-03T12:43:27Z</time>
      </trkpt>
      <trkpt lat="45.18959" lon="5.09726">
        <ele>329.3</ele>
        <time>2021-05-03T12:43:28Z</time>
      </trkpt>
      <trkpt lat="45.1896" lon="5.09731">
        <ele>329.4</ele>
        <time>2021-05-03T12:43:29Z</time>
      </trkpt>
      <trkpt lat="45.18962" lon="5.09736">
        <ele>329.4</ele>
        <time>2021-05-03T12:43:30Z</time>
      </trkpt>
      <trkpt lat="45.18964" lon="5.09742">
        <ele>329.5</ele>
        <time>2021-05-03T12:43:31Z</time>
      </trkpt>
      <trkpt lat="45.18965" lon="5.09749">
        <ele>329.6</ele>
        <time>2021-05-03T12:43:32Z</time>
      </trkpt>
      <trkpt lat="45.18967" lon="5.09755">
        <ele>329.7</ele>
        <time>2021-05-03T12:43:33Z</time>
      </trkpt>
      <trkpt lat="45.18969" lon="5.09761">
        <ele>329.8</ele>
        <time>2021-05-03T12:43:34Z</time>
      </trkpt>
      <trkpt lat="45.18973" lon="5.09766">
        <ele>329.9</ele>
        <time>2021-05-03T12:43:35Z</time>
      </trkpt>
      <trkpt lat="45.18975" lon="5.09774">
        <ele>330</ele>
        <time>2021-05-03T12:43:36Z</time>
      </trkpt>
      <trkpt lat="45.18977" lon="5.09784">
        <ele>330.2</ele>
        <time>2021-05-03T12:43:37Z</time>
      </trkpt>
      <trkpt lat="45.18978" lon="5.0979">
        <ele>330.2</ele>
        <time>2021-05-03T12:43:39Z</time>
      </trkpt>
      <trkpt lat="45.18981" lon="5.09801">
        <ele>330.3</ele>
        <time>2021-05-03T12:43:41Z</time>
      </trkpt>
      <trkpt lat="45.18983" lon="5.09809">
        <ele>330.4</ele>
        <time>2021-05-03T12:43:42Z</time>
      </trkpt>
      <trkpt lat="45.18985" lon="5.09819">
        <ele>330.5</ele>
        <time>2021-05-03T12:43:44Z</time>
      </trkpt>
      <trkpt lat="45.18987" lon="5.09825">
        <ele>330.6</ele>
        <time>2021-05-03T12:43:45Z</time>
      </trkpt>
      <trkpt lat="45.18989" lon="5.09831">
        <ele>330.6</ele>
        <time>2021-05-03T12:43:46Z</time>
      </trkpt>
      <trkpt lat="45.1899" lon="5.09837">
        <ele>330.7</ele>
        <time>2021-05-03T12:43:47Z</time>
      </trkpt>
      <trkpt lat="45.18992" lon="5.09843">
        <ele>330.8</ele>
        <time>2021-05-03T12:43:48Z</time>
      </trkpt>
      <trkpt lat="45.18994" lon="5.09849">
        <ele>330.8</ele>
        <time>2021-05-03T12:43:49Z</time>
      </trkpt>
      <trkpt lat="45.18995" lon="5.09856">
        <ele>330.9</ele>
        <time>2021-05-03T12:43:50Z</time>
      </trkpt>
      <trkpt lat="45.18997" lon="5.09862">
        <ele>331</ele>
        <time>2021-05-03T12:43:51Z</time>
      </trkpt>
      <trkpt lat="45.18999" lon="5.09868">
        <ele>331.1</ele>
        <time>2021-05-03T12:43:52Z</time>
      </trkpt>
      <trkpt lat="45.19" lon="5.09874">
        <ele>331.2</ele>
        <time>2021-05-03T12:43:53Z</time>
      </trkpt>
      <trkpt lat="45.19002" lon="5.0988">
        <ele>331.3</ele>
        <time>2021-05-03T12:43:54Z</time>
      </trkpt>
      <trkpt lat="45.19003" lon="5.09884">
        <ele>331.4</ele>
        <time>2021-05-03T12:43:55Z</time>
      </trkpt>
      <trkpt lat="45.19005" lon="5.0989">
        <ele>331.4</ele>
        <time>2021-05-03T12:43:56Z</time>
      </trkpt>
      <trkpt lat="45.19006" lon="5.09896">
        <ele>331.5</ele>
        <time>2021-05-03T12:43:57Z</time>
      </trkpt>
      <trkpt lat="45.19008" lon="5.09901">
        <ele>331.6</ele>
        <time>2021-05-03T12:43:58Z</time>
      </trkpt>
      <trkpt lat="45.19009" lon="5.09908">
        <ele>331.7</ele>
        <time>2021-05-03T12:43:59Z</time>
      </trkpt>
      <trkpt lat="45.19011" lon="5.09915">
        <ele>331.8</ele>
        <time>2021-05-03T12:44:00Z</time>
      </trkpt>
      <trkpt lat="45.19012" lon="5.09922">
        <ele>331.9</ele>
        <time>2021-05-03T12:44:01Z</time>
      </trkpt>
      <trkpt lat="45.19014" lon="5.09929">
        <ele>332</ele>
        <time>2021-05-03T12:44:02Z</time>
      </trkpt>
      <trkpt lat="45.19015" lon="5.09935">
        <ele>332</ele>
        <time>2021-05-03T12:44:03Z</time>
      </trkpt>
      <trkpt lat="45.19015" lon="5.0994">
        <ele>332.1</ele>
        <time>2021-05-03T12:44:04Z</time>
      </trkpt>
      <trkpt lat="45.19016" lon="5.09941">
        <ele>332.1</ele>
        <time>2021-05-03T12:44:05Z</time>
      </trkpt>
      <trkpt lat="45.1902" lon="5.09955">
        <ele>332.3</ele>
        <time>2021-05-03T12:44:07Z</time>
      </trkpt>
      <trkpt lat="45.19022" lon="5.09963">
        <ele>332.4</ele>
        <time>2021-05-03T12:44:08Z</time>
      </trkpt>
      <trkpt lat="45.19025" lon="5.0997">
        <ele>332.5</ele>
        <time>2021-05-03T12:44:09Z</time>
      </trkpt>
      <trkpt lat="45.19027" lon="5.09981">
        <ele>332.6</ele>
        <time>2021-05-03T12:44:11Z</time>
      </trkpt>
      <trkpt lat="45.19031" lon="5.09993">
        <ele>332.8</ele>
        <time>2021-05-03T12:44:13Z</time>
      </trkpt>
      <trkpt lat="45.19034" lon="5.10003">
        <ele>332.9</ele>
        <time>2021-05-03T12:44:15Z</time>
      </trkpt>
      <trkpt lat="45.19037" lon="5.10014">
        <ele>333.1</ele>
        <time>2021-05-03T12:44:17Z</time>
      </trkpt>
      <trkpt lat="45.1904" lon="5.10025">
        <ele>333.2</ele>
        <time>2021-05-03T12:44:19Z</time>
      </trkpt>
      <trkpt lat="45.19043" lon="5.10037">
        <ele>333.4</ele>
        <time>2021-05-03T12:44:21Z</time>
      </trkpt>
      <trkpt lat="45.19045" lon="5.10045">
        <ele>333.5</ele>
        <time>2021-05-03T12:44:22Z</time>
      </trkpt>
      <trkpt lat="45.19049" lon="5.10055">
        <ele>333.6</ele>
        <time>2021-05-03T12:44:24Z</time>
      </trkpt>
      <trkpt lat="45.19051" lon="5.10062">
        <ele>333.6</ele>
        <time>2021-05-03T12:44:25Z</time>
      </trkpt>
      <trkpt lat="45.19054" lon="5.10072">
        <ele>333.7</ele>
        <time>2021-05-03T12:44:27Z</time>
      </trkpt>
      <trkpt lat="45.19058" lon="5.10084">
        <ele>333.8</ele>
        <time>2021-05-03T12:44:29Z</time>
      </trkpt>
      <trkpt lat="45.1906" lon="5.10094">
        <ele>333.9</ele>
        <time>2021-05-03T12:44:31Z</time>
      </trkpt>
      <trkpt lat="45.19062" lon="5.101">
        <ele>334</ele>
        <time>2021-05-03T12:44:32Z</time>
      </trkpt>
      <trkpt lat="45.19064" lon="5.10106">
        <ele>334</ele>
        <time>2021-05-03T12:44:33Z</time>
      </trkpt>
      <trkpt lat="45.19066" lon="5.10117">
        <ele>334.1</ele>
        <time>2021-05-03T12:44:35Z</time>
      </trkpt>
      <trkpt lat="45.19068" lon="5.10123">
        <ele>334.2</ele>
        <time>2021-05-03T12:44:36Z</time>
      </trkpt>
      <trkpt lat="45.1907" lon="5.10129">
        <ele>334.2</ele>
        <time>2021-05-03T12:44:37Z</time>
      </trkpt>
      <trkpt lat="45.1907" lon="5.10134">
        <ele>334.2</ele>
        <time>2021-05-03T12:44:38Z</time>
      </trkpt>
      <trkpt lat="45.19069" lon="5.10138">
        <ele>334.3</ele>
        <time>2021-05-03T12:44:39Z</time>
      </trkpt>
      <trkpt lat="45.19076" lon="5.10151">
        <ele>334.4</ele>
        <time>2021-05-03T12:44:41Z</time>
      </trkpt>
      <trkpt lat="45.19077" lon="5.10158">
        <ele>334.5</ele>
        <time>2021-05-03T12:44:42Z</time>
      </trkpt>
      <trkpt lat="45.19079" lon="5.10164">
        <ele>334.6</ele>
        <time>2021-05-03T12:44:43Z</time>
      </trkpt>
      <trkpt lat="45.19081" lon="5.1017">
        <ele>334.6</ele>
        <time>2021-05-03T12:44:44Z</time>
      </trkpt>
      <trkpt lat="45.19082" lon="5.10177">
        <ele>334.7</ele>
        <time>2021-05-03T12:44:45Z</time>
      </trkpt>
      <trkpt lat="45.19085" lon="5.10183">
        <ele>334.7</ele>
        <time>2021-05-03T12:44:46Z</time>
      </trkpt>
      <trkpt lat="45.19086" lon="5.10189">
        <ele>334.8</ele>
        <time>2021-05-03T12:44:47Z</time>
      </trkpt>
      <trkpt lat="45.19088" lon="5.10196">
        <ele>334.8</ele>
        <time>2021-05-03T12:44:48Z</time>
      </trkpt>
      <trkpt lat="45.1909" lon="5.10203">
        <ele>334.9</ele>
        <time>2021-05-03T12:44:49Z</time>
      </trkpt>
      <trkpt lat="45.19092" lon="5.10209">
        <ele>334.9</ele>
        <time>2021-05-03T12:44:50Z</time>
      </trkpt>
      <trkpt lat="45.19094" lon="5.10216">
        <ele>334.9</ele>
        <time>2021-05-03T12:44:51Z</time>
      </trkpt>
      <trkpt lat="45.19096" lon="5.10222">
        <ele>335</ele>
        <time>2021-05-03T12:44:52Z</time>
      </trkpt>
      <trkpt lat="45.19097" lon="5.10228">
        <ele>335</ele>
        <time>2021-05-03T12:44:53Z</time>
      </trkpt>
      <trkpt lat="45.19099" lon="5.10235">
        <ele>335.1</ele>
        <time>2021-05-03T12:44:54Z</time>
      </trkpt>
      <trkpt lat="45.191" lon="5.10241">
        <ele>335.1</ele>
        <time>2021-05-03T12:44:55Z</time>
      </trkpt>
      <trkpt lat="45.19102" lon="5.10248">
        <ele>335.2</ele>
        <time>2021-05-03T12:44:56Z</time>
      </trkpt>
      <trkpt lat="45.19104" lon="5.10254">
        <ele>335.2</ele>
        <time>2021-05-03T12:44:57Z</time>
      </trkpt>
      <trkpt lat="45.19105" lon="5.10261">
        <ele>335.3</ele>
        <time>2021-05-03T12:44:58Z</time>
      </trkpt>
      <trkpt lat="45.19107" lon="5.10267">
        <ele>335.3</ele>
        <time>2021-05-03T12:44:59Z</time>
      </trkpt>
      <trkpt lat="45.19109" lon="5.10273">
        <ele>335.4</ele>
        <time>2021-05-03T12:45:00Z</time>
      </trkpt>
      <trkpt lat="45.1911" lon="5.10279">
        <ele>335.5</ele>
        <time>2021-05-03T12:45:01Z</time>
      </trkpt>
      <trkpt lat="45.19112" lon="5.10286">
        <ele>335.5</ele>
        <time>2021-05-03T12:45:02Z</time>
      </trkpt>
      <trkpt lat="45.19114" lon="5.10292">
        <ele>335.6</ele>
        <time>2021-05-03T12:45:03Z</time>
      </trkpt>
      <trkpt lat="45.19115" lon="5.10298">
        <ele>335.7</ele>
        <time>2021-05-03T12:45:04Z</time>
      </trkpt>
      <trkpt lat="45.19117" lon="5.10304">
        <ele>335.8</ele>
        <time>2021-05-03T12:45:05Z</time>
      </trkpt>
      <trkpt lat="45.19119" lon="5.1031">
        <ele>335.8</ele>
        <time>2021-05-03T12:45:06Z</time>
      </trkpt>
      <trkpt lat="45.19121" lon="5.10317">
        <ele>335.9</ele>
        <time>2021-05-03T12:45:07Z</time>
      </trkpt>
      <trkpt lat="45.19123" lon="5.10324">
        <ele>336</ele>
        <time>2021-05-03T12:45:08Z</time>
      </trkpt>
      <trkpt lat="45.19125" lon="5.10331">
        <ele>336.1</ele>
        <time>2021-05-03T12:45:09Z</time>
      </trkpt>
      <trkpt lat="45.19127" lon="5.10337">
        <ele>336.1</ele>
        <time>2021-05-03T12:45:10Z</time>
      </trkpt>
      <trkpt lat="45.19128" lon="5.10344">
        <ele>336.2</ele>
        <time>2021-05-03T12:45:11Z</time>
      </trkpt>
      <trkpt lat="45.1913" lon="5.1035">
        <ele>336.2</ele>
        <time>2021-05-03T12:45:12Z</time>
      </trkpt>
      <trkpt lat="45.19132" lon="5.10357">
        <ele>336.3</ele>
        <time>2021-05-03T12:45:13Z</time>
      </trkpt>
      <trkpt lat="45.19133" lon="5.10363">
        <ele>336.3</ele>
        <time>2021-05-03T12:45:14Z</time>
      </trkpt>
      <trkpt lat="45.19135" lon="5.1037">
        <ele>336.4</ele>
        <time>2021-05-03T12:45:15Z</time>
      </trkpt>
      <trkpt lat="45.19137" lon="5.10376">
        <ele>336.4</ele>
        <time>2021-05-03T12:45:16Z</time>
      </trkpt>
      <trkpt lat="45.19139" lon="5.10382">
        <ele>336.5</ele>
        <time>2021-05-03T12:45:17Z</time>
      </trkpt>
      <trkpt lat="45.19141" lon="5.10388">
        <ele>336.6</ele>
        <time>2021-05-03T12:45:18Z</time>
      </trkpt>
      <trkpt lat="45.19143" lon="5.10395">
        <ele>336.6</ele>
        <time>2021-05-03T12:45:19Z</time>
      </trkpt>
      <trkpt lat="45.19145" lon="5.10401">
        <ele>336.7</ele>
        <time>2021-05-03T12:45:20Z</time>
      </trkpt>
      <trkpt lat="45.19147" lon="5.10407">
        <ele>336.8</ele>
        <time>2021-05-03T12:45:21Z</time>
      </trkpt>
      <trkpt lat="45.19149" lon="5.10413">
        <ele>336.8</ele>
        <time>2021-05-03T12:45:22Z</time>
      </trkpt>
      <trkpt lat="45.1915" lon="5.1042">
        <ele>336.9</ele>
        <time>2021-05-03T12:45:23Z</time>
      </trkpt>
      <trkpt lat="45.19152" lon="5.10426">
        <ele>336.9</ele>
        <time>2021-05-03T12:45:24Z</time>
      </trkpt>
      <trkpt lat="45.19154" lon="5.10432">
        <ele>337</ele>
        <time>2021-05-03T12:45:25Z</time>
      </trkpt>
      <trkpt lat="45.19156" lon="5.10438">
        <ele>337.1</ele>
        <time>2021-05-03T12:45:26Z</time>
      </trkpt>
      <trkpt lat="45.19158" lon="5.10444">
        <ele>337.1</ele>
        <time>2021-05-03T12:45:27Z</time>
      </trkpt>
      <trkpt lat="45.19159" lon="5.1045">
        <ele>337.2</ele>
        <time>2021-05-03T12:45:28Z</time>
      </trkpt>
      <trkpt lat="45.1916" lon="5.10454">
        <ele>337.2</ele>
        <time>2021-05-03T12:45:29Z</time>
      </trkpt>
      <trkpt lat="45.19162" lon="5.10461">
        <ele>337.3</ele>
        <time>2021-05-03T12:45:30Z</time>
      </trkpt>
      <trkpt lat="45.19164" lon="5.10468">
        <ele>337.4</ele>
        <time>2021-05-03T12:45:31Z</time>
      </trkpt>
      <trkpt lat="45.19165" lon="5.10472">
        <ele>337.4</ele>
        <time>2021-05-03T12:45:32Z</time>
      </trkpt>
      <trkpt lat="45.19167" lon="5.10478">
        <ele>337.5</ele>
        <time>2021-05-03T12:45:33Z</time>
      </trkpt>
      <trkpt lat="45.19169" lon="5.10485">
        <ele>337.6</ele>
        <time>2021-05-03T12:45:34Z</time>
      </trkpt>
      <trkpt lat="45.19171" lon="5.10491">
        <ele>337.7</ele>
        <time>2021-05-03T12:45:35Z</time>
      </trkpt>
      <trkpt lat="45.19172" lon="5.10498">
        <ele>337.8</ele>
        <time>2021-05-03T12:45:36Z</time>
      </trkpt>
      <trkpt lat="45.19174" lon="5.10504">
        <ele>337.9</ele>
        <time>2021-05-03T12:45:37Z</time>
      </trkpt>
      <trkpt lat="45.19176" lon="5.1051">
        <ele>337.9</ele>
        <time>2021-05-03T12:45:38Z</time>
      </trkpt>
      <trkpt lat="45.19178" lon="5.10516">
        <ele>338</ele>
        <time>2021-05-03T12:45:39Z</time>
      </trkpt>
      <trkpt lat="45.1918" lon="5.10522">
        <ele>338.1</ele>
        <time>2021-05-03T12:45:40Z</time>
      </trkpt>
      <trkpt lat="45.19181" lon="5.10528">
        <ele>338.1</ele>
        <time>2021-05-03T12:45:41Z</time>
      </trkpt>
      <trkpt lat="45.19183" lon="5.10534">
        <ele>338.2</ele>
        <time>2021-05-03T12:45:42Z</time>
      </trkpt>
      <trkpt lat="45.19185" lon="5.1054">
        <ele>338.3</ele>
        <time>2021-05-03T12:45:43Z</time>
      </trkpt>
      <trkpt lat="45.19187" lon="5.10549">
        <ele>338.4</ele>
        <time>2021-05-03T12:45:44Z</time>
      </trkpt>
      <trkpt lat="45.19189" lon="5.10554">
        <ele>338.5</ele>
        <time>2021-05-03T12:45:45Z</time>
      </trkpt>
      <trkpt lat="45.1919" lon="5.10564">
        <ele>338.6</ele>
        <time>2021-05-03T12:45:47Z</time>
      </trkpt>
      <trkpt lat="45.19193" lon="5.10571">
        <ele>338.7</ele>
        <time>2021-05-03T12:45:48Z</time>
      </trkpt>
      <trkpt lat="45.19194" lon="5.10576">
        <ele>338.8</ele>
        <time>2021-05-03T12:45:49Z</time>
      </trkpt>
      <trkpt lat="45.19195" lon="5.1058">
        <ele>338.9</ele>
        <time>2021-05-03T12:45:50Z</time>
      </trkpt>
      <trkpt lat="45.19198" lon="5.1059">
        <ele>339</ele>
        <time>2021-05-03T12:45:52Z</time>
      </trkpt>
      <trkpt lat="45.192" lon="5.10597">
        <ele>339.1</ele>
        <time>2021-05-03T12:45:53Z</time>
      </trkpt>
      <trkpt lat="45.19201" lon="5.10603">
        <ele>339.2</ele>
        <time>2021-05-03T12:45:54Z</time>
      </trkpt>
      <trkpt lat="45.19204" lon="5.10614">
        <ele>339.3</ele>
        <time>2021-05-03T12:45:55Z</time>
      </trkpt>
      <trkpt lat="45.19206" lon="5.1062">
        <ele>339.4</ele>
        <time>2021-05-03T12:45:56Z</time>
      </trkpt>
      <trkpt lat="45.19208" lon="5.10627">
        <ele>339.5</ele>
        <time>2021-05-03T12:45:58Z</time>
      </trkpt>
      <trkpt lat="45.1921" lon="5.10633">
        <ele>339.6</ele>
        <time>2021-05-03T12:45:59Z</time>
      </trkpt>
      <trkpt lat="45.19212" lon="5.1064">
        <ele>339.7</ele>
        <time>2021-05-03T12:46:00Z</time>
      </trkpt>
      <trkpt lat="45.19214" lon="5.10647">
        <ele>339.7</ele>
        <time>2021-05-03T12:46:01Z</time>
      </trkpt>
      <trkpt lat="45.19217" lon="5.10656">
        <ele>339.9</ele>
        <time>2021-05-03T12:46:03Z</time>
      </trkpt>
      <trkpt lat="45.19219" lon="5.10666">
        <ele>340</ele>
        <time>2021-05-03T12:46:05Z</time>
      </trkpt>
      <trkpt lat="45.19221" lon="5.10673">
        <ele>340.1</ele>
        <time>2021-05-03T12:46:06Z</time>
      </trkpt>
      <trkpt lat="45.19223" lon="5.10679">
        <ele>340.2</ele>
        <time>2021-05-03T12:46:07Z</time>
      </trkpt>
      <trkpt lat="45.19226" lon="5.10689">
        <ele>340.4</ele>
        <time>2021-05-03T12:46:08Z</time>
      </trkpt>
      <trkpt lat="45.19228" lon="5.10695">
        <ele>340.5</ele>
        <time>2021-05-03T12:46:10Z</time>
      </trkpt>
      <trkpt lat="45.19229" lon="5.10702">
        <ele>340.6</ele>
        <time>2021-05-03T12:46:11Z</time>
      </trkpt>
      <trkpt lat="45.19232" lon="5.10711">
        <ele>340.7</ele>
        <time>2021-05-03T12:46:13Z</time>
      </trkpt>
      <trkpt lat="45.19233" lon="5.10716">
        <ele>340.8</ele>
        <time>2021-05-03T12:46:14Z</time>
      </trkpt>
      <trkpt lat="45.19236" lon="5.10726">
        <ele>340.9</ele>
        <time>2021-05-03T12:46:16Z</time>
      </trkpt>
      <trkpt lat="45.19238" lon="5.10732">
        <ele>341</ele>
        <time>2021-05-03T12:46:17Z</time>
      </trkpt>
      <trkpt lat="45.19241" lon="5.10743">
        <ele>341.2</ele>
        <time>2021-05-03T12:46:19Z</time>
      </trkpt>
      <trkpt lat="45.19244" lon="5.10752">
        <ele>341.4</ele>
        <time>2021-05-03T12:46:21Z</time>
      </trkpt>
      <trkpt lat="45.19246" lon="5.10758">
        <ele>341.5</ele>
        <time>2021-05-03T12:46:22Z</time>
      </trkpt>
      <trkpt lat="45.19248" lon="5.10767">
        <ele>341.8</ele>
        <time>2021-05-03T12:46:24Z</time>
      </trkpt>
      <trkpt lat="45.1925" lon="5.10772">
        <ele>341.9</ele>
        <time>2021-05-03T12:46:25Z</time>
      </trkpt>
      <trkpt lat="45.19252" lon="5.10783">
        <ele>342.1</ele>
        <time>2021-05-03T12:46:27Z</time>
      </trkpt>
      <trkpt lat="45.19253" lon="5.10789">
        <ele>342.2</ele>
        <time>2021-05-03T12:46:28Z</time>
      </trkpt>
      <trkpt lat="45.19255" lon="5.10796">
        <ele>342.4</ele>
        <time>2021-05-03T12:46:29Z</time>
      </trkpt>
      <trkpt lat="45.19257" lon="5.10803">
        <ele>342.6</ele>
        <time>2021-05-03T12:46:31Z</time>
      </trkpt>
      <trkpt lat="45.19259" lon="5.10814">
        <ele>342.8</ele>
        <time>2021-05-03T12:46:33Z</time>
      </trkpt>
      <trkpt lat="45.19261" lon="5.10821">
        <ele>342.9</ele>
        <time>2021-05-03T12:46:34Z</time>
      </trkpt>
      <trkpt lat="45.19262" lon="5.10827">
        <ele>343</ele>
        <time>2021-05-03T12:46:35Z</time>
      </trkpt>
      <trkpt lat="45.19264" lon="5.10832">
        <ele>343.1</ele>
        <time>2021-05-03T12:46:36Z</time>
      </trkpt>
      <trkpt lat="45.19265" lon="5.10838">
        <ele>343.2</ele>
        <time>2021-05-03T12:46:37Z</time>
      </trkpt>
      <trkpt lat="45.19267" lon="5.10844">
        <ele>343.3</ele>
        <time>2021-05-03T12:46:39Z</time>
      </trkpt>
      <trkpt lat="45.19268" lon="5.1085">
        <ele>343.4</ele>
        <time>2021-05-03T12:46:40Z</time>
      </trkpt>
      <trkpt lat="45.1927" lon="5.10857">
        <ele>343.6</ele>
        <time>2021-05-03T12:46:41Z</time>
      </trkpt>
      <trkpt lat="45.19272" lon="5.10863">
        <ele>343.7</ele>
        <time>2021-05-03T12:46:42Z</time>
      </trkpt>
      <trkpt lat="45.19274" lon="5.10869">
        <ele>343.8</ele>
        <time>2021-05-03T12:46:44Z</time>
      </trkpt>
      <trkpt lat="45.19276" lon="5.10876">
        <ele>343.9</ele>
        <time>2021-05-03T12:46:45Z</time>
      </trkpt>
      <trkpt lat="45.19277" lon="5.10881">
        <ele>344</ele>
        <time>2021-05-03T12:46:46Z</time>
      </trkpt>
      <trkpt lat="45.19279" lon="5.10888">
        <ele>344.2</ele>
        <time>2021-05-03T12:46:48Z</time>
      </trkpt>
      <trkpt lat="45.1928" lon="5.10892">
        <ele>344.2</ele>
        <time>2021-05-03T12:46:49Z</time>
      </trkpt>
      <trkpt lat="45.19284" lon="5.10903">
        <ele>344.5</ele>
        <time>2021-05-03T12:46:51Z</time>
      </trkpt>
      <trkpt lat="45.19286" lon="5.10913">
        <ele>344.7</ele>
        <time>2021-05-03T12:46:53Z</time>
      </trkpt>
      <trkpt lat="45.19289" lon="5.10922">
        <ele>344.9</ele>
        <time>2021-05-03T12:46:55Z</time>
      </trkpt>
      <trkpt lat="45.1929" lon="5.10928">
        <ele>345</ele>
        <time>2021-05-03T12:46:56Z</time>
      </trkpt>
      <trkpt lat="45.19292" lon="5.10933">
        <ele>345.1</ele>
        <time>2021-05-03T12:46:57Z</time>
      </trkpt>
      <trkpt lat="45.19294" lon="5.10941">
        <ele>345.3</ele>
        <time>2021-05-03T12:46:58Z</time>
      </trkpt>
      <trkpt lat="45.19296" lon="5.10948">
        <ele>345.4</ele>
        <time>2021-05-03T12:47:00Z</time>
      </trkpt>
      <trkpt lat="45.19297" lon="5.10953">
        <ele>345.5</ele>
        <time>2021-05-03T12:47:01Z</time>
      </trkpt>
      <trkpt lat="45.19299" lon="5.10959">
        <ele>345.6</ele>
        <time>2021-05-03T12:47:02Z</time>
      </trkpt>
      <trkpt lat="45.19302" lon="5.10966">
        <ele>345.7</ele>
        <time>2021-05-03T12:47:04Z</time>
      </trkpt>
      <trkpt lat="45.19303" lon="5.10972">
        <ele>345.8</ele>
        <time>2021-05-03T12:47:05Z</time>
      </trkpt>
      <trkpt lat="45.19305" lon="5.1098">
        <ele>345.9</ele>
        <time>2021-05-03T12:47:07Z</time>
      </trkpt>
      <trkpt lat="45.19307" lon="5.10989">
        <ele>346</ele>
        <time>2021-05-03T12:47:09Z</time>
      </trkpt>
      <trkpt lat="45.19309" lon="5.10995">
        <ele>346.1</ele>
        <time>2021-05-03T12:47:10Z</time>
      </trkpt>
      <trkpt lat="45.19312" lon="5.11006">
        <ele>346.3</ele>
        <time>2021-05-03T12:47:12Z</time>
      </trkpt>
      <trkpt lat="45.19314" lon="5.11013">
        <ele>346.4</ele>
        <time>2021-05-03T12:47:13Z</time>
      </trkpt>
      <trkpt lat="45.19317" lon="5.11024">
        <ele>346.7</ele>
        <time>2021-05-03T12:47:15Z</time>
      </trkpt>
      <trkpt lat="45.1932" lon="5.11033">
        <ele>346.9</ele>
        <time>2021-05-03T12:47:17Z</time>
      </trkpt>
      <trkpt lat="45.19322" lon="5.11037">
        <ele>347</ele>
        <time>2021-05-03T12:47:18Z</time>
      </trkpt>
      <trkpt lat="45.19324" lon="5.11047">
        <ele>347.2</ele>
        <time>2021-05-03T12:47:20Z</time>
      </trkpt>
      <trkpt lat="45.19326" lon="5.11053">
        <ele>347.4</ele>
        <time>2021-05-03T12:47:21Z</time>
      </trkpt>
      <trkpt lat="45.19328" lon="5.11063">
        <ele>347.6</ele>
        <time>2021-05-03T12:47:23Z</time>
      </trkpt>
      <trkpt lat="45.19331" lon="5.11073">
        <ele>347.8</ele>
        <time>2021-05-03T12:47:25Z</time>
      </trkpt>
      <trkpt lat="45.19334" lon="5.11079">
        <ele>348</ele>
        <time>2021-05-03T12:47:26Z</time>
      </trkpt>
      <trkpt lat="45.19336" lon="5.11083">
        <ele>348.1</ele>
        <time>2021-05-03T12:47:27Z</time>
      </trkpt>
      <trkpt lat="45.19337" lon="5.11088">
        <ele>348.3</ele>
        <time>2021-05-03T12:47:29Z</time>
      </trkpt>
      <trkpt lat="45.19338" lon="5.11094">
        <ele>348.4</ele>
        <time>2021-05-03T12:47:30Z</time>
      </trkpt>
      <trkpt lat="45.1934" lon="5.11099">
        <ele>348.5</ele>
        <time>2021-05-03T12:47:31Z</time>
      </trkpt>
      <trkpt lat="45.19341" lon="5.11103">
        <ele>348.7</ele>
        <time>2021-05-03T12:47:32Z</time>
      </trkpt>
      <trkpt lat="45.19343" lon="5.11109">
        <ele>348.8</ele>
        <time>2021-05-03T12:47:33Z</time>
      </trkpt>
      <trkpt lat="45.19345" lon="5.11114">
        <ele>348.9</ele>
        <time>2021-05-03T12:47:35Z</time>
      </trkpt>
      <trkpt lat="45.19347" lon="5.11122">
        <ele>349.2</ele>
        <time>2021-05-03T12:47:37Z</time>
      </trkpt>
      <trkpt lat="45.19349" lon="5.11127">
        <ele>349.3</ele>
        <time>2021-05-03T12:47:38Z</time>
      </trkpt>
      <trkpt lat="45.1935" lon="5.11133">
        <ele>349.5</ele>
        <time>2021-05-03T12:47:39Z</time>
      </trkpt>
      <trkpt lat="45.19352" lon="5.11138">
        <ele>349.6</ele>
        <time>2021-05-03T12:47:41Z</time>
      </trkpt>
      <trkpt lat="45.19354" lon="5.11146">
        <ele>349.8</ele>
        <time>2021-05-03T12:47:43Z</time>
      </trkpt>
      <trkpt lat="45.19356" lon="5.11152">
        <ele>350</ele>
        <time>2021-05-03T12:47:44Z</time>
      </trkpt>
      <trkpt lat="45.19358" lon="5.11159">
        <ele>350.2</ele>
        <time>2021-05-03T12:47:46Z</time>
      </trkpt>
      <trkpt lat="45.19359" lon="5.11163">
        <ele>350.3</ele>
        <time>2021-05-03T12:47:47Z</time>
      </trkpt>
      <trkpt lat="45.1936" lon="5.11168">
        <ele>350.4</ele>
        <time>2021-05-03T12:47:48Z</time>
      </trkpt>
      <trkpt lat="45.19363" lon="5.11176">
        <ele>350.7</ele>
        <time>2021-05-03T12:47:50Z</time>
      </trkpt>
      <trkpt lat="45.19364" lon="5.11181">
        <ele>350.8</ele>
        <time>2021-05-03T12:47:51Z</time>
      </trkpt>
      <trkpt lat="45.19367" lon="5.11189">
        <ele>351.1</ele>
        <time>2021-05-03T12:47:53Z</time>
      </trkpt>
      <trkpt lat="45.1937" lon="5.11198">
        <ele>351.3</ele>
        <time>2021-05-03T12:47:55Z</time>
      </trkpt>
      <trkpt lat="45.19373" lon="5.11207">
        <ele>351.6</ele>
        <time>2021-05-03T12:47:57Z</time>
      </trkpt>
      <trkpt lat="45.19375" lon="5.11212">
        <ele>351.7</ele>
        <time>2021-05-03T12:47:58Z</time>
      </trkpt>
      <trkpt lat="45.19377" lon="5.11222">
        <ele>352</ele>
        <time>2021-05-03T12:48:00Z</time>
      </trkpt>
      <trkpt lat="45.1938" lon="5.11229">
        <ele>352.2</ele>
        <time>2021-05-03T12:48:02Z</time>
      </trkpt>
      <trkpt lat="45.19381" lon="5.11233">
        <ele>352.3</ele>
        <time>2021-05-03T12:48:03Z</time>
      </trkpt>
      <trkpt lat="45.19383" lon="5.11239">
        <ele>352.5</ele>
        <time>2021-05-03T12:48:04Z</time>
      </trkpt>
      <trkpt lat="45.19384" lon="5.11247">
        <ele>352.7</ele>
        <time>2021-05-03T12:48:06Z</time>
      </trkpt>
      <trkpt lat="45.19388" lon="5.11256">
        <ele>352.9</ele>
        <time>2021-05-03T12:48:08Z</time>
      </trkpt>
      <trkpt lat="45.1939" lon="5.11264">
        <ele>353.1</ele>
        <time>2021-05-03T12:48:10Z</time>
      </trkpt>
      <trkpt lat="45.19392" lon="5.11273">
        <ele>353.3</ele>
        <time>2021-05-03T12:48:12Z</time>
      </trkpt>
      <trkpt lat="45.19393" lon="5.11277">
        <ele>353.4</ele>
        <time>2021-05-03T12:48:13Z</time>
      </trkpt>
      <trkpt lat="45.19396" lon="5.11286">
        <ele>353.6</ele>
        <time>2021-05-03T12:48:15Z</time>
      </trkpt>
      <trkpt lat="45.19398" lon="5.11293">
        <ele>353.8</ele>
        <time>2021-05-03T12:48:17Z</time>
      </trkpt>
      <trkpt lat="45.194" lon="5.11299">
        <ele>353.9</ele>
        <time>2021-05-03T12:48:18Z</time>
      </trkpt>
      <trkpt lat="45.19402" lon="5.11307">
        <ele>354.1</ele>
        <time>2021-05-03T12:48:20Z</time>
      </trkpt>
      <trkpt lat="45.19404" lon="5.11311">
        <ele>354.2</ele>
        <time>2021-05-03T12:48:21Z</time>
      </trkpt>
      <trkpt lat="45.19406" lon="5.1132">
        <ele>354.3</ele>
        <time>2021-05-03T12:48:23Z</time>
      </trkpt>
      <trkpt lat="45.19408" lon="5.11325">
        <ele>354.3</ele>
        <time>2021-05-03T12:48:24Z</time>
      </trkpt>
      <trkpt lat="45.1941" lon="5.11331">
        <ele>354.4</ele>
        <time>2021-05-03T12:48:25Z</time>
      </trkpt>
      <trkpt lat="45.19411" lon="5.11337">
        <ele>354.4</ele>
        <time>2021-05-03T12:48:26Z</time>
      </trkpt>
      <trkpt lat="45.19413" lon="5.11345">
        <ele>354.5</ele>
        <time>2021-05-03T12:48:28Z</time>
      </trkpt>
      <trkpt lat="45.19416" lon="5.11352">
        <ele>354.6</ele>
        <time>2021-05-03T12:48:29Z</time>
      </trkpt>
      <trkpt lat="45.19418" lon="5.1136">
        <ele>354.7</ele>
        <time>2021-05-03T12:48:31Z</time>
      </trkpt>
      <trkpt lat="45.1942" lon="5.11367">
        <ele>354.7</ele>
        <time>2021-05-03T12:48:32Z</time>
      </trkpt>
      <trkpt lat="45.19422" lon="5.11374">
        <ele>354.8</ele>
        <time>2021-05-03T12:48:34Z</time>
      </trkpt>
      <trkpt lat="45.19423" lon="5.11379">
        <ele>354.9</ele>
        <time>2021-05-03T12:48:35Z</time>
      </trkpt>
      <trkpt lat="45.19426" lon="5.11387">
        <ele>355</ele>
        <time>2021-05-03T12:48:36Z</time>
      </trkpt>
      <trkpt lat="45.19428" lon="5.11396">
        <ele>355</ele>
        <time>2021-05-03T12:48:38Z</time>
      </trkpt>
      <trkpt lat="45.1943" lon="5.11403">
        <ele>355.1</ele>
        <time>2021-05-03T12:48:39Z</time>
      </trkpt>
      <trkpt lat="45.19432" lon="5.1141">
        <ele>355.2</ele>
        <time>2021-05-03T12:48:40Z</time>
      </trkpt>
      <trkpt lat="45.19435" lon="5.11418">
        <ele>355.2</ele>
        <time>2021-05-03T12:48:42Z</time>
      </trkpt>
      <trkpt lat="45.19437" lon="5.11422">
        <ele>355.3</ele>
        <time>2021-05-03T12:48:43Z</time>
      </trkpt>
      <trkpt lat="45.19439" lon="5.11429">
        <ele>355.3</ele>
        <time>2021-05-03T12:48:44Z</time>
      </trkpt>
      <trkpt lat="45.1944" lon="5.11436">
        <ele>355.4</ele>
        <time>2021-05-03T12:48:45Z</time>
      </trkpt>
      <trkpt lat="45.19442" lon="5.11443">
        <ele>355.5</ele>
        <time>2021-05-03T12:48:46Z</time>
      </trkpt>
      <trkpt lat="45.19444" lon="5.11454">
        <ele>355.6</ele>
        <time>2021-05-03T12:48:48Z</time>
      </trkpt>
      <trkpt lat="45.19447" lon="5.11464">
        <ele>355.7</ele>
        <time>2021-05-03T12:48:49Z</time>
      </trkpt>
      <trkpt lat="45.19449" lon="5.11469">
        <ele>355.8</ele>
        <time>2021-05-03T12:48:51Z</time>
      </trkpt>
      <trkpt lat="45.19452" lon="5.11479">
        <ele>355.9</ele>
        <time>2021-05-03T12:48:53Z</time>
      </trkpt>
      <trkpt lat="45.19454" lon="5.11485">
        <ele>355.9</ele>
        <time>2021-05-03T12:48:54Z</time>
      </trkpt>
      <trkpt lat="45.19455" lon="5.11492">
        <ele>356</ele>
        <time>2021-05-03T12:48:55Z</time>
      </trkpt>
      <trkpt lat="45.19458" lon="5.11499">
        <ele>356.1</ele>
        <time>2021-05-03T12:48:57Z</time>
      </trkpt>
      <trkpt lat="45.19461" lon="5.1151">
        <ele>356.2</ele>
        <time>2021-05-03T12:48:59Z</time>
      </trkpt>
      <trkpt lat="45.19464" lon="5.1152">
        <ele>356.3</ele>
        <time>2021-05-03T12:49:01Z</time>
      </trkpt>
      <trkpt lat="45.19467" lon="5.1153">
        <ele>356.4</ele>
        <time>2021-05-03T12:49:03Z</time>
      </trkpt>
      <trkpt lat="45.19469" lon="5.11536">
        <ele>356.4</ele>
        <time>2021-05-03T12:49:04Z</time>
      </trkpt>
      <trkpt lat="45.19471" lon="5.11544">
        <ele>356.5</ele>
        <time>2021-05-03T12:49:06Z</time>
      </trkpt>
      <trkpt lat="45.19472" lon="5.11549">
        <ele>356.6</ele>
        <time>2021-05-03T12:49:07Z</time>
      </trkpt>
      <trkpt lat="45.19476" lon="5.11561">
        <ele>356.7</ele>
        <time>2021-05-03T12:49:09Z</time>
      </trkpt>
      <trkpt lat="45.19479" lon="5.11569">
        <ele>356.7</ele>
        <time>2021-05-03T12:49:11Z</time>
      </trkpt>
      <trkpt lat="45.1948" lon="5.11575">
        <ele>356.8</ele>
        <time>2021-05-03T12:49:12Z</time>
      </trkpt>
      <trkpt lat="45.19483" lon="5.11586">
        <ele>356.9</ele>
        <time>2021-05-03T12:49:14Z</time>
      </trkpt>
      <trkpt lat="45.19487" lon="5.11597">
        <ele>357</ele>
        <time>2021-05-03T12:49:16Z</time>
      </trkpt>
      <trkpt lat="45.19488" lon="5.11604">
        <ele>357.1</ele>
        <time>2021-05-03T12:49:17Z</time>
      </trkpt>
      <trkpt lat="45.19491" lon="5.11612">
        <ele>357.2</ele>
        <time>2021-05-03T12:49:19Z</time>
      </trkpt>
      <trkpt lat="45.19493" lon="5.11621">
        <ele>357.3</ele>
        <time>2021-05-03T12:49:20Z</time>
      </trkpt>
      <trkpt lat="45.19495" lon="5.11627">
        <ele>357.4</ele>
        <time>2021-05-03T12:49:21Z</time>
      </trkpt>
      <trkpt lat="45.19498" lon="5.11636">
        <ele>357.5</ele>
        <time>2021-05-03T12:49:23Z</time>
      </trkpt>
      <trkpt lat="45.19501" lon="5.11643">
        <ele>357.6</ele>
        <time>2021-05-03T12:49:24Z</time>
      </trkpt>
      <trkpt lat="45.19505" lon="5.11651">
        <ele>357.7</ele>
        <time>2021-05-03T12:49:26Z</time>
      </trkpt>
      <trkpt lat="45.19508" lon="5.11657">
        <ele>357.8</ele>
        <time>2021-05-03T12:49:27Z</time>
      </trkpt>
      <trkpt lat="45.19512" lon="5.11665">
        <ele>357.9</ele>
        <time>2021-05-03T12:49:29Z</time>
      </trkpt>
      <trkpt lat="45.19515" lon="5.1167">
        <ele>358</ele>
        <time>2021-05-03T12:49:30Z</time>
      </trkpt>
      <trkpt lat="45.1952" lon="5.11679">
        <ele>358.2</ele>
        <time>2021-05-03T12:49:32Z</time>
      </trkpt>
      <trkpt lat="45.19523" lon="5.11685">
        <ele>358.3</ele>
        <time>2021-05-03T12:49:33Z</time>
      </trkpt>
      <trkpt lat="45.19526" lon="5.1169">
        <ele>358.4</ele>
        <time>2021-05-03T12:49:34Z</time>
      </trkpt>
      <trkpt lat="45.19529" lon="5.11694">
        <ele>358.5</ele>
        <time>2021-05-03T12:49:35Z</time>
      </trkpt>
      <trkpt lat="45.19533" lon="5.11697">
        <ele>358.5</ele>
        <time>2021-05-03T12:49:37Z</time>
      </trkpt>
      <trkpt lat="45.19537" lon="5.11701">
        <ele>358.6</ele>
        <time>2021-05-03T12:49:38Z</time>
      </trkpt>
      <trkpt lat="45.19543" lon="5.11706">
        <ele>358.7</ele>
        <time>2021-05-03T12:49:39Z</time>
      </trkpt>
      <trkpt lat="45.19548" lon="5.11709">
        <ele>358.8</ele>
        <time>2021-05-03T12:49:41Z</time>
      </trkpt>
      <trkpt lat="45.19552" lon="5.11712">
        <ele>358.9</ele>
        <time>2021-05-03T12:49:42Z</time>
      </trkpt>
      <trkpt lat="45.19559" lon="5.11717">
        <ele>359</ele>
        <time>2021-05-03T12:49:44Z</time>
      </trkpt>
      <trkpt lat="45.19563" lon="5.11719">
        <ele>359.1</ele>
        <time>2021-05-03T12:49:45Z</time>
      </trkpt>
      <trkpt lat="45.19569" lon="5.11724">
        <ele>359.2</ele>
        <time>2021-05-03T12:49:47Z</time>
      </trkpt>
      <trkpt lat="45.19574" lon="5.11728">
        <ele>359.3</ele>
        <time>2021-05-03T12:49:48Z</time>
      </trkpt>
      <trkpt lat="45.19578" lon="5.1173">
        <ele>359.3</ele>
        <time>2021-05-03T12:49:49Z</time>
      </trkpt>
      <trkpt lat="45.19581" lon="5.11734">
        <ele>359.4</ele>
        <time>2021-05-03T12:49:50Z</time>
      </trkpt>
      <trkpt lat="45.19586" lon="5.11743">
        <ele>359</ele>
        <time>2021-05-03T12:49:52Z</time>
      </trkpt>
      <trkpt lat="45.19585" lon="5.11756">
        <ele>358.4</ele>
        <time>2021-05-03T12:49:54Z</time>
      </trkpt>
      <trkpt lat="45.19586" lon="5.11764">
        <ele>358</ele>
        <time>2021-05-03T12:49:55Z</time>
      </trkpt>
      <trkpt lat="45.19587" lon="5.11772">
        <ele>357.7</ele>
        <time>2021-05-03T12:49:56Z</time>
      </trkpt>
      <trkpt lat="45.19588" lon="5.1178">
        <ele>357.4</ele>
        <time>2021-05-03T12:49:57Z</time>
      </trkpt>
      <trkpt lat="45.19589" lon="5.11789">
        <ele>357</ele>
        <time>2021-05-03T12:49:58Z</time>
      </trkpt>
      <trkpt lat="45.19589" lon="5.11798">
        <ele>356.7</ele>
        <time>2021-05-03T12:49:59Z</time>
      </trkpt>
      <trkpt lat="45.1959" lon="5.11807">
        <ele>356.4</ele>
        <time>2021-05-03T12:50:00Z</time>
      </trkpt>
      <trkpt lat="45.19591" lon="5.11816">
        <ele>356.1</ele>
        <time>2021-05-03T12:50:01Z</time>
      </trkpt>
      <trkpt lat="45.19592" lon="5.11826">
        <ele>355.8</ele>
        <time>2021-05-03T12:50:02Z</time>
      </trkpt>
      <trkpt lat="45.19592" lon="5.11835">
        <ele>355.6</ele>
        <time>2021-05-03T12:50:03Z</time>
      </trkpt>
      <trkpt lat="45.19593" lon="5.11845">
        <ele>355.3</ele>
        <time>2021-05-03T12:50:04Z</time>
      </trkpt>
      <trkpt lat="45.19594" lon="5.11855">
        <ele>355</ele>
        <time>2021-05-03T12:50:05Z</time>
      </trkpt>
      <trkpt lat="45.19594" lon="5.11866">
        <ele>354.7</ele>
        <time>2021-05-03T12:50:06Z</time>
      </trkpt>
      <trkpt lat="45.19595" lon="5.11876">
        <ele>354.5</ele>
        <time>2021-05-03T12:50:07Z</time>
      </trkpt>
      <trkpt lat="45.19597" lon="5.11887">
        <ele>354.3</ele>
        <time>2021-05-03T12:50:08Z</time>
      </trkpt>
      <trkpt lat="45.19598" lon="5.11897">
        <ele>354.1</ele>
        <time>2021-05-03T12:50:09Z</time>
      </trkpt>
      <trkpt lat="45.19599" lon="5.11908">
        <ele>353.9</ele>
        <time>2021-05-03T12:50:10Z</time>
      </trkpt>
      <trkpt lat="45.196" lon="5.11919">
        <ele>353.8</ele>
        <time>2021-05-03T12:50:11Z</time>
      </trkpt>
      <trkpt lat="45.19601" lon="5.1193">
        <ele>353.7</ele>
        <time>2021-05-03T12:50:12Z</time>
      </trkpt>
      <trkpt lat="45.19601" lon="5.1194">
        <ele>353.6</ele>
        <time>2021-05-03T12:50:13Z</time>
      </trkpt>
      <trkpt lat="45.19601" lon="5.1195">
        <ele>353.6</ele>
        <time>2021-05-03T12:50:14Z</time>
      </trkpt>
      <trkpt lat="45.19601" lon="5.1196">
        <ele>353.6</ele>
        <time>2021-05-03T12:50:15Z</time>
      </trkpt>
      <trkpt lat="45.196" lon="5.1197">
        <ele>353.6</ele>
        <time>2021-05-03T12:50:16Z</time>
      </trkpt>
      <trkpt lat="45.19598" lon="5.1198">
        <ele>353.7</ele>
        <time>2021-05-03T12:50:17Z</time>
      </trkpt>
      <trkpt lat="45.19595" lon="5.11988">
        <ele>353.8</ele>
        <time>2021-05-03T12:50:18Z</time>
      </trkpt>
      <trkpt lat="45.19592" lon="5.11996">
        <ele>353.9</ele>
        <time>2021-05-03T12:50:19Z</time>
      </trkpt>
      <trkpt lat="45.19588" lon="5.12003">
        <ele>353.9</ele>
        <time>2021-05-03T12:50:20Z</time>
      </trkpt>
      <trkpt lat="45.19584" lon="5.12009">
        <ele>353.9</ele>
        <time>2021-05-03T12:50:21Z</time>
      </trkpt>
      <trkpt lat="45.1958" lon="5.12016">
        <ele>353.9</ele>
        <time>2021-05-03T12:50:22Z</time>
      </trkpt>
      <trkpt lat="45.19576" lon="5.12022">
        <ele>353.9</ele>
        <time>2021-05-03T12:50:23Z</time>
      </trkpt>
      <trkpt lat="45.19574" lon="5.12029">
        <ele>353.9</ele>
        <time>2021-05-03T12:50:24Z</time>
      </trkpt>
      <trkpt lat="45.19572" lon="5.12037">
        <ele>353.9</ele>
        <time>2021-05-03T12:50:25Z</time>
      </trkpt>
      <trkpt lat="45.19571" lon="5.12045">
        <ele>353.9</ele>
        <time>2021-05-03T12:50:26Z</time>
      </trkpt>
      <trkpt lat="45.19572" lon="5.12054">
        <ele>353.9</ele>
        <time>2021-05-03T12:50:27Z</time>
      </trkpt>
      <trkpt lat="45.19573" lon="5.12062">
        <ele>353.9</ele>
        <time>2021-05-03T12:50:28Z</time>
      </trkpt>
      <trkpt lat="45.19575" lon="5.12071">
        <ele>353.9</ele>
        <time>2021-05-03T12:50:29Z</time>
      </trkpt>
      <trkpt lat="45.19577" lon="5.12079">
        <ele>353.9</ele>
        <time>2021-05-03T12:50:30Z</time>
      </trkpt>
      <trkpt lat="45.19579" lon="5.12086">
        <ele>353.9</ele>
        <time>2021-05-03T12:50:31Z</time>
      </trkpt>
      <trkpt lat="45.19581" lon="5.12094">
        <ele>353.9</ele>
        <time>2021-05-03T12:50:32Z</time>
      </trkpt>
      <trkpt lat="45.19583" lon="5.12102">
        <ele>353.9</ele>
        <time>2021-05-03T12:50:33Z</time>
      </trkpt>
      <trkpt lat="45.19586" lon="5.12109">
        <ele>353.9</ele>
        <time>2021-05-03T12:50:34Z</time>
      </trkpt>
      <trkpt lat="45.19588" lon="5.12116">
        <ele>353.9</ele>
        <time>2021-05-03T12:50:35Z</time>
      </trkpt>
      <trkpt lat="45.1959" lon="5.12122">
        <ele>353.9</ele>
        <time>2021-05-03T12:50:36Z</time>
      </trkpt>
      <trkpt lat="45.19592" lon="5.12129">
        <ele>354</ele>
        <time>2021-05-03T12:50:37Z</time>
      </trkpt>
      <trkpt lat="45.19593" lon="5.12136">
        <ele>354</ele>
        <time>2021-05-03T12:50:38Z</time>
      </trkpt>
      <trkpt lat="45.19595" lon="5.12143">
        <ele>354.1</ele>
        <time>2021-05-03T12:50:39Z</time>
      </trkpt>
      <trkpt lat="45.19596" lon="5.12149">
        <ele>354.1</ele>
        <time>2021-05-03T12:50:40Z</time>
      </trkpt>
      <trkpt lat="45.19598" lon="5.12156">
        <ele>354.2</ele>
        <time>2021-05-03T12:50:41Z</time>
      </trkpt>
      <trkpt lat="45.19599" lon="5.12162">
        <ele>354.2</ele>
        <time>2021-05-03T12:50:42Z</time>
      </trkpt>
      <trkpt lat="45.196" lon="5.12168">
        <ele>354.3</ele>
        <time>2021-05-03T12:50:43Z</time>
      </trkpt>
      <trkpt lat="45.19601" lon="5.12175">
        <ele>354.3</ele>
        <time>2021-05-03T12:50:44Z</time>
      </trkpt>
      <trkpt lat="45.19602" lon="5.12182">
        <ele>354.4</ele>
        <time>2021-05-03T12:50:45Z</time>
      </trkpt>
      <trkpt lat="45.19603" lon="5.12188">
        <ele>354.4</ele>
        <time>2021-05-03T12:50:46Z</time>
      </trkpt>
      <trkpt lat="45.19605" lon="5.12195">
        <ele>354.5</ele>
        <time>2021-05-03T12:50:47Z</time>
      </trkpt>
      <trkpt lat="45.19606" lon="5.12202">
        <ele>354.5</ele>
        <time>2021-05-03T12:50:48Z</time>
      </trkpt>
      <trkpt lat="45.19608" lon="5.12208">
        <ele>354.6</ele>
        <time>2021-05-03T12:50:49Z</time>
      </trkpt>
      <trkpt lat="45.1961" lon="5.12215">
        <ele>354.6</ele>
        <time>2021-05-03T12:50:50Z</time>
      </trkpt>
      <trkpt lat="45.19611" lon="5.12221">
        <ele>354.7</ele>
        <time>2021-05-03T12:50:51Z</time>
      </trkpt>
      <trkpt lat="45.19613" lon="5.12228">
        <ele>354.7</ele>
        <time>2021-05-03T12:50:52Z</time>
      </trkpt>
      <trkpt lat="45.19614" lon="5.12235">
        <ele>354.8</ele>
        <time>2021-05-03T12:50:53Z</time>
      </trkpt>
      <trkpt lat="45.19616" lon="5.12242">
        <ele>354.8</ele>
        <time>2021-05-03T12:50:54Z</time>
      </trkpt>
      <trkpt lat="45.19618" lon="5.12249">
        <ele>354.8</ele>
        <time>2021-05-03T12:50:55Z</time>
      </trkpt>
      <trkpt lat="45.19619" lon="5.12255">
        <ele>354.9</ele>
        <time>2021-05-03T12:50:56Z</time>
      </trkpt>
      <trkpt lat="45.19621" lon="5.12261">
        <ele>354.9</ele>
        <time>2021-05-03T12:50:57Z</time>
      </trkpt>
      <trkpt lat="45.19622" lon="5.12267">
        <ele>355</ele>
        <time>2021-05-03T12:50:58Z</time>
      </trkpt>
      <trkpt lat="45.19624" lon="5.12274">
        <ele>355</ele>
        <time>2021-05-03T12:50:59Z</time>
      </trkpt>
      <trkpt lat="45.19625" lon="5.1228">
        <ele>355.1</ele>
        <time>2021-05-03T12:51:00Z</time>
      </trkpt>
      <trkpt lat="45.19627" lon="5.12286">
        <ele>355.1</ele>
        <time>2021-05-03T12:51:01Z</time>
      </trkpt>
      <trkpt lat="45.19629" lon="5.12292">
        <ele>355.2</ele>
        <time>2021-05-03T12:51:02Z</time>
      </trkpt>
      <trkpt lat="45.1963" lon="5.12298">
        <ele>355.2</ele>
        <time>2021-05-03T12:51:03Z</time>
      </trkpt>
      <trkpt lat="45.19632" lon="5.12305">
        <ele>355.3</ele>
        <time>2021-05-03T12:51:04Z</time>
      </trkpt>
      <trkpt lat="45.19632" lon="5.12308">
        <ele>355.3</ele>
        <time>2021-05-03T12:51:05Z</time>
      </trkpt>
      <trkpt lat="45.19634" lon="5.12315">
        <ele>355.3</ele>
        <time>2021-05-03T12:51:06Z</time>
      </trkpt>
      <trkpt lat="45.19636" lon="5.12322">
        <ele>355.4</ele>
        <time>2021-05-03T12:51:07Z</time>
      </trkpt>
      <trkpt lat="45.19637" lon="5.12328">
        <ele>355.4</ele>
        <time>2021-05-03T12:51:08Z</time>
      </trkpt>
      <trkpt lat="45.19639" lon="5.12334">
        <ele>355.5</ele>
        <time>2021-05-03T12:51:09Z</time>
      </trkpt>
      <trkpt lat="45.19641" lon="5.12341">
        <ele>355.6</ele>
        <time>2021-05-03T12:51:10Z</time>
      </trkpt>
      <trkpt lat="45.19642" lon="5.12345">
        <ele>355.6</ele>
        <time>2021-05-03T12:51:11Z</time>
      </trkpt>
      <trkpt lat="45.19643" lon="5.12351">
        <ele>355.7</ele>
        <time>2021-05-03T12:51:12Z</time>
      </trkpt>
      <trkpt lat="45.19645" lon="5.12358">
        <ele>355.7</ele>
        <time>2021-05-03T12:51:13Z</time>
      </trkpt>
      <trkpt lat="45.19646" lon="5.12365">
        <ele>355.8</ele>
        <time>2021-05-03T12:51:14Z</time>
      </trkpt>
      <trkpt lat="45.19647" lon="5.12371">
        <ele>355.9</ele>
        <time>2021-05-03T12:51:15Z</time>
      </trkpt>
      <trkpt lat="45.19649" lon="5.12378">
        <ele>355.9</ele>
        <time>2021-05-03T12:51:16Z</time>
      </trkpt>
      <trkpt lat="45.19649" lon="5.12385">
        <ele>356</ele>
        <time>2021-05-03T12:51:17Z</time>
      </trkpt>
      <trkpt lat="45.1965" lon="5.12391">
        <ele>356</ele>
        <time>2021-05-03T12:51:18Z</time>
      </trkpt>
      <trkpt lat="45.19651" lon="5.12398">
        <ele>356.1</ele>
        <time>2021-05-03T12:51:19Z</time>
      </trkpt>
      <trkpt lat="45.19652" lon="5.12404">
        <ele>356.1</ele>
        <time>2021-05-03T12:51:20Z</time>
      </trkpt>
      <trkpt lat="45.19654" lon="5.12411">
        <ele>356.2</ele>
        <time>2021-05-03T12:51:21Z</time>
      </trkpt>
      <trkpt lat="45.19655" lon="5.12418">
        <ele>356.3</ele>
        <time>2021-05-03T12:51:22Z</time>
      </trkpt>
      <trkpt lat="45.19657" lon="5.12424">
        <ele>356.3</ele>
        <time>2021-05-03T12:51:23Z</time>
      </trkpt>
      <trkpt lat="45.19659" lon="5.12431">
        <ele>356.4</ele>
        <time>2021-05-03T12:51:24Z</time>
      </trkpt>
      <trkpt lat="45.19661" lon="5.12437">
        <ele>356.4</ele>
        <time>2021-05-03T12:51:25Z</time>
      </trkpt>
      <trkpt lat="45.19663" lon="5.12444">
        <ele>356.5</ele>
        <time>2021-05-03T12:51:26Z</time>
      </trkpt>
      <trkpt lat="45.19665" lon="5.1245">
        <ele>356.6</ele>
        <time>2021-05-03T12:51:27Z</time>
      </trkpt>
      <trkpt lat="45.19666" lon="5.12457">
        <ele>356.7</ele>
        <time>2021-05-03T12:51:28Z</time>
      </trkpt>
      <trkpt lat="45.19668" lon="5.12463">
        <ele>356.8</ele>
        <time>2021-05-03T12:51:29Z</time>
      </trkpt>
      <trkpt lat="45.19669" lon="5.1247">
        <ele>356.9</ele>
        <time>2021-05-03T12:51:30Z</time>
      </trkpt>
      <trkpt lat="45.1967" lon="5.12476">
        <ele>357</ele>
        <time>2021-05-03T12:51:31Z</time>
      </trkpt>
      <trkpt lat="45.19671" lon="5.12481">
        <ele>357</ele>
        <time>2021-05-03T12:51:32Z</time>
      </trkpt>
      <trkpt lat="45.19673" lon="5.12486">
        <ele>357.1</ele>
        <time>2021-05-03T12:51:33Z</time>
      </trkpt>
      <trkpt lat="45.19674" lon="5.12492">
        <ele>357.2</ele>
        <time>2021-05-03T12:51:34Z</time>
      </trkpt>
      <trkpt lat="45.19676" lon="5.12497">
        <ele>357.3</ele>
        <time>2021-05-03T12:51:35Z</time>
      </trkpt>
      <trkpt lat="45.19677" lon="5.12502">
        <ele>357.4</ele>
        <time>2021-05-03T12:51:36Z</time>
      </trkpt>
      <trkpt lat="45.19678" lon="5.12509">
        <ele>357.5</ele>
        <time>2021-05-03T12:51:37Z</time>
      </trkpt>
      <trkpt lat="45.19675" lon="5.12508">
        <ele>357.5</ele>
        <time>2021-05-03T12:51:38Z</time>
      </trkpt>
      <trkpt lat="45.19677" lon="5.12528">
        <ele>357.7</ele>
        <time>2021-05-03T12:51:40Z</time>
      </trkpt>
      <trkpt lat="45.19677" lon="5.12535">
        <ele>357.8</ele>
        <time>2021-05-03T12:51:41Z</time>
      </trkpt>
      <trkpt lat="45.19675" lon="5.12542">
        <ele>357.8</ele>
        <time>2021-05-03T12:51:42Z</time>
      </trkpt>
      <trkpt lat="45.19672" lon="5.12551">
        <ele>357.8</ele>
        <time>2021-05-03T12:51:43Z</time>
      </trkpt>
      <trkpt lat="45.19668" lon="5.12557">
        <ele>357.8</ele>
        <time>2021-05-03T12:51:45Z</time>
      </trkpt>
      <trkpt lat="45.19665" lon="5.1256">
        <ele>357.8</ele>
        <time>2021-05-03T12:51:46Z</time>
      </trkpt>
      <trkpt lat="45.19662" lon="5.12565">
        <ele>357.8</ele>
        <time>2021-05-03T12:51:47Z</time>
      </trkpt>
      <trkpt lat="45.19657" lon="5.12569">
        <ele>357.8</ele>
        <time>2021-05-03T12:51:48Z</time>
      </trkpt>
      <trkpt lat="45.19653" lon="5.12572">
        <ele>357.9</ele>
        <time>2021-05-03T12:51:49Z</time>
      </trkpt>
      <trkpt lat="45.19649" lon="5.12575">
        <ele>357.9</ele>
        <time>2021-05-03T12:51:50Z</time>
      </trkpt>
      <trkpt lat="45.19644" lon="5.12577">
        <ele>358</ele>
        <time>2021-05-03T12:51:51Z</time>
      </trkpt>
      <trkpt lat="45.1964" lon="5.1258">
        <ele>358</ele>
        <time>2021-05-03T12:51:52Z</time>
      </trkpt>
      <trkpt lat="45.19635" lon="5.12582">
        <ele>358.1</ele>
        <time>2021-05-03T12:51:53Z</time>
      </trkpt>
      <trkpt lat="45.19631" lon="5.12585">
        <ele>358.2</ele>
        <time>2021-05-03T12:51:54Z</time>
      </trkpt>
      <trkpt lat="45.19626" lon="5.12588">
        <ele>358.2</ele>
        <time>2021-05-03T12:51:55Z</time>
      </trkpt>
      <trkpt lat="45.19622" lon="5.12591">
        <ele>358.3</ele>
        <time>2021-05-03T12:51:56Z</time>
      </trkpt>
      <trkpt lat="45.19618" lon="5.12594">
        <ele>358.4</ele>
        <time>2021-05-03T12:51:57Z</time>
      </trkpt>
      <trkpt lat="45.19614" lon="5.12596">
        <ele>358.5</ele>
        <time>2021-05-03T12:51:58Z</time>
      </trkpt>
      <trkpt lat="45.19609" lon="5.12599">
        <ele>358.6</ele>
        <time>2021-05-03T12:51:59Z</time>
      </trkpt>
      <trkpt lat="45.19604" lon="5.12602">
        <ele>358.7</ele>
        <time>2021-05-03T12:52:00Z</time>
      </trkpt>
      <trkpt lat="45.196" lon="5.12605">
        <ele>358.8</ele>
        <time>2021-05-03T12:52:01Z</time>
      </trkpt>
      <trkpt lat="45.19596" lon="5.12608">
        <ele>358.9</ele>
        <time>2021-05-03T12:52:02Z</time>
      </trkpt>
      <trkpt lat="45.19591" lon="5.1261">
        <ele>359.1</ele>
        <time>2021-05-03T12:52:03Z</time>
      </trkpt>
      <trkpt lat="45.19587" lon="5.12612">
        <ele>359.2</ele>
        <time>2021-05-03T12:52:04Z</time>
      </trkpt>
      <trkpt lat="45.19582" lon="5.12615">
        <ele>359.4</ele>
        <time>2021-05-03T12:52:05Z</time>
      </trkpt>
      <trkpt lat="45.19578" lon="5.12618">
        <ele>359.6</ele>
        <time>2021-05-03T12:52:06Z</time>
      </trkpt>
      <trkpt lat="45.19574" lon="5.1262">
        <ele>359.8</ele>
        <time>2021-05-03T12:52:07Z</time>
      </trkpt>
      <trkpt lat="45.1957" lon="5.12623">
        <ele>360</ele>
        <time>2021-05-03T12:52:08Z</time>
      </trkpt>
      <trkpt lat="45.19566" lon="5.12626">
        <ele>360.2</ele>
        <time>2021-05-03T12:52:09Z</time>
      </trkpt>
      <trkpt lat="45.19562" lon="5.12629">
        <ele>360.5</ele>
        <time>2021-05-03T12:52:10Z</time>
      </trkpt>
      <trkpt lat="45.19559" lon="5.12631">
        <ele>360.7</ele>
        <time>2021-05-03T12:52:11Z</time>
      </trkpt>
      <trkpt lat="45.19556" lon="5.12634">
        <ele>360.9</ele>
        <time>2021-05-03T12:52:12Z</time>
      </trkpt>
      <trkpt lat="45.19552" lon="5.12637">
        <ele>361.2</ele>
        <time>2021-05-03T12:52:13Z</time>
      </trkpt>
      <trkpt lat="45.19549" lon="5.1264">
        <ele>361.5</ele>
        <time>2021-05-03T12:52:14Z</time>
      </trkpt>
      <trkpt lat="45.19546" lon="5.12642">
        <ele>361.8</ele>
        <time>2021-05-03T12:52:15Z</time>
      </trkpt>
      <trkpt lat="45.19543" lon="5.12644">
        <ele>362</ele>
        <time>2021-05-03T12:52:16Z</time>
      </trkpt>
      <trkpt lat="45.1954" lon="5.12647">
        <ele>362.3</ele>
        <time>2021-05-03T12:52:17Z</time>
      </trkpt>
      <trkpt lat="45.19539" lon="5.12648">
        <ele>362.4</ele>
        <time>2021-05-03T12:52:18Z</time>
      </trkpt>
      <trkpt lat="45.19538" lon="5.12649">
        <ele>362.5</ele>
        <time>2021-05-03T12:52:19Z</time>
      </trkpt>
      <trkpt lat="45.19535" lon="5.12653">
        <ele>362.9</ele>
        <time>2021-05-03T12:52:20Z</time>
      </trkpt>
      <trkpt lat="45.1953" lon="5.12659">
        <ele>363.4</ele>
        <time>2021-05-03T12:52:22Z</time>
      </trkpt>
      <trkpt lat="45.19527" lon="5.12666">
        <ele>363.8</ele>
        <time>2021-05-03T12:52:24Z</time>
      </trkpt>
      <trkpt lat="45.19526" lon="5.12669">
        <ele>363.9</ele>
        <time>2021-05-03T12:52:25Z</time>
      </trkpt>
      <trkpt lat="45.19524" lon="5.12675">
        <ele>364.3</ele>
        <time>2021-05-03T12:52:27Z</time>
      </trkpt>
      <trkpt lat="45.19523" lon="5.1268">
        <ele>364.5</ele>
        <time>2021-05-03T12:52:28Z</time>
      </trkpt>
      <trkpt lat="45.19523" lon="5.12685">
        <ele>364.7</ele>
        <time>2021-05-03T12:52:29Z</time>
      </trkpt>
      <trkpt lat="45.19523" lon="5.12691">
        <ele>365</ele>
        <time>2021-05-03T12:52:31Z</time>
      </trkpt>
      <trkpt lat="45.19523" lon="5.12697">
        <ele>365.3</ele>
        <time>2021-05-03T12:52:32Z</time>
      </trkpt>
      <trkpt lat="45.19523" lon="5.12701">
        <ele>365.5</ele>
        <time>2021-05-03T12:52:34Z</time>
      </trkpt>
      <trkpt lat="45.19523" lon="5.12706">
        <ele>365.7</ele>
        <time>2021-05-03T12:52:35Z</time>
      </trkpt>
      <trkpt lat="45.19523" lon="5.12712">
        <ele>366</ele>
        <time>2021-05-03T12:52:36Z</time>
      </trkpt>
      <trkpt lat="45.19523" lon="5.12719">
        <ele>366.3</ele>
        <time>2021-05-03T12:52:38Z</time>
      </trkpt>
      <trkpt lat="45.19523" lon="5.12722">
        <ele>366.4</ele>
        <time>2021-05-03T12:52:39Z</time>
      </trkpt>
      <trkpt lat="45.19523" lon="5.12724">
        <ele>366.6</ele>
        <time>2021-05-03T12:52:40Z</time>
      </trkpt>
      <trkpt lat="45.19523" lon="5.12731">
        <ele>366.9</ele>
        <time>2021-05-03T12:52:41Z</time>
      </trkpt>
      <trkpt lat="45.19523" lon="5.12735">
        <ele>367.1</ele>
        <time>2021-05-03T12:52:43Z</time>
      </trkpt>
      <trkpt lat="45.19523" lon="5.12739">
        <ele>367.3</ele>
        <time>2021-05-03T12:52:44Z</time>
      </trkpt>
      <trkpt lat="45.19522" lon="5.12744">
        <ele>367.5</ele>
        <time>2021-05-03T12:52:45Z</time>
      </trkpt>
      <trkpt lat="45.19521" lon="5.12751">
        <ele>367.9</ele>
        <time>2021-05-03T12:52:47Z</time>
      </trkpt>
      <trkpt lat="45.19521" lon="5.12757">
        <ele>368.1</ele>
        <time>2021-05-03T12:52:49Z</time>
      </trkpt>
      <trkpt lat="45.1952" lon="5.12761">
        <ele>368.4</ele>
        <time>2021-05-03T12:52:50Z</time>
      </trkpt>
      <trkpt lat="45.19519" lon="5.12768">
        <ele>368.7</ele>
        <time>2021-05-03T12:52:52Z</time>
      </trkpt>
      <trkpt lat="45.19519" lon="5.12772">
        <ele>368.9</ele>
        <time>2021-05-03T12:52:53Z</time>
      </trkpt>
      <trkpt lat="45.19519" lon="5.12777">
        <ele>369</ele>
        <time>2021-05-03T12:52:54Z</time>
      </trkpt>
      <trkpt lat="45.19519" lon="5.12783">
        <ele>369.2</ele>
        <time>2021-05-03T12:52:55Z</time>
      </trkpt>
      <trkpt lat="45.19518" lon="5.12791">
        <ele>369.5</ele>
        <time>2021-05-03T12:52:57Z</time>
      </trkpt>
      <trkpt lat="45.19519" lon="5.12793">
        <ele>369.6</ele>
        <time>2021-05-03T12:52:58Z</time>
      </trkpt>
      <trkpt lat="45.19519" lon="5.12796">
        <ele>369.6</ele>
        <time>2021-05-03T12:52:59Z</time>
      </trkpt>
      <trkpt lat="45.19519" lon="5.12804">
        <ele>369.8</ele>
        <time>2021-05-03T12:53:01Z</time>
      </trkpt>
      <trkpt lat="45.19518" lon="5.12811">
        <ele>370</ele>
        <time>2021-05-03T12:53:02Z</time>
      </trkpt>
      <trkpt lat="45.19518" lon="5.12813">
        <ele>370</ele>
        <time>2021-05-03T12:53:03Z</time>
      </trkpt>
      <trkpt lat="45.19517" lon="5.12822">
        <ele>370.2</ele>
        <time>2021-05-03T12:53:05Z</time>
      </trkpt>
      <trkpt lat="45.19518" lon="5.1283">
        <ele>370.4</ele>
        <time>2021-05-03T12:53:07Z</time>
      </trkpt>
      <trkpt lat="45.19518" lon="5.12835">
        <ele>370.5</ele>
        <time>2021-05-03T12:53:08Z</time>
      </trkpt>
      <trkpt lat="45.19518" lon="5.12841">
        <ele>370.6</ele>
        <time>2021-05-03T12:53:09Z</time>
      </trkpt>
      <trkpt lat="45.19519" lon="5.12848">
        <ele>370.8</ele>
        <time>2021-05-03T12:53:10Z</time>
      </trkpt>
      <trkpt lat="45.19519" lon="5.12854">
        <ele>370.8</ele>
        <time>2021-05-03T12:53:12Z</time>
      </trkpt>
      <trkpt lat="45.19518" lon="5.1286">
        <ele>371</ele>
        <time>2021-05-03T12:53:13Z</time>
      </trkpt>
      <trkpt lat="45.19519" lon="5.12864">
        <ele>371</ele>
        <time>2021-05-03T12:53:14Z</time>
      </trkpt>
      <trkpt lat="45.19519" lon="5.12872">
        <ele>371.2</ele>
        <time>2021-05-03T12:53:15Z</time>
      </trkpt>
      <trkpt lat="45.19519" lon="5.12877">
        <ele>371.2</ele>
        <time>2021-05-03T12:53:17Z</time>
      </trkpt>
      <trkpt lat="45.19519" lon="5.12882">
        <ele>371.3</ele>
        <time>2021-05-03T12:53:18Z</time>
      </trkpt>
      <trkpt lat="45.1952" lon="5.12888">
        <ele>371.4</ele>
        <time>2021-05-03T12:53:19Z</time>
      </trkpt>
      <trkpt lat="45.1952" lon="5.12897">
        <ele>371.6</ele>
        <time>2021-05-03T12:53:20Z</time>
      </trkpt>
      <trkpt lat="45.1952" lon="5.12903">
        <ele>371.8</ele>
        <time>2021-05-03T12:53:21Z</time>
      </trkpt>
      <trkpt lat="45.1952" lon="5.12911">
        <ele>371.9</ele>
        <time>2021-05-03T12:53:23Z</time>
      </trkpt>
      <trkpt lat="45.1952" lon="5.12917">
        <ele>372</ele>
        <time>2021-05-03T12:53:24Z</time>
      </trkpt>
      <trkpt lat="45.1952" lon="5.12925">
        <ele>372.2</ele>
        <time>2021-05-03T12:53:26Z</time>
      </trkpt>
      <trkpt lat="45.1952" lon="5.12932">
        <ele>372.3</ele>
        <time>2021-05-03T12:53:27Z</time>
      </trkpt>
      <trkpt lat="45.19519" lon="5.12941">
        <ele>372.5</ele>
        <time>2021-05-03T12:53:29Z</time>
      </trkpt>
      <trkpt lat="45.19518" lon="5.12947">
        <ele>372.7</ele>
        <time>2021-05-03T12:53:30Z</time>
      </trkpt>
      <trkpt lat="45.19518" lon="5.12956">
        <ele>372.9</ele>
        <time>2021-05-03T12:53:32Z</time>
      </trkpt>
      <trkpt lat="45.19517" lon="5.12965">
        <ele>373.1</ele>
        <time>2021-05-03T12:53:34Z</time>
      </trkpt>
      <trkpt lat="45.19516" lon="5.12971">
        <ele>373.3</ele>
        <time>2021-05-03T12:53:35Z</time>
      </trkpt>
      <trkpt lat="45.19516" lon="5.12977">
        <ele>373.5</ele>
        <time>2021-05-03T12:53:36Z</time>
      </trkpt>
      <trkpt lat="45.19516" lon="5.12985">
        <ele>373.7</ele>
        <time>2021-05-03T12:53:38Z</time>
      </trkpt>
      <trkpt lat="45.19515" lon="5.12996">
        <ele>374</ele>
        <time>2021-05-03T12:53:40Z</time>
      </trkpt>
      <trkpt lat="45.19515" lon="5.13">
        <ele>374.2</ele>
        <time>2021-05-03T12:53:41Z</time>
      </trkpt>
      <trkpt lat="45.19514" lon="5.13006">
        <ele>374.3</ele>
        <time>2021-05-03T12:53:42Z</time>
      </trkpt>
      <trkpt lat="45.19514" lon="5.13012">
        <ele>374.5</ele>
        <time>2021-05-03T12:53:43Z</time>
      </trkpt>
      <trkpt lat="45.19513" lon="5.13023">
        <ele>374.8</ele>
        <time>2021-05-03T12:53:45Z</time>
      </trkpt>
      <trkpt lat="45.19513" lon="5.13033">
        <ele>375.1</ele>
        <time>2021-05-03T12:53:47Z</time>
      </trkpt>
      <trkpt lat="45.19512" lon="5.13038">
        <ele>375.3</ele>
        <time>2021-05-03T12:53:48Z</time>
      </trkpt>
      <trkpt lat="45.19512" lon="5.13045">
        <ele>375.5</ele>
        <time>2021-05-03T12:53:49Z</time>
      </trkpt>
      <trkpt lat="45.19511" lon="5.13052">
        <ele>375.7</ele>
        <time>2021-05-03T12:53:51Z</time>
      </trkpt>
      <trkpt lat="45.1951" lon="5.1306">
        <ele>376</ele>
        <time>2021-05-03T12:53:53Z</time>
      </trkpt>
      <trkpt lat="45.1951" lon="5.13065">
        <ele>376.1</ele>
        <time>2021-05-03T12:53:54Z</time>
      </trkpt>
      <trkpt lat="45.19509" lon="5.13072">
        <ele>376.4</ele>
        <time>2021-05-03T12:53:55Z</time>
      </trkpt>
      <trkpt lat="45.19509" lon="5.13078">
        <ele>376.6</ele>
        <time>2021-05-03T12:53:56Z</time>
      </trkpt>
      <trkpt lat="45.19508" lon="5.13084">
        <ele>376.7</ele>
        <time>2021-05-03T12:53:58Z</time>
      </trkpt>
      <trkpt lat="45.19508" lon="5.13088">
        <ele>376.9</ele>
        <time>2021-05-03T12:53:59Z</time>
      </trkpt>
      <trkpt lat="45.19508" lon="5.13093">
        <ele>377</ele>
        <time>2021-05-03T12:54:00Z</time>
      </trkpt>
      <trkpt lat="45.19506" lon="5.13101">
        <ele>377.3</ele>
        <time>2021-05-03T12:54:02Z</time>
      </trkpt>
      <trkpt lat="45.19505" lon="5.1311">
        <ele>377.6</ele>
        <time>2021-05-03T12:54:04Z</time>
      </trkpt>
      <trkpt lat="45.19504" lon="5.13119">
        <ele>377.8</ele>
        <time>2021-05-03T12:54:05Z</time>
      </trkpt>
      <trkpt lat="45.19504" lon="5.13124">
        <ele>378</ele>
        <time>2021-05-03T12:54:06Z</time>
      </trkpt>
      <trkpt lat="45.19502" lon="5.13129">
        <ele>378.2</ele>
        <time>2021-05-03T12:54:07Z</time>
      </trkpt>
      <trkpt lat="45.19502" lon="5.13135">
        <ele>378.3</ele>
        <time>2021-05-03T12:54:09Z</time>
      </trkpt>
      <trkpt lat="45.19501" lon="5.13139">
        <ele>378.5</ele>
        <time>2021-05-03T12:54:10Z</time>
      </trkpt>
      <trkpt lat="45.195" lon="5.13144">
        <ele>378.6</ele>
        <time>2021-05-03T12:54:11Z</time>
      </trkpt>
      <trkpt lat="45.19499" lon="5.13153">
        <ele>378.8</ele>
        <time>2021-05-03T12:54:13Z</time>
      </trkpt>
      <trkpt lat="45.19498" lon="5.13158">
        <ele>378.9</ele>
        <time>2021-05-03T12:54:14Z</time>
      </trkpt>
      <trkpt lat="45.19496" lon="5.13167">
        <ele>379.1</ele>
        <time>2021-05-03T12:54:16Z</time>
      </trkpt>
      <trkpt lat="45.19495" lon="5.13172">
        <ele>379.2</ele>
        <time>2021-05-03T12:54:17Z</time>
      </trkpt>
      <trkpt lat="45.19494" lon="5.13181">
        <ele>379.4</ele>
        <time>2021-05-03T12:54:19Z</time>
      </trkpt>
      <trkpt lat="45.19493" lon="5.13187">
        <ele>379.5</ele>
        <time>2021-05-03T12:54:20Z</time>
      </trkpt>
      <trkpt lat="45.19492" lon="5.13195">
        <ele>379.6</ele>
        <time>2021-05-03T12:54:22Z</time>
      </trkpt>
      <trkpt lat="45.19491" lon="5.13201">
        <ele>379.7</ele>
        <time>2021-05-03T12:54:23Z</time>
      </trkpt>
      <trkpt lat="45.1949" lon="5.1321">
        <ele>379.8</ele>
        <time>2021-05-03T12:54:25Z</time>
      </trkpt>
      <trkpt lat="45.19489" lon="5.13216">
        <ele>379.9</ele>
        <time>2021-05-03T12:54:26Z</time>
      </trkpt>
      <trkpt lat="45.19488" lon="5.13221">
        <ele>379.9</ele>
        <time>2021-05-03T12:54:27Z</time>
      </trkpt>
      <trkpt lat="45.19487" lon="5.13227">
        <ele>380</ele>
        <time>2021-05-03T12:54:28Z</time>
      </trkpt>
      <trkpt lat="45.19485" lon="5.13233">
        <ele>380</ele>
        <time>2021-05-03T12:54:29Z</time>
      </trkpt>
      <trkpt lat="45.19484" lon="5.13246">
        <ele>380.1</ele>
        <time>2021-05-03T12:54:31Z</time>
      </trkpt>
      <trkpt lat="45.19483" lon="5.13253">
        <ele>380.2</ele>
        <time>2021-05-03T12:54:32Z</time>
      </trkpt>
      <trkpt lat="45.19481" lon="5.13262">
        <ele>380.2</ele>
        <time>2021-05-03T12:54:34Z</time>
      </trkpt>
      <trkpt lat="45.1948" lon="5.13268">
        <ele>380.3</ele>
        <time>2021-05-03T12:54:35Z</time>
      </trkpt>
      <trkpt lat="45.19479" lon="5.13274">
        <ele>380.3</ele>
        <time>2021-05-03T12:54:36Z</time>
      </trkpt>
      <trkpt lat="45.19478" lon="5.13283">
        <ele>380.3</ele>
        <time>2021-05-03T12:54:37Z</time>
      </trkpt>
      <trkpt lat="45.19477" lon="5.13291">
        <ele>380.4</ele>
        <time>2021-05-03T12:54:39Z</time>
      </trkpt>
      <trkpt lat="45.19476" lon="5.13298">
        <ele>380.4</ele>
        <time>2021-05-03T12:54:40Z</time>
      </trkpt>
      <trkpt lat="45.19475" lon="5.13305">
        <ele>380.4</ele>
        <time>2021-05-03T12:54:41Z</time>
      </trkpt>
      <trkpt lat="45.19474" lon="5.13312">
        <ele>380.4</ele>
        <time>2021-05-03T12:54:42Z</time>
      </trkpt>
      <trkpt lat="45.19474" lon="5.13318">
        <ele>380.4</ele>
        <time>2021-05-03T12:54:43Z</time>
      </trkpt>
      <trkpt lat="45.19473" lon="5.13325">
        <ele>380.4</ele>
        <time>2021-05-03T12:54:44Z</time>
      </trkpt>
      <trkpt lat="45.19473" lon="5.13331">
        <ele>380.4</ele>
        <time>2021-05-03T12:54:45Z</time>
      </trkpt>
      <trkpt lat="45.19473" lon="5.13338">
        <ele>380.4</ele>
        <time>2021-05-03T12:54:46Z</time>
      </trkpt>
      <trkpt lat="45.19473" lon="5.13344">
        <ele>380.3</ele>
        <time>2021-05-03T12:54:47Z</time>
      </trkpt>
      <trkpt lat="45.19472" lon="5.1335">
        <ele>380.2</ele>
        <time>2021-05-03T12:54:48Z</time>
      </trkpt>
      <trkpt lat="45.19472" lon="5.13357">
        <ele>380.2</ele>
        <time>2021-05-03T12:54:49Z</time>
      </trkpt>
      <trkpt lat="45.19472" lon="5.13364">
        <ele>380.1</ele>
        <time>2021-05-03T12:54:50Z</time>
      </trkpt>
      <trkpt lat="45.19472" lon="5.13371">
        <ele>380</ele>
        <time>2021-05-03T12:54:51Z</time>
      </trkpt>
      <trkpt lat="45.19472" lon="5.13378">
        <ele>380</ele>
        <time>2021-05-03T12:54:52Z</time>
      </trkpt>
      <trkpt lat="45.19472" lon="5.13384">
        <ele>379.9</ele>
        <time>2021-05-03T12:54:53Z</time>
      </trkpt>
      <trkpt lat="45.19473" lon="5.13391">
        <ele>379.9</ele>
        <time>2021-05-03T12:54:54Z</time>
      </trkpt>
      <trkpt lat="45.19473" lon="5.13399">
        <ele>379.8</ele>
        <time>2021-05-03T12:54:55Z</time>
      </trkpt>
      <trkpt lat="45.19473" lon="5.13406">
        <ele>379.7</ele>
        <time>2021-05-03T12:54:56Z</time>
      </trkpt>
      <trkpt lat="45.19473" lon="5.13414">
        <ele>379.7</ele>
        <time>2021-05-03T12:54:57Z</time>
      </trkpt>
      <trkpt lat="45.19474" lon="5.13421">
        <ele>379.6</ele>
        <time>2021-05-03T12:54:58Z</time>
      </trkpt>
      <trkpt lat="45.19474" lon="5.13429">
        <ele>379.6</ele>
        <time>2021-05-03T12:54:59Z</time>
      </trkpt>
      <trkpt lat="45.19474" lon="5.13437">
        <ele>379.6</ele>
        <time>2021-05-03T12:55:00Z</time>
      </trkpt>
      <trkpt lat="45.19473" lon="5.13445">
        <ele>379.6</ele>
        <time>2021-05-03T12:55:01Z</time>
      </trkpt>
      <trkpt lat="45.19473" lon="5.13452">
        <ele>379.6</ele>
        <time>2021-05-03T12:55:02Z</time>
      </trkpt>
      <trkpt lat="45.19473" lon="5.1346">
        <ele>379.6</ele>
        <time>2021-05-03T12:55:03Z</time>
      </trkpt>
      <trkpt lat="45.19473" lon="5.13468">
        <ele>379.7</ele>
        <time>2021-05-03T12:55:04Z</time>
      </trkpt>
      <trkpt lat="45.19473" lon="5.13476">
        <ele>379.7</ele>
        <time>2021-05-03T12:55:05Z</time>
      </trkpt>
      <trkpt lat="45.19473" lon="5.13483">
        <ele>379.8</ele>
        <time>2021-05-03T12:55:06Z</time>
      </trkpt>
      <trkpt lat="45.19474" lon="5.1349">
        <ele>379.8</ele>
        <time>2021-05-03T12:55:07Z</time>
      </trkpt>
      <trkpt lat="45.19474" lon="5.13497">
        <ele>379.9</ele>
        <time>2021-05-03T12:55:08Z</time>
      </trkpt>
      <trkpt lat="45.19474" lon="5.13504">
        <ele>380</ele>
        <time>2021-05-03T12:55:09Z</time>
      </trkpt>
      <trkpt lat="45.19473" lon="5.13511">
        <ele>380.1</ele>
        <time>2021-05-03T12:55:10Z</time>
      </trkpt>
      <trkpt lat="45.19473" lon="5.13519">
        <ele>380.2</ele>
        <time>2021-05-03T12:55:11Z</time>
      </trkpt>
      <trkpt lat="45.19473" lon="5.13526">
        <ele>380.3</ele>
        <time>2021-05-03T12:55:12Z</time>
      </trkpt>
      <trkpt lat="45.19473" lon="5.13532">
        <ele>380.4</ele>
        <time>2021-05-03T12:55:13Z</time>
      </trkpt>
      <trkpt lat="45.19473" lon="5.13539">
        <ele>380.5</ele>
        <time>2021-05-03T12:55:14Z</time>
      </trkpt>
      <trkpt lat="45.19473" lon="5.13546">
        <ele>380.7</ele>
        <time>2021-05-03T12:55:15Z</time>
      </trkpt>
      <trkpt lat="45.19474" lon="5.13552">
        <ele>380.8</ele>
        <time>2021-05-03T12:55:16Z</time>
      </trkpt>
      <trkpt lat="45.19474" lon="5.13556">
        <ele>380.9</ele>
        <time>2021-05-03T12:55:17Z</time>
      </trkpt>
      <trkpt lat="45.19474" lon="5.13562">
        <ele>381</ele>
        <time>2021-05-03T12:55:18Z</time>
      </trkpt>
      <trkpt lat="45.19474" lon="5.13567">
        <ele>381.2</ele>
        <time>2021-05-03T12:55:19Z</time>
      </trkpt>
      <trkpt lat="45.19475" lon="5.13573">
        <ele>381.3</ele>
        <time>2021-05-03T12:55:20Z</time>
      </trkpt>
      <trkpt lat="45.19474" lon="5.13577">
        <ele>381.5</ele>
        <time>2021-05-03T12:55:21Z</time>
      </trkpt>
      <trkpt lat="45.19474" lon="5.13583">
        <ele>381.7</ele>
        <time>2021-05-03T12:55:22Z</time>
      </trkpt>
      <trkpt lat="45.19474" lon="5.13589">
        <ele>381.8</ele>
        <time>2021-05-03T12:55:23Z</time>
      </trkpt>
      <trkpt lat="45.19469" lon="5.13587">
        <ele>382.1</ele>
        <time>2021-05-03T12:55:24Z</time>
      </trkpt>
      <trkpt lat="45.1947" lon="5.13603">
        <ele>382.7</ele>
        <time>2021-05-03T12:55:26Z</time>
      </trkpt>
      <trkpt lat="45.19472" lon="5.13611">
        <ele>383</ele>
        <time>2021-05-03T12:55:27Z</time>
      </trkpt>
      <trkpt lat="45.19473" lon="5.13618">
        <ele>383.3</ele>
        <time>2021-05-03T12:55:28Z</time>
      </trkpt>
      <trkpt lat="45.19475" lon="5.13629">
        <ele>383.8</ele>
        <time>2021-05-03T12:55:30Z</time>
      </trkpt>
      <trkpt lat="45.19475" lon="5.13635">
        <ele>384</ele>
        <time>2021-05-03T12:55:31Z</time>
      </trkpt>
      <trkpt lat="45.19475" lon="5.13641">
        <ele>384.3</ele>
        <time>2021-05-03T12:55:32Z</time>
      </trkpt>
      <trkpt lat="45.19475" lon="5.13646">
        <ele>384.5</ele>
        <time>2021-05-03T12:55:33Z</time>
      </trkpt>
      <trkpt lat="45.19476" lon="5.13654">
        <ele>384.8</ele>
        <time>2021-05-03T12:55:34Z</time>
      </trkpt>
      <trkpt lat="45.19476" lon="5.13658">
        <ele>385</ele>
        <time>2021-05-03T12:55:36Z</time>
      </trkpt>
      <trkpt lat="45.19476" lon="5.13663">
        <ele>385.2</ele>
        <time>2021-05-03T12:55:37Z</time>
      </trkpt>
      <trkpt lat="45.19476" lon="5.13667">
        <ele>385.4</ele>
        <time>2021-05-03T12:55:38Z</time>
      </trkpt>
      <trkpt lat="45.19476" lon="5.13672">
        <ele>385.7</ele>
        <time>2021-05-03T12:55:39Z</time>
      </trkpt>
      <trkpt lat="45.19476" lon="5.13678">
        <ele>385.9</ele>
        <time>2021-05-03T12:55:40Z</time>
      </trkpt>
      <trkpt lat="45.19476" lon="5.13682">
        <ele>386.1</ele>
        <time>2021-05-03T12:55:42Z</time>
      </trkpt>
      <trkpt lat="45.19476" lon="5.13688">
        <ele>386.4</ele>
        <time>2021-05-03T12:55:43Z</time>
      </trkpt>
      <trkpt lat="45.19476" lon="5.13692">
        <ele>386.6</ele>
        <time>2021-05-03T12:55:45Z</time>
      </trkpt>
      <trkpt lat="45.19477" lon="5.13697">
        <ele>386.7</ele>
        <time>2021-05-03T12:55:46Z</time>
      </trkpt>
      <trkpt lat="45.19477" lon="5.13703">
        <ele>387</ele>
        <time>2021-05-03T12:55:47Z</time>
      </trkpt>
      <trkpt lat="45.19477" lon="5.13709">
        <ele>387.2</ele>
        <time>2021-05-03T12:55:49Z</time>
      </trkpt>
      <trkpt lat="45.19477" lon="5.13714">
        <ele>387.5</ele>
        <time>2021-05-03T12:55:50Z</time>
      </trkpt>
      <trkpt lat="45.19477" lon="5.1372">
        <ele>387.7</ele>
        <time>2021-05-03T12:55:52Z</time>
      </trkpt>
      <trkpt lat="45.19477" lon="5.13727">
        <ele>388</ele>
        <time>2021-05-03T12:55:53Z</time>
      </trkpt>
      <trkpt lat="45.19477" lon="5.1373">
        <ele>388.1</ele>
        <time>2021-05-03T12:55:54Z</time>
      </trkpt>
      <trkpt lat="45.19477" lon="5.13734">
        <ele>388.3</ele>
        <time>2021-05-03T12:55:55Z</time>
      </trkpt>
      <trkpt lat="45.19477" lon="5.13739">
        <ele>388.5</ele>
        <time>2021-05-03T12:55:57Z</time>
      </trkpt>
      <trkpt lat="45.19478" lon="5.13744">
        <ele>388.6</ele>
        <time>2021-05-03T12:55:58Z</time>
      </trkpt>
      <trkpt lat="45.19478" lon="5.13752">
        <ele>389</ele>
        <time>2021-05-03T12:56:00Z</time>
      </trkpt>
      <trkpt lat="45.19479" lon="5.1376">
        <ele>389.3</ele>
        <time>2021-05-03T12:56:02Z</time>
      </trkpt>
      <trkpt lat="45.19479" lon="5.13767">
        <ele>389.5</ele>
        <time>2021-05-03T12:56:04Z</time>
      </trkpt>
      <trkpt lat="45.19479" lon="5.13772">
        <ele>389.8</ele>
        <time>2021-05-03T12:56:05Z</time>
      </trkpt>
      <trkpt lat="45.1948" lon="5.13776">
        <ele>389.9</ele>
        <time>2021-05-03T12:56:06Z</time>
      </trkpt>
      <trkpt lat="45.1948" lon="5.13782">
        <ele>390.2</ele>
        <time>2021-05-03T12:56:08Z</time>
      </trkpt>
      <trkpt lat="45.1948" lon="5.13785">
        <ele>390.3</ele>
        <time>2021-05-03T12:56:09Z</time>
      </trkpt>
      <trkpt lat="45.19481" lon="5.13792">
        <ele>390.6</ele>
        <time>2021-05-03T12:56:11Z</time>
      </trkpt>
      <trkpt lat="45.19481" lon="5.13797">
        <ele>390.8</ele>
        <time>2021-05-03T12:56:12Z</time>
      </trkpt>
      <trkpt lat="45.1948" lon="5.13802">
        <ele>391</ele>
        <time>2021-05-03T12:56:13Z</time>
      </trkpt>
      <trkpt lat="45.1948" lon="5.13805">
        <ele>391.1</ele>
        <time>2021-05-03T12:56:14Z</time>
      </trkpt>
      <trkpt lat="45.19481" lon="5.13809">
        <ele>391.3</ele>
        <time>2021-05-03T12:56:15Z</time>
      </trkpt>
      <trkpt lat="45.19481" lon="5.13814">
        <ele>391.5</ele>
        <time>2021-05-03T12:56:16Z</time>
      </trkpt>
      <trkpt lat="45.19482" lon="5.1382">
        <ele>391.7</ele>
        <time>2021-05-03T12:56:18Z</time>
      </trkpt>
      <trkpt lat="45.19482" lon="5.13826">
        <ele>391.9</ele>
        <time>2021-05-03T12:56:19Z</time>
      </trkpt>
      <trkpt lat="45.19482" lon="5.13829">
        <ele>392</ele>
        <time>2021-05-03T12:56:20Z</time>
      </trkpt>
      <trkpt lat="45.19482" lon="5.13836">
        <ele>392.3</ele>
        <time>2021-05-03T12:56:21Z</time>
      </trkpt>
      <trkpt lat="45.19482" lon="5.13843">
        <ele>392.5</ele>
        <time>2021-05-03T12:56:23Z</time>
      </trkpt>
      <trkpt lat="45.19482" lon="5.1385">
        <ele>392.8</ele>
        <time>2021-05-03T12:56:24Z</time>
      </trkpt>
      <trkpt lat="45.19483" lon="5.13855">
        <ele>393</ele>
        <time>2021-05-03T12:56:26Z</time>
      </trkpt>
      <trkpt lat="45.19483" lon="5.13859">
        <ele>393.1</ele>
        <time>2021-05-03T12:56:27Z</time>
      </trkpt>
      <trkpt lat="45.19484" lon="5.13864">
        <ele>393.3</ele>
        <time>2021-05-03T12:56:28Z</time>
      </trkpt>
      <trkpt lat="45.19484" lon="5.13872">
        <ele>393.6</ele>
        <time>2021-05-03T12:56:30Z</time>
      </trkpt>
      <trkpt lat="45.19485" lon="5.13878">
        <ele>393.8</ele>
        <time>2021-05-03T12:56:31Z</time>
      </trkpt>
      <trkpt lat="45.19485" lon="5.13881">
        <ele>393.9</ele>
        <time>2021-05-03T12:56:32Z</time>
      </trkpt>
      <trkpt lat="45.19486" lon="5.1389">
        <ele>394.2</ele>
        <time>2021-05-03T12:56:34Z</time>
      </trkpt>
      <trkpt lat="45.19487" lon="5.13894">
        <ele>394.4</ele>
        <time>2021-05-03T12:56:35Z</time>
      </trkpt>
      <trkpt lat="45.19487" lon="5.13902">
        <ele>394.6</ele>
        <time>2021-05-03T12:56:36Z</time>
      </trkpt>
      <trkpt lat="45.19488" lon="5.13908">
        <ele>394.8</ele>
        <time>2021-05-03T12:56:38Z</time>
      </trkpt>
      <trkpt lat="45.19488" lon="5.13912">
        <ele>395</ele>
        <time>2021-05-03T12:56:39Z</time>
      </trkpt>
      <trkpt lat="45.19489" lon="5.1392">
        <ele>395.3</ele>
        <time>2021-05-03T12:56:41Z</time>
      </trkpt>
      <trkpt lat="45.1949" lon="5.13924">
        <ele>395.4</ele>
        <time>2021-05-03T12:56:42Z</time>
      </trkpt>
      <trkpt lat="45.19491" lon="5.1393">
        <ele>395.6</ele>
        <time>2021-05-03T12:56:44Z</time>
      </trkpt>
      <trkpt lat="45.19492" lon="5.13934">
        <ele>395.7</ele>
        <time>2021-05-03T12:56:45Z</time>
      </trkpt>
      <trkpt lat="45.19493" lon="5.13939">
        <ele>395.9</ele>
        <time>2021-05-03T12:56:46Z</time>
      </trkpt>
      <trkpt lat="45.19494" lon="5.13947">
        <ele>396.1</ele>
        <time>2021-05-03T12:56:48Z</time>
      </trkpt>
      <trkpt lat="45.19495" lon="5.13955">
        <ele>396.2</ele>
        <time>2021-05-03T12:56:50Z</time>
      </trkpt>
      <trkpt lat="45.19496" lon="5.1396">
        <ele>396.3</ele>
        <time>2021-05-03T12:56:51Z</time>
      </trkpt>
      <trkpt lat="45.19496" lon="5.13965">
        <ele>396.4</ele>
        <time>2021-05-03T12:56:52Z</time>
      </trkpt>
      <trkpt lat="45.19496" lon="5.1397">
        <ele>396.5</ele>
        <time>2021-05-03T12:56:53Z</time>
      </trkpt>
      <trkpt lat="45.19496" lon="5.13975">
        <ele>396.6</ele>
        <time>2021-05-03T12:56:54Z</time>
      </trkpt>
      <trkpt lat="45.19497" lon="5.13983">
        <ele>396.8</ele>
        <time>2021-05-03T12:56:55Z</time>
      </trkpt>
      <trkpt lat="45.19497" lon="5.13987">
        <ele>396.9</ele>
        <time>2021-05-03T12:56:57Z</time>
      </trkpt>
      <trkpt lat="45.19499" lon="5.13997">
        <ele>397.1</ele>
        <time>2021-05-03T12:56:59Z</time>
      </trkpt>
      <trkpt lat="45.195" lon="5.14005">
        <ele>397.2</ele>
        <time>2021-05-03T12:57:00Z</time>
      </trkpt>
      <trkpt lat="45.19502" lon="5.14011">
        <ele>397.4</ele>
        <time>2021-05-03T12:57:02Z</time>
      </trkpt>
      <trkpt lat="45.19502" lon="5.14017">
        <ele>397.5</ele>
        <time>2021-05-03T12:57:03Z</time>
      </trkpt>
      <trkpt lat="45.19504" lon="5.14027">
        <ele>397.7</ele>
        <time>2021-05-03T12:57:05Z</time>
      </trkpt>
      <trkpt lat="45.19506" lon="5.14038">
        <ele>398</ele>
        <time>2021-05-03T12:57:07Z</time>
      </trkpt>
      <trkpt lat="45.19508" lon="5.14049">
        <ele>398.3</ele>
        <time>2021-05-03T12:57:09Z</time>
      </trkpt>
      <trkpt lat="45.19509" lon="5.14059">
        <ele>398.6</ele>
        <time>2021-05-03T12:57:11Z</time>
      </trkpt>
      <trkpt lat="45.19511" lon="5.14069">
        <ele>398.9</ele>
        <time>2021-05-03T12:57:13Z</time>
      </trkpt>
      <trkpt lat="45.19512" lon="5.14079">
        <ele>399.3</ele>
        <time>2021-05-03T12:57:15Z</time>
      </trkpt>
      <trkpt lat="45.19513" lon="5.14083">
        <ele>399.4</ele>
        <time>2021-05-03T12:57:16Z</time>
      </trkpt>
      <trkpt lat="45.19515" lon="5.14091">
        <ele>399.7</ele>
        <time>2021-05-03T12:57:18Z</time>
      </trkpt>
      <trkpt lat="45.19515" lon="5.14095">
        <ele>399.8</ele>
        <time>2021-05-03T12:57:19Z</time>
      </trkpt>
      <trkpt lat="45.19515" lon="5.14101">
        <ele>400</ele>
        <time>2021-05-03T12:57:20Z</time>
      </trkpt>
      <trkpt lat="45.19516" lon="5.14109">
        <ele>400.3</ele>
        <time>2021-05-03T12:57:22Z</time>
      </trkpt>
      <trkpt lat="45.19517" lon="5.14114">
        <ele>400.5</ele>
        <time>2021-05-03T12:57:23Z</time>
      </trkpt>
      <trkpt lat="45.19517" lon="5.14121">
        <ele>400.7</ele>
        <time>2021-05-03T12:57:25Z</time>
      </trkpt>
      <trkpt lat="45.19517" lon="5.14125">
        <ele>400.9</ele>
        <time>2021-05-03T12:57:26Z</time>
      </trkpt>
      <trkpt lat="45.19519" lon="5.14135">
        <ele>401.2</ele>
        <time>2021-05-03T12:57:28Z</time>
      </trkpt>
      <trkpt lat="45.19521" lon="5.14144">
        <ele>401.6</ele>
        <time>2021-05-03T12:57:30Z</time>
      </trkpt>
      <trkpt lat="45.19522" lon="5.14152">
        <ele>401.9</ele>
        <time>2021-05-03T12:57:32Z</time>
      </trkpt>
      <trkpt lat="45.19523" lon="5.14157">
        <ele>402</ele>
        <time>2021-05-03T12:57:33Z</time>
      </trkpt>
      <trkpt lat="45.19525" lon="5.14164">
        <ele>402.3</ele>
        <time>2021-05-03T12:57:35Z</time>
      </trkpt>
      <trkpt lat="45.19526" lon="5.1417">
        <ele>402.5</ele>
        <time>2021-05-03T12:57:36Z</time>
      </trkpt>
      <trkpt lat="45.19527" lon="5.14175">
        <ele>402.6</ele>
        <time>2021-05-03T12:57:37Z</time>
      </trkpt>
      <trkpt lat="45.19529" lon="5.1418">
        <ele>402.7</ele>
        <time>2021-05-03T12:57:38Z</time>
      </trkpt>
      <trkpt lat="45.1953" lon="5.14182">
        <ele>402.7</ele>
        <time>2021-05-03T12:57:39Z</time>
      </trkpt>
      <trkpt lat="45.19533" lon="5.14187">
        <ele>402.8</ele>
        <time>2021-05-03T12:57:41Z</time>
      </trkpt>
      <trkpt lat="45.19534" lon="5.14194">
        <ele>402.9</ele>
        <time>2021-05-03T12:57:43Z</time>
      </trkpt>
      <trkpt lat="45.19536" lon="5.14202">
        <ele>403</ele>
        <time>2021-05-03T12:57:45Z</time>
      </trkpt>
      <trkpt lat="45.19536" lon="5.14205">
        <ele>403</ele>
        <time>2021-05-03T12:57:46Z</time>
      </trkpt>
      <trkpt lat="45.19536" lon="5.1421">
        <ele>403</ele>
        <time>2021-05-03T12:57:47Z</time>
      </trkpt>
      <trkpt lat="45.19535" lon="5.14218">
        <ele>403</ele>
        <time>2021-05-03T12:57:48Z</time>
      </trkpt>
      <trkpt lat="45.19533" lon="5.14225">
        <ele>402.9</ele>
        <time>2021-05-03T12:57:50Z</time>
      </trkpt>
      <trkpt lat="45.19531" lon="5.14237">
        <ele>402.8</ele>
        <time>2021-05-03T12:57:52Z</time>
      </trkpt>
      <trkpt lat="45.19529" lon="5.14246">
        <ele>402.7</ele>
        <time>2021-05-03T12:57:54Z</time>
      </trkpt>
      <trkpt lat="45.19528" lon="5.14257">
        <ele>402.6</ele>
        <time>2021-05-03T12:57:56Z</time>
      </trkpt>
      <trkpt lat="45.19526" lon="5.14263">
        <ele>402.5</ele>
        <time>2021-05-03T12:57:58Z</time>
      </trkpt>
      <trkpt lat="45.19523" lon="5.14266">
        <ele>402.5</ele>
        <time>2021-05-03T12:58:00Z</time>
      </trkpt>
      <trkpt lat="45.19521" lon="5.14267">
        <ele>402.4</ele>
        <time>2021-05-03T12:58:01Z</time>
      </trkpt>
      <trkpt lat="45.1952" lon="5.14268">
        <ele>402.4</ele>
        <time>2021-05-03T12:58:03Z</time>
      </trkpt>
      <trkpt lat="45.19518" lon="5.14267">
        <ele>402.4</ele>
        <time>2021-05-03T12:58:04Z</time>
      </trkpt>
      <trkpt lat="45.19517" lon="5.14266">
        <ele>402.4</ele>
        <time>2021-05-03T12:58:06Z</time>
      </trkpt>
      <trkpt lat="45.19517" lon="5.14265">
        <ele>402.4</ele>
        <time>2021-05-03T12:58:07Z</time>
      </trkpt>
      <trkpt lat="45.19517" lon="5.14265">
        <ele>402.4</ele>
        <time>2021-05-03T12:58:08Z</time>
      </trkpt>
      <trkpt lat="45.19517" lon="5.14264">
        <ele>402.4</ele>
        <time>2021-05-03T12:58:09Z</time>
      </trkpt>
      <trkpt lat="45.19517" lon="5.14264">
        <ele>402.4</ele>
        <time>2021-05-03T12:58:10Z</time>
      </trkpt>
      <trkpt lat="45.19517" lon="5.14264">
        <ele>402.4</ele>
        <time>2021-05-03T12:58:11Z</time>
      </trkpt>
      <trkpt lat="45.19517" lon="5.14264">
        <ele>402.4</ele>
        <time>2021-05-03T12:58:12Z</time>
      </trkpt>
      <trkpt lat="45.19517" lon="5.14264">
        <ele>402.4</ele>
        <time>2021-05-03T12:58:13Z</time>
      </trkpt>
      <trkpt lat="45.19517" lon="5.14263">
        <ele>402.4</ele>
        <time>2021-05-03T12:58:14Z</time>
      </trkpt>
      <trkpt lat="45.19517" lon="5.14263">
        <ele>402.4</ele>
        <time>2021-05-03T12:58:15Z</time>
      </trkpt>
      <trkpt lat="45.19517" lon="5.14263">
        <ele>402.4</ele>
        <time>2021-05-03T12:58:16Z</time>
      </trkpt>
      <trkpt lat="45.19515" lon="5.14262">
        <ele>402.4</ele>
        <time>2021-05-03T12:58:21Z</time>
      </trkpt>
      <trkpt lat="45.19513" lon="5.14262">
        <ele>402.4</ele>
        <time>2021-05-03T12:58:23Z</time>
      </trkpt>
      <trkpt lat="45.19512" lon="5.14262">
        <ele>402.4</ele>
        <time>2021-05-03T12:58:24Z</time>
      </trkpt>
      <trkpt lat="45.19511" lon="5.14263">
        <ele>402.4</ele>
        <time>2021-05-03T12:58:25Z</time>
      </trkpt>
      <trkpt lat="45.1951" lon="5.14264">
        <ele>402.4</ele>
        <time>2021-05-03T12:58:26Z</time>
      </trkpt>
      <trkpt lat="45.19509" lon="5.14266">
        <ele>402.3</ele>
        <time>2021-05-03T12:58:28Z</time>
      </trkpt>
      <trkpt lat="45.19508" lon="5.14268">
        <ele>402.3</ele>
        <time>2021-05-03T12:58:29Z</time>
      </trkpt>
      <trkpt lat="45.19507" lon="5.1427">
        <ele>402.3</ele>
        <time>2021-05-03T12:58:31Z</time>
      </trkpt>
      <trkpt lat="45.19506" lon="5.14271">
        <ele>402.3</ele>
        <time>2021-05-03T12:58:32Z</time>
      </trkpt>
      <trkpt lat="45.19505" lon="5.14273">
        <ele>402.3</ele>
        <time>2021-05-03T12:58:33Z</time>
      </trkpt>
      <trkpt lat="45.19504" lon="5.14275">
        <ele>402.3</ele>
        <time>2021-05-03T12:58:35Z</time>
      </trkpt>
      <trkpt lat="45.19503" lon="5.14275">
        <ele>402.3</ele>
        <time>2021-05-03T12:58:36Z</time>
      </trkpt>
      <trkpt lat="45.19503" lon="5.14276">
        <ele>402.3</ele>
        <time>2021-05-03T12:58:37Z</time>
      </trkpt>
      <trkpt lat="45.19504" lon="5.14278">
        <ele>402.3</ele>
        <time>2021-05-03T12:58:39Z</time>
      </trkpt>
      <trkpt lat="45.19504" lon="5.14279">
        <ele>402.3</ele>
        <time>2021-05-03T12:58:40Z</time>
      </trkpt>
      <trkpt lat="45.19504" lon="5.14279">
        <ele>402.3</ele>
        <time>2021-05-03T12:58:42Z</time>
      </trkpt>
      <trkpt lat="45.19504" lon="5.1428">
        <ele>402.3</ele>
        <time>2021-05-03T12:58:43Z</time>
      </trkpt>
      <trkpt lat="45.19504" lon="5.14281">
        <ele>402.3</ele>
        <time>2021-05-03T12:58:44Z</time>
      </trkpt>
      <trkpt lat="45.19504" lon="5.14281">
        <ele>402.3</ele>
        <time>2021-05-03T12:58:45Z</time>
      </trkpt>
      <trkpt lat="45.19505" lon="5.14282">
        <ele>402.3</ele>
        <time>2021-05-03T12:58:46Z</time>
      </trkpt>
      <trkpt lat="45.19505" lon="5.14282">
        <ele>402.3</ele>
        <time>2021-05-03T12:58:47Z</time>
      </trkpt>
      <trkpt lat="45.19505" lon="5.14283">
        <ele>402.3</ele>
        <time>2021-05-03T12:59:03Z</time>
      </trkpt>
      <trkpt lat="45.19505" lon="5.14284">
        <ele>402.3</ele>
        <time>2021-05-03T12:59:04Z</time>
      </trkpt>
      <trkpt lat="45.19505" lon="5.14284">
        <ele>402.3</ele>
        <time>2021-05-03T12:59:05Z</time>
      </trkpt>
      <trkpt lat="45.19505" lon="5.14285">
        <ele>402.3</ele>
        <time>2021-05-03T12:59:07Z</time>
      </trkpt>
      <trkpt lat="45.19506" lon="5.14285">
        <ele>402.3</ele>
        <time>2021-05-03T12:59:08Z</time>
      </trkpt>
      <trkpt lat="45.19506" lon="5.14287">
        <ele>402.4</ele>
        <time>2021-05-03T12:59:09Z</time>
      </trkpt>
      <trkpt lat="45.19506" lon="5.1429">
        <ele>402.4</ele>
        <time>2021-05-03T12:59:11Z</time>
      </trkpt>
      <trkpt lat="45.19506" lon="5.14291">
        <ele>402.4</ele>
        <time>2021-05-03T12:59:13Z</time>
      </trkpt>
      <trkpt lat="45.19506" lon="5.14292">
        <ele>402.4</ele>
        <time>2021-05-03T12:59:15Z</time>
      </trkpt>
      <trkpt lat="45.19506" lon="5.14293">
        <ele>402.4</ele>
        <time>2021-05-03T12:59:17Z</time>
      </trkpt>
      <trkpt lat="45.19505" lon="5.14295">
        <ele>402.4</ele>
        <time>2021-05-03T12:59:19Z</time>
      </trkpt>
      <trkpt lat="45.19504" lon="5.14298">
        <ele>402.4</ele>
        <time>2021-05-03T12:59:21Z</time>
      </trkpt>
      <trkpt lat="45.19503" lon="5.14301">
        <ele>402.5</ele>
        <time>2021-05-03T12:59:23Z</time>
      </trkpt>
      <trkpt lat="45.19503" lon="5.14303">
        <ele>402.5</ele>
        <time>2021-05-03T12:59:24Z</time>
      </trkpt>
      <trkpt lat="45.19502" lon="5.14305">
        <ele>402.5</ele>
        <time>2021-05-03T12:59:26Z</time>
      </trkpt>
      <trkpt lat="45.19502" lon="5.14307">
        <ele>402.6</ele>
        <time>2021-05-03T12:59:27Z</time>
      </trkpt>
      <trkpt lat="45.19502" lon="5.14308">
        <ele>402.6</ele>
        <time>2021-05-03T12:59:28Z</time>
      </trkpt>
      <trkpt lat="45.19502" lon="5.1431">
        <ele>402.6</ele>
        <time>2021-05-03T12:59:29Z</time>
      </trkpt>
      <trkpt lat="45.19502" lon="5.14313">
        <ele>402.7</ele>
        <time>2021-05-03T12:59:31Z</time>
      </trkpt>
      <trkpt lat="45.19502" lon="5.14315">
        <ele>402.7</ele>
        <time>2021-05-03T12:59:32Z</time>
      </trkpt>
      <trkpt lat="45.19503" lon="5.14316">
        <ele>402.7</ele>
        <time>2021-05-03T12:59:34Z</time>
      </trkpt>
      <trkpt lat="45.19503" lon="5.14318">
        <ele>402.7</ele>
        <time>2021-05-03T12:59:36Z</time>
      </trkpt>
      <trkpt lat="45.19503" lon="5.14319">
        <ele>402.8</ele>
        <time>2021-05-03T12:59:37Z</time>
      </trkpt>
      <trkpt lat="45.19504" lon="5.14321">
        <ele>402.8</ele>
        <time>2021-05-03T12:59:39Z</time>
      </trkpt>
      <trkpt lat="45.19504" lon="5.14322">
        <ele>402.8</ele>
        <time>2021-05-03T12:59:40Z</time>
      </trkpt>
      <trkpt lat="45.19505" lon="5.14325">
        <ele>402.9</ele>
        <time>2021-05-03T12:59:42Z</time>
      </trkpt>
      <trkpt lat="45.19506" lon="5.14326">
        <ele>402.9</ele>
        <time>2021-05-03T12:59:43Z</time>
      </trkpt>
      <trkpt lat="45.19507" lon="5.14327">
        <ele>403</ele>
        <time>2021-05-03T12:59:44Z</time>
      </trkpt>
      <trkpt lat="45.19507" lon="5.14329">
        <ele>403</ele>
        <time>2021-05-03T12:59:45Z</time>
      </trkpt>
      <trkpt lat="45.19508" lon="5.14331">
        <ele>403.1</ele>
        <time>2021-05-03T12:59:46Z</time>
      </trkpt>
      <trkpt lat="45.19509" lon="5.14333">
        <ele>403.2</ele>
        <time>2021-05-03T12:59:48Z</time>
      </trkpt>
      <trkpt lat="45.1951" lon="5.14334">
        <ele>403.2</ele>
        <time>2021-05-03T12:59:50Z</time>
      </trkpt>
      <trkpt lat="45.19511" lon="5.14337">
        <ele>403.3</ele>
        <time>2021-05-03T12:59:52Z</time>
      </trkpt>
      <trkpt lat="45.1951" lon="5.14339">
        <ele>403.4</ele>
        <time>2021-05-03T12:59:53Z</time>
      </trkpt>
      <trkpt lat="45.1951" lon="5.14341">
        <ele>403.4</ele>
        <time>2021-05-03T12:59:55Z</time>
      </trkpt>
      <trkpt lat="45.1951" lon="5.14342">
        <ele>403.5</ele>
        <time>2021-05-03T12:59:56Z</time>
      </trkpt>
      <trkpt lat="45.1951" lon="5.14343">
        <ele>403.5</ele>
        <time>2021-05-03T12:59:57Z</time>
      </trkpt>
      <trkpt lat="45.1951" lon="5.14345">
        <ele>403.5</ele>
        <time>2021-05-03T12:59:59Z</time>
      </trkpt>
      <trkpt lat="45.1951" lon="5.14346">
        <ele>403.5</ele>
        <time>2021-05-03T13:00:00Z</time>
      </trkpt>
      <trkpt lat="45.1951" lon="5.14348">
        <ele>403.6</ele>
        <time>2021-05-03T13:00:01Z</time>
      </trkpt>
      <trkpt lat="45.19511" lon="5.14349">
        <ele>403.6</ele>
        <time>2021-05-03T13:00:02Z</time>
      </trkpt>
      <trkpt lat="45.19511" lon="5.14351">
        <ele>403.6</ele>
        <time>2021-05-03T13:00:03Z</time>
      </trkpt>
      <trkpt lat="45.19511" lon="5.14352">
        <ele>403.7</ele>
        <time>2021-05-03T13:00:04Z</time>
      </trkpt>
      <trkpt lat="45.19512" lon="5.14353">
        <ele>403.7</ele>
        <time>2021-05-03T13:00:05Z</time>
      </trkpt>
      <trkpt lat="45.19513" lon="5.14356">
        <ele>403.7</ele>
        <time>2021-05-03T13:00:07Z</time>
      </trkpt>
      <trkpt lat="45.19513" lon="5.14357">
        <ele>403.8</ele>
        <time>2021-05-03T13:00:08Z</time>
      </trkpt>
      <trkpt lat="45.19514" lon="5.14357">
        <ele>403.8</ele>
        <time>2021-05-03T13:00:09Z</time>
      </trkpt>
      <trkpt lat="45.19514" lon="5.14357">
        <ele>403.8</ele>
        <time>2021-05-03T13:00:10Z</time>
      </trkpt>
      <trkpt lat="45.19514" lon="5.14358">
        <ele>403.8</ele>
        <time>2021-05-03T13:00:11Z</time>
      </trkpt>
      <trkpt lat="45.19515" lon="5.14358">
        <ele>403.8</ele>
        <time>2021-05-03T13:00:12Z</time>
      </trkpt>
      <trkpt lat="45.19515" lon="5.1436">
        <ele>403.8</ele>
        <time>2021-05-03T13:00:13Z</time>
      </trkpt>
      <trkpt lat="45.19515" lon="5.14362">
        <ele>403.9</ele>
        <time>2021-05-03T13:00:15Z</time>
      </trkpt>
      <trkpt lat="45.19514" lon="5.14363">
        <ele>403.9</ele>
        <time>2021-05-03T13:00:17Z</time>
      </trkpt>
      <trkpt lat="45.19515" lon="5.14364">
        <ele>404.1</ele>
        <time>2021-05-03T13:00:18Z</time>
      </trkpt>
      <trkpt lat="45.19515" lon="5.14365">
        <ele>404.1</ele>
        <time>2021-05-03T13:00:19Z</time>
      </trkpt>
      <trkpt lat="45.19515" lon="5.14366">
        <ele>404.2</ele>
        <time>2021-05-03T13:00:20Z</time>
      </trkpt>
      <trkpt lat="45.19516" lon="5.14368">
        <ele>404.2</ele>
        <time>2021-05-03T13:00:21Z</time>
      </trkpt>
      <trkpt lat="45.19516" lon="5.14368">
        <ele>404.3</ele>
        <time>2021-05-03T13:00:22Z</time>
      </trkpt>
      <trkpt lat="45.19516" lon="5.14369">
        <ele>404.3</ele>
        <time>2021-05-03T13:00:23Z</time>
      </trkpt>
      <trkpt lat="45.19517" lon="5.1437">
        <ele>404.4</ele>
        <time>2021-05-03T13:00:24Z</time>
      </trkpt>
      <trkpt lat="45.19518" lon="5.14371">
        <ele>404.5</ele>
        <time>2021-05-03T13:00:25Z</time>
      </trkpt>
      <trkpt lat="45.19519" lon="5.14372">
        <ele>404.5</ele>
        <time>2021-05-03T13:00:26Z</time>
      </trkpt>
      <trkpt lat="45.19519" lon="5.14373">
        <ele>404.6</ele>
        <time>2021-05-03T13:00:27Z</time>
      </trkpt>
      <trkpt lat="45.1952" lon="5.14374">
        <ele>404.6</ele>
        <time>2021-05-03T13:00:29Z</time>
      </trkpt>
      <trkpt lat="45.1952" lon="5.14375">
        <ele>404.7</ele>
        <time>2021-05-03T13:00:31Z</time>
      </trkpt>
      <trkpt lat="45.19521" lon="5.14376">
        <ele>404.7</ele>
        <time>2021-05-03T13:00:32Z</time>
      </trkpt>
      <trkpt lat="45.19521" lon="5.14377">
        <ele>404.8</ele>
        <time>2021-05-03T13:00:33Z</time>
      </trkpt>
      <trkpt lat="45.19522" lon="5.14379">
        <ele>404.9</ele>
        <time>2021-05-03T13:00:35Z</time>
      </trkpt>
      <trkpt lat="45.19522" lon="5.1438">
        <ele>404.9</ele>
        <time>2021-05-03T13:00:37Z</time>
      </trkpt>
      <trkpt lat="45.19523" lon="5.1438">
        <ele>405</ele>
        <time>2021-05-03T13:00:39Z</time>
      </trkpt>
      <trkpt lat="45.19523" lon="5.1438">
        <ele>405</ele>
        <time>2021-05-03T13:00:40Z</time>
      </trkpt>
      <trkpt lat="45.19524" lon="5.14379">
        <ele>405.1</ele>
        <time>2021-05-03T13:00:41Z</time>
      </trkpt>
      <trkpt lat="45.19525" lon="5.1438">
        <ele>405.2</ele>
        <time>2021-05-03T13:00:43Z</time>
      </trkpt>
      <trkpt lat="45.19526" lon="5.14381">
        <ele>405.3</ele>
        <time>2021-05-03T13:00:44Z</time>
      </trkpt>
      <trkpt lat="45.19529" lon="5.14383">
        <ele>405.4</ele>
        <time>2021-05-03T13:00:46Z</time>
      </trkpt>
      <trkpt lat="45.19532" lon="5.14386">
        <ele>405.7</ele>
        <time>2021-05-03T13:00:48Z</time>
      </trkpt>
      <trkpt lat="45.19532" lon="5.14386">
        <ele>405.7</ele>
        <time>2021-05-03T13:00:49Z</time>
      </trkpt>
      <trkpt lat="45.19534" lon="5.14387">
        <ele>405.8</ele>
        <time>2021-05-03T13:00:50Z</time>
      </trkpt>
      <trkpt lat="45.19536" lon="5.14388">
        <ele>405.9</ele>
        <time>2021-05-03T13:00:51Z</time>
      </trkpt>
      <trkpt lat="45.19538" lon="5.1439">
        <ele>406.1</ele>
        <time>2021-05-03T13:00:53Z</time>
      </trkpt>
      <trkpt lat="45.1954" lon="5.14392">
        <ele>406.3</ele>
        <time>2021-05-03T13:00:55Z</time>
      </trkpt>
      <trkpt lat="45.19541" lon="5.14392">
        <ele>406.4</ele>
        <time>2021-05-03T13:00:56Z</time>
      </trkpt>
      <trkpt lat="45.19543" lon="5.14392">
        <ele>406.5</ele>
        <time>2021-05-03T13:00:57Z</time>
      </trkpt>
      <trkpt lat="45.19545" lon="5.14392">
        <ele>406.6</ele>
        <time>2021-05-03T13:00:59Z</time>
      </trkpt>
      <trkpt lat="45.19546" lon="5.14392">
        <ele>406.7</ele>
        <time>2021-05-03T13:01:00Z</time>
      </trkpt>
      <trkpt lat="45.19547" lon="5.14393">
        <ele>406.8</ele>
        <time>2021-05-03T13:01:01Z</time>
      </trkpt>
      <trkpt lat="45.19549" lon="5.14394">
        <ele>406.9</ele>
        <time>2021-05-03T13:01:03Z</time>
      </trkpt>
      <trkpt lat="45.1955" lon="5.14394">
        <ele>407</ele>
        <time>2021-05-03T13:01:04Z</time>
      </trkpt>
      <trkpt lat="45.19551" lon="5.14395">
        <ele>407.1</ele>
        <time>2021-05-03T13:01:05Z</time>
      </trkpt>
      <trkpt lat="45.19552" lon="5.14396">
        <ele>407.1</ele>
        <time>2021-05-03T13:01:07Z</time>
      </trkpt>
      <trkpt lat="45.19553" lon="5.14398">
        <ele>407.2</ele>
        <time>2021-05-03T13:01:08Z</time>
      </trkpt>
      <trkpt lat="45.19555" lon="5.144">
        <ele>407.4</ele>
        <time>2021-05-03T13:01:10Z</time>
      </trkpt>
      <trkpt lat="45.19556" lon="5.14401">
        <ele>407.5</ele>
        <time>2021-05-03T13:01:11Z</time>
      </trkpt>
      <trkpt lat="45.19557" lon="5.14404">
        <ele>407.6</ele>
        <time>2021-05-03T13:01:13Z</time>
      </trkpt>
      <trkpt lat="45.19559" lon="5.14406">
        <ele>407.8</ele>
        <time>2021-05-03T13:01:15Z</time>
      </trkpt>
      <trkpt lat="45.19561" lon="5.14407">
        <ele>407.9</ele>
        <time>2021-05-03T13:01:16Z</time>
      </trkpt>
      <trkpt lat="45.19561" lon="5.14407">
        <ele>407.9</ele>
        <time>2021-05-03T13:01:18Z</time>
      </trkpt>
      <trkpt lat="45.19562" lon="5.14408">
        <ele>408</ele>
        <time>2021-05-03T13:01:19Z</time>
      </trkpt>
      <trkpt lat="45.19562" lon="5.14408">
        <ele>408</ele>
        <time>2021-05-03T13:01:20Z</time>
      </trkpt>
      <trkpt lat="45.19563" lon="5.14408">
        <ele>408</ele>
        <time>2021-05-03T13:01:21Z</time>
      </trkpt>
      <trkpt lat="45.19563" lon="5.14409">
        <ele>408.1</ele>
        <time>2021-05-03T13:01:22Z</time>
      </trkpt>
      <trkpt lat="45.19563" lon="5.14409">
        <ele>408.1</ele>
        <time>2021-05-03T13:01:23Z</time>
      </trkpt>
      <trkpt lat="45.19564" lon="5.14409">
        <ele>408.1</ele>
        <time>2021-05-03T13:01:24Z</time>
      </trkpt>
      <trkpt lat="45.19564" lon="5.1441">
        <ele>408.2</ele>
        <time>2021-05-03T13:01:25Z</time>
      </trkpt>
      <trkpt lat="45.19565" lon="5.1441">
        <ele>408.2</ele>
        <time>2021-05-03T13:01:26Z</time>
      </trkpt>
      <trkpt lat="45.19565" lon="5.1441">
        <ele>408.2</ele>
        <time>2021-05-03T13:01:33Z</time>
      </trkpt>
      <trkpt lat="45.19566" lon="5.14411">
        <ele>408.2</ele>
        <time>2021-05-03T13:01:35Z</time>
      </trkpt>
      <trkpt lat="45.19566" lon="5.14411">
        <ele>408.3</ele>
        <time>2021-05-03T13:01:36Z</time>
      </trkpt>
      <trkpt lat="45.19568" lon="5.14413">
        <ele>408.4</ele>
        <time>2021-05-03T13:01:37Z</time>
      </trkpt>
      <trkpt lat="45.19569" lon="5.14416">
        <ele>408.6</ele>
        <time>2021-05-03T13:01:39Z</time>
      </trkpt>
      <trkpt lat="45.1957" lon="5.14417">
        <ele>408.7</ele>
        <time>2021-05-03T13:01:40Z</time>
      </trkpt>
      <trkpt lat="45.19571" lon="5.14418">
        <ele>408.7</ele>
        <time>2021-05-03T13:01:41Z</time>
      </trkpt>
      <trkpt lat="45.19574" lon="5.1442">
        <ele>408.9</ele>
        <time>2021-05-03T13:01:43Z</time>
      </trkpt>
      <trkpt lat="45.19575" lon="5.14422">
        <ele>409</ele>
        <time>2021-05-03T13:01:44Z</time>
      </trkpt>
      <trkpt lat="45.19576" lon="5.14423">
        <ele>409.1</ele>
        <time>2021-05-03T13:01:45Z</time>
      </trkpt>
      <trkpt lat="45.19578" lon="5.14427">
        <ele>409.2</ele>
        <time>2021-05-03T13:01:47Z</time>
      </trkpt>
      <trkpt lat="45.19578" lon="5.14428">
        <ele>409.3</ele>
        <time>2021-05-03T13:01:48Z</time>
      </trkpt>
      <trkpt lat="45.19578" lon="5.14429">
        <ele>409.3</ele>
        <time>2021-05-03T13:01:49Z</time>
      </trkpt>
      <trkpt lat="45.19579" lon="5.14429">
        <ele>409.4</ele>
        <time>2021-05-03T13:01:50Z</time>
      </trkpt>
      <trkpt lat="45.19579" lon="5.1443">
        <ele>409.4</ele>
        <time>2021-05-03T13:01:52Z</time>
      </trkpt>
      <trkpt lat="45.19579" lon="5.14429">
        <ele>409.4</ele>
        <time>2021-05-03T13:01:53Z</time>
      </trkpt>
      <trkpt lat="45.19579" lon="5.14429">
        <ele>409.4</ele>
        <time>2021-05-03T13:01:54Z</time>
      </trkpt>
      <trkpt lat="45.19579" lon="5.14429">
        <ele>409.4</ele>
        <time>2021-05-03T13:01:55Z</time>
      </trkpt>
      <trkpt lat="45.19579" lon="5.14429">
        <ele>409.4</ele>
        <time>2021-05-03T13:01:56Z</time>
      </trkpt>
      <trkpt lat="45.19579" lon="5.1443">
        <ele>409.5</ele>
        <time>2021-05-03T13:01:57Z</time>
      </trkpt>
      <trkpt lat="45.1958" lon="5.14432">
        <ele>409.6</ele>
        <time>2021-05-03T13:01:58Z</time>
      </trkpt>
      <trkpt lat="45.19581" lon="5.14434">
        <ele>409.7</ele>
        <time>2021-05-03T13:02:00Z</time>
      </trkpt>
      <trkpt lat="45.19581" lon="5.14437">
        <ele>409.8</ele>
        <time>2021-05-03T13:02:01Z</time>
      </trkpt>
      <trkpt lat="45.19582" lon="5.14439">
        <ele>409.8</ele>
        <time>2021-05-03T13:02:02Z</time>
      </trkpt>
      <trkpt lat="45.19583" lon="5.14439">
        <ele>409.9</ele>
        <time>2021-05-03T13:02:04Z</time>
      </trkpt>
      <trkpt lat="45.19583" lon="5.14441">
        <ele>409.9</ele>
        <time>2021-05-03T13:02:05Z</time>
      </trkpt>
      <trkpt lat="45.19584" lon="5.14443">
        <ele>410</ele>
        <time>2021-05-03T13:02:06Z</time>
      </trkpt>
      <trkpt lat="45.19585" lon="5.14445">
        <ele>410.1</ele>
        <time>2021-05-03T13:02:08Z</time>
      </trkpt>
      <trkpt lat="45.19586" lon="5.14447">
        <ele>410.2</ele>
        <time>2021-05-03T13:02:09Z</time>
      </trkpt>
      <trkpt lat="45.19586" lon="5.14449">
        <ele>410.3</ele>
        <time>2021-05-03T13:02:10Z</time>
      </trkpt>
      <trkpt lat="45.19587" lon="5.14453">
        <ele>410.4</ele>
        <time>2021-05-03T13:02:12Z</time>
      </trkpt>
      <trkpt lat="45.19587" lon="5.14455">
        <ele>410.5</ele>
        <time>2021-05-03T13:02:13Z</time>
      </trkpt>
      <trkpt lat="45.19588" lon="5.14459">
        <ele>410.6</ele>
        <time>2021-05-03T13:02:15Z</time>
      </trkpt>
      <trkpt lat="45.19589" lon="5.14462">
        <ele>410.6</ele>
        <time>2021-05-03T13:02:17Z</time>
      </trkpt>
      <trkpt lat="45.1959" lon="5.14464">
        <ele>410.7</ele>
        <time>2021-05-03T13:02:19Z</time>
      </trkpt>
      <trkpt lat="45.1959" lon="5.14467">
        <ele>410.8</ele>
        <time>2021-05-03T13:02:21Z</time>
      </trkpt>
      <trkpt lat="45.1959" lon="5.14468">
        <ele>410.8</ele>
        <time>2021-05-03T13:02:22Z</time>
      </trkpt>
      <trkpt lat="45.19591" lon="5.14471">
        <ele>410.9</ele>
        <time>2021-05-03T13:02:23Z</time>
      </trkpt>
      <trkpt lat="45.19591" lon="5.14472">
        <ele>410.9</ele>
        <time>2021-05-03T13:02:25Z</time>
      </trkpt>
      <trkpt lat="45.19591" lon="5.14473">
        <ele>410.9</ele>
        <time>2021-05-03T13:02:26Z</time>
      </trkpt>
      <trkpt lat="45.19591" lon="5.14474">
        <ele>410.9</ele>
        <time>2021-05-03T13:02:27Z</time>
      </trkpt>
      <trkpt lat="45.19591" lon="5.14474">
        <ele>410.9</ele>
        <time>2021-05-03T13:02:29Z</time>
      </trkpt>
      <trkpt lat="45.19592" lon="5.14475">
        <ele>410.9</ele>
        <time>2021-05-03T13:02:30Z</time>
      </trkpt>
      <trkpt lat="45.19592" lon="5.14476">
        <ele>411</ele>
        <time>2021-05-03T13:02:31Z</time>
      </trkpt>
      <trkpt lat="45.19592" lon="5.14477">
        <ele>411</ele>
        <time>2021-05-03T13:02:32Z</time>
      </trkpt>
      <trkpt lat="45.19592" lon="5.14478">
        <ele>411</ele>
        <time>2021-05-03T13:02:33Z</time>
      </trkpt>
      <trkpt lat="45.19592" lon="5.14479">
        <ele>411</ele>
        <time>2021-05-03T13:02:34Z</time>
      </trkpt>
      <trkpt lat="45.19592" lon="5.1448">
        <ele>411</ele>
        <time>2021-05-03T13:02:35Z</time>
      </trkpt>
      <trkpt lat="45.19592" lon="5.1448">
        <ele>411</ele>
        <time>2021-05-03T13:02:36Z</time>
      </trkpt>
      <trkpt lat="45.19593" lon="5.14481">
        <ele>411.1</ele>
        <time>2021-05-03T13:02:37Z</time>
      </trkpt>
      <trkpt lat="45.19593" lon="5.14482">
        <ele>411.1</ele>
        <time>2021-05-03T13:02:43Z</time>
      </trkpt>
      <trkpt lat="45.19593" lon="5.14483">
        <ele>411.1</ele>
        <time>2021-05-03T13:02:44Z</time>
      </trkpt>
      <trkpt lat="45.19593" lon="5.14484">
        <ele>411.1</ele>
        <time>2021-05-03T13:02:45Z</time>
      </trkpt>
      <trkpt lat="45.19593" lon="5.14489">
        <ele>411.2</ele>
        <time>2021-05-03T13:02:47Z</time>
      </trkpt>
      <trkpt lat="45.19592" lon="5.14494">
        <ele>411.3</ele>
        <time>2021-05-03T13:02:48Z</time>
      </trkpt>
      <trkpt lat="45.19592" lon="5.14502">
        <ele>411.4</ele>
        <time>2021-05-03T13:02:50Z</time>
      </trkpt>
      <trkpt lat="45.19592" lon="5.14506">
        <ele>411.4</ele>
        <time>2021-05-03T13:02:51Z</time>
      </trkpt>
      <trkpt lat="45.19592" lon="5.14515">
        <ele>411.5</ele>
        <time>2021-05-03T13:02:53Z</time>
      </trkpt>
      <trkpt lat="45.19592" lon="5.1452">
        <ele>411.5</ele>
        <time>2021-05-03T13:02:54Z</time>
      </trkpt>
      <trkpt lat="45.19593" lon="5.14525">
        <ele>411.5</ele>
        <time>2021-05-03T13:02:55Z</time>
      </trkpt>
      <trkpt lat="45.19593" lon="5.14531">
        <ele>411.5</ele>
        <time>2021-05-03T13:02:56Z</time>
      </trkpt>
      <trkpt lat="45.19593" lon="5.14537">
        <ele>411.5</ele>
        <time>2021-05-03T13:02:57Z</time>
      </trkpt>
      <trkpt lat="45.19593" lon="5.14547">
        <ele>411.4</ele>
        <time>2021-05-03T13:02:59Z</time>
      </trkpt>
      <trkpt lat="45.19592" lon="5.14556">
        <ele>411.3</ele>
        <time>2021-05-03T13:03:01Z</time>
      </trkpt>
      <trkpt lat="45.19592" lon="5.14562">
        <ele>411.2</ele>
        <time>2021-05-03T13:03:02Z</time>
      </trkpt>
      <trkpt lat="45.19593" lon="5.14575">
        <ele>411</ele>
        <time>2021-05-03T13:03:04Z</time>
      </trkpt>
      <trkpt lat="45.19593" lon="5.14582">
        <ele>410.8</ele>
        <time>2021-05-03T13:03:05Z</time>
      </trkpt>
      <trkpt lat="45.19593" lon="5.14589">
        <ele>410.7</ele>
        <time>2021-05-03T13:03:06Z</time>
      </trkpt>
      <trkpt lat="45.19594" lon="5.14597">
        <ele>410.6</ele>
        <time>2021-05-03T13:03:07Z</time>
      </trkpt>
      <trkpt lat="45.19595" lon="5.14605">
        <ele>410.5</ele>
        <time>2021-05-03T13:03:08Z</time>
      </trkpt>
      <trkpt lat="45.19596" lon="5.14612">
        <ele>410.4</ele>
        <time>2021-05-03T13:03:09Z</time>
      </trkpt>
      <trkpt lat="45.19598" lon="5.1462">
        <ele>410.3</ele>
        <time>2021-05-03T13:03:10Z</time>
      </trkpt>
      <trkpt lat="45.196" lon="5.14628">
        <ele>410.1</ele>
        <time>2021-05-03T13:03:11Z</time>
      </trkpt>
      <trkpt lat="45.19602" lon="5.14636">
        <ele>410</ele>
        <time>2021-05-03T13:03:12Z</time>
      </trkpt>
      <trkpt lat="45.19605" lon="5.14644">
        <ele>409.9</ele>
        <time>2021-05-03T13:03:13Z</time>
      </trkpt>
      <trkpt lat="45.19609" lon="5.1465">
        <ele>409.8</ele>
        <time>2021-05-03T13:03:14Z</time>
      </trkpt>
      <trkpt lat="45.19614" lon="5.14656">
        <ele>409.7</ele>
        <time>2021-05-03T13:03:15Z</time>
      </trkpt>
      <trkpt lat="45.19619" lon="5.14661">
        <ele>409.7</ele>
        <time>2021-05-03T13:03:16Z</time>
      </trkpt>
      <trkpt lat="45.19624" lon="5.14666">
        <ele>409.7</ele>
        <time>2021-05-03T13:03:17Z</time>
      </trkpt>
      <trkpt lat="45.19629" lon="5.14671">
        <ele>409.7</ele>
        <time>2021-05-03T13:03:18Z</time>
      </trkpt>
      <trkpt lat="45.19634" lon="5.14676">
        <ele>409.8</ele>
        <time>2021-05-03T13:03:19Z</time>
      </trkpt>
      <trkpt lat="45.19638" lon="5.14681">
        <ele>409.9</ele>
        <time>2021-05-03T13:03:20Z</time>
      </trkpt>
      <trkpt lat="45.19643" lon="5.14687">
        <ele>410</ele>
        <time>2021-05-03T13:03:21Z</time>
      </trkpt>
      <trkpt lat="45.19648" lon="5.14691">
        <ele>410.2</ele>
        <time>2021-05-03T13:03:22Z</time>
      </trkpt>
      <trkpt lat="45.19652" lon="5.14693">
        <ele>410.3</ele>
        <time>2021-05-03T13:03:23Z</time>
      </trkpt>
      <trkpt lat="45.19657" lon="5.14696">
        <ele>410.5</ele>
        <time>2021-05-03T13:03:24Z</time>
      </trkpt>
      <trkpt lat="45.19661" lon="5.14699">
        <ele>410.7</ele>
        <time>2021-05-03T13:03:25Z</time>
      </trkpt>
      <trkpt lat="45.19662" lon="5.14701">
        <ele>410.7</ele>
        <time>2021-05-03T13:03:26Z</time>
      </trkpt>
      <trkpt lat="45.19666" lon="5.14704">
        <ele>410.9</ele>
        <time>2021-05-03T13:03:27Z</time>
      </trkpt>
      <trkpt lat="45.19669" lon="5.14708">
        <ele>411.1</ele>
        <time>2021-05-03T13:03:28Z</time>
      </trkpt>
      <trkpt lat="45.19672" lon="5.14711">
        <ele>411.2</ele>
        <time>2021-05-03T13:03:29Z</time>
      </trkpt>
      <trkpt lat="45.19675" lon="5.14713">
        <ele>411.3</ele>
        <time>2021-05-03T13:03:30Z</time>
      </trkpt>
      <trkpt lat="45.1968" lon="5.14715">
        <ele>411.5</ele>
        <time>2021-05-03T13:03:31Z</time>
      </trkpt>
      <trkpt lat="45.19687" lon="5.14722">
        <ele>411.9</ele>
        <time>2021-05-03T13:03:33Z</time>
      </trkpt>
      <trkpt lat="45.19694" lon="5.14728">
        <ele>412.2</ele>
        <time>2021-05-03T13:03:35Z</time>
      </trkpt>
      <trkpt lat="45.19699" lon="5.14732">
        <ele>412.3</ele>
        <time>2021-05-03T13:03:36Z</time>
      </trkpt>
      <trkpt lat="45.19701" lon="5.14735">
        <ele>412.5</ele>
        <time>2021-05-03T13:03:37Z</time>
      </trkpt>
      <trkpt lat="45.19705" lon="5.1474">
        <ele>412.7</ele>
        <time>2021-05-03T13:03:39Z</time>
      </trkpt>
      <trkpt lat="45.19708" lon="5.14746">
        <ele>412.8</ele>
        <time>2021-05-03T13:03:40Z</time>
      </trkpt>
      <trkpt lat="45.1971" lon="5.14752">
        <ele>413</ele>
        <time>2021-05-03T13:03:41Z</time>
      </trkpt>
      <trkpt lat="45.19711" lon="5.14757">
        <ele>413.2</ele>
        <time>2021-05-03T13:03:43Z</time>
      </trkpt>
      <trkpt lat="45.19713" lon="5.14763">
        <ele>413.3</ele>
        <time>2021-05-03T13:03:44Z</time>
      </trkpt>
      <trkpt lat="45.19714" lon="5.1477">
        <ele>413.5</ele>
        <time>2021-05-03T13:03:45Z</time>
      </trkpt>
      <trkpt lat="45.19717" lon="5.14779">
        <ele>413.7</ele>
        <time>2021-05-03T13:03:47Z</time>
      </trkpt>
      <trkpt lat="45.19718" lon="5.14785">
        <ele>413.8</ele>
        <time>2021-05-03T13:03:48Z</time>
      </trkpt>
      <trkpt lat="45.1972" lon="5.14794">
        <ele>414</ele>
        <time>2021-05-03T13:03:50Z</time>
      </trkpt>
      <trkpt lat="45.19722" lon="5.148">
        <ele>414.2</ele>
        <time>2021-05-03T13:03:51Z</time>
      </trkpt>
      <trkpt lat="45.19723" lon="5.14806">
        <ele>414.3</ele>
        <time>2021-05-03T13:03:52Z</time>
      </trkpt>
      <trkpt lat="45.19725" lon="5.14817">
        <ele>414.6</ele>
        <time>2021-05-03T13:03:54Z</time>
      </trkpt>
      <trkpt lat="45.19726" lon="5.14828">
        <ele>414.8</ele>
        <time>2021-05-03T13:03:56Z</time>
      </trkpt>
      <trkpt lat="45.19726" lon="5.14833">
        <ele>414.9</ele>
        <time>2021-05-03T13:03:57Z</time>
      </trkpt>
      <trkpt lat="45.19727" lon="5.14841">
        <ele>415.1</ele>
        <time>2021-05-03T13:03:58Z</time>
      </trkpt>
      <trkpt lat="45.19727" lon="5.14848">
        <ele>415.1</ele>
        <time>2021-05-03T13:03:59Z</time>
      </trkpt>
      <trkpt lat="45.19728" lon="5.14857">
        <ele>415.3</ele>
        <time>2021-05-03T13:04:01Z</time>
      </trkpt>
      <trkpt lat="45.19728" lon="5.14862">
        <ele>415.4</ele>
        <time>2021-05-03T13:04:02Z</time>
      </trkpt>
      <trkpt lat="45.19728" lon="5.14869">
        <ele>415.4</ele>
        <time>2021-05-03T13:04:03Z</time>
      </trkpt>
      <trkpt lat="45.19728" lon="5.14878">
        <ele>415.6</ele>
        <time>2021-05-03T13:04:05Z</time>
      </trkpt>
      <trkpt lat="45.19728" lon="5.14885">
        <ele>415.6</ele>
        <time>2021-05-03T13:04:06Z</time>
      </trkpt>
      <trkpt lat="45.19728" lon="5.14893">
        <ele>415.7</ele>
        <time>2021-05-03T13:04:07Z</time>
      </trkpt>
      <trkpt lat="45.19728" lon="5.14904">
        <ele>415.8</ele>
        <time>2021-05-03T13:04:08Z</time>
      </trkpt>
      <trkpt lat="45.19729" lon="5.14913">
        <ele>415.9</ele>
        <time>2021-05-03T13:04:10Z</time>
      </trkpt>
      <trkpt lat="45.19729" lon="5.14918">
        <ele>415.9</ele>
        <time>2021-05-03T13:04:11Z</time>
      </trkpt>
      <trkpt lat="45.19729" lon="5.14923">
        <ele>415.9</ele>
        <time>2021-05-03T13:04:12Z</time>
      </trkpt>
      <trkpt lat="45.19729" lon="5.14931">
        <ele>416</ele>
        <time>2021-05-03T13:04:13Z</time>
      </trkpt>
      <trkpt lat="45.19729" lon="5.14943">
        <ele>416.1</ele>
        <time>2021-05-03T13:04:15Z</time>
      </trkpt>
      <trkpt lat="45.1973" lon="5.14953">
        <ele>416.2</ele>
        <time>2021-05-03T13:04:17Z</time>
      </trkpt>
      <trkpt lat="45.1973" lon="5.14961">
        <ele>416.3</ele>
        <time>2021-05-03T13:04:18Z</time>
      </trkpt>
      <trkpt lat="45.19731" lon="5.14971">
        <ele>416.5</ele>
        <time>2021-05-03T13:04:20Z</time>
      </trkpt>
      <trkpt lat="45.19731" lon="5.14979">
        <ele>416.6</ele>
        <time>2021-05-03T13:04:21Z</time>
      </trkpt>
      <trkpt lat="45.19732" lon="5.1499">
        <ele>416.7</ele>
        <time>2021-05-03T13:04:23Z</time>
      </trkpt>
      <trkpt lat="45.19733" lon="5.14997">
        <ele>416.9</ele>
        <time>2021-05-03T13:04:24Z</time>
      </trkpt>
      <trkpt lat="45.19732" lon="5.15002">
        <ele>416.9</ele>
        <time>2021-05-03T13:04:25Z</time>
      </trkpt>
      <trkpt lat="45.19735" lon="5.15013">
        <ele>417.1</ele>
        <time>2021-05-03T13:04:27Z</time>
      </trkpt>
      <trkpt lat="45.19737" lon="5.15023">
        <ele>417.3</ele>
        <time>2021-05-03T13:04:28Z</time>
      </trkpt>
      <trkpt lat="45.1974" lon="5.15031">
        <ele>417.4</ele>
        <time>2021-05-03T13:04:29Z</time>
      </trkpt>
      <trkpt lat="45.1974" lon="5.15039">
        <ele>417.5</ele>
        <time>2021-05-03T13:04:31Z</time>
      </trkpt>
      <trkpt lat="45.19739" lon="5.15046">
        <ele>417.6</ele>
        <time>2021-05-03T13:04:32Z</time>
      </trkpt>
      <trkpt lat="45.19737" lon="5.15051">
        <ele>417.7</ele>
        <time>2021-05-03T13:04:33Z</time>
      </trkpt>
      <trkpt lat="45.19742" lon="5.15064">
        <ele>417.9</ele>
        <time>2021-05-03T13:04:35Z</time>
      </trkpt>
      <trkpt lat="45.19741" lon="5.15071">
        <ele>418</ele>
        <time>2021-05-03T13:04:36Z</time>
      </trkpt>
      <trkpt lat="45.19744" lon="5.15083">
        <ele>418.1</ele>
        <time>2021-05-03T13:04:38Z</time>
      </trkpt>
      <trkpt lat="45.19743" lon="5.1509">
        <ele>418.2</ele>
        <time>2021-05-03T13:04:39Z</time>
      </trkpt>
      <trkpt lat="45.19741" lon="5.15096">
        <ele>418.3</ele>
        <time>2021-05-03T13:04:40Z</time>
      </trkpt>
      <trkpt lat="45.19743" lon="5.15104">
        <ele>418.5</ele>
        <time>2021-05-03T13:04:41Z</time>
      </trkpt>
      <trkpt lat="45.19746" lon="5.15111">
        <ele>418.6</ele>
        <time>2021-05-03T13:04:42Z</time>
      </trkpt>
      <trkpt lat="45.19749" lon="5.1512">
        <ele>418.8</ele>
        <time>2021-05-03T13:04:43Z</time>
      </trkpt>
      <trkpt lat="45.19751" lon="5.15128">
        <ele>418.9</ele>
        <time>2021-05-03T13:04:45Z</time>
      </trkpt>
      <trkpt lat="45.19753" lon="5.15134">
        <ele>418.9</ele>
        <time>2021-05-03T13:04:46Z</time>
      </trkpt>
      <trkpt lat="45.19755" lon="5.15145">
        <ele>419.1</ele>
        <time>2021-05-03T13:04:48Z</time>
      </trkpt>
      <trkpt lat="45.19758" lon="5.15154">
        <ele>419.2</ele>
        <time>2021-05-03T13:04:50Z</time>
      </trkpt>
      <trkpt lat="45.19762" lon="5.15168">
        <ele>419.3</ele>
        <time>2021-05-03T13:04:52Z</time>
      </trkpt>
      <trkpt lat="45.19764" lon="5.15174">
        <ele>419.4</ele>
        <time>2021-05-03T13:04:53Z</time>
      </trkpt>
      <trkpt lat="45.19765" lon="5.1518">
        <ele>419.5</ele>
        <time>2021-05-03T13:04:54Z</time>
      </trkpt>
      <trkpt lat="45.19767" lon="5.15186">
        <ele>419.5</ele>
        <time>2021-05-03T13:04:55Z</time>
      </trkpt>
      <trkpt lat="45.19769" lon="5.15192">
        <ele>419.6</ele>
        <time>2021-05-03T13:04:56Z</time>
      </trkpt>
      <trkpt lat="45.19771" lon="5.15202">
        <ele>419.7</ele>
        <time>2021-05-03T13:04:58Z</time>
      </trkpt>
      <trkpt lat="45.19774" lon="5.15209">
        <ele>419.8</ele>
        <time>2021-05-03T13:04:59Z</time>
      </trkpt>
      <trkpt lat="45.19777" lon="5.15222">
        <ele>419.9</ele>
        <time>2021-05-03T13:05:01Z</time>
      </trkpt>
      <trkpt lat="45.19779" lon="5.15228">
        <ele>419.9</ele>
        <time>2021-05-03T13:05:02Z</time>
      </trkpt>
      <trkpt lat="45.19781" lon="5.15234">
        <ele>420</ele>
        <time>2021-05-03T13:05:03Z</time>
      </trkpt>
      <trkpt lat="45.19783" lon="5.15241">
        <ele>420.1</ele>
        <time>2021-05-03T13:05:04Z</time>
      </trkpt>
      <trkpt lat="45.19785" lon="5.15247">
        <ele>420.2</ele>
        <time>2021-05-03T13:05:05Z</time>
      </trkpt>
      <trkpt lat="45.19786" lon="5.15253">
        <ele>420.2</ele>
        <time>2021-05-03T13:05:06Z</time>
      </trkpt>
      <trkpt lat="45.19788" lon="5.15259">
        <ele>420.3</ele>
        <time>2021-05-03T13:05:07Z</time>
      </trkpt>
      <trkpt lat="45.1979" lon="5.15265">
        <ele>420.4</ele>
        <time>2021-05-03T13:05:08Z</time>
      </trkpt>
      <trkpt lat="45.19792" lon="5.15271">
        <ele>420.4</ele>
        <time>2021-05-03T13:05:09Z</time>
      </trkpt>
      <trkpt lat="45.19794" lon="5.15273">
        <ele>420.5</ele>
        <time>2021-05-03T13:05:10Z</time>
      </trkpt>
      <trkpt lat="45.19796" lon="5.15281">
        <ele>420.5</ele>
        <time>2021-05-03T13:05:11Z</time>
      </trkpt>
      <trkpt lat="45.19798" lon="5.15292">
        <ele>420.6</ele>
        <time>2021-05-03T13:05:13Z</time>
      </trkpt>
      <trkpt lat="45.198" lon="5.15298">
        <ele>420.6</ele>
        <time>2021-05-03T13:05:14Z</time>
      </trkpt>
      <trkpt lat="45.19802" lon="5.15306">
        <ele>420.7</ele>
        <time>2021-05-03T13:05:15Z</time>
      </trkpt>
      <trkpt lat="45.19805" lon="5.15316">
        <ele>420.7</ele>
        <time>2021-05-03T13:05:16Z</time>
      </trkpt>
      <trkpt lat="45.19806" lon="5.1532">
        <ele>420.7</ele>
        <time>2021-05-03T13:05:17Z</time>
      </trkpt>
      <trkpt lat="45.19808" lon="5.15328">
        <ele>420.8</ele>
        <time>2021-05-03T13:05:18Z</time>
      </trkpt>
      <trkpt lat="45.19811" lon="5.15337">
        <ele>420.9</ele>
        <time>2021-05-03T13:05:20Z</time>
      </trkpt>
      <trkpt lat="45.19812" lon="5.15343">
        <ele>420.9</ele>
        <time>2021-05-03T13:05:21Z</time>
      </trkpt>
      <trkpt lat="45.19814" lon="5.15349">
        <ele>421</ele>
        <time>2021-05-03T13:05:22Z</time>
      </trkpt>
      <trkpt lat="45.19816" lon="5.15358">
        <ele>421</ele>
        <time>2021-05-03T13:05:23Z</time>
      </trkpt>
      <trkpt lat="45.19818" lon="5.15364">
        <ele>421.1</ele>
        <time>2021-05-03T13:05:25Z</time>
      </trkpt>
      <trkpt lat="45.19822" lon="5.15374">
        <ele>421.2</ele>
        <time>2021-05-03T13:05:27Z</time>
      </trkpt>
      <trkpt lat="45.19824" lon="5.1538">
        <ele>421.2</ele>
        <time>2021-05-03T13:05:28Z</time>
      </trkpt>
      <trkpt lat="45.19826" lon="5.15386">
        <ele>421.2</ele>
        <time>2021-05-03T13:05:29Z</time>
      </trkpt>
      <trkpt lat="45.19828" lon="5.15392">
        <ele>421.3</ele>
        <time>2021-05-03T13:05:30Z</time>
      </trkpt>
      <trkpt lat="45.1983" lon="5.15399">
        <ele>421.3</ele>
        <time>2021-05-03T13:05:31Z</time>
      </trkpt>
      <trkpt lat="45.19833" lon="5.15405">
        <ele>421.3</ele>
        <time>2021-05-03T13:05:32Z</time>
      </trkpt>
      <trkpt lat="45.19835" lon="5.15412">
        <ele>421.4</ele>
        <time>2021-05-03T13:05:33Z</time>
      </trkpt>
      <trkpt lat="45.19837" lon="5.15418">
        <ele>421.4</ele>
        <time>2021-05-03T13:05:34Z</time>
      </trkpt>
      <trkpt lat="45.19839" lon="5.15424">
        <ele>421.5</ele>
        <time>2021-05-03T13:05:35Z</time>
      </trkpt>
      <trkpt lat="45.19841" lon="5.1543">
        <ele>421.5</ele>
        <time>2021-05-03T13:05:36Z</time>
      </trkpt>
      <trkpt lat="45.19844" lon="5.15442">
        <ele>421.7</ele>
        <time>2021-05-03T13:05:38Z</time>
      </trkpt>
      <trkpt lat="45.19846" lon="5.15447">
        <ele>421.7</ele>
        <time>2021-05-03T13:05:39Z</time>
      </trkpt>
      <trkpt lat="45.19847" lon="5.15453">
        <ele>421.8</ele>
        <time>2021-05-03T13:05:40Z</time>
      </trkpt>
      <trkpt lat="45.19849" lon="5.15459">
        <ele>421.8</ele>
        <time>2021-05-03T13:05:41Z</time>
      </trkpt>
      <trkpt lat="45.1985" lon="5.15465">
        <ele>421.9</ele>
        <time>2021-05-03T13:05:42Z</time>
      </trkpt>
      <trkpt lat="45.19852" lon="5.15471">
        <ele>422</ele>
        <time>2021-05-03T13:05:43Z</time>
      </trkpt>
      <trkpt lat="45.19853" lon="5.15478">
        <ele>422.1</ele>
        <time>2021-05-03T13:05:44Z</time>
      </trkpt>
      <trkpt lat="45.19855" lon="5.15484">
        <ele>422.1</ele>
        <time>2021-05-03T13:05:45Z</time>
      </trkpt>
      <trkpt lat="45.19856" lon="5.1549">
        <ele>422.2</ele>
        <time>2021-05-03T13:05:46Z</time>
      </trkpt>
      <trkpt lat="45.19858" lon="5.15496">
        <ele>422.3</ele>
        <time>2021-05-03T13:05:47Z</time>
      </trkpt>
      <trkpt lat="45.1986" lon="5.15503">
        <ele>422.4</ele>
        <time>2021-05-03T13:05:48Z</time>
      </trkpt>
      <trkpt lat="45.19862" lon="5.1551">
        <ele>422.4</ele>
        <time>2021-05-03T13:05:49Z</time>
      </trkpt>
      <trkpt lat="45.19864" lon="5.15516">
        <ele>422.5</ele>
        <time>2021-05-03T13:05:50Z</time>
      </trkpt>
      <trkpt lat="45.19866" lon="5.15522">
        <ele>422.5</ele>
        <time>2021-05-03T13:05:51Z</time>
      </trkpt>
      <trkpt lat="45.19868" lon="5.15528">
        <ele>422.6</ele>
        <time>2021-05-03T13:05:52Z</time>
      </trkpt>
      <trkpt lat="45.19869" lon="5.15534">
        <ele>422.6</ele>
        <time>2021-05-03T13:05:53Z</time>
      </trkpt>
      <trkpt lat="45.19871" lon="5.15541">
        <ele>422.7</ele>
        <time>2021-05-03T13:05:54Z</time>
      </trkpt>
      <trkpt lat="45.19872" lon="5.15547">
        <ele>422.7</ele>
        <time>2021-05-03T13:05:55Z</time>
      </trkpt>
      <trkpt lat="45.19874" lon="5.15554">
        <ele>422.8</ele>
        <time>2021-05-03T13:05:56Z</time>
      </trkpt>
      <trkpt lat="45.19875" lon="5.1556">
        <ele>422.8</ele>
        <time>2021-05-03T13:05:57Z</time>
      </trkpt>
      <trkpt lat="45.19877" lon="5.15567">
        <ele>422.9</ele>
        <time>2021-05-03T13:05:58Z</time>
      </trkpt>
      <trkpt lat="45.19878" lon="5.15573">
        <ele>423</ele>
        <time>2021-05-03T13:05:59Z</time>
      </trkpt>
      <trkpt lat="45.1988" lon="5.1558">
        <ele>423</ele>
        <time>2021-05-03T13:06:00Z</time>
      </trkpt>
      <trkpt lat="45.19881" lon="5.15587">
        <ele>423.1</ele>
        <time>2021-05-03T13:06:01Z</time>
      </trkpt>
      <trkpt lat="45.19882" lon="5.15594">
        <ele>423.1</ele>
        <time>2021-05-03T13:06:02Z</time>
      </trkpt>
      <trkpt lat="45.19883" lon="5.15602">
        <ele>423.1</ele>
        <time>2021-05-03T13:06:03Z</time>
      </trkpt>
      <trkpt lat="45.19884" lon="5.15609">
        <ele>423.2</ele>
        <time>2021-05-03T13:06:04Z</time>
      </trkpt>
      <trkpt lat="45.19885" lon="5.15616">
        <ele>423.2</ele>
        <time>2021-05-03T13:06:05Z</time>
      </trkpt>
      <trkpt lat="45.19886" lon="5.15624">
        <ele>423.3</ele>
        <time>2021-05-03T13:06:06Z</time>
      </trkpt>
      <trkpt lat="45.19887" lon="5.15631">
        <ele>423.3</ele>
        <time>2021-05-03T13:06:07Z</time>
      </trkpt>
      <trkpt lat="45.19888" lon="5.15638">
        <ele>423.3</ele>
        <time>2021-05-03T13:06:08Z</time>
      </trkpt>
      <trkpt lat="45.19889" lon="5.15646">
        <ele>423.3</ele>
        <time>2021-05-03T13:06:09Z</time>
      </trkpt>
      <trkpt lat="45.1989" lon="5.15653">
        <ele>423.4</ele>
        <time>2021-05-03T13:06:10Z</time>
      </trkpt>
      <trkpt lat="45.19891" lon="5.15661">
        <ele>423.4</ele>
        <time>2021-05-03T13:06:11Z</time>
      </trkpt>
      <trkpt lat="45.19892" lon="5.15669">
        <ele>423.4</ele>
        <time>2021-05-03T13:06:12Z</time>
      </trkpt>
      <trkpt lat="45.19893" lon="5.15677">
        <ele>423.3</ele>
        <time>2021-05-03T13:06:13Z</time>
      </trkpt>
      <trkpt lat="45.19894" lon="5.15685">
        <ele>423.3</ele>
        <time>2021-05-03T13:06:14Z</time>
      </trkpt>
      <trkpt lat="45.19896" lon="5.15693">
        <ele>423.2</ele>
        <time>2021-05-03T13:06:15Z</time>
      </trkpt>
      <trkpt lat="45.19897" lon="5.15702">
        <ele>423.2</ele>
        <time>2021-05-03T13:06:16Z</time>
      </trkpt>
      <trkpt lat="45.19898" lon="5.1571">
        <ele>423.1</ele>
        <time>2021-05-03T13:06:17Z</time>
      </trkpt>
      <trkpt lat="45.19899" lon="5.15718">
        <ele>423.1</ele>
        <time>2021-05-03T13:06:18Z</time>
      </trkpt>
      <trkpt lat="45.199" lon="5.15726">
        <ele>423.1</ele>
        <time>2021-05-03T13:06:19Z</time>
      </trkpt>
      <trkpt lat="45.19901" lon="5.15735">
        <ele>423</ele>
        <time>2021-05-03T13:06:20Z</time>
      </trkpt>
      <trkpt lat="45.19901" lon="5.15742">
        <ele>423</ele>
        <time>2021-05-03T13:06:21Z</time>
      </trkpt>
      <trkpt lat="45.19902" lon="5.1575">
        <ele>423</ele>
        <time>2021-05-03T13:06:22Z</time>
      </trkpt>
      <trkpt lat="45.19902" lon="5.15759">
        <ele>422.9</ele>
        <time>2021-05-03T13:06:23Z</time>
      </trkpt>
      <trkpt lat="45.19903" lon="5.15767">
        <ele>422.9</ele>
        <time>2021-05-03T13:06:24Z</time>
      </trkpt>
      <trkpt lat="45.19903" lon="5.15775">
        <ele>422.8</ele>
        <time>2021-05-03T13:06:25Z</time>
      </trkpt>
      <trkpt lat="45.19903" lon="5.15783">
        <ele>422.7</ele>
        <time>2021-05-03T13:06:26Z</time>
      </trkpt>
      <trkpt lat="45.19903" lon="5.15792">
        <ele>422.7</ele>
        <time>2021-05-03T13:06:27Z</time>
      </trkpt>
      <trkpt lat="45.19903" lon="5.158">
        <ele>422.6</ele>
        <time>2021-05-03T13:06:28Z</time>
      </trkpt>
      <trkpt lat="45.19903" lon="5.15809">
        <ele>422.5</ele>
        <time>2021-05-03T13:06:29Z</time>
      </trkpt>
      <trkpt lat="45.19903" lon="5.15817">
        <ele>422.4</ele>
        <time>2021-05-03T13:06:30Z</time>
      </trkpt>
      <trkpt lat="45.19903" lon="5.15826">
        <ele>422.3</ele>
        <time>2021-05-03T13:06:31Z</time>
      </trkpt>
      <trkpt lat="45.19902" lon="5.15835">
        <ele>422.2</ele>
        <time>2021-05-03T13:06:32Z</time>
      </trkpt>
      <trkpt lat="45.19902" lon="5.15844">
        <ele>422.1</ele>
        <time>2021-05-03T13:06:33Z</time>
      </trkpt>
      <trkpt lat="45.19901" lon="5.15853">
        <ele>422</ele>
        <time>2021-05-03T13:06:34Z</time>
      </trkpt>
      <trkpt lat="45.19901" lon="5.15862">
        <ele>421.9</ele>
        <time>2021-05-03T13:06:35Z</time>
      </trkpt>
      <trkpt lat="45.19901" lon="5.15871">
        <ele>421.8</ele>
        <time>2021-05-03T13:06:36Z</time>
      </trkpt>
      <trkpt lat="45.19901" lon="5.1588">
        <ele>421.7</ele>
        <time>2021-05-03T13:06:37Z</time>
      </trkpt>
      <trkpt lat="45.19901" lon="5.15889">
        <ele>421.7</ele>
        <time>2021-05-03T13:06:38Z</time>
      </trkpt>
      <trkpt lat="45.19901" lon="5.15899">
        <ele>421.6</ele>
        <time>2021-05-03T13:06:39Z</time>
      </trkpt>
      <trkpt lat="45.19901" lon="5.15908">
        <ele>421.5</ele>
        <time>2021-05-03T13:06:40Z</time>
      </trkpt>
      <trkpt lat="45.199" lon="5.15918">
        <ele>421.4</ele>
        <time>2021-05-03T13:06:41Z</time>
      </trkpt>
      <trkpt lat="45.199" lon="5.15927">
        <ele>421.3</ele>
        <time>2021-05-03T13:06:42Z</time>
      </trkpt>
      <trkpt lat="45.19899" lon="5.15936">
        <ele>421.2</ele>
        <time>2021-05-03T13:06:43Z</time>
      </trkpt>
      <trkpt lat="45.19899" lon="5.15946">
        <ele>421.1</ele>
        <time>2021-05-03T13:06:44Z</time>
      </trkpt>
      <trkpt lat="45.19899" lon="5.15955">
        <ele>421</ele>
        <time>2021-05-03T13:06:45Z</time>
      </trkpt>
      <trkpt lat="45.19898" lon="5.15962">
        <ele>421</ele>
        <time>2021-05-03T13:06:46Z</time>
      </trkpt>
      <trkpt lat="45.19898" lon="5.15968">
        <ele>420.9</ele>
        <time>2021-05-03T13:06:47Z</time>
      </trkpt>
      <trkpt lat="45.19898" lon="5.15972">
        <ele>420.9</ele>
        <time>2021-05-03T13:06:48Z</time>
      </trkpt>
      <trkpt lat="45.19897" lon="5.15973">
        <ele>420.9</ele>
        <time>2021-05-03T13:06:49Z</time>
      </trkpt>
      <trkpt lat="45.19894" lon="5.15974">
        <ele>420.8</ele>
        <time>2021-05-03T13:06:50Z</time>
      </trkpt>
      <trkpt lat="45.19893" lon="5.15974">
        <ele>420.8</ele>
        <time>2021-05-03T13:06:51Z</time>
      </trkpt>
      <trkpt lat="45.19893" lon="5.15974">
        <ele>420.8</ele>
        <time>2021-05-03T13:06:52Z</time>
      </trkpt>
      <trkpt lat="45.19893" lon="5.15974">
        <ele>420.8</ele>
        <time>2021-05-03T13:06:53Z</time>
      </trkpt>
      <trkpt lat="45.19893" lon="5.15974">
        <ele>420.8</ele>
        <time>2021-05-03T13:06:54Z</time>
      </trkpt>
      <trkpt lat="45.19893" lon="5.15973">
        <ele>420.8</ele>
        <time>2021-05-03T13:06:55Z</time>
      </trkpt>
      <trkpt lat="45.19893" lon="5.15973">
        <ele>420.8</ele>
        <time>2021-05-03T13:06:56Z</time>
      </trkpt>
      <trkpt lat="45.19893" lon="5.15971">
        <ele>420.8</ele>
        <time>2021-05-03T13:06:57Z</time>
      </trkpt>
      <trkpt lat="45.19893" lon="5.15968">
        <ele>420.7</ele>
        <time>2021-05-03T13:06:59Z</time>
      </trkpt>
      <trkpt lat="45.19894" lon="5.15969">
        <ele>420.7</ele>
        <time>2021-05-03T13:07:00Z</time>
      </trkpt>
      <trkpt lat="45.19894" lon="5.15971">
        <ele>420.7</ele>
        <time>2021-05-03T13:07:01Z</time>
      </trkpt>
      <trkpt lat="45.19895" lon="5.15973">
        <ele>420.7</ele>
        <time>2021-05-03T13:07:02Z</time>
      </trkpt>
      <trkpt lat="45.19895" lon="5.15975">
        <ele>420.7</ele>
        <time>2021-05-03T13:07:03Z</time>
      </trkpt>
      <trkpt lat="45.19895" lon="5.15976">
        <ele>420.6</ele>
        <time>2021-05-03T13:07:04Z</time>
      </trkpt>
      <trkpt lat="45.19896" lon="5.15978">
        <ele>420.6</ele>
        <time>2021-05-03T13:07:05Z</time>
      </trkpt>
      <trkpt lat="45.19896" lon="5.1598">
        <ele>420.6</ele>
        <time>2021-05-03T13:07:07Z</time>
      </trkpt>
      <trkpt lat="45.19897" lon="5.15982">
        <ele>420.5</ele>
        <time>2021-05-03T13:07:08Z</time>
      </trkpt>
      <trkpt lat="45.19897" lon="5.15984">
        <ele>420.5</ele>
        <time>2021-05-03T13:07:09Z</time>
      </trkpt>
      <trkpt lat="45.19897" lon="5.15986">
        <ele>420.5</ele>
        <time>2021-05-03T13:09:07Z</time>
      </trkpt>
      <trkpt lat="45.19898" lon="5.15988">
        <ele>420.5</ele>
        <time>2021-05-03T13:09:08Z</time>
      </trkpt>
      <trkpt lat="45.19895" lon="5.16">
        <ele>420.3</ele>
        <time>2021-05-03T13:09:10Z</time>
      </trkpt>
      <trkpt lat="45.19895" lon="5.16008">
        <ele>420.2</ele>
        <time>2021-05-03T13:09:11Z</time>
      </trkpt>
      <trkpt lat="45.19891" lon="5.16022">
        <ele>420</ele>
        <time>2021-05-03T13:09:13Z</time>
      </trkpt>
      <trkpt lat="45.19888" lon="5.16029">
        <ele>419.9</ele>
        <time>2021-05-03T13:09:14Z</time>
      </trkpt>
      <trkpt lat="45.19886" lon="5.16036">
        <ele>419.8</ele>
        <time>2021-05-03T13:09:15Z</time>
      </trkpt>
      <trkpt lat="45.19885" lon="5.16043">
        <ele>419.7</ele>
        <time>2021-05-03T13:09:16Z</time>
      </trkpt>
      <trkpt lat="45.19883" lon="5.16051">
        <ele>419.6</ele>
        <time>2021-05-03T13:09:17Z</time>
      </trkpt>
      <trkpt lat="45.19881" lon="5.16058">
        <ele>419.5</ele>
        <time>2021-05-03T13:09:18Z</time>
      </trkpt>
      <trkpt lat="45.19878" lon="5.16066">
        <ele>419.4</ele>
        <time>2021-05-03T13:09:19Z</time>
      </trkpt>
      <trkpt lat="45.19875" lon="5.16073">
        <ele>419.3</ele>
        <time>2021-05-03T13:09:20Z</time>
      </trkpt>
      <trkpt lat="45.19873" lon="5.16081">
        <ele>419.1</ele>
        <time>2021-05-03T13:09:21Z</time>
      </trkpt>
      <trkpt lat="45.1987" lon="5.1609">
        <ele>419</ele>
        <time>2021-05-03T13:09:22Z</time>
      </trkpt>
      <trkpt lat="45.19867" lon="5.16098">
        <ele>418.9</ele>
        <time>2021-05-03T13:09:23Z</time>
      </trkpt>
      <trkpt lat="45.19864" lon="5.16106">
        <ele>418.8</ele>
        <time>2021-05-03T13:09:24Z</time>
      </trkpt>
      <trkpt lat="45.19861" lon="5.16115">
        <ele>418.6</ele>
        <time>2021-05-03T13:09:25Z</time>
      </trkpt>
      <trkpt lat="45.19858" lon="5.16123">
        <ele>418.5</ele>
        <time>2021-05-03T13:09:26Z</time>
      </trkpt>
      <trkpt lat="45.19855" lon="5.16131">
        <ele>418.4</ele>
        <time>2021-05-03T13:09:27Z</time>
      </trkpt>
      <trkpt lat="45.19853" lon="5.1614">
        <ele>418.3</ele>
        <time>2021-05-03T13:09:28Z</time>
      </trkpt>
      <trkpt lat="45.1985" lon="5.16149">
        <ele>418.2</ele>
        <time>2021-05-03T13:09:29Z</time>
      </trkpt>
      <trkpt lat="45.19847" lon="5.16157">
        <ele>418</ele>
        <time>2021-05-03T13:09:30Z</time>
      </trkpt>
      <trkpt lat="45.19844" lon="5.16166">
        <ele>417.9</ele>
        <time>2021-05-03T13:09:31Z</time>
      </trkpt>
      <trkpt lat="45.19841" lon="5.16174">
        <ele>417.8</ele>
        <time>2021-05-03T13:09:32Z</time>
      </trkpt>
      <trkpt lat="45.19838" lon="5.16183">
        <ele>417.7</ele>
        <time>2021-05-03T13:09:33Z</time>
      </trkpt>
      <trkpt lat="45.19834" lon="5.16192">
        <ele>417.6</ele>
        <time>2021-05-03T13:09:34Z</time>
      </trkpt>
      <trkpt lat="45.19832" lon="5.162">
        <ele>417.5</ele>
        <time>2021-05-03T13:09:35Z</time>
      </trkpt>
      <trkpt lat="45.19829" lon="5.16209">
        <ele>417.4</ele>
        <time>2021-05-03T13:09:36Z</time>
      </trkpt>
      <trkpt lat="45.19825" lon="5.16218">
        <ele>417.4</ele>
        <time>2021-05-03T13:09:37Z</time>
      </trkpt>
      <trkpt lat="45.19822" lon="5.16227">
        <ele>417.3</ele>
        <time>2021-05-03T13:09:38Z</time>
      </trkpt>
      <trkpt lat="45.19819" lon="5.16236">
        <ele>417.3</ele>
        <time>2021-05-03T13:09:39Z</time>
      </trkpt>
      <trkpt lat="45.19817" lon="5.16246">
        <ele>417.3</ele>
        <time>2021-05-03T13:09:40Z</time>
      </trkpt>
      <trkpt lat="45.19815" lon="5.16256">
        <ele>417.3</ele>
        <time>2021-05-03T13:09:41Z</time>
      </trkpt>
      <trkpt lat="45.19813" lon="5.16266">
        <ele>417.4</ele>
        <time>2021-05-03T13:09:42Z</time>
      </trkpt>
      <trkpt lat="45.19811" lon="5.16276">
        <ele>417.5</ele>
        <time>2021-05-03T13:09:43Z</time>
      </trkpt>
      <trkpt lat="45.19809" lon="5.16286">
        <ele>417.6</ele>
        <time>2021-05-03T13:09:44Z</time>
      </trkpt>
      <trkpt lat="45.19808" lon="5.16296">
        <ele>417.8</ele>
        <time>2021-05-03T13:09:45Z</time>
      </trkpt>
      <trkpt lat="45.19807" lon="5.16306">
        <ele>418</ele>
        <time>2021-05-03T13:09:46Z</time>
      </trkpt>
      <trkpt lat="45.19807" lon="5.16315">
        <ele>418.2</ele>
        <time>2021-05-03T13:09:47Z</time>
      </trkpt>
      <trkpt lat="45.19806" lon="5.16325">
        <ele>418.5</ele>
        <time>2021-05-03T13:09:48Z</time>
      </trkpt>
      <trkpt lat="45.19806" lon="5.16333">
        <ele>418.7</ele>
        <time>2021-05-03T13:09:49Z</time>
      </trkpt>
      <trkpt lat="45.19806" lon="5.16342">
        <ele>419</ele>
        <time>2021-05-03T13:09:50Z</time>
      </trkpt>
      <trkpt lat="45.19806" lon="5.16349">
        <ele>419.2</ele>
        <time>2021-05-03T13:09:51Z</time>
      </trkpt>
      <trkpt lat="45.19806" lon="5.16357">
        <ele>419.4</ele>
        <time>2021-05-03T13:09:52Z</time>
      </trkpt>
      <trkpt lat="45.19806" lon="5.16364">
        <ele>419.7</ele>
        <time>2021-05-03T13:09:53Z</time>
      </trkpt>
      <trkpt lat="45.19805" lon="5.16371">
        <ele>419.9</ele>
        <time>2021-05-03T13:09:54Z</time>
      </trkpt>
      <trkpt lat="45.19804" lon="5.16378">
        <ele>420.2</ele>
        <time>2021-05-03T13:09:55Z</time>
      </trkpt>
      <trkpt lat="45.19804" lon="5.16384">
        <ele>420.4</ele>
        <time>2021-05-03T13:09:56Z</time>
      </trkpt>
      <trkpt lat="45.19803" lon="5.16389">
        <ele>420.5</ele>
        <time>2021-05-03T13:09:57Z</time>
      </trkpt>
      <trkpt lat="45.19802" lon="5.16394">
        <ele>420.8</ele>
        <time>2021-05-03T13:09:58Z</time>
      </trkpt>
      <trkpt lat="45.19801" lon="5.164">
        <ele>421</ele>
        <time>2021-05-03T13:09:59Z</time>
      </trkpt>
      <trkpt lat="45.19801" lon="5.16406">
        <ele>421.2</ele>
        <time>2021-05-03T13:10:00Z</time>
      </trkpt>
      <trkpt lat="45.19801" lon="5.16411">
        <ele>421.4</ele>
        <time>2021-05-03T13:10:01Z</time>
      </trkpt>
      <trkpt lat="45.19801" lon="5.16417">
        <ele>421.6</ele>
        <time>2021-05-03T13:10:02Z</time>
      </trkpt>
      <trkpt lat="45.198" lon="5.16422">
        <ele>421.8</ele>
        <time>2021-05-03T13:10:03Z</time>
      </trkpt>
      <trkpt lat="45.19806" lon="5.16423">
        <ele>422</ele>
        <time>2021-05-03T13:10:04Z</time>
      </trkpt>
      <trkpt lat="45.19805" lon="5.1643">
        <ele>422.3</ele>
        <time>2021-05-03T13:10:05Z</time>
      </trkpt>
      <trkpt lat="45.19801" lon="5.16442">
        <ele>422.7</ele>
        <time>2021-05-03T13:10:07Z</time>
      </trkpt>
      <trkpt lat="45.19798" lon="5.16453">
        <ele>423.1</ele>
        <time>2021-05-03T13:10:09Z</time>
      </trkpt>
      <trkpt lat="45.19796" lon="5.16463">
        <ele>423.4</ele>
        <time>2021-05-03T13:10:11Z</time>
      </trkpt>
      <trkpt lat="45.19795" lon="5.1647">
        <ele>423.6</ele>
        <time>2021-05-03T13:10:12Z</time>
      </trkpt>
      <trkpt lat="45.19794" lon="5.16476">
        <ele>423.8</ele>
        <time>2021-05-03T13:10:13Z</time>
      </trkpt>
      <trkpt lat="45.19792" lon="5.16484">
        <ele>424</ele>
        <time>2021-05-03T13:10:14Z</time>
      </trkpt>
      <trkpt lat="45.19791" lon="5.16491">
        <ele>424.3</ele>
        <time>2021-05-03T13:10:16Z</time>
      </trkpt>
      <trkpt lat="45.1979" lon="5.16495">
        <ele>424.4</ele>
        <time>2021-05-03T13:10:17Z</time>
      </trkpt>
      <trkpt lat="45.19789" lon="5.16503">
        <ele>424.6</ele>
        <time>2021-05-03T13:10:18Z</time>
      </trkpt>
      <trkpt lat="45.19787" lon="5.1651">
        <ele>424.9</ele>
        <time>2021-05-03T13:10:20Z</time>
      </trkpt>
      <trkpt lat="45.19786" lon="5.16519">
        <ele>425.2</ele>
        <time>2021-05-03T13:10:22Z</time>
      </trkpt>
      <trkpt lat="45.19786" lon="5.16525">
        <ele>425.4</ele>
        <time>2021-05-03T13:10:23Z</time>
      </trkpt>
      <trkpt lat="45.19785" lon="5.16531">
        <ele>425.6</ele>
        <time>2021-05-03T13:10:25Z</time>
      </trkpt>
      <trkpt lat="45.19785" lon="5.16539">
        <ele>425.9</ele>
        <time>2021-05-03T13:10:27Z</time>
      </trkpt>
      <trkpt lat="45.19784" lon="5.16544">
        <ele>426.1</ele>
        <time>2021-05-03T13:10:28Z</time>
      </trkpt>
      <trkpt lat="45.19784" lon="5.1655">
        <ele>426.3</ele>
        <time>2021-05-03T13:10:30Z</time>
      </trkpt>
      <trkpt lat="45.19785" lon="5.16555">
        <ele>426.5</ele>
        <time>2021-05-03T13:10:31Z</time>
      </trkpt>
      <trkpt lat="45.19785" lon="5.16559">
        <ele>426.6</ele>
        <time>2021-05-03T13:10:32Z</time>
      </trkpt>
      <trkpt lat="45.19786" lon="5.16563">
        <ele>426.8</ele>
        <time>2021-05-03T13:10:33Z</time>
      </trkpt>
      <trkpt lat="45.19787" lon="5.1657">
        <ele>427</ele>
        <time>2021-05-03T13:10:35Z</time>
      </trkpt>
      <trkpt lat="45.19788" lon="5.16574">
        <ele>427.2</ele>
        <time>2021-05-03T13:10:36Z</time>
      </trkpt>
      <trkpt lat="45.1979" lon="5.16578">
        <ele>427.3</ele>
        <time>2021-05-03T13:10:37Z</time>
      </trkpt>
      <trkpt lat="45.19792" lon="5.16585">
        <ele>427.6</ele>
        <time>2021-05-03T13:10:39Z</time>
      </trkpt>
      <trkpt lat="45.19793" lon="5.1659">
        <ele>427.7</ele>
        <time>2021-05-03T13:10:40Z</time>
      </trkpt>
      <trkpt lat="45.19794" lon="5.16594">
        <ele>427.9</ele>
        <time>2021-05-03T13:10:41Z</time>
      </trkpt>
      <trkpt lat="45.19795" lon="5.16601">
        <ele>428.1</ele>
        <time>2021-05-03T13:10:43Z</time>
      </trkpt>
      <trkpt lat="45.19796" lon="5.16605">
        <ele>428.2</ele>
        <time>2021-05-03T13:10:44Z</time>
      </trkpt>
      <trkpt lat="45.19797" lon="5.16612">
        <ele>428.4</ele>
        <time>2021-05-03T13:10:45Z</time>
      </trkpt>
      <trkpt lat="45.19798" lon="5.16618">
        <ele>428.7</ele>
        <time>2021-05-03T13:10:47Z</time>
      </trkpt>
      <trkpt lat="45.19798" lon="5.16623">
        <ele>428.8</ele>
        <time>2021-05-03T13:10:48Z</time>
      </trkpt>
      <trkpt lat="45.198" lon="5.1663">
        <ele>429.1</ele>
        <time>2021-05-03T13:10:50Z</time>
      </trkpt>
      <trkpt lat="45.19802" lon="5.16634">
        <ele>429.3</ele>
        <time>2021-05-03T13:10:51Z</time>
      </trkpt>
      <trkpt lat="45.19803" lon="5.16639">
        <ele>429.4</ele>
        <time>2021-05-03T13:10:52Z</time>
      </trkpt>
      <trkpt lat="45.19805" lon="5.16646">
        <ele>429.6</ele>
        <time>2021-05-03T13:10:53Z</time>
      </trkpt>
      <trkpt lat="45.19806" lon="5.16651">
        <ele>429.7</ele>
        <time>2021-05-03T13:10:55Z</time>
      </trkpt>
      <trkpt lat="45.19809" lon="5.16658">
        <ele>429.9</ele>
        <time>2021-05-03T13:10:56Z</time>
      </trkpt>
      <trkpt lat="45.19811" lon="5.16663">
        <ele>430</ele>
        <time>2021-05-03T13:10:58Z</time>
      </trkpt>
      <trkpt lat="45.19812" lon="5.16668">
        <ele>430.1</ele>
        <time>2021-05-03T13:10:59Z</time>
      </trkpt>
      <trkpt lat="45.19813" lon="5.16671">
        <ele>430.2</ele>
        <time>2021-05-03T13:11:00Z</time>
      </trkpt>
      <trkpt lat="45.19816" lon="5.16678">
        <ele>430.3</ele>
        <time>2021-05-03T13:11:02Z</time>
      </trkpt>
      <trkpt lat="45.19819" lon="5.16686">
        <ele>430.4</ele>
        <time>2021-05-03T13:11:04Z</time>
      </trkpt>
      <trkpt lat="45.19823" lon="5.16696">
        <ele>430.6</ele>
        <time>2021-05-03T13:11:06Z</time>
      </trkpt>
      <trkpt lat="45.19826" lon="5.16703">
        <ele>430.7</ele>
        <time>2021-05-03T13:11:08Z</time>
      </trkpt>
      <trkpt lat="45.19828" lon="5.1671">
        <ele>430.9</ele>
        <time>2021-05-03T13:11:09Z</time>
      </trkpt>
      <trkpt lat="45.1983" lon="5.16716">
        <ele>431</ele>
        <time>2021-05-03T13:11:10Z</time>
      </trkpt>
      <trkpt lat="45.19832" lon="5.16722">
        <ele>431.1</ele>
        <time>2021-05-03T13:11:12Z</time>
      </trkpt>
      <trkpt lat="45.19834" lon="5.16727">
        <ele>431.2</ele>
        <time>2021-05-03T13:11:13Z</time>
      </trkpt>
      <trkpt lat="45.19837" lon="5.16733">
        <ele>431.2</ele>
        <time>2021-05-03T13:11:14Z</time>
      </trkpt>
      <trkpt lat="45.19838" lon="5.16738">
        <ele>431.3</ele>
        <time>2021-05-03T13:11:15Z</time>
      </trkpt>
      <trkpt lat="45.1984" lon="5.16743">
        <ele>431.4</ele>
        <time>2021-05-03T13:11:16Z</time>
      </trkpt>
      <trkpt lat="45.19842" lon="5.16748">
        <ele>431.4</ele>
        <time>2021-05-03T13:11:18Z</time>
      </trkpt>
      <trkpt lat="45.19844" lon="5.16752">
        <ele>431.5</ele>
        <time>2021-05-03T13:11:19Z</time>
      </trkpt>
      <trkpt lat="45.19846" lon="5.16757">
        <ele>431.6</ele>
        <time>2021-05-03T13:11:20Z</time>
      </trkpt>
      <trkpt lat="45.1985" lon="5.16765">
        <ele>431.8</ele>
        <time>2021-05-03T13:11:22Z</time>
      </trkpt>
      <trkpt lat="45.19853" lon="5.16771">
        <ele>431.9</ele>
        <time>2021-05-03T13:11:23Z</time>
      </trkpt>
      <trkpt lat="45.19855" lon="5.16777">
        <ele>432</ele>
        <time>2021-05-03T13:11:24Z</time>
      </trkpt>
      <trkpt lat="45.19859" lon="5.16784">
        <ele>432.1</ele>
        <time>2021-05-03T13:11:26Z</time>
      </trkpt>
      <trkpt lat="45.19861" lon="5.16788">
        <ele>432.2</ele>
        <time>2021-05-03T13:11:27Z</time>
      </trkpt>
      <trkpt lat="45.19864" lon="5.16793">
        <ele>432.3</ele>
        <time>2021-05-03T13:11:28Z</time>
      </trkpt>
      <trkpt lat="45.19866" lon="5.16799">
        <ele>432.4</ele>
        <time>2021-05-03T13:11:29Z</time>
      </trkpt>
      <trkpt lat="45.1987" lon="5.16807">
        <ele>432.4</ele>
        <time>2021-05-03T13:11:31Z</time>
      </trkpt>
      <trkpt lat="45.19872" lon="5.16812">
        <ele>432.5</ele>
        <time>2021-05-03T13:11:32Z</time>
      </trkpt>
      <trkpt lat="45.19875" lon="5.16819">
        <ele>432.6</ele>
        <time>2021-05-03T13:11:34Z</time>
      </trkpt>
      <trkpt lat="45.19878" lon="5.16829">
        <ele>432.7</ele>
        <time>2021-05-03T13:11:36Z</time>
      </trkpt>
      <trkpt lat="45.1988" lon="5.16836">
        <ele>432.8</ele>
        <time>2021-05-03T13:11:37Z</time>
      </trkpt>
      <trkpt lat="45.19882" lon="5.16843">
        <ele>432.9</ele>
        <time>2021-05-03T13:11:38Z</time>
      </trkpt>
      <trkpt lat="45.19884" lon="5.16853">
        <ele>433.1</ele>
        <time>2021-05-03T13:11:40Z</time>
      </trkpt>
      <trkpt lat="45.19886" lon="5.16864">
        <ele>433.3</ele>
        <time>2021-05-03T13:11:41Z</time>
      </trkpt>
      <trkpt lat="45.19888" lon="5.16872">
        <ele>433.5</ele>
        <time>2021-05-03T13:11:43Z</time>
      </trkpt>
      <trkpt lat="45.19888" lon="5.16879">
        <ele>433.6</ele>
        <time>2021-05-03T13:11:44Z</time>
      </trkpt>
      <trkpt lat="45.19888" lon="5.16889">
        <ele>433.8</ele>
        <time>2021-05-03T13:11:46Z</time>
      </trkpt>
      <trkpt lat="45.19888" lon="5.16897">
        <ele>433.9</ele>
        <time>2021-05-03T13:11:47Z</time>
      </trkpt>
      <trkpt lat="45.19888" lon="5.16906">
        <ele>434.1</ele>
        <time>2021-05-03T13:11:48Z</time>
      </trkpt>
      <trkpt lat="45.19888" lon="5.16914">
        <ele>434.2</ele>
        <time>2021-05-03T13:11:50Z</time>
      </trkpt>
      <trkpt lat="45.19888" lon="5.16921">
        <ele>434.3</ele>
        <time>2021-05-03T13:11:51Z</time>
      </trkpt>
      <trkpt lat="45.19888" lon="5.16926">
        <ele>434.3</ele>
        <time>2021-05-03T13:11:52Z</time>
      </trkpt>
      <trkpt lat="45.19887" lon="5.16933">
        <ele>434.4</ele>
        <time>2021-05-03T13:11:53Z</time>
      </trkpt>
      <trkpt lat="45.19886" lon="5.16945">
        <ele>434.6</ele>
        <time>2021-05-03T13:11:55Z</time>
      </trkpt>
      <trkpt lat="45.19886" lon="5.16951">
        <ele>434.7</ele>
        <time>2021-05-03T13:11:56Z</time>
      </trkpt>
      <trkpt lat="45.19885" lon="5.16965">
        <ele>434.8</ele>
        <time>2021-05-03T13:11:58Z</time>
      </trkpt>
      <trkpt lat="45.19885" lon="5.16975">
        <ele>434.9</ele>
        <time>2021-05-03T13:12:00Z</time>
      </trkpt>
      <trkpt lat="45.19885" lon="5.16982">
        <ele>435</ele>
        <time>2021-05-03T13:12:01Z</time>
      </trkpt>
      <trkpt lat="45.19885" lon="5.16993">
        <ele>435.1</ele>
        <time>2021-05-03T13:12:03Z</time>
      </trkpt>
      <trkpt lat="45.19885" lon="5.16999">
        <ele>435.1</ele>
        <time>2021-05-03T13:12:04Z</time>
      </trkpt>
      <trkpt lat="45.19884" lon="5.17005">
        <ele>435.2</ele>
        <time>2021-05-03T13:12:05Z</time>
      </trkpt>
      <trkpt lat="45.19884" lon="5.17012">
        <ele>435.3</ele>
        <time>2021-05-03T13:12:06Z</time>
      </trkpt>
      <trkpt lat="45.19883" lon="5.17018">
        <ele>435.4</ele>
        <time>2021-05-03T13:12:07Z</time>
      </trkpt>
      <trkpt lat="45.19883" lon="5.17024">
        <ele>435.4</ele>
        <time>2021-05-03T13:12:08Z</time>
      </trkpt>
      <trkpt lat="45.19882" lon="5.17031">
        <ele>435.5</ele>
        <time>2021-05-03T13:12:09Z</time>
      </trkpt>
      <trkpt lat="45.19881" lon="5.17037">
        <ele>435.6</ele>
        <time>2021-05-03T13:12:10Z</time>
      </trkpt>
      <trkpt lat="45.1988" lon="5.17045">
        <ele>435.8</ele>
        <time>2021-05-03T13:12:11Z</time>
      </trkpt>
      <trkpt lat="45.19879" lon="5.17054">
        <ele>435.9</ele>
        <time>2021-05-03T13:12:12Z</time>
      </trkpt>
      <trkpt lat="45.19884" lon="5.17058">
        <ele>436</ele>
        <time>2021-05-03T13:12:13Z</time>
      </trkpt>
      <trkpt lat="45.19884" lon="5.17068">
        <ele>436.1</ele>
        <time>2021-05-03T13:12:15Z</time>
      </trkpt>
      <trkpt lat="45.19882" lon="5.17079">
        <ele>436.3</ele>
        <time>2021-05-03T13:12:17Z</time>
      </trkpt>
      <trkpt lat="45.19881" lon="5.17086">
        <ele>436.4</ele>
        <time>2021-05-03T13:12:18Z</time>
      </trkpt>
      <trkpt lat="45.19879" lon="5.17094">
        <ele>436.5</ele>
        <time>2021-05-03T13:12:19Z</time>
      </trkpt>
      <trkpt lat="45.19878" lon="5.17106">
        <ele>436.7</ele>
        <time>2021-05-03T13:12:21Z</time>
      </trkpt>
      <trkpt lat="45.19877" lon="5.17113">
        <ele>436.8</ele>
        <time>2021-05-03T13:12:22Z</time>
      </trkpt>
      <trkpt lat="45.19877" lon="5.17119">
        <ele>436.9</ele>
        <time>2021-05-03T13:12:23Z</time>
      </trkpt>
      <trkpt lat="45.19876" lon="5.17126">
        <ele>436.9</ele>
        <time>2021-05-03T13:12:24Z</time>
      </trkpt>
      <trkpt lat="45.19876" lon="5.17133">
        <ele>437</ele>
        <time>2021-05-03T13:12:25Z</time>
      </trkpt>
      <trkpt lat="45.19879" lon="5.17146">
        <ele>437.2</ele>
        <time>2021-05-03T13:12:27Z</time>
      </trkpt>
      <trkpt lat="45.1988" lon="5.17154">
        <ele>437.3</ele>
        <time>2021-05-03T13:12:28Z</time>
      </trkpt>
      <trkpt lat="45.1988" lon="5.1716">
        <ele>437.4</ele>
        <time>2021-05-03T13:12:29Z</time>
      </trkpt>
      <trkpt lat="45.19881" lon="5.17167">
        <ele>437.4</ele>
        <time>2021-05-03T13:12:30Z</time>
      </trkpt>
      <trkpt lat="45.19881" lon="5.17173">
        <ele>437.5</ele>
        <time>2021-05-03T13:12:31Z</time>
      </trkpt>
      <trkpt lat="45.19881" lon="5.17179">
        <ele>437.6</ele>
        <time>2021-05-03T13:12:32Z</time>
      </trkpt>
      <trkpt lat="45.19881" lon="5.17186">
        <ele>437.7</ele>
        <time>2021-05-03T13:12:33Z</time>
      </trkpt>
      <trkpt lat="45.19881" lon="5.17192">
        <ele>437.8</ele>
        <time>2021-05-03T13:12:34Z</time>
      </trkpt>
      <trkpt lat="45.19882" lon="5.17199">
        <ele>437.8</ele>
        <time>2021-05-03T13:12:35Z</time>
      </trkpt>
      <trkpt lat="45.19882" lon="5.17206">
        <ele>437.9</ele>
        <time>2021-05-03T13:12:36Z</time>
      </trkpt>
      <trkpt lat="45.19881" lon="5.17213">
        <ele>438</ele>
        <time>2021-05-03T13:12:37Z</time>
      </trkpt>
      <trkpt lat="45.19881" lon="5.17219">
        <ele>438.1</ele>
        <time>2021-05-03T13:12:38Z</time>
      </trkpt>
      <trkpt lat="45.19879" lon="5.17225">
        <ele>438.2</ele>
        <time>2021-05-03T13:12:39Z</time>
      </trkpt>
      <trkpt lat="45.19878" lon="5.17231">
        <ele>438.3</ele>
        <time>2021-05-03T13:12:40Z</time>
      </trkpt>
      <trkpt lat="45.19876" lon="5.17237">
        <ele>438.4</ele>
        <time>2021-05-03T13:12:41Z</time>
      </trkpt>
      <trkpt lat="45.19875" lon="5.17242">
        <ele>438.5</ele>
        <time>2021-05-03T13:12:42Z</time>
      </trkpt>
      <trkpt lat="45.19873" lon="5.17247">
        <ele>438.6</ele>
        <time>2021-05-03T13:12:43Z</time>
      </trkpt>
      <trkpt lat="45.19872" lon="5.17252">
        <ele>438.7</ele>
        <time>2021-05-03T13:12:44Z</time>
      </trkpt>
      <trkpt lat="45.1987" lon="5.17258">
        <ele>438.8</ele>
        <time>2021-05-03T13:12:45Z</time>
      </trkpt>
      <trkpt lat="45.19868" lon="5.17263">
        <ele>438.9</ele>
        <time>2021-05-03T13:12:46Z</time>
      </trkpt>
      <trkpt lat="45.19866" lon="5.17268">
        <ele>439</ele>
        <time>2021-05-03T13:12:47Z</time>
      </trkpt>
      <trkpt lat="45.1986" lon="5.17271">
        <ele>439.1</ele>
        <time>2021-05-03T13:12:48Z</time>
      </trkpt>
      <trkpt lat="45.19856" lon="5.17282">
        <ele>439.3</ele>
        <time>2021-05-03T13:12:50Z</time>
      </trkpt>
      <trkpt lat="45.19854" lon="5.17289">
        <ele>439.4</ele>
        <time>2021-05-03T13:12:51Z</time>
      </trkpt>
      <trkpt lat="45.1985" lon="5.17299">
        <ele>439.5</ele>
        <time>2021-05-03T13:12:52Z</time>
      </trkpt>
      <trkpt lat="45.19848" lon="5.17303">
        <ele>439.6</ele>
        <time>2021-05-03T13:12:53Z</time>
      </trkpt>
      <trkpt lat="45.19847" lon="5.17306">
        <ele>439.6</ele>
        <time>2021-05-03T13:12:55Z</time>
      </trkpt>
      <trkpt lat="45.19845" lon="5.1731">
        <ele>439.7</ele>
        <time>2021-05-03T13:12:56Z</time>
      </trkpt>
      <trkpt lat="45.1984" lon="5.17318">
        <ele>439.8</ele>
        <time>2021-05-03T13:12:57Z</time>
      </trkpt>
      <trkpt lat="45.19838" lon="5.17324">
        <ele>439.8</ele>
        <time>2021-05-03T13:12:59Z</time>
      </trkpt>
      <trkpt lat="45.19834" lon="5.17331">
        <ele>439.9</ele>
        <time>2021-05-03T13:13:00Z</time>
      </trkpt>
      <trkpt lat="45.19829" lon="5.17342">
        <ele>440</ele>
        <time>2021-05-03T13:13:01Z</time>
      </trkpt>
      <trkpt lat="45.19826" lon="5.17348">
        <ele>440.1</ele>
        <time>2021-05-03T13:13:03Z</time>
      </trkpt>
      <trkpt lat="45.19823" lon="5.17353">
        <ele>440.1</ele>
        <time>2021-05-03T13:13:04Z</time>
      </trkpt>
      <trkpt lat="45.19821" lon="5.17357">
        <ele>440.1</ele>
        <time>2021-05-03T13:13:05Z</time>
      </trkpt>
      <trkpt lat="45.19818" lon="5.17363">
        <ele>440.2</ele>
        <time>2021-05-03T13:13:06Z</time>
      </trkpt>
      <trkpt lat="45.19814" lon="5.17372">
        <ele>440.3</ele>
        <time>2021-05-03T13:13:08Z</time>
      </trkpt>
      <trkpt lat="45.19809" lon="5.17382">
        <ele>440.4</ele>
        <time>2021-05-03T13:13:09Z</time>
      </trkpt>
      <trkpt lat="45.19808" lon="5.17388">
        <ele>440.5</ele>
        <time>2021-05-03T13:13:11Z</time>
      </trkpt>
      <trkpt lat="45.19805" lon="5.17394">
        <ele>440.6</ele>
        <time>2021-05-03T13:13:12Z</time>
      </trkpt>
      <trkpt lat="45.19801" lon="5.17405">
        <ele>440.7</ele>
        <time>2021-05-03T13:13:14Z</time>
      </trkpt>
      <trkpt lat="45.19798" lon="5.17411">
        <ele>440.8</ele>
        <time>2021-05-03T13:13:15Z</time>
      </trkpt>
      <trkpt lat="45.19797" lon="5.17417">
        <ele>440.9</ele>
        <time>2021-05-03T13:13:16Z</time>
      </trkpt>
      <trkpt lat="45.19796" lon="5.17425">
        <ele>441</ele>
        <time>2021-05-03T13:13:17Z</time>
      </trkpt>
      <trkpt lat="45.19793" lon="5.17435">
        <ele>441.2</ele>
        <time>2021-05-03T13:13:18Z</time>
      </trkpt>
      <trkpt lat="45.19789" lon="5.17445">
        <ele>441.4</ele>
        <time>2021-05-03T13:13:20Z</time>
      </trkpt>
      <trkpt lat="45.19787" lon="5.17457">
        <ele>441.5</ele>
        <time>2021-05-03T13:13:22Z</time>
      </trkpt>
      <trkpt lat="45.19786" lon="5.17463">
        <ele>441.6</ele>
        <time>2021-05-03T13:13:23Z</time>
      </trkpt>
      <trkpt lat="45.19785" lon="5.17474">
        <ele>441.7</ele>
        <time>2021-05-03T13:13:25Z</time>
      </trkpt>
      <trkpt lat="45.19784" lon="5.17481">
        <ele>441.8</ele>
        <time>2021-05-03T13:13:26Z</time>
      </trkpt>
      <trkpt lat="45.19782" lon="5.1749">
        <ele>441.9</ele>
        <time>2021-05-03T13:13:27Z</time>
      </trkpt>
      <trkpt lat="45.19781" lon="5.175">
        <ele>442.1</ele>
        <time>2021-05-03T13:13:29Z</time>
      </trkpt>
      <trkpt lat="45.19779" lon="5.17506">
        <ele>442.1</ele>
        <time>2021-05-03T13:13:30Z</time>
      </trkpt>
      <trkpt lat="45.19778" lon="5.17514">
        <ele>442.2</ele>
        <time>2021-05-03T13:13:31Z</time>
      </trkpt>
      <trkpt lat="45.19777" lon="5.17527">
        <ele>442.4</ele>
        <time>2021-05-03T13:13:32Z</time>
      </trkpt>
      <trkpt lat="45.19776" lon="5.17537">
        <ele>442.6</ele>
        <time>2021-05-03T13:13:34Z</time>
      </trkpt>
      <trkpt lat="45.19777" lon="5.17546">
        <ele>442.7</ele>
        <time>2021-05-03T13:13:36Z</time>
      </trkpt>
      <trkpt lat="45.19778" lon="5.17556">
        <ele>442.9</ele>
        <time>2021-05-03T13:13:38Z</time>
      </trkpt>
      <trkpt lat="45.19778" lon="5.17564">
        <ele>443.1</ele>
        <time>2021-05-03T13:13:39Z</time>
      </trkpt>
      <trkpt lat="45.1978" lon="5.17575">
        <ele>443.3</ele>
        <time>2021-05-03T13:13:41Z</time>
      </trkpt>
      <trkpt lat="45.1978" lon="5.17586">
        <ele>443.5</ele>
        <time>2021-05-03T13:13:43Z</time>
      </trkpt>
      <trkpt lat="45.19779" lon="5.17599">
        <ele>443.7</ele>
        <time>2021-05-03T13:13:45Z</time>
      </trkpt>
      <trkpt lat="45.19778" lon="5.17604">
        <ele>443.7</ele>
        <time>2021-05-03T13:13:46Z</time>
      </trkpt>
      <trkpt lat="45.19777" lon="5.17605">
        <ele>443.8</ele>
        <time>2021-05-03T13:13:47Z</time>
      </trkpt>
      <trkpt lat="45.19773" lon="5.17621">
        <ele>444</ele>
        <time>2021-05-03T13:13:49Z</time>
      </trkpt>
      <trkpt lat="45.19772" lon="5.17626">
        <ele>444</ele>
        <time>2021-05-03T13:13:50Z</time>
      </trkpt>
      <trkpt lat="45.1977" lon="5.17631">
        <ele>444.1</ele>
        <time>2021-05-03T13:13:51Z</time>
      </trkpt>
      <trkpt lat="45.19766" lon="5.17639">
        <ele>444.2</ele>
        <time>2021-05-03T13:13:52Z</time>
      </trkpt>
      <trkpt lat="45.19763" lon="5.17649">
        <ele>444.3</ele>
        <time>2021-05-03T13:13:54Z</time>
      </trkpt>
      <trkpt lat="45.1976" lon="5.17658">
        <ele>444.4</ele>
        <time>2021-05-03T13:13:55Z</time>
      </trkpt>
      <trkpt lat="45.19757" lon="5.17665">
        <ele>444.5</ele>
        <time>2021-05-03T13:13:57Z</time>
      </trkpt>
      <trkpt lat="45.19755" lon="5.17669">
        <ele>444.5</ele>
        <time>2021-05-03T13:13:58Z</time>
      </trkpt>
      <trkpt lat="45.19752" lon="5.17676">
        <ele>444.6</ele>
        <time>2021-05-03T13:13:59Z</time>
      </trkpt>
      <trkpt lat="45.19751" lon="5.17681">
        <ele>444.7</ele>
        <time>2021-05-03T13:14:00Z</time>
      </trkpt>
      <trkpt lat="45.19747" lon="5.17695">
        <ele>444.8</ele>
        <time>2021-05-03T13:14:02Z</time>
      </trkpt>
      <trkpt lat="45.19745" lon="5.17705">
        <ele>444.9</ele>
        <time>2021-05-03T13:14:04Z</time>
      </trkpt>
      <trkpt lat="45.19743" lon="5.17713">
        <ele>445</ele>
        <time>2021-05-03T13:14:05Z</time>
      </trkpt>
      <trkpt lat="45.19742" lon="5.17723">
        <ele>445.1</ele>
        <time>2021-05-03T13:14:06Z</time>
      </trkpt>
      <trkpt lat="45.1974" lon="5.17733">
        <ele>445.2</ele>
        <time>2021-05-03T13:14:08Z</time>
      </trkpt>
      <trkpt lat="45.19739" lon="5.17744">
        <ele>445.3</ele>
        <time>2021-05-03T13:14:10Z</time>
      </trkpt>
      <trkpt lat="45.19737" lon="5.1775">
        <ele>445.4</ele>
        <time>2021-05-03T13:14:11Z</time>
      </trkpt>
      <trkpt lat="45.19736" lon="5.17756">
        <ele>445.5</ele>
        <time>2021-05-03T13:14:12Z</time>
      </trkpt>
      <trkpt lat="45.19735" lon="5.17762">
        <ele>445.6</ele>
        <time>2021-05-03T13:14:13Z</time>
      </trkpt>
      <trkpt lat="45.19733" lon="5.17768">
        <ele>445.7</ele>
        <time>2021-05-03T13:14:14Z</time>
      </trkpt>
      <trkpt lat="45.19732" lon="5.17769">
        <ele>445.8</ele>
        <time>2021-05-03T13:14:15Z</time>
      </trkpt>
      <trkpt lat="45.1973" lon="5.17779">
        <ele>445.9</ele>
        <time>2021-05-03T13:14:16Z</time>
      </trkpt>
      <trkpt lat="45.19729" lon="5.17788">
        <ele>446.1</ele>
        <time>2021-05-03T13:14:17Z</time>
      </trkpt>
      <trkpt lat="45.19728" lon="5.17796">
        <ele>446.2</ele>
        <time>2021-05-03T13:14:18Z</time>
      </trkpt>
      <trkpt lat="45.19726" lon="5.17805">
        <ele>446.4</ele>
        <time>2021-05-03T13:14:20Z</time>
      </trkpt>
      <trkpt lat="45.19724" lon="5.1781">
        <ele>446.5</ele>
        <time>2021-05-03T13:14:21Z</time>
      </trkpt>
      <trkpt lat="45.19721" lon="5.1782">
        <ele>446.7</ele>
        <time>2021-05-03T13:14:23Z</time>
      </trkpt>
      <trkpt lat="45.19718" lon="5.17827">
        <ele>446.8</ele>
        <time>2021-05-03T13:14:24Z</time>
      </trkpt>
      <trkpt lat="45.19714" lon="5.17837">
        <ele>447</ele>
        <time>2021-05-03T13:14:26Z</time>
      </trkpt>
      <trkpt lat="45.19713" lon="5.17842">
        <ele>447.1</ele>
        <time>2021-05-03T13:14:27Z</time>
      </trkpt>
      <trkpt lat="45.1971" lon="5.17851">
        <ele>447.3</ele>
        <time>2021-05-03T13:14:28Z</time>
      </trkpt>
      <trkpt lat="45.19708" lon="5.17859">
        <ele>447.4</ele>
        <time>2021-05-03T13:14:30Z</time>
      </trkpt>
      <trkpt lat="45.19707" lon="5.17867">
        <ele>447.5</ele>
        <time>2021-05-03T13:14:31Z</time>
      </trkpt>
      <trkpt lat="45.19708" lon="5.17874">
        <ele>447.7</ele>
        <time>2021-05-03T13:14:32Z</time>
      </trkpt>
      <trkpt lat="45.1971" lon="5.17885">
        <ele>447.8</ele>
        <time>2021-05-03T13:14:34Z</time>
      </trkpt>
      <trkpt lat="45.19711" lon="5.17892">
        <ele>447.9</ele>
        <time>2021-05-03T13:14:35Z</time>
      </trkpt>
      <trkpt lat="45.19714" lon="5.17899">
        <ele>448</ele>
        <time>2021-05-03T13:14:36Z</time>
      </trkpt>
      <trkpt lat="45.19718" lon="5.17909">
        <ele>448.2</ele>
        <time>2021-05-03T13:14:37Z</time>
      </trkpt>
      <trkpt lat="45.19719" lon="5.17913">
        <ele>448.2</ele>
        <time>2021-05-03T13:14:38Z</time>
      </trkpt>
      <trkpt lat="45.19722" lon="5.1792">
        <ele>448.4</ele>
        <time>2021-05-03T13:14:40Z</time>
      </trkpt>
      <trkpt lat="45.19723" lon="5.17924">
        <ele>448.4</ele>
        <time>2021-05-03T13:14:41Z</time>
      </trkpt>
      <trkpt lat="45.19725" lon="5.17927">
        <ele>448.5</ele>
        <time>2021-05-03T13:14:42Z</time>
      </trkpt>
      <trkpt lat="45.19728" lon="5.17939">
        <ele>448.9</ele>
        <time>2021-05-03T13:14:44Z</time>
      </trkpt>
      <trkpt lat="45.19729" lon="5.17946">
        <ele>449.1</ele>
        <time>2021-05-03T13:14:45Z</time>
      </trkpt>
      <trkpt lat="45.1973" lon="5.17953">
        <ele>449.3</ele>
        <time>2021-05-03T13:14:46Z</time>
      </trkpt>
      <trkpt lat="45.1973" lon="5.1796">
        <ele>449.4</ele>
        <time>2021-05-03T13:14:47Z</time>
      </trkpt>
      <trkpt lat="45.1973" lon="5.17965">
        <ele>449.6</ele>
        <time>2021-05-03T13:14:48Z</time>
      </trkpt>
      <trkpt lat="45.19729" lon="5.17973">
        <ele>449.8</ele>
        <time>2021-05-03T13:14:50Z</time>
      </trkpt>
      <trkpt lat="45.19729" lon="5.17976">
        <ele>449.8</ele>
        <time>2021-05-03T13:14:51Z</time>
      </trkpt>
      <trkpt lat="45.19729" lon="5.17982">
        <ele>450</ele>
        <time>2021-05-03T13:14:53Z</time>
      </trkpt>
      <trkpt lat="45.19728" lon="5.1799">
        <ele>450.2</ele>
        <time>2021-05-03T13:14:54Z</time>
      </trkpt>
      <trkpt lat="45.19727" lon="5.17996">
        <ele>450.3</ele>
        <time>2021-05-03T13:14:55Z</time>
      </trkpt>
      <trkpt lat="45.19726" lon="5.18005">
        <ele>450.5</ele>
        <time>2021-05-03T13:14:57Z</time>
      </trkpt>
      <trkpt lat="45.19725" lon="5.18013">
        <ele>450.7</ele>
        <time>2021-05-03T13:14:59Z</time>
      </trkpt>
      <trkpt lat="45.19724" lon="5.18017">
        <ele>450.8</ele>
        <time>2021-05-03T13:15:00Z</time>
      </trkpt>
      <trkpt lat="45.19724" lon="5.18023">
        <ele>450.9</ele>
        <time>2021-05-03T13:15:01Z</time>
      </trkpt>
      <trkpt lat="45.19724" lon="5.18032">
        <ele>451.1</ele>
        <time>2021-05-03T13:15:03Z</time>
      </trkpt>
      <trkpt lat="45.19725" lon="5.18038">
        <ele>451.3</ele>
        <time>2021-05-03T13:15:04Z</time>
      </trkpt>
      <trkpt lat="45.19725" lon="5.18047">
        <ele>451.5</ele>
        <time>2021-05-03T13:15:06Z</time>
      </trkpt>
      <trkpt lat="45.19724" lon="5.18057">
        <ele>451.7</ele>
        <time>2021-05-03T13:15:08Z</time>
      </trkpt>
      <trkpt lat="45.19724" lon="5.18063">
        <ele>451.8</ele>
        <time>2021-05-03T13:15:09Z</time>
      </trkpt>
      <trkpt lat="45.19724" lon="5.18072">
        <ele>452</ele>
        <time>2021-05-03T13:15:11Z</time>
      </trkpt>
      <trkpt lat="45.19723" lon="5.18079">
        <ele>452.1</ele>
        <time>2021-05-03T13:15:12Z</time>
      </trkpt>
      <trkpt lat="45.19722" lon="5.1809">
        <ele>452.3</ele>
        <time>2021-05-03T13:15:14Z</time>
      </trkpt>
      <trkpt lat="45.19722" lon="5.18096">
        <ele>452.5</ele>
        <time>2021-05-03T13:15:15Z</time>
      </trkpt>
      <trkpt lat="45.19722" lon="5.18104">
        <ele>452.6</ele>
        <time>2021-05-03T13:15:17Z</time>
      </trkpt>
      <trkpt lat="45.19721" lon="5.18111">
        <ele>452.8</ele>
        <time>2021-05-03T13:15:18Z</time>
      </trkpt>
      <trkpt lat="45.19721" lon="5.18121">
        <ele>452.9</ele>
        <time>2021-05-03T13:15:20Z</time>
      </trkpt>
      <trkpt lat="45.19721" lon="5.18127">
        <ele>453.1</ele>
        <time>2021-05-03T13:15:21Z</time>
      </trkpt>
      <trkpt lat="45.19721" lon="5.18134">
        <ele>453.2</ele>
        <time>2021-05-03T13:15:22Z</time>
      </trkpt>
      <trkpt lat="45.19721" lon="5.18141">
        <ele>453.4</ele>
        <time>2021-05-03T13:15:23Z</time>
      </trkpt>
      <trkpt lat="45.19721" lon="5.18148">
        <ele>453.5</ele>
        <time>2021-05-03T13:15:24Z</time>
      </trkpt>
      <trkpt lat="45.19721" lon="5.18154">
        <ele>453.7</ele>
        <time>2021-05-03T13:15:26Z</time>
      </trkpt>
      <trkpt lat="45.1972" lon="5.18159">
        <ele>453.8</ele>
        <time>2021-05-03T13:15:27Z</time>
      </trkpt>
      <trkpt lat="45.19719" lon="5.18166">
        <ele>453.9</ele>
        <time>2021-05-03T13:15:28Z</time>
      </trkpt>
      <trkpt lat="45.19719" lon="5.18174">
        <ele>454.1</ele>
        <time>2021-05-03T13:15:30Z</time>
      </trkpt>
      <trkpt lat="45.19718" lon="5.18183">
        <ele>454.3</ele>
        <time>2021-05-03T13:15:32Z</time>
      </trkpt>
      <trkpt lat="45.19718" lon="5.18189">
        <ele>454.5</ele>
        <time>2021-05-03T13:15:33Z</time>
      </trkpt>
      <trkpt lat="45.19718" lon="5.18199">
        <ele>454.7</ele>
        <time>2021-05-03T13:15:35Z</time>
      </trkpt>
      <trkpt lat="45.19717" lon="5.18205">
        <ele>454.8</ele>
        <time>2021-05-03T13:15:36Z</time>
      </trkpt>
      <trkpt lat="45.19716" lon="5.18213">
        <ele>455</ele>
        <time>2021-05-03T13:15:38Z</time>
      </trkpt>
      <trkpt lat="45.19716" lon="5.18219">
        <ele>455.1</ele>
        <time>2021-05-03T13:15:39Z</time>
      </trkpt>
      <trkpt lat="45.19715" lon="5.18225">
        <ele>455.2</ele>
        <time>2021-05-03T13:15:40Z</time>
      </trkpt>
      <trkpt lat="45.19715" lon="5.18234">
        <ele>455.4</ele>
        <time>2021-05-03T13:15:42Z</time>
      </trkpt>
      <trkpt lat="45.19714" lon="5.18238">
        <ele>455.5</ele>
        <time>2021-05-03T13:15:43Z</time>
      </trkpt>
      <trkpt lat="45.19713" lon="5.18248">
        <ele>455.7</ele>
        <time>2021-05-03T13:15:45Z</time>
      </trkpt>
      <trkpt lat="45.19712" lon="5.18254">
        <ele>455.9</ele>
        <time>2021-05-03T13:15:46Z</time>
      </trkpt>
      <trkpt lat="45.19711" lon="5.18262">
        <ele>456.1</ele>
        <time>2021-05-03T13:15:47Z</time>
      </trkpt>
      <trkpt lat="45.19709" lon="5.18269">
        <ele>456.2</ele>
        <time>2021-05-03T13:15:48Z</time>
      </trkpt>
      <trkpt lat="45.19708" lon="5.18274">
        <ele>456.4</ele>
        <time>2021-05-03T13:15:50Z</time>
      </trkpt>
      <trkpt lat="45.19707" lon="5.1828">
        <ele>456.5</ele>
        <time>2021-05-03T13:15:51Z</time>
      </trkpt>
      <trkpt lat="45.19706" lon="5.18286">
        <ele>456.7</ele>
        <time>2021-05-03T13:15:52Z</time>
      </trkpt>
      <trkpt lat="45.19705" lon="5.18293">
        <ele>456.8</ele>
        <time>2021-05-03T13:15:53Z</time>
      </trkpt>
      <trkpt lat="45.19703" lon="5.18302">
        <ele>457.1</ele>
        <time>2021-05-03T13:15:54Z</time>
      </trkpt>
      <trkpt lat="45.19702" lon="5.18309">
        <ele>457.2</ele>
        <time>2021-05-03T13:15:56Z</time>
      </trkpt>
      <trkpt lat="45.19702" lon="5.18313">
        <ele>457.4</ele>
        <time>2021-05-03T13:15:57Z</time>
      </trkpt>
      <trkpt lat="45.19701" lon="5.18317">
        <ele>457.5</ele>
        <time>2021-05-03T13:15:58Z</time>
      </trkpt>
      <trkpt lat="45.197" lon="5.18323">
        <ele>457.7</ele>
        <time>2021-05-03T13:15:59Z</time>
      </trkpt>
      <trkpt lat="45.19698" lon="5.18329">
        <ele>457.8</ele>
        <time>2021-05-03T13:16:00Z</time>
      </trkpt>
      <trkpt lat="45.19695" lon="5.18335">
        <ele>458.1</ele>
        <time>2021-05-03T13:16:02Z</time>
      </trkpt>
      <trkpt lat="45.19693" lon="5.1834">
        <ele>458.2</ele>
        <time>2021-05-03T13:16:03Z</time>
      </trkpt>
      <trkpt lat="45.19691" lon="5.18347">
        <ele>458.4</ele>
        <time>2021-05-03T13:16:05Z</time>
      </trkpt>
      <trkpt lat="45.19689" lon="5.18352">
        <ele>458.5</ele>
        <time>2021-05-03T13:16:06Z</time>
      </trkpt>
      <trkpt lat="45.19685" lon="5.18361">
        <ele>458.7</ele>
        <time>2021-05-03T13:16:08Z</time>
      </trkpt>
      <trkpt lat="45.19683" lon="5.18367">
        <ele>458.9</ele>
        <time>2021-05-03T13:16:09Z</time>
      </trkpt>
      <trkpt lat="45.19679" lon="5.18375">
        <ele>459.1</ele>
        <time>2021-05-03T13:16:10Z</time>
      </trkpt>
      <trkpt lat="45.19677" lon="5.18381">
        <ele>459.2</ele>
        <time>2021-05-03T13:16:12Z</time>
      </trkpt>
      <trkpt lat="45.19674" lon="5.18389">
        <ele>459.4</ele>
        <time>2021-05-03T13:16:13Z</time>
      </trkpt>
      <trkpt lat="45.1967" lon="5.18398">
        <ele>459.7</ele>
        <time>2021-05-03T13:16:15Z</time>
      </trkpt>
      <trkpt lat="45.19668" lon="5.18403">
        <ele>459.8</ele>
        <time>2021-05-03T13:16:16Z</time>
      </trkpt>
      <trkpt lat="45.19665" lon="5.18412">
        <ele>460.1</ele>
        <time>2021-05-03T13:16:18Z</time>
      </trkpt>
      <trkpt lat="45.19663" lon="5.18418">
        <ele>460.2</ele>
        <time>2021-05-03T13:16:19Z</time>
      </trkpt>
      <trkpt lat="45.19662" lon="5.18423">
        <ele>460.3</ele>
        <time>2021-05-03T13:16:20Z</time>
      </trkpt>
      <trkpt lat="45.19662" lon="5.1843">
        <ele>460.5</ele>
        <time>2021-05-03T13:16:21Z</time>
      </trkpt>
      <trkpt lat="45.19661" lon="5.1844">
        <ele>460.7</ele>
        <time>2021-05-03T13:16:23Z</time>
      </trkpt>
      <trkpt lat="45.1966" lon="5.18446">
        <ele>460.9</ele>
        <time>2021-05-03T13:16:24Z</time>
      </trkpt>
      <trkpt lat="45.19659" lon="5.18456">
        <ele>461.1</ele>
        <time>2021-05-03T13:16:26Z</time>
      </trkpt>
      <trkpt lat="45.19659" lon="5.18461">
        <ele>461.2</ele>
        <time>2021-05-03T13:16:27Z</time>
      </trkpt>
      <trkpt lat="45.19658" lon="5.18469">
        <ele>461.4</ele>
        <time>2021-05-03T13:16:28Z</time>
      </trkpt>
      <trkpt lat="45.19657" lon="5.18478">
        <ele>461.6</ele>
        <time>2021-05-03T13:16:30Z</time>
      </trkpt>
      <trkpt lat="45.19658" lon="5.18484">
        <ele>461.7</ele>
        <time>2021-05-03T13:16:31Z</time>
      </trkpt>
      <trkpt lat="45.19658" lon="5.18491">
        <ele>461.9</ele>
        <time>2021-05-03T13:16:32Z</time>
      </trkpt>
      <trkpt lat="45.19658" lon="5.18498">
        <ele>462</ele>
        <time>2021-05-03T13:16:33Z</time>
      </trkpt>
      <trkpt lat="45.19657" lon="5.18505">
        <ele>462.1</ele>
        <time>2021-05-03T13:16:35Z</time>
      </trkpt>
      <trkpt lat="45.19657" lon="5.18512">
        <ele>462.3</ele>
        <time>2021-05-03T13:16:36Z</time>
      </trkpt>
      <trkpt lat="45.19657" lon="5.18519">
        <ele>462.4</ele>
        <time>2021-05-03T13:16:37Z</time>
      </trkpt>
      <trkpt lat="45.19657" lon="5.18526">
        <ele>462.6</ele>
        <time>2021-05-03T13:16:38Z</time>
      </trkpt>
      <trkpt lat="45.19657" lon="5.18532">
        <ele>462.7</ele>
        <time>2021-05-03T13:16:39Z</time>
      </trkpt>
      <trkpt lat="45.19657" lon="5.1854">
        <ele>462.9</ele>
        <time>2021-05-03T13:16:41Z</time>
      </trkpt>
      <trkpt lat="45.19656" lon="5.18549">
        <ele>463.1</ele>
        <time>2021-05-03T13:16:43Z</time>
      </trkpt>
      <trkpt lat="45.19657" lon="5.18556">
        <ele>463.2</ele>
        <time>2021-05-03T13:16:44Z</time>
      </trkpt>
      <trkpt lat="45.19657" lon="5.18565">
        <ele>463.4</ele>
        <time>2021-05-03T13:16:45Z</time>
      </trkpt>
      <trkpt lat="45.19656" lon="5.18572">
        <ele>463.6</ele>
        <time>2021-05-03T13:16:47Z</time>
      </trkpt>
      <trkpt lat="45.19656" lon="5.18578">
        <ele>463.7</ele>
        <time>2021-05-03T13:16:48Z</time>
      </trkpt>
      <trkpt lat="45.19656" lon="5.18584">
        <ele>463.9</ele>
        <time>2021-05-03T13:16:49Z</time>
      </trkpt>
      <trkpt lat="45.19655" lon="5.18591">
        <ele>464</ele>
        <time>2021-05-03T13:16:50Z</time>
      </trkpt>
      <trkpt lat="45.19654" lon="5.18599">
        <ele>464.2</ele>
        <time>2021-05-03T13:16:51Z</time>
      </trkpt>
      <trkpt lat="45.19654" lon="5.18606">
        <ele>464.4</ele>
        <time>2021-05-03T13:16:53Z</time>
      </trkpt>
      <trkpt lat="45.19654" lon="5.18613">
        <ele>464.5</ele>
        <time>2021-05-03T13:16:54Z</time>
      </trkpt>
      <trkpt lat="45.19654" lon="5.18623">
        <ele>464.7</ele>
        <time>2021-05-03T13:16:55Z</time>
      </trkpt>
      <trkpt lat="45.19653" lon="5.18631">
        <ele>464.9</ele>
        <time>2021-05-03T13:16:57Z</time>
      </trkpt>
      <trkpt lat="45.19653" lon="5.18638">
        <ele>465</ele>
        <time>2021-05-03T13:16:58Z</time>
      </trkpt>
      <trkpt lat="45.19653" lon="5.18649">
        <ele>465.3</ele>
        <time>2021-05-03T13:17:00Z</time>
      </trkpt>
      <trkpt lat="45.19653" lon="5.1866">
        <ele>465.6</ele>
        <time>2021-05-03T13:17:02Z</time>
      </trkpt>
      <trkpt lat="45.19653" lon="5.18667">
        <ele>465.7</ele>
        <time>2021-05-03T13:17:03Z</time>
      </trkpt>
      <trkpt lat="45.19653" lon="5.18677">
        <ele>466</ele>
        <time>2021-05-03T13:17:05Z</time>
      </trkpt>
      <trkpt lat="45.19653" lon="5.18689">
        <ele>466.3</ele>
        <time>2021-05-03T13:17:07Z</time>
      </trkpt>
      <trkpt lat="45.19654" lon="5.187">
        <ele>466.6</ele>
        <time>2021-05-03T13:17:09Z</time>
      </trkpt>
      <trkpt lat="45.19655" lon="5.18707">
        <ele>466.8</ele>
        <time>2021-05-03T13:17:10Z</time>
      </trkpt>
      <trkpt lat="45.19656" lon="5.18713">
        <ele>466.9</ele>
        <time>2021-05-03T13:17:11Z</time>
      </trkpt>
      <trkpt lat="45.19657" lon="5.1872">
        <ele>467.1</ele>
        <time>2021-05-03T13:17:12Z</time>
      </trkpt>
      <trkpt lat="45.19658" lon="5.18727">
        <ele>467.3</ele>
        <time>2021-05-03T13:17:14Z</time>
      </trkpt>
      <trkpt lat="45.19659" lon="5.18735">
        <ele>467.4</ele>
        <time>2021-05-03T13:17:15Z</time>
      </trkpt>
      <trkpt lat="45.1966" lon="5.18739">
        <ele>467.6</ele>
        <time>2021-05-03T13:17:16Z</time>
      </trkpt>
      <trkpt lat="45.1966" lon="5.18746">
        <ele>467.7</ele>
        <time>2021-05-03T13:17:17Z</time>
      </trkpt>
      <trkpt lat="45.19661" lon="5.18752">
        <ele>467.9</ele>
        <time>2021-05-03T13:17:18Z</time>
      </trkpt>
      <trkpt lat="45.19662" lon="5.18762">
        <ele>468.2</ele>
        <time>2021-05-03T13:17:20Z</time>
      </trkpt>
      <trkpt lat="45.19663" lon="5.18769">
        <ele>468.4</ele>
        <time>2021-05-03T13:17:21Z</time>
      </trkpt>
      <trkpt lat="45.19663" lon="5.18777">
        <ele>468.6</ele>
        <time>2021-05-03T13:17:22Z</time>
      </trkpt>
      <trkpt lat="45.19663" lon="5.18785">
        <ele>468.8</ele>
        <time>2021-05-03T13:17:24Z</time>
      </trkpt>
      <trkpt lat="45.19662" lon="5.18791">
        <ele>469</ele>
        <time>2021-05-03T13:17:25Z</time>
      </trkpt>
      <trkpt lat="45.19662" lon="5.18798">
        <ele>469.2</ele>
        <time>2021-05-03T13:17:26Z</time>
      </trkpt>
      <trkpt lat="45.1966" lon="5.1881">
        <ele>469.5</ele>
        <time>2021-05-03T13:17:28Z</time>
      </trkpt>
      <trkpt lat="45.19659" lon="5.18815">
        <ele>469.6</ele>
        <time>2021-05-03T13:17:29Z</time>
      </trkpt>
      <trkpt lat="45.19658" lon="5.18822">
        <ele>469.8</ele>
        <time>2021-05-03T13:17:30Z</time>
      </trkpt>
      <trkpt lat="45.19656" lon="5.18832">
        <ele>470</ele>
        <time>2021-05-03T13:17:31Z</time>
      </trkpt>
      <trkpt lat="45.19654" lon="5.18838">
        <ele>470.2</ele>
        <time>2021-05-03T13:17:33Z</time>
      </trkpt>
      <trkpt lat="45.19652" lon="5.18843">
        <ele>470.3</ele>
        <time>2021-05-03T13:17:34Z</time>
      </trkpt>
      <trkpt lat="45.19651" lon="5.18849">
        <ele>470.4</ele>
        <time>2021-05-03T13:17:35Z</time>
      </trkpt>
      <trkpt lat="45.19648" lon="5.18858">
        <ele>470.6</ele>
        <time>2021-05-03T13:17:37Z</time>
      </trkpt>
      <trkpt lat="45.19646" lon="5.18864">
        <ele>470.8</ele>
        <time>2021-05-03T13:17:38Z</time>
      </trkpt>
      <trkpt lat="45.19645" lon="5.1887">
        <ele>470.9</ele>
        <time>2021-05-03T13:17:39Z</time>
      </trkpt>
      <trkpt lat="45.19644" lon="5.1888">
        <ele>471.1</ele>
        <time>2021-05-03T13:17:40Z</time>
      </trkpt>
      <trkpt lat="45.19643" lon="5.18886">
        <ele>471.3</ele>
        <time>2021-05-03T13:17:42Z</time>
      </trkpt>
      <trkpt lat="45.19643" lon="5.18891">
        <ele>471.4</ele>
        <time>2021-05-03T13:17:43Z</time>
      </trkpt>
      <trkpt lat="45.19642" lon="5.18898">
        <ele>471.5</ele>
        <time>2021-05-03T13:17:44Z</time>
      </trkpt>
      <trkpt lat="45.19641" lon="5.18909">
        <ele>471.8</ele>
        <time>2021-05-03T13:17:46Z</time>
      </trkpt>
      <trkpt lat="45.19642" lon="5.18915">
        <ele>471.9</ele>
        <time>2021-05-03T13:17:47Z</time>
      </trkpt>
      <trkpt lat="45.19642" lon="5.18925">
        <ele>472.1</ele>
        <time>2021-05-03T13:17:49Z</time>
      </trkpt>
      <trkpt lat="45.19642" lon="5.18935">
        <ele>472.3</ele>
        <time>2021-05-03T13:17:51Z</time>
      </trkpt>
      <trkpt lat="45.19642" lon="5.1894">
        <ele>472.4</ele>
        <time>2021-05-03T13:17:52Z</time>
      </trkpt>
      <trkpt lat="45.19643" lon="5.18946">
        <ele>472.6</ele>
        <time>2021-05-03T13:17:53Z</time>
      </trkpt>
      <trkpt lat="45.19643" lon="5.18954">
        <ele>472.7</ele>
        <time>2021-05-03T13:17:54Z</time>
      </trkpt>
      <trkpt lat="45.19643" lon="5.18961">
        <ele>472.9</ele>
        <time>2021-05-03T13:17:55Z</time>
      </trkpt>
      <trkpt lat="45.19642" lon="5.18968">
        <ele>473.1</ele>
        <time>2021-05-03T13:17:56Z</time>
      </trkpt>
      <trkpt lat="45.19643" lon="5.18975">
        <ele>473.3</ele>
        <time>2021-05-03T13:17:58Z</time>
      </trkpt>
      <trkpt lat="45.19642" lon="5.18981">
        <ele>473.4</ele>
        <time>2021-05-03T13:17:59Z</time>
      </trkpt>
      <trkpt lat="45.19641" lon="5.18987">
        <ele>473.5</ele>
        <time>2021-05-03T13:18:00Z</time>
      </trkpt>
      <trkpt lat="45.1964" lon="5.18993">
        <ele>473.7</ele>
        <time>2021-05-03T13:18:01Z</time>
      </trkpt>
      <trkpt lat="45.1964" lon="5.19">
        <ele>473.8</ele>
        <time>2021-05-03T13:18:02Z</time>
      </trkpt>
      <trkpt lat="45.19639" lon="5.19008">
        <ele>474</ele>
        <time>2021-05-03T13:18:04Z</time>
      </trkpt>
      <trkpt lat="45.19639" lon="5.19016">
        <ele>474.2</ele>
        <time>2021-05-03T13:18:05Z</time>
      </trkpt>
      <trkpt lat="45.19638" lon="5.19024">
        <ele>474.4</ele>
        <time>2021-05-03T13:18:07Z</time>
      </trkpt>
      <trkpt lat="45.19638" lon="5.19028">
        <ele>474.5</ele>
        <time>2021-05-03T13:18:08Z</time>
      </trkpt>
      <trkpt lat="45.19637" lon="5.19034">
        <ele>474.6</ele>
        <time>2021-05-03T13:18:09Z</time>
      </trkpt>
      <trkpt lat="45.19636" lon="5.19043">
        <ele>474.9</ele>
        <time>2021-05-03T13:18:10Z</time>
      </trkpt>
      <trkpt lat="45.19636" lon="5.19051">
        <ele>475.1</ele>
        <time>2021-05-03T13:18:12Z</time>
      </trkpt>
      <trkpt lat="45.19635" lon="5.19059">
        <ele>475.3</ele>
        <time>2021-05-03T13:18:13Z</time>
      </trkpt>
      <trkpt lat="45.19635" lon="5.19065">
        <ele>475.5</ele>
        <time>2021-05-03T13:18:14Z</time>
      </trkpt>
      <trkpt lat="45.19633" lon="5.19073">
        <ele>475.7</ele>
        <time>2021-05-03T13:18:15Z</time>
      </trkpt>
      <trkpt lat="45.19632" lon="5.19081">
        <ele>475.9</ele>
        <time>2021-05-03T13:18:17Z</time>
      </trkpt>
      <trkpt lat="45.19632" lon="5.19087">
        <ele>476</ele>
        <time>2021-05-03T13:18:18Z</time>
      </trkpt>
      <trkpt lat="45.19631" lon="5.19093">
        <ele>476.2</ele>
        <time>2021-05-03T13:18:19Z</time>
      </trkpt>
      <trkpt lat="45.1963" lon="5.19102">
        <ele>476.4</ele>
        <time>2021-05-03T13:18:21Z</time>
      </trkpt>
      <trkpt lat="45.19629" lon="5.19108">
        <ele>476.6</ele>
        <time>2021-05-03T13:18:22Z</time>
      </trkpt>
      <trkpt lat="45.19628" lon="5.19116">
        <ele>476.8</ele>
        <time>2021-05-03T13:18:24Z</time>
      </trkpt>
      <trkpt lat="45.19628" lon="5.19121">
        <ele>476.9</ele>
        <time>2021-05-03T13:18:25Z</time>
      </trkpt>
      <trkpt lat="45.19627" lon="5.19129">
        <ele>477.1</ele>
        <time>2021-05-03T13:18:26Z</time>
      </trkpt>
      <trkpt lat="45.19626" lon="5.19136">
        <ele>477.3</ele>
        <time>2021-05-03T13:18:27Z</time>
      </trkpt>
      <trkpt lat="45.19626" lon="5.19142">
        <ele>477.5</ele>
        <time>2021-05-03T13:18:28Z</time>
      </trkpt>
      <trkpt lat="45.19625" lon="5.19149">
        <ele>477.7</ele>
        <time>2021-05-03T13:18:30Z</time>
      </trkpt>
      <trkpt lat="45.19625" lon="5.19157">
        <ele>477.8</ele>
        <time>2021-05-03T13:18:31Z</time>
      </trkpt>
      <trkpt lat="45.19624" lon="5.19164">
        <ele>478</ele>
        <time>2021-05-03T13:18:33Z</time>
      </trkpt>
      <trkpt lat="45.19623" lon="5.19171">
        <ele>478.2</ele>
        <time>2021-05-03T13:18:34Z</time>
      </trkpt>
      <trkpt lat="45.19622" lon="5.1918">
        <ele>478.5</ele>
        <time>2021-05-03T13:18:36Z</time>
      </trkpt>
      <trkpt lat="45.19621" lon="5.19185">
        <ele>478.6</ele>
        <time>2021-05-03T13:18:37Z</time>
      </trkpt>
      <trkpt lat="45.19621" lon="5.19191">
        <ele>478.8</ele>
        <time>2021-05-03T13:18:38Z</time>
      </trkpt>
      <trkpt lat="45.19621" lon="5.19197">
        <ele>479</ele>
        <time>2021-05-03T13:18:39Z</time>
      </trkpt>
      <trkpt lat="45.1962" lon="5.19207">
        <ele>479.3</ele>
        <time>2021-05-03T13:18:41Z</time>
      </trkpt>
      <trkpt lat="45.19619" lon="5.19213">
        <ele>479.4</ele>
        <time>2021-05-03T13:18:42Z</time>
      </trkpt>
      <trkpt lat="45.19619" lon="5.19218">
        <ele>479.6</ele>
        <time>2021-05-03T13:18:43Z</time>
      </trkpt>
      <trkpt lat="45.19618" lon="5.1923">
        <ele>479.9</ele>
        <time>2021-05-03T13:18:45Z</time>
      </trkpt>
      <trkpt lat="45.19618" lon="5.19236">
        <ele>480.1</ele>
        <time>2021-05-03T13:18:46Z</time>
      </trkpt>
      <trkpt lat="45.19617" lon="5.19243">
        <ele>480.3</ele>
        <time>2021-05-03T13:18:47Z</time>
      </trkpt>
      <trkpt lat="45.19616" lon="5.19249">
        <ele>480.5</ele>
        <time>2021-05-03T13:18:48Z</time>
      </trkpt>
      <trkpt lat="45.19616" lon="5.19255">
        <ele>480.6</ele>
        <time>2021-05-03T13:18:50Z</time>
      </trkpt>
      <trkpt lat="45.19615" lon="5.19263">
        <ele>480.8</ele>
        <time>2021-05-03T13:18:52Z</time>
      </trkpt>
      <trkpt lat="45.19615" lon="5.19268">
        <ele>481</ele>
        <time>2021-05-03T13:18:53Z</time>
      </trkpt>
      <trkpt lat="45.19615" lon="5.19278">
        <ele>481.2</ele>
        <time>2021-05-03T13:18:55Z</time>
      </trkpt>
      <trkpt lat="45.19614" lon="5.19284">
        <ele>481.3</ele>
        <time>2021-05-03T13:18:56Z</time>
      </trkpt>
      <trkpt lat="45.19614" lon="5.1929">
        <ele>481.4</ele>
        <time>2021-05-03T13:18:57Z</time>
      </trkpt>
      <trkpt lat="45.19614" lon="5.19298">
        <ele>481.5</ele>
        <time>2021-05-03T13:18:59Z</time>
      </trkpt>
      <trkpt lat="45.19614" lon="5.19303">
        <ele>481.6</ele>
        <time>2021-05-03T13:19:00Z</time>
      </trkpt>
      <trkpt lat="45.19613" lon="5.19308">
        <ele>481.7</ele>
        <time>2021-05-03T13:19:01Z</time>
      </trkpt>
      <trkpt lat="45.19613" lon="5.19314">
        <ele>481.8</ele>
        <time>2021-05-03T13:19:02Z</time>
      </trkpt>
      <trkpt lat="45.19613" lon="5.19323">
        <ele>482</ele>
        <time>2021-05-03T13:19:04Z</time>
      </trkpt>
      <trkpt lat="45.19612" lon="5.19332">
        <ele>482.1</ele>
        <time>2021-05-03T13:19:06Z</time>
      </trkpt>
      <trkpt lat="45.19612" lon="5.19339">
        <ele>482.2</ele>
        <time>2021-05-03T13:19:07Z</time>
      </trkpt>
      <trkpt lat="45.19612" lon="5.19349">
        <ele>482.4</ele>
        <time>2021-05-03T13:19:09Z</time>
      </trkpt>
      <trkpt lat="45.19612" lon="5.19356">
        <ele>482.5</ele>
        <time>2021-05-03T13:19:10Z</time>
      </trkpt>
      <trkpt lat="45.19612" lon="5.19364">
        <ele>482.6</ele>
        <time>2021-05-03T13:19:11Z</time>
      </trkpt>
      <trkpt lat="45.19612" lon="5.19372">
        <ele>482.7</ele>
        <time>2021-05-03T13:19:13Z</time>
      </trkpt>
      <trkpt lat="45.19612" lon="5.19379">
        <ele>482.8</ele>
        <time>2021-05-03T13:19:14Z</time>
      </trkpt>
      <trkpt lat="45.19612" lon="5.1939">
        <ele>482.9</ele>
        <time>2021-05-03T13:19:16Z</time>
      </trkpt>
      <trkpt lat="45.19611" lon="5.19397">
        <ele>483</ele>
        <time>2021-05-03T13:19:17Z</time>
      </trkpt>
      <trkpt lat="45.19611" lon="5.19407">
        <ele>483.1</ele>
        <time>2021-05-03T13:19:19Z</time>
      </trkpt>
      <trkpt lat="45.19611" lon="5.19414">
        <ele>483.1</ele>
        <time>2021-05-03T13:19:20Z</time>
      </trkpt>
      <trkpt lat="45.19611" lon="5.19422">
        <ele>483.2</ele>
        <time>2021-05-03T13:19:21Z</time>
      </trkpt>
      <trkpt lat="45.19611" lon="5.19434">
        <ele>483.4</ele>
        <time>2021-05-03T13:19:22Z</time>
      </trkpt>
      <trkpt lat="45.19611" lon="5.19442">
        <ele>483.5</ele>
        <time>2021-05-03T13:19:24Z</time>
      </trkpt>
      <trkpt lat="45.19611" lon="5.19452">
        <ele>483.6</ele>
        <time>2021-05-03T13:19:26Z</time>
      </trkpt>
      <trkpt lat="45.19611" lon="5.1946">
        <ele>483.7</ele>
        <time>2021-05-03T13:19:27Z</time>
      </trkpt>
      <trkpt lat="45.19611" lon="5.19466">
        <ele>483.8</ele>
        <time>2021-05-03T13:19:28Z</time>
      </trkpt>
      <trkpt lat="45.19611" lon="5.19473">
        <ele>483.8</ele>
        <time>2021-05-03T13:19:29Z</time>
      </trkpt>
      <trkpt lat="45.19611" lon="5.19481">
        <ele>483.9</ele>
        <time>2021-05-03T13:19:31Z</time>
      </trkpt>
      <trkpt lat="45.19611" lon="5.19487">
        <ele>484</ele>
        <time>2021-05-03T13:19:32Z</time>
      </trkpt>
      <trkpt lat="45.19611" lon="5.19493">
        <ele>484.1</ele>
        <time>2021-05-03T13:19:33Z</time>
      </trkpt>
      <trkpt lat="45.19611" lon="5.19499">
        <ele>484.1</ele>
        <time>2021-05-03T13:19:35Z</time>
      </trkpt>
      <trkpt lat="45.19611" lon="5.19511">
        <ele>484.3</ele>
        <time>2021-05-03T13:19:36Z</time>
      </trkpt>
      <trkpt lat="45.1961" lon="5.1952">
        <ele>484.4</ele>
        <time>2021-05-03T13:19:37Z</time>
      </trkpt>
      <trkpt lat="45.1961" lon="5.19529">
        <ele>484.5</ele>
        <time>2021-05-03T13:19:39Z</time>
      </trkpt>
      <trkpt lat="45.1961" lon="5.19537">
        <ele>484.7</ele>
        <time>2021-05-03T13:19:40Z</time>
      </trkpt>
      <trkpt lat="45.1961" lon="5.19549">
        <ele>484.9</ele>
        <time>2021-05-03T13:19:42Z</time>
      </trkpt>
      <trkpt lat="45.1961" lon="5.19558">
        <ele>485.1</ele>
        <time>2021-05-03T13:19:43Z</time>
      </trkpt>
      <trkpt lat="45.1961" lon="5.19565">
        <ele>485.2</ele>
        <time>2021-05-03T13:19:45Z</time>
      </trkpt>
      <trkpt lat="45.19609" lon="5.19571">
        <ele>485.4</ele>
        <time>2021-05-03T13:19:46Z</time>
      </trkpt>
      <trkpt lat="45.19609" lon="5.1958">
        <ele>485.6</ele>
        <time>2021-05-03T13:19:48Z</time>
      </trkpt>
      <trkpt lat="45.19609" lon="5.19587">
        <ele>485.7</ele>
        <time>2021-05-03T13:19:49Z</time>
      </trkpt>
      <trkpt lat="45.19609" lon="5.19596">
        <ele>485.9</ele>
        <time>2021-05-03T13:19:50Z</time>
      </trkpt>
      <trkpt lat="45.19609" lon="5.19602">
        <ele>486.1</ele>
        <time>2021-05-03T13:19:51Z</time>
      </trkpt>
      <trkpt lat="45.19608" lon="5.19608">
        <ele>486.2</ele>
        <time>2021-05-03T13:19:53Z</time>
      </trkpt>
      <trkpt lat="45.19608" lon="5.19614">
        <ele>486.4</ele>
        <time>2021-05-03T13:19:54Z</time>
      </trkpt>
      <trkpt lat="45.19608" lon="5.19625">
        <ele>486.6</ele>
        <time>2021-05-03T13:19:56Z</time>
      </trkpt>
      <trkpt lat="45.19608" lon="5.19636">
        <ele>486.8</ele>
        <time>2021-05-03T13:19:58Z</time>
      </trkpt>
      <trkpt lat="45.19608" lon="5.19642">
        <ele>486.9</ele>
        <time>2021-05-03T13:19:59Z</time>
      </trkpt>
      <trkpt lat="45.19607" lon="5.19653">
        <ele>487.2</ele>
        <time>2021-05-03T13:20:01Z</time>
      </trkpt>
      <trkpt lat="45.19607" lon="5.19658">
        <ele>487.3</ele>
        <time>2021-05-03T13:20:02Z</time>
      </trkpt>
      <trkpt lat="45.19607" lon="5.19666">
        <ele>487.5</ele>
        <time>2021-05-03T13:20:03Z</time>
      </trkpt>
      <trkpt lat="45.19607" lon="5.19674">
        <ele>487.7</ele>
        <time>2021-05-03T13:20:05Z</time>
      </trkpt>
      <trkpt lat="45.19607" lon="5.19679">
        <ele>487.8</ele>
        <time>2021-05-03T13:20:06Z</time>
      </trkpt>
      <trkpt lat="45.19607" lon="5.19687">
        <ele>488</ele>
        <time>2021-05-03T13:20:07Z</time>
      </trkpt>
      <trkpt lat="45.19607" lon="5.19694">
        <ele>488.1</ele>
        <time>2021-05-03T13:20:09Z</time>
      </trkpt>
      <trkpt lat="45.19607" lon="5.19703">
        <ele>488.4</ele>
        <time>2021-05-03T13:20:11Z</time>
      </trkpt>
      <trkpt lat="45.19608" lon="5.19709">
        <ele>488.5</ele>
        <time>2021-05-03T13:20:12Z</time>
      </trkpt>
      <trkpt lat="45.19609" lon="5.19716">
        <ele>488.7</ele>
        <time>2021-05-03T13:20:13Z</time>
      </trkpt>
      <trkpt lat="45.19609" lon="5.19724">
        <ele>488.8</ele>
        <time>2021-05-03T13:20:14Z</time>
      </trkpt>
      <trkpt lat="45.1961" lon="5.19733">
        <ele>489</ele>
        <time>2021-05-03T13:20:16Z</time>
      </trkpt>
      <trkpt lat="45.1961" lon="5.19739">
        <ele>489.1</ele>
        <time>2021-05-03T13:20:17Z</time>
      </trkpt>
      <trkpt lat="45.19611" lon="5.19744">
        <ele>489.2</ele>
        <time>2021-05-03T13:20:18Z</time>
      </trkpt>
      <trkpt lat="45.19612" lon="5.19752">
        <ele>489.3</ele>
        <time>2021-05-03T13:20:19Z</time>
      </trkpt>
      <trkpt lat="45.19613" lon="5.19759">
        <ele>489.5</ele>
        <time>2021-05-03T13:20:21Z</time>
      </trkpt>
      <trkpt lat="45.19613" lon="5.19764">
        <ele>489.6</ele>
        <time>2021-05-03T13:20:22Z</time>
      </trkpt>
      <trkpt lat="45.19614" lon="5.1977">
        <ele>489.7</ele>
        <time>2021-05-03T13:20:23Z</time>
      </trkpt>
      <trkpt lat="45.19616" lon="5.19779">
        <ele>489.8</ele>
        <time>2021-05-03T13:20:25Z</time>
      </trkpt>
      <trkpt lat="45.19617" lon="5.19785">
        <ele>489.9</ele>
        <time>2021-05-03T13:20:26Z</time>
      </trkpt>
      <trkpt lat="45.19618" lon="5.19796">
        <ele>490</ele>
        <time>2021-05-03T13:20:28Z</time>
      </trkpt>
      <trkpt lat="45.19618" lon="5.19804">
        <ele>490.1</ele>
        <time>2021-05-03T13:20:29Z</time>
      </trkpt>
      <trkpt lat="45.1962" lon="5.19815">
        <ele>490.2</ele>
        <time>2021-05-03T13:20:31Z</time>
      </trkpt>
      <trkpt lat="45.19621" lon="5.19821">
        <ele>490.3</ele>
        <time>2021-05-03T13:20:32Z</time>
      </trkpt>
      <trkpt lat="45.19623" lon="5.19829">
        <ele>490.4</ele>
        <time>2021-05-03T13:20:33Z</time>
      </trkpt>
      <trkpt lat="45.19624" lon="5.19838">
        <ele>490.6</ele>
        <time>2021-05-03T13:20:35Z</time>
      </trkpt>
      <trkpt lat="45.19625" lon="5.19843">
        <ele>490.7</ele>
        <time>2021-05-03T13:20:36Z</time>
      </trkpt>
      <trkpt lat="45.19625" lon="5.19849">
        <ele>490.7</ele>
        <time>2021-05-03T13:20:37Z</time>
      </trkpt>
      <trkpt lat="45.19626" lon="5.19855">
        <ele>490.8</ele>
        <time>2021-05-03T13:20:38Z</time>
      </trkpt>
      <trkpt lat="45.19627" lon="5.19862">
        <ele>490.9</ele>
        <time>2021-05-03T13:20:39Z</time>
      </trkpt>
      <trkpt lat="45.19628" lon="5.19871">
        <ele>491</ele>
        <time>2021-05-03T13:20:41Z</time>
      </trkpt>
      <trkpt lat="45.19628" lon="5.19878">
        <ele>491.1</ele>
        <time>2021-05-03T13:20:42Z</time>
      </trkpt>
      <trkpt lat="45.19629" lon="5.19884">
        <ele>491.1</ele>
        <time>2021-05-03T13:20:43Z</time>
      </trkpt>
      <trkpt lat="45.1963" lon="5.19892">
        <ele>491.2</ele>
        <time>2021-05-03T13:20:44Z</time>
      </trkpt>
      <trkpt lat="45.1963" lon="5.19899">
        <ele>491.3</ele>
        <time>2021-05-03T13:20:45Z</time>
      </trkpt>
      <trkpt lat="45.1963" lon="5.19907">
        <ele>491.4</ele>
        <time>2021-05-03T13:20:47Z</time>
      </trkpt>
      <trkpt lat="45.1963" lon="5.19914">
        <ele>491.4</ele>
        <time>2021-05-03T13:20:48Z</time>
      </trkpt>
      <trkpt lat="45.19629" lon="5.19921">
        <ele>491.5</ele>
        <time>2021-05-03T13:20:49Z</time>
      </trkpt>
      <trkpt lat="45.19629" lon="5.19931">
        <ele>491.7</ele>
        <time>2021-05-03T13:20:51Z</time>
      </trkpt>
      <trkpt lat="45.19628" lon="5.19943">
        <ele>491.8</ele>
        <time>2021-05-03T13:20:53Z</time>
      </trkpt>
      <trkpt lat="45.19628" lon="5.19955">
        <ele>492.1</ele>
        <time>2021-05-03T13:20:55Z</time>
      </trkpt>
      <trkpt lat="45.19628" lon="5.19964">
        <ele>492.2</ele>
        <time>2021-05-03T13:20:56Z</time>
      </trkpt>
      <trkpt lat="45.19628" lon="5.19971">
        <ele>492.3</ele>
        <time>2021-05-03T13:20:58Z</time>
      </trkpt>
      <trkpt lat="45.19628" lon="5.19976">
        <ele>492.4</ele>
        <time>2021-05-03T13:20:59Z</time>
      </trkpt>
      <trkpt lat="45.19628" lon="5.19985">
        <ele>492.4</ele>
        <time>2021-05-03T13:21:01Z</time>
      </trkpt>
      <trkpt lat="45.19628" lon="5.19989">
        <ele>492.3</ele>
        <time>2021-05-03T13:21:02Z</time>
      </trkpt>
      <trkpt lat="45.19628" lon="5.19991">
        <ele>492.2</ele>
        <time>2021-05-03T13:21:03Z</time>
      </trkpt>
      <trkpt lat="45.19628" lon="5.19993">
        <ele>492.1</ele>
        <time>2021-05-03T13:21:04Z</time>
      </trkpt>
      <trkpt lat="45.19628" lon="5.19995">
        <ele>492.1</ele>
        <time>2021-05-03T13:21:05Z</time>
      </trkpt>
      <trkpt lat="45.19629" lon="5.19998">
        <ele>491.9</ele>
        <time>2021-05-03T13:21:07Z</time>
      </trkpt>
      <trkpt lat="45.19629" lon="5.20003">
        <ele>491.7</ele>
        <time>2021-05-03T13:21:09Z</time>
      </trkpt>
      <trkpt lat="45.19629" lon="5.20007">
        <ele>491.6</ele>
        <time>2021-05-03T13:21:10Z</time>
      </trkpt>
      <trkpt lat="45.19628" lon="5.20014">
        <ele>491.3</ele>
        <time>2021-05-03T13:21:12Z</time>
      </trkpt>
      <trkpt lat="45.19628" lon="5.20019">
        <ele>491</ele>
        <time>2021-05-03T13:21:13Z</time>
      </trkpt>
      <trkpt lat="45.19628" lon="5.20025">
        <ele>490.8</ele>
        <time>2021-05-03T13:21:14Z</time>
      </trkpt>
      <trkpt lat="45.19628" lon="5.20034">
        <ele>490.4</ele>
        <time>2021-05-03T13:21:16Z</time>
      </trkpt>
      <trkpt lat="45.19628" lon="5.20042">
        <ele>490.1</ele>
        <time>2021-05-03T13:21:17Z</time>
      </trkpt>
      <trkpt lat="45.19627" lon="5.20051">
        <ele>489.7</ele>
        <time>2021-05-03T13:21:19Z</time>
      </trkpt>
      <trkpt lat="45.19627" lon="5.20056">
        <ele>489.5</ele>
        <time>2021-05-03T13:21:20Z</time>
      </trkpt>
      <trkpt lat="45.19627" lon="5.20061">
        <ele>489.3</ele>
        <time>2021-05-03T13:21:21Z</time>
      </trkpt>
      <trkpt lat="45.19627" lon="5.20062">
        <ele>489.2</ele>
        <time>2021-05-03T13:21:22Z</time>
      </trkpt>
      <trkpt lat="45.19627" lon="5.20066">
        <ele>489</ele>
        <time>2021-05-03T13:21:24Z</time>
      </trkpt>
      <trkpt lat="45.19627" lon="5.20068">
        <ele>489</ele>
        <time>2021-05-03T13:21:25Z</time>
      </trkpt>
      <trkpt lat="45.19627" lon="5.20069">
        <ele>488.9</ele>
        <time>2021-05-03T13:21:26Z</time>
      </trkpt>
      <trkpt lat="45.19627" lon="5.20067">
        <ele>488.8</ele>
        <time>2021-05-03T13:21:28Z</time>
      </trkpt>
      <trkpt lat="45.19627" lon="5.20067">
        <ele>488.8</ele>
        <time>2021-05-03T13:21:29Z</time>
      </trkpt>
      <trkpt lat="45.19627" lon="5.20067">
        <ele>488.8</ele>
        <time>2021-05-03T13:21:30Z</time>
      </trkpt>
      <trkpt lat="45.19627" lon="5.20066">
        <ele>488.8</ele>
        <time>2021-05-03T13:21:31Z</time>
      </trkpt>
      <trkpt lat="45.19627" lon="5.20066">
        <ele>488.8</ele>
        <time>2021-05-03T13:21:32Z</time>
      </trkpt>
      <trkpt lat="45.19627" lon="5.20066">
        <ele>488.8</ele>
        <time>2021-05-03T13:21:33Z</time>
      </trkpt>
      <trkpt lat="45.19627" lon="5.20066">
        <ele>488.8</ele>
        <time>2021-05-03T13:21:34Z</time>
      </trkpt>
      <trkpt lat="45.19627" lon="5.20066">
        <ele>488.8</ele>
        <time>2021-05-03T13:21:35Z</time>
      </trkpt>
      <trkpt lat="45.19627" lon="5.20066">
        <ele>488.8</ele>
        <time>2021-05-03T13:21:37Z</time>
      </trkpt>
      <trkpt lat="45.19629" lon="5.20063">
        <ele>488.6</ele>
        <time>2021-05-03T13:21:50Z</time>
      </trkpt>
      <trkpt lat="45.19629" lon="5.20063">
        <ele>488.6</ele>
        <time>2021-05-03T13:21:51Z</time>
      </trkpt>
      <trkpt lat="45.19629" lon="5.20063">
        <ele>488.6</ele>
        <time>2021-05-03T13:21:52Z</time>
      </trkpt>
      <trkpt lat="45.19629" lon="5.20063">
        <ele>488.6</ele>
        <time>2021-05-03T13:21:53Z</time>
      </trkpt>
      <trkpt lat="45.19629" lon="5.20063">
        <ele>488.6</ele>
        <time>2021-05-03T13:21:54Z</time>
      </trkpt>
      <trkpt lat="45.19629" lon="5.20063">
        <ele>488.6</ele>
        <time>2021-05-03T13:21:55Z</time>
      </trkpt>
      <trkpt lat="45.19629" lon="5.20064">
        <ele>488.6</ele>
        <time>2021-05-03T13:21:56Z</time>
      </trkpt>
      <trkpt lat="45.19629" lon="5.20064">
        <ele>488.6</ele>
        <time>2021-05-03T13:21:57Z</time>
      </trkpt>
      <trkpt lat="45.19629" lon="5.20064">
        <ele>488.6</ele>
        <time>2021-05-03T13:21:58Z</time>
      </trkpt>
      <trkpt lat="45.19629" lon="5.20064">
        <ele>488.5</ele>
        <time>2021-05-03T13:21:59Z</time>
      </trkpt>
      <trkpt lat="45.19629" lon="5.20064">
        <ele>488.5</ele>
        <time>2021-05-03T13:22:00Z</time>
      </trkpt>
      <trkpt lat="45.19629" lon="5.20064">
        <ele>488.5</ele>
        <time>2021-05-03T13:22:01Z</time>
      </trkpt>
      <trkpt lat="45.19629" lon="5.20064">
        <ele>488.5</ele>
        <time>2021-05-03T13:22:02Z</time>
      </trkpt>
      <trkpt lat="45.19629" lon="5.20064">
        <ele>488.5</ele>
        <time>2021-05-03T13:22:03Z</time>
      </trkpt>
      <trkpt lat="45.19629" lon="5.20064">
        <ele>488.5</ele>
        <time>2021-05-03T13:22:04Z</time>
      </trkpt>
      <trkpt lat="45.19629" lon="5.20064">
        <ele>488.5</ele>
        <time>2021-05-03T13:22:05Z</time>
      </trkpt>
      <trkpt lat="45.1963" lon="5.20064">
        <ele>488.5</ele>
        <time>2021-05-03T13:22:06Z</time>
      </trkpt>
      <trkpt lat="45.19631" lon="5.20064">
        <ele>488.4</ele>
        <time>2021-05-03T13:22:07Z</time>
      </trkpt>
      <trkpt lat="45.19631" lon="5.20068">
        <ele>488.3</ele>
        <time>2021-05-03T13:22:08Z</time>
      </trkpt>
      <trkpt lat="45.19631" lon="5.20072">
        <ele>488.1</ele>
        <time>2021-05-03T13:22:09Z</time>
      </trkpt>
      <trkpt lat="45.1963" lon="5.20076">
        <ele>488</ele>
        <time>2021-05-03T13:22:10Z</time>
      </trkpt>
      <trkpt lat="45.19631" lon="5.20082">
        <ele>487.7</ele>
        <time>2021-05-03T13:22:11Z</time>
      </trkpt>
      <trkpt lat="45.1963" lon="5.201">
        <ele>487.1</ele>
        <time>2021-05-03T13:22:13Z</time>
      </trkpt>
      <trkpt lat="45.19632" lon="5.20107">
        <ele>486.8</ele>
        <time>2021-05-03T13:22:14Z</time>
      </trkpt>
      <trkpt lat="45.19633" lon="5.20115">
        <ele>486.5</ele>
        <time>2021-05-03T13:22:15Z</time>
      </trkpt>
      <trkpt lat="45.19635" lon="5.20123">
        <ele>486.2</ele>
        <time>2021-05-03T13:22:16Z</time>
      </trkpt>
      <trkpt lat="45.19638" lon="5.20131">
        <ele>485.8</ele>
        <time>2021-05-03T13:22:17Z</time>
      </trkpt>
      <trkpt lat="45.19642" lon="5.20138">
        <ele>485.5</ele>
        <time>2021-05-03T13:22:18Z</time>
      </trkpt>
      <trkpt lat="45.19647" lon="5.20145">
        <ele>485.1</ele>
        <time>2021-05-03T13:22:19Z</time>
      </trkpt>
      <trkpt lat="45.19653" lon="5.20151">
        <ele>484.7</ele>
        <time>2021-05-03T13:22:20Z</time>
      </trkpt>
      <trkpt lat="45.19658" lon="5.20158">
        <ele>484.3</ele>
        <time>2021-05-03T13:22:21Z</time>
      </trkpt>
      <trkpt lat="45.19663" lon="5.20166">
        <ele>483.9</ele>
        <time>2021-05-03T13:22:22Z</time>
      </trkpt>
      <trkpt lat="45.19668" lon="5.20174">
        <ele>483.5</ele>
        <time>2021-05-03T13:22:23Z</time>
      </trkpt>
      <trkpt lat="45.19673" lon="5.20184">
        <ele>483.1</ele>
        <time>2021-05-03T13:22:24Z</time>
      </trkpt>
      <trkpt lat="45.19674" lon="5.20194">
        <ele>482.7</ele>
        <time>2021-05-03T13:22:25Z</time>
      </trkpt>
      <trkpt lat="45.1967" lon="5.20206">
        <ele>482.1</ele>
        <time>2021-05-03T13:22:26Z</time>
      </trkpt>
      <trkpt lat="45.19663" lon="5.20216">
        <ele>481.6</ele>
        <time>2021-05-03T13:22:27Z</time>
      </trkpt>
      <trkpt lat="45.19655" lon="5.20222">
        <ele>480.9</ele>
        <time>2021-05-03T13:22:28Z</time>
      </trkpt>
      <trkpt lat="45.19645" lon="5.20225">
        <ele>480.2</ele>
        <time>2021-05-03T13:22:29Z</time>
      </trkpt>
      <trkpt lat="45.19635" lon="5.20225">
        <ele>479.4</ele>
        <time>2021-05-03T13:22:30Z</time>
      </trkpt>
      <trkpt lat="45.19624" lon="5.20228">
        <ele>478.7</ele>
        <time>2021-05-03T13:22:31Z</time>
      </trkpt>
      <trkpt lat="45.19614" lon="5.2023">
        <ele>478</ele>
        <time>2021-05-03T13:22:32Z</time>
      </trkpt>
      <trkpt lat="45.19604" lon="5.20233">
        <ele>477.3</ele>
        <time>2021-05-03T13:22:33Z</time>
      </trkpt>
      <trkpt lat="45.19596" lon="5.20239">
        <ele>476.6</ele>
        <time>2021-05-03T13:22:34Z</time>
      </trkpt>
      <trkpt lat="45.19588" lon="5.20248">
        <ele>475.9</ele>
        <time>2021-05-03T13:22:35Z</time>
      </trkpt>
      <trkpt lat="45.19582" lon="5.2026">
        <ele>475.2</ele>
        <time>2021-05-03T13:22:36Z</time>
      </trkpt>
      <trkpt lat="45.19577" lon="5.20272">
        <ele>474.5</ele>
        <time>2021-05-03T13:22:37Z</time>
      </trkpt>
      <trkpt lat="45.19573" lon="5.20285">
        <ele>473.8</ele>
        <time>2021-05-03T13:22:38Z</time>
      </trkpt>
      <trkpt lat="45.19568" lon="5.20298">
        <ele>473</ele>
        <time>2021-05-03T13:22:39Z</time>
      </trkpt>
      <trkpt lat="45.19563" lon="5.2031">
        <ele>472.3</ele>
        <time>2021-05-03T13:22:40Z</time>
      </trkpt>
      <trkpt lat="45.19557" lon="5.20323">
        <ele>471.5</ele>
        <time>2021-05-03T13:22:41Z</time>
      </trkpt>
      <trkpt lat="45.19552" lon="5.20335">
        <ele>470.8</ele>
        <time>2021-05-03T13:22:42Z</time>
      </trkpt>
      <trkpt lat="45.19547" lon="5.20348">
        <ele>470.1</ele>
        <time>2021-05-03T13:22:43Z</time>
      </trkpt>
      <trkpt lat="45.19543" lon="5.20362">
        <ele>469.5</ele>
        <time>2021-05-03T13:22:44Z</time>
      </trkpt>
      <trkpt lat="45.1954" lon="5.20376">
        <ele>468.8</ele>
        <time>2021-05-03T13:22:45Z</time>
      </trkpt>
      <trkpt lat="45.19538" lon="5.2039">
        <ele>468.1</ele>
        <time>2021-05-03T13:22:46Z</time>
      </trkpt>
      <trkpt lat="45.19537" lon="5.20405">
        <ele>467.5</ele>
        <time>2021-05-03T13:22:47Z</time>
      </trkpt>
      <trkpt lat="45.19536" lon="5.2042">
        <ele>466.9</ele>
        <time>2021-05-03T13:22:48Z</time>
      </trkpt>
      <trkpt lat="45.19536" lon="5.20435">
        <ele>466.2</ele>
        <time>2021-05-03T13:22:49Z</time>
      </trkpt>
      <trkpt lat="45.19536" lon="5.20451">
        <ele>465.6</ele>
        <time>2021-05-03T13:22:50Z</time>
      </trkpt>
      <trkpt lat="45.19535" lon="5.20466">
        <ele>464.9</ele>
        <time>2021-05-03T13:22:51Z</time>
      </trkpt>
      <trkpt lat="45.19533" lon="5.2048">
        <ele>464.3</ele>
        <time>2021-05-03T13:22:52Z</time>
      </trkpt>
      <trkpt lat="45.19531" lon="5.20495">
        <ele>463.7</ele>
        <time>2021-05-03T13:22:53Z</time>
      </trkpt>
      <trkpt lat="45.19527" lon="5.20509">
        <ele>463.1</ele>
        <time>2021-05-03T13:22:54Z</time>
      </trkpt>
      <trkpt lat="45.19522" lon="5.20523">
        <ele>462.4</ele>
        <time>2021-05-03T13:22:55Z</time>
      </trkpt>
      <trkpt lat="45.19518" lon="5.20536">
        <ele>461.7</ele>
        <time>2021-05-03T13:22:56Z</time>
      </trkpt>
      <trkpt lat="45.19513" lon="5.20549">
        <ele>461.1</ele>
        <time>2021-05-03T13:22:57Z</time>
      </trkpt>
      <trkpt lat="45.19507" lon="5.20561">
        <ele>460.4</ele>
        <time>2021-05-03T13:22:58Z</time>
      </trkpt>
      <trkpt lat="45.19501" lon="5.20572">
        <ele>459.6</ele>
        <time>2021-05-03T13:22:59Z</time>
      </trkpt>
      <trkpt lat="45.19493" lon="5.20581">
        <ele>458.7</ele>
        <time>2021-05-03T13:23:00Z</time>
      </trkpt>
      <trkpt lat="45.19484" lon="5.20589">
        <ele>457.9</ele>
        <time>2021-05-03T13:23:01Z</time>
      </trkpt>
      <trkpt lat="45.19474" lon="5.20597">
        <ele>457</ele>
        <time>2021-05-03T13:23:02Z</time>
      </trkpt>
      <trkpt lat="45.19465" lon="5.20605">
        <ele>456.1</ele>
        <time>2021-05-03T13:23:03Z</time>
      </trkpt>
      <trkpt lat="45.19456" lon="5.20613">
        <ele>455.3</ele>
        <time>2021-05-03T13:23:04Z</time>
      </trkpt>
      <trkpt lat="45.19446" lon="5.2062">
        <ele>454.8</ele>
        <time>2021-05-03T13:23:05Z</time>
      </trkpt>
      <trkpt lat="45.19435" lon="5.20625">
        <ele>454.2</ele>
        <time>2021-05-03T13:23:06Z</time>
      </trkpt>
      <trkpt lat="45.19425" lon="5.20629">
        <ele>453.7</ele>
        <time>2021-05-03T13:23:07Z</time>
      </trkpt>
      <trkpt lat="45.19414" lon="5.20632">
        <ele>453.2</ele>
        <time>2021-05-03T13:23:08Z</time>
      </trkpt>
      <trkpt lat="45.19402" lon="5.20635">
        <ele>452.7</ele>
        <time>2021-05-03T13:23:09Z</time>
      </trkpt>
      <trkpt lat="45.19391" lon="5.20637">
        <ele>452.2</ele>
        <time>2021-05-03T13:23:10Z</time>
      </trkpt>
      <trkpt lat="45.19381" lon="5.2064">
        <ele>451.7</ele>
        <time>2021-05-03T13:23:11Z</time>
      </trkpt>
      <trkpt lat="45.19371" lon="5.20644">
        <ele>451.3</ele>
        <time>2021-05-03T13:23:12Z</time>
      </trkpt>
      <trkpt lat="45.1936" lon="5.20646">
        <ele>450.9</ele>
        <time>2021-05-03T13:23:13Z</time>
      </trkpt>
      <trkpt lat="45.19349" lon="5.20649">
        <ele>450.4</ele>
        <time>2021-05-03T13:23:14Z</time>
      </trkpt>
      <trkpt lat="45.19339" lon="5.20652">
        <ele>450</ele>
        <time>2021-05-03T13:23:15Z</time>
      </trkpt>
      <trkpt lat="45.19328" lon="5.20656">
        <ele>449.6</ele>
        <time>2021-05-03T13:23:16Z</time>
      </trkpt>
      <trkpt lat="45.19316" lon="5.20659">
        <ele>449</ele>
        <time>2021-05-03T13:23:17Z</time>
      </trkpt>
      <trkpt lat="45.19305" lon="5.20663">
        <ele>448.5</ele>
        <time>2021-05-03T13:23:18Z</time>
      </trkpt>
      <trkpt lat="45.19294" lon="5.20667">
        <ele>448</ele>
        <time>2021-05-03T13:23:19Z</time>
      </trkpt>
      <trkpt lat="45.19283" lon="5.20671">
        <ele>447.5</ele>
        <time>2021-05-03T13:23:20Z</time>
      </trkpt>
      <trkpt lat="45.19273" lon="5.20676">
        <ele>447</ele>
        <time>2021-05-03T13:23:21Z</time>
      </trkpt>
      <trkpt lat="45.19263" lon="5.20681">
        <ele>446.6</ele>
        <time>2021-05-03T13:23:22Z</time>
      </trkpt>
      <trkpt lat="45.19254" lon="5.20688">
        <ele>446.1</ele>
        <time>2021-05-03T13:23:23Z</time>
      </trkpt>
      <trkpt lat="45.19245" lon="5.20695">
        <ele>445.6</ele>
        <time>2021-05-03T13:23:24Z</time>
      </trkpt>
      <trkpt lat="45.19237" lon="5.20703">
        <ele>445.2</ele>
        <time>2021-05-03T13:23:25Z</time>
      </trkpt>
      <trkpt lat="45.19228" lon="5.20712">
        <ele>444.8</ele>
        <time>2021-05-03T13:23:26Z</time>
      </trkpt>
      <trkpt lat="45.1922" lon="5.20721">
        <ele>444.3</ele>
        <time>2021-05-03T13:23:27Z</time>
      </trkpt>
      <trkpt lat="45.19211" lon="5.20729">
        <ele>443.8</ele>
        <time>2021-05-03T13:23:28Z</time>
      </trkpt>
      <trkpt lat="45.19202" lon="5.20738">
        <ele>443.4</ele>
        <time>2021-05-03T13:23:29Z</time>
      </trkpt>
      <trkpt lat="45.19193" lon="5.20746">
        <ele>443</ele>
        <time>2021-05-03T13:23:30Z</time>
      </trkpt>
      <trkpt lat="45.19185" lon="5.20755">
        <ele>442.5</ele>
        <time>2021-05-03T13:23:31Z</time>
      </trkpt>
      <trkpt lat="45.19176" lon="5.20764">
        <ele>442.1</ele>
        <time>2021-05-03T13:23:32Z</time>
      </trkpt>
      <trkpt lat="45.19167" lon="5.20772">
        <ele>441.7</ele>
        <time>2021-05-03T13:23:33Z</time>
      </trkpt>
      <trkpt lat="45.19159" lon="5.20781">
        <ele>441.3</ele>
        <time>2021-05-03T13:23:34Z</time>
      </trkpt>
      <trkpt lat="45.1915" lon="5.20789">
        <ele>440.9</ele>
        <time>2021-05-03T13:23:35Z</time>
      </trkpt>
      <trkpt lat="45.19141" lon="5.20797">
        <ele>440.6</ele>
        <time>2021-05-03T13:23:36Z</time>
      </trkpt>
      <trkpt lat="45.19132" lon="5.20806">
        <ele>440.3</ele>
        <time>2021-05-03T13:23:37Z</time>
      </trkpt>
      <trkpt lat="45.19123" lon="5.20815">
        <ele>439.9</ele>
        <time>2021-05-03T13:23:38Z</time>
      </trkpt>
      <trkpt lat="45.19115" lon="5.20824">
        <ele>439.6</ele>
        <time>2021-05-03T13:23:39Z</time>
      </trkpt>
      <trkpt lat="45.19107" lon="5.20835">
        <ele>439.3</ele>
        <time>2021-05-03T13:23:40Z</time>
      </trkpt>
      <trkpt lat="45.191" lon="5.20847">
        <ele>439</ele>
        <time>2021-05-03T13:23:41Z</time>
      </trkpt>
      <trkpt lat="45.19094" lon="5.20859">
        <ele>438.7</ele>
        <time>2021-05-03T13:23:42Z</time>
      </trkpt>
      <trkpt lat="45.19089" lon="5.20871">
        <ele>438.4</ele>
        <time>2021-05-03T13:23:43Z</time>
      </trkpt>
      <trkpt lat="45.19084" lon="5.20884">
        <ele>438.1</ele>
        <time>2021-05-03T13:23:44Z</time>
      </trkpt>
      <trkpt lat="45.1908" lon="5.20897">
        <ele>437.7</ele>
        <time>2021-05-03T13:23:45Z</time>
      </trkpt>
      <trkpt lat="45.19075" lon="5.2091">
        <ele>437.4</ele>
        <time>2021-05-03T13:23:46Z</time>
      </trkpt>
      <trkpt lat="45.19071" lon="5.20923">
        <ele>437.1</ele>
        <time>2021-05-03T13:23:47Z</time>
      </trkpt>
      <trkpt lat="45.19067" lon="5.20935">
        <ele>436.7</ele>
        <time>2021-05-03T13:23:48Z</time>
      </trkpt>
      <trkpt lat="45.19063" lon="5.20948">
        <ele>436.4</ele>
        <time>2021-05-03T13:23:49Z</time>
      </trkpt>
      <trkpt lat="45.19058" lon="5.2096">
        <ele>436</ele>
        <time>2021-05-03T13:23:50Z</time>
      </trkpt>
      <trkpt lat="45.19053" lon="5.20973">
        <ele>435.6</ele>
        <time>2021-05-03T13:23:51Z</time>
      </trkpt>
      <trkpt lat="45.19048" lon="5.20985">
        <ele>435</ele>
        <time>2021-05-03T13:23:52Z</time>
      </trkpt>
      <trkpt lat="45.19041" lon="5.20995">
        <ele>434.4</ele>
        <time>2021-05-03T13:23:53Z</time>
      </trkpt>
      <trkpt lat="45.19033" lon="5.21004">
        <ele>433.8</ele>
        <time>2021-05-03T13:23:54Z</time>
      </trkpt>
      <trkpt lat="45.19025" lon="5.21013">
        <ele>433.1</ele>
        <time>2021-05-03T13:23:55Z</time>
      </trkpt>
      <trkpt lat="45.19015" lon="5.21021">
        <ele>432.5</ele>
        <time>2021-05-03T13:23:56Z</time>
      </trkpt>
      <trkpt lat="45.19006" lon="5.2103">
        <ele>431.8</ele>
        <time>2021-05-03T13:23:57Z</time>
      </trkpt>
      <trkpt lat="45.18997" lon="5.21039">
        <ele>431.1</ele>
        <time>2021-05-03T13:23:58Z</time>
      </trkpt>
      <trkpt lat="45.18988" lon="5.21048">
        <ele>430.5</ele>
        <time>2021-05-03T13:23:59Z</time>
      </trkpt>
      <trkpt lat="45.18979" lon="5.21058">
        <ele>429.9</ele>
        <time>2021-05-03T13:24:00Z</time>
      </trkpt>
      <trkpt lat="45.1897" lon="5.21068">
        <ele>429.2</ele>
        <time>2021-05-03T13:24:01Z</time>
      </trkpt>
      <trkpt lat="45.18961" lon="5.21077">
        <ele>428.5</ele>
        <time>2021-05-03T13:24:02Z</time>
      </trkpt>
      <trkpt lat="45.18952" lon="5.21084">
        <ele>427.9</ele>
        <time>2021-05-03T13:24:03Z</time>
      </trkpt>
      <trkpt lat="45.18942" lon="5.2109">
        <ele>427.2</ele>
        <time>2021-05-03T13:24:04Z</time>
      </trkpt>
      <trkpt lat="45.18931" lon="5.21095">
        <ele>426.4</ele>
        <time>2021-05-03T13:24:05Z</time>
      </trkpt>
      <trkpt lat="45.1892" lon="5.211">
        <ele>425.7</ele>
        <time>2021-05-03T13:24:06Z</time>
      </trkpt>
      <trkpt lat="45.18909" lon="5.21104">
        <ele>424.9</ele>
        <time>2021-05-03T13:24:07Z</time>
      </trkpt>
      <trkpt lat="45.18898" lon="5.21109">
        <ele>424.2</ele>
        <time>2021-05-03T13:24:08Z</time>
      </trkpt>
      <trkpt lat="45.18887" lon="5.21113">
        <ele>423.5</ele>
        <time>2021-05-03T13:24:09Z</time>
      </trkpt>
      <trkpt lat="45.18875" lon="5.21118">
        <ele>422.7</ele>
        <time>2021-05-03T13:24:10Z</time>
      </trkpt>
      <trkpt lat="45.18863" lon="5.21122">
        <ele>422</ele>
        <time>2021-05-03T13:24:11Z</time>
      </trkpt>
      <trkpt lat="45.18851" lon="5.21127">
        <ele>421.2</ele>
        <time>2021-05-03T13:24:12Z</time>
      </trkpt>
      <trkpt lat="45.1884" lon="5.2113">
        <ele>420.4</ele>
        <time>2021-05-03T13:24:13Z</time>
      </trkpt>
      <trkpt lat="45.18829" lon="5.21133">
        <ele>419.6</ele>
        <time>2021-05-03T13:24:14Z</time>
      </trkpt>
      <trkpt lat="45.18817" lon="5.21135">
        <ele>418.8</ele>
        <time>2021-05-03T13:24:15Z</time>
      </trkpt>
      <trkpt lat="45.18804" lon="5.21137">
        <ele>418</ele>
        <time>2021-05-03T13:24:16Z</time>
      </trkpt>
      <trkpt lat="45.18792" lon="5.2114">
        <ele>417.1</ele>
        <time>2021-05-03T13:24:17Z</time>
      </trkpt>
      <trkpt lat="45.18781" lon="5.21143">
        <ele>416.3</ele>
        <time>2021-05-03T13:24:18Z</time>
      </trkpt>
      <trkpt lat="45.1877" lon="5.21145">
        <ele>415.5</ele>
        <time>2021-05-03T13:24:19Z</time>
      </trkpt>
      <trkpt lat="45.18759" lon="5.21148">
        <ele>414.7</ele>
        <time>2021-05-03T13:24:20Z</time>
      </trkpt>
      <trkpt lat="45.18747" lon="5.21151">
        <ele>414</ele>
        <time>2021-05-03T13:24:21Z</time>
      </trkpt>
      <trkpt lat="45.18736" lon="5.21155">
        <ele>413.3</ele>
        <time>2021-05-03T13:24:22Z</time>
      </trkpt>
      <trkpt lat="45.18724" lon="5.21159">
        <ele>412.5</ele>
        <time>2021-05-03T13:24:23Z</time>
      </trkpt>
      <trkpt lat="45.18714" lon="5.21166">
        <ele>411.7</ele>
        <time>2021-05-03T13:24:24Z</time>
      </trkpt>
      <trkpt lat="45.18702" lon="5.21173">
        <ele>410.9</ele>
        <time>2021-05-03T13:24:25Z</time>
      </trkpt>
      <trkpt lat="45.18691" lon="5.21179">
        <ele>410.1</ele>
        <time>2021-05-03T13:24:26Z</time>
      </trkpt>
      <trkpt lat="45.18681" lon="5.21185">
        <ele>409.4</ele>
        <time>2021-05-03T13:24:27Z</time>
      </trkpt>
      <trkpt lat="45.1867" lon="5.21192">
        <ele>408.6</ele>
        <time>2021-05-03T13:24:28Z</time>
      </trkpt>
      <trkpt lat="45.1866" lon="5.21198">
        <ele>407.9</ele>
        <time>2021-05-03T13:24:29Z</time>
      </trkpt>
      <trkpt lat="45.18649" lon="5.21205">
        <ele>407.2</ele>
        <time>2021-05-03T13:24:30Z</time>
      </trkpt>
      <trkpt lat="45.18638" lon="5.21211">
        <ele>406.5</ele>
        <time>2021-05-03T13:24:31Z</time>
      </trkpt>
      <trkpt lat="45.18628" lon="5.21217">
        <ele>405.9</ele>
        <time>2021-05-03T13:24:32Z</time>
      </trkpt>
      <trkpt lat="45.18618" lon="5.21223">
        <ele>405.2</ele>
        <time>2021-05-03T13:24:33Z</time>
      </trkpt>
      <trkpt lat="45.18607" lon="5.2123">
        <ele>404.4</ele>
        <time>2021-05-03T13:24:34Z</time>
      </trkpt>
      <trkpt lat="45.18596" lon="5.21236">
        <ele>403.7</ele>
        <time>2021-05-03T13:24:35Z</time>
      </trkpt>
      <trkpt lat="45.18586" lon="5.21243">
        <ele>402.9</ele>
        <time>2021-05-03T13:24:36Z</time>
      </trkpt>
      <trkpt lat="45.18574" lon="5.21249">
        <ele>402.2</ele>
        <time>2021-05-03T13:24:37Z</time>
      </trkpt>
      <trkpt lat="45.18564" lon="5.21256">
        <ele>401.5</ele>
        <time>2021-05-03T13:24:38Z</time>
      </trkpt>
      <trkpt lat="45.18552" lon="5.21262">
        <ele>400.8</ele>
        <time>2021-05-03T13:24:39Z</time>
      </trkpt>
      <trkpt lat="45.18541" lon="5.21268">
        <ele>400</ele>
        <time>2021-05-03T13:24:40Z</time>
      </trkpt>
      <trkpt lat="45.1853" lon="5.21274">
        <ele>399.3</ele>
        <time>2021-05-03T13:24:41Z</time>
      </trkpt>
      <trkpt lat="45.18519" lon="5.2128">
        <ele>398.5</ele>
        <time>2021-05-03T13:24:42Z</time>
      </trkpt>
      <trkpt lat="45.18508" lon="5.21287">
        <ele>397.8</ele>
        <time>2021-05-03T13:24:43Z</time>
      </trkpt>
      <trkpt lat="45.18497" lon="5.21294">
        <ele>397</ele>
        <time>2021-05-03T13:24:44Z</time>
      </trkpt>
      <trkpt lat="45.18486" lon="5.213">
        <ele>396.3</ele>
        <time>2021-05-03T13:24:45Z</time>
      </trkpt>
      <trkpt lat="45.18475" lon="5.21307">
        <ele>395.6</ele>
        <time>2021-05-03T13:24:46Z</time>
      </trkpt>
      <trkpt lat="45.18463" lon="5.21313">
        <ele>394.8</ele>
        <time>2021-05-03T13:24:47Z</time>
      </trkpt>
      <trkpt lat="45.18451" lon="5.2132">
        <ele>394</ele>
        <time>2021-05-03T13:24:48Z</time>
      </trkpt>
      <trkpt lat="45.1844" lon="5.21326">
        <ele>393.2</ele>
        <time>2021-05-03T13:24:49Z</time>
      </trkpt>
      <trkpt lat="45.18428" lon="5.21332">
        <ele>392.5</ele>
        <time>2021-05-03T13:24:50Z</time>
      </trkpt>
      <trkpt lat="45.18417" lon="5.21339">
        <ele>391.7</ele>
        <time>2021-05-03T13:24:51Z</time>
      </trkpt>
      <trkpt lat="45.18405" lon="5.21346">
        <ele>390.9</ele>
        <time>2021-05-03T13:24:52Z</time>
      </trkpt>
      <trkpt lat="45.18394" lon="5.21353">
        <ele>390.1</ele>
        <time>2021-05-03T13:24:53Z</time>
      </trkpt>
      <trkpt lat="45.18383" lon="5.21359">
        <ele>389.4</ele>
        <time>2021-05-03T13:24:54Z</time>
      </trkpt>
      <trkpt lat="45.18371" lon="5.21366">
        <ele>388.6</ele>
        <time>2021-05-03T13:24:55Z</time>
      </trkpt>
      <trkpt lat="45.1836" lon="5.21373">
        <ele>387.8</ele>
        <time>2021-05-03T13:24:56Z</time>
      </trkpt>
      <trkpt lat="45.18348" lon="5.21379">
        <ele>387</ele>
        <time>2021-05-03T13:24:57Z</time>
      </trkpt>
      <trkpt lat="45.18337" lon="5.21386">
        <ele>386.2</ele>
        <time>2021-05-03T13:24:58Z</time>
      </trkpt>
      <trkpt lat="45.18326" lon="5.21392">
        <ele>385.4</ele>
        <time>2021-05-03T13:24:59Z</time>
      </trkpt>
      <trkpt lat="45.18314" lon="5.21398">
        <ele>384.6</ele>
        <time>2021-05-03T13:25:00Z</time>
      </trkpt>
      <trkpt lat="45.18302" lon="5.21403">
        <ele>383.9</ele>
        <time>2021-05-03T13:25:01Z</time>
      </trkpt>
      <trkpt lat="45.1829" lon="5.21408">
        <ele>383.1</ele>
        <time>2021-05-03T13:25:02Z</time>
      </trkpt>
      <trkpt lat="45.18278" lon="5.21413">
        <ele>382.3</ele>
        <time>2021-05-03T13:25:03Z</time>
      </trkpt>
      <trkpt lat="45.18265" lon="5.21417">
        <ele>381.6</ele>
        <time>2021-05-03T13:25:04Z</time>
      </trkpt>
      <trkpt lat="45.18253" lon="5.21422">
        <ele>380.8</ele>
        <time>2021-05-03T13:25:05Z</time>
      </trkpt>
      <trkpt lat="45.18241" lon="5.21426">
        <ele>380</ele>
        <time>2021-05-03T13:25:06Z</time>
      </trkpt>
      <trkpt lat="45.18228" lon="5.2143">
        <ele>379.2</ele>
        <time>2021-05-03T13:25:07Z</time>
      </trkpt>
      <trkpt lat="45.18215" lon="5.21432">
        <ele>378.5</ele>
        <time>2021-05-03T13:25:08Z</time>
      </trkpt>
      <trkpt lat="45.18202" lon="5.21432">
        <ele>377.7</ele>
        <time>2021-05-03T13:25:09Z</time>
      </trkpt>
      <trkpt lat="45.18189" lon="5.2143">
        <ele>376.9</ele>
        <time>2021-05-03T13:25:10Z</time>
      </trkpt>
      <trkpt lat="45.18176" lon="5.21427">
        <ele>376.2</ele>
        <time>2021-05-03T13:25:11Z</time>
      </trkpt>
      <trkpt lat="45.18163" lon="5.21424">
        <ele>375.5</ele>
        <time>2021-05-03T13:25:12Z</time>
      </trkpt>
      <trkpt lat="45.1815" lon="5.21421">
        <ele>374.9</ele>
        <time>2021-05-03T13:25:13Z</time>
      </trkpt>
      <trkpt lat="45.18138" lon="5.21418">
        <ele>374.3</ele>
        <time>2021-05-03T13:25:14Z</time>
      </trkpt>
      <trkpt lat="45.18126" lon="5.21416">
        <ele>373.8</ele>
        <time>2021-05-03T13:25:15Z</time>
      </trkpt>
      <trkpt lat="45.18114" lon="5.21415">
        <ele>373.4</ele>
        <time>2021-05-03T13:25:16Z</time>
      </trkpt>
      <trkpt lat="45.18102" lon="5.21414">
        <ele>372.9</ele>
        <time>2021-05-03T13:25:17Z</time>
      </trkpt>
      <trkpt lat="45.1809" lon="5.21416">
        <ele>372.4</ele>
        <time>2021-05-03T13:25:18Z</time>
      </trkpt>
      <trkpt lat="45.18078" lon="5.21418">
        <ele>371.8</ele>
        <time>2021-05-03T13:25:19Z</time>
      </trkpt>
      <trkpt lat="45.18066" lon="5.21421">
        <ele>371.2</ele>
        <time>2021-05-03T13:25:20Z</time>
      </trkpt>
      <trkpt lat="45.18054" lon="5.21424">
        <ele>370.6</ele>
        <time>2021-05-03T13:25:21Z</time>
      </trkpt>
      <trkpt lat="45.18041" lon="5.21426">
        <ele>370</ele>
        <time>2021-05-03T13:25:22Z</time>
      </trkpt>
      <trkpt lat="45.1803" lon="5.21427">
        <ele>369.5</ele>
        <time>2021-05-03T13:25:23Z</time>
      </trkpt>
      <trkpt lat="45.18018" lon="5.21425">
        <ele>369</ele>
        <time>2021-05-03T13:25:24Z</time>
      </trkpt>
      <trkpt lat="45.18007" lon="5.21422">
        <ele>368.5</ele>
        <time>2021-05-03T13:25:25Z</time>
      </trkpt>
      <trkpt lat="45.17996" lon="5.21416">
        <ele>368</ele>
        <time>2021-05-03T13:25:26Z</time>
      </trkpt>
      <trkpt lat="45.17986" lon="5.21409">
        <ele>367.6</ele>
        <time>2021-05-03T13:25:27Z</time>
      </trkpt>
      <trkpt lat="45.17976" lon="5.21402">
        <ele>367.1</ele>
        <time>2021-05-03T13:25:28Z</time>
      </trkpt>
      <trkpt lat="45.17967" lon="5.21394">
        <ele>366.7</ele>
        <time>2021-05-03T13:25:29Z</time>
      </trkpt>
      <trkpt lat="45.17958" lon="5.21386">
        <ele>366.3</ele>
        <time>2021-05-03T13:25:30Z</time>
      </trkpt>
      <trkpt lat="45.17948" lon="5.21378">
        <ele>365.9</ele>
        <time>2021-05-03T13:25:31Z</time>
      </trkpt>
      <trkpt lat="45.17939" lon="5.2137">
        <ele>365.4</ele>
        <time>2021-05-03T13:25:32Z</time>
      </trkpt>
      <trkpt lat="45.17931" lon="5.21362">
        <ele>365</ele>
        <time>2021-05-03T13:25:33Z</time>
      </trkpt>
      <trkpt lat="45.17922" lon="5.21354">
        <ele>364.5</ele>
        <time>2021-05-03T13:25:34Z</time>
      </trkpt>
      <trkpt lat="45.17913" lon="5.21348">
        <ele>364.1</ele>
        <time>2021-05-03T13:25:35Z</time>
      </trkpt>
      <trkpt lat="45.17903" lon="5.21343">
        <ele>363.6</ele>
        <time>2021-05-03T13:25:36Z</time>
      </trkpt>
      <trkpt lat="45.17893" lon="5.21342">
        <ele>363.2</ele>
        <time>2021-05-03T13:25:37Z</time>
      </trkpt>
      <trkpt lat="45.17882" lon="5.21343">
        <ele>362.7</ele>
        <time>2021-05-03T13:25:38Z</time>
      </trkpt>
      <trkpt lat="45.17872" lon="5.21346">
        <ele>362.3</ele>
        <time>2021-05-03T13:25:39Z</time>
      </trkpt>
      <trkpt lat="45.17861" lon="5.2135">
        <ele>361.8</ele>
        <time>2021-05-03T13:25:40Z</time>
      </trkpt>
      <trkpt lat="45.17851" lon="5.21355">
        <ele>361.5</ele>
        <time>2021-05-03T13:25:41Z</time>
      </trkpt>
      <trkpt lat="45.1784" lon="5.21359">
        <ele>361.2</ele>
        <time>2021-05-03T13:25:42Z</time>
      </trkpt>
      <trkpt lat="45.17828" lon="5.21361">
        <ele>360.9</ele>
        <time>2021-05-03T13:25:43Z</time>
      </trkpt>
      <trkpt lat="45.17817" lon="5.21363">
        <ele>360.8</ele>
        <time>2021-05-03T13:25:44Z</time>
      </trkpt>
      <trkpt lat="45.17807" lon="5.21364">
        <ele>360.7</ele>
        <time>2021-05-03T13:25:45Z</time>
      </trkpt>
      <trkpt lat="45.17797" lon="5.21366">
        <ele>360.7</ele>
        <time>2021-05-03T13:25:46Z</time>
      </trkpt>
      <trkpt lat="45.17787" lon="5.21367">
        <ele>360.6</ele>
        <time>2021-05-03T13:25:47Z</time>
      </trkpt>
      <trkpt lat="45.17777" lon="5.21368">
        <ele>360.7</ele>
        <time>2021-05-03T13:25:48Z</time>
      </trkpt>
      <trkpt lat="45.17768" lon="5.21369">
        <ele>360.7</ele>
        <time>2021-05-03T13:25:49Z</time>
      </trkpt>
      <trkpt lat="45.1776" lon="5.21372">
        <ele>360.7</ele>
        <time>2021-05-03T13:25:50Z</time>
      </trkpt>
      <trkpt lat="45.17752" lon="5.21377">
        <ele>360.7</ele>
        <time>2021-05-03T13:25:51Z</time>
      </trkpt>
      <trkpt lat="45.17745" lon="5.21384">
        <ele>360.7</ele>
        <time>2021-05-03T13:25:52Z</time>
      </trkpt>
      <trkpt lat="45.1774" lon="5.21392">
        <ele>360.7</ele>
        <time>2021-05-03T13:25:53Z</time>
      </trkpt>
      <trkpt lat="45.17735" lon="5.214">
        <ele>360.7</ele>
        <time>2021-05-03T13:25:54Z</time>
      </trkpt>
      <trkpt lat="45.1773" lon="5.21407">
        <ele>360.6</ele>
        <time>2021-05-03T13:25:55Z</time>
      </trkpt>
      <trkpt lat="45.17725" lon="5.21413">
        <ele>360.5</ele>
        <time>2021-05-03T13:25:56Z</time>
      </trkpt>
      <trkpt lat="45.1772" lon="5.2142">
        <ele>360.4</ele>
        <time>2021-05-03T13:25:57Z</time>
      </trkpt>
      <trkpt lat="45.17716" lon="5.21426">
        <ele>360.2</ele>
        <time>2021-05-03T13:25:58Z</time>
      </trkpt>
      <trkpt lat="45.1771" lon="5.21432">
        <ele>360</ele>
        <time>2021-05-03T13:25:59Z</time>
      </trkpt>
      <trkpt lat="45.17705" lon="5.21439">
        <ele>359.8</ele>
        <time>2021-05-03T13:26:00Z</time>
      </trkpt>
      <trkpt lat="45.177" lon="5.21446">
        <ele>359.6</ele>
        <time>2021-05-03T13:26:01Z</time>
      </trkpt>
      <trkpt lat="45.17694" lon="5.21453">
        <ele>359.4</ele>
        <time>2021-05-03T13:26:02Z</time>
      </trkpt>
      <trkpt lat="45.17688" lon="5.21458">
        <ele>359.1</ele>
        <time>2021-05-03T13:26:03Z</time>
      </trkpt>
      <trkpt lat="45.17681" lon="5.21463">
        <ele>358.8</ele>
        <time>2021-05-03T13:26:04Z</time>
      </trkpt>
      <trkpt lat="45.17674" lon="5.21465">
        <ele>358.5</ele>
        <time>2021-05-03T13:26:05Z</time>
      </trkpt>
      <trkpt lat="45.17667" lon="5.21465">
        <ele>358.1</ele>
        <time>2021-05-03T13:26:06Z</time>
      </trkpt>
      <trkpt lat="45.17658" lon="5.21462">
        <ele>357.8</ele>
        <time>2021-05-03T13:26:07Z</time>
      </trkpt>
      <trkpt lat="45.1765" lon="5.21458">
        <ele>357.3</ele>
        <time>2021-05-03T13:26:08Z</time>
      </trkpt>
      <trkpt lat="45.17641" lon="5.21454">
        <ele>356.9</ele>
        <time>2021-05-03T13:26:09Z</time>
      </trkpt>
      <trkpt lat="45.17633" lon="5.21451">
        <ele>356.6</ele>
        <time>2021-05-03T13:26:10Z</time>
      </trkpt>
      <trkpt lat="45.17624" lon="5.21448">
        <ele>356.3</ele>
        <time>2021-05-03T13:26:11Z</time>
      </trkpt>
      <trkpt lat="45.17615" lon="5.21445">
        <ele>356</ele>
        <time>2021-05-03T13:26:12Z</time>
      </trkpt>
      <trkpt lat="45.17606" lon="5.21443">
        <ele>355.8</ele>
        <time>2021-05-03T13:26:13Z</time>
      </trkpt>
      <trkpt lat="45.17596" lon="5.21442">
        <ele>355.7</ele>
        <time>2021-05-03T13:26:14Z</time>
      </trkpt>
      <trkpt lat="45.17588" lon="5.21445">
        <ele>355.7</ele>
        <time>2021-05-03T13:26:15Z</time>
      </trkpt>
      <trkpt lat="45.1758" lon="5.2145">
        <ele>355.6</ele>
        <time>2021-05-03T13:26:16Z</time>
      </trkpt>
      <trkpt lat="45.17572" lon="5.21457">
        <ele>355.6</ele>
        <time>2021-05-03T13:26:17Z</time>
      </trkpt>
      <trkpt lat="45.17565" lon="5.21463">
        <ele>355.6</ele>
        <time>2021-05-03T13:26:18Z</time>
      </trkpt>
      <trkpt lat="45.17557" lon="5.21468">
        <ele>355.6</ele>
        <time>2021-05-03T13:26:19Z</time>
      </trkpt>
      <trkpt lat="45.1755" lon="5.21473">
        <ele>355.6</ele>
        <time>2021-05-03T13:26:20Z</time>
      </trkpt>
      <trkpt lat="45.17543" lon="5.21477">
        <ele>355.6</ele>
        <time>2021-05-03T13:26:21Z</time>
      </trkpt>
      <trkpt lat="45.17537" lon="5.21483">
        <ele>355.7</ele>
        <time>2021-05-03T13:26:22Z</time>
      </trkpt>
      <trkpt lat="45.1753" lon="5.21488">
        <ele>355.7</ele>
        <time>2021-05-03T13:26:23Z</time>
      </trkpt>
      <trkpt lat="45.17524" lon="5.21492">
        <ele>355.8</ele>
        <time>2021-05-03T13:26:24Z</time>
      </trkpt>
      <trkpt lat="45.17518" lon="5.21496">
        <ele>355.9</ele>
        <time>2021-05-03T13:26:25Z</time>
      </trkpt>
      <trkpt lat="45.17512" lon="5.21502">
        <ele>356</ele>
        <time>2021-05-03T13:26:26Z</time>
      </trkpt>
      <trkpt lat="45.17507" lon="5.21506">
        <ele>356.1</ele>
        <time>2021-05-03T13:26:27Z</time>
      </trkpt>
      <trkpt lat="45.17502" lon="5.21512">
        <ele>356.2</ele>
        <time>2021-05-03T13:26:28Z</time>
      </trkpt>
      <trkpt lat="45.17498" lon="5.21518">
        <ele>356.4</ele>
        <time>2021-05-03T13:26:29Z</time>
      </trkpt>
      <trkpt lat="45.17493" lon="5.21524">
        <ele>356.5</ele>
        <time>2021-05-03T13:26:30Z</time>
      </trkpt>
      <trkpt lat="45.17489" lon="5.2153">
        <ele>356.7</ele>
        <time>2021-05-03T13:26:31Z</time>
      </trkpt>
      <trkpt lat="45.17485" lon="5.21537">
        <ele>356.8</ele>
        <time>2021-05-03T13:26:32Z</time>
      </trkpt>
      <trkpt lat="45.17482" lon="5.21544">
        <ele>356.9</ele>
        <time>2021-05-03T13:26:33Z</time>
      </trkpt>
      <trkpt lat="45.1748" lon="5.21551">
        <ele>357.1</ele>
        <time>2021-05-03T13:26:34Z</time>
      </trkpt>
      <trkpt lat="45.17478" lon="5.21557">
        <ele>357.2</ele>
        <time>2021-05-03T13:26:35Z</time>
      </trkpt>
      <trkpt lat="45.17476" lon="5.21562">
        <ele>357.2</ele>
        <time>2021-05-03T13:26:36Z</time>
      </trkpt>
      <trkpt lat="45.17475" lon="5.21565">
        <ele>357.2</ele>
        <time>2021-05-03T13:26:37Z</time>
      </trkpt>
      <trkpt lat="45.17472" lon="5.21569">
        <ele>357.2</ele>
        <time>2021-05-03T13:26:38Z</time>
      </trkpt>
      <trkpt lat="45.1747" lon="5.21574">
        <ele>357.3</ele>
        <time>2021-05-03T13:26:39Z</time>
      </trkpt>
      <trkpt lat="45.17467" lon="5.21579">
        <ele>357.3</ele>
        <time>2021-05-03T13:26:40Z</time>
      </trkpt>
      <trkpt lat="45.17464" lon="5.21584">
        <ele>357.3</ele>
        <time>2021-05-03T13:26:41Z</time>
      </trkpt>
      <trkpt lat="45.17461" lon="5.21589">
        <ele>357.3</ele>
        <time>2021-05-03T13:26:42Z</time>
      </trkpt>
      <trkpt lat="45.17459" lon="5.21594">
        <ele>357.3</ele>
        <time>2021-05-03T13:26:43Z</time>
      </trkpt>
      <trkpt lat="45.17458" lon="5.21601">
        <ele>357.3</ele>
        <time>2021-05-03T13:26:44Z</time>
      </trkpt>
      <trkpt lat="45.17456" lon="5.21607">
        <ele>357.3</ele>
        <time>2021-05-03T13:26:45Z</time>
      </trkpt>
      <trkpt lat="45.17453" lon="5.21614">
        <ele>357.3</ele>
        <time>2021-05-03T13:26:46Z</time>
      </trkpt>
      <trkpt lat="45.17451" lon="5.2162">
        <ele>357.3</ele>
        <time>2021-05-03T13:26:48Z</time>
      </trkpt>
      <trkpt lat="45.17449" lon="5.21624">
        <ele>357.3</ele>
        <time>2021-05-03T13:26:49Z</time>
      </trkpt>
      <trkpt lat="45.17446" lon="5.21629">
        <ele>357.3</ele>
        <time>2021-05-03T13:26:50Z</time>
      </trkpt>
      <trkpt lat="45.17443" lon="5.21635">
        <ele>357.3</ele>
        <time>2021-05-03T13:26:51Z</time>
      </trkpt>
      <trkpt lat="45.17441" lon="5.2164">
        <ele>357.3</ele>
        <time>2021-05-03T13:26:52Z</time>
      </trkpt>
      <trkpt lat="45.17437" lon="5.2165">
        <ele>357.2</ele>
        <time>2021-05-03T13:26:54Z</time>
      </trkpt>
      <trkpt lat="45.17436" lon="5.21655">
        <ele>357.2</ele>
        <time>2021-05-03T13:26:55Z</time>
      </trkpt>
      <trkpt lat="45.17432" lon="5.21665">
        <ele>357.1</ele>
        <time>2021-05-03T13:26:57Z</time>
      </trkpt>
      <trkpt lat="45.1743" lon="5.21669">
        <ele>357</ele>
        <time>2021-05-03T13:26:58Z</time>
      </trkpt>
      <trkpt lat="45.17427" lon="5.21676">
        <ele>356.8</ele>
        <time>2021-05-03T13:26:59Z</time>
      </trkpt>
      <trkpt lat="45.17425" lon="5.21681">
        <ele>356.6</ele>
        <time>2021-05-03T13:27:00Z</time>
      </trkpt>
      <trkpt lat="45.17422" lon="5.21686">
        <ele>356.5</ele>
        <time>2021-05-03T13:27:02Z</time>
      </trkpt>
      <trkpt lat="45.1742" lon="5.21692">
        <ele>356.3</ele>
        <time>2021-05-03T13:27:03Z</time>
      </trkpt>
      <trkpt lat="45.17418" lon="5.21695">
        <ele>356.2</ele>
        <time>2021-05-03T13:27:04Z</time>
      </trkpt>
      <trkpt lat="45.17414" lon="5.21701">
        <ele>356</ele>
        <time>2021-05-03T13:27:05Z</time>
      </trkpt>
      <trkpt lat="45.17411" lon="5.21708">
        <ele>355.9</ele>
        <time>2021-05-03T13:27:06Z</time>
      </trkpt>
      <trkpt lat="45.17408" lon="5.21715">
        <ele>355.7</ele>
        <time>2021-05-03T13:27:07Z</time>
      </trkpt>
      <trkpt lat="45.17404" lon="5.21721">
        <ele>355.5</ele>
        <time>2021-05-03T13:27:08Z</time>
      </trkpt>
      <trkpt lat="45.17399" lon="5.21728">
        <ele>355.3</ele>
        <time>2021-05-03T13:27:09Z</time>
      </trkpt>
      <trkpt lat="45.17395" lon="5.21734">
        <ele>355.1</ele>
        <time>2021-05-03T13:27:10Z</time>
      </trkpt>
      <trkpt lat="45.17391" lon="5.21741">
        <ele>354.9</ele>
        <time>2021-05-03T13:27:11Z</time>
      </trkpt>
      <trkpt lat="45.17388" lon="5.21748">
        <ele>354.7</ele>
        <time>2021-05-03T13:27:12Z</time>
      </trkpt>
      <trkpt lat="45.17384" lon="5.21755">
        <ele>354.5</ele>
        <time>2021-05-03T13:27:13Z</time>
      </trkpt>
      <trkpt lat="45.1738" lon="5.21763">
        <ele>354.3</ele>
        <time>2021-05-03T13:27:14Z</time>
      </trkpt>
      <trkpt lat="45.17376" lon="5.2177">
        <ele>354.1</ele>
        <time>2021-05-03T13:27:15Z</time>
      </trkpt>
      <trkpt lat="45.17372" lon="5.21778">
        <ele>354</ele>
        <time>2021-05-03T13:27:16Z</time>
      </trkpt>
      <trkpt lat="45.17368" lon="5.21786">
        <ele>353.8</ele>
        <time>2021-05-03T13:27:17Z</time>
      </trkpt>
      <trkpt lat="45.17364" lon="5.21793">
        <ele>353.7</ele>
        <time>2021-05-03T13:27:18Z</time>
      </trkpt>
      <trkpt lat="45.1736" lon="5.218">
        <ele>353.5</ele>
        <time>2021-05-03T13:27:19Z</time>
      </trkpt>
      <trkpt lat="45.17356" lon="5.21808">
        <ele>353.4</ele>
        <time>2021-05-03T13:27:20Z</time>
      </trkpt>
      <trkpt lat="45.17353" lon="5.21815">
        <ele>353.3</ele>
        <time>2021-05-03T13:27:21Z</time>
      </trkpt>
      <trkpt lat="45.1735" lon="5.21822">
        <ele>353.2</ele>
        <time>2021-05-03T13:27:22Z</time>
      </trkpt>
      <trkpt lat="45.17347" lon="5.21829">
        <ele>353.1</ele>
        <time>2021-05-03T13:27:23Z</time>
      </trkpt>
      <trkpt lat="45.17345" lon="5.21836">
        <ele>353</ele>
        <time>2021-05-03T13:27:24Z</time>
      </trkpt>
      <trkpt lat="45.17343" lon="5.21844">
        <ele>352.9</ele>
        <time>2021-05-03T13:27:25Z</time>
      </trkpt>
      <trkpt lat="45.17341" lon="5.21852">
        <ele>352.7</ele>
        <time>2021-05-03T13:27:26Z</time>
      </trkpt>
      <trkpt lat="45.17339" lon="5.2186">
        <ele>352.5</ele>
        <time>2021-05-03T13:27:27Z</time>
      </trkpt>
      <trkpt lat="45.17338" lon="5.21869">
        <ele>352.4</ele>
        <time>2021-05-03T13:27:28Z</time>
      </trkpt>
      <trkpt lat="45.17337" lon="5.21878">
        <ele>352.2</ele>
        <time>2021-05-03T13:27:29Z</time>
      </trkpt>
      <trkpt lat="45.17336" lon="5.21888">
        <ele>352</ele>
        <time>2021-05-03T13:27:30Z</time>
      </trkpt>
      <trkpt lat="45.17335" lon="5.21898">
        <ele>351.8</ele>
        <time>2021-05-03T13:27:31Z</time>
      </trkpt>
      <trkpt lat="45.17335" lon="5.21908">
        <ele>351.7</ele>
        <time>2021-05-03T13:27:32Z</time>
      </trkpt>
      <trkpt lat="45.17335" lon="5.21918">
        <ele>351.5</ele>
        <time>2021-05-03T13:27:33Z</time>
      </trkpt>
      <trkpt lat="45.17335" lon="5.21927">
        <ele>351.4</ele>
        <time>2021-05-03T13:27:34Z</time>
      </trkpt>
      <trkpt lat="45.17335" lon="5.21938">
        <ele>351.3</ele>
        <time>2021-05-03T13:27:35Z</time>
      </trkpt>
      <trkpt lat="45.17336" lon="5.21948">
        <ele>351.2</ele>
        <time>2021-05-03T13:27:36Z</time>
      </trkpt>
      <trkpt lat="45.17336" lon="5.21958">
        <ele>351</ele>
        <time>2021-05-03T13:27:37Z</time>
      </trkpt>
      <trkpt lat="45.17335" lon="5.21968">
        <ele>350.9</ele>
        <time>2021-05-03T13:27:38Z</time>
      </trkpt>
      <trkpt lat="45.17335" lon="5.21977">
        <ele>350.8</ele>
        <time>2021-05-03T13:27:39Z</time>
      </trkpt>
      <trkpt lat="45.17336" lon="5.21987">
        <ele>350.8</ele>
        <time>2021-05-03T13:27:40Z</time>
      </trkpt>
      <trkpt lat="45.17336" lon="5.21997">
        <ele>350.7</ele>
        <time>2021-05-03T13:27:41Z</time>
      </trkpt>
      <trkpt lat="45.17336" lon="5.22007">
        <ele>350.7</ele>
        <time>2021-05-03T13:27:42Z</time>
      </trkpt>
      <trkpt lat="45.17336" lon="5.22016">
        <ele>350.7</ele>
        <time>2021-05-03T13:27:43Z</time>
      </trkpt>
      <trkpt lat="45.17336" lon="5.22025">
        <ele>350.7</ele>
        <time>2021-05-03T13:27:44Z</time>
      </trkpt>
      <trkpt lat="45.17336" lon="5.22034">
        <ele>350.7</ele>
        <time>2021-05-03T13:27:45Z</time>
      </trkpt>
      <trkpt lat="45.17336" lon="5.22043">
        <ele>350.6</ele>
        <time>2021-05-03T13:27:46Z</time>
      </trkpt>
      <trkpt lat="45.17335" lon="5.22052">
        <ele>350.6</ele>
        <time>2021-05-03T13:27:47Z</time>
      </trkpt>
      <trkpt lat="45.17335" lon="5.2206">
        <ele>350.6</ele>
        <time>2021-05-03T13:27:48Z</time>
      </trkpt>
      <trkpt lat="45.17334" lon="5.22069">
        <ele>350.6</ele>
        <time>2021-05-03T13:27:49Z</time>
      </trkpt>
      <trkpt lat="45.17335" lon="5.22077">
        <ele>350.5</ele>
        <time>2021-05-03T13:27:50Z</time>
      </trkpt>
      <trkpt lat="45.17335" lon="5.22086">
        <ele>350.5</ele>
        <time>2021-05-03T13:27:51Z</time>
      </trkpt>
      <trkpt lat="45.17335" lon="5.22096">
        <ele>350.5</ele>
        <time>2021-05-03T13:27:52Z</time>
      </trkpt>
      <trkpt lat="45.17335" lon="5.22104">
        <ele>350.5</ele>
        <time>2021-05-03T13:27:53Z</time>
      </trkpt>
      <trkpt lat="45.17335" lon="5.22113">
        <ele>350.5</ele>
        <time>2021-05-03T13:27:54Z</time>
      </trkpt>
      <trkpt lat="45.17336" lon="5.22121">
        <ele>350.5</ele>
        <time>2021-05-03T13:27:55Z</time>
      </trkpt>
      <trkpt lat="45.17336" lon="5.22129">
        <ele>350.5</ele>
        <time>2021-05-03T13:27:56Z</time>
      </trkpt>
      <trkpt lat="45.17336" lon="5.22138">
        <ele>350.5</ele>
        <time>2021-05-03T13:27:57Z</time>
      </trkpt>
      <trkpt lat="45.17336" lon="5.22147">
        <ele>350.5</ele>
        <time>2021-05-03T13:27:58Z</time>
      </trkpt>
      <trkpt lat="45.17336" lon="5.22156">
        <ele>350.4</ele>
        <time>2021-05-03T13:27:59Z</time>
      </trkpt>
      <trkpt lat="45.17337" lon="5.22165">
        <ele>350.4</ele>
        <time>2021-05-03T13:28:00Z</time>
      </trkpt>
      <trkpt lat="45.17337" lon="5.22173">
        <ele>350.4</ele>
        <time>2021-05-03T13:28:01Z</time>
      </trkpt>
      <trkpt lat="45.17337" lon="5.22182">
        <ele>350.4</ele>
        <time>2021-05-03T13:28:02Z</time>
      </trkpt>
      <trkpt lat="45.17337" lon="5.2219">
        <ele>350.4</ele>
        <time>2021-05-03T13:28:03Z</time>
      </trkpt>
      <trkpt lat="45.17337" lon="5.22199">
        <ele>350.4</ele>
        <time>2021-05-03T13:28:04Z</time>
      </trkpt>
      <trkpt lat="45.17337" lon="5.22208">
        <ele>350.4</ele>
        <time>2021-05-03T13:28:05Z</time>
      </trkpt>
      <trkpt lat="45.17338" lon="5.22217">
        <ele>350.5</ele>
        <time>2021-05-03T13:28:06Z</time>
      </trkpt>
      <trkpt lat="45.17338" lon="5.22225">
        <ele>350.5</ele>
        <time>2021-05-03T13:28:07Z</time>
      </trkpt>
      <trkpt lat="45.17339" lon="5.22233">
        <ele>350.5</ele>
        <time>2021-05-03T13:28:08Z</time>
      </trkpt>
      <trkpt lat="45.17339" lon="5.22241">
        <ele>350.5</ele>
        <time>2021-05-03T13:28:09Z</time>
      </trkpt>
      <trkpt lat="45.17339" lon="5.22249">
        <ele>350.5</ele>
        <time>2021-05-03T13:28:10Z</time>
      </trkpt>
      <trkpt lat="45.17338" lon="5.22257">
        <ele>350.5</ele>
        <time>2021-05-03T13:28:11Z</time>
      </trkpt>
      <trkpt lat="45.17337" lon="5.22265">
        <ele>350.4</ele>
        <time>2021-05-03T13:28:12Z</time>
      </trkpt>
      <trkpt lat="45.17335" lon="5.22272">
        <ele>350.4</ele>
        <time>2021-05-03T13:28:13Z</time>
      </trkpt>
      <trkpt lat="45.17332" lon="5.22279">
        <ele>350.4</ele>
        <time>2021-05-03T13:28:14Z</time>
      </trkpt>
      <trkpt lat="45.17327" lon="5.22285">
        <ele>350.4</ele>
        <time>2021-05-03T13:28:15Z</time>
      </trkpt>
      <trkpt lat="45.17323" lon="5.22292">
        <ele>350.4</ele>
        <time>2021-05-03T13:28:16Z</time>
      </trkpt>
      <trkpt lat="45.17319" lon="5.22299">
        <ele>350.4</ele>
        <time>2021-05-03T13:28:17Z</time>
      </trkpt>
      <trkpt lat="45.17315" lon="5.22305">
        <ele>350.3</ele>
        <time>2021-05-03T13:28:18Z</time>
      </trkpt>
      <trkpt lat="45.17311" lon="5.22312">
        <ele>350.3</ele>
        <time>2021-05-03T13:28:19Z</time>
      </trkpt>
      <trkpt lat="45.17307" lon="5.22318">
        <ele>350.3</ele>
        <time>2021-05-03T13:28:20Z</time>
      </trkpt>
      <trkpt lat="45.17303" lon="5.22324">
        <ele>350.3</ele>
        <time>2021-05-03T13:28:21Z</time>
      </trkpt>
      <trkpt lat="45.17299" lon="5.2233">
        <ele>350.3</ele>
        <time>2021-05-03T13:28:22Z</time>
      </trkpt>
      <trkpt lat="45.17295" lon="5.22335">
        <ele>350.3</ele>
        <time>2021-05-03T13:28:23Z</time>
      </trkpt>
      <trkpt lat="45.17291" lon="5.2234">
        <ele>350.3</ele>
        <time>2021-05-03T13:28:24Z</time>
      </trkpt>
      <trkpt lat="45.17287" lon="5.22346">
        <ele>350.3</ele>
        <time>2021-05-03T13:28:25Z</time>
      </trkpt>
      <trkpt lat="45.17282" lon="5.22352">
        <ele>350.3</ele>
        <time>2021-05-03T13:28:26Z</time>
      </trkpt>
      <trkpt lat="45.17278" lon="5.22357">
        <ele>350.3</ele>
        <time>2021-05-03T13:28:27Z</time>
      </trkpt>
      <trkpt lat="45.17273" lon="5.22363">
        <ele>350.3</ele>
        <time>2021-05-03T13:28:28Z</time>
      </trkpt>
      <trkpt lat="45.17269" lon="5.22369">
        <ele>350.4</ele>
        <time>2021-05-03T13:28:29Z</time>
      </trkpt>
      <trkpt lat="45.17265" lon="5.22374">
        <ele>350.4</ele>
        <time>2021-05-03T13:28:30Z</time>
      </trkpt>
      <trkpt lat="45.1726" lon="5.2238">
        <ele>350.5</ele>
        <time>2021-05-03T13:28:31Z</time>
      </trkpt>
      <trkpt lat="45.17255" lon="5.22385">
        <ele>350.5</ele>
        <time>2021-05-03T13:28:32Z</time>
      </trkpt>
      <trkpt lat="45.1725" lon="5.22391">
        <ele>350.5</ele>
        <time>2021-05-03T13:28:33Z</time>
      </trkpt>
      <trkpt lat="45.17246" lon="5.22397">
        <ele>350.6</ele>
        <time>2021-05-03T13:28:34Z</time>
      </trkpt>
      <trkpt lat="45.17241" lon="5.22403">
        <ele>350.6</ele>
        <time>2021-05-03T13:28:35Z</time>
      </trkpt>
      <trkpt lat="45.17237" lon="5.22408">
        <ele>350.6</ele>
        <time>2021-05-03T13:28:36Z</time>
      </trkpt>
      <trkpt lat="45.17233" lon="5.22414">
        <ele>350.7</ele>
        <time>2021-05-03T13:28:37Z</time>
      </trkpt>
      <trkpt lat="45.17229" lon="5.22419">
        <ele>350.7</ele>
        <time>2021-05-03T13:28:38Z</time>
      </trkpt>
      <trkpt lat="45.17224" lon="5.22425">
        <ele>350.8</ele>
        <time>2021-05-03T13:28:39Z</time>
      </trkpt>
      <trkpt lat="45.1722" lon="5.22431">
        <ele>350.8</ele>
        <time>2021-05-03T13:28:40Z</time>
      </trkpt>
      <trkpt lat="45.17216" lon="5.22436">
        <ele>350.9</ele>
        <time>2021-05-03T13:28:41Z</time>
      </trkpt>
      <trkpt lat="45.17211" lon="5.22441">
        <ele>350.9</ele>
        <time>2021-05-03T13:28:42Z</time>
      </trkpt>
      <trkpt lat="45.17207" lon="5.22447">
        <ele>351</ele>
        <time>2021-05-03T13:28:43Z</time>
      </trkpt>
      <trkpt lat="45.17203" lon="5.22452">
        <ele>351.1</ele>
        <time>2021-05-03T13:28:44Z</time>
      </trkpt>
      <trkpt lat="45.17199" lon="5.22458">
        <ele>351.1</ele>
        <time>2021-05-03T13:28:45Z</time>
      </trkpt>
      <trkpt lat="45.17195" lon="5.22463">
        <ele>351.2</ele>
        <time>2021-05-03T13:28:46Z</time>
      </trkpt>
      <trkpt lat="45.17191" lon="5.22468">
        <ele>351.3</ele>
        <time>2021-05-03T13:28:47Z</time>
      </trkpt>
      <trkpt lat="45.17188" lon="5.22473">
        <ele>351.4</ele>
        <time>2021-05-03T13:28:48Z</time>
      </trkpt>
      <trkpt lat="45.17184" lon="5.22478">
        <ele>351.6</ele>
        <time>2021-05-03T13:28:49Z</time>
      </trkpt>
      <trkpt lat="45.17181" lon="5.22484">
        <ele>351.7</ele>
        <time>2021-05-03T13:28:50Z</time>
      </trkpt>
      <trkpt lat="45.17178" lon="5.22489">
        <ele>351.9</ele>
        <time>2021-05-03T13:28:51Z</time>
      </trkpt>
      <trkpt lat="45.17175" lon="5.22495">
        <ele>352.1</ele>
        <time>2021-05-03T13:28:52Z</time>
      </trkpt>
      <trkpt lat="45.17172" lon="5.225">
        <ele>352.3</ele>
        <time>2021-05-03T13:28:53Z</time>
      </trkpt>
      <trkpt lat="45.1717" lon="5.22506">
        <ele>352.5</ele>
        <time>2021-05-03T13:28:54Z</time>
      </trkpt>
      <trkpt lat="45.17168" lon="5.22512">
        <ele>352.7</ele>
        <time>2021-05-03T13:28:55Z</time>
      </trkpt>
      <trkpt lat="45.17167" lon="5.22516">
        <ele>352.8</ele>
        <time>2021-05-03T13:28:56Z</time>
      </trkpt>
      <trkpt lat="45.17166" lon="5.22522">
        <ele>353.1</ele>
        <time>2021-05-03T13:28:57Z</time>
      </trkpt>
      <trkpt lat="45.17165" lon="5.22528">
        <ele>353.3</ele>
        <time>2021-05-03T13:28:58Z</time>
      </trkpt>
      <trkpt lat="45.17164" lon="5.22533">
        <ele>353.4</ele>
        <time>2021-05-03T13:28:59Z</time>
      </trkpt>
      <trkpt lat="45.17164" lon="5.22538">
        <ele>353.6</ele>
        <time>2021-05-03T13:29:00Z</time>
      </trkpt>
      <trkpt lat="45.17163" lon="5.22544">
        <ele>353.8</ele>
        <time>2021-05-03T13:29:01Z</time>
      </trkpt>
      <trkpt lat="45.17163" lon="5.22549">
        <ele>354</ele>
        <time>2021-05-03T13:29:02Z</time>
      </trkpt>
      <trkpt lat="45.17162" lon="5.22555">
        <ele>354.2</ele>
        <time>2021-05-03T13:29:04Z</time>
      </trkpt>
      <trkpt lat="45.17163" lon="5.22568">
        <ele>354.6</ele>
        <time>2021-05-03T13:29:06Z</time>
      </trkpt>
      <trkpt lat="45.17164" lon="5.22574">
        <ele>354.8</ele>
        <time>2021-05-03T13:29:07Z</time>
      </trkpt>
      <trkpt lat="45.17165" lon="5.22581">
        <ele>355</ele>
        <time>2021-05-03T13:29:08Z</time>
      </trkpt>
      <trkpt lat="45.17166" lon="5.22594">
        <ele>355.4</ele>
        <time>2021-05-03T13:29:10Z</time>
      </trkpt>
      <trkpt lat="45.17167" lon="5.22601">
        <ele>355.6</ele>
        <time>2021-05-03T13:29:11Z</time>
      </trkpt>
      <trkpt lat="45.17166" lon="5.2261">
        <ele>355.9</ele>
        <time>2021-05-03T13:29:12Z</time>
      </trkpt>
      <trkpt lat="45.17166" lon="5.22616">
        <ele>356.1</ele>
        <time>2021-05-03T13:29:13Z</time>
      </trkpt>
      <trkpt lat="45.17165" lon="5.22622">
        <ele>356.3</ele>
        <time>2021-05-03T13:29:14Z</time>
      </trkpt>
      <trkpt lat="45.17163" lon="5.22629">
        <ele>356.5</ele>
        <time>2021-05-03T13:29:16Z</time>
      </trkpt>
      <trkpt lat="45.17162" lon="5.22634">
        <ele>356.7</ele>
        <time>2021-05-03T13:29:17Z</time>
      </trkpt>
      <trkpt lat="45.17159" lon="5.22642">
        <ele>357</ele>
        <time>2021-05-03T13:29:19Z</time>
      </trkpt>
      <trkpt lat="45.17157" lon="5.22647">
        <ele>357.3</ele>
        <time>2021-05-03T13:29:20Z</time>
      </trkpt>
      <trkpt lat="45.17153" lon="5.22654">
        <ele>357.6</ele>
        <time>2021-05-03T13:29:22Z</time>
      </trkpt>
      <trkpt lat="45.17151" lon="5.22657">
        <ele>357.7</ele>
        <time>2021-05-03T13:29:23Z</time>
      </trkpt>
      <trkpt lat="45.17148" lon="5.22664">
        <ele>358</ele>
        <time>2021-05-03T13:29:24Z</time>
      </trkpt>
      <trkpt lat="45.17145" lon="5.22669">
        <ele>358.2</ele>
        <time>2021-05-03T13:29:25Z</time>
      </trkpt>
      <trkpt lat="45.17143" lon="5.22674">
        <ele>358.4</ele>
        <time>2021-05-03T13:29:27Z</time>
      </trkpt>
      <trkpt lat="45.17139" lon="5.22681">
        <ele>358.7</ele>
        <time>2021-05-03T13:29:29Z</time>
      </trkpt>
      <trkpt lat="45.17135" lon="5.2269">
        <ele>359.1</ele>
        <time>2021-05-03T13:29:31Z</time>
      </trkpt>
      <trkpt lat="45.17132" lon="5.22697">
        <ele>359.4</ele>
        <time>2021-05-03T13:29:33Z</time>
      </trkpt>
      <trkpt lat="45.17129" lon="5.22702">
        <ele>359.6</ele>
        <time>2021-05-03T13:29:34Z</time>
      </trkpt>
      <trkpt lat="45.17129" lon="5.22703">
        <ele>359.7</ele>
        <time>2021-05-03T13:29:35Z</time>
      </trkpt>
      <trkpt lat="45.17126" lon="5.22708">
        <ele>359.9</ele>
        <time>2021-05-03T13:29:36Z</time>
      </trkpt>
      <trkpt lat="45.17123" lon="5.22714">
        <ele>360.2</ele>
        <time>2021-05-03T13:29:38Z</time>
      </trkpt>
      <trkpt lat="45.17121" lon="5.22717">
        <ele>360.3</ele>
        <time>2021-05-03T13:29:39Z</time>
      </trkpt>
      <trkpt lat="45.17119" lon="5.2272">
        <ele>360.5</ele>
        <time>2021-05-03T13:29:40Z</time>
      </trkpt>
      <trkpt lat="45.17117" lon="5.22726">
        <ele>360.8</ele>
        <time>2021-05-03T13:29:41Z</time>
      </trkpt>
      <trkpt lat="45.17113" lon="5.22732">
        <ele>361.1</ele>
        <time>2021-05-03T13:29:43Z</time>
      </trkpt>
      <trkpt lat="45.17111" lon="5.22736">
        <ele>361.3</ele>
        <time>2021-05-03T13:29:44Z</time>
      </trkpt>
      <trkpt lat="45.17109" lon="5.2274">
        <ele>361.6</ele>
        <time>2021-05-03T13:29:45Z</time>
      </trkpt>
      <trkpt lat="45.17105" lon="5.22747">
        <ele>362</ele>
        <time>2021-05-03T13:29:47Z</time>
      </trkpt>
      <trkpt lat="45.17101" lon="5.22754">
        <ele>362.4</ele>
        <time>2021-05-03T13:29:49Z</time>
      </trkpt>
      <trkpt lat="45.17098" lon="5.22761">
        <ele>362.7</ele>
        <time>2021-05-03T13:29:51Z</time>
      </trkpt>
      <trkpt lat="45.17096" lon="5.22766">
        <ele>363</ele>
        <time>2021-05-03T13:29:53Z</time>
      </trkpt>
      <trkpt lat="45.17094" lon="5.22772">
        <ele>363.3</ele>
        <time>2021-05-03T13:29:55Z</time>
      </trkpt>
      <trkpt lat="45.17091" lon="5.22776">
        <ele>363.5</ele>
        <time>2021-05-03T13:29:56Z</time>
      </trkpt>
      <trkpt lat="45.1709" lon="5.22777">
        <ele>363.6</ele>
        <time>2021-05-03T13:29:57Z</time>
      </trkpt>
      <trkpt lat="45.17089" lon="5.22783">
        <ele>363.9</ele>
        <time>2021-05-03T13:29:59Z</time>
      </trkpt>
      <trkpt lat="45.17088" lon="5.22786">
        <ele>364.1</ele>
        <time>2021-05-03T13:30:00Z</time>
      </trkpt>
      <trkpt lat="45.17086" lon="5.22794">
        <ele>364.4</ele>
        <time>2021-05-03T13:30:02Z</time>
      </trkpt>
      <trkpt lat="45.17084" lon="5.22801">
        <ele>364.8</ele>
        <time>2021-05-03T13:30:04Z</time>
      </trkpt>
      <trkpt lat="45.17082" lon="5.22808">
        <ele>365.1</ele>
        <time>2021-05-03T13:30:06Z</time>
      </trkpt>
      <trkpt lat="45.17081" lon="5.22811">
        <ele>365.2</ele>
        <time>2021-05-03T13:30:07Z</time>
      </trkpt>
      <trkpt lat="45.17079" lon="5.22817">
        <ele>365.5</ele>
        <time>2021-05-03T13:30:09Z</time>
      </trkpt>
      <trkpt lat="45.17078" lon="5.22822">
        <ele>365.7</ele>
        <time>2021-05-03T13:30:10Z</time>
      </trkpt>
      <trkpt lat="45.17076" lon="5.22827">
        <ele>366</ele>
        <time>2021-05-03T13:30:11Z</time>
      </trkpt>
      <trkpt lat="45.17075" lon="5.22832">
        <ele>366.2</ele>
        <time>2021-05-03T13:30:13Z</time>
      </trkpt>
      <trkpt lat="45.17073" lon="5.22837">
        <ele>366.4</ele>
        <time>2021-05-03T13:30:14Z</time>
      </trkpt>
      <trkpt lat="45.1707" lon="5.22843">
        <ele>366.7</ele>
        <time>2021-05-03T13:30:16Z</time>
      </trkpt>
      <trkpt lat="45.17068" lon="5.22849">
        <ele>366.9</ele>
        <time>2021-05-03T13:30:18Z</time>
      </trkpt>
      <trkpt lat="45.17066" lon="5.22853">
        <ele>367.1</ele>
        <time>2021-05-03T13:30:19Z</time>
      </trkpt>
      <trkpt lat="45.17063" lon="5.22857">
        <ele>367.3</ele>
        <time>2021-05-03T13:30:21Z</time>
      </trkpt>
      <trkpt lat="45.17059" lon="5.22863">
        <ele>367.6</ele>
        <time>2021-05-03T13:30:23Z</time>
      </trkpt>
      <trkpt lat="45.17055" lon="5.22868">
        <ele>367.9</ele>
        <time>2021-05-03T13:30:25Z</time>
      </trkpt>
      <trkpt lat="45.17052" lon="5.22872">
        <ele>368.1</ele>
        <time>2021-05-03T13:30:26Z</time>
      </trkpt>
      <trkpt lat="45.17051" lon="5.22874">
        <ele>368.2</ele>
        <time>2021-05-03T13:30:27Z</time>
      </trkpt>
      <trkpt lat="45.17049" lon="5.22878">
        <ele>368.4</ele>
        <time>2021-05-03T13:30:28Z</time>
      </trkpt>
      <trkpt lat="45.17046" lon="5.22882">
        <ele>368.6</ele>
        <time>2021-05-03T13:30:29Z</time>
      </trkpt>
      <trkpt lat="45.17042" lon="5.22885">
        <ele>368.8</ele>
        <time>2021-05-03T13:30:31Z</time>
      </trkpt>
      <trkpt lat="45.1704" lon="5.22887">
        <ele>369</ele>
        <time>2021-05-03T13:30:32Z</time>
      </trkpt>
      <trkpt lat="45.17037" lon="5.2289">
        <ele>369.1</ele>
        <time>2021-05-03T13:30:33Z</time>
      </trkpt>
      <trkpt lat="45.17033" lon="5.22895">
        <ele>369.4</ele>
        <time>2021-05-03T13:30:35Z</time>
      </trkpt>
      <trkpt lat="45.1703" lon="5.22897">
        <ele>369.6</ele>
        <time>2021-05-03T13:30:36Z</time>
      </trkpt>
      <trkpt lat="45.17026" lon="5.22902">
        <ele>369.8</ele>
        <time>2021-05-03T13:30:38Z</time>
      </trkpt>
      <trkpt lat="45.17024" lon="5.22905">
        <ele>370</ele>
        <time>2021-05-03T13:30:39Z</time>
      </trkpt>
      <trkpt lat="45.17021" lon="5.22909">
        <ele>370.2</ele>
        <time>2021-05-03T13:30:40Z</time>
      </trkpt>
      <trkpt lat="45.17019" lon="5.2291">
        <ele>370.3</ele>
        <time>2021-05-03T13:30:41Z</time>
      </trkpt>
      <trkpt lat="45.17017" lon="5.22912">
        <ele>370.4</ele>
        <time>2021-05-03T13:30:42Z</time>
      </trkpt>
      <trkpt lat="45.17014" lon="5.22916">
        <ele>370.6</ele>
        <time>2021-05-03T13:30:43Z</time>
      </trkpt>
      <trkpt lat="45.17011" lon="5.22919">
        <ele>370.7</ele>
        <time>2021-05-03T13:30:45Z</time>
      </trkpt>
      <trkpt lat="45.17007" lon="5.22924">
        <ele>371</ele>
        <time>2021-05-03T13:30:47Z</time>
      </trkpt>
      <trkpt lat="45.17004" lon="5.22928">
        <ele>371.1</ele>
        <time>2021-05-03T13:30:48Z</time>
      </trkpt>
      <trkpt lat="45.17001" lon="5.22932">
        <ele>371.3</ele>
        <time>2021-05-03T13:30:49Z</time>
      </trkpt>
      <trkpt lat="45.16999" lon="5.22936">
        <ele>371.4</ele>
        <time>2021-05-03T13:30:51Z</time>
      </trkpt>
      <trkpt lat="45.16996" lon="5.22939">
        <ele>371.5</ele>
        <time>2021-05-03T13:30:52Z</time>
      </trkpt>
      <trkpt lat="45.16992" lon="5.22944">
        <ele>371.7</ele>
        <time>2021-05-03T13:30:53Z</time>
      </trkpt>
      <trkpt lat="45.16988" lon="5.22949">
        <ele>371.8</ele>
        <time>2021-05-03T13:30:55Z</time>
      </trkpt>
      <trkpt lat="45.16985" lon="5.22953">
        <ele>371.9</ele>
        <time>2021-05-03T13:30:56Z</time>
      </trkpt>
      <trkpt lat="45.16982" lon="5.22957">
        <ele>372</ele>
        <time>2021-05-03T13:30:57Z</time>
      </trkpt>
      <trkpt lat="45.16977" lon="5.22963">
        <ele>372.2</ele>
        <time>2021-05-03T13:30:59Z</time>
      </trkpt>
      <trkpt lat="45.16973" lon="5.2297">
        <ele>372.3</ele>
        <time>2021-05-03T13:31:00Z</time>
      </trkpt>
      <trkpt lat="45.16969" lon="5.22975">
        <ele>372.4</ele>
        <time>2021-05-03T13:31:02Z</time>
      </trkpt>
      <trkpt lat="45.16966" lon="5.22979">
        <ele>372.4</ele>
        <time>2021-05-03T13:31:03Z</time>
      </trkpt>
      <trkpt lat="45.16959" lon="5.22984">
        <ele>372.5</ele>
        <time>2021-05-03T13:31:05Z</time>
      </trkpt>
      <trkpt lat="45.16956" lon="5.22988">
        <ele>372.6</ele>
        <time>2021-05-03T13:31:06Z</time>
      </trkpt>
      <trkpt lat="45.16949" lon="5.22996">
        <ele>372.6</ele>
        <time>2021-05-03T13:31:08Z</time>
      </trkpt>
      <trkpt lat="45.16943" lon="5.23003">
        <ele>372.7</ele>
        <time>2021-05-03T13:31:10Z</time>
      </trkpt>
      <trkpt lat="45.1694" lon="5.23007">
        <ele>372.7</ele>
        <time>2021-05-03T13:31:11Z</time>
      </trkpt>
      <trkpt lat="45.16936" lon="5.23011">
        <ele>372.8</ele>
        <time>2021-05-03T13:31:12Z</time>
      </trkpt>
      <trkpt lat="45.16928" lon="5.23019">
        <ele>372.9</ele>
        <time>2021-05-03T13:31:14Z</time>
      </trkpt>
      <trkpt lat="45.16921" lon="5.23025">
        <ele>373</ele>
        <time>2021-05-03T13:31:16Z</time>
      </trkpt>
      <trkpt lat="45.16918" lon="5.23028">
        <ele>373</ele>
        <time>2021-05-03T13:31:17Z</time>
      </trkpt>
      <trkpt lat="45.16914" lon="5.23032">
        <ele>373.1</ele>
        <time>2021-05-03T13:31:18Z</time>
      </trkpt>
      <trkpt lat="45.1691" lon="5.23036">
        <ele>373.2</ele>
        <time>2021-05-03T13:31:19Z</time>
      </trkpt>
      <trkpt lat="45.16906" lon="5.23039">
        <ele>373.3</ele>
        <time>2021-05-03T13:31:20Z</time>
      </trkpt>
      <trkpt lat="45.16902" lon="5.23042">
        <ele>373.4</ele>
        <time>2021-05-03T13:31:21Z</time>
      </trkpt>
      <trkpt lat="45.16897" lon="5.23046">
        <ele>373.5</ele>
        <time>2021-05-03T13:31:22Z</time>
      </trkpt>
      <trkpt lat="45.16893" lon="5.23049">
        <ele>373.5</ele>
        <time>2021-05-03T13:31:23Z</time>
      </trkpt>
      <trkpt lat="45.16889" lon="5.23052">
        <ele>373.6</ele>
        <time>2021-05-03T13:31:24Z</time>
      </trkpt>
      <trkpt lat="45.16884" lon="5.23054">
        <ele>373.7</ele>
        <time>2021-05-03T13:31:25Z</time>
      </trkpt>
      <trkpt lat="45.1688" lon="5.23057">
        <ele>373.8</ele>
        <time>2021-05-03T13:31:26Z</time>
      </trkpt>
      <trkpt lat="45.16875" lon="5.2306">
        <ele>373.9</ele>
        <time>2021-05-03T13:31:27Z</time>
      </trkpt>
      <trkpt lat="45.16871" lon="5.23063">
        <ele>374</ele>
        <time>2021-05-03T13:31:28Z</time>
      </trkpt>
      <trkpt lat="45.16866" lon="5.23066">
        <ele>374.1</ele>
        <time>2021-05-03T13:31:29Z</time>
      </trkpt>
      <trkpt lat="45.16862" lon="5.23069">
        <ele>374.2</ele>
        <time>2021-05-03T13:31:30Z</time>
      </trkpt>
      <trkpt lat="45.16857" lon="5.23072">
        <ele>374.3</ele>
        <time>2021-05-03T13:31:31Z</time>
      </trkpt>
      <trkpt lat="45.16853" lon="5.23075">
        <ele>374.4</ele>
        <time>2021-05-03T13:31:32Z</time>
      </trkpt>
      <trkpt lat="45.16848" lon="5.23078">
        <ele>374.5</ele>
        <time>2021-05-03T13:31:33Z</time>
      </trkpt>
      <trkpt lat="45.16843" lon="5.23081">
        <ele>374.6</ele>
        <time>2021-05-03T13:31:34Z</time>
      </trkpt>
      <trkpt lat="45.16838" lon="5.23083">
        <ele>374.7</ele>
        <time>2021-05-03T13:31:35Z</time>
      </trkpt>
      <trkpt lat="45.16834" lon="5.23086">
        <ele>374.8</ele>
        <time>2021-05-03T13:31:36Z</time>
      </trkpt>
      <trkpt lat="45.16829" lon="5.23089">
        <ele>374.9</ele>
        <time>2021-05-03T13:31:37Z</time>
      </trkpt>
      <trkpt lat="45.16824" lon="5.23092">
        <ele>375</ele>
        <time>2021-05-03T13:31:38Z</time>
      </trkpt>
      <trkpt lat="45.1682" lon="5.23094">
        <ele>375.1</ele>
        <time>2021-05-03T13:31:39Z</time>
      </trkpt>
      <trkpt lat="45.16815" lon="5.23097">
        <ele>375.2</ele>
        <time>2021-05-03T13:31:40Z</time>
      </trkpt>
      <trkpt lat="45.1681" lon="5.231">
        <ele>375.2</ele>
        <time>2021-05-03T13:31:41Z</time>
      </trkpt>
      <trkpt lat="45.16805" lon="5.23102">
        <ele>375.3</ele>
        <time>2021-05-03T13:31:42Z</time>
      </trkpt>
      <trkpt lat="45.16801" lon="5.23104">
        <ele>375.4</ele>
        <time>2021-05-03T13:31:43Z</time>
      </trkpt>
      <trkpt lat="45.16796" lon="5.23107">
        <ele>375.5</ele>
        <time>2021-05-03T13:31:44Z</time>
      </trkpt>
      <trkpt lat="45.16791" lon="5.2311">
        <ele>375.5</ele>
        <time>2021-05-03T13:31:45Z</time>
      </trkpt>
      <trkpt lat="45.16787" lon="5.23113">
        <ele>375.6</ele>
        <time>2021-05-03T13:31:46Z</time>
      </trkpt>
      <trkpt lat="45.16783" lon="5.23115">
        <ele>375.6</ele>
        <time>2021-05-03T13:31:47Z</time>
      </trkpt>
      <trkpt lat="45.16778" lon="5.23118">
        <ele>375.7</ele>
        <time>2021-05-03T13:31:48Z</time>
      </trkpt>
      <trkpt lat="45.16774" lon="5.23121">
        <ele>375.7</ele>
        <time>2021-05-03T13:31:49Z</time>
      </trkpt>
      <trkpt lat="45.16769" lon="5.23124">
        <ele>375.8</ele>
        <time>2021-05-03T13:31:50Z</time>
      </trkpt>
      <trkpt lat="45.16764" lon="5.23127">
        <ele>375.8</ele>
        <time>2021-05-03T13:31:51Z</time>
      </trkpt>
      <trkpt lat="45.1676" lon="5.23129">
        <ele>375.8</ele>
        <time>2021-05-03T13:31:52Z</time>
      </trkpt>
      <trkpt lat="45.16755" lon="5.23132">
        <ele>375.8</ele>
        <time>2021-05-03T13:31:53Z</time>
      </trkpt>
      <trkpt lat="45.1675" lon="5.23134">
        <ele>375.8</ele>
        <time>2021-05-03T13:31:54Z</time>
      </trkpt>
      <trkpt lat="45.16745" lon="5.23137">
        <ele>375.8</ele>
        <time>2021-05-03T13:31:55Z</time>
      </trkpt>
      <trkpt lat="45.1674" lon="5.23139">
        <ele>375.7</ele>
        <time>2021-05-03T13:31:56Z</time>
      </trkpt>
      <trkpt lat="45.16736" lon="5.23142">
        <ele>375.7</ele>
        <time>2021-05-03T13:31:57Z</time>
      </trkpt>
      <trkpt lat="45.16731" lon="5.23145">
        <ele>375.6</ele>
        <time>2021-05-03T13:31:58Z</time>
      </trkpt>
      <trkpt lat="45.16726" lon="5.23149">
        <ele>375.6</ele>
        <time>2021-05-03T13:31:59Z</time>
      </trkpt>
      <trkpt lat="45.16722" lon="5.23152">
        <ele>375.5</ele>
        <time>2021-05-03T13:32:00Z</time>
      </trkpt>
      <trkpt lat="45.16717" lon="5.23154">
        <ele>375.4</ele>
        <time>2021-05-03T13:32:01Z</time>
      </trkpt>
      <trkpt lat="45.16712" lon="5.23157">
        <ele>375.3</ele>
        <time>2021-05-03T13:32:02Z</time>
      </trkpt>
      <trkpt lat="45.16707" lon="5.2316">
        <ele>375.2</ele>
        <time>2021-05-03T13:32:03Z</time>
      </trkpt>
      <trkpt lat="45.16702" lon="5.23163">
        <ele>375.1</ele>
        <time>2021-05-03T13:32:04Z</time>
      </trkpt>
      <trkpt lat="45.16697" lon="5.23166">
        <ele>374.9</ele>
        <time>2021-05-03T13:32:05Z</time>
      </trkpt>
      <trkpt lat="45.16691" lon="5.23169">
        <ele>374.8</ele>
        <time>2021-05-03T13:32:06Z</time>
      </trkpt>
      <trkpt lat="45.16685" lon="5.23173">
        <ele>374.7</ele>
        <time>2021-05-03T13:32:07Z</time>
      </trkpt>
      <trkpt lat="45.16679" lon="5.23176">
        <ele>374.6</ele>
        <time>2021-05-03T13:32:08Z</time>
      </trkpt>
      <trkpt lat="45.16673" lon="5.23179">
        <ele>374.5</ele>
        <time>2021-05-03T13:32:09Z</time>
      </trkpt>
      <trkpt lat="45.16667" lon="5.23183">
        <ele>374.4</ele>
        <time>2021-05-03T13:32:10Z</time>
      </trkpt>
      <trkpt lat="45.1666" lon="5.23186">
        <ele>374.2</ele>
        <time>2021-05-03T13:32:11Z</time>
      </trkpt>
      <trkpt lat="45.16654" lon="5.2319">
        <ele>374</ele>
        <time>2021-05-03T13:32:12Z</time>
      </trkpt>
      <trkpt lat="45.16648" lon="5.23194">
        <ele>373.9</ele>
        <time>2021-05-03T13:32:13Z</time>
      </trkpt>
      <trkpt lat="45.16642" lon="5.23198">
        <ele>373.7</ele>
        <time>2021-05-03T13:32:14Z</time>
      </trkpt>
      <trkpt lat="45.16635" lon="5.23202">
        <ele>373.5</ele>
        <time>2021-05-03T13:32:15Z</time>
      </trkpt>
      <trkpt lat="45.16628" lon="5.23206">
        <ele>373.3</ele>
        <time>2021-05-03T13:32:16Z</time>
      </trkpt>
      <trkpt lat="45.16621" lon="5.2321">
        <ele>373.1</ele>
        <time>2021-05-03T13:32:17Z</time>
      </trkpt>
      <trkpt lat="45.16614" lon="5.23214">
        <ele>372.9</ele>
        <time>2021-05-03T13:32:18Z</time>
      </trkpt>
      <trkpt lat="45.16608" lon="5.23218">
        <ele>372.8</ele>
        <time>2021-05-03T13:32:19Z</time>
      </trkpt>
      <trkpt lat="45.16601" lon="5.23222">
        <ele>372.6</ele>
        <time>2021-05-03T13:32:20Z</time>
      </trkpt>
      <trkpt lat="45.16595" lon="5.23226">
        <ele>372.4</ele>
        <time>2021-05-03T13:32:21Z</time>
      </trkpt>
      <trkpt lat="45.16588" lon="5.23231">
        <ele>372.2</ele>
        <time>2021-05-03T13:32:22Z</time>
      </trkpt>
      <trkpt lat="45.16581" lon="5.23234">
        <ele>372</ele>
        <time>2021-05-03T13:32:23Z</time>
      </trkpt>
      <trkpt lat="45.16574" lon="5.23239">
        <ele>371.8</ele>
        <time>2021-05-03T13:32:24Z</time>
      </trkpt>
      <trkpt lat="45.16568" lon="5.23242">
        <ele>371.6</ele>
        <time>2021-05-03T13:32:25Z</time>
      </trkpt>
      <trkpt lat="45.16561" lon="5.23246">
        <ele>371.3</ele>
        <time>2021-05-03T13:32:26Z</time>
      </trkpt>
      <trkpt lat="45.16554" lon="5.2325">
        <ele>370.9</ele>
        <time>2021-05-03T13:32:27Z</time>
      </trkpt>
      <trkpt lat="45.16548" lon="5.23255">
        <ele>370.6</ele>
        <time>2021-05-03T13:32:28Z</time>
      </trkpt>
      <trkpt lat="45.16541" lon="5.2326">
        <ele>370.2</ele>
        <time>2021-05-03T13:32:29Z</time>
      </trkpt>
      <trkpt lat="45.16535" lon="5.23266">
        <ele>369.9</ele>
        <time>2021-05-03T13:32:30Z</time>
      </trkpt>
      <trkpt lat="45.16528" lon="5.23273">
        <ele>369.5</ele>
        <time>2021-05-03T13:32:31Z</time>
      </trkpt>
      <trkpt lat="45.16522" lon="5.2328">
        <ele>369.1</ele>
        <time>2021-05-03T13:32:32Z</time>
      </trkpt>
      <trkpt lat="45.16516" lon="5.23288">
        <ele>368.7</ele>
        <time>2021-05-03T13:32:33Z</time>
      </trkpt>
      <trkpt lat="45.1651" lon="5.23295">
        <ele>368.3</ele>
        <time>2021-05-03T13:32:34Z</time>
      </trkpt>
      <trkpt lat="45.16504" lon="5.23302">
        <ele>367.9</ele>
        <time>2021-05-03T13:32:35Z</time>
      </trkpt>
      <trkpt lat="45.16497" lon="5.23309">
        <ele>367.4</ele>
        <time>2021-05-03T13:32:36Z</time>
      </trkpt>
      <trkpt lat="45.1649" lon="5.23316">
        <ele>367</ele>
        <time>2021-05-03T13:32:37Z</time>
      </trkpt>
      <trkpt lat="45.16483" lon="5.23324">
        <ele>366.4</ele>
        <time>2021-05-03T13:32:38Z</time>
      </trkpt>
      <trkpt lat="45.16475" lon="5.23332">
        <ele>365.9</ele>
        <time>2021-05-03T13:32:39Z</time>
      </trkpt>
      <trkpt lat="45.16468" lon="5.23339">
        <ele>365.3</ele>
        <time>2021-05-03T13:32:40Z</time>
      </trkpt>
      <trkpt lat="45.1646" lon="5.23346">
        <ele>364.8</ele>
        <time>2021-05-03T13:32:41Z</time>
      </trkpt>
      <trkpt lat="45.16452" lon="5.23353">
        <ele>364.2</ele>
        <time>2021-05-03T13:32:42Z</time>
      </trkpt>
      <trkpt lat="45.16444" lon="5.23361">
        <ele>363.7</ele>
        <time>2021-05-03T13:32:43Z</time>
      </trkpt>
      <trkpt lat="45.16436" lon="5.23369">
        <ele>363.2</ele>
        <time>2021-05-03T13:32:44Z</time>
      </trkpt>
      <trkpt lat="45.16428" lon="5.23377">
        <ele>362.7</ele>
        <time>2021-05-03T13:32:45Z</time>
      </trkpt>
      <trkpt lat="45.16421" lon="5.23385">
        <ele>362.2</ele>
        <time>2021-05-03T13:32:46Z</time>
      </trkpt>
      <trkpt lat="45.16414" lon="5.23393">
        <ele>361.8</ele>
        <time>2021-05-03T13:32:47Z</time>
      </trkpt>
      <trkpt lat="45.16407" lon="5.23399">
        <ele>361.5</ele>
        <time>2021-05-03T13:32:48Z</time>
      </trkpt>
      <trkpt lat="45.16402" lon="5.23405">
        <ele>361.3</ele>
        <time>2021-05-03T13:32:49Z</time>
      </trkpt>
      <trkpt lat="45.16397" lon="5.23409">
        <ele>361.2</ele>
        <time>2021-05-03T13:32:50Z</time>
      </trkpt>
      <trkpt lat="45.16389" lon="5.23417">
        <ele>361</ele>
        <time>2021-05-03T13:32:52Z</time>
      </trkpt>
      <trkpt lat="45.16384" lon="5.2342">
        <ele>360.9</ele>
        <time>2021-05-03T13:32:53Z</time>
      </trkpt>
      <trkpt lat="45.16381" lon="5.23422">
        <ele>360.8</ele>
        <time>2021-05-03T13:32:54Z</time>
      </trkpt>
      <trkpt lat="45.16379" lon="5.23424">
        <ele>360.8</ele>
        <time>2021-05-03T13:32:55Z</time>
      </trkpt>
      <trkpt lat="45.16378" lon="5.23424">
        <ele>360.8</ele>
        <time>2021-05-03T13:32:56Z</time>
      </trkpt>
      <trkpt lat="45.16377" lon="5.23425">
        <ele>360.8</ele>
        <time>2021-05-03T13:32:57Z</time>
      </trkpt>
      <trkpt lat="45.16377" lon="5.23425">
        <ele>360.8</ele>
        <time>2021-05-03T13:32:58Z</time>
      </trkpt>
      <trkpt lat="45.16376" lon="5.23426">
        <ele>360.8</ele>
        <time>2021-05-03T13:32:59Z</time>
      </trkpt>
      <trkpt lat="45.16376" lon="5.23426">
        <ele>360.8</ele>
        <time>2021-05-03T13:33:00Z</time>
      </trkpt>
      <trkpt lat="45.16375" lon="5.23427">
        <ele>360.8</ele>
        <time>2021-05-03T13:33:01Z</time>
      </trkpt>
      <trkpt lat="45.16375" lon="5.23427">
        <ele>360.8</ele>
        <time>2021-05-03T13:33:03Z</time>
      </trkpt>
      <trkpt lat="45.16375" lon="5.23428">
        <ele>360.8</ele>
        <time>2021-05-03T13:33:04Z</time>
      </trkpt>
      <trkpt lat="45.16374" lon="5.23428">
        <ele>360.8</ele>
        <time>2021-05-03T13:33:06Z</time>
      </trkpt>
      <trkpt lat="45.16374" lon="5.23429">
        <ele>360.8</ele>
        <time>2021-05-03T13:33:08Z</time>
      </trkpt>
      <trkpt lat="45.16374" lon="5.23429">
        <ele>360.8</ele>
        <time>2021-05-03T13:33:09Z</time>
      </trkpt>
      <trkpt lat="45.16373" lon="5.2343">
        <ele>360.8</ele>
        <time>2021-05-03T13:33:10Z</time>
      </trkpt>
      <trkpt lat="45.16371" lon="5.23434">
        <ele>360.7</ele>
        <time>2021-05-03T13:33:12Z</time>
      </trkpt>
      <trkpt lat="45.1637" lon="5.23436">
        <ele>360.7</ele>
        <time>2021-05-03T13:33:13Z</time>
      </trkpt>
      <trkpt lat="45.16369" lon="5.23439">
        <ele>360.7</ele>
        <time>2021-05-03T13:33:15Z</time>
      </trkpt>
      <trkpt lat="45.16366" lon="5.23442">
        <ele>360.7</ele>
        <time>2021-05-03T13:33:16Z</time>
      </trkpt>
      <trkpt lat="45.16363" lon="5.23447">
        <ele>360.6</ele>
        <time>2021-05-03T13:33:17Z</time>
      </trkpt>
      <trkpt lat="45.16356" lon="5.23454">
        <ele>360.6</ele>
        <time>2021-05-03T13:33:19Z</time>
      </trkpt>
      <trkpt lat="45.16351" lon="5.23457">
        <ele>360.6</ele>
        <time>2021-05-03T13:33:20Z</time>
      </trkpt>
      <trkpt lat="45.16345" lon="5.23462">
        <ele>360.6</ele>
        <time>2021-05-03T13:33:21Z</time>
      </trkpt>
      <trkpt lat="45.16341" lon="5.23465">
        <ele>360.6</ele>
        <time>2021-05-03T13:33:23Z</time>
      </trkpt>
      <trkpt lat="45.16337" lon="5.2347">
        <ele>360.6</ele>
        <time>2021-05-03T13:33:24Z</time>
      </trkpt>
      <trkpt lat="45.1633" lon="5.23477">
        <ele>360.6</ele>
        <time>2021-05-03T13:33:26Z</time>
      </trkpt>
      <trkpt lat="45.16323" lon="5.23481">
        <ele>360.6</ele>
        <time>2021-05-03T13:33:28Z</time>
      </trkpt>
      <trkpt lat="45.1632" lon="5.23485">
        <ele>360.7</ele>
        <time>2021-05-03T13:33:29Z</time>
      </trkpt>
      <trkpt lat="45.16316" lon="5.23487">
        <ele>360.7</ele>
        <time>2021-05-03T13:33:30Z</time>
      </trkpt>
      <trkpt lat="45.16315" lon="5.23487">
        <ele>360.7</ele>
        <time>2021-05-03T13:33:31Z</time>
      </trkpt>
      <trkpt lat="45.1631" lon="5.23489">
        <ele>360.7</ele>
        <time>2021-05-03T13:33:32Z</time>
      </trkpt>
      <trkpt lat="45.16301" lon="5.23501">
        <ele>360.5</ele>
        <time>2021-05-03T13:33:34Z</time>
      </trkpt>
      <trkpt lat="45.16297" lon="5.23506">
        <ele>360.4</ele>
        <time>2021-05-03T13:33:35Z</time>
      </trkpt>
      <trkpt lat="45.16287" lon="5.2351">
        <ele>360</ele>
        <time>2021-05-03T13:33:37Z</time>
      </trkpt>
      <trkpt lat="45.16281" lon="5.23513">
        <ele>359.8</ele>
        <time>2021-05-03T13:33:38Z</time>
      </trkpt>
      <trkpt lat="45.16276" lon="5.23516">
        <ele>359.5</ele>
        <time>2021-05-03T13:33:39Z</time>
      </trkpt>
      <trkpt lat="45.16271" lon="5.2352">
        <ele>359.3</ele>
        <time>2021-05-03T13:33:40Z</time>
      </trkpt>
      <trkpt lat="45.16265" lon="5.23523">
        <ele>358.9</ele>
        <time>2021-05-03T13:33:41Z</time>
      </trkpt>
      <trkpt lat="45.16259" lon="5.23527">
        <ele>358.6</ele>
        <time>2021-05-03T13:33:42Z</time>
      </trkpt>
      <trkpt lat="45.16253" lon="5.23531">
        <ele>358.2</ele>
        <time>2021-05-03T13:33:43Z</time>
      </trkpt>
      <trkpt lat="45.16247" lon="5.23536">
        <ele>357.9</ele>
        <time>2021-05-03T13:33:44Z</time>
      </trkpt>
      <trkpt lat="45.1624" lon="5.23541">
        <ele>357.5</ele>
        <time>2021-05-03T13:33:45Z</time>
      </trkpt>
      <trkpt lat="45.16234" lon="5.23546">
        <ele>357.2</ele>
        <time>2021-05-03T13:33:46Z</time>
      </trkpt>
      <trkpt lat="45.16228" lon="5.23552">
        <ele>356.8</ele>
        <time>2021-05-03T13:33:47Z</time>
      </trkpt>
      <trkpt lat="45.16222" lon="5.23559">
        <ele>356.5</ele>
        <time>2021-05-03T13:33:48Z</time>
      </trkpt>
      <trkpt lat="45.16216" lon="5.23567">
        <ele>356.1</ele>
        <time>2021-05-03T13:33:49Z</time>
      </trkpt>
      <trkpt lat="45.1621" lon="5.23573">
        <ele>355.8</ele>
        <time>2021-05-03T13:33:50Z</time>
      </trkpt>
      <trkpt lat="45.16204" lon="5.23581">
        <ele>355.4</ele>
        <time>2021-05-03T13:33:51Z</time>
      </trkpt>
      <trkpt lat="45.16197" lon="5.23588">
        <ele>355.1</ele>
        <time>2021-05-03T13:33:52Z</time>
      </trkpt>
      <trkpt lat="45.16191" lon="5.23595">
        <ele>354.7</ele>
        <time>2021-05-03T13:33:53Z</time>
      </trkpt>
      <trkpt lat="45.16184" lon="5.23602">
        <ele>354.4</ele>
        <time>2021-05-03T13:33:54Z</time>
      </trkpt>
      <trkpt lat="45.16177" lon="5.23608">
        <ele>354</ele>
        <time>2021-05-03T13:33:55Z</time>
      </trkpt>
      <trkpt lat="45.1617" lon="5.23615">
        <ele>353.6</ele>
        <time>2021-05-03T13:33:56Z</time>
      </trkpt>
      <trkpt lat="45.16164" lon="5.23621">
        <ele>353.2</ele>
        <time>2021-05-03T13:33:57Z</time>
      </trkpt>
      <trkpt lat="45.16156" lon="5.23627">
        <ele>352.8</ele>
        <time>2021-05-03T13:33:58Z</time>
      </trkpt>
      <trkpt lat="45.16147" lon="5.23633">
        <ele>352.3</ele>
        <time>2021-05-03T13:33:59Z</time>
      </trkpt>
      <trkpt lat="45.16139" lon="5.23638">
        <ele>352</ele>
        <time>2021-05-03T13:34:00Z</time>
      </trkpt>
      <trkpt lat="45.16131" lon="5.23643">
        <ele>351.6</ele>
        <time>2021-05-03T13:34:01Z</time>
      </trkpt>
      <trkpt lat="45.16123" lon="5.23648">
        <ele>351.2</ele>
        <time>2021-05-03T13:34:02Z</time>
      </trkpt>
      <trkpt lat="45.16116" lon="5.23654">
        <ele>350.8</ele>
        <time>2021-05-03T13:34:03Z</time>
      </trkpt>
      <trkpt lat="45.16108" lon="5.23659">
        <ele>350.5</ele>
        <time>2021-05-03T13:34:04Z</time>
      </trkpt>
      <trkpt lat="45.16101" lon="5.23664">
        <ele>350.1</ele>
        <time>2021-05-03T13:34:05Z</time>
      </trkpt>
      <trkpt lat="45.16093" lon="5.2367">
        <ele>349.8</ele>
        <time>2021-05-03T13:34:06Z</time>
      </trkpt>
      <trkpt lat="45.16085" lon="5.23675">
        <ele>349.5</ele>
        <time>2021-05-03T13:34:07Z</time>
      </trkpt>
      <trkpt lat="45.16078" lon="5.23681">
        <ele>349.2</ele>
        <time>2021-05-03T13:34:08Z</time>
      </trkpt>
      <trkpt lat="45.1607" lon="5.23686">
        <ele>348.8</ele>
        <time>2021-05-03T13:34:09Z</time>
      </trkpt>
      <trkpt lat="45.16063" lon="5.23691">
        <ele>348.4</ele>
        <time>2021-05-03T13:34:10Z</time>
      </trkpt>
      <trkpt lat="45.16055" lon="5.23697">
        <ele>348</ele>
        <time>2021-05-03T13:34:11Z</time>
      </trkpt>
      <trkpt lat="45.16048" lon="5.23702">
        <ele>347.7</ele>
        <time>2021-05-03T13:34:12Z</time>
      </trkpt>
      <trkpt lat="45.16041" lon="5.23707">
        <ele>347.4</ele>
        <time>2021-05-03T13:34:13Z</time>
      </trkpt>
      <trkpt lat="45.16036" lon="5.23712">
        <ele>347.1</ele>
        <time>2021-05-03T13:34:14Z</time>
      </trkpt>
      <trkpt lat="45.16032" lon="5.23716">
        <ele>346.9</ele>
        <time>2021-05-03T13:34:15Z</time>
      </trkpt>
      <trkpt lat="45.16029" lon="5.23719">
        <ele>346.8</ele>
        <time>2021-05-03T13:34:16Z</time>
      </trkpt>
      <trkpt lat="45.16028" lon="5.2372">
        <ele>346.8</ele>
        <time>2021-05-03T13:34:17Z</time>
      </trkpt>
      <trkpt lat="45.16026" lon="5.23721">
        <ele>346.7</ele>
        <time>2021-05-03T13:34:18Z</time>
      </trkpt>
      <trkpt lat="45.16025" lon="5.23722">
        <ele>346.7</ele>
        <time>2021-05-03T13:34:19Z</time>
      </trkpt>
      <trkpt lat="45.16025" lon="5.23723">
        <ele>346.7</ele>
        <time>2021-05-03T13:34:20Z</time>
      </trkpt>
      <trkpt lat="45.16025" lon="5.23723">
        <ele>346.7</ele>
        <time>2021-05-03T13:34:21Z</time>
      </trkpt>
      <trkpt lat="45.16025" lon="5.23724">
        <ele>346.6</ele>
        <time>2021-05-03T13:34:22Z</time>
      </trkpt>
      <trkpt lat="45.16025" lon="5.23725">
        <ele>346.6</ele>
        <time>2021-05-03T13:34:23Z</time>
      </trkpt>
      <trkpt lat="45.16025" lon="5.23725">
        <ele>346.6</ele>
        <time>2021-05-03T13:34:24Z</time>
      </trkpt>
      <trkpt lat="45.16025" lon="5.23726">
        <ele>346.6</ele>
        <time>2021-05-03T13:34:25Z</time>
      </trkpt>
      <trkpt lat="45.16025" lon="5.23727">
        <ele>346.6</ele>
        <time>2021-05-03T13:34:26Z</time>
      </trkpt>
      <trkpt lat="45.16025" lon="5.23727">
        <ele>346.6</ele>
        <time>2021-05-03T13:34:27Z</time>
      </trkpt>
      <trkpt lat="45.16025" lon="5.23728">
        <ele>346.6</ele>
        <time>2021-05-03T13:34:28Z</time>
      </trkpt>
      <trkpt lat="45.16024" lon="5.23729">
        <ele>346.5</ele>
        <time>2021-05-03T13:34:29Z</time>
      </trkpt>
      <trkpt lat="45.16024" lon="5.23729">
        <ele>346.5</ele>
        <time>2021-05-03T13:34:30Z</time>
      </trkpt>
      <trkpt lat="45.16024" lon="5.2373">
        <ele>346.5</ele>
        <time>2021-05-03T13:34:31Z</time>
      </trkpt>
      <trkpt lat="45.16024" lon="5.23731">
        <ele>346.5</ele>
        <time>2021-05-03T13:37:30Z</time>
      </trkpt>
      <trkpt lat="45.16024" lon="5.23731">
        <ele>346.5</ele>
        <time>2021-05-03T13:37:31Z</time>
      </trkpt>
      <trkpt lat="45.16024" lon="5.23732">
        <ele>346.5</ele>
        <time>2021-05-03T13:37:32Z</time>
      </trkpt>
      <trkpt lat="45.16024" lon="5.23733">
        <ele>346.5</ele>
        <time>2021-05-03T13:37:33Z</time>
      </trkpt>
      <trkpt lat="45.16018" lon="5.23739">
        <ele>346.2</ele>
        <time>2021-05-03T13:37:34Z</time>
      </trkpt>
      <trkpt lat="45.16012" lon="5.23747">
        <ele>345.9</ele>
        <time>2021-05-03T13:37:36Z</time>
      </trkpt>
      <trkpt lat="45.16007" lon="5.23751">
        <ele>345.7</ele>
        <time>2021-05-03T13:37:37Z</time>
      </trkpt>
      <trkpt lat="45.16003" lon="5.23755">
        <ele>345.4</ele>
        <time>2021-05-03T13:37:38Z</time>
      </trkpt>
      <trkpt lat="45.15997" lon="5.23759">
        <ele>345.2</ele>
        <time>2021-05-03T13:37:39Z</time>
      </trkpt>
      <trkpt lat="45.15991" lon="5.23762">
        <ele>344.9</ele>
        <time>2021-05-03T13:37:40Z</time>
      </trkpt>
      <trkpt lat="45.15985" lon="5.23765">
        <ele>344.6</ele>
        <time>2021-05-03T13:37:41Z</time>
      </trkpt>
      <trkpt lat="45.15978" lon="5.23769">
        <ele>344.3</ele>
        <time>2021-05-03T13:37:42Z</time>
      </trkpt>
      <trkpt lat="45.15971" lon="5.23772">
        <ele>343.9</ele>
        <time>2021-05-03T13:37:43Z</time>
      </trkpt>
      <trkpt lat="45.15964" lon="5.23776">
        <ele>343.6</ele>
        <time>2021-05-03T13:37:44Z</time>
      </trkpt>
      <trkpt lat="45.15957" lon="5.23779">
        <ele>343.3</ele>
        <time>2021-05-03T13:37:45Z</time>
      </trkpt>
      <trkpt lat="45.1595" lon="5.23783">
        <ele>342.9</ele>
        <time>2021-05-03T13:37:46Z</time>
      </trkpt>
      <trkpt lat="45.15943" lon="5.23787">
        <ele>342.7</ele>
        <time>2021-05-03T13:37:47Z</time>
      </trkpt>
      <trkpt lat="45.15936" lon="5.23792">
        <ele>342.4</ele>
        <time>2021-05-03T13:37:48Z</time>
      </trkpt>
      <trkpt lat="45.15928" lon="5.23796">
        <ele>342.1</ele>
        <time>2021-05-03T13:37:49Z</time>
      </trkpt>
      <trkpt lat="45.15921" lon="5.238">
        <ele>341.7</ele>
        <time>2021-05-03T13:37:50Z</time>
      </trkpt>
      <trkpt lat="45.15913" lon="5.23804">
        <ele>341.4</ele>
        <time>2021-05-03T13:37:51Z</time>
      </trkpt>
      <trkpt lat="45.15906" lon="5.23809">
        <ele>341.1</ele>
        <time>2021-05-03T13:37:52Z</time>
      </trkpt>
      <trkpt lat="45.15898" lon="5.23813">
        <ele>340.7</ele>
        <time>2021-05-03T13:37:53Z</time>
      </trkpt>
      <trkpt lat="45.1589" lon="5.23817">
        <ele>340.4</ele>
        <time>2021-05-03T13:37:54Z</time>
      </trkpt>
      <trkpt lat="45.15882" lon="5.23821">
        <ele>340.1</ele>
        <time>2021-05-03T13:37:55Z</time>
      </trkpt>
      <trkpt lat="45.15874" lon="5.23825">
        <ele>339.7</ele>
        <time>2021-05-03T13:37:56Z</time>
      </trkpt>
      <trkpt lat="45.15866" lon="5.23829">
        <ele>339.3</ele>
        <time>2021-05-03T13:37:57Z</time>
      </trkpt>
      <trkpt lat="45.15857" lon="5.23833">
        <ele>338.9</ele>
        <time>2021-05-03T13:37:58Z</time>
      </trkpt>
      <trkpt lat="45.15849" lon="5.23837">
        <ele>338.5</ele>
        <time>2021-05-03T13:37:59Z</time>
      </trkpt>
      <trkpt lat="45.1584" lon="5.23842">
        <ele>338.1</ele>
        <time>2021-05-03T13:38:00Z</time>
      </trkpt>
      <trkpt lat="45.15832" lon="5.23846">
        <ele>337.7</ele>
        <time>2021-05-03T13:38:01Z</time>
      </trkpt>
      <trkpt lat="45.15823" lon="5.23851">
        <ele>337.2</ele>
        <time>2021-05-03T13:38:02Z</time>
      </trkpt>
      <trkpt lat="45.15815" lon="5.23855">
        <ele>336.8</ele>
        <time>2021-05-03T13:38:03Z</time>
      </trkpt>
      <trkpt lat="45.15806" lon="5.2386">
        <ele>336.3</ele>
        <time>2021-05-03T13:38:04Z</time>
      </trkpt>
      <trkpt lat="45.15798" lon="5.23865">
        <ele>335.9</ele>
        <time>2021-05-03T13:38:05Z</time>
      </trkpt>
      <trkpt lat="45.1579" lon="5.23871">
        <ele>335.4</ele>
        <time>2021-05-03T13:38:06Z</time>
      </trkpt>
      <trkpt lat="45.15783" lon="5.2388">
        <ele>334.9</ele>
        <time>2021-05-03T13:38:07Z</time>
      </trkpt>
      <trkpt lat="45.15776" lon="5.2389">
        <ele>334.4</ele>
        <time>2021-05-03T13:38:08Z</time>
      </trkpt>
      <trkpt lat="45.15771" lon="5.23901">
        <ele>333.9</ele>
        <time>2021-05-03T13:38:09Z</time>
      </trkpt>
      <trkpt lat="45.15768" lon="5.23915">
        <ele>333.4</ele>
        <time>2021-05-03T13:38:10Z</time>
      </trkpt>
      <trkpt lat="45.15768" lon="5.23929">
        <ele>333.1</ele>
        <time>2021-05-03T13:38:11Z</time>
      </trkpt>
      <trkpt lat="45.15769" lon="5.23943">
        <ele>332.7</ele>
        <time>2021-05-03T13:38:12Z</time>
      </trkpt>
      <trkpt lat="45.15771" lon="5.23956">
        <ele>332.4</ele>
        <time>2021-05-03T13:38:13Z</time>
      </trkpt>
      <trkpt lat="45.15773" lon="5.23969">
        <ele>332</ele>
        <time>2021-05-03T13:38:14Z</time>
      </trkpt>
      <trkpt lat="45.15773" lon="5.23983">
        <ele>331.6</ele>
        <time>2021-05-03T13:38:15Z</time>
      </trkpt>
      <trkpt lat="45.15771" lon="5.23996">
        <ele>331.2</ele>
        <time>2021-05-03T13:38:16Z</time>
      </trkpt>
      <trkpt lat="45.15767" lon="5.24008">
        <ele>330.7</ele>
        <time>2021-05-03T13:38:17Z</time>
      </trkpt>
      <trkpt lat="45.1576" lon="5.24019">
        <ele>330.2</ele>
        <time>2021-05-03T13:38:18Z</time>
      </trkpt>
      <trkpt lat="45.15754" lon="5.2403">
        <ele>329.8</ele>
        <time>2021-05-03T13:38:19Z</time>
      </trkpt>
      <trkpt lat="45.15747" lon="5.24041">
        <ele>329.3</ele>
        <time>2021-05-03T13:38:20Z</time>
      </trkpt>
      <trkpt lat="45.15741" lon="5.24052">
        <ele>328.9</ele>
        <time>2021-05-03T13:38:21Z</time>
      </trkpt>
      <trkpt lat="45.15734" lon="5.24063">
        <ele>328.5</ele>
        <time>2021-05-03T13:38:22Z</time>
      </trkpt>
      <trkpt lat="45.15726" lon="5.24073">
        <ele>328.1</ele>
        <time>2021-05-03T13:38:23Z</time>
      </trkpt>
      <trkpt lat="45.15718" lon="5.24082">
        <ele>327.7</ele>
        <time>2021-05-03T13:38:24Z</time>
      </trkpt>
      <trkpt lat="45.15709" lon="5.2409">
        <ele>327.3</ele>
        <time>2021-05-03T13:38:25Z</time>
      </trkpt>
      <trkpt lat="45.157" lon="5.24097">
        <ele>326.9</ele>
        <time>2021-05-03T13:38:26Z</time>
      </trkpt>
      <trkpt lat="45.15692" lon="5.24105">
        <ele>326.5</ele>
        <time>2021-05-03T13:38:27Z</time>
      </trkpt>
      <trkpt lat="45.15683" lon="5.24112">
        <ele>326</ele>
        <time>2021-05-03T13:38:28Z</time>
      </trkpt>
      <trkpt lat="45.15674" lon="5.24119">
        <ele>325.7</ele>
        <time>2021-05-03T13:38:29Z</time>
      </trkpt>
      <trkpt lat="45.15665" lon="5.24127">
        <ele>325.3</ele>
        <time>2021-05-03T13:38:30Z</time>
      </trkpt>
      <trkpt lat="45.15657" lon="5.24134">
        <ele>324.9</ele>
        <time>2021-05-03T13:38:31Z</time>
      </trkpt>
      <trkpt lat="45.15649" lon="5.24141">
        <ele>324.5</ele>
        <time>2021-05-03T13:38:32Z</time>
      </trkpt>
      <trkpt lat="45.1564" lon="5.24148">
        <ele>324.2</ele>
        <time>2021-05-03T13:38:33Z</time>
      </trkpt>
      <trkpt lat="45.15631" lon="5.24156">
        <ele>323.8</ele>
        <time>2021-05-03T13:38:34Z</time>
      </trkpt>
      <trkpt lat="45.15623" lon="5.24163">
        <ele>323.4</ele>
        <time>2021-05-03T13:38:35Z</time>
      </trkpt>
      <trkpt lat="45.15614" lon="5.24171">
        <ele>323.1</ele>
        <time>2021-05-03T13:38:36Z</time>
      </trkpt>
      <trkpt lat="45.15606" lon="5.24179">
        <ele>322.7</ele>
        <time>2021-05-03T13:38:37Z</time>
      </trkpt>
      <trkpt lat="45.15598" lon="5.24189">
        <ele>322.3</ele>
        <time>2021-05-03T13:38:38Z</time>
      </trkpt>
      <trkpt lat="45.15591" lon="5.24201">
        <ele>321.9</ele>
        <time>2021-05-03T13:38:39Z</time>
      </trkpt>
      <trkpt lat="45.15585" lon="5.24213">
        <ele>321.4</ele>
        <time>2021-05-03T13:38:40Z</time>
      </trkpt>
      <trkpt lat="45.1558" lon="5.24225">
        <ele>321</ele>
        <time>2021-05-03T13:38:41Z</time>
      </trkpt>
      <trkpt lat="45.15575" lon="5.24237">
        <ele>320.7</ele>
        <time>2021-05-03T13:38:42Z</time>
      </trkpt>
      <trkpt lat="45.15571" lon="5.24249">
        <ele>320.4</ele>
        <time>2021-05-03T13:38:43Z</time>
      </trkpt>
      <trkpt lat="45.15567" lon="5.24261">
        <ele>320.2</ele>
        <time>2021-05-03T13:38:44Z</time>
      </trkpt>
      <trkpt lat="45.15561" lon="5.24273">
        <ele>319.8</ele>
        <time>2021-05-03T13:38:45Z</time>
      </trkpt>
      <trkpt lat="45.15554" lon="5.24285">
        <ele>319.3</ele>
        <time>2021-05-03T13:38:46Z</time>
      </trkpt>
      <trkpt lat="45.15547" lon="5.24294">
        <ele>318.8</ele>
        <time>2021-05-03T13:38:47Z</time>
      </trkpt>
      <trkpt lat="45.15538" lon="5.24301">
        <ele>318.2</ele>
        <time>2021-05-03T13:38:48Z</time>
      </trkpt>
      <trkpt lat="45.15527" lon="5.24307">
        <ele>317.5</ele>
        <time>2021-05-03T13:38:49Z</time>
      </trkpt>
      <trkpt lat="45.15518" lon="5.24312">
        <ele>317</ele>
        <time>2021-05-03T13:38:50Z</time>
      </trkpt>
      <trkpt lat="45.15507" lon="5.24317">
        <ele>316.5</ele>
        <time>2021-05-03T13:38:51Z</time>
      </trkpt>
      <trkpt lat="45.15496" lon="5.24323">
        <ele>315.9</ele>
        <time>2021-05-03T13:38:52Z</time>
      </trkpt>
      <trkpt lat="45.15486" lon="5.2433">
        <ele>315.4</ele>
        <time>2021-05-03T13:38:53Z</time>
      </trkpt>
      <trkpt lat="45.15476" lon="5.24337">
        <ele>314.9</ele>
        <time>2021-05-03T13:38:54Z</time>
      </trkpt>
      <trkpt lat="45.15467" lon="5.24343">
        <ele>314.5</ele>
        <time>2021-05-03T13:38:55Z</time>
      </trkpt>
      <trkpt lat="45.15458" lon="5.24351">
        <ele>314.1</ele>
        <time>2021-05-03T13:38:56Z</time>
      </trkpt>
      <trkpt lat="45.15449" lon="5.24358">
        <ele>313.7</ele>
        <time>2021-05-03T13:38:57Z</time>
      </trkpt>
      <trkpt lat="45.1544" lon="5.24366">
        <ele>313.3</ele>
        <time>2021-05-03T13:38:58Z</time>
      </trkpt>
      <trkpt lat="45.15431" lon="5.24375">
        <ele>312.9</ele>
        <time>2021-05-03T13:38:59Z</time>
      </trkpt>
      <trkpt lat="45.15424" lon="5.24384">
        <ele>312.5</ele>
        <time>2021-05-03T13:39:00Z</time>
      </trkpt>
      <trkpt lat="45.15417" lon="5.24395">
        <ele>312.1</ele>
        <time>2021-05-03T13:39:01Z</time>
      </trkpt>
      <trkpt lat="45.15412" lon="5.24406">
        <ele>311.9</ele>
        <time>2021-05-03T13:39:02Z</time>
      </trkpt>
      <trkpt lat="45.15408" lon="5.24418">
        <ele>311.6</ele>
        <time>2021-05-03T13:39:03Z</time>
      </trkpt>
      <trkpt lat="45.15406" lon="5.24432">
        <ele>311.5</ele>
        <time>2021-05-03T13:39:04Z</time>
      </trkpt>
      <trkpt lat="45.15404" lon="5.24446">
        <ele>311.3</ele>
        <time>2021-05-03T13:39:05Z</time>
      </trkpt>
      <trkpt lat="45.15402" lon="5.2446">
        <ele>311.1</ele>
        <time>2021-05-03T13:39:06Z</time>
      </trkpt>
      <trkpt lat="45.154" lon="5.24473">
        <ele>310.9</ele>
        <time>2021-05-03T13:39:07Z</time>
      </trkpt>
      <trkpt lat="45.15397" lon="5.24485">
        <ele>310.6</ele>
        <time>2021-05-03T13:39:08Z</time>
      </trkpt>
      <trkpt lat="45.15393" lon="5.24496">
        <ele>310.2</ele>
        <time>2021-05-03T13:39:09Z</time>
      </trkpt>
      <trkpt lat="45.15387" lon="5.24508">
        <ele>309.8</ele>
        <time>2021-05-03T13:39:10Z</time>
      </trkpt>
      <trkpt lat="45.1538" lon="5.24519">
        <ele>309.4</ele>
        <time>2021-05-03T13:39:11Z</time>
      </trkpt>
      <trkpt lat="45.15374" lon="5.2453">
        <ele>309</ele>
        <time>2021-05-03T13:39:12Z</time>
      </trkpt>
      <trkpt lat="45.15367" lon="5.24541">
        <ele>308.5</ele>
        <time>2021-05-03T13:39:13Z</time>
      </trkpt>
      <trkpt lat="45.15361" lon="5.24552">
        <ele>308</ele>
        <time>2021-05-03T13:39:14Z</time>
      </trkpt>
      <trkpt lat="45.15355" lon="5.24563">
        <ele>307.6</ele>
        <time>2021-05-03T13:39:15Z</time>
      </trkpt>
      <trkpt lat="45.15349" lon="5.24573">
        <ele>307.1</ele>
        <time>2021-05-03T13:39:16Z</time>
      </trkpt>
      <trkpt lat="45.15343" lon="5.24584">
        <ele>306.7</ele>
        <time>2021-05-03T13:39:17Z</time>
      </trkpt>
      <trkpt lat="45.15338" lon="5.24594">
        <ele>306.3</ele>
        <time>2021-05-03T13:39:18Z</time>
      </trkpt>
      <trkpt lat="45.15332" lon="5.24605">
        <ele>305.9</ele>
        <time>2021-05-03T13:39:19Z</time>
      </trkpt>
      <trkpt lat="45.15326" lon="5.24615">
        <ele>305.6</ele>
        <time>2021-05-03T13:39:20Z</time>
      </trkpt>
      <trkpt lat="45.1532" lon="5.24627">
        <ele>305.2</ele>
        <time>2021-05-03T13:39:21Z</time>
      </trkpt>
      <trkpt lat="45.15314" lon="5.24638">
        <ele>304.8</ele>
        <time>2021-05-03T13:39:22Z</time>
      </trkpt>
      <trkpt lat="45.15307" lon="5.2465">
        <ele>304.3</ele>
        <time>2021-05-03T13:39:23Z</time>
      </trkpt>
      <trkpt lat="45.15301" lon="5.24662">
        <ele>303.8</ele>
        <time>2021-05-03T13:39:24Z</time>
      </trkpt>
      <trkpt lat="45.15295" lon="5.24673">
        <ele>303.4</ele>
        <time>2021-05-03T13:39:25Z</time>
      </trkpt>
      <trkpt lat="45.15288" lon="5.24685">
        <ele>302.9</ele>
        <time>2021-05-03T13:39:26Z</time>
      </trkpt>
      <trkpt lat="45.1528" lon="5.24696">
        <ele>302.4</ele>
        <time>2021-05-03T13:39:27Z</time>
      </trkpt>
      <trkpt lat="45.15272" lon="5.24706">
        <ele>301.8</ele>
        <time>2021-05-03T13:39:28Z</time>
      </trkpt>
      <trkpt lat="45.15263" lon="5.24714">
        <ele>301.2</ele>
        <time>2021-05-03T13:39:29Z</time>
      </trkpt>
      <trkpt lat="45.15253" lon="5.24721">
        <ele>300.6</ele>
        <time>2021-05-03T13:39:30Z</time>
      </trkpt>
      <trkpt lat="45.15243" lon="5.24728">
        <ele>300</ele>
        <time>2021-05-03T13:39:31Z</time>
      </trkpt>
      <trkpt lat="45.15233" lon="5.24735">
        <ele>299.4</ele>
        <time>2021-05-03T13:39:32Z</time>
      </trkpt>
      <trkpt lat="45.15224" lon="5.24742">
        <ele>298.9</ele>
        <time>2021-05-03T13:39:33Z</time>
      </trkpt>
      <trkpt lat="45.15215" lon="5.2475">
        <ele>298.4</ele>
        <time>2021-05-03T13:39:34Z</time>
      </trkpt>
      <trkpt lat="45.15206" lon="5.24758">
        <ele>297.9</ele>
        <time>2021-05-03T13:39:35Z</time>
      </trkpt>
      <trkpt lat="45.15196" lon="5.24766">
        <ele>297.4</ele>
        <time>2021-05-03T13:39:36Z</time>
      </trkpt>
      <trkpt lat="45.15187" lon="5.24773">
        <ele>297</ele>
        <time>2021-05-03T13:39:37Z</time>
      </trkpt>
      <trkpt lat="45.15178" lon="5.2478">
        <ele>296.7</ele>
        <time>2021-05-03T13:39:38Z</time>
      </trkpt>
      <trkpt lat="45.15168" lon="5.24787">
        <ele>296.7</ele>
        <time>2021-05-03T13:39:39Z</time>
      </trkpt>
      <trkpt lat="45.1516" lon="5.24795">
        <ele>296.7</ele>
        <time>2021-05-03T13:39:40Z</time>
      </trkpt>
      <trkpt lat="45.15154" lon="5.24805">
        <ele>296.7</ele>
        <time>2021-05-03T13:39:41Z</time>
      </trkpt>
      <trkpt lat="45.15153" lon="5.24819">
        <ele>296.6</ele>
        <time>2021-05-03T13:39:42Z</time>
      </trkpt>
      <trkpt lat="45.15154" lon="5.24832">
        <ele>296.5</ele>
        <time>2021-05-03T13:39:43Z</time>
      </trkpt>
      <trkpt lat="45.15158" lon="5.24844">
        <ele>296.4</ele>
        <time>2021-05-03T13:39:44Z</time>
      </trkpt>
      <trkpt lat="45.15162" lon="5.24856">
        <ele>296.6</ele>
        <time>2021-05-03T13:39:45Z</time>
      </trkpt>
      <trkpt lat="45.15165" lon="5.24866">
        <ele>296.8</ele>
        <time>2021-05-03T13:39:46Z</time>
      </trkpt>
      <trkpt lat="45.15168" lon="5.24876">
        <ele>297</ele>
        <time>2021-05-03T13:39:47Z</time>
      </trkpt>
      <trkpt lat="45.15171" lon="5.24884">
        <ele>297.3</ele>
        <time>2021-05-03T13:39:48Z</time>
      </trkpt>
      <trkpt lat="45.15174" lon="5.24892">
        <ele>297.6</ele>
        <time>2021-05-03T13:39:49Z</time>
      </trkpt>
      <trkpt lat="45.15177" lon="5.24898">
        <ele>297.8</ele>
        <time>2021-05-03T13:39:50Z</time>
      </trkpt>
      <trkpt lat="45.15179" lon="5.24903">
        <ele>298</ele>
        <time>2021-05-03T13:39:51Z</time>
      </trkpt>
      <trkpt lat="45.15183" lon="5.24907">
        <ele>298.3</ele>
        <time>2021-05-03T13:39:52Z</time>
      </trkpt>
      <trkpt lat="45.15185" lon="5.24909">
        <ele>298.5</ele>
        <time>2021-05-03T13:39:53Z</time>
      </trkpt>
      <trkpt lat="45.15188" lon="5.24912">
        <ele>298.7</ele>
        <time>2021-05-03T13:39:54Z</time>
      </trkpt>
      <trkpt lat="45.15192" lon="5.24914">
        <ele>298.9</ele>
        <time>2021-05-03T13:39:55Z</time>
      </trkpt>
      <trkpt lat="45.15195" lon="5.24916">
        <ele>299.1</ele>
        <time>2021-05-03T13:39:56Z</time>
      </trkpt>
      <trkpt lat="45.15198" lon="5.24917">
        <ele>299.3</ele>
        <time>2021-05-03T13:39:57Z</time>
      </trkpt>
      <trkpt lat="45.152" lon="5.24917">
        <ele>299.4</ele>
        <time>2021-05-03T13:39:58Z</time>
      </trkpt>
      <trkpt lat="45.15201" lon="5.24919">
        <ele>299.5</ele>
        <time>2021-05-03T13:39:59Z</time>
      </trkpt>
      <trkpt lat="45.15207" lon="5.24919">
        <ele>299.7</ele>
        <time>2021-05-03T13:40:01Z</time>
      </trkpt>
      <trkpt lat="45.1521" lon="5.2492">
        <ele>299.9</ele>
        <time>2021-05-03T13:40:02Z</time>
      </trkpt>
      <trkpt lat="45.15215" lon="5.24921">
        <ele>300.1</ele>
        <time>2021-05-03T13:40:03Z</time>
      </trkpt>
      <trkpt lat="45.15221" lon="5.24921">
        <ele>300.3</ele>
        <time>2021-05-03T13:40:05Z</time>
      </trkpt>
      <trkpt lat="45.15226" lon="5.2492">
        <ele>300.5</ele>
        <time>2021-05-03T13:40:06Z</time>
      </trkpt>
      <trkpt lat="45.15231" lon="5.24922">
        <ele>300.7</ele>
        <time>2021-05-03T13:40:08Z</time>
      </trkpt>
      <trkpt lat="45.15236" lon="5.24923">
        <ele>300.9</ele>
        <time>2021-05-03T13:40:09Z</time>
      </trkpt>
      <trkpt lat="45.15238" lon="5.24923">
        <ele>301</ele>
        <time>2021-05-03T13:40:11Z</time>
      </trkpt>
      <trkpt lat="45.1524" lon="5.24923">
        <ele>301.1</ele>
        <time>2021-05-03T13:40:12Z</time>
      </trkpt>
      <trkpt lat="45.15245" lon="5.24922">
        <ele>301.3</ele>
        <time>2021-05-03T13:40:13Z</time>
      </trkpt>
      <trkpt lat="45.15246" lon="5.24922">
        <ele>301.4</ele>
        <time>2021-05-03T13:40:14Z</time>
      </trkpt>
      <trkpt lat="45.1525" lon="5.24921">
        <ele>301.6</ele>
        <time>2021-05-03T13:40:15Z</time>
      </trkpt>
      <trkpt lat="45.15251" lon="5.24921">
        <ele>301.6</ele>
        <time>2021-05-03T13:40:16Z</time>
      </trkpt>
      <trkpt lat="45.15253" lon="5.24921">
        <ele>301.7</ele>
        <time>2021-05-03T13:40:18Z</time>
      </trkpt>
      <trkpt lat="45.15255" lon="5.2492">
        <ele>301.8</ele>
        <time>2021-05-03T13:40:19Z</time>
      </trkpt>
      <trkpt lat="45.15256" lon="5.2492">
        <ele>301.9</ele>
        <time>2021-05-03T13:40:20Z</time>
      </trkpt>
      <trkpt lat="45.15258" lon="5.24921">
        <ele>302</ele>
        <time>2021-05-03T13:40:21Z</time>
      </trkpt>
      <trkpt lat="45.15262" lon="5.24921">
        <ele>302.3</ele>
        <time>2021-05-03T13:40:22Z</time>
      </trkpt>
      <trkpt lat="45.15264" lon="5.24921">
        <ele>302.3</ele>
        <time>2021-05-03T13:40:23Z</time>
      </trkpt>
      <trkpt lat="45.15267" lon="5.2492">
        <ele>302.6</ele>
        <time>2021-05-03T13:40:25Z</time>
      </trkpt>
      <trkpt lat="45.15271" lon="5.2492">
        <ele>302.8</ele>
        <time>2021-05-03T13:40:27Z</time>
      </trkpt>
      <trkpt lat="45.15273" lon="5.2492">
        <ele>303</ele>
        <time>2021-05-03T13:40:28Z</time>
      </trkpt>
      <trkpt lat="45.15278" lon="5.2492">
        <ele>303.2</ele>
        <time>2021-05-03T13:40:30Z</time>
      </trkpt>
      <trkpt lat="45.15281" lon="5.2492">
        <ele>303.5</ele>
        <time>2021-05-03T13:40:31Z</time>
      </trkpt>
      <trkpt lat="45.15284" lon="5.24921">
        <ele>303.7</ele>
        <time>2021-05-03T13:40:33Z</time>
      </trkpt>
      <trkpt lat="45.15285" lon="5.24922">
        <ele>303.7</ele>
        <time>2021-05-03T13:40:34Z</time>
      </trkpt>
      <trkpt lat="45.15289" lon="5.24922">
        <ele>304</ele>
        <time>2021-05-03T13:40:36Z</time>
      </trkpt>
      <trkpt lat="45.15293" lon="5.24922">
        <ele>304.3</ele>
        <time>2021-05-03T13:40:38Z</time>
      </trkpt>
      <trkpt lat="45.15297" lon="5.24923">
        <ele>304.5</ele>
        <time>2021-05-03T13:40:39Z</time>
      </trkpt>
      <trkpt lat="45.15302" lon="5.24922">
        <ele>304.9</ele>
        <time>2021-05-03T13:40:41Z</time>
      </trkpt>
      <trkpt lat="45.15304" lon="5.24922">
        <ele>305.2</ele>
        <time>2021-05-03T13:40:42Z</time>
      </trkpt>
      <trkpt lat="45.15309" lon="5.24922">
        <ele>305.5</ele>
        <time>2021-05-03T13:40:43Z</time>
      </trkpt>
      <trkpt lat="45.15313" lon="5.24923">
        <ele>305.9</ele>
        <time>2021-05-03T13:40:45Z</time>
      </trkpt>
      <trkpt lat="45.15315" lon="5.24923">
        <ele>306</ele>
        <time>2021-05-03T13:40:46Z</time>
      </trkpt>
      <trkpt lat="45.15316" lon="5.24923">
        <ele>306.1</ele>
        <time>2021-05-03T13:40:47Z</time>
      </trkpt>
      <trkpt lat="45.1532" lon="5.24921">
        <ele>306.5</ele>
        <time>2021-05-03T13:40:48Z</time>
      </trkpt>
      <trkpt lat="45.15324" lon="5.24921">
        <ele>306.8</ele>
        <time>2021-05-03T13:40:50Z</time>
      </trkpt>
      <trkpt lat="45.15328" lon="5.24921">
        <ele>307.2</ele>
        <time>2021-05-03T13:40:52Z</time>
      </trkpt>
      <trkpt lat="45.15333" lon="5.24921">
        <ele>307.6</ele>
        <time>2021-05-03T13:40:54Z</time>
      </trkpt>
      <trkpt lat="45.15335" lon="5.2492">
        <ele>307.8</ele>
        <time>2021-05-03T13:40:55Z</time>
      </trkpt>
      <trkpt lat="45.15339" lon="5.24919">
        <ele>308.2</ele>
        <time>2021-05-03T13:40:57Z</time>
      </trkpt>
      <trkpt lat="45.15342" lon="5.24918">
        <ele>308.5</ele>
        <time>2021-05-03T13:40:58Z</time>
      </trkpt>
      <trkpt lat="45.15344" lon="5.24918">
        <ele>308.6</ele>
        <time>2021-05-03T13:40:59Z</time>
      </trkpt>
      <trkpt lat="45.15347" lon="5.24917">
        <ele>309</ele>
        <time>2021-05-03T13:41:00Z</time>
      </trkpt>
      <trkpt lat="45.15351" lon="5.24915">
        <ele>309.4</ele>
        <time>2021-05-03T13:41:02Z</time>
      </trkpt>
      <trkpt lat="45.15354" lon="5.24913">
        <ele>309.6</ele>
        <time>2021-05-03T13:41:03Z</time>
      </trkpt>
      <trkpt lat="45.15355" lon="5.24913">
        <ele>309.8</ele>
        <time>2021-05-03T13:41:04Z</time>
      </trkpt>
      <trkpt lat="45.15357" lon="5.24912">
        <ele>310</ele>
        <time>2021-05-03T13:41:05Z</time>
      </trkpt>
      <trkpt lat="45.15361" lon="5.24911">
        <ele>310.3</ele>
        <time>2021-05-03T13:41:07Z</time>
      </trkpt>
      <trkpt lat="45.15364" lon="5.24911">
        <ele>310.6</ele>
        <time>2021-05-03T13:41:08Z</time>
      </trkpt>
      <trkpt lat="45.15366" lon="5.24911">
        <ele>310.7</ele>
        <time>2021-05-03T13:41:09Z</time>
      </trkpt>
      <trkpt lat="45.15369" lon="5.24911">
        <ele>310.9</ele>
        <time>2021-05-03T13:41:11Z</time>
      </trkpt>
      <trkpt lat="45.15373" lon="5.24912">
        <ele>311.2</ele>
        <time>2021-05-03T13:41:13Z</time>
      </trkpt>
      <trkpt lat="45.15376" lon="5.24912">
        <ele>311.4</ele>
        <time>2021-05-03T13:41:14Z</time>
      </trkpt>
      <trkpt lat="45.1538" lon="5.24912">
        <ele>311.7</ele>
        <time>2021-05-03T13:41:15Z</time>
      </trkpt>
      <trkpt lat="45.15385" lon="5.24912">
        <ele>312</ele>
        <time>2021-05-03T13:41:17Z</time>
      </trkpt>
      <trkpt lat="45.15387" lon="5.24912">
        <ele>312.1</ele>
        <time>2021-05-03T13:41:18Z</time>
      </trkpt>
      <trkpt lat="45.15389" lon="5.24912">
        <ele>312.3</ele>
        <time>2021-05-03T13:41:19Z</time>
      </trkpt>
      <trkpt lat="45.15392" lon="5.24913">
        <ele>312.5</ele>
        <time>2021-05-03T13:41:21Z</time>
      </trkpt>
      <trkpt lat="45.15395" lon="5.24913">
        <ele>312.7</ele>
        <time>2021-05-03T13:41:22Z</time>
      </trkpt>
      <trkpt lat="45.15399" lon="5.24914">
        <ele>313</ele>
        <time>2021-05-03T13:41:23Z</time>
      </trkpt>
      <trkpt lat="45.15401" lon="5.24914">
        <ele>313.1</ele>
        <time>2021-05-03T13:41:24Z</time>
      </trkpt>
      <trkpt lat="45.15405" lon="5.24915">
        <ele>313.3</ele>
        <time>2021-05-03T13:41:25Z</time>
      </trkpt>
      <trkpt lat="45.15409" lon="5.24915">
        <ele>313.6</ele>
        <time>2021-05-03T13:41:26Z</time>
      </trkpt>
      <trkpt lat="45.15411" lon="5.24916">
        <ele>313.7</ele>
        <time>2021-05-03T13:41:28Z</time>
      </trkpt>
      <trkpt lat="45.15415" lon="5.24919">
        <ele>314</ele>
        <time>2021-05-03T13:41:30Z</time>
      </trkpt>
      <trkpt lat="45.15419" lon="5.24921">
        <ele>314.2</ele>
        <time>2021-05-03T13:41:32Z</time>
      </trkpt>
      <trkpt lat="45.15422" lon="5.24923">
        <ele>314.5</ele>
        <time>2021-05-03T13:41:33Z</time>
      </trkpt>
      <trkpt lat="45.15425" lon="5.24925">
        <ele>314.7</ele>
        <time>2021-05-03T13:41:35Z</time>
      </trkpt>
      <trkpt lat="45.15426" lon="5.24925">
        <ele>314.7</ele>
        <time>2021-05-03T13:41:36Z</time>
      </trkpt>
      <trkpt lat="45.15429" lon="5.24927">
        <ele>315</ele>
        <time>2021-05-03T13:41:37Z</time>
      </trkpt>
      <trkpt lat="45.15434" lon="5.24931">
        <ele>315.3</ele>
        <time>2021-05-03T13:41:39Z</time>
      </trkpt>
      <trkpt lat="45.15436" lon="5.24934">
        <ele>315.5</ele>
        <time>2021-05-03T13:41:40Z</time>
      </trkpt>
      <trkpt lat="45.1544" lon="5.24938">
        <ele>315.8</ele>
        <time>2021-05-03T13:41:42Z</time>
      </trkpt>
      <trkpt lat="45.15443" lon="5.24941">
        <ele>316.1</ele>
        <time>2021-05-03T13:41:43Z</time>
      </trkpt>
      <trkpt lat="45.15444" lon="5.24942">
        <ele>316.2</ele>
        <time>2021-05-03T13:41:44Z</time>
      </trkpt>
      <trkpt lat="45.15446" lon="5.24944">
        <ele>316.4</ele>
        <time>2021-05-03T13:41:45Z</time>
      </trkpt>
      <trkpt lat="45.15451" lon="5.24949">
        <ele>316.8</ele>
        <time>2021-05-03T13:41:47Z</time>
      </trkpt>
      <trkpt lat="45.15454" lon="5.24952">
        <ele>317.1</ele>
        <time>2021-05-03T13:41:49Z</time>
      </trkpt>
      <trkpt lat="45.15458" lon="5.24955">
        <ele>317.5</ele>
        <time>2021-05-03T13:41:51Z</time>
      </trkpt>
      <trkpt lat="45.15459" lon="5.24956">
        <ele>317.5</ele>
        <time>2021-05-03T13:41:52Z</time>
      </trkpt>
      <trkpt lat="45.1546" lon="5.24957">
        <ele>317.6</ele>
        <time>2021-05-03T13:41:53Z</time>
      </trkpt>
      <trkpt lat="45.15462" lon="5.24958">
        <ele>317.9</ele>
        <time>2021-05-03T13:41:54Z</time>
      </trkpt>
      <trkpt lat="45.15466" lon="5.24963">
        <ele>318.3</ele>
        <time>2021-05-03T13:41:56Z</time>
      </trkpt>
      <trkpt lat="45.15469" lon="5.24965">
        <ele>318.6</ele>
        <time>2021-05-03T13:41:58Z</time>
      </trkpt>
      <trkpt lat="45.15473" lon="5.24968">
        <ele>319</ele>
        <time>2021-05-03T13:41:59Z</time>
      </trkpt>
      <trkpt lat="45.15474" lon="5.24969">
        <ele>319.1</ele>
        <time>2021-05-03T13:42:00Z</time>
      </trkpt>
      <trkpt lat="45.15478" lon="5.24974">
        <ele>319.5</ele>
        <time>2021-05-03T13:42:02Z</time>
      </trkpt>
      <trkpt lat="45.15481" lon="5.24977">
        <ele>319.8</ele>
        <time>2021-05-03T13:42:03Z</time>
      </trkpt>
      <trkpt lat="45.15482" lon="5.24978">
        <ele>319.9</ele>
        <time>2021-05-03T13:42:04Z</time>
      </trkpt>
      <trkpt lat="45.15485" lon="5.24982">
        <ele>320.3</ele>
        <time>2021-05-03T13:42:06Z</time>
      </trkpt>
      <trkpt lat="45.15487" lon="5.24984">
        <ele>320.5</ele>
        <time>2021-05-03T13:42:07Z</time>
      </trkpt>
      <trkpt lat="45.15492" lon="5.24989">
        <ele>320.9</ele>
        <time>2021-05-03T13:42:09Z</time>
      </trkpt>
      <trkpt lat="45.15497" lon="5.24994">
        <ele>321.4</ele>
        <time>2021-05-03T13:42:11Z</time>
      </trkpt>
      <trkpt lat="45.15499" lon="5.24998">
        <ele>321.6</ele>
        <time>2021-05-03T13:42:12Z</time>
      </trkpt>
      <trkpt lat="45.15501" lon="5.25003">
        <ele>321.9</ele>
        <time>2021-05-03T13:42:14Z</time>
      </trkpt>
      <trkpt lat="45.15501" lon="5.25005">
        <ele>322</ele>
        <time>2021-05-03T13:42:15Z</time>
      </trkpt>
      <trkpt lat="45.15504" lon="5.2501">
        <ele>322.3</ele>
        <time>2021-05-03T13:42:17Z</time>
      </trkpt>
      <trkpt lat="45.15506" lon="5.25014">
        <ele>322.6</ele>
        <time>2021-05-03T13:42:18Z</time>
      </trkpt>
      <trkpt lat="45.15508" lon="5.25017">
        <ele>322.8</ele>
        <time>2021-05-03T13:42:19Z</time>
      </trkpt>
      <trkpt lat="45.1551" lon="5.25021">
        <ele>323</ele>
        <time>2021-05-03T13:42:21Z</time>
      </trkpt>
      <trkpt lat="45.15512" lon="5.25023">
        <ele>323.2</ele>
        <time>2021-05-03T13:42:22Z</time>
      </trkpt>
      <trkpt lat="45.15516" lon="5.25026">
        <ele>323.5</ele>
        <time>2021-05-03T13:42:24Z</time>
      </trkpt>
      <trkpt lat="45.15518" lon="5.25029">
        <ele>323.7</ele>
        <time>2021-05-03T13:42:25Z</time>
      </trkpt>
      <trkpt lat="45.1552" lon="5.25035">
        <ele>324</ele>
        <time>2021-05-03T13:42:27Z</time>
      </trkpt>
      <trkpt lat="45.1552" lon="5.25039">
        <ele>324.2</ele>
        <time>2021-05-03T13:42:28Z</time>
      </trkpt>
      <trkpt lat="45.15522" lon="5.25044">
        <ele>324.5</ele>
        <time>2021-05-03T13:42:30Z</time>
      </trkpt>
      <trkpt lat="45.15523" lon="5.25046">
        <ele>324.6</ele>
        <time>2021-05-03T13:42:31Z</time>
      </trkpt>
      <trkpt lat="45.15526" lon="5.2505">
        <ele>324.9</ele>
        <time>2021-05-03T13:42:32Z</time>
      </trkpt>
      <trkpt lat="45.15528" lon="5.25055">
        <ele>325.2</ele>
        <time>2021-05-03T13:42:34Z</time>
      </trkpt>
      <trkpt lat="45.15529" lon="5.25056">
        <ele>325.3</ele>
        <time>2021-05-03T13:42:35Z</time>
      </trkpt>
      <trkpt lat="45.15532" lon="5.25062">
        <ele>325.6</ele>
        <time>2021-05-03T13:42:36Z</time>
      </trkpt>
      <trkpt lat="45.15533" lon="5.25064">
        <ele>325.8</ele>
        <time>2021-05-03T13:42:37Z</time>
      </trkpt>
      <trkpt lat="45.15535" lon="5.25067">
        <ele>326</ele>
        <time>2021-05-03T13:42:39Z</time>
      </trkpt>
      <trkpt lat="45.15537" lon="5.25072">
        <ele>326.3</ele>
        <time>2021-05-03T13:42:40Z</time>
      </trkpt>
      <trkpt lat="45.15538" lon="5.25074">
        <ele>326.4</ele>
        <time>2021-05-03T13:42:41Z</time>
      </trkpt>
      <trkpt lat="45.15542" lon="5.2508">
        <ele>326.8</ele>
        <time>2021-05-03T13:42:43Z</time>
      </trkpt>
      <trkpt lat="45.15544" lon="5.25085">
        <ele>327.1</ele>
        <time>2021-05-03T13:42:45Z</time>
      </trkpt>
      <trkpt lat="45.15545" lon="5.25089">
        <ele>327.3</ele>
        <time>2021-05-03T13:42:46Z</time>
      </trkpt>
      <trkpt lat="45.15548" lon="5.25092">
        <ele>327.6</ele>
        <time>2021-05-03T13:42:48Z</time>
      </trkpt>
      <trkpt lat="45.15549" lon="5.25096">
        <ele>327.8</ele>
        <time>2021-05-03T13:42:49Z</time>
      </trkpt>
      <trkpt lat="45.15551" lon="5.25101">
        <ele>328.2</ele>
        <time>2021-05-03T13:42:51Z</time>
      </trkpt>
      <trkpt lat="45.15553" lon="5.25105">
        <ele>328.4</ele>
        <time>2021-05-03T13:42:52Z</time>
      </trkpt>
      <trkpt lat="45.15556" lon="5.25108">
        <ele>328.7</ele>
        <time>2021-05-03T13:42:53Z</time>
      </trkpt>
      <trkpt lat="45.15559" lon="5.25113">
        <ele>329.1</ele>
        <time>2021-05-03T13:42:55Z</time>
      </trkpt>
      <trkpt lat="45.1556" lon="5.25114">
        <ele>329.2</ele>
        <time>2021-05-03T13:42:56Z</time>
      </trkpt>
      <trkpt lat="45.15561" lon="5.25116">
        <ele>329.4</ele>
        <time>2021-05-03T13:42:57Z</time>
      </trkpt>
      <trkpt lat="45.15563" lon="5.25121">
        <ele>329.7</ele>
        <time>2021-05-03T13:42:59Z</time>
      </trkpt>
      <trkpt lat="45.15565" lon="5.25124">
        <ele>330</ele>
        <time>2021-05-03T13:43:00Z</time>
      </trkpt>
      <trkpt lat="45.15568" lon="5.25129">
        <ele>330.4</ele>
        <time>2021-05-03T13:43:02Z</time>
      </trkpt>
      <trkpt lat="45.1557" lon="5.25132">
        <ele>330.6</ele>
        <time>2021-05-03T13:43:03Z</time>
      </trkpt>
      <trkpt lat="45.15572" lon="5.25136">
        <ele>330.9</ele>
        <time>2021-05-03T13:43:04Z</time>
      </trkpt>
      <trkpt lat="45.15575" lon="5.25142">
        <ele>331.4</ele>
        <time>2021-05-03T13:43:06Z</time>
      </trkpt>
      <trkpt lat="45.15575" lon="5.25144">
        <ele>331.5</ele>
        <time>2021-05-03T13:43:07Z</time>
      </trkpt>
      <trkpt lat="45.15576" lon="5.25146">
        <ele>331.6</ele>
        <time>2021-05-03T13:43:08Z</time>
      </trkpt>
      <trkpt lat="45.15578" lon="5.25151">
        <ele>332</ele>
        <time>2021-05-03T13:43:10Z</time>
      </trkpt>
      <trkpt lat="45.15578" lon="5.25155">
        <ele>332.3</ele>
        <time>2021-05-03T13:43:11Z</time>
      </trkpt>
      <trkpt lat="45.15579" lon="5.25159">
        <ele>332.5</ele>
        <time>2021-05-03T13:43:12Z</time>
      </trkpt>
      <trkpt lat="45.1558" lon="5.25164">
        <ele>332.9</ele>
        <time>2021-05-03T13:43:13Z</time>
      </trkpt>
      <trkpt lat="45.15581" lon="5.25169">
        <ele>333.2</ele>
        <time>2021-05-03T13:43:14Z</time>
      </trkpt>
      <trkpt lat="45.15581" lon="5.25171">
        <ele>333.3</ele>
        <time>2021-05-03T13:43:15Z</time>
      </trkpt>
      <trkpt lat="45.15582" lon="5.25176">
        <ele>333.7</ele>
        <time>2021-05-03T13:43:17Z</time>
      </trkpt>
      <trkpt lat="45.15582" lon="5.25182">
        <ele>334</ele>
        <time>2021-05-03T13:43:18Z</time>
      </trkpt>
      <trkpt lat="45.15583" lon="5.25187">
        <ele>334.4</ele>
        <time>2021-05-03T13:43:20Z</time>
      </trkpt>
      <trkpt lat="45.15583" lon="5.25194">
        <ele>334.8</ele>
        <time>2021-05-03T13:43:22Z</time>
      </trkpt>
      <trkpt lat="45.15584" lon="5.25198">
        <ele>335.1</ele>
        <time>2021-05-03T13:43:23Z</time>
      </trkpt>
      <trkpt lat="45.15585" lon="5.252">
        <ele>335.2</ele>
        <time>2021-05-03T13:43:24Z</time>
      </trkpt>
      <trkpt lat="45.15585" lon="5.25206">
        <ele>335.6</ele>
        <time>2021-05-03T13:43:25Z</time>
      </trkpt>
      <trkpt lat="45.15586" lon="5.25214">
        <ele>336</ele>
        <time>2021-05-03T13:43:27Z</time>
      </trkpt>
      <trkpt lat="45.15585" lon="5.25221">
        <ele>336.4</ele>
        <time>2021-05-03T13:43:29Z</time>
      </trkpt>
      <trkpt lat="45.15584" lon="5.25227">
        <ele>336.7</ele>
        <time>2021-05-03T13:43:30Z</time>
      </trkpt>
      <trkpt lat="45.15584" lon="5.25229">
        <ele>336.8</ele>
        <time>2021-05-03T13:43:31Z</time>
      </trkpt>
      <trkpt lat="45.15582" lon="5.25237">
        <ele>337.3</ele>
        <time>2021-05-03T13:43:33Z</time>
      </trkpt>
      <trkpt lat="45.15582" lon="5.25243">
        <ele>337.6</ele>
        <time>2021-05-03T13:43:35Z</time>
      </trkpt>
      <trkpt lat="45.15581" lon="5.25248">
        <ele>337.9</ele>
        <time>2021-05-03T13:43:36Z</time>
      </trkpt>
      <trkpt lat="45.15579" lon="5.25254">
        <ele>338.2</ele>
        <time>2021-05-03T13:43:38Z</time>
      </trkpt>
      <trkpt lat="45.15577" lon="5.25257">
        <ele>338.5</ele>
        <time>2021-05-03T13:43:39Z</time>
      </trkpt>
      <trkpt lat="45.15575" lon="5.25263">
        <ele>338.8</ele>
        <time>2021-05-03T13:43:41Z</time>
      </trkpt>
      <trkpt lat="45.15574" lon="5.2527">
        <ele>339.3</ele>
        <time>2021-05-03T13:43:43Z</time>
      </trkpt>
      <trkpt lat="45.15573" lon="5.25274">
        <ele>339.6</ele>
        <time>2021-05-03T13:43:44Z</time>
      </trkpt>
      <trkpt lat="45.1557" lon="5.2528">
        <ele>340.1</ele>
        <time>2021-05-03T13:43:46Z</time>
      </trkpt>
      <trkpt lat="45.15568" lon="5.25285">
        <ele>340.4</ele>
        <time>2021-05-03T13:43:47Z</time>
      </trkpt>
      <trkpt lat="45.15566" lon="5.2529">
        <ele>340.8</ele>
        <time>2021-05-03T13:43:49Z</time>
      </trkpt>
      <trkpt lat="45.15563" lon="5.25294">
        <ele>341.2</ele>
        <time>2021-05-03T13:43:50Z</time>
      </trkpt>
      <trkpt lat="45.15561" lon="5.25298">
        <ele>341.5</ele>
        <time>2021-05-03T13:43:52Z</time>
      </trkpt>
      <trkpt lat="45.15559" lon="5.25302">
        <ele>341.8</ele>
        <time>2021-05-03T13:43:53Z</time>
      </trkpt>
      <trkpt lat="45.15557" lon="5.25306">
        <ele>342.2</ele>
        <time>2021-05-03T13:43:55Z</time>
      </trkpt>
      <trkpt lat="45.15557" lon="5.25307">
        <ele>342.3</ele>
        <time>2021-05-03T13:43:56Z</time>
      </trkpt>
      <trkpt lat="45.15554" lon="5.25312">
        <ele>342.7</ele>
        <time>2021-05-03T13:43:57Z</time>
      </trkpt>
      <trkpt lat="45.15552" lon="5.25313">
        <ele>342.8</ele>
        <time>2021-05-03T13:43:58Z</time>
      </trkpt>
      <trkpt lat="45.1555" lon="5.25318">
        <ele>343.2</ele>
        <time>2021-05-03T13:44:00Z</time>
      </trkpt>
      <trkpt lat="45.15548" lon="5.25321">
        <ele>343.4</ele>
        <time>2021-05-03T13:44:01Z</time>
      </trkpt>
      <trkpt lat="45.15545" lon="5.25327">
        <ele>343.9</ele>
        <time>2021-05-03T13:44:03Z</time>
      </trkpt>
      <trkpt lat="45.15543" lon="5.2533">
        <ele>344.2</ele>
        <time>2021-05-03T13:44:05Z</time>
      </trkpt>
      <trkpt lat="45.1554" lon="5.25334">
        <ele>344.5</ele>
        <time>2021-05-03T13:44:06Z</time>
      </trkpt>
      <trkpt lat="45.15539" lon="5.25335">
        <ele>344.6</ele>
        <time>2021-05-03T13:44:07Z</time>
      </trkpt>
      <trkpt lat="45.15537" lon="5.25339">
        <ele>344.9</ele>
        <time>2021-05-03T13:44:08Z</time>
      </trkpt>
      <trkpt lat="45.15534" lon="5.25342">
        <ele>345.2</ele>
        <time>2021-05-03T13:44:10Z</time>
      </trkpt>
      <trkpt lat="45.15531" lon="5.25346">
        <ele>345.6</ele>
        <time>2021-05-03T13:44:11Z</time>
      </trkpt>
      <trkpt lat="45.1553" lon="5.25348">
        <ele>345.7</ele>
        <time>2021-05-03T13:44:12Z</time>
      </trkpt>
      <trkpt lat="45.15527" lon="5.25352">
        <ele>346.1</ele>
        <time>2021-05-03T13:44:14Z</time>
      </trkpt>
      <trkpt lat="45.15524" lon="5.25357">
        <ele>346.4</ele>
        <time>2021-05-03T13:44:16Z</time>
      </trkpt>
      <trkpt lat="45.15521" lon="5.25362">
        <ele>346.8</ele>
        <time>2021-05-03T13:44:17Z</time>
      </trkpt>
      <trkpt lat="45.1552" lon="5.25363">
        <ele>346.9</ele>
        <time>2021-05-03T13:44:18Z</time>
      </trkpt>
      <trkpt lat="45.15518" lon="5.25367">
        <ele>347.1</ele>
        <time>2021-05-03T13:44:19Z</time>
      </trkpt>
      <trkpt lat="45.15515" lon="5.25373">
        <ele>347.5</ele>
        <time>2021-05-03T13:44:21Z</time>
      </trkpt>
      <trkpt lat="45.15513" lon="5.25378">
        <ele>347.8</ele>
        <time>2021-05-03T13:44:22Z</time>
      </trkpt>
      <trkpt lat="45.15512" lon="5.25379">
        <ele>347.9</ele>
        <time>2021-05-03T13:44:23Z</time>
      </trkpt>
      <trkpt lat="45.1551" lon="5.25382">
        <ele>348.1</ele>
        <time>2021-05-03T13:44:24Z</time>
      </trkpt>
      <trkpt lat="45.15507" lon="5.25387">
        <ele>348.4</ele>
        <time>2021-05-03T13:44:26Z</time>
      </trkpt>
      <trkpt lat="45.15505" lon="5.2539">
        <ele>348.7</ele>
        <time>2021-05-03T13:44:27Z</time>
      </trkpt>
      <trkpt lat="45.15502" lon="5.25395">
        <ele>348.9</ele>
        <time>2021-05-03T13:44:29Z</time>
      </trkpt>
      <trkpt lat="45.15501" lon="5.25398">
        <ele>349.1</ele>
        <time>2021-05-03T13:44:30Z</time>
      </trkpt>
      <trkpt lat="45.15498" lon="5.25402">
        <ele>349.4</ele>
        <time>2021-05-03T13:44:31Z</time>
      </trkpt>
      <trkpt lat="45.15496" lon="5.25406">
        <ele>349.6</ele>
        <time>2021-05-03T13:44:32Z</time>
      </trkpt>
      <trkpt lat="45.15493" lon="5.25408">
        <ele>349.8</ele>
        <time>2021-05-03T13:44:34Z</time>
      </trkpt>
      <trkpt lat="45.15491" lon="5.25411">
        <ele>350.1</ele>
        <time>2021-05-03T13:44:35Z</time>
      </trkpt>
      <trkpt lat="45.15488" lon="5.25416">
        <ele>350.3</ele>
        <time>2021-05-03T13:44:36Z</time>
      </trkpt>
      <trkpt lat="45.15486" lon="5.2542">
        <ele>350.6</ele>
        <time>2021-05-03T13:44:38Z</time>
      </trkpt>
      <trkpt lat="45.15484" lon="5.25424">
        <ele>350.8</ele>
        <time>2021-05-03T13:44:39Z</time>
      </trkpt>
      <trkpt lat="45.15482" lon="5.25427">
        <ele>351</ele>
        <time>2021-05-03T13:44:40Z</time>
      </trkpt>
      <trkpt lat="45.15477" lon="5.25432">
        <ele>351.3</ele>
        <time>2021-05-03T13:44:42Z</time>
      </trkpt>
      <trkpt lat="45.15474" lon="5.25435">
        <ele>351.5</ele>
        <time>2021-05-03T13:44:43Z</time>
      </trkpt>
      <trkpt lat="45.1547" lon="5.25442">
        <ele>351.8</ele>
        <time>2021-05-03T13:44:44Z</time>
      </trkpt>
      <trkpt lat="45.15467" lon="5.25446">
        <ele>352</ele>
        <time>2021-05-03T13:44:46Z</time>
      </trkpt>
      <trkpt lat="45.15466" lon="5.25448">
        <ele>352</ele>
        <time>2021-05-03T13:44:47Z</time>
      </trkpt>
      <trkpt lat="45.15462" lon="5.25453">
        <ele>352.3</ele>
        <time>2021-05-03T13:44:48Z</time>
      </trkpt>
      <trkpt lat="45.1546" lon="5.25457">
        <ele>352.5</ele>
        <time>2021-05-03T13:44:50Z</time>
      </trkpt>
      <trkpt lat="45.15457" lon="5.25461">
        <ele>352.6</ele>
        <time>2021-05-03T13:44:51Z</time>
      </trkpt>
      <trkpt lat="45.15452" lon="5.25468">
        <ele>353</ele>
        <time>2021-05-03T13:44:53Z</time>
      </trkpt>
      <trkpt lat="45.15447" lon="5.25472">
        <ele>353.2</ele>
        <time>2021-05-03T13:44:55Z</time>
      </trkpt>
      <trkpt lat="45.15444" lon="5.25474">
        <ele>353.4</ele>
        <time>2021-05-03T13:44:56Z</time>
      </trkpt>
      <trkpt lat="45.15439" lon="5.25479">
        <ele>353.7</ele>
        <time>2021-05-03T13:44:58Z</time>
      </trkpt>
      <trkpt lat="45.15437" lon="5.25483">
        <ele>353.9</ele>
        <time>2021-05-03T13:44:59Z</time>
      </trkpt>
      <trkpt lat="45.15433" lon="5.25491">
        <ele>354.2</ele>
        <time>2021-05-03T13:45:01Z</time>
      </trkpt>
      <trkpt lat="45.15432" lon="5.25495">
        <ele>354.4</ele>
        <time>2021-05-03T13:45:02Z</time>
      </trkpt>
      <trkpt lat="45.1543" lon="5.255">
        <ele>354.6</ele>
        <time>2021-05-03T13:45:03Z</time>
      </trkpt>
      <trkpt lat="45.1543" lon="5.25506">
        <ele>354.8</ele>
        <time>2021-05-03T13:45:05Z</time>
      </trkpt>
      <trkpt lat="45.15429" lon="5.25511">
        <ele>354.9</ele>
        <time>2021-05-03T13:45:06Z</time>
      </trkpt>
      <trkpt lat="45.15429" lon="5.2552">
        <ele>355.3</ele>
        <time>2021-05-03T13:45:08Z</time>
      </trkpt>
      <trkpt lat="45.15431" lon="5.25532">
        <ele>355.4</ele>
        <time>2021-05-03T13:45:10Z</time>
      </trkpt>
      <trkpt lat="45.15434" lon="5.25541">
        <ele>355.6</ele>
        <time>2021-05-03T13:45:12Z</time>
      </trkpt>
      <trkpt lat="45.15436" lon="5.25546">
        <ele>355.7</ele>
        <time>2021-05-03T13:45:13Z</time>
      </trkpt>
      <trkpt lat="45.15437" lon="5.25551">
        <ele>355.8</ele>
        <time>2021-05-03T13:45:14Z</time>
      </trkpt>
      <trkpt lat="45.15438" lon="5.25557">
        <ele>355.9</ele>
        <time>2021-05-03T13:45:15Z</time>
      </trkpt>
      <trkpt lat="45.15439" lon="5.25563">
        <ele>356</ele>
        <time>2021-05-03T13:45:16Z</time>
      </trkpt>
      <trkpt lat="45.15441" lon="5.25571">
        <ele>356.2</ele>
        <time>2021-05-03T13:45:17Z</time>
      </trkpt>
      <trkpt lat="45.15441" lon="5.25575">
        <ele>356.3</ele>
        <time>2021-05-03T13:45:18Z</time>
      </trkpt>
      <trkpt lat="45.15443" lon="5.25582">
        <ele>356.5</ele>
        <time>2021-05-03T13:45:20Z</time>
      </trkpt>
      <trkpt lat="45.15443" lon="5.25588">
        <ele>356.6</ele>
        <time>2021-05-03T13:45:21Z</time>
      </trkpt>
      <trkpt lat="45.15443" lon="5.25592">
        <ele>356.7</ele>
        <time>2021-05-03T13:45:23Z</time>
      </trkpt>
      <trkpt lat="45.15443" lon="5.25592">
        <ele>356.7</ele>
        <time>2021-05-03T13:45:25Z</time>
      </trkpt>
      <trkpt lat="45.15444" lon="5.25593">
        <ele>356.7</ele>
        <time>2021-05-03T13:45:26Z</time>
      </trkpt>
      <trkpt lat="45.15444" lon="5.25594">
        <ele>356.8</ele>
        <time>2021-05-03T13:45:27Z</time>
      </trkpt>
      <trkpt lat="45.15444" lon="5.25594">
        <ele>356.8</ele>
        <time>2021-05-03T13:45:28Z</time>
      </trkpt>
      <trkpt lat="45.15444" lon="5.25595">
        <ele>356.8</ele>
        <time>2021-05-03T13:45:29Z</time>
      </trkpt>
      <trkpt lat="45.15445" lon="5.25596">
        <ele>356.8</ele>
        <time>2021-05-03T13:45:30Z</time>
      </trkpt>
      <trkpt lat="45.15445" lon="5.25596">
        <ele>356.9</ele>
        <time>2021-05-03T13:45:31Z</time>
      </trkpt>
      <trkpt lat="45.15445" lon="5.25597">
        <ele>356.9</ele>
        <time>2021-05-03T13:45:32Z</time>
      </trkpt>
      <trkpt lat="45.15445" lon="5.25598">
        <ele>356.9</ele>
        <time>2021-05-03T13:45:33Z</time>
      </trkpt>
      <trkpt lat="45.15446" lon="5.25598">
        <ele>356.9</ele>
        <time>2021-05-03T13:46:12Z</time>
      </trkpt>
      <trkpt lat="45.15446" lon="5.25599">
        <ele>356.9</ele>
        <time>2021-05-03T13:46:13Z</time>
      </trkpt>
      <trkpt lat="45.15446" lon="5.256">
        <ele>357</ele>
        <time>2021-05-03T13:46:14Z</time>
      </trkpt>
      <trkpt lat="45.15448" lon="5.25603">
        <ele>357.1</ele>
        <time>2021-05-03T13:46:15Z</time>
      </trkpt>
      <trkpt lat="45.1545" lon="5.25608">
        <ele>357.2</ele>
        <time>2021-05-03T13:46:16Z</time>
      </trkpt>
      <trkpt lat="45.15454" lon="5.25617">
        <ele>357.6</ele>
        <time>2021-05-03T13:46:18Z</time>
      </trkpt>
      <trkpt lat="45.15458" lon="5.25624">
        <ele>357.8</ele>
        <time>2021-05-03T13:46:20Z</time>
      </trkpt>
      <trkpt lat="45.1546" lon="5.25627">
        <ele>357.9</ele>
        <time>2021-05-03T13:46:21Z</time>
      </trkpt>
      <trkpt lat="45.15462" lon="5.25631">
        <ele>358.1</ele>
        <time>2021-05-03T13:46:22Z</time>
      </trkpt>
      <trkpt lat="45.15466" lon="5.25638">
        <ele>358.3</ele>
        <time>2021-05-03T13:46:23Z</time>
      </trkpt>
      <trkpt lat="45.15469" lon="5.25641">
        <ele>358.4</ele>
        <time>2021-05-03T13:46:25Z</time>
      </trkpt>
      <trkpt lat="45.15471" lon="5.25644">
        <ele>358.5</ele>
        <time>2021-05-03T13:46:26Z</time>
      </trkpt>
      <trkpt lat="45.15473" lon="5.25648">
        <ele>358.7</ele>
        <time>2021-05-03T13:46:27Z</time>
      </trkpt>
      <trkpt lat="45.15476" lon="5.25652">
        <ele>358.8</ele>
        <time>2021-05-03T13:46:28Z</time>
      </trkpt>
      <trkpt lat="45.15481" lon="5.2566">
        <ele>359.1</ele>
        <time>2021-05-03T13:46:30Z</time>
      </trkpt>
      <trkpt lat="45.15484" lon="5.25665">
        <ele>359.2</ele>
        <time>2021-05-03T13:46:31Z</time>
      </trkpt>
      <trkpt lat="45.15489" lon="5.25671">
        <ele>359.4</ele>
        <time>2021-05-03T13:46:32Z</time>
      </trkpt>
      <trkpt lat="45.15491" lon="5.25675">
        <ele>359.4</ele>
        <time>2021-05-03T13:46:33Z</time>
      </trkpt>
      <trkpt lat="45.15494" lon="5.2568">
        <ele>359.5</ele>
        <time>2021-05-03T13:46:35Z</time>
      </trkpt>
      <trkpt lat="45.15497" lon="5.25685">
        <ele>359.6</ele>
        <time>2021-05-03T13:46:36Z</time>
      </trkpt>
      <trkpt lat="45.15502" lon="5.25692">
        <ele>359.6</ele>
        <time>2021-05-03T13:46:38Z</time>
      </trkpt>
      <trkpt lat="45.15504" lon="5.25695">
        <ele>359.6</ele>
        <time>2021-05-03T13:46:39Z</time>
      </trkpt>
      <trkpt lat="45.15508" lon="5.25701">
        <ele>359.6</ele>
        <time>2021-05-03T13:46:40Z</time>
      </trkpt>
      <trkpt lat="45.15512" lon="5.2571">
        <ele>359.6</ele>
        <time>2021-05-03T13:46:42Z</time>
      </trkpt>
      <trkpt lat="45.15515" lon="5.25716">
        <ele>359.5</ele>
        <time>2021-05-03T13:46:43Z</time>
      </trkpt>
      <trkpt lat="45.15519" lon="5.25722">
        <ele>359.4</ele>
        <time>2021-05-03T13:46:44Z</time>
      </trkpt>
      <trkpt lat="45.15524" lon="5.2573">
        <ele>359.2</ele>
        <time>2021-05-03T13:46:46Z</time>
      </trkpt>
      <trkpt lat="45.15527" lon="5.25735">
        <ele>359.1</ele>
        <time>2021-05-03T13:46:47Z</time>
      </trkpt>
      <trkpt lat="45.1553" lon="5.25741">
        <ele>358.9</ele>
        <time>2021-05-03T13:46:48Z</time>
      </trkpt>
      <trkpt lat="45.15534" lon="5.25747">
        <ele>358.8</ele>
        <time>2021-05-03T13:46:49Z</time>
      </trkpt>
      <trkpt lat="45.15537" lon="5.25753">
        <ele>358.6</ele>
        <time>2021-05-03T13:46:50Z</time>
      </trkpt>
      <trkpt lat="45.15541" lon="5.25759">
        <ele>358.3</ele>
        <time>2021-05-03T13:46:51Z</time>
      </trkpt>
      <trkpt lat="45.15545" lon="5.25764">
        <ele>358.1</ele>
        <time>2021-05-03T13:46:52Z</time>
      </trkpt>
      <trkpt lat="45.15549" lon="5.25769">
        <ele>357.8</ele>
        <time>2021-05-03T13:46:53Z</time>
      </trkpt>
      <trkpt lat="45.15553" lon="5.25774">
        <ele>357.5</ele>
        <time>2021-05-03T13:46:54Z</time>
      </trkpt>
      <trkpt lat="45.15558" lon="5.2578">
        <ele>357.2</ele>
        <time>2021-05-03T13:46:55Z</time>
      </trkpt>
      <trkpt lat="45.15563" lon="5.25786">
        <ele>356.8</ele>
        <time>2021-05-03T13:46:56Z</time>
      </trkpt>
      <trkpt lat="45.15568" lon="5.25791">
        <ele>356.4</ele>
        <time>2021-05-03T13:46:57Z</time>
      </trkpt>
      <trkpt lat="45.15574" lon="5.25796">
        <ele>356</ele>
        <time>2021-05-03T13:46:58Z</time>
      </trkpt>
      <trkpt lat="45.15579" lon="5.25801">
        <ele>355.6</ele>
        <time>2021-05-03T13:46:59Z</time>
      </trkpt>
      <trkpt lat="45.15586" lon="5.25808">
        <ele>355.1</ele>
        <time>2021-05-03T13:47:00Z</time>
      </trkpt>
      <trkpt lat="45.15592" lon="5.25815">
        <ele>354.6</ele>
        <time>2021-05-03T13:47:01Z</time>
      </trkpt>
      <trkpt lat="45.15599" lon="5.25823">
        <ele>354</ele>
        <time>2021-05-03T13:47:02Z</time>
      </trkpt>
      <trkpt lat="45.15605" lon="5.2583">
        <ele>353.4</ele>
        <time>2021-05-03T13:47:03Z</time>
      </trkpt>
      <trkpt lat="45.15611" lon="5.25839">
        <ele>352.8</ele>
        <time>2021-05-03T13:47:04Z</time>
      </trkpt>
      <trkpt lat="45.15617" lon="5.25849">
        <ele>352.2</ele>
        <time>2021-05-03T13:47:05Z</time>
      </trkpt>
      <trkpt lat="45.15622" lon="5.25859">
        <ele>351.6</ele>
        <time>2021-05-03T13:47:06Z</time>
      </trkpt>
      <trkpt lat="45.15627" lon="5.25868">
        <ele>351</ele>
        <time>2021-05-03T13:47:07Z</time>
      </trkpt>
      <trkpt lat="45.15633" lon="5.25879">
        <ele>350.3</ele>
        <time>2021-05-03T13:47:08Z</time>
      </trkpt>
      <trkpt lat="45.15638" lon="5.2589">
        <ele>349.6</ele>
        <time>2021-05-03T13:47:09Z</time>
      </trkpt>
      <trkpt lat="45.15643" lon="5.25901">
        <ele>348.9</ele>
        <time>2021-05-03T13:47:10Z</time>
      </trkpt>
      <trkpt lat="45.15648" lon="5.25913">
        <ele>348.3</ele>
        <time>2021-05-03T13:47:11Z</time>
      </trkpt>
      <trkpt lat="45.15653" lon="5.25925">
        <ele>347.5</ele>
        <time>2021-05-03T13:47:12Z</time>
      </trkpt>
      <trkpt lat="45.15657" lon="5.25938">
        <ele>346.8</ele>
        <time>2021-05-03T13:47:13Z</time>
      </trkpt>
      <trkpt lat="45.1566" lon="5.25952">
        <ele>345.9</ele>
        <time>2021-05-03T13:47:14Z</time>
      </trkpt>
      <trkpt lat="45.1566" lon="5.25968">
        <ele>345</ele>
        <time>2021-05-03T13:47:15Z</time>
      </trkpt>
      <trkpt lat="45.15657" lon="5.25983">
        <ele>344.1</ele>
        <time>2021-05-03T13:47:16Z</time>
      </trkpt>
      <trkpt lat="45.15653" lon="5.25997">
        <ele>343.2</ele>
        <time>2021-05-03T13:47:17Z</time>
      </trkpt>
      <trkpt lat="45.15647" lon="5.26011">
        <ele>342.2</ele>
        <time>2021-05-03T13:47:18Z</time>
      </trkpt>
      <trkpt lat="45.15643" lon="5.26026">
        <ele>341.3</ele>
        <time>2021-05-03T13:47:19Z</time>
      </trkpt>
      <trkpt lat="45.15638" lon="5.26041">
        <ele>340.4</ele>
        <time>2021-05-03T13:47:20Z</time>
      </trkpt>
      <trkpt lat="45.15633" lon="5.26056">
        <ele>339.6</ele>
        <time>2021-05-03T13:47:21Z</time>
      </trkpt>
      <trkpt lat="45.15629" lon="5.26071">
        <ele>338.6</ele>
        <time>2021-05-03T13:47:22Z</time>
      </trkpt>
      <trkpt lat="45.15625" lon="5.26086">
        <ele>337.7</ele>
        <time>2021-05-03T13:47:23Z</time>
      </trkpt>
      <trkpt lat="45.15622" lon="5.26103">
        <ele>336.7</ele>
        <time>2021-05-03T13:47:24Z</time>
      </trkpt>
      <trkpt lat="45.1562" lon="5.2612">
        <ele>335.7</ele>
        <time>2021-05-03T13:47:25Z</time>
      </trkpt>
      <trkpt lat="45.15619" lon="5.26138">
        <ele>334.7</ele>
        <time>2021-05-03T13:47:26Z</time>
      </trkpt>
      <trkpt lat="45.15618" lon="5.26156">
        <ele>333.7</ele>
        <time>2021-05-03T13:47:27Z</time>
      </trkpt>
      <trkpt lat="45.15616" lon="5.26175">
        <ele>332.7</ele>
        <time>2021-05-03T13:47:28Z</time>
      </trkpt>
      <trkpt lat="45.15615" lon="5.26193">
        <ele>331.7</ele>
        <time>2021-05-03T13:47:29Z</time>
      </trkpt>
      <trkpt lat="45.15613" lon="5.26211">
        <ele>330.7</ele>
        <time>2021-05-03T13:47:30Z</time>
      </trkpt>
      <trkpt lat="45.15612" lon="5.26228">
        <ele>329.7</ele>
        <time>2021-05-03T13:47:31Z</time>
      </trkpt>
      <trkpt lat="45.1561" lon="5.26246">
        <ele>328.8</ele>
        <time>2021-05-03T13:47:32Z</time>
      </trkpt>
      <trkpt lat="45.15608" lon="5.26264">
        <ele>327.8</ele>
        <time>2021-05-03T13:47:33Z</time>
      </trkpt>
      <trkpt lat="45.15605" lon="5.26282">
        <ele>326.8</ele>
        <time>2021-05-03T13:47:34Z</time>
      </trkpt>
      <trkpt lat="45.156" lon="5.26299">
        <ele>325.8</ele>
        <time>2021-05-03T13:47:35Z</time>
      </trkpt>
      <trkpt lat="45.15595" lon="5.26315">
        <ele>324.8</ele>
        <time>2021-05-03T13:47:36Z</time>
      </trkpt>
      <trkpt lat="45.15588" lon="5.2633">
        <ele>323.8</ele>
        <time>2021-05-03T13:47:37Z</time>
      </trkpt>
      <trkpt lat="45.15581" lon="5.26345">
        <ele>322.8</ele>
        <time>2021-05-03T13:47:38Z</time>
      </trkpt>
      <trkpt lat="45.15573" lon="5.2636">
        <ele>321.7</ele>
        <time>2021-05-03T13:47:39Z</time>
      </trkpt>
      <trkpt lat="45.15567" lon="5.26375">
        <ele>320.6</ele>
        <time>2021-05-03T13:47:40Z</time>
      </trkpt>
      <trkpt lat="45.1556" lon="5.2639">
        <ele>319.7</ele>
        <time>2021-05-03T13:47:41Z</time>
      </trkpt>
      <trkpt lat="45.15554" lon="5.26406">
        <ele>318.6</ele>
        <time>2021-05-03T13:47:42Z</time>
      </trkpt>
      <trkpt lat="45.15547" lon="5.26421">
        <ele>317.6</ele>
        <time>2021-05-03T13:47:43Z</time>
      </trkpt>
      <trkpt lat="45.1554" lon="5.26437">
        <ele>316.5</ele>
        <time>2021-05-03T13:47:44Z</time>
      </trkpt>
      <trkpt lat="45.15535" lon="5.26454">
        <ele>315.7</ele>
        <time>2021-05-03T13:47:45Z</time>
      </trkpt>
      <trkpt lat="45.1553" lon="5.26471">
        <ele>314.8</ele>
        <time>2021-05-03T13:47:46Z</time>
      </trkpt>
      <trkpt lat="45.15526" lon="5.26489">
        <ele>314</ele>
        <time>2021-05-03T13:47:47Z</time>
      </trkpt>
      <trkpt lat="45.15523" lon="5.26507">
        <ele>313.1</ele>
        <time>2021-05-03T13:47:48Z</time>
      </trkpt>
      <trkpt lat="45.1552" lon="5.26525">
        <ele>312.3</ele>
        <time>2021-05-03T13:47:49Z</time>
      </trkpt>
      <trkpt lat="45.15517" lon="5.26544">
        <ele>311.6</ele>
        <time>2021-05-03T13:47:50Z</time>
      </trkpt>
      <trkpt lat="45.15513" lon="5.26562">
        <ele>310.9</ele>
        <time>2021-05-03T13:47:51Z</time>
      </trkpt>
      <trkpt lat="45.15509" lon="5.26578">
        <ele>310.2</ele>
        <time>2021-05-03T13:47:52Z</time>
      </trkpt>
      <trkpt lat="45.15505" lon="5.26594">
        <ele>309.7</ele>
        <time>2021-05-03T13:47:53Z</time>
      </trkpt>
      <trkpt lat="45.15501" lon="5.26608">
        <ele>309.2</ele>
        <time>2021-05-03T13:47:54Z</time>
      </trkpt>
      <trkpt lat="45.15496" lon="5.26623">
        <ele>308.7</ele>
        <time>2021-05-03T13:47:55Z</time>
      </trkpt>
      <trkpt lat="45.1549" lon="5.26636">
        <ele>308.3</ele>
        <time>2021-05-03T13:47:56Z</time>
      </trkpt>
      <trkpt lat="45.15486" lon="5.2665">
        <ele>308</ele>
        <time>2021-05-03T13:47:57Z</time>
      </trkpt>
      <trkpt lat="45.15481" lon="5.26663">
        <ele>307.7</ele>
        <time>2021-05-03T13:47:58Z</time>
      </trkpt>
      <trkpt lat="45.15476" lon="5.26676">
        <ele>307.4</ele>
        <time>2021-05-03T13:47:59Z</time>
      </trkpt>
      <trkpt lat="45.1547" lon="5.26689">
        <ele>307.2</ele>
        <time>2021-05-03T13:48:00Z</time>
      </trkpt>
      <trkpt lat="45.15464" lon="5.26701">
        <ele>307</ele>
        <time>2021-05-03T13:48:01Z</time>
      </trkpt>
      <trkpt lat="45.15458" lon="5.26713">
        <ele>306.9</ele>
        <time>2021-05-03T13:48:02Z</time>
      </trkpt>
      <trkpt lat="45.15453" lon="5.26725">
        <ele>306.8</ele>
        <time>2021-05-03T13:48:03Z</time>
      </trkpt>
      <trkpt lat="45.15447" lon="5.26736">
        <ele>306.8</ele>
        <time>2021-05-03T13:48:04Z</time>
      </trkpt>
      <trkpt lat="45.15442" lon="5.26747">
        <ele>306.8</ele>
        <time>2021-05-03T13:48:05Z</time>
      </trkpt>
      <trkpt lat="45.15437" lon="5.26758">
        <ele>306.9</ele>
        <time>2021-05-03T13:48:06Z</time>
      </trkpt>
      <trkpt lat="45.15432" lon="5.26768">
        <ele>306.9</ele>
        <time>2021-05-03T13:48:07Z</time>
      </trkpt>
      <trkpt lat="45.15428" lon="5.26779">
        <ele>307</ele>
        <time>2021-05-03T13:48:08Z</time>
      </trkpt>
      <trkpt lat="45.15424" lon="5.26789">
        <ele>307</ele>
        <time>2021-05-03T13:48:09Z</time>
      </trkpt>
      <trkpt lat="45.15419" lon="5.26799">
        <ele>307.1</ele>
        <time>2021-05-03T13:48:10Z</time>
      </trkpt>
      <trkpt lat="45.15413" lon="5.26808">
        <ele>307.1</ele>
        <time>2021-05-03T13:48:11Z</time>
      </trkpt>
      <trkpt lat="45.15407" lon="5.26817">
        <ele>307</ele>
        <time>2021-05-03T13:48:12Z</time>
      </trkpt>
      <trkpt lat="45.154" lon="5.26825">
        <ele>307</ele>
        <time>2021-05-03T13:48:13Z</time>
      </trkpt>
      <trkpt lat="45.15394" lon="5.26832">
        <ele>306.9</ele>
        <time>2021-05-03T13:48:14Z</time>
      </trkpt>
      <trkpt lat="45.15387" lon="5.26839">
        <ele>306.8</ele>
        <time>2021-05-03T13:48:15Z</time>
      </trkpt>
      <trkpt lat="45.1538" lon="5.26846">
        <ele>306.7</ele>
        <time>2021-05-03T13:48:16Z</time>
      </trkpt>
      <trkpt lat="45.15372" lon="5.26853">
        <ele>306.6</ele>
        <time>2021-05-03T13:48:17Z</time>
      </trkpt>
      <trkpt lat="45.15366" lon="5.2686">
        <ele>306.4</ele>
        <time>2021-05-03T13:48:18Z</time>
      </trkpt>
      <trkpt lat="45.15359" lon="5.26868">
        <ele>306.3</ele>
        <time>2021-05-03T13:48:19Z</time>
      </trkpt>
      <trkpt lat="45.15353" lon="5.26874">
        <ele>306.1</ele>
        <time>2021-05-03T13:48:20Z</time>
      </trkpt>
      <trkpt lat="45.15346" lon="5.26881">
        <ele>305.9</ele>
        <time>2021-05-03T13:48:21Z</time>
      </trkpt>
      <trkpt lat="45.15339" lon="5.26887">
        <ele>305.7</ele>
        <time>2021-05-03T13:48:22Z</time>
      </trkpt>
      <trkpt lat="45.15332" lon="5.26894">
        <ele>305.5</ele>
        <time>2021-05-03T13:48:23Z</time>
      </trkpt>
      <trkpt lat="45.15325" lon="5.26901">
        <ele>305.3</ele>
        <time>2021-05-03T13:48:24Z</time>
      </trkpt>
      <trkpt lat="45.15318" lon="5.26908">
        <ele>305.2</ele>
        <time>2021-05-03T13:48:25Z</time>
      </trkpt>
      <trkpt lat="45.15311" lon="5.26914">
        <ele>305.1</ele>
        <time>2021-05-03T13:48:26Z</time>
      </trkpt>
      <trkpt lat="45.15305" lon="5.26921">
        <ele>305</ele>
        <time>2021-05-03T13:48:27Z</time>
      </trkpt>
      <trkpt lat="45.15299" lon="5.26928">
        <ele>304.9</ele>
        <time>2021-05-03T13:48:28Z</time>
      </trkpt>
      <trkpt lat="45.15293" lon="5.26935">
        <ele>304.8</ele>
        <time>2021-05-03T13:48:29Z</time>
      </trkpt>
      <trkpt lat="45.15286" lon="5.26942">
        <ele>304.7</ele>
        <time>2021-05-03T13:48:30Z</time>
      </trkpt>
      <trkpt lat="45.1528" lon="5.26949">
        <ele>304.6</ele>
        <time>2021-05-03T13:48:31Z</time>
      </trkpt>
      <trkpt lat="45.15274" lon="5.26956">
        <ele>304.5</ele>
        <time>2021-05-03T13:48:32Z</time>
      </trkpt>
      <trkpt lat="45.15268" lon="5.26963">
        <ele>304.5</ele>
        <time>2021-05-03T13:48:33Z</time>
      </trkpt>
      <trkpt lat="45.15262" lon="5.26969">
        <ele>304.4</ele>
        <time>2021-05-03T13:48:34Z</time>
      </trkpt>
      <trkpt lat="45.15255" lon="5.26976">
        <ele>304.2</ele>
        <time>2021-05-03T13:48:35Z</time>
      </trkpt>
      <trkpt lat="45.15249" lon="5.26982">
        <ele>304.1</ele>
        <time>2021-05-03T13:48:36Z</time>
      </trkpt>
      <trkpt lat="45.15242" lon="5.26989">
        <ele>303.9</ele>
        <time>2021-05-03T13:48:37Z</time>
      </trkpt>
      <trkpt lat="45.15235" lon="5.26996">
        <ele>303.7</ele>
        <time>2021-05-03T13:48:38Z</time>
      </trkpt>
      <trkpt lat="45.15228" lon="5.27003">
        <ele>303.6</ele>
        <time>2021-05-03T13:48:39Z</time>
      </trkpt>
      <trkpt lat="45.15222" lon="5.2701">
        <ele>303.4</ele>
        <time>2021-05-03T13:48:40Z</time>
      </trkpt>
      <trkpt lat="45.15216" lon="5.27016">
        <ele>303.3</ele>
        <time>2021-05-03T13:48:41Z</time>
      </trkpt>
      <trkpt lat="45.1521" lon="5.27023">
        <ele>303.2</ele>
        <time>2021-05-03T13:48:42Z</time>
      </trkpt>
      <trkpt lat="45.15204" lon="5.27029">
        <ele>303</ele>
        <time>2021-05-03T13:48:43Z</time>
      </trkpt>
      <trkpt lat="45.15198" lon="5.27036">
        <ele>303</ele>
        <time>2021-05-03T13:48:44Z</time>
      </trkpt>
      <trkpt lat="45.15192" lon="5.27042">
        <ele>302.9</ele>
        <time>2021-05-03T13:48:45Z</time>
      </trkpt>
      <trkpt lat="45.15186" lon="5.27048">
        <ele>302.8</ele>
        <time>2021-05-03T13:48:46Z</time>
      </trkpt>
      <trkpt lat="45.15181" lon="5.27054">
        <ele>302.7</ele>
        <time>2021-05-03T13:48:47Z</time>
      </trkpt>
      <trkpt lat="45.15175" lon="5.2706">
        <ele>302.6</ele>
        <time>2021-05-03T13:48:48Z</time>
      </trkpt>
      <trkpt lat="45.1517" lon="5.27066">
        <ele>302.5</ele>
        <time>2021-05-03T13:48:49Z</time>
      </trkpt>
      <trkpt lat="45.15164" lon="5.27072">
        <ele>302.4</ele>
        <time>2021-05-03T13:48:50Z</time>
      </trkpt>
      <trkpt lat="45.15158" lon="5.27078">
        <ele>302.4</ele>
        <time>2021-05-03T13:48:51Z</time>
      </trkpt>
      <trkpt lat="45.15153" lon="5.27083">
        <ele>302.3</ele>
        <time>2021-05-03T13:48:52Z</time>
      </trkpt>
      <trkpt lat="45.15147" lon="5.27089">
        <ele>302.2</ele>
        <time>2021-05-03T13:48:53Z</time>
      </trkpt>
      <trkpt lat="45.15141" lon="5.27095">
        <ele>302.1</ele>
        <time>2021-05-03T13:48:54Z</time>
      </trkpt>
      <trkpt lat="45.15136" lon="5.27101">
        <ele>301.9</ele>
        <time>2021-05-03T13:48:55Z</time>
      </trkpt>
      <trkpt lat="45.1513" lon="5.27107">
        <ele>301.8</ele>
        <time>2021-05-03T13:48:56Z</time>
      </trkpt>
      <trkpt lat="45.15125" lon="5.27113">
        <ele>301.7</ele>
        <time>2021-05-03T13:48:57Z</time>
      </trkpt>
      <trkpt lat="45.15119" lon="5.27119">
        <ele>301.6</ele>
        <time>2021-05-03T13:48:58Z</time>
      </trkpt>
      <trkpt lat="45.15113" lon="5.27124">
        <ele>301.5</ele>
        <time>2021-05-03T13:48:59Z</time>
      </trkpt>
      <trkpt lat="45.15108" lon="5.2713">
        <ele>301.5</ele>
        <time>2021-05-03T13:49:00Z</time>
      </trkpt>
      <trkpt lat="45.15102" lon="5.27135">
        <ele>301.4</ele>
        <time>2021-05-03T13:49:01Z</time>
      </trkpt>
      <trkpt lat="45.15096" lon="5.27141">
        <ele>301.3</ele>
        <time>2021-05-03T13:49:02Z</time>
      </trkpt>
      <trkpt lat="45.15091" lon="5.27146">
        <ele>301.3</ele>
        <time>2021-05-03T13:49:03Z</time>
      </trkpt>
      <trkpt lat="45.15085" lon="5.27152">
        <ele>301.2</ele>
        <time>2021-05-03T13:49:04Z</time>
      </trkpt>
      <trkpt lat="45.1508" lon="5.27158">
        <ele>301.2</ele>
        <time>2021-05-03T13:49:05Z</time>
      </trkpt>
      <trkpt lat="45.15075" lon="5.27164">
        <ele>301.1</ele>
        <time>2021-05-03T13:49:06Z</time>
      </trkpt>
      <trkpt lat="45.15069" lon="5.27169">
        <ele>301.1</ele>
        <time>2021-05-03T13:49:07Z</time>
      </trkpt>
      <trkpt lat="45.15063" lon="5.27175">
        <ele>301</ele>
        <time>2021-05-03T13:49:08Z</time>
      </trkpt>
      <trkpt lat="45.15057" lon="5.27181">
        <ele>301</ele>
        <time>2021-05-03T13:49:09Z</time>
      </trkpt>
      <trkpt lat="45.15052" lon="5.27186">
        <ele>300.9</ele>
        <time>2021-05-03T13:49:10Z</time>
      </trkpt>
      <trkpt lat="45.15047" lon="5.27192">
        <ele>300.9</ele>
        <time>2021-05-03T13:49:11Z</time>
      </trkpt>
      <trkpt lat="45.15041" lon="5.27197">
        <ele>300.8</ele>
        <time>2021-05-03T13:49:12Z</time>
      </trkpt>
      <trkpt lat="45.15036" lon="5.27203">
        <ele>300.7</ele>
        <time>2021-05-03T13:49:13Z</time>
      </trkpt>
      <trkpt lat="45.1503" lon="5.27209">
        <ele>300.7</ele>
        <time>2021-05-03T13:49:14Z</time>
      </trkpt>
      <trkpt lat="45.15024" lon="5.27214">
        <ele>300.6</ele>
        <time>2021-05-03T13:49:15Z</time>
      </trkpt>
      <trkpt lat="45.15019" lon="5.2722">
        <ele>300.5</ele>
        <time>2021-05-03T13:49:16Z</time>
      </trkpt>
      <trkpt lat="45.15014" lon="5.27226">
        <ele>300.4</ele>
        <time>2021-05-03T13:49:17Z</time>
      </trkpt>
      <trkpt lat="45.15008" lon="5.27232">
        <ele>300.3</ele>
        <time>2021-05-03T13:49:18Z</time>
      </trkpt>
      <trkpt lat="45.15002" lon="5.27237">
        <ele>300.2</ele>
        <time>2021-05-03T13:49:19Z</time>
      </trkpt>
      <trkpt lat="45.14996" lon="5.27243">
        <ele>300.2</ele>
        <time>2021-05-03T13:49:20Z</time>
      </trkpt>
      <trkpt lat="45.1499" lon="5.27248">
        <ele>300.1</ele>
        <time>2021-05-03T13:49:21Z</time>
      </trkpt>
      <trkpt lat="45.14985" lon="5.27254">
        <ele>300</ele>
        <time>2021-05-03T13:49:22Z</time>
      </trkpt>
      <trkpt lat="45.14979" lon="5.2726">
        <ele>299.9</ele>
        <time>2021-05-03T13:49:23Z</time>
      </trkpt>
      <trkpt lat="45.14974" lon="5.27265">
        <ele>299.9</ele>
        <time>2021-05-03T13:49:24Z</time>
      </trkpt>
      <trkpt lat="45.14968" lon="5.2727">
        <ele>299.8</ele>
        <time>2021-05-03T13:49:25Z</time>
      </trkpt>
      <trkpt lat="45.14963" lon="5.27276">
        <ele>299.8</ele>
        <time>2021-05-03T13:49:26Z</time>
      </trkpt>
      <trkpt lat="45.14957" lon="5.27282">
        <ele>299.8</ele>
        <time>2021-05-03T13:49:27Z</time>
      </trkpt>
      <trkpt lat="45.14952" lon="5.27288">
        <ele>299.7</ele>
        <time>2021-05-03T13:49:28Z</time>
      </trkpt>
      <trkpt lat="45.14946" lon="5.27293">
        <ele>299.7</ele>
        <time>2021-05-03T13:49:29Z</time>
      </trkpt>
      <trkpt lat="45.1494" lon="5.27298">
        <ele>299.6</ele>
        <time>2021-05-03T13:49:30Z</time>
      </trkpt>
      <trkpt lat="45.14935" lon="5.27304">
        <ele>299.6</ele>
        <time>2021-05-03T13:49:31Z</time>
      </trkpt>
      <trkpt lat="45.14929" lon="5.2731">
        <ele>299.5</ele>
        <time>2021-05-03T13:49:32Z</time>
      </trkpt>
      <trkpt lat="45.14923" lon="5.27316">
        <ele>299.4</ele>
        <time>2021-05-03T13:49:33Z</time>
      </trkpt>
      <trkpt lat="45.14918" lon="5.27321">
        <ele>299.4</ele>
        <time>2021-05-03T13:49:34Z</time>
      </trkpt>
      <trkpt lat="45.14912" lon="5.27327">
        <ele>299.3</ele>
        <time>2021-05-03T13:49:35Z</time>
      </trkpt>
      <trkpt lat="45.14907" lon="5.27333">
        <ele>299.2</ele>
        <time>2021-05-03T13:49:36Z</time>
      </trkpt>
      <trkpt lat="45.14901" lon="5.27338">
        <ele>299.2</ele>
        <time>2021-05-03T13:49:37Z</time>
      </trkpt>
      <trkpt lat="45.14895" lon="5.27343">
        <ele>299.2</ele>
        <time>2021-05-03T13:49:38Z</time>
      </trkpt>
      <trkpt lat="45.1489" lon="5.27349">
        <ele>299.1</ele>
        <time>2021-05-03T13:49:39Z</time>
      </trkpt>
      <trkpt lat="45.14884" lon="5.27355">
        <ele>299.1</ele>
        <time>2021-05-03T13:49:40Z</time>
      </trkpt>
      <trkpt lat="45.14878" lon="5.27361">
        <ele>299.1</ele>
        <time>2021-05-03T13:49:41Z</time>
      </trkpt>
      <trkpt lat="45.14873" lon="5.27367">
        <ele>299.1</ele>
        <time>2021-05-03T13:49:42Z</time>
      </trkpt>
      <trkpt lat="45.14868" lon="5.27373">
        <ele>299.1</ele>
        <time>2021-05-03T13:49:43Z</time>
      </trkpt>
      <trkpt lat="45.14862" lon="5.27379">
        <ele>299.1</ele>
        <time>2021-05-03T13:49:44Z</time>
      </trkpt>
      <trkpt lat="45.14857" lon="5.27384">
        <ele>299.1</ele>
        <time>2021-05-03T13:49:45Z</time>
      </trkpt>
      <trkpt lat="45.14851" lon="5.2739">
        <ele>299.1</ele>
        <time>2021-05-03T13:49:46Z</time>
      </trkpt>
      <trkpt lat="45.14845" lon="5.27395">
        <ele>299</ele>
        <time>2021-05-03T13:49:47Z</time>
      </trkpt>
      <trkpt lat="45.14839" lon="5.27401">
        <ele>299</ele>
        <time>2021-05-03T13:49:48Z</time>
      </trkpt>
      <trkpt lat="45.14834" lon="5.27406">
        <ele>299</ele>
        <time>2021-05-03T13:49:49Z</time>
      </trkpt>
      <trkpt lat="45.14828" lon="5.27412">
        <ele>299</ele>
        <time>2021-05-03T13:49:50Z</time>
      </trkpt>
      <trkpt lat="45.14822" lon="5.27417">
        <ele>298.9</ele>
        <time>2021-05-03T13:49:51Z</time>
      </trkpt>
      <trkpt lat="45.14816" lon="5.27423">
        <ele>298.9</ele>
        <time>2021-05-03T13:49:52Z</time>
      </trkpt>
      <trkpt lat="45.1481" lon="5.27427">
        <ele>298.9</ele>
        <time>2021-05-03T13:49:53Z</time>
      </trkpt>
      <trkpt lat="45.14804" lon="5.27432">
        <ele>298.9</ele>
        <time>2021-05-03T13:49:54Z</time>
      </trkpt>
      <trkpt lat="45.14799" lon="5.27436">
        <ele>298.9</ele>
        <time>2021-05-03T13:49:55Z</time>
      </trkpt>
      <trkpt lat="45.14793" lon="5.2744">
        <ele>298.8</ele>
        <time>2021-05-03T13:49:56Z</time>
      </trkpt>
      <trkpt lat="45.14787" lon="5.27444">
        <ele>298.8</ele>
        <time>2021-05-03T13:49:57Z</time>
      </trkpt>
      <trkpt lat="45.14781" lon="5.27447">
        <ele>298.7</ele>
        <time>2021-05-03T13:49:58Z</time>
      </trkpt>
      <trkpt lat="45.14775" lon="5.27451">
        <ele>298.7</ele>
        <time>2021-05-03T13:49:59Z</time>
      </trkpt>
      <trkpt lat="45.14769" lon="5.27455">
        <ele>298.6</ele>
        <time>2021-05-03T13:50:00Z</time>
      </trkpt>
      <trkpt lat="45.14763" lon="5.27458">
        <ele>298.6</ele>
        <time>2021-05-03T13:50:01Z</time>
      </trkpt>
      <trkpt lat="45.14757" lon="5.27462">
        <ele>298.5</ele>
        <time>2021-05-03T13:50:02Z</time>
      </trkpt>
      <trkpt lat="45.14752" lon="5.27467">
        <ele>298.4</ele>
        <time>2021-05-03T13:50:03Z</time>
      </trkpt>
      <trkpt lat="45.14746" lon="5.27471">
        <ele>298.4</ele>
        <time>2021-05-03T13:50:04Z</time>
      </trkpt>
      <trkpt lat="45.14741" lon="5.27475">
        <ele>298.3</ele>
        <time>2021-05-03T13:50:05Z</time>
      </trkpt>
      <trkpt lat="45.14736" lon="5.27479">
        <ele>298.2</ele>
        <time>2021-05-03T13:50:06Z</time>
      </trkpt>
      <trkpt lat="45.14731" lon="5.27482">
        <ele>298.1</ele>
        <time>2021-05-03T13:50:07Z</time>
      </trkpt>
      <trkpt lat="45.14725" lon="5.27485">
        <ele>298</ele>
        <time>2021-05-03T13:50:08Z</time>
      </trkpt>
      <trkpt lat="45.14719" lon="5.27488">
        <ele>297.9</ele>
        <time>2021-05-03T13:50:09Z</time>
      </trkpt>
      <trkpt lat="45.14714" lon="5.2749">
        <ele>297.8</ele>
        <time>2021-05-03T13:50:10Z</time>
      </trkpt>
      <trkpt lat="45.14708" lon="5.27493">
        <ele>297.7</ele>
        <time>2021-05-03T13:50:11Z</time>
      </trkpt>
      <trkpt lat="45.14703" lon="5.27496">
        <ele>297.5</ele>
        <time>2021-05-03T13:50:12Z</time>
      </trkpt>
      <trkpt lat="45.14697" lon="5.275">
        <ele>297.3</ele>
        <time>2021-05-03T13:50:13Z</time>
      </trkpt>
      <trkpt lat="45.14692" lon="5.27504">
        <ele>297.1</ele>
        <time>2021-05-03T13:50:14Z</time>
      </trkpt>
      <trkpt lat="45.14686" lon="5.27508">
        <ele>296.9</ele>
        <time>2021-05-03T13:50:15Z</time>
      </trkpt>
      <trkpt lat="45.1468" lon="5.27512">
        <ele>296.7</ele>
        <time>2021-05-03T13:50:16Z</time>
      </trkpt>
      <trkpt lat="45.14674" lon="5.27516">
        <ele>296.5</ele>
        <time>2021-05-03T13:50:17Z</time>
      </trkpt>
      <trkpt lat="45.14667" lon="5.27521">
        <ele>296.2</ele>
        <time>2021-05-03T13:50:18Z</time>
      </trkpt>
      <trkpt lat="45.14661" lon="5.27526">
        <ele>296</ele>
        <time>2021-05-03T13:50:19Z</time>
      </trkpt>
      <trkpt lat="45.14655" lon="5.2753">
        <ele>295.7</ele>
        <time>2021-05-03T13:50:20Z</time>
      </trkpt>
      <trkpt lat="45.14649" lon="5.27535">
        <ele>295.5</ele>
        <time>2021-05-03T13:50:21Z</time>
      </trkpt>
      <trkpt lat="45.14643" lon="5.2754">
        <ele>295.2</ele>
        <time>2021-05-03T13:50:22Z</time>
      </trkpt>
      <trkpt lat="45.14636" lon="5.27544">
        <ele>295</ele>
        <time>2021-05-03T13:50:23Z</time>
      </trkpt>
      <trkpt lat="45.1463" lon="5.27548">
        <ele>294.7</ele>
        <time>2021-05-03T13:50:24Z</time>
      </trkpt>
      <trkpt lat="45.14623" lon="5.27553">
        <ele>294.4</ele>
        <time>2021-05-03T13:50:25Z</time>
      </trkpt>
      <trkpt lat="45.14616" lon="5.27557">
        <ele>294.1</ele>
        <time>2021-05-03T13:50:26Z</time>
      </trkpt>
      <trkpt lat="45.14609" lon="5.27561">
        <ele>293.9</ele>
        <time>2021-05-03T13:50:27Z</time>
      </trkpt>
      <trkpt lat="45.14602" lon="5.27566">
        <ele>293.6</ele>
        <time>2021-05-03T13:50:28Z</time>
      </trkpt>
      <trkpt lat="45.14594" lon="5.27571">
        <ele>293.4</ele>
        <time>2021-05-03T13:50:29Z</time>
      </trkpt>
      <trkpt lat="45.14587" lon="5.27576">
        <ele>293.1</ele>
        <time>2021-05-03T13:50:30Z</time>
      </trkpt>
      <trkpt lat="45.14581" lon="5.27583">
        <ele>292.9</ele>
        <time>2021-05-03T13:50:31Z</time>
      </trkpt>
      <trkpt lat="45.14576" lon="5.2759">
        <ele>292.7</ele>
        <time>2021-05-03T13:50:32Z</time>
      </trkpt>
      <trkpt lat="45.1457" lon="5.27599">
        <ele>292.4</ele>
        <time>2021-05-03T13:50:33Z</time>
      </trkpt>
      <trkpt lat="45.14565" lon="5.27608">
        <ele>292.1</ele>
        <time>2021-05-03T13:50:34Z</time>
      </trkpt>
      <trkpt lat="45.14561" lon="5.27618">
        <ele>291.8</ele>
        <time>2021-05-03T13:50:35Z</time>
      </trkpt>
      <trkpt lat="45.14556" lon="5.27628">
        <ele>291.5</ele>
        <time>2021-05-03T13:50:36Z</time>
      </trkpt>
      <trkpt lat="45.14551" lon="5.27637">
        <ele>291.2</ele>
        <time>2021-05-03T13:50:37Z</time>
      </trkpt>
      <trkpt lat="45.14547" lon="5.27646">
        <ele>291</ele>
        <time>2021-05-03T13:50:38Z</time>
      </trkpt>
      <trkpt lat="45.14544" lon="5.27656">
        <ele>290.8</ele>
        <time>2021-05-03T13:50:39Z</time>
      </trkpt>
      <trkpt lat="45.14541" lon="5.27666">
        <ele>290.4</ele>
        <time>2021-05-03T13:50:40Z</time>
      </trkpt>
      <trkpt lat="45.14538" lon="5.27677">
        <ele>290.1</ele>
        <time>2021-05-03T13:50:41Z</time>
      </trkpt>
      <trkpt lat="45.14536" lon="5.27687">
        <ele>289.8</ele>
        <time>2021-05-03T13:50:42Z</time>
      </trkpt>
      <trkpt lat="45.14534" lon="5.27697">
        <ele>289.4</ele>
        <time>2021-05-03T13:50:43Z</time>
      </trkpt>
      <trkpt lat="45.14531" lon="5.27708">
        <ele>289.1</ele>
        <time>2021-05-03T13:50:44Z</time>
      </trkpt>
      <trkpt lat="45.14528" lon="5.27719">
        <ele>288.7</ele>
        <time>2021-05-03T13:50:45Z</time>
      </trkpt>
      <trkpt lat="45.14525" lon="5.2773">
        <ele>288.4</ele>
        <time>2021-05-03T13:50:46Z</time>
      </trkpt>
      <trkpt lat="45.14523" lon="5.2774">
        <ele>288.1</ele>
        <time>2021-05-03T13:50:47Z</time>
      </trkpt>
      <trkpt lat="45.1452" lon="5.2775">
        <ele>287.9</ele>
        <time>2021-05-03T13:50:48Z</time>
      </trkpt>
      <trkpt lat="45.14517" lon="5.2776">
        <ele>287.6</ele>
        <time>2021-05-03T13:50:49Z</time>
      </trkpt>
      <trkpt lat="45.14513" lon="5.2777">
        <ele>287.5</ele>
        <time>2021-05-03T13:50:50Z</time>
      </trkpt>
      <trkpt lat="45.1451" lon="5.2778">
        <ele>287.3</ele>
        <time>2021-05-03T13:50:51Z</time>
      </trkpt>
      <trkpt lat="45.14507" lon="5.27789">
        <ele>287.1</ele>
        <time>2021-05-03T13:50:52Z</time>
      </trkpt>
      <trkpt lat="45.14504" lon="5.278">
        <ele>286.9</ele>
        <time>2021-05-03T13:50:53Z</time>
      </trkpt>
      <trkpt lat="45.145" lon="5.27809">
        <ele>286.8</ele>
        <time>2021-05-03T13:50:54Z</time>
      </trkpt>
      <trkpt lat="45.14497" lon="5.27819">
        <ele>286.6</ele>
        <time>2021-05-03T13:50:55Z</time>
      </trkpt>
      <trkpt lat="45.14494" lon="5.27828">
        <ele>286.4</ele>
        <time>2021-05-03T13:50:56Z</time>
      </trkpt>
      <trkpt lat="45.1449" lon="5.27837">
        <ele>286.2</ele>
        <time>2021-05-03T13:50:57Z</time>
      </trkpt>
      <trkpt lat="45.14486" lon="5.27846">
        <ele>286.1</ele>
        <time>2021-05-03T13:50:58Z</time>
      </trkpt>
      <trkpt lat="45.14482" lon="5.27855">
        <ele>286</ele>
        <time>2021-05-03T13:50:59Z</time>
      </trkpt>
      <trkpt lat="45.14478" lon="5.27863">
        <ele>285.8</ele>
        <time>2021-05-03T13:51:00Z</time>
      </trkpt>
      <trkpt lat="45.14473" lon="5.27872">
        <ele>285.7</ele>
        <time>2021-05-03T13:51:01Z</time>
      </trkpt>
      <trkpt lat="45.14469" lon="5.27881">
        <ele>285.6</ele>
        <time>2021-05-03T13:51:02Z</time>
      </trkpt>
      <trkpt lat="45.14465" lon="5.27889">
        <ele>285.5</ele>
        <time>2021-05-03T13:51:03Z</time>
      </trkpt>
      <trkpt lat="45.14461" lon="5.27897">
        <ele>285.4</ele>
        <time>2021-05-03T13:51:04Z</time>
      </trkpt>
      <trkpt lat="45.14457" lon="5.27905">
        <ele>285.3</ele>
        <time>2021-05-03T13:51:05Z</time>
      </trkpt>
      <trkpt lat="45.14453" lon="5.27913">
        <ele>285.2</ele>
        <time>2021-05-03T13:51:06Z</time>
      </trkpt>
      <trkpt lat="45.14449" lon="5.27921">
        <ele>285.1</ele>
        <time>2021-05-03T13:51:07Z</time>
      </trkpt>
      <trkpt lat="45.14446" lon="5.27929">
        <ele>285</ele>
        <time>2021-05-03T13:51:08Z</time>
      </trkpt>
      <trkpt lat="45.14442" lon="5.27937">
        <ele>285</ele>
        <time>2021-05-03T13:51:09Z</time>
      </trkpt>
      <trkpt lat="45.14437" lon="5.27944">
        <ele>284.9</ele>
        <time>2021-05-03T13:51:10Z</time>
      </trkpt>
      <trkpt lat="45.14433" lon="5.27952">
        <ele>284.8</ele>
        <time>2021-05-03T13:51:11Z</time>
      </trkpt>
      <trkpt lat="45.14429" lon="5.2796">
        <ele>284.7</ele>
        <time>2021-05-03T13:51:12Z</time>
      </trkpt>
      <trkpt lat="45.14426" lon="5.27968">
        <ele>284.7</ele>
        <time>2021-05-03T13:51:13Z</time>
      </trkpt>
      <trkpt lat="45.14422" lon="5.27975">
        <ele>284.7</ele>
        <time>2021-05-03T13:51:14Z</time>
      </trkpt>
      <trkpt lat="45.14418" lon="5.27983">
        <ele>284.6</ele>
        <time>2021-05-03T13:51:15Z</time>
      </trkpt>
      <trkpt lat="45.14415" lon="5.2799">
        <ele>284.5</ele>
        <time>2021-05-03T13:51:16Z</time>
      </trkpt>
      <trkpt lat="45.14412" lon="5.27998">
        <ele>284.4</ele>
        <time>2021-05-03T13:51:17Z</time>
      </trkpt>
      <trkpt lat="45.14408" lon="5.28005">
        <ele>284.3</ele>
        <time>2021-05-03T13:51:18Z</time>
      </trkpt>
      <trkpt lat="45.14404" lon="5.28013">
        <ele>284.3</ele>
        <time>2021-05-03T13:51:19Z</time>
      </trkpt>
      <trkpt lat="45.144" lon="5.2802">
        <ele>284.2</ele>
        <time>2021-05-03T13:51:20Z</time>
      </trkpt>
      <trkpt lat="45.14397" lon="5.28028">
        <ele>284.1</ele>
        <time>2021-05-03T13:51:21Z</time>
      </trkpt>
      <trkpt lat="45.14393" lon="5.28036">
        <ele>284</ele>
        <time>2021-05-03T13:51:22Z</time>
      </trkpt>
      <trkpt lat="45.1439" lon="5.28043">
        <ele>283.9</ele>
        <time>2021-05-03T13:51:23Z</time>
      </trkpt>
      <trkpt lat="45.14386" lon="5.28051">
        <ele>283.9</ele>
        <time>2021-05-03T13:51:24Z</time>
      </trkpt>
      <trkpt lat="45.14382" lon="5.2806">
        <ele>283.8</ele>
        <time>2021-05-03T13:51:25Z</time>
      </trkpt>
      <trkpt lat="45.14379" lon="5.28068">
        <ele>283.8</ele>
        <time>2021-05-03T13:51:26Z</time>
      </trkpt>
      <trkpt lat="45.14376" lon="5.28075">
        <ele>283.8</ele>
        <time>2021-05-03T13:51:27Z</time>
      </trkpt>
      <trkpt lat="45.14373" lon="5.28083">
        <ele>283.7</ele>
        <time>2021-05-03T13:51:28Z</time>
      </trkpt>
      <trkpt lat="45.14369" lon="5.2809">
        <ele>283.7</ele>
        <time>2021-05-03T13:51:29Z</time>
      </trkpt>
      <trkpt lat="45.14365" lon="5.28096">
        <ele>283.7</ele>
        <time>2021-05-03T13:51:30Z</time>
      </trkpt>
      <trkpt lat="45.14361" lon="5.28103">
        <ele>283.7</ele>
        <time>2021-05-03T13:51:31Z</time>
      </trkpt>
      <trkpt lat="45.14358" lon="5.28111">
        <ele>283.8</ele>
        <time>2021-05-03T13:51:32Z</time>
      </trkpt>
      <trkpt lat="45.14355" lon="5.28118">
        <ele>283.8</ele>
        <time>2021-05-03T13:51:33Z</time>
      </trkpt>
      <trkpt lat="45.14352" lon="5.28125">
        <ele>283.9</ele>
        <time>2021-05-03T13:51:34Z</time>
      </trkpt>
      <trkpt lat="45.1435" lon="5.28134">
        <ele>283.9</ele>
        <time>2021-05-03T13:51:35Z</time>
      </trkpt>
      <trkpt lat="45.14349" lon="5.28143">
        <ele>284</ele>
        <time>2021-05-03T13:51:36Z</time>
      </trkpt>
      <trkpt lat="45.14349" lon="5.28151">
        <ele>284.1</ele>
        <time>2021-05-03T13:51:37Z</time>
      </trkpt>
      <trkpt lat="45.14348" lon="5.2816">
        <ele>284.1</ele>
        <time>2021-05-03T13:51:38Z</time>
      </trkpt>
      <trkpt lat="45.14347" lon="5.28168">
        <ele>284.2</ele>
        <time>2021-05-03T13:51:39Z</time>
      </trkpt>
      <trkpt lat="45.14346" lon="5.28177">
        <ele>284.3</ele>
        <time>2021-05-03T13:51:40Z</time>
      </trkpt>
      <trkpt lat="45.14346" lon="5.28185">
        <ele>284.4</ele>
        <time>2021-05-03T13:51:41Z</time>
      </trkpt>
      <trkpt lat="45.14346" lon="5.28193">
        <ele>284.5</ele>
        <time>2021-05-03T13:51:42Z</time>
      </trkpt>
      <trkpt lat="45.14346" lon="5.28201">
        <ele>284.6</ele>
        <time>2021-05-03T13:51:43Z</time>
      </trkpt>
      <trkpt lat="45.14345" lon="5.28209">
        <ele>284.6</ele>
        <time>2021-05-03T13:51:44Z</time>
      </trkpt>
      <trkpt lat="45.14345" lon="5.28217">
        <ele>284.8</ele>
        <time>2021-05-03T13:51:45Z</time>
      </trkpt>
      <trkpt lat="45.14344" lon="5.28224">
        <ele>284.9</ele>
        <time>2021-05-03T13:51:46Z</time>
      </trkpt>
      <trkpt lat="45.14344" lon="5.28231">
        <ele>285</ele>
        <time>2021-05-03T13:51:47Z</time>
      </trkpt>
      <trkpt lat="45.14344" lon="5.28239">
        <ele>285.1</ele>
        <time>2021-05-03T13:51:48Z</time>
      </trkpt>
      <trkpt lat="45.14343" lon="5.28245">
        <ele>285.2</ele>
        <time>2021-05-03T13:51:49Z</time>
      </trkpt>
      <trkpt lat="45.14343" lon="5.28252">
        <ele>285.3</ele>
        <time>2021-05-03T13:51:50Z</time>
      </trkpt>
      <trkpt lat="45.14342" lon="5.28256">
        <ele>285.4</ele>
        <time>2021-05-03T13:51:51Z</time>
      </trkpt>
      <trkpt lat="45.14341" lon="5.28261">
        <ele>285.4</ele>
        <time>2021-05-03T13:51:52Z</time>
      </trkpt>
      <trkpt lat="45.1434" lon="5.28266">
        <ele>285.4</ele>
        <time>2021-05-03T13:51:53Z</time>
      </trkpt>
      <trkpt lat="45.14339" lon="5.28273">
        <ele>285.3</ele>
        <time>2021-05-03T13:51:54Z</time>
      </trkpt>
      <trkpt lat="45.14337" lon="5.28281">
        <ele>285.2</ele>
        <time>2021-05-03T13:51:55Z</time>
      </trkpt>
      <trkpt lat="45.14335" lon="5.28289">
        <ele>285.2</ele>
        <time>2021-05-03T13:51:56Z</time>
      </trkpt>
      <trkpt lat="45.14332" lon="5.28297">
        <ele>285.1</ele>
        <time>2021-05-03T13:51:57Z</time>
      </trkpt>
      <trkpt lat="45.14328" lon="5.28304">
        <ele>285.1</ele>
        <time>2021-05-03T13:51:58Z</time>
      </trkpt>
      <trkpt lat="45.14325" lon="5.28311">
        <ele>285</ele>
        <time>2021-05-03T13:51:59Z</time>
      </trkpt>
      <trkpt lat="45.14321" lon="5.28318">
        <ele>285</ele>
        <time>2021-05-03T13:52:00Z</time>
      </trkpt>
      <trkpt lat="45.14318" lon="5.28325">
        <ele>285</ele>
        <time>2021-05-03T13:52:01Z</time>
      </trkpt>
      <trkpt lat="45.14315" lon="5.28332">
        <ele>285</ele>
        <time>2021-05-03T13:52:02Z</time>
      </trkpt>
      <trkpt lat="45.14312" lon="5.28339">
        <ele>284.9</ele>
        <time>2021-05-03T13:52:03Z</time>
      </trkpt>
      <trkpt lat="45.14309" lon="5.28347">
        <ele>284.9</ele>
        <time>2021-05-03T13:52:04Z</time>
      </trkpt>
      <trkpt lat="45.14307" lon="5.28354">
        <ele>284.9</ele>
        <time>2021-05-03T13:52:05Z</time>
      </trkpt>
      <trkpt lat="45.14304" lon="5.28362">
        <ele>284.9</ele>
        <time>2021-05-03T13:52:06Z</time>
      </trkpt>
      <trkpt lat="45.14301" lon="5.28368">
        <ele>284.9</ele>
        <time>2021-05-03T13:52:07Z</time>
      </trkpt>
      <trkpt lat="45.14298" lon="5.28375">
        <ele>284.8</ele>
        <time>2021-05-03T13:52:08Z</time>
      </trkpt>
      <trkpt lat="45.14295" lon="5.28382">
        <ele>284.8</ele>
        <time>2021-05-03T13:52:09Z</time>
      </trkpt>
      <trkpt lat="45.14292" lon="5.28389">
        <ele>284.8</ele>
        <time>2021-05-03T13:52:10Z</time>
      </trkpt>
      <trkpt lat="45.14288" lon="5.28397">
        <ele>284.8</ele>
        <time>2021-05-03T13:52:11Z</time>
      </trkpt>
      <trkpt lat="45.14285" lon="5.28404">
        <ele>284.8</ele>
        <time>2021-05-03T13:52:12Z</time>
      </trkpt>
      <trkpt lat="45.14282" lon="5.28412">
        <ele>284.7</ele>
        <time>2021-05-03T13:52:13Z</time>
      </trkpt>
      <trkpt lat="45.14278" lon="5.2842">
        <ele>284.7</ele>
        <time>2021-05-03T13:52:14Z</time>
      </trkpt>
      <trkpt lat="45.14275" lon="5.28428">
        <ele>284.7</ele>
        <time>2021-05-03T13:52:15Z</time>
      </trkpt>
      <trkpt lat="45.14272" lon="5.28435">
        <ele>284.7</ele>
        <time>2021-05-03T13:52:16Z</time>
      </trkpt>
      <trkpt lat="45.1427" lon="5.28443">
        <ele>284.8</ele>
        <time>2021-05-03T13:52:17Z</time>
      </trkpt>
      <trkpt lat="45.14267" lon="5.2845">
        <ele>284.8</ele>
        <time>2021-05-03T13:52:18Z</time>
      </trkpt>
      <trkpt lat="45.14264" lon="5.28456">
        <ele>284.8</ele>
        <time>2021-05-03T13:52:19Z</time>
      </trkpt>
      <trkpt lat="45.14261" lon="5.28464">
        <ele>284.9</ele>
        <time>2021-05-03T13:52:20Z</time>
      </trkpt>
      <trkpt lat="45.14257" lon="5.28471">
        <ele>284.9</ele>
        <time>2021-05-03T13:52:21Z</time>
      </trkpt>
      <trkpt lat="45.14254" lon="5.28479">
        <ele>284.9</ele>
        <time>2021-05-03T13:52:22Z</time>
      </trkpt>
      <trkpt lat="45.14251" lon="5.28486">
        <ele>285</ele>
        <time>2021-05-03T13:52:23Z</time>
      </trkpt>
      <trkpt lat="45.14248" lon="5.28493">
        <ele>285</ele>
        <time>2021-05-03T13:52:24Z</time>
      </trkpt>
      <trkpt lat="45.14245" lon="5.285">
        <ele>285</ele>
        <time>2021-05-03T13:52:25Z</time>
      </trkpt>
      <trkpt lat="45.14242" lon="5.28507">
        <ele>285</ele>
        <time>2021-05-03T13:52:26Z</time>
      </trkpt>
      <trkpt lat="45.1424" lon="5.28514">
        <ele>285</ele>
        <time>2021-05-03T13:52:27Z</time>
      </trkpt>
      <trkpt lat="45.14238" lon="5.28521">
        <ele>285</ele>
        <time>2021-05-03T13:52:28Z</time>
      </trkpt>
      <trkpt lat="45.14237" lon="5.28527">
        <ele>285</ele>
        <time>2021-05-03T13:52:29Z</time>
      </trkpt>
      <trkpt lat="45.14235" lon="5.28533">
        <ele>284.9</ele>
        <time>2021-05-03T13:52:30Z</time>
      </trkpt>
      <trkpt lat="45.14234" lon="5.2854">
        <ele>284.9</ele>
        <time>2021-05-03T13:52:31Z</time>
      </trkpt>
      <trkpt lat="45.14233" lon="5.28546">
        <ele>284.9</ele>
        <time>2021-05-03T13:52:32Z</time>
      </trkpt>
      <trkpt lat="45.14231" lon="5.28552">
        <ele>284.9</ele>
        <time>2021-05-03T13:52:33Z</time>
      </trkpt>
      <trkpt lat="45.14231" lon="5.28554">
        <ele>284.8</ele>
        <time>2021-05-03T13:52:34Z</time>
      </trkpt>
      <trkpt lat="45.1423" lon="5.28559">
        <ele>284.8</ele>
        <time>2021-05-03T13:52:35Z</time>
      </trkpt>
      <trkpt lat="45.14228" lon="5.28564">
        <ele>284.7</ele>
        <time>2021-05-03T13:52:36Z</time>
      </trkpt>
      <trkpt lat="45.14226" lon="5.2857">
        <ele>284.6</ele>
        <time>2021-05-03T13:52:37Z</time>
      </trkpt>
      <trkpt lat="45.14224" lon="5.28577">
        <ele>284.5</ele>
        <time>2021-05-03T13:52:38Z</time>
      </trkpt>
      <trkpt lat="45.14221" lon="5.28586">
        <ele>284.4</ele>
        <time>2021-05-03T13:52:39Z</time>
      </trkpt>
      <trkpt lat="45.14219" lon="5.28595">
        <ele>284.2</ele>
        <time>2021-05-03T13:52:40Z</time>
      </trkpt>
      <trkpt lat="45.14217" lon="5.28604">
        <ele>284.1</ele>
        <time>2021-05-03T13:52:41Z</time>
      </trkpt>
      <trkpt lat="45.14213" lon="5.28612">
        <ele>284</ele>
        <time>2021-05-03T13:52:42Z</time>
      </trkpt>
      <trkpt lat="45.1421" lon="5.2862">
        <ele>283.8</ele>
        <time>2021-05-03T13:52:43Z</time>
      </trkpt>
      <trkpt lat="45.14206" lon="5.28628">
        <ele>283.7</ele>
        <time>2021-05-03T13:52:44Z</time>
      </trkpt>
      <trkpt lat="45.14204" lon="5.28636">
        <ele>283.6</ele>
        <time>2021-05-03T13:52:45Z</time>
      </trkpt>
      <trkpt lat="45.14201" lon="5.28645">
        <ele>283.5</ele>
        <time>2021-05-03T13:52:46Z</time>
      </trkpt>
      <trkpt lat="45.14197" lon="5.28653">
        <ele>283.4</ele>
        <time>2021-05-03T13:52:47Z</time>
      </trkpt>
      <trkpt lat="45.14193" lon="5.28661">
        <ele>283.2</ele>
        <time>2021-05-03T13:52:48Z</time>
      </trkpt>
      <trkpt lat="45.14188" lon="5.28669">
        <ele>283.1</ele>
        <time>2021-05-03T13:52:49Z</time>
      </trkpt>
      <trkpt lat="45.14184" lon="5.28676">
        <ele>282.9</ele>
        <time>2021-05-03T13:52:50Z</time>
      </trkpt>
      <trkpt lat="45.1418" lon="5.28683">
        <ele>282.8</ele>
        <time>2021-05-03T13:52:51Z</time>
      </trkpt>
      <trkpt lat="45.14176" lon="5.2869">
        <ele>282.7</ele>
        <time>2021-05-03T13:52:52Z</time>
      </trkpt>
      <trkpt lat="45.14172" lon="5.28697">
        <ele>282.6</ele>
        <time>2021-05-03T13:52:53Z</time>
      </trkpt>
      <trkpt lat="45.14167" lon="5.28704">
        <ele>282.5</ele>
        <time>2021-05-03T13:52:54Z</time>
      </trkpt>
      <trkpt lat="45.14163" lon="5.28711">
        <ele>282.3</ele>
        <time>2021-05-03T13:52:55Z</time>
      </trkpt>
      <trkpt lat="45.14159" lon="5.28719">
        <ele>282.2</ele>
        <time>2021-05-03T13:52:56Z</time>
      </trkpt>
      <trkpt lat="45.14156" lon="5.28726">
        <ele>282.1</ele>
        <time>2021-05-03T13:52:57Z</time>
      </trkpt>
      <trkpt lat="45.14152" lon="5.28733">
        <ele>282</ele>
        <time>2021-05-03T13:52:58Z</time>
      </trkpt>
      <trkpt lat="45.14148" lon="5.2874">
        <ele>281.9</ele>
        <time>2021-05-03T13:52:59Z</time>
      </trkpt>
      <trkpt lat="45.14143" lon="5.28747">
        <ele>281.8</ele>
        <time>2021-05-03T13:53:00Z</time>
      </trkpt>
      <trkpt lat="45.14139" lon="5.28753">
        <ele>281.7</ele>
        <time>2021-05-03T13:53:01Z</time>
      </trkpt>
      <trkpt lat="45.14135" lon="5.2876">
        <ele>281.6</ele>
        <time>2021-05-03T13:53:02Z</time>
      </trkpt>
      <trkpt lat="45.14131" lon="5.28767">
        <ele>281.5</ele>
        <time>2021-05-03T13:53:03Z</time>
      </trkpt>
      <trkpt lat="45.14128" lon="5.28775">
        <ele>281.3</ele>
        <time>2021-05-03T13:53:04Z</time>
      </trkpt>
      <trkpt lat="45.14127" lon="5.28785">
        <ele>281.2</ele>
        <time>2021-05-03T13:53:05Z</time>
      </trkpt>
      <trkpt lat="45.14126" lon="5.28794">
        <ele>281</ele>
        <time>2021-05-03T13:53:06Z</time>
      </trkpt>
      <trkpt lat="45.14124" lon="5.28802">
        <ele>280.9</ele>
        <time>2021-05-03T13:53:07Z</time>
      </trkpt>
      <trkpt lat="45.14123" lon="5.28811">
        <ele>280.7</ele>
        <time>2021-05-03T13:53:08Z</time>
      </trkpt>
      <trkpt lat="45.14122" lon="5.28821">
        <ele>280.5</ele>
        <time>2021-05-03T13:53:09Z</time>
      </trkpt>
      <trkpt lat="45.14121" lon="5.28831">
        <ele>280.4</ele>
        <time>2021-05-03T13:53:10Z</time>
      </trkpt>
      <trkpt lat="45.14121" lon="5.2884">
        <ele>280.2</ele>
        <time>2021-05-03T13:53:11Z</time>
      </trkpt>
      <trkpt lat="45.14121" lon="5.2885">
        <ele>280.1</ele>
        <time>2021-05-03T13:53:12Z</time>
      </trkpt>
      <trkpt lat="45.14122" lon="5.2886">
        <ele>280</ele>
        <time>2021-05-03T13:53:13Z</time>
      </trkpt>
      <trkpt lat="45.14123" lon="5.28869">
        <ele>279.9</ele>
        <time>2021-05-03T13:53:14Z</time>
      </trkpt>
      <trkpt lat="45.14124" lon="5.28878">
        <ele>279.8</ele>
        <time>2021-05-03T13:53:15Z</time>
      </trkpt>
      <trkpt lat="45.14126" lon="5.28888">
        <ele>279.7</ele>
        <time>2021-05-03T13:53:16Z</time>
      </trkpt>
      <trkpt lat="45.14128" lon="5.28897">
        <ele>279.6</ele>
        <time>2021-05-03T13:53:17Z</time>
      </trkpt>
      <trkpt lat="45.14132" lon="5.28905">
        <ele>279.5</ele>
        <time>2021-05-03T13:53:18Z</time>
      </trkpt>
      <trkpt lat="45.14136" lon="5.28913">
        <ele>279.4</ele>
        <time>2021-05-03T13:53:19Z</time>
      </trkpt>
      <trkpt lat="45.1414" lon="5.2892">
        <ele>279.3</ele>
        <time>2021-05-03T13:53:20Z</time>
      </trkpt>
      <trkpt lat="45.14144" lon="5.28928">
        <ele>279.2</ele>
        <time>2021-05-03T13:53:21Z</time>
      </trkpt>
      <trkpt lat="45.14148" lon="5.28937">
        <ele>279.2</ele>
        <time>2021-05-03T13:53:22Z</time>
      </trkpt>
      <trkpt lat="45.1415" lon="5.28946">
        <ele>279</ele>
        <time>2021-05-03T13:53:23Z</time>
      </trkpt>
      <trkpt lat="45.14151" lon="5.28955">
        <ele>278.9</ele>
        <time>2021-05-03T13:53:24Z</time>
      </trkpt>
      <trkpt lat="45.14154" lon="5.28964">
        <ele>278.8</ele>
        <time>2021-05-03T13:53:25Z</time>
      </trkpt>
      <trkpt lat="45.14159" lon="5.28972">
        <ele>278.7</ele>
        <time>2021-05-03T13:53:26Z</time>
      </trkpt>
      <trkpt lat="45.14165" lon="5.28977">
        <ele>278.6</ele>
        <time>2021-05-03T13:53:27Z</time>
      </trkpt>
      <trkpt lat="45.14171" lon="5.28981">
        <ele>278.5</ele>
        <time>2021-05-03T13:53:28Z</time>
      </trkpt>
      <trkpt lat="45.14177" lon="5.28988">
        <ele>278.5</ele>
        <time>2021-05-03T13:53:29Z</time>
      </trkpt>
      <trkpt lat="45.14181" lon="5.28995">
        <ele>278.3</ele>
        <time>2021-05-03T13:53:30Z</time>
      </trkpt>
      <trkpt lat="45.14185" lon="5.29003">
        <ele>278.1</ele>
        <time>2021-05-03T13:53:31Z</time>
      </trkpt>
      <trkpt lat="45.1419" lon="5.29011">
        <ele>278</ele>
        <time>2021-05-03T13:53:32Z</time>
      </trkpt>
      <trkpt lat="45.14194" lon="5.29019">
        <ele>277.8</ele>
        <time>2021-05-03T13:53:33Z</time>
      </trkpt>
      <trkpt lat="45.14199" lon="5.29027">
        <ele>277.6</ele>
        <time>2021-05-03T13:53:34Z</time>
      </trkpt>
      <trkpt lat="45.14204" lon="5.29035">
        <ele>277.4</ele>
        <time>2021-05-03T13:53:35Z</time>
      </trkpt>
      <trkpt lat="45.14209" lon="5.29043">
        <ele>277.3</ele>
        <time>2021-05-03T13:53:36Z</time>
      </trkpt>
      <trkpt lat="45.14214" lon="5.29051">
        <ele>277.1</ele>
        <time>2021-05-03T13:53:37Z</time>
      </trkpt>
      <trkpt lat="45.14218" lon="5.29059">
        <ele>277</ele>
        <time>2021-05-03T13:53:38Z</time>
      </trkpt>
      <trkpt lat="45.14223" lon="5.29067">
        <ele>276.9</ele>
        <time>2021-05-03T13:53:39Z</time>
      </trkpt>
      <trkpt lat="45.14228" lon="5.29075">
        <ele>276.8</ele>
        <time>2021-05-03T13:53:40Z</time>
      </trkpt>
      <trkpt lat="45.14233" lon="5.29083">
        <ele>276.7</ele>
        <time>2021-05-03T13:53:41Z</time>
      </trkpt>
      <trkpt lat="45.14238" lon="5.29091">
        <ele>276.5</ele>
        <time>2021-05-03T13:53:42Z</time>
      </trkpt>
      <trkpt lat="45.14243" lon="5.291">
        <ele>276.4</ele>
        <time>2021-05-03T13:53:43Z</time>
      </trkpt>
      <trkpt lat="45.14247" lon="5.29108">
        <ele>276.3</ele>
        <time>2021-05-03T13:53:44Z</time>
      </trkpt>
      <trkpt lat="45.14252" lon="5.29116">
        <ele>276.2</ele>
        <time>2021-05-03T13:53:45Z</time>
      </trkpt>
      <trkpt lat="45.14257" lon="5.29125">
        <ele>276</ele>
        <time>2021-05-03T13:53:46Z</time>
      </trkpt>
      <trkpt lat="45.14262" lon="5.29134">
        <ele>275.9</ele>
        <time>2021-05-03T13:53:47Z</time>
      </trkpt>
      <trkpt lat="45.14267" lon="5.29142">
        <ele>275.8</ele>
        <time>2021-05-03T13:53:48Z</time>
      </trkpt>
      <trkpt lat="45.14272" lon="5.2915">
        <ele>275.6</ele>
        <time>2021-05-03T13:53:49Z</time>
      </trkpt>
      <trkpt lat="45.14277" lon="5.29158">
        <ele>275.5</ele>
        <time>2021-05-03T13:53:50Z</time>
      </trkpt>
      <trkpt lat="45.14282" lon="5.29167">
        <ele>275.4</ele>
        <time>2021-05-03T13:53:51Z</time>
      </trkpt>
      <trkpt lat="45.14286" lon="5.29175">
        <ele>275.3</ele>
        <time>2021-05-03T13:53:52Z</time>
      </trkpt>
      <trkpt lat="45.14291" lon="5.29183">
        <ele>275.2</ele>
        <time>2021-05-03T13:53:53Z</time>
      </trkpt>
      <trkpt lat="45.14295" lon="5.29191">
        <ele>275.1</ele>
        <time>2021-05-03T13:53:54Z</time>
      </trkpt>
      <trkpt lat="45.143" lon="5.29198">
        <ele>275</ele>
        <time>2021-05-03T13:53:55Z</time>
      </trkpt>
      <trkpt lat="45.14304" lon="5.29206">
        <ele>275</ele>
        <time>2021-05-03T13:53:56Z</time>
      </trkpt>
      <trkpt lat="45.14309" lon="5.29214">
        <ele>274.9</ele>
        <time>2021-05-03T13:53:57Z</time>
      </trkpt>
      <trkpt lat="45.14313" lon="5.29221">
        <ele>274.9</ele>
        <time>2021-05-03T13:53:58Z</time>
      </trkpt>
      <trkpt lat="45.14317" lon="5.29229">
        <ele>274.8</ele>
        <time>2021-05-03T13:53:59Z</time>
      </trkpt>
      <trkpt lat="45.1432" lon="5.29236">
        <ele>274.8</ele>
        <time>2021-05-03T13:54:00Z</time>
      </trkpt>
      <trkpt lat="45.14324" lon="5.29244">
        <ele>274.8</ele>
        <time>2021-05-03T13:54:01Z</time>
      </trkpt>
      <trkpt lat="45.14328" lon="5.29251">
        <ele>274.8</ele>
        <time>2021-05-03T13:54:02Z</time>
      </trkpt>
      <trkpt lat="45.14332" lon="5.29259">
        <ele>274.8</ele>
        <time>2021-05-03T13:54:03Z</time>
      </trkpt>
      <trkpt lat="45.14337" lon="5.29266">
        <ele>274.7</ele>
        <time>2021-05-03T13:54:04Z</time>
      </trkpt>
      <trkpt lat="45.14341" lon="5.29273">
        <ele>274.7</ele>
        <time>2021-05-03T13:54:05Z</time>
      </trkpt>
      <trkpt lat="45.14345" lon="5.2928">
        <ele>274.7</ele>
        <time>2021-05-03T13:54:06Z</time>
      </trkpt>
      <trkpt lat="45.14349" lon="5.29287">
        <ele>274.6</ele>
        <time>2021-05-03T13:54:07Z</time>
      </trkpt>
      <trkpt lat="45.14353" lon="5.29294">
        <ele>274.6</ele>
        <time>2021-05-03T13:54:08Z</time>
      </trkpt>
      <trkpt lat="45.14357" lon="5.29301">
        <ele>274.6</ele>
        <time>2021-05-03T13:54:09Z</time>
      </trkpt>
      <trkpt lat="45.1436" lon="5.29308">
        <ele>274.6</ele>
        <time>2021-05-03T13:54:10Z</time>
      </trkpt>
      <trkpt lat="45.14364" lon="5.29315">
        <ele>274.5</ele>
        <time>2021-05-03T13:54:11Z</time>
      </trkpt>
      <trkpt lat="45.14368" lon="5.29322">
        <ele>274.5</ele>
        <time>2021-05-03T13:54:12Z</time>
      </trkpt>
      <trkpt lat="45.14372" lon="5.29329">
        <ele>274.6</ele>
        <time>2021-05-03T13:54:13Z</time>
      </trkpt>
      <trkpt lat="45.14376" lon="5.29336">
        <ele>274.6</ele>
        <time>2021-05-03T13:54:14Z</time>
      </trkpt>
      <trkpt lat="45.1438" lon="5.29342">
        <ele>274.6</ele>
        <time>2021-05-03T13:54:15Z</time>
      </trkpt>
      <trkpt lat="45.14384" lon="5.29348">
        <ele>274.6</ele>
        <time>2021-05-03T13:54:16Z</time>
      </trkpt>
      <trkpt lat="45.14388" lon="5.29355">
        <ele>274.6</ele>
        <time>2021-05-03T13:54:17Z</time>
      </trkpt>
      <trkpt lat="45.14391" lon="5.29361">
        <ele>274.6</ele>
        <time>2021-05-03T13:54:18Z</time>
      </trkpt>
      <trkpt lat="45.14395" lon="5.29367">
        <ele>274.6</ele>
        <time>2021-05-03T13:54:19Z</time>
      </trkpt>
      <trkpt lat="45.14399" lon="5.29373">
        <ele>274.6</ele>
        <time>2021-05-03T13:54:20Z</time>
      </trkpt>
      <trkpt lat="45.14402" lon="5.29378">
        <ele>274.5</ele>
        <time>2021-05-03T13:54:21Z</time>
      </trkpt>
      <trkpt lat="45.14406" lon="5.29384">
        <ele>274.5</ele>
        <time>2021-05-03T13:54:22Z</time>
      </trkpt>
      <trkpt lat="45.14409" lon="5.29391">
        <ele>274.5</ele>
        <time>2021-05-03T13:54:23Z</time>
      </trkpt>
      <trkpt lat="45.14413" lon="5.29397">
        <ele>274.4</ele>
        <time>2021-05-03T13:54:24Z</time>
      </trkpt>
      <trkpt lat="45.14416" lon="5.29403">
        <ele>274.4</ele>
        <time>2021-05-03T13:54:25Z</time>
      </trkpt>
      <trkpt lat="45.1442" lon="5.2941">
        <ele>274.4</ele>
        <time>2021-05-03T13:54:26Z</time>
      </trkpt>
      <trkpt lat="45.14423" lon="5.29416">
        <ele>274.4</ele>
        <time>2021-05-03T13:54:27Z</time>
      </trkpt>
      <trkpt lat="45.14427" lon="5.29423">
        <ele>274.4</ele>
        <time>2021-05-03T13:54:28Z</time>
      </trkpt>
      <trkpt lat="45.1443" lon="5.29429">
        <ele>274.4</ele>
        <time>2021-05-03T13:54:29Z</time>
      </trkpt>
      <trkpt lat="45.14433" lon="5.29434">
        <ele>274.4</ele>
        <time>2021-05-03T13:54:30Z</time>
      </trkpt>
      <trkpt lat="45.14437" lon="5.29441">
        <ele>274.4</ele>
        <time>2021-05-03T13:54:31Z</time>
      </trkpt>
      <trkpt lat="45.14439" lon="5.29444">
        <ele>274.4</ele>
        <time>2021-05-03T13:54:32Z</time>
      </trkpt>
      <trkpt lat="45.14442" lon="5.29451">
        <ele>274.4</ele>
        <time>2021-05-03T13:54:33Z</time>
      </trkpt>
      <trkpt lat="45.14446" lon="5.29458">
        <ele>274.5</ele>
        <time>2021-05-03T13:54:34Z</time>
      </trkpt>
      <trkpt lat="45.1445" lon="5.29465">
        <ele>274.5</ele>
        <time>2021-05-03T13:54:35Z</time>
      </trkpt>
      <trkpt lat="45.14454" lon="5.29471">
        <ele>274.5</ele>
        <time>2021-05-03T13:54:36Z</time>
      </trkpt>
      <trkpt lat="45.14458" lon="5.29478">
        <ele>274.6</ele>
        <time>2021-05-03T13:54:37Z</time>
      </trkpt>
      <trkpt lat="45.14462" lon="5.29485">
        <ele>274.6</ele>
        <time>2021-05-03T13:54:38Z</time>
      </trkpt>
      <trkpt lat="45.14466" lon="5.29491">
        <ele>274.6</ele>
        <time>2021-05-03T13:54:39Z</time>
      </trkpt>
      <trkpt lat="45.1447" lon="5.29498">
        <ele>274.7</ele>
        <time>2021-05-03T13:54:40Z</time>
      </trkpt>
      <trkpt lat="45.14474" lon="5.29503">
        <ele>274.7</ele>
        <time>2021-05-03T13:54:41Z</time>
      </trkpt>
      <trkpt lat="45.14478" lon="5.29509">
        <ele>274.8</ele>
        <time>2021-05-03T13:54:42Z</time>
      </trkpt>
      <trkpt lat="45.14482" lon="5.29515">
        <ele>274.8</ele>
        <time>2021-05-03T13:54:43Z</time>
      </trkpt>
      <trkpt lat="45.14485" lon="5.29521">
        <ele>274.9</ele>
        <time>2021-05-03T13:54:44Z</time>
      </trkpt>
      <trkpt lat="45.14489" lon="5.29527">
        <ele>274.9</ele>
        <time>2021-05-03T13:54:45Z</time>
      </trkpt>
      <trkpt lat="45.14492" lon="5.29533">
        <ele>275</ele>
        <time>2021-05-03T13:54:46Z</time>
      </trkpt>
      <trkpt lat="45.14495" lon="5.29539">
        <ele>275</ele>
        <time>2021-05-03T13:54:47Z</time>
      </trkpt>
      <trkpt lat="45.14499" lon="5.29545">
        <ele>275.1</ele>
        <time>2021-05-03T13:54:48Z</time>
      </trkpt>
      <trkpt lat="45.14503" lon="5.29551">
        <ele>275.2</ele>
        <time>2021-05-03T13:54:49Z</time>
      </trkpt>
      <trkpt lat="45.14506" lon="5.29557">
        <ele>275.2</ele>
        <time>2021-05-03T13:54:50Z</time>
      </trkpt>
      <trkpt lat="45.14508" lon="5.29563">
        <ele>275.3</ele>
        <time>2021-05-03T13:54:51Z</time>
      </trkpt>
      <trkpt lat="45.14511" lon="5.2957">
        <ele>275.3</ele>
        <time>2021-05-03T13:54:52Z</time>
      </trkpt>
      <trkpt lat="45.14514" lon="5.29578">
        <ele>275.3</ele>
        <time>2021-05-03T13:54:53Z</time>
      </trkpt>
      <trkpt lat="45.14517" lon="5.29585">
        <ele>275.3</ele>
        <time>2021-05-03T13:54:54Z</time>
      </trkpt>
      <trkpt lat="45.1452" lon="5.29592">
        <ele>275.3</ele>
        <time>2021-05-03T13:54:55Z</time>
      </trkpt>
      <trkpt lat="45.14523" lon="5.29601">
        <ele>275.2</ele>
        <time>2021-05-03T13:54:56Z</time>
      </trkpt>
      <trkpt lat="45.14525" lon="5.29609">
        <ele>275.2</ele>
        <time>2021-05-03T13:54:57Z</time>
      </trkpt>
      <trkpt lat="45.14527" lon="5.29618">
        <ele>275.1</ele>
        <time>2021-05-03T13:54:58Z</time>
      </trkpt>
      <trkpt lat="45.14529" lon="5.29627">
        <ele>275.1</ele>
        <time>2021-05-03T13:54:59Z</time>
      </trkpt>
      <trkpt lat="45.1453" lon="5.29636">
        <ele>275</ele>
        <time>2021-05-03T13:55:00Z</time>
      </trkpt>
      <trkpt lat="45.14531" lon="5.29644">
        <ele>275</ele>
        <time>2021-05-03T13:55:01Z</time>
      </trkpt>
      <trkpt lat="45.14532" lon="5.29653">
        <ele>274.9</ele>
        <time>2021-05-03T13:55:02Z</time>
      </trkpt>
      <trkpt lat="45.14533" lon="5.29663">
        <ele>274.9</ele>
        <time>2021-05-03T13:55:03Z</time>
      </trkpt>
      <trkpt lat="45.14534" lon="5.29672">
        <ele>274.8</ele>
        <time>2021-05-03T13:55:04Z</time>
      </trkpt>
      <trkpt lat="45.14535" lon="5.29682">
        <ele>274.8</ele>
        <time>2021-05-03T13:55:05Z</time>
      </trkpt>
      <trkpt lat="45.14536" lon="5.2969">
        <ele>274.7</ele>
        <time>2021-05-03T13:55:06Z</time>
      </trkpt>
      <trkpt lat="45.14537" lon="5.29699">
        <ele>274.7</ele>
        <time>2021-05-03T13:55:07Z</time>
      </trkpt>
      <trkpt lat="45.14537" lon="5.29708">
        <ele>274.7</ele>
        <time>2021-05-03T13:55:08Z</time>
      </trkpt>
      <trkpt lat="45.14538" lon="5.29717">
        <ele>274.6</ele>
        <time>2021-05-03T13:55:09Z</time>
      </trkpt>
      <trkpt lat="45.14539" lon="5.29726">
        <ele>274.6</ele>
        <time>2021-05-03T13:55:10Z</time>
      </trkpt>
      <trkpt lat="45.1454" lon="5.29735">
        <ele>274.6</ele>
        <time>2021-05-03T13:55:11Z</time>
      </trkpt>
      <trkpt lat="45.14541" lon="5.29743">
        <ele>274.5</ele>
        <time>2021-05-03T13:55:12Z</time>
      </trkpt>
      <trkpt lat="45.14542" lon="5.29752">
        <ele>274.5</ele>
        <time>2021-05-03T13:55:13Z</time>
      </trkpt>
      <trkpt lat="45.14542" lon="5.29761">
        <ele>274.5</ele>
        <time>2021-05-03T13:55:14Z</time>
      </trkpt>
      <trkpt lat="45.14543" lon="5.2977">
        <ele>274.5</ele>
        <time>2021-05-03T13:55:15Z</time>
      </trkpt>
      <trkpt lat="45.14543" lon="5.29778">
        <ele>274.5</ele>
        <time>2021-05-03T13:55:16Z</time>
      </trkpt>
      <trkpt lat="45.14544" lon="5.29787">
        <ele>274.5</ele>
        <time>2021-05-03T13:55:17Z</time>
      </trkpt>
      <trkpt lat="45.14545" lon="5.29795">
        <ele>274.5</ele>
        <time>2021-05-03T13:55:18Z</time>
      </trkpt>
      <trkpt lat="45.14546" lon="5.29803">
        <ele>274.4</ele>
        <time>2021-05-03T13:55:19Z</time>
      </trkpt>
      <trkpt lat="45.14546" lon="5.29811">
        <ele>274.4</ele>
        <time>2021-05-03T13:55:20Z</time>
      </trkpt>
      <trkpt lat="45.14547" lon="5.29819">
        <ele>274.4</ele>
        <time>2021-05-03T13:55:21Z</time>
      </trkpt>
      <trkpt lat="45.14548" lon="5.29827">
        <ele>274.4</ele>
        <time>2021-05-03T13:55:22Z</time>
      </trkpt>
      <trkpt lat="45.14549" lon="5.29835">
        <ele>274.4</ele>
        <time>2021-05-03T13:55:23Z</time>
      </trkpt>
      <trkpt lat="45.1455" lon="5.29843">
        <ele>274.4</ele>
        <time>2021-05-03T13:55:24Z</time>
      </trkpt>
      <trkpt lat="45.14551" lon="5.29851">
        <ele>274.4</ele>
        <time>2021-05-03T13:55:25Z</time>
      </trkpt>
      <trkpt lat="45.14552" lon="5.29859">
        <ele>274.4</ele>
        <time>2021-05-03T13:55:26Z</time>
      </trkpt>
      <trkpt lat="45.14553" lon="5.29867">
        <ele>274.4</ele>
        <time>2021-05-03T13:55:27Z</time>
      </trkpt>
      <trkpt lat="45.14553" lon="5.29876">
        <ele>274.4</ele>
        <time>2021-05-03T13:55:28Z</time>
      </trkpt>
      <trkpt lat="45.14553" lon="5.29885">
        <ele>274.4</ele>
        <time>2021-05-03T13:55:29Z</time>
      </trkpt>
      <trkpt lat="45.14554" lon="5.29893">
        <ele>274.4</ele>
        <time>2021-05-03T13:55:30Z</time>
      </trkpt>
      <trkpt lat="45.14555" lon="5.29902">
        <ele>274.4</ele>
        <time>2021-05-03T13:55:31Z</time>
      </trkpt>
      <trkpt lat="45.14556" lon="5.29911">
        <ele>274.4</ele>
        <time>2021-05-03T13:55:32Z</time>
      </trkpt>
      <trkpt lat="45.14556" lon="5.29919">
        <ele>274.4</ele>
        <time>2021-05-03T13:55:33Z</time>
      </trkpt>
      <trkpt lat="45.14557" lon="5.29929">
        <ele>274.4</ele>
        <time>2021-05-03T13:55:34Z</time>
      </trkpt>
      <trkpt lat="45.14557" lon="5.29938">
        <ele>274.5</ele>
        <time>2021-05-03T13:55:35Z</time>
      </trkpt>
      <trkpt lat="45.14558" lon="5.29947">
        <ele>274.5</ele>
        <time>2021-05-03T13:55:36Z</time>
      </trkpt>
      <trkpt lat="45.14558" lon="5.29957">
        <ele>274.5</ele>
        <time>2021-05-03T13:55:37Z</time>
      </trkpt>
      <trkpt lat="45.14559" lon="5.29965">
        <ele>274.5</ele>
        <time>2021-05-03T13:55:38Z</time>
      </trkpt>
      <trkpt lat="45.1456" lon="5.29974">
        <ele>274.5</ele>
        <time>2021-05-03T13:55:39Z</time>
      </trkpt>
      <trkpt lat="45.14561" lon="5.29983">
        <ele>274.5</ele>
        <time>2021-05-03T13:55:40Z</time>
      </trkpt>
      <trkpt lat="45.14562" lon="5.29991">
        <ele>274.5</ele>
        <time>2021-05-03T13:55:41Z</time>
      </trkpt>
      <trkpt lat="45.14563" lon="5.3">
        <ele>274.5</ele>
        <time>2021-05-03T13:55:42Z</time>
      </trkpt>
      <trkpt lat="45.14564" lon="5.30009">
        <ele>274.5</ele>
        <time>2021-05-03T13:55:43Z</time>
      </trkpt>
      <trkpt lat="45.14564" lon="5.30017">
        <ele>274.5</ele>
        <time>2021-05-03T13:55:44Z</time>
      </trkpt>
      <trkpt lat="45.14565" lon="5.30027">
        <ele>274.5</ele>
        <time>2021-05-03T13:55:45Z</time>
      </trkpt>
      <trkpt lat="45.14566" lon="5.30036">
        <ele>274.5</ele>
        <time>2021-05-03T13:55:46Z</time>
      </trkpt>
      <trkpt lat="45.14567" lon="5.30045">
        <ele>274.5</ele>
        <time>2021-05-03T13:55:47Z</time>
      </trkpt>
      <trkpt lat="45.14568" lon="5.30054">
        <ele>274.5</ele>
        <time>2021-05-03T13:55:48Z</time>
      </trkpt>
      <trkpt lat="45.14568" lon="5.30063">
        <ele>274.4</ele>
        <time>2021-05-03T13:55:49Z</time>
      </trkpt>
      <trkpt lat="45.14569" lon="5.30072">
        <ele>274.4</ele>
        <time>2021-05-03T13:55:50Z</time>
      </trkpt>
      <trkpt lat="45.1457" lon="5.3008">
        <ele>274.4</ele>
        <time>2021-05-03T13:55:51Z</time>
      </trkpt>
      <trkpt lat="45.14571" lon="5.30089">
        <ele>274.4</ele>
        <time>2021-05-03T13:55:52Z</time>
      </trkpt>
      <trkpt lat="45.14572" lon="5.30099">
        <ele>274.4</ele>
        <time>2021-05-03T13:55:53Z</time>
      </trkpt>
      <trkpt lat="45.14572" lon="5.30108">
        <ele>274.4</ele>
        <time>2021-05-03T13:55:54Z</time>
      </trkpt>
      <trkpt lat="45.14573" lon="5.30117">
        <ele>274.4</ele>
        <time>2021-05-03T13:55:55Z</time>
      </trkpt>
      <trkpt lat="45.14574" lon="5.30126">
        <ele>274.4</ele>
        <time>2021-05-03T13:55:56Z</time>
      </trkpt>
      <trkpt lat="45.14574" lon="5.30135">
        <ele>274.4</ele>
        <time>2021-05-03T13:55:57Z</time>
      </trkpt>
      <trkpt lat="45.14575" lon="5.30144">
        <ele>274.4</ele>
        <time>2021-05-03T13:55:58Z</time>
      </trkpt>
      <trkpt lat="45.14575" lon="5.30154">
        <ele>274.3</ele>
        <time>2021-05-03T13:55:59Z</time>
      </trkpt>
      <trkpt lat="45.14576" lon="5.30163">
        <ele>274.3</ele>
        <time>2021-05-03T13:56:00Z</time>
      </trkpt>
      <trkpt lat="45.14577" lon="5.30172">
        <ele>274.3</ele>
        <time>2021-05-03T13:56:01Z</time>
      </trkpt>
      <trkpt lat="45.14578" lon="5.30181">
        <ele>274.3</ele>
        <time>2021-05-03T13:56:02Z</time>
      </trkpt>
      <trkpt lat="45.1458" lon="5.30189">
        <ele>274.3</ele>
        <time>2021-05-03T13:56:03Z</time>
      </trkpt>
      <trkpt lat="45.14583" lon="5.30199">
        <ele>274.3</ele>
        <time>2021-05-03T13:56:04Z</time>
      </trkpt>
      <trkpt lat="45.14585" lon="5.30208">
        <ele>274.4</ele>
        <time>2021-05-03T13:56:05Z</time>
      </trkpt>
      <trkpt lat="45.14587" lon="5.30217">
        <ele>274.4</ele>
        <time>2021-05-03T13:56:06Z</time>
      </trkpt>
      <trkpt lat="45.1459" lon="5.30227">
        <ele>274.4</ele>
        <time>2021-05-03T13:56:07Z</time>
      </trkpt>
      <trkpt lat="45.14592" lon="5.30236">
        <ele>274.5</ele>
        <time>2021-05-03T13:56:08Z</time>
      </trkpt>
      <trkpt lat="45.14594" lon="5.30245">
        <ele>274.5</ele>
        <time>2021-05-03T13:56:09Z</time>
      </trkpt>
      <trkpt lat="45.14596" lon="5.30254">
        <ele>274.6</ele>
        <time>2021-05-03T13:56:10Z</time>
      </trkpt>
      <trkpt lat="45.14598" lon="5.30263">
        <ele>274.6</ele>
        <time>2021-05-03T13:56:11Z</time>
      </trkpt>
      <trkpt lat="45.14599" lon="5.30272">
        <ele>274.7</ele>
        <time>2021-05-03T13:56:12Z</time>
      </trkpt>
      <trkpt lat="45.14601" lon="5.30281">
        <ele>274.8</ele>
        <time>2021-05-03T13:56:13Z</time>
      </trkpt>
      <trkpt lat="45.14603" lon="5.30289">
        <ele>274.9</ele>
        <time>2021-05-03T13:56:14Z</time>
      </trkpt>
      <trkpt lat="45.14605" lon="5.30297">
        <ele>274.9</ele>
        <time>2021-05-03T13:56:15Z</time>
      </trkpt>
      <trkpt lat="45.14607" lon="5.30305">
        <ele>275.1</ele>
        <time>2021-05-03T13:56:16Z</time>
      </trkpt>
      <trkpt lat="45.14609" lon="5.30313">
        <ele>275.2</ele>
        <time>2021-05-03T13:56:17Z</time>
      </trkpt>
      <trkpt lat="45.14611" lon="5.30321">
        <ele>275.3</ele>
        <time>2021-05-03T13:56:18Z</time>
      </trkpt>
      <trkpt lat="45.14614" lon="5.30329">
        <ele>275.3</ele>
        <time>2021-05-03T13:56:19Z</time>
      </trkpt>
      <trkpt lat="45.14616" lon="5.30337">
        <ele>275.3</ele>
        <time>2021-05-03T13:56:20Z</time>
      </trkpt>
      <trkpt lat="45.14619" lon="5.30345">
        <ele>275.3</ele>
        <time>2021-05-03T13:56:21Z</time>
      </trkpt>
      <trkpt lat="45.14621" lon="5.30353">
        <ele>275.2</ele>
        <time>2021-05-03T13:56:22Z</time>
      </trkpt>
      <trkpt lat="45.14624" lon="5.30361">
        <ele>275.2</ele>
        <time>2021-05-03T13:56:23Z</time>
      </trkpt>
      <trkpt lat="45.14626" lon="5.30368">
        <ele>275.2</ele>
        <time>2021-05-03T13:56:24Z</time>
      </trkpt>
      <trkpt lat="45.14628" lon="5.30375">
        <ele>275.1</ele>
        <time>2021-05-03T13:56:25Z</time>
      </trkpt>
      <trkpt lat="45.1463" lon="5.30383">
        <ele>275.1</ele>
        <time>2021-05-03T13:56:26Z</time>
      </trkpt>
      <trkpt lat="45.14633" lon="5.30392">
        <ele>275</ele>
        <time>2021-05-03T13:56:27Z</time>
      </trkpt>
      <trkpt lat="45.14636" lon="5.304">
        <ele>275</ele>
        <time>2021-05-03T13:56:28Z</time>
      </trkpt>
      <trkpt lat="45.14638" lon="5.30409">
        <ele>275.1</ele>
        <time>2021-05-03T13:56:29Z</time>
      </trkpt>
      <trkpt lat="45.14641" lon="5.30417">
        <ele>275.1</ele>
        <time>2021-05-03T13:56:30Z</time>
      </trkpt>
      <trkpt lat="45.14644" lon="5.30427">
        <ele>275.1</ele>
        <time>2021-05-03T13:56:31Z</time>
      </trkpt>
      <trkpt lat="45.14647" lon="5.30435">
        <ele>275.2</ele>
        <time>2021-05-03T13:56:32Z</time>
      </trkpt>
      <trkpt lat="45.1465" lon="5.30444">
        <ele>275.2</ele>
        <time>2021-05-03T13:56:33Z</time>
      </trkpt>
      <trkpt lat="45.14652" lon="5.30452">
        <ele>275.3</ele>
        <time>2021-05-03T13:56:34Z</time>
      </trkpt>
      <trkpt lat="45.14654" lon="5.3046">
        <ele>275.3</ele>
        <time>2021-05-03T13:56:35Z</time>
      </trkpt>
      <trkpt lat="45.14656" lon="5.30468">
        <ele>275.4</ele>
        <time>2021-05-03T13:56:36Z</time>
      </trkpt>
      <trkpt lat="45.14659" lon="5.30477">
        <ele>275.4</ele>
        <time>2021-05-03T13:56:37Z</time>
      </trkpt>
      <trkpt lat="45.14662" lon="5.30485">
        <ele>275.5</ele>
        <time>2021-05-03T13:56:38Z</time>
      </trkpt>
      <trkpt lat="45.14665" lon="5.30493">
        <ele>275.5</ele>
        <time>2021-05-03T13:56:39Z</time>
      </trkpt>
      <trkpt lat="45.14667" lon="5.30502">
        <ele>275.5</ele>
        <time>2021-05-03T13:56:40Z</time>
      </trkpt>
      <trkpt lat="45.1467" lon="5.30511">
        <ele>275.5</ele>
        <time>2021-05-03T13:56:41Z</time>
      </trkpt>
      <trkpt lat="45.14673" lon="5.30519">
        <ele>275.5</ele>
        <time>2021-05-03T13:56:42Z</time>
      </trkpt>
      <trkpt lat="45.14676" lon="5.30527">
        <ele>275.6</ele>
        <time>2021-05-03T13:56:43Z</time>
      </trkpt>
      <trkpt lat="45.14678" lon="5.30536">
        <ele>275.6</ele>
        <time>2021-05-03T13:56:44Z</time>
      </trkpt>
      <trkpt lat="45.14681" lon="5.30545">
        <ele>275.7</ele>
        <time>2021-05-03T13:56:45Z</time>
      </trkpt>
      <trkpt lat="45.14683" lon="5.30553">
        <ele>275.7</ele>
        <time>2021-05-03T13:56:46Z</time>
      </trkpt>
      <trkpt lat="45.14686" lon="5.30561">
        <ele>275.8</ele>
        <time>2021-05-03T13:56:47Z</time>
      </trkpt>
      <trkpt lat="45.14688" lon="5.3057">
        <ele>275.8</ele>
        <time>2021-05-03T13:56:48Z</time>
      </trkpt>
      <trkpt lat="45.1469" lon="5.30577">
        <ele>275.8</ele>
        <time>2021-05-03T13:56:49Z</time>
      </trkpt>
      <trkpt lat="45.14693" lon="5.30585">
        <ele>275.8</ele>
        <time>2021-05-03T13:56:50Z</time>
      </trkpt>
      <trkpt lat="45.14695" lon="5.30593">
        <ele>275.9</ele>
        <time>2021-05-03T13:56:51Z</time>
      </trkpt>
      <trkpt lat="45.14698" lon="5.30601">
        <ele>275.9</ele>
        <time>2021-05-03T13:56:52Z</time>
      </trkpt>
      <trkpt lat="45.14701" lon="5.30609">
        <ele>276</ele>
        <time>2021-05-03T13:56:53Z</time>
      </trkpt>
      <trkpt lat="45.14703" lon="5.30616">
        <ele>276</ele>
        <time>2021-05-03T13:56:54Z</time>
      </trkpt>
      <trkpt lat="45.14706" lon="5.30624">
        <ele>276.1</ele>
        <time>2021-05-03T13:56:55Z</time>
      </trkpt>
      <trkpt lat="45.14708" lon="5.30631">
        <ele>276.1</ele>
        <time>2021-05-03T13:56:56Z</time>
      </trkpt>
      <trkpt lat="45.14711" lon="5.30639">
        <ele>276.2</ele>
        <time>2021-05-03T13:56:57Z</time>
      </trkpt>
      <trkpt lat="45.14714" lon="5.30647">
        <ele>276.3</ele>
        <time>2021-05-03T13:56:58Z</time>
      </trkpt>
      <trkpt lat="45.14717" lon="5.30655">
        <ele>276.4</ele>
        <time>2021-05-03T13:56:59Z</time>
      </trkpt>
      <trkpt lat="45.14719" lon="5.30662">
        <ele>276.4</ele>
        <time>2021-05-03T13:57:00Z</time>
      </trkpt>
      <trkpt lat="45.14721" lon="5.3067">
        <ele>276.5</ele>
        <time>2021-05-03T13:57:01Z</time>
      </trkpt>
      <trkpt lat="45.14724" lon="5.30678">
        <ele>276.6</ele>
        <time>2021-05-03T13:57:02Z</time>
      </trkpt>
      <trkpt lat="45.14726" lon="5.30686">
        <ele>276.6</ele>
        <time>2021-05-03T13:57:03Z</time>
      </trkpt>
      <trkpt lat="45.14727" lon="5.30694">
        <ele>276.7</ele>
        <time>2021-05-03T13:57:04Z</time>
      </trkpt>
      <trkpt lat="45.14728" lon="5.30703">
        <ele>276.7</ele>
        <time>2021-05-03T13:57:05Z</time>
      </trkpt>
      <trkpt lat="45.14727" lon="5.30712">
        <ele>276.8</ele>
        <time>2021-05-03T13:57:06Z</time>
      </trkpt>
      <trkpt lat="45.14728" lon="5.30721">
        <ele>276.8</ele>
        <time>2021-05-03T13:57:07Z</time>
      </trkpt>
      <trkpt lat="45.14732" lon="5.30727">
        <ele>276.7</ele>
        <time>2021-05-03T13:57:08Z</time>
      </trkpt>
      <trkpt lat="45.14738" lon="5.30731">
        <ele>276.7</ele>
        <time>2021-05-03T13:57:09Z</time>
      </trkpt>
      <trkpt lat="45.14744" lon="5.30733">
        <ele>276.7</ele>
        <time>2021-05-03T13:57:10Z</time>
      </trkpt>
      <trkpt lat="45.14751" lon="5.30735">
        <ele>276.6</ele>
        <time>2021-05-03T13:57:11Z</time>
      </trkpt>
      <trkpt lat="45.14757" lon="5.3074">
        <ele>276.6</ele>
        <time>2021-05-03T13:57:12Z</time>
      </trkpt>
      <trkpt lat="45.14762" lon="5.30746">
        <ele>276.6</ele>
        <time>2021-05-03T13:57:13Z</time>
      </trkpt>
      <trkpt lat="45.14766" lon="5.30752">
        <ele>276.6</ele>
        <time>2021-05-03T13:57:14Z</time>
      </trkpt>
      <trkpt lat="45.1477" lon="5.30759">
        <ele>276.6</ele>
        <time>2021-05-03T13:57:15Z</time>
      </trkpt>
      <trkpt lat="45.14774" lon="5.30765">
        <ele>276.6</ele>
        <time>2021-05-03T13:57:16Z</time>
      </trkpt>
      <trkpt lat="45.14778" lon="5.30772">
        <ele>276.6</ele>
        <time>2021-05-03T13:57:17Z</time>
      </trkpt>
      <trkpt lat="45.14782" lon="5.30778">
        <ele>276.6</ele>
        <time>2021-05-03T13:57:18Z</time>
      </trkpt>
      <trkpt lat="45.14787" lon="5.30784">
        <ele>276.6</ele>
        <time>2021-05-03T13:57:19Z</time>
      </trkpt>
      <trkpt lat="45.14792" lon="5.3079">
        <ele>276.6</ele>
        <time>2021-05-03T13:57:20Z</time>
      </trkpt>
      <trkpt lat="45.14797" lon="5.30796">
        <ele>276.6</ele>
        <time>2021-05-03T13:57:21Z</time>
      </trkpt>
      <trkpt lat="45.14802" lon="5.30801">
        <ele>276.6</ele>
        <time>2021-05-03T13:57:22Z</time>
      </trkpt>
      <trkpt lat="45.14807" lon="5.30807">
        <ele>276.6</ele>
        <time>2021-05-03T13:57:23Z</time>
      </trkpt>
      <trkpt lat="45.14812" lon="5.30812">
        <ele>276.6</ele>
        <time>2021-05-03T13:57:24Z</time>
      </trkpt>
      <trkpt lat="45.14817" lon="5.30817">
        <ele>276.7</ele>
        <time>2021-05-03T13:57:25Z</time>
      </trkpt>
      <trkpt lat="45.14822" lon="5.30822">
        <ele>276.7</ele>
        <time>2021-05-03T13:57:26Z</time>
      </trkpt>
      <trkpt lat="45.14826" lon="5.30827">
        <ele>276.7</ele>
        <time>2021-05-03T13:57:27Z</time>
      </trkpt>
      <trkpt lat="45.14831" lon="5.30833">
        <ele>276.7</ele>
        <time>2021-05-03T13:57:28Z</time>
      </trkpt>
      <trkpt lat="45.14835" lon="5.30838">
        <ele>276.8</ele>
        <time>2021-05-03T13:57:29Z</time>
      </trkpt>
      <trkpt lat="45.1484" lon="5.30844">
        <ele>276.8</ele>
        <time>2021-05-03T13:57:30Z</time>
      </trkpt>
      <trkpt lat="45.14845" lon="5.3085">
        <ele>276.8</ele>
        <time>2021-05-03T13:57:31Z</time>
      </trkpt>
      <trkpt lat="45.14851" lon="5.30855">
        <ele>276.9</ele>
        <time>2021-05-03T13:57:32Z</time>
      </trkpt>
      <trkpt lat="45.14855" lon="5.30861">
        <ele>276.9</ele>
        <time>2021-05-03T13:57:33Z</time>
      </trkpt>
      <trkpt lat="45.1486" lon="5.30866">
        <ele>276.9</ele>
        <time>2021-05-03T13:57:34Z</time>
      </trkpt>
      <trkpt lat="45.14865" lon="5.30872">
        <ele>276.9</ele>
        <time>2021-05-03T13:57:35Z</time>
      </trkpt>
      <trkpt lat="45.14869" lon="5.30877">
        <ele>277</ele>
        <time>2021-05-03T13:57:36Z</time>
      </trkpt>
      <trkpt lat="45.14874" lon="5.30883">
        <ele>277</ele>
        <time>2021-05-03T13:57:37Z</time>
      </trkpt>
      <trkpt lat="45.14878" lon="5.30889">
        <ele>277</ele>
        <time>2021-05-03T13:57:38Z</time>
      </trkpt>
      <trkpt lat="45.14883" lon="5.30894">
        <ele>277.1</ele>
        <time>2021-05-03T13:57:39Z</time>
      </trkpt>
      <trkpt lat="45.14887" lon="5.309">
        <ele>277.1</ele>
        <time>2021-05-03T13:57:40Z</time>
      </trkpt>
      <trkpt lat="45.14891" lon="5.30906">
        <ele>277.1</ele>
        <time>2021-05-03T13:57:41Z</time>
      </trkpt>
      <trkpt lat="45.14894" lon="5.30912">
        <ele>277.2</ele>
        <time>2021-05-03T13:57:42Z</time>
      </trkpt>
      <trkpt lat="45.14898" lon="5.30918">
        <ele>277.2</ele>
        <time>2021-05-03T13:57:43Z</time>
      </trkpt>
      <trkpt lat="45.14901" lon="5.30924">
        <ele>277.3</ele>
        <time>2021-05-03T13:57:44Z</time>
      </trkpt>
      <trkpt lat="45.14904" lon="5.30931">
        <ele>277.3</ele>
        <time>2021-05-03T13:57:45Z</time>
      </trkpt>
      <trkpt lat="45.14907" lon="5.30937">
        <ele>277.3</ele>
        <time>2021-05-03T13:57:46Z</time>
      </trkpt>
      <trkpt lat="45.14911" lon="5.30944">
        <ele>277.4</ele>
        <time>2021-05-03T13:57:47Z</time>
      </trkpt>
      <trkpt lat="45.14913" lon="5.30952">
        <ele>277.4</ele>
        <time>2021-05-03T13:57:48Z</time>
      </trkpt>
      <trkpt lat="45.14916" lon="5.30959">
        <ele>277.5</ele>
        <time>2021-05-03T13:57:49Z</time>
      </trkpt>
      <trkpt lat="45.1492" lon="5.30965">
        <ele>277.5</ele>
        <time>2021-05-03T13:57:50Z</time>
      </trkpt>
      <trkpt lat="45.14923" lon="5.30972">
        <ele>277.5</ele>
        <time>2021-05-03T13:57:51Z</time>
      </trkpt>
      <trkpt lat="45.14926" lon="5.30979">
        <ele>277.6</ele>
        <time>2021-05-03T13:57:52Z</time>
      </trkpt>
      <trkpt lat="45.14928" lon="5.30986">
        <ele>277.6</ele>
        <time>2021-05-03T13:57:53Z</time>
      </trkpt>
      <trkpt lat="45.14931" lon="5.30992">
        <ele>277.6</ele>
        <time>2021-05-03T13:57:54Z</time>
      </trkpt>
      <trkpt lat="45.14933" lon="5.30999">
        <ele>277.7</ele>
        <time>2021-05-03T13:57:55Z</time>
      </trkpt>
      <trkpt lat="45.14936" lon="5.31006">
        <ele>277.7</ele>
        <time>2021-05-03T13:57:56Z</time>
      </trkpt>
      <trkpt lat="45.14939" lon="5.31013">
        <ele>277.7</ele>
        <time>2021-05-03T13:57:57Z</time>
      </trkpt>
      <trkpt lat="45.14941" lon="5.3102">
        <ele>277.8</ele>
        <time>2021-05-03T13:57:58Z</time>
      </trkpt>
      <trkpt lat="45.14944" lon="5.31027">
        <ele>277.8</ele>
        <time>2021-05-03T13:57:59Z</time>
      </trkpt>
      <trkpt lat="45.14946" lon="5.31035">
        <ele>277.8</ele>
        <time>2021-05-03T13:58:00Z</time>
      </trkpt>
      <trkpt lat="45.14949" lon="5.31042">
        <ele>277.9</ele>
        <time>2021-05-03T13:58:01Z</time>
      </trkpt>
      <trkpt lat="45.14951" lon="5.31048">
        <ele>277.9</ele>
        <time>2021-05-03T13:58:02Z</time>
      </trkpt>
      <trkpt lat="45.14953" lon="5.31055">
        <ele>277.9</ele>
        <time>2021-05-03T13:58:03Z</time>
      </trkpt>
      <trkpt lat="45.14956" lon="5.31062">
        <ele>277.9</ele>
        <time>2021-05-03T13:58:04Z</time>
      </trkpt>
      <trkpt lat="45.14958" lon="5.31069">
        <ele>277.9</ele>
        <time>2021-05-03T13:58:05Z</time>
      </trkpt>
      <trkpt lat="45.1496" lon="5.31076">
        <ele>278</ele>
        <time>2021-05-03T13:58:06Z</time>
      </trkpt>
      <trkpt lat="45.14963" lon="5.31083">
        <ele>278</ele>
        <time>2021-05-03T13:58:07Z</time>
      </trkpt>
      <trkpt lat="45.14965" lon="5.31089">
        <ele>278</ele>
        <time>2021-05-03T13:58:08Z</time>
      </trkpt>
      <trkpt lat="45.14967" lon="5.31096">
        <ele>278</ele>
        <time>2021-05-03T13:58:09Z</time>
      </trkpt>
      <trkpt lat="45.14969" lon="5.31103">
        <ele>278.1</ele>
        <time>2021-05-03T13:58:10Z</time>
      </trkpt>
      <trkpt lat="45.14971" lon="5.3111">
        <ele>278.1</ele>
        <time>2021-05-03T13:58:11Z</time>
      </trkpt>
      <trkpt lat="45.14973" lon="5.31117">
        <ele>278.1</ele>
        <time>2021-05-03T13:58:12Z</time>
      </trkpt>
      <trkpt lat="45.14974" lon="5.31124">
        <ele>278.1</ele>
        <time>2021-05-03T13:58:13Z</time>
      </trkpt>
      <trkpt lat="45.14976" lon="5.31131">
        <ele>278.2</ele>
        <time>2021-05-03T13:58:14Z</time>
      </trkpt>
      <trkpt lat="45.14978" lon="5.31138">
        <ele>278.2</ele>
        <time>2021-05-03T13:58:15Z</time>
      </trkpt>
      <trkpt lat="45.14979" lon="5.31145">
        <ele>278.2</ele>
        <time>2021-05-03T13:58:16Z</time>
      </trkpt>
      <trkpt lat="45.14981" lon="5.31152">
        <ele>278.2</ele>
        <time>2021-05-03T13:58:17Z</time>
      </trkpt>
      <trkpt lat="45.14982" lon="5.3116">
        <ele>278.3</ele>
        <time>2021-05-03T13:58:18Z</time>
      </trkpt>
      <trkpt lat="45.14984" lon="5.31167">
        <ele>278.3</ele>
        <time>2021-05-03T13:58:19Z</time>
      </trkpt>
      <trkpt lat="45.14986" lon="5.31175">
        <ele>278.3</ele>
        <time>2021-05-03T13:58:20Z</time>
      </trkpt>
      <trkpt lat="45.14987" lon="5.31182">
        <ele>278.4</ele>
        <time>2021-05-03T13:58:21Z</time>
      </trkpt>
      <trkpt lat="45.14989" lon="5.31189">
        <ele>278.4</ele>
        <time>2021-05-03T13:58:22Z</time>
      </trkpt>
      <trkpt lat="45.14991" lon="5.31196">
        <ele>278.4</ele>
        <time>2021-05-03T13:58:23Z</time>
      </trkpt>
      <trkpt lat="45.14994" lon="5.31202">
        <ele>278.4</ele>
        <time>2021-05-03T13:58:24Z</time>
      </trkpt>
      <trkpt lat="45.14997" lon="5.31207">
        <ele>278.4</ele>
        <time>2021-05-03T13:58:25Z</time>
      </trkpt>
      <trkpt lat="45.15" lon="5.31213">
        <ele>278.4</ele>
        <time>2021-05-03T13:58:26Z</time>
      </trkpt>
      <trkpt lat="45.15004" lon="5.31218">
        <ele>278.4</ele>
        <time>2021-05-03T13:58:27Z</time>
      </trkpt>
      <trkpt lat="45.15007" lon="5.31223">
        <ele>278.4</ele>
        <time>2021-05-03T13:58:28Z</time>
      </trkpt>
      <trkpt lat="45.15011" lon="5.31229">
        <ele>278.4</ele>
        <time>2021-05-03T13:58:29Z</time>
      </trkpt>
      <trkpt lat="45.15015" lon="5.31234">
        <ele>278.4</ele>
        <time>2021-05-03T13:58:30Z</time>
      </trkpt>
      <trkpt lat="45.15019" lon="5.31239">
        <ele>278.4</ele>
        <time>2021-05-03T13:58:31Z</time>
      </trkpt>
      <trkpt lat="45.15023" lon="5.31245">
        <ele>278.4</ele>
        <time>2021-05-03T13:58:32Z</time>
      </trkpt>
      <trkpt lat="45.15027" lon="5.3125">
        <ele>278.4</ele>
        <time>2021-05-03T13:58:33Z</time>
      </trkpt>
      <trkpt lat="45.15032" lon="5.31256">
        <ele>278.5</ele>
        <time>2021-05-03T13:58:34Z</time>
      </trkpt>
      <trkpt lat="45.15037" lon="5.31262">
        <ele>278.5</ele>
        <time>2021-05-03T13:58:35Z</time>
      </trkpt>
      <trkpt lat="45.1504" lon="5.31269">
        <ele>278.5</ele>
        <time>2021-05-03T13:58:36Z</time>
      </trkpt>
      <trkpt lat="45.15044" lon="5.31275">
        <ele>278.5</ele>
        <time>2021-05-03T13:58:37Z</time>
      </trkpt>
      <trkpt lat="45.15048" lon="5.31282">
        <ele>278.5</ele>
        <time>2021-05-03T13:58:38Z</time>
      </trkpt>
      <trkpt lat="45.15052" lon="5.31288">
        <ele>278.5</ele>
        <time>2021-05-03T13:58:39Z</time>
      </trkpt>
      <trkpt lat="45.15056" lon="5.31293">
        <ele>278.5</ele>
        <time>2021-05-03T13:58:40Z</time>
      </trkpt>
      <trkpt lat="45.1506" lon="5.31299">
        <ele>278.5</ele>
        <time>2021-05-03T13:58:41Z</time>
      </trkpt>
      <trkpt lat="45.15063" lon="5.31304">
        <ele>278.5</ele>
        <time>2021-05-03T13:58:42Z</time>
      </trkpt>
      <trkpt lat="45.15066" lon="5.31309">
        <ele>278.5</ele>
        <time>2021-05-03T13:58:43Z</time>
      </trkpt>
      <trkpt lat="45.1507" lon="5.31315">
        <ele>278.6</ele>
        <time>2021-05-03T13:58:44Z</time>
      </trkpt>
      <trkpt lat="45.15074" lon="5.3132">
        <ele>278.6</ele>
        <time>2021-05-03T13:58:45Z</time>
      </trkpt>
      <trkpt lat="45.15077" lon="5.31326">
        <ele>278.6</ele>
        <time>2021-05-03T13:58:46Z</time>
      </trkpt>
      <trkpt lat="45.15081" lon="5.31331">
        <ele>278.6</ele>
        <time>2021-05-03T13:58:47Z</time>
      </trkpt>
      <trkpt lat="45.15084" lon="5.31336">
        <ele>278.6</ele>
        <time>2021-05-03T13:58:48Z</time>
      </trkpt>
      <trkpt lat="45.15087" lon="5.3134">
        <ele>278.7</ele>
        <time>2021-05-03T13:58:49Z</time>
      </trkpt>
      <trkpt lat="45.15091" lon="5.31346">
        <ele>278.7</ele>
        <time>2021-05-03T13:58:50Z</time>
      </trkpt>
      <trkpt lat="45.15095" lon="5.31351">
        <ele>278.7</ele>
        <time>2021-05-03T13:58:51Z</time>
      </trkpt>
      <trkpt lat="45.15099" lon="5.31356">
        <ele>278.8</ele>
        <time>2021-05-03T13:58:52Z</time>
      </trkpt>
      <trkpt lat="45.15103" lon="5.31361">
        <ele>278.8</ele>
        <time>2021-05-03T13:58:53Z</time>
      </trkpt>
      <trkpt lat="45.15108" lon="5.31366">
        <ele>278.8</ele>
        <time>2021-05-03T13:58:54Z</time>
      </trkpt>
      <trkpt lat="45.15111" lon="5.31371">
        <ele>278.8</ele>
        <time>2021-05-03T13:58:55Z</time>
      </trkpt>
      <trkpt lat="45.15115" lon="5.31376">
        <ele>278.9</ele>
        <time>2021-05-03T13:58:56Z</time>
      </trkpt>
      <trkpt lat="45.1512" lon="5.31381">
        <ele>278.9</ele>
        <time>2021-05-03T13:58:57Z</time>
      </trkpt>
      <trkpt lat="45.15124" lon="5.31387">
        <ele>278.9</ele>
        <time>2021-05-03T13:58:58Z</time>
      </trkpt>
      <trkpt lat="45.15128" lon="5.31392">
        <ele>278.9</ele>
        <time>2021-05-03T13:58:59Z</time>
      </trkpt>
      <trkpt lat="45.15132" lon="5.31397">
        <ele>279</ele>
        <time>2021-05-03T13:59:00Z</time>
      </trkpt>
      <trkpt lat="45.15137" lon="5.31403">
        <ele>279</ele>
        <time>2021-05-03T13:59:01Z</time>
      </trkpt>
      <trkpt lat="45.15141" lon="5.31408">
        <ele>279</ele>
        <time>2021-05-03T13:59:02Z</time>
      </trkpt>
      <trkpt lat="45.15145" lon="5.31414">
        <ele>279</ele>
        <time>2021-05-03T13:59:03Z</time>
      </trkpt>
      <trkpt lat="45.15149" lon="5.31419">
        <ele>279.1</ele>
        <time>2021-05-03T13:59:04Z</time>
      </trkpt>
      <trkpt lat="45.15153" lon="5.31425">
        <ele>279.1</ele>
        <time>2021-05-03T13:59:05Z</time>
      </trkpt>
      <trkpt lat="45.15157" lon="5.3143">
        <ele>279.1</ele>
        <time>2021-05-03T13:59:06Z</time>
      </trkpt>
      <trkpt lat="45.15161" lon="5.31434">
        <ele>279.1</ele>
        <time>2021-05-03T13:59:07Z</time>
      </trkpt>
      <trkpt lat="45.15164" lon="5.31439">
        <ele>279.1</ele>
        <time>2021-05-03T13:59:08Z</time>
      </trkpt>
      <trkpt lat="45.15168" lon="5.31445">
        <ele>279.1</ele>
        <time>2021-05-03T13:59:09Z</time>
      </trkpt>
      <trkpt lat="45.15172" lon="5.31451">
        <ele>279.2</ele>
        <time>2021-05-03T13:59:10Z</time>
      </trkpt>
      <trkpt lat="45.15176" lon="5.31456">
        <ele>279.2</ele>
        <time>2021-05-03T13:59:11Z</time>
      </trkpt>
      <trkpt lat="45.1518" lon="5.31462">
        <ele>279.2</ele>
        <time>2021-05-03T13:59:12Z</time>
      </trkpt>
      <trkpt lat="45.15184" lon="5.31467">
        <ele>279.2</ele>
        <time>2021-05-03T13:59:13Z</time>
      </trkpt>
      <trkpt lat="45.15188" lon="5.31473">
        <ele>279.2</ele>
        <time>2021-05-03T13:59:14Z</time>
      </trkpt>
      <trkpt lat="45.15192" lon="5.31478">
        <ele>279.3</ele>
        <time>2021-05-03T13:59:15Z</time>
      </trkpt>
      <trkpt lat="45.15196" lon="5.31482">
        <ele>279.3</ele>
        <time>2021-05-03T13:59:16Z</time>
      </trkpt>
      <trkpt lat="45.152" lon="5.31487">
        <ele>279.3</ele>
        <time>2021-05-03T13:59:17Z</time>
      </trkpt>
      <trkpt lat="45.15204" lon="5.31492">
        <ele>279.4</ele>
        <time>2021-05-03T13:59:18Z</time>
      </trkpt>
      <trkpt lat="45.15207" lon="5.31497">
        <ele>279.4</ele>
        <time>2021-05-03T13:59:19Z</time>
      </trkpt>
      <trkpt lat="45.15211" lon="5.31502">
        <ele>279.4</ele>
        <time>2021-05-03T13:59:20Z</time>
      </trkpt>
      <trkpt lat="45.15214" lon="5.31508">
        <ele>279.5</ele>
        <time>2021-05-03T13:59:21Z</time>
      </trkpt>
      <trkpt lat="45.15216" lon="5.31513">
        <ele>279.5</ele>
        <time>2021-05-03T13:59:22Z</time>
      </trkpt>
      <trkpt lat="45.15219" lon="5.31518">
        <ele>279.5</ele>
        <time>2021-05-03T13:59:23Z</time>
      </trkpt>
      <trkpt lat="45.15223" lon="5.31523">
        <ele>279.6</ele>
        <time>2021-05-03T13:59:24Z</time>
      </trkpt>
      <trkpt lat="45.15227" lon="5.31528">
        <ele>279.6</ele>
        <time>2021-05-03T13:59:25Z</time>
      </trkpt>
      <trkpt lat="45.15231" lon="5.31533">
        <ele>279.6</ele>
        <time>2021-05-03T13:59:26Z</time>
      </trkpt>
      <trkpt lat="45.15236" lon="5.31538">
        <ele>279.6</ele>
        <time>2021-05-03T13:59:27Z</time>
      </trkpt>
      <trkpt lat="45.1524" lon="5.31544">
        <ele>279.7</ele>
        <time>2021-05-03T13:59:28Z</time>
      </trkpt>
      <trkpt lat="45.15243" lon="5.31549">
        <ele>279.7</ele>
        <time>2021-05-03T13:59:29Z</time>
      </trkpt>
      <trkpt lat="45.15246" lon="5.31554">
        <ele>279.7</ele>
        <time>2021-05-03T13:59:30Z</time>
      </trkpt>
      <trkpt lat="45.1525" lon="5.31559">
        <ele>279.8</ele>
        <time>2021-05-03T13:59:31Z</time>
      </trkpt>
      <trkpt lat="45.15254" lon="5.31565">
        <ele>279.8</ele>
        <time>2021-05-03T13:59:32Z</time>
      </trkpt>
      <trkpt lat="45.15258" lon="5.31571">
        <ele>279.9</ele>
        <time>2021-05-03T13:59:33Z</time>
      </trkpt>
      <trkpt lat="45.15261" lon="5.31576">
        <ele>279.9</ele>
        <time>2021-05-03T13:59:34Z</time>
      </trkpt>
      <trkpt lat="45.15266" lon="5.31582">
        <ele>280</ele>
        <time>2021-05-03T13:59:35Z</time>
      </trkpt>
      <trkpt lat="45.1527" lon="5.31587">
        <ele>280</ele>
        <time>2021-05-03T13:59:36Z</time>
      </trkpt>
      <trkpt lat="45.15274" lon="5.31592">
        <ele>280.1</ele>
        <time>2021-05-03T13:59:37Z</time>
      </trkpt>
      <trkpt lat="45.15278" lon="5.31596">
        <ele>280.1</ele>
        <time>2021-05-03T13:59:38Z</time>
      </trkpt>
      <trkpt lat="45.15281" lon="5.31601">
        <ele>280.2</ele>
        <time>2021-05-03T13:59:39Z</time>
      </trkpt>
      <trkpt lat="45.15285" lon="5.31607">
        <ele>280.3</ele>
        <time>2021-05-03T13:59:40Z</time>
      </trkpt>
      <trkpt lat="45.15289" lon="5.31612">
        <ele>280.3</ele>
        <time>2021-05-03T13:59:41Z</time>
      </trkpt>
      <trkpt lat="45.15293" lon="5.31617">
        <ele>280.4</ele>
        <time>2021-05-03T13:59:42Z</time>
      </trkpt>
      <trkpt lat="45.15297" lon="5.31622">
        <ele>280.5</ele>
        <time>2021-05-03T13:59:43Z</time>
      </trkpt>
      <trkpt lat="45.15301" lon="5.31626">
        <ele>280.5</ele>
        <time>2021-05-03T13:59:44Z</time>
      </trkpt>
      <trkpt lat="45.15305" lon="5.31631">
        <ele>280.6</ele>
        <time>2021-05-03T13:59:45Z</time>
      </trkpt>
      <trkpt lat="45.15309" lon="5.31635">
        <ele>280.7</ele>
        <time>2021-05-03T13:59:46Z</time>
      </trkpt>
      <trkpt lat="45.15313" lon="5.31639">
        <ele>280.7</ele>
        <time>2021-05-03T13:59:47Z</time>
      </trkpt>
      <trkpt lat="45.15316" lon="5.31643">
        <ele>280.8</ele>
        <time>2021-05-03T13:59:48Z</time>
      </trkpt>
      <trkpt lat="45.1532" lon="5.31648">
        <ele>280.9</ele>
        <time>2021-05-03T13:59:49Z</time>
      </trkpt>
      <trkpt lat="45.15325" lon="5.31653">
        <ele>281</ele>
        <time>2021-05-03T13:59:50Z</time>
      </trkpt>
      <trkpt lat="45.15329" lon="5.31658">
        <ele>281.1</ele>
        <time>2021-05-03T13:59:51Z</time>
      </trkpt>
      <trkpt lat="45.15332" lon="5.31662">
        <ele>281.1</ele>
        <time>2021-05-03T13:59:52Z</time>
      </trkpt>
      <trkpt lat="45.15335" lon="5.31666">
        <ele>281.3</ele>
        <time>2021-05-03T13:59:53Z</time>
      </trkpt>
      <trkpt lat="45.15339" lon="5.31671">
        <ele>281.4</ele>
        <time>2021-05-03T13:59:54Z</time>
      </trkpt>
      <trkpt lat="45.15342" lon="5.31676">
        <ele>281.5</ele>
        <time>2021-05-03T13:59:55Z</time>
      </trkpt>
      <trkpt lat="45.15345" lon="5.3168">
        <ele>281.6</ele>
        <time>2021-05-03T13:59:56Z</time>
      </trkpt>
      <trkpt lat="45.15348" lon="5.31685">
        <ele>281.7</ele>
        <time>2021-05-03T13:59:57Z</time>
      </trkpt>
      <trkpt lat="45.15351" lon="5.31688">
        <ele>281.8</ele>
        <time>2021-05-03T13:59:58Z</time>
      </trkpt>
      <trkpt lat="45.15355" lon="5.31692">
        <ele>281.9</ele>
        <time>2021-05-03T13:59:59Z</time>
      </trkpt>
      <trkpt lat="45.15358" lon="5.31696">
        <ele>282</ele>
        <time>2021-05-03T14:00:00Z</time>
      </trkpt>
      <trkpt lat="45.1536" lon="5.31699">
        <ele>282.1</ele>
        <time>2021-05-03T14:00:01Z</time>
      </trkpt>
      <trkpt lat="45.15363" lon="5.31703">
        <ele>282.1</ele>
        <time>2021-05-03T14:00:02Z</time>
      </trkpt>
      <trkpt lat="45.15366" lon="5.31707">
        <ele>282.2</ele>
        <time>2021-05-03T14:00:03Z</time>
      </trkpt>
      <trkpt lat="45.15368" lon="5.3171">
        <ele>282.3</ele>
        <time>2021-05-03T14:00:04Z</time>
      </trkpt>
      <trkpt lat="45.15371" lon="5.31713">
        <ele>282.4</ele>
        <time>2021-05-03T14:00:05Z</time>
      </trkpt>
      <trkpt lat="45.1537" lon="5.31717">
        <ele>282.5</ele>
        <time>2021-05-03T14:00:06Z</time>
      </trkpt>
      <trkpt lat="45.15376" lon="5.31724">
        <ele>282.7</ele>
        <time>2021-05-03T14:00:08Z</time>
      </trkpt>
      <trkpt lat="45.1538" lon="5.31729">
        <ele>282.8</ele>
        <time>2021-05-03T14:00:09Z</time>
      </trkpt>
      <trkpt lat="45.15387" lon="5.31736">
        <ele>283.1</ele>
        <time>2021-05-03T14:00:11Z</time>
      </trkpt>
      <trkpt lat="45.15389" lon="5.3174">
        <ele>283.1</ele>
        <time>2021-05-03T14:00:12Z</time>
      </trkpt>
      <trkpt lat="45.15392" lon="5.31744">
        <ele>283.2</ele>
        <time>2021-05-03T14:00:13Z</time>
      </trkpt>
      <trkpt lat="45.15392" lon="5.31753">
        <ele>283.4</ele>
        <time>2021-05-03T14:00:14Z</time>
      </trkpt>
      <trkpt lat="45.1539" lon="5.31756">
        <ele>283.7</ele>
        <time>2021-05-03T14:00:15Z</time>
      </trkpt>
      <trkpt lat="45.15387" lon="5.3176">
        <ele>283.7</ele>
        <time>2021-05-03T14:00:17Z</time>
      </trkpt>
      <trkpt lat="45.15381" lon="5.31761">
        <ele>283.6</ele>
        <time>2021-05-03T14:00:19Z</time>
      </trkpt>
      <trkpt lat="45.15378" lon="5.31761">
        <ele>283.6</ele>
        <time>2021-05-03T14:00:20Z</time>
      </trkpt>
      <trkpt lat="45.15372" lon="5.31762">
        <ele>283.6</ele>
        <time>2021-05-03T14:00:22Z</time>
      </trkpt>
      <trkpt lat="45.15367" lon="5.3176">
        <ele>283.5</ele>
        <time>2021-05-03T14:00:23Z</time>
      </trkpt>
      <trkpt lat="45.15359" lon="5.31757">
        <ele>283.4</ele>
        <time>2021-05-03T14:00:24Z</time>
      </trkpt>
      <trkpt lat="45.15354" lon="5.31756">
        <ele>283.4</ele>
        <time>2021-05-03T14:00:26Z</time>
      </trkpt>
      <trkpt lat="45.15348" lon="5.31756">
        <ele>283.3</ele>
        <time>2021-05-03T14:00:27Z</time>
      </trkpt>
      <trkpt lat="45.15338" lon="5.31754">
        <ele>283.2</ele>
        <time>2021-05-03T14:00:29Z</time>
      </trkpt>
      <trkpt lat="45.15333" lon="5.31753">
        <ele>283.1</ele>
        <time>2021-05-03T14:00:30Z</time>
      </trkpt>
      <trkpt lat="45.15328" lon="5.31752">
        <ele>283.1</ele>
        <time>2021-05-03T14:00:31Z</time>
      </trkpt>
      <trkpt lat="45.15323" lon="5.31752">
        <ele>283</ele>
        <time>2021-05-03T14:00:32Z</time>
      </trkpt>
      <trkpt lat="45.15318" lon="5.31752">
        <ele>283</ele>
        <time>2021-05-03T14:00:33Z</time>
      </trkpt>
      <trkpt lat="45.15314" lon="5.31752">
        <ele>283</ele>
        <time>2021-05-03T14:00:34Z</time>
      </trkpt>
      <trkpt lat="45.15309" lon="5.31752">
        <ele>283</ele>
        <time>2021-05-03T14:00:35Z</time>
      </trkpt>
      <trkpt lat="45.15305" lon="5.31752">
        <ele>282.9</ele>
        <time>2021-05-03T14:00:36Z</time>
      </trkpt>
      <trkpt lat="45.15302" lon="5.31753">
        <ele>282.9</ele>
        <time>2021-05-03T14:00:37Z</time>
      </trkpt>
      <trkpt lat="45.153" lon="5.31752">
        <ele>282.9</ele>
        <time>2021-05-03T14:00:38Z</time>
      </trkpt>
      <trkpt lat="45.15299" lon="5.3175">
        <ele>282.9</ele>
        <time>2021-05-03T14:00:39Z</time>
      </trkpt>
      <trkpt lat="45.15299" lon="5.31749">
        <ele>282.9</ele>
        <time>2021-05-03T14:00:40Z</time>
      </trkpt>
      <trkpt lat="45.15299" lon="5.31747">
        <ele>282.9</ele>
        <time>2021-05-03T14:00:41Z</time>
      </trkpt>
      <trkpt lat="45.15301" lon="5.31746">
        <ele>282.9</ele>
        <time>2021-05-03T14:00:43Z</time>
      </trkpt>
      <trkpt lat="45.15302" lon="5.31746">
        <ele>282.9</ele>
        <time>2021-05-03T14:00:44Z</time>
      </trkpt>
      <trkpt lat="45.15302" lon="5.31746">
        <ele>282.9</ele>
        <time>2021-05-03T14:00:45Z</time>
      </trkpt>
      <trkpt lat="45.15302" lon="5.31746">
        <ele>282.9</ele>
        <time>2021-05-03T14:00:46Z</time>
      </trkpt>
      <trkpt lat="45.15302" lon="5.31746">
        <ele>282.9</ele>
        <time>2021-05-03T14:00:47Z</time>
      </trkpt>
      <trkpt lat="45.15302" lon="5.31746">
        <ele>282.9</ele>
        <time>2021-05-03T14:00:48Z</time>
      </trkpt>
      <trkpt lat="45.15302" lon="5.31745">
        <ele>282.9</ele>
        <time>2021-05-03T14:00:49Z</time>
      </trkpt>
      <trkpt lat="45.15302" lon="5.31745">
        <ele>282.9</ele>
        <time>2021-05-03T14:00:50Z</time>
      </trkpt>
      <trkpt lat="45.15298" lon="5.31751">
        <ele>282.9</ele>
        <time>2021-05-03T14:01:12Z</time>
      </trkpt>
      <trkpt lat="45.15293" lon="5.31752">
        <ele>282.8</ele>
        <time>2021-05-03T14:01:14Z</time>
      </trkpt>
      <trkpt lat="45.15289" lon="5.31752">
        <ele>282.8</ele>
        <time>2021-05-03T14:01:15Z</time>
      </trkpt>
      <trkpt lat="45.15284" lon="5.3175">
        <ele>282.8</ele>
        <time>2021-05-03T14:01:16Z</time>
      </trkpt>
      <trkpt lat="45.15278" lon="5.31749">
        <ele>282.8</ele>
        <time>2021-05-03T14:01:17Z</time>
      </trkpt>
      <trkpt lat="45.15265" lon="5.31746">
        <ele>282.7</ele>
        <time>2021-05-03T14:01:19Z</time>
      </trkpt>
      <trkpt lat="45.15259" lon="5.31746">
        <ele>282.6</ele>
        <time>2021-05-03T14:01:20Z</time>
      </trkpt>
      <trkpt lat="45.15253" lon="5.31745">
        <ele>282.5</ele>
        <time>2021-05-03T14:01:21Z</time>
      </trkpt>
      <trkpt lat="45.15248" lon="5.31744">
        <ele>282.5</ele>
        <time>2021-05-03T14:01:22Z</time>
      </trkpt>
      <trkpt lat="45.15242" lon="5.31744">
        <ele>282.4</ele>
        <time>2021-05-03T14:01:23Z</time>
      </trkpt>
      <trkpt lat="45.15236" lon="5.31743">
        <ele>282.3</ele>
        <time>2021-05-03T14:01:24Z</time>
      </trkpt>
      <trkpt lat="45.1523" lon="5.31743">
        <ele>282.3</ele>
        <time>2021-05-03T14:01:25Z</time>
      </trkpt>
      <trkpt lat="45.15224" lon="5.31744">
        <ele>282.2</ele>
        <time>2021-05-03T14:01:26Z</time>
      </trkpt>
      <trkpt lat="45.15217" lon="5.31743">
        <ele>282.1</ele>
        <time>2021-05-03T14:01:27Z</time>
      </trkpt>
      <trkpt lat="45.15211" lon="5.31744">
        <ele>282.1</ele>
        <time>2021-05-03T14:01:28Z</time>
      </trkpt>
      <trkpt lat="45.15205" lon="5.31743">
        <ele>282</ele>
        <time>2021-05-03T14:01:29Z</time>
      </trkpt>
      <trkpt lat="45.15199" lon="5.31744">
        <ele>282</ele>
        <time>2021-05-03T14:01:30Z</time>
      </trkpt>
      <trkpt lat="45.15193" lon="5.31743">
        <ele>282</ele>
        <time>2021-05-03T14:01:31Z</time>
      </trkpt>
      <trkpt lat="45.15188" lon="5.31742">
        <ele>281.9</ele>
        <time>2021-05-03T14:01:32Z</time>
      </trkpt>
      <trkpt lat="45.15183" lon="5.31742">
        <ele>281.9</ele>
        <time>2021-05-03T14:01:33Z</time>
      </trkpt>
      <trkpt lat="45.15178" lon="5.31741">
        <ele>281.9</ele>
        <time>2021-05-03T14:01:34Z</time>
      </trkpt>
      <trkpt lat="45.15173" lon="5.31741">
        <ele>281.9</ele>
        <time>2021-05-03T14:01:35Z</time>
      </trkpt>
      <trkpt lat="45.15169" lon="5.31741">
        <ele>281.9</ele>
        <time>2021-05-03T14:01:36Z</time>
      </trkpt>
      <trkpt lat="45.15167" lon="5.31741">
        <ele>281.9</ele>
        <time>2021-05-03T14:01:37Z</time>
      </trkpt>
      <trkpt lat="45.15163" lon="5.3174">
        <ele>281.9</ele>
        <time>2021-05-03T14:01:38Z</time>
      </trkpt>
      <trkpt lat="45.15159" lon="5.3174">
        <ele>281.9</ele>
        <time>2021-05-03T14:01:39Z</time>
      </trkpt>
      <trkpt lat="45.15155" lon="5.31739">
        <ele>281.9</ele>
        <time>2021-05-03T14:01:40Z</time>
      </trkpt>
      <trkpt lat="45.15152" lon="5.31739">
        <ele>281.9</ele>
        <time>2021-05-03T14:01:41Z</time>
      </trkpt>
      <trkpt lat="45.15147" lon="5.31738">
        <ele>281.8</ele>
        <time>2021-05-03T14:01:43Z</time>
      </trkpt>
      <trkpt lat="45.15142" lon="5.31734">
        <ele>281.8</ele>
        <time>2021-05-03T14:01:45Z</time>
      </trkpt>
      <trkpt lat="45.15138" lon="5.31732">
        <ele>281.7</ele>
        <time>2021-05-03T14:01:47Z</time>
      </trkpt>
      <trkpt lat="45.15137" lon="5.31731">
        <ele>281.7</ele>
        <time>2021-05-03T14:01:48Z</time>
      </trkpt>
      <trkpt lat="45.15136" lon="5.31729">
        <ele>281.7</ele>
        <time>2021-05-03T14:01:49Z</time>
      </trkpt>
      <trkpt lat="45.15134" lon="5.31725">
        <ele>281.7</ele>
        <time>2021-05-03T14:01:50Z</time>
      </trkpt>
      <trkpt lat="45.15134" lon="5.31724">
        <ele>281.7</ele>
        <time>2021-05-03T14:01:51Z</time>
      </trkpt>
      <trkpt lat="45.1513" lon="5.31722">
        <ele>281.7</ele>
        <time>2021-05-03T14:01:52Z</time>
      </trkpt>
      <trkpt lat="45.15128" lon="5.31721">
        <ele>281.6</ele>
        <time>2021-05-03T14:01:53Z</time>
      </trkpt>
      <trkpt lat="45.15124" lon="5.3172">
        <ele>281.6</ele>
        <time>2021-05-03T14:01:54Z</time>
      </trkpt>
      <trkpt lat="45.15116" lon="5.31722">
        <ele>281.6</ele>
        <time>2021-05-03T14:01:56Z</time>
      </trkpt>
      <trkpt lat="45.15113" lon="5.31728">
        <ele>281.5</ele>
        <time>2021-05-03T14:01:57Z</time>
      </trkpt>
      <trkpt lat="45.15112" lon="5.31745">
        <ele>281.4</ele>
        <time>2021-05-03T14:01:59Z</time>
      </trkpt>
      <trkpt lat="45.15114" lon="5.31753">
        <ele>281.4</ele>
        <time>2021-05-03T14:02:00Z</time>
      </trkpt>
      <trkpt lat="45.15117" lon="5.31759">
        <ele>281.4</ele>
        <time>2021-05-03T14:02:01Z</time>
      </trkpt>
      <trkpt lat="45.15121" lon="5.31765">
        <ele>281.4</ele>
        <time>2021-05-03T14:02:02Z</time>
      </trkpt>
      <trkpt lat="45.15126" lon="5.3177">
        <ele>281.4</ele>
        <time>2021-05-03T14:02:03Z</time>
      </trkpt>
      <trkpt lat="45.15129" lon="5.31776">
        <ele>281.3</ele>
        <time>2021-05-03T14:02:04Z</time>
      </trkpt>
      <trkpt lat="45.15132" lon="5.31784">
        <ele>281.3</ele>
        <time>2021-05-03T14:02:05Z</time>
      </trkpt>
      <trkpt lat="45.15135" lon="5.31792">
        <ele>281.3</ele>
        <time>2021-05-03T14:02:06Z</time>
      </trkpt>
      <trkpt lat="45.15137" lon="5.318">
        <ele>281.2</ele>
        <time>2021-05-03T14:02:07Z</time>
      </trkpt>
      <trkpt lat="45.15139" lon="5.31808">
        <ele>281.2</ele>
        <time>2021-05-03T14:02:08Z</time>
      </trkpt>
      <trkpt lat="45.15141" lon="5.31817">
        <ele>281.1</ele>
        <time>2021-05-03T14:02:09Z</time>
      </trkpt>
      <trkpt lat="45.15144" lon="5.31825">
        <ele>281.1</ele>
        <time>2021-05-03T14:02:10Z</time>
      </trkpt>
      <trkpt lat="45.15146" lon="5.31834">
        <ele>281.1</ele>
        <time>2021-05-03T14:02:11Z</time>
      </trkpt>
      <trkpt lat="45.15149" lon="5.31843">
        <ele>281</ele>
        <time>2021-05-03T14:02:12Z</time>
      </trkpt>
      <trkpt lat="45.15151" lon="5.31851">
        <ele>281</ele>
        <time>2021-05-03T14:02:13Z</time>
      </trkpt>
      <trkpt lat="45.15154" lon="5.3186">
        <ele>281</ele>
        <time>2021-05-03T14:02:14Z</time>
      </trkpt>
      <trkpt lat="45.15156" lon="5.31868">
        <ele>281</ele>
        <time>2021-05-03T14:02:15Z</time>
      </trkpt>
      <trkpt lat="45.15159" lon="5.31877">
        <ele>281</ele>
        <time>2021-05-03T14:02:16Z</time>
      </trkpt>
      <trkpt lat="45.15161" lon="5.31886">
        <ele>281</ele>
        <time>2021-05-03T14:02:17Z</time>
      </trkpt>
      <trkpt lat="45.15163" lon="5.31895">
        <ele>281</ele>
        <time>2021-05-03T14:02:18Z</time>
      </trkpt>
      <trkpt lat="45.15166" lon="5.31904">
        <ele>281</ele>
        <time>2021-05-03T14:02:19Z</time>
      </trkpt>
      <trkpt lat="45.15168" lon="5.31912">
        <ele>281</ele>
        <time>2021-05-03T14:02:20Z</time>
      </trkpt>
      <trkpt lat="45.15171" lon="5.3192">
        <ele>281.1</ele>
        <time>2021-05-03T14:02:21Z</time>
      </trkpt>
      <trkpt lat="45.15174" lon="5.31927">
        <ele>281.1</ele>
        <time>2021-05-03T14:02:22Z</time>
      </trkpt>
      <trkpt lat="45.15177" lon="5.31935">
        <ele>281.2</ele>
        <time>2021-05-03T14:02:23Z</time>
      </trkpt>
      <trkpt lat="45.15181" lon="5.31942">
        <ele>281.2</ele>
        <time>2021-05-03T14:02:24Z</time>
      </trkpt>
      <trkpt lat="45.15184" lon="5.3195">
        <ele>281.3</ele>
        <time>2021-05-03T14:02:25Z</time>
      </trkpt>
      <trkpt lat="45.15188" lon="5.31956">
        <ele>281.3</ele>
        <time>2021-05-03T14:02:26Z</time>
      </trkpt>
      <trkpt lat="45.15191" lon="5.31962">
        <ele>281.4</ele>
        <time>2021-05-03T14:02:27Z</time>
      </trkpt>
      <trkpt lat="45.15194" lon="5.31968">
        <ele>281.4</ele>
        <time>2021-05-03T14:02:28Z</time>
      </trkpt>
      <trkpt lat="45.15197" lon="5.31974">
        <ele>281.4</ele>
        <time>2021-05-03T14:02:29Z</time>
      </trkpt>
      <trkpt lat="45.152" lon="5.3198">
        <ele>281.5</ele>
        <time>2021-05-03T14:02:30Z</time>
      </trkpt>
      <trkpt lat="45.15203" lon="5.31986">
        <ele>281.5</ele>
        <time>2021-05-03T14:02:31Z</time>
      </trkpt>
      <trkpt lat="45.15206" lon="5.31991">
        <ele>281.5</ele>
        <time>2021-05-03T14:02:32Z</time>
      </trkpt>
      <trkpt lat="45.1521" lon="5.31997">
        <ele>281.6</ele>
        <time>2021-05-03T14:02:33Z</time>
      </trkpt>
      <trkpt lat="45.15212" lon="5.32003">
        <ele>281.6</ele>
        <time>2021-05-03T14:02:34Z</time>
      </trkpt>
      <trkpt lat="45.15214" lon="5.32008">
        <ele>281.6</ele>
        <time>2021-05-03T14:02:35Z</time>
      </trkpt>
      <trkpt lat="45.15217" lon="5.32013">
        <ele>281.6</ele>
        <time>2021-05-03T14:02:36Z</time>
      </trkpt>
      <trkpt lat="45.1522" lon="5.32019">
        <ele>281.6</ele>
        <time>2021-05-03T14:02:37Z</time>
      </trkpt>
      <trkpt lat="45.15223" lon="5.32025">
        <ele>281.6</ele>
        <time>2021-05-03T14:02:38Z</time>
      </trkpt>
      <trkpt lat="45.15226" lon="5.32032">
        <ele>281.6</ele>
        <time>2021-05-03T14:02:39Z</time>
      </trkpt>
      <trkpt lat="45.1523" lon="5.32038">
        <ele>281.6</ele>
        <time>2021-05-03T14:02:40Z</time>
      </trkpt>
      <trkpt lat="45.15233" lon="5.32044">
        <ele>281.6</ele>
        <time>2021-05-03T14:02:41Z</time>
      </trkpt>
      <trkpt lat="45.15236" lon="5.3205">
        <ele>281.6</ele>
        <time>2021-05-03T14:02:42Z</time>
      </trkpt>
      <trkpt lat="45.15238" lon="5.32057">
        <ele>281.6</ele>
        <time>2021-05-03T14:02:43Z</time>
      </trkpt>
      <trkpt lat="45.15234" lon="5.32063">
        <ele>281.5</ele>
        <time>2021-05-03T14:02:44Z</time>
      </trkpt>
      <trkpt lat="45.15229" lon="5.32068">
        <ele>281.4</ele>
        <time>2021-05-03T14:02:45Z</time>
      </trkpt>
      <trkpt lat="45.15223" lon="5.32071">
        <ele>281.4</ele>
        <time>2021-05-03T14:02:46Z</time>
      </trkpt>
      <trkpt lat="45.15219" lon="5.32076">
        <ele>281.3</ele>
        <time>2021-05-03T14:02:47Z</time>
      </trkpt>
      <trkpt lat="45.15214" lon="5.32081">
        <ele>281.2</ele>
        <time>2021-05-03T14:02:48Z</time>
      </trkpt>
      <trkpt lat="45.15209" lon="5.32085">
        <ele>281.2</ele>
        <time>2021-05-03T14:02:49Z</time>
      </trkpt>
      <trkpt lat="45.15204" lon="5.32089">
        <ele>281.1</ele>
        <time>2021-05-03T14:02:50Z</time>
      </trkpt>
      <trkpt lat="45.15199" lon="5.32093">
        <ele>281.1</ele>
        <time>2021-05-03T14:02:51Z</time>
      </trkpt>
      <trkpt lat="45.15194" lon="5.32097">
        <ele>281.1</ele>
        <time>2021-05-03T14:02:52Z</time>
      </trkpt>
      <trkpt lat="45.15189" lon="5.32101">
        <ele>281.1</ele>
        <time>2021-05-03T14:02:53Z</time>
      </trkpt>
      <trkpt lat="45.15183" lon="5.32106">
        <ele>281</ele>
        <time>2021-05-03T14:02:54Z</time>
      </trkpt>
      <trkpt lat="45.15177" lon="5.3211">
        <ele>281</ele>
        <time>2021-05-03T14:02:55Z</time>
      </trkpt>
      <trkpt lat="45.15172" lon="5.32115">
        <ele>281</ele>
        <time>2021-05-03T14:02:56Z</time>
      </trkpt>
      <trkpt lat="45.15166" lon="5.32119">
        <ele>280.9</ele>
        <time>2021-05-03T14:02:57Z</time>
      </trkpt>
      <trkpt lat="45.1516" lon="5.32123">
        <ele>280.9</ele>
        <time>2021-05-03T14:02:58Z</time>
      </trkpt>
      <trkpt lat="45.15154" lon="5.32126">
        <ele>280.9</ele>
        <time>2021-05-03T14:02:59Z</time>
      </trkpt>
      <trkpt lat="45.15148" lon="5.32131">
        <ele>280.9</ele>
        <time>2021-05-03T14:03:00Z</time>
      </trkpt>
      <trkpt lat="45.15142" lon="5.32134">
        <ele>280.9</ele>
        <time>2021-05-03T14:03:01Z</time>
      </trkpt>
      <trkpt lat="45.15136" lon="5.32138">
        <ele>280.9</ele>
        <time>2021-05-03T14:03:02Z</time>
      </trkpt>
      <trkpt lat="45.15131" lon="5.32143">
        <ele>280.9</ele>
        <time>2021-05-03T14:03:03Z</time>
      </trkpt>
      <trkpt lat="45.15125" lon="5.32147">
        <ele>280.9</ele>
        <time>2021-05-03T14:03:04Z</time>
      </trkpt>
      <trkpt lat="45.15119" lon="5.32151">
        <ele>280.9</ele>
        <time>2021-05-03T14:03:05Z</time>
      </trkpt>
      <trkpt lat="45.15113" lon="5.32155">
        <ele>280.9</ele>
        <time>2021-05-03T14:03:06Z</time>
      </trkpt>
      <trkpt lat="45.15108" lon="5.32159">
        <ele>280.9</ele>
        <time>2021-05-03T14:03:07Z</time>
      </trkpt>
      <trkpt lat="45.15102" lon="5.32164">
        <ele>280.9</ele>
        <time>2021-05-03T14:03:08Z</time>
      </trkpt>
      <trkpt lat="45.15096" lon="5.32168">
        <ele>280.8</ele>
        <time>2021-05-03T14:03:09Z</time>
      </trkpt>
      <trkpt lat="45.1509" lon="5.32172">
        <ele>280.8</ele>
        <time>2021-05-03T14:03:10Z</time>
      </trkpt>
      <trkpt lat="45.15084" lon="5.32176">
        <ele>280.8</ele>
        <time>2021-05-03T14:03:11Z</time>
      </trkpt>
      <trkpt lat="45.15079" lon="5.3218">
        <ele>280.8</ele>
        <time>2021-05-03T14:03:12Z</time>
      </trkpt>
      <trkpt lat="45.15073" lon="5.32184">
        <ele>280.8</ele>
        <time>2021-05-03T14:03:13Z</time>
      </trkpt>
      <trkpt lat="45.15067" lon="5.32189">
        <ele>280.8</ele>
        <time>2021-05-03T14:03:14Z</time>
      </trkpt>
      <trkpt lat="45.15062" lon="5.32193">
        <ele>280.8</ele>
        <time>2021-05-03T14:03:15Z</time>
      </trkpt>
      <trkpt lat="45.15056" lon="5.32197">
        <ele>280.8</ele>
        <time>2021-05-03T14:03:16Z</time>
      </trkpt>
      <trkpt lat="45.15051" lon="5.32202">
        <ele>280.9</ele>
        <time>2021-05-03T14:03:17Z</time>
      </trkpt>
      <trkpt lat="45.15048" lon="5.32209">
        <ele>280.9</ele>
        <time>2021-05-03T14:03:18Z</time>
      </trkpt>
      <trkpt lat="45.15046" lon="5.32217">
        <ele>280.9</ele>
        <time>2021-05-03T14:03:19Z</time>
      </trkpt>
      <trkpt lat="45.15047" lon="5.32226">
        <ele>280.9</ele>
        <time>2021-05-03T14:03:20Z</time>
      </trkpt>
      <trkpt lat="45.1505" lon="5.32234">
        <ele>280.9</ele>
        <time>2021-05-03T14:03:21Z</time>
      </trkpt>
      <trkpt lat="45.15054" lon="5.32241">
        <ele>280.9</ele>
        <time>2021-05-03T14:03:22Z</time>
      </trkpt>
      <trkpt lat="45.15057" lon="5.32248">
        <ele>280.9</ele>
        <time>2021-05-03T14:03:23Z</time>
      </trkpt>
      <trkpt lat="45.15061" lon="5.32254">
        <ele>280.9</ele>
        <time>2021-05-03T14:03:24Z</time>
      </trkpt>
      <trkpt lat="45.15065" lon="5.32261">
        <ele>280.9</ele>
        <time>2021-05-03T14:03:25Z</time>
      </trkpt>
      <trkpt lat="45.15069" lon="5.32268">
        <ele>280.9</ele>
        <time>2021-05-03T14:03:26Z</time>
      </trkpt>
      <trkpt lat="45.15071" lon="5.32276">
        <ele>281</ele>
        <time>2021-05-03T14:03:27Z</time>
      </trkpt>
      <trkpt lat="45.15072" lon="5.32284">
        <ele>281</ele>
        <time>2021-05-03T14:03:28Z</time>
      </trkpt>
      <trkpt lat="45.15071" lon="5.32292">
        <ele>281</ele>
        <time>2021-05-03T14:03:29Z</time>
      </trkpt>
      <trkpt lat="45.15071" lon="5.32299">
        <ele>280.9</ele>
        <time>2021-05-03T14:03:30Z</time>
      </trkpt>
      <trkpt lat="45.15073" lon="5.32305">
        <ele>280.9</ele>
        <time>2021-05-03T14:03:31Z</time>
      </trkpt>
      <trkpt lat="45.15074" lon="5.32309">
        <ele>280.9</ele>
        <time>2021-05-03T14:03:32Z</time>
      </trkpt>
      <trkpt lat="45.15077" lon="5.32314">
        <ele>280.9</ele>
        <time>2021-05-03T14:03:33Z</time>
      </trkpt>
      <trkpt lat="45.1508" lon="5.3232">
        <ele>281</ele>
        <time>2021-05-03T14:03:34Z</time>
      </trkpt>
      <trkpt lat="45.15081" lon="5.32325">
        <ele>281</ele>
        <time>2021-05-03T14:03:35Z</time>
      </trkpt>
      <trkpt lat="45.15078" lon="5.32328">
        <ele>281</ele>
        <time>2021-05-03T14:03:36Z</time>
      </trkpt>
      <trkpt lat="45.15076" lon="5.32331">
        <ele>281</ele>
        <time>2021-05-03T14:03:37Z</time>
      </trkpt>
      <trkpt lat="45.15074" lon="5.32335">
        <ele>281</ele>
        <time>2021-05-03T14:03:38Z</time>
      </trkpt>
      <trkpt lat="45.15072" lon="5.32338">
        <ele>281</ele>
        <time>2021-05-03T14:03:39Z</time>
      </trkpt>
      <trkpt lat="45.15069" lon="5.3234">
        <ele>281</ele>
        <time>2021-05-03T14:03:40Z</time>
      </trkpt>
      <trkpt lat="45.15068" lon="5.3234">
        <ele>280.9</ele>
        <time>2021-05-03T14:03:41Z</time>
      </trkpt>
      <trkpt lat="45.15065" lon="5.32338">
        <ele>280.9</ele>
        <time>2021-05-03T14:03:43Z</time>
      </trkpt>
      <trkpt lat="45.15063" lon="5.32335">
        <ele>280.9</ele>
        <time>2021-05-03T14:03:44Z</time>
      </trkpt>
      <trkpt lat="45.15062" lon="5.32332">
        <ele>280.9</ele>
        <time>2021-05-03T14:03:45Z</time>
      </trkpt>
      <trkpt lat="45.15062" lon="5.3233">
        <ele>280.9</ele>
        <time>2021-05-03T14:03:46Z</time>
      </trkpt>
      <trkpt lat="45.15063" lon="5.32329">
        <ele>280.9</ele>
        <time>2021-05-03T14:03:48Z</time>
      </trkpt>
      <trkpt lat="45.15063" lon="5.32329">
        <ele>280.9</ele>
        <time>2021-05-03T14:03:49Z</time>
      </trkpt>
      <trkpt lat="45.15064" lon="5.32329">
        <ele>280.9</ele>
        <time>2021-05-03T14:03:50Z</time>
      </trkpt>
      <trkpt lat="45.15064" lon="5.32329">
        <ele>280.9</ele>
        <time>2021-05-03T14:03:51Z</time>
      </trkpt>
      <trkpt lat="45.15064" lon="5.3233">
        <ele>280.9</ele>
        <time>2021-05-03T14:03:52Z</time>
      </trkpt>
      <trkpt lat="45.15064" lon="5.3233">
        <ele>280.9</ele>
        <time>2021-05-03T14:03:53Z</time>
      </trkpt>
      <trkpt lat="45.15064" lon="5.3233">
        <ele>280.9</ele>
        <time>2021-05-03T14:03:54Z</time>
      </trkpt>
      <trkpt lat="45.15063" lon="5.3233">
        <ele>280.9</ele>
        <time>2021-05-03T14:03:55Z</time>
      </trkpt>
      <trkpt lat="45.15064" lon="5.3233">
        <ele>280.9</ele>
        <time>2021-05-03T14:03:57Z</time>
      </trkpt>
      <trkpt lat="45.15064" lon="5.3233">
        <ele>280.9</ele>
        <time>2021-05-03T14:03:58Z</time>
      </trkpt>
      <trkpt lat="45.15064" lon="5.3233">
        <ele>280.9</ele>
        <time>2021-05-03T14:03:59Z</time>
      </trkpt>
      <trkpt lat="45.15064" lon="5.3233">
        <ele>280.9</ele>
        <time>2021-05-03T14:04:00Z</time>
      </trkpt>
      <trkpt lat="45.15064" lon="5.3233">
        <ele>280.9</ele>
        <time>2021-05-03T14:04:01Z</time>
      </trkpt>
      <trkpt lat="45.15064" lon="5.3233">
        <ele>280.9</ele>
        <time>2021-05-03T14:04:02Z</time>
      </trkpt>
      <trkpt lat="45.15064" lon="5.3233">
        <ele>280.9</ele>
        <time>2021-05-03T14:04:03Z</time>
      </trkpt>
      <trkpt lat="45.15064" lon="5.3233">
        <ele>280.9</ele>
        <time>2021-05-03T14:04:04Z</time>
      </trkpt>
      <trkpt lat="45.15064" lon="5.3233">
        <ele>280.9</ele>
        <time>2021-05-03T14:04:05Z</time>
      </trkpt>
      <trkpt lat="45.15064" lon="5.32332">
        <ele>280.9</ele>
        <time>2021-05-03T14:04:09Z</time>
      </trkpt>
      <trkpt lat="45.15063" lon="5.32333">
        <ele>280.9</ele>
        <time>2021-05-03T14:04:10Z</time>
      </trkpt>
      <trkpt lat="45.15062" lon="5.32334">
        <ele>280.9</ele>
        <time>2021-05-03T14:04:11Z</time>
      </trkpt>
      <trkpt lat="45.1506" lon="5.32335">
        <ele>280.9</ele>
        <time>2021-05-03T14:04:13Z</time>
      </trkpt>
      <trkpt lat="45.15059" lon="5.32335">
        <ele>280.9</ele>
        <time>2021-05-03T14:04:14Z</time>
      </trkpt>
      <trkpt lat="45.15056" lon="5.32334">
        <ele>280.8</ele>
        <time>2021-05-03T14:04:16Z</time>
      </trkpt>
      <trkpt lat="45.15054" lon="5.32334">
        <ele>280.8</ele>
        <time>2021-05-03T14:04:17Z</time>
      </trkpt>
      <trkpt lat="45.15054" lon="5.32334">
        <ele>280.8</ele>
        <time>2021-05-03T14:04:18Z</time>
      </trkpt>
      <trkpt lat="45.15054" lon="5.32331">
        <ele>280.8</ele>
        <time>2021-05-03T14:04:19Z</time>
      </trkpt>
      <trkpt lat="45.15055" lon="5.32327">
        <ele>280.8</ele>
        <time>2021-05-03T14:04:20Z</time>
      </trkpt>
      <trkpt lat="45.15056" lon="5.32325">
        <ele>280.8</ele>
        <time>2021-05-03T14:04:21Z</time>
      </trkpt>
      <trkpt lat="45.15056" lon="5.3232">
        <ele>280.8</ele>
        <time>2021-05-03T14:04:23Z</time>
      </trkpt>
      <trkpt lat="45.15057" lon="5.32319">
        <ele>280.8</ele>
        <time>2021-05-03T14:04:24Z</time>
      </trkpt>
      <trkpt lat="45.15058" lon="5.32322">
        <ele>280.8</ele>
        <time>2021-05-03T14:04:25Z</time>
      </trkpt>
      <trkpt lat="45.15059" lon="5.32323">
        <ele>280.8</ele>
        <time>2021-05-03T14:04:26Z</time>
      </trkpt>
      <trkpt lat="45.1506" lon="5.32324">
        <ele>280.9</ele>
        <time>2021-05-03T14:04:28Z</time>
      </trkpt>
      <trkpt lat="45.1506" lon="5.32324">
        <ele>280.9</ele>
        <time>2021-05-03T14:04:29Z</time>
      </trkpt>
      <trkpt lat="45.1506" lon="5.32323">
        <ele>280.8</ele>
        <time>2021-05-03T14:04:30Z</time>
      </trkpt>
      <trkpt lat="45.15059" lon="5.32323">
        <ele>280.8</ele>
        <time>2021-05-03T14:04:32Z</time>
      </trkpt>
      <trkpt lat="45.15059" lon="5.32322">
        <ele>280.8</ele>
        <time>2021-05-03T14:04:33Z</time>
      </trkpt>
      <trkpt lat="45.1506" lon="5.32322">
        <ele>280.8</ele>
        <time>2021-05-03T14:04:34Z</time>
      </trkpt>
      <trkpt lat="45.1506" lon="5.32322">
        <ele>280.8</ele>
        <time>2021-05-03T14:04:35Z</time>
      </trkpt>
      <trkpt lat="45.1506" lon="5.32322">
        <ele>280.9</ele>
        <time>2021-05-03T14:04:36Z</time>
      </trkpt>
      <trkpt lat="45.1506" lon="5.32322">
        <ele>280.9</ele>
        <time>2021-05-03T14:04:37Z</time>
      </trkpt>
      <trkpt lat="45.1506" lon="5.32321">
        <ele>280.9</ele>
        <time>2021-05-03T14:04:38Z</time>
      </trkpt>
      <trkpt lat="45.1506" lon="5.32321">
        <ele>280.9</ele>
        <time>2021-05-03T14:04:39Z</time>
      </trkpt>
      <trkpt lat="45.1506" lon="5.3232">
        <ele>280.8</ele>
        <time>2021-05-03T14:04:41Z</time>
      </trkpt>
      <trkpt lat="45.15059" lon="5.3232">
        <ele>280.8</ele>
        <time>2021-05-03T14:04:42Z</time>
      </trkpt>
      <trkpt lat="45.15054" lon="5.32326">
        <ele>280.8</ele>
        <time>2021-05-03T14:05:21Z</time>
      </trkpt>
      <trkpt lat="45.15052" lon="5.32329">
        <ele>280.8</ele>
        <time>2021-05-03T14:05:22Z</time>
      </trkpt>
      <trkpt lat="45.15049" lon="5.32329">
        <ele>280.8</ele>
        <time>2021-05-03T14:05:23Z</time>
      </trkpt>
      <trkpt lat="45.15047" lon="5.32327">
        <ele>280.8</ele>
        <time>2021-05-03T14:05:25Z</time>
      </trkpt>
      <trkpt lat="45.15047" lon="5.32328">
        <ele>280.8</ele>
        <time>2021-05-03T14:05:26Z</time>
      </trkpt>
      <trkpt lat="45.15048" lon="5.32328">
        <ele>280.8</ele>
        <time>2021-05-03T14:05:27Z</time>
      </trkpt>
      <trkpt lat="45.15048" lon="5.32328">
        <ele>280.8</ele>
        <time>2021-05-03T14:05:28Z</time>
      </trkpt>
      <trkpt lat="45.15047" lon="5.32328">
        <ele>280.8</ele>
        <time>2021-05-03T14:05:30Z</time>
      </trkpt>
      <trkpt lat="45.15045" lon="5.32327">
        <ele>280.8</ele>
        <time>2021-05-03T14:05:32Z</time>
      </trkpt>
      <trkpt lat="45.15043" lon="5.32327">
        <ele>280.8</ele>
        <time>2021-05-03T14:05:34Z</time>
      </trkpt>
      <trkpt lat="45.15043" lon="5.32326">
        <ele>280.8</ele>
        <time>2021-05-03T14:05:35Z</time>
      </trkpt>
      <trkpt lat="45.15041" lon="5.32322">
        <ele>280.8</ele>
        <time>2021-05-03T14:05:37Z</time>
      </trkpt>
      <trkpt lat="45.15041" lon="5.32321">
        <ele>280.7</ele>
        <time>2021-05-03T14:05:38Z</time>
      </trkpt>
      <trkpt lat="45.1504" lon="5.3232">
        <ele>280.7</ele>
        <time>2021-05-03T14:05:40Z</time>
      </trkpt>
      <trkpt lat="45.15039" lon="5.32318">
        <ele>280.7</ele>
        <time>2021-05-03T14:05:42Z</time>
      </trkpt>
      <trkpt lat="45.15038" lon="5.32316">
        <ele>280.7</ele>
        <time>2021-05-03T14:05:43Z</time>
      </trkpt>
      <trkpt lat="45.15037" lon="5.32313">
        <ele>280.7</ele>
        <time>2021-05-03T14:05:45Z</time>
      </trkpt>
      <trkpt lat="45.15036" lon="5.3231">
        <ele>280.7</ele>
        <time>2021-05-03T14:05:46Z</time>
      </trkpt>
      <trkpt lat="45.15035" lon="5.32305">
        <ele>280.6</ele>
        <time>2021-05-03T14:05:47Z</time>
      </trkpt>
      <trkpt lat="45.15033" lon="5.32297">
        <ele>280.6</ele>
        <time>2021-05-03T14:05:49Z</time>
      </trkpt>
      <trkpt lat="45.15031" lon="5.32293">
        <ele>280.5</ele>
        <time>2021-05-03T14:05:50Z</time>
      </trkpt>
      <trkpt lat="45.15027" lon="5.32286">
        <ele>280.5</ele>
        <time>2021-05-03T14:05:52Z</time>
      </trkpt>
      <trkpt lat="45.15025" lon="5.32283">
        <ele>280.4</ele>
        <time>2021-05-03T14:05:53Z</time>
      </trkpt>
      <trkpt lat="45.15021" lon="5.32278">
        <ele>280.4</ele>
        <time>2021-05-03T14:05:55Z</time>
      </trkpt>
      <trkpt lat="45.15019" lon="5.32273">
        <ele>280.3</ele>
        <time>2021-05-03T14:05:56Z</time>
      </trkpt>
      <trkpt lat="45.15017" lon="5.3227">
        <ele>280.2</ele>
        <time>2021-05-03T14:05:57Z</time>
      </trkpt>
      <trkpt lat="45.15015" lon="5.32266">
        <ele>280.2</ele>
        <time>2021-05-03T14:05:59Z</time>
      </trkpt>
      <trkpt lat="45.15013" lon="5.32261">
        <ele>280.1</ele>
        <time>2021-05-03T14:06:01Z</time>
      </trkpt>
      <trkpt lat="45.1501" lon="5.32257">
        <ele>280.1</ele>
        <time>2021-05-03T14:06:02Z</time>
      </trkpt>
      <trkpt lat="45.15007" lon="5.32252">
        <ele>280</ele>
        <time>2021-05-03T14:06:04Z</time>
      </trkpt>
      <trkpt lat="45.15006" lon="5.3225">
        <ele>280</ele>
        <time>2021-05-03T14:06:05Z</time>
      </trkpt>
      <trkpt lat="45.15005" lon="5.32248">
        <ele>279.9</ele>
        <time>2021-05-03T14:06:06Z</time>
      </trkpt>
      <trkpt lat="45.15003" lon="5.32245">
        <ele>279.9</ele>
        <time>2021-05-03T14:06:08Z</time>
      </trkpt>
      <trkpt lat="45.15002" lon="5.32245">
        <ele>279.9</ele>
        <time>2021-05-03T14:06:10Z</time>
      </trkpt>
      <trkpt lat="45.15002" lon="5.32245">
        <ele>279.9</ele>
        <time>2021-05-03T14:06:11Z</time>
      </trkpt>
      <trkpt lat="45.15002" lon="5.32245">
        <ele>279.9</ele>
        <time>2021-05-03T14:06:12Z</time>
      </trkpt>
      <trkpt lat="45.15002" lon="5.32245">
        <ele>279.9</ele>
        <time>2021-05-03T14:06:14Z</time>
      </trkpt>
      <trkpt lat="45.15002" lon="5.32246">
        <ele>279.9</ele>
        <time>2021-05-03T14:06:16Z</time>
      </trkpt>
      <trkpt lat="45.15002" lon="5.32246">
        <ele>279.9</ele>
        <time>2021-05-03T14:06:17Z</time>
      </trkpt>
      <trkpt lat="45.15002" lon="5.32247">
        <ele>279.9</ele>
        <time>2021-05-03T14:06:19Z</time>
      </trkpt>
      <trkpt lat="45.15002" lon="5.32247">
        <ele>279.9</ele>
        <time>2021-05-03T14:06:20Z</time>
      </trkpt>
      <trkpt lat="45.15002" lon="5.32247">
        <ele>279.9</ele>
        <time>2021-05-03T14:06:21Z</time>
      </trkpt>
      <trkpt lat="45.15002" lon="5.32247">
        <ele>279.9</ele>
        <time>2021-05-03T14:06:23Z</time>
      </trkpt>
    </trkseg>
  </trk>
</gpx>